<?xml version="1.0" encoding="UTF-8" standalone="no" ?>
<gpx xmlns="http://www.topografix.com/GPX/1/1" xmlns:xsi="http://www.w3.org/2001/XMLSchema-instance" xsi:schemaLocation="http://www.topografix.com/GPX/1/1 http://www.topografix.com/GPX/1/1/gpx.xsd" version="1.1" creator="VisuGPX - https://www.visugpx.com">
  <metadata>
    <name>Puylaurens mardi 8 mars 2022</name>
  </metadata>
  <trk>
    <name><![CDATA[Puylaurens mardi 8 mars 2022]]></name>
    <trkseg>
      <trkpt lat="43.57107" lon="2.01337">
        <ele>344</ele>
        <time>2022-03-08T12:49:58Z</time>
      </trkpt>
      <trkpt lat="43.57106" lon="2.01336">
        <ele>343.6</ele>
        <time>2022-03-08T12:49:59Z</time>
      </trkpt>
      <trkpt lat="43.57106" lon="2.01335">
        <ele>343.6</ele>
        <time>2022-03-08T12:50:00Z</time>
      </trkpt>
      <trkpt lat="43.57105" lon="2.01336">
        <ele>343.6</ele>
        <time>2022-03-08T12:50:01Z</time>
      </trkpt>
      <trkpt lat="43.57105" lon="2.01339">
        <ele>343.9</ele>
        <time>2022-03-08T12:50:02Z</time>
      </trkpt>
      <trkpt lat="43.57104" lon="2.01343">
        <ele>344.2</ele>
        <time>2022-03-08T12:50:04Z</time>
      </trkpt>
      <trkpt lat="43.57103" lon="2.01344">
        <ele>343.8</ele>
        <time>2022-03-08T12:50:05Z</time>
      </trkpt>
      <trkpt lat="43.57103" lon="2.01344">
        <ele>343.8</ele>
        <time>2022-03-08T12:50:06Z</time>
      </trkpt>
      <trkpt lat="43.57103" lon="2.01344">
        <ele>343.8</ele>
        <time>2022-03-08T12:50:07Z</time>
      </trkpt>
      <trkpt lat="43.57102" lon="2.01344">
        <ele>343.8</ele>
        <time>2022-03-08T12:50:08Z</time>
      </trkpt>
      <trkpt lat="43.57102" lon="2.01344">
        <ele>343.8</ele>
        <time>2022-03-08T12:50:09Z</time>
      </trkpt>
      <trkpt lat="43.57102" lon="2.01344">
        <ele>343.8</ele>
        <time>2022-03-08T12:50:10Z</time>
      </trkpt>
      <trkpt lat="43.57102" lon="2.01344">
        <ele>343.8</ele>
        <time>2022-03-08T12:50:11Z</time>
      </trkpt>
      <trkpt lat="43.57102" lon="2.01344">
        <ele>343.8</ele>
        <time>2022-03-08T12:50:12Z</time>
      </trkpt>
      <trkpt lat="43.57102" lon="2.01344">
        <ele>343.8</ele>
        <time>2022-03-08T12:50:13Z</time>
      </trkpt>
      <trkpt lat="43.57102" lon="2.01344">
        <ele>343.8</ele>
        <time>2022-03-08T12:50:14Z</time>
      </trkpt>
      <trkpt lat="43.57102" lon="2.01344">
        <ele>343.8</ele>
        <time>2022-03-08T12:50:15Z</time>
      </trkpt>
      <trkpt lat="43.57102" lon="2.01344">
        <ele>343.8</ele>
        <time>2022-03-08T12:50:16Z</time>
      </trkpt>
      <trkpt lat="43.57102" lon="2.01344">
        <ele>343.8</ele>
        <time>2022-03-08T12:50:17Z</time>
      </trkpt>
      <trkpt lat="43.57102" lon="2.01344">
        <ele>343.8</ele>
        <time>2022-03-08T12:50:18Z</time>
      </trkpt>
      <trkpt lat="43.57102" lon="2.01344">
        <ele>343.8</ele>
        <time>2022-03-08T12:50:19Z</time>
      </trkpt>
      <trkpt lat="43.57102" lon="2.01344">
        <ele>343.8</ele>
        <time>2022-03-08T12:50:20Z</time>
      </trkpt>
      <trkpt lat="43.57102" lon="2.01344">
        <ele>343.8</ele>
        <time>2022-03-08T12:50:21Z</time>
      </trkpt>
      <trkpt lat="43.57102" lon="2.01344">
        <ele>343.8</ele>
        <time>2022-03-08T12:50:22Z</time>
      </trkpt>
      <trkpt lat="43.57102" lon="2.01344">
        <ele>343.8</ele>
        <time>2022-03-08T12:50:23Z</time>
      </trkpt>
      <trkpt lat="43.57102" lon="2.01344">
        <ele>343.8</ele>
        <time>2022-03-08T12:50:24Z</time>
      </trkpt>
      <trkpt lat="43.57102" lon="2.01344">
        <ele>343.8</ele>
        <time>2022-03-08T12:50:25Z</time>
      </trkpt>
      <trkpt lat="43.57102" lon="2.01344">
        <ele>343.8</ele>
        <time>2022-03-08T12:50:26Z</time>
      </trkpt>
      <trkpt lat="43.57102" lon="2.01344">
        <ele>343.8</ele>
        <time>2022-03-08T12:50:27Z</time>
      </trkpt>
      <trkpt lat="43.57102" lon="2.01344">
        <ele>343.8</ele>
        <time>2022-03-08T12:50:28Z</time>
      </trkpt>
      <trkpt lat="43.57102" lon="2.01344">
        <ele>343.8</ele>
        <time>2022-03-08T12:50:29Z</time>
      </trkpt>
      <trkpt lat="43.57102" lon="2.01344">
        <ele>343.8</ele>
        <time>2022-03-08T12:50:30Z</time>
      </trkpt>
      <trkpt lat="43.57102" lon="2.01344">
        <ele>343.8</ele>
        <time>2022-03-08T12:50:31Z</time>
      </trkpt>
      <trkpt lat="43.57102" lon="2.01344">
        <ele>343.8</ele>
        <time>2022-03-08T12:50:32Z</time>
      </trkpt>
      <trkpt lat="43.57102" lon="2.01344">
        <ele>343.8</ele>
        <time>2022-03-08T12:50:33Z</time>
      </trkpt>
      <trkpt lat="43.57102" lon="2.01345">
        <ele>343.8</ele>
        <time>2022-03-08T12:50:34Z</time>
      </trkpt>
      <trkpt lat="43.57102" lon="2.01345">
        <ele>343.8</ele>
        <time>2022-03-08T12:50:35Z</time>
      </trkpt>
      <trkpt lat="43.57102" lon="2.01345">
        <ele>343.8</ele>
        <time>2022-03-08T12:50:36Z</time>
      </trkpt>
      <trkpt lat="43.57101" lon="2.01346">
        <ele>343.8</ele>
        <time>2022-03-08T12:50:37Z</time>
      </trkpt>
      <trkpt lat="43.57101" lon="2.01346">
        <ele>343.8</ele>
        <time>2022-03-08T12:50:38Z</time>
      </trkpt>
      <trkpt lat="43.57101" lon="2.01345">
        <ele>343.8</ele>
        <time>2022-03-08T12:50:39Z</time>
      </trkpt>
      <trkpt lat="43.57101" lon="2.01345">
        <ele>343.8</ele>
        <time>2022-03-08T12:50:40Z</time>
      </trkpt>
      <trkpt lat="43.57101" lon="2.01345">
        <ele>343.8</ele>
        <time>2022-03-08T12:50:41Z</time>
      </trkpt>
      <trkpt lat="43.571" lon="2.01345">
        <ele>343.8</ele>
        <time>2022-03-08T12:50:42Z</time>
      </trkpt>
      <trkpt lat="43.571" lon="2.01345">
        <ele>343.8</ele>
        <time>2022-03-08T12:50:43Z</time>
      </trkpt>
      <trkpt lat="43.571" lon="2.01345">
        <ele>343.4</ele>
        <time>2022-03-08T12:50:44Z</time>
      </trkpt>
      <trkpt lat="43.571" lon="2.01345">
        <ele>343.4</ele>
        <time>2022-03-08T12:50:45Z</time>
      </trkpt>
      <trkpt lat="43.571" lon="2.01345">
        <ele>343.4</ele>
        <time>2022-03-08T12:50:46Z</time>
      </trkpt>
      <trkpt lat="43.571" lon="2.01345">
        <ele>343.4</ele>
        <time>2022-03-08T12:50:47Z</time>
      </trkpt>
      <trkpt lat="43.57099" lon="2.01344">
        <ele>343.4</ele>
        <time>2022-03-08T12:50:48Z</time>
      </trkpt>
      <trkpt lat="43.57099" lon="2.01344">
        <ele>343.4</ele>
        <time>2022-03-08T12:50:49Z</time>
      </trkpt>
      <trkpt lat="43.57099" lon="2.01344">
        <ele>343.4</ele>
        <time>2022-03-08T12:50:50Z</time>
      </trkpt>
      <trkpt lat="43.57099" lon="2.01344">
        <ele>343.4</ele>
        <time>2022-03-08T12:50:51Z</time>
      </trkpt>
      <trkpt lat="43.57099" lon="2.01344">
        <ele>343.4</ele>
        <time>2022-03-08T12:50:52Z</time>
      </trkpt>
      <trkpt lat="43.57099" lon="2.01344">
        <ele>343.4</ele>
        <time>2022-03-08T12:50:53Z</time>
      </trkpt>
      <trkpt lat="43.57099" lon="2.01344">
        <ele>343.4</ele>
        <time>2022-03-08T12:50:54Z</time>
      </trkpt>
      <trkpt lat="43.57098" lon="2.01344">
        <ele>343.4</ele>
        <time>2022-03-08T12:50:55Z</time>
      </trkpt>
      <trkpt lat="43.57098" lon="2.01344">
        <ele>343.4</ele>
        <time>2022-03-08T12:50:56Z</time>
      </trkpt>
      <trkpt lat="43.57098" lon="2.01344">
        <ele>343.4</ele>
        <time>2022-03-08T12:50:57Z</time>
      </trkpt>
      <trkpt lat="43.57098" lon="2.01343">
        <ele>343.4</ele>
        <time>2022-03-08T12:50:58Z</time>
      </trkpt>
      <trkpt lat="43.57097" lon="2.01343">
        <ele>343</ele>
        <time>2022-03-08T12:50:59Z</time>
      </trkpt>
      <trkpt lat="43.57095" lon="2.01344">
        <ele>343</ele>
        <time>2022-03-08T12:51:00Z</time>
      </trkpt>
      <trkpt lat="43.57093" lon="2.01344">
        <ele>342.6</ele>
        <time>2022-03-08T12:51:01Z</time>
      </trkpt>
      <trkpt lat="43.57092" lon="2.01345">
        <ele>342.6</ele>
        <time>2022-03-08T12:51:02Z</time>
      </trkpt>
      <trkpt lat="43.57092" lon="2.01345">
        <ele>342.6</ele>
        <time>2022-03-08T12:51:03Z</time>
      </trkpt>
      <trkpt lat="43.57091" lon="2.01346">
        <ele>342.6</ele>
        <time>2022-03-08T12:51:04Z</time>
      </trkpt>
      <trkpt lat="43.57089" lon="2.01348">
        <ele>342.4</ele>
        <time>2022-03-08T12:51:06Z</time>
      </trkpt>
      <trkpt lat="43.57088" lon="2.0135">
        <ele>342.7</ele>
        <time>2022-03-08T12:51:07Z</time>
      </trkpt>
      <trkpt lat="43.57087" lon="2.01352">
        <ele>342.2</ele>
        <time>2022-03-08T12:51:08Z</time>
      </trkpt>
      <trkpt lat="43.57086" lon="2.01354">
        <ele>342.2</ele>
        <time>2022-03-08T12:51:09Z</time>
      </trkpt>
      <trkpt lat="43.57085" lon="2.01355">
        <ele>342.5</ele>
        <time>2022-03-08T12:51:10Z</time>
      </trkpt>
      <trkpt lat="43.57084" lon="2.01356">
        <ele>342</ele>
        <time>2022-03-08T12:51:12Z</time>
      </trkpt>
      <trkpt lat="43.57083" lon="2.01358">
        <ele>342</ele>
        <time>2022-03-08T12:51:13Z</time>
      </trkpt>
      <trkpt lat="43.57083" lon="2.01358">
        <ele>342</ele>
        <time>2022-03-08T12:51:14Z</time>
      </trkpt>
      <trkpt lat="43.57082" lon="2.01359">
        <ele>342</ele>
        <time>2022-03-08T12:51:15Z</time>
      </trkpt>
      <trkpt lat="43.57082" lon="2.01359">
        <ele>342.2</ele>
        <time>2022-03-08T12:51:16Z</time>
      </trkpt>
      <trkpt lat="43.57081" lon="2.01359">
        <ele>341.7</ele>
        <time>2022-03-08T12:51:17Z</time>
      </trkpt>
      <trkpt lat="43.57081" lon="2.01359">
        <ele>341.7</ele>
        <time>2022-03-08T12:51:18Z</time>
      </trkpt>
      <trkpt lat="43.57081" lon="2.01358">
        <ele>341.4</ele>
        <time>2022-03-08T12:51:19Z</time>
      </trkpt>
      <trkpt lat="43.5708" lon="2.01358">
        <ele>341.4</ele>
        <time>2022-03-08T12:51:21Z</time>
      </trkpt>
      <trkpt lat="43.5708" lon="2.01358">
        <ele>341.4</ele>
        <time>2022-03-08T12:51:22Z</time>
      </trkpt>
      <trkpt lat="43.5708" lon="2.01358">
        <ele>341.4</ele>
        <time>2022-03-08T12:51:23Z</time>
      </trkpt>
      <trkpt lat="43.57079" lon="2.01358">
        <ele>341.4</ele>
        <time>2022-03-08T12:51:24Z</time>
      </trkpt>
      <trkpt lat="43.57079" lon="2.01358">
        <ele>341.4</ele>
        <time>2022-03-08T12:51:26Z</time>
      </trkpt>
      <trkpt lat="43.57079" lon="2.01358">
        <ele>341.4</ele>
        <time>2022-03-08T12:51:27Z</time>
      </trkpt>
      <trkpt lat="43.57079" lon="2.01358">
        <ele>341.4</ele>
        <time>2022-03-08T12:51:28Z</time>
      </trkpt>
      <trkpt lat="43.57079" lon="2.01358">
        <ele>341.4</ele>
        <time>2022-03-08T12:51:29Z</time>
      </trkpt>
      <trkpt lat="43.57079" lon="2.01358">
        <ele>341.4</ele>
        <time>2022-03-08T12:51:30Z</time>
      </trkpt>
      <trkpt lat="43.57079" lon="2.01358">
        <ele>341.4</ele>
        <time>2022-03-08T12:51:32Z</time>
      </trkpt>
      <trkpt lat="43.57079" lon="2.01358">
        <ele>341.4</ele>
        <time>2022-03-08T12:51:33Z</time>
      </trkpt>
      <trkpt lat="43.57078" lon="2.01358">
        <ele>341.4</ele>
        <time>2022-03-08T12:51:34Z</time>
      </trkpt>
      <trkpt lat="43.57079" lon="2.01358">
        <ele>341.4</ele>
        <time>2022-03-08T12:51:35Z</time>
      </trkpt>
      <trkpt lat="43.57079" lon="2.01357">
        <ele>341.4</ele>
        <time>2022-03-08T12:51:36Z</time>
      </trkpt>
      <trkpt lat="43.57079" lon="2.01357">
        <ele>341.4</ele>
        <time>2022-03-08T12:51:38Z</time>
      </trkpt>
      <trkpt lat="43.57079" lon="2.01357">
        <ele>341.4</ele>
        <time>2022-03-08T12:51:39Z</time>
      </trkpt>
      <trkpt lat="43.57078" lon="2.01357">
        <ele>341.4</ele>
        <time>2022-03-08T12:51:40Z</time>
      </trkpt>
      <trkpt lat="43.57079" lon="2.01357">
        <ele>341.4</ele>
        <time>2022-03-08T12:51:41Z</time>
      </trkpt>
      <trkpt lat="43.57079" lon="2.01357">
        <ele>341.4</ele>
        <time>2022-03-08T12:51:42Z</time>
      </trkpt>
      <trkpt lat="43.57078" lon="2.01357">
        <ele>341.4</ele>
        <time>2022-03-08T12:51:43Z</time>
      </trkpt>
      <trkpt lat="43.57078" lon="2.01357">
        <ele>341.4</ele>
        <time>2022-03-08T12:51:44Z</time>
      </trkpt>
      <trkpt lat="43.57078" lon="2.01357">
        <ele>341.4</ele>
        <time>2022-03-08T12:51:45Z</time>
      </trkpt>
      <trkpt lat="43.57078" lon="2.01357">
        <ele>341.4</ele>
        <time>2022-03-08T12:51:46Z</time>
      </trkpt>
      <trkpt lat="43.57078" lon="2.01357">
        <ele>340.9</ele>
        <time>2022-03-08T12:51:47Z</time>
      </trkpt>
      <trkpt lat="43.57078" lon="2.01357">
        <ele>340.9</ele>
        <time>2022-03-08T12:51:48Z</time>
      </trkpt>
      <trkpt lat="43.57078" lon="2.01357">
        <ele>340.9</ele>
        <time>2022-03-08T12:51:49Z</time>
      </trkpt>
      <trkpt lat="43.57078" lon="2.01357">
        <ele>340.9</ele>
        <time>2022-03-08T12:51:50Z</time>
      </trkpt>
      <trkpt lat="43.57078" lon="2.01357">
        <ele>340.9</ele>
        <time>2022-03-08T12:51:51Z</time>
      </trkpt>
      <trkpt lat="43.57078" lon="2.01357">
        <ele>340.9</ele>
        <time>2022-03-08T12:51:52Z</time>
      </trkpt>
      <trkpt lat="43.57077" lon="2.01358">
        <ele>340.9</ele>
        <time>2022-03-08T12:51:53Z</time>
      </trkpt>
      <trkpt lat="43.57076" lon="2.01359">
        <ele>341.2</ele>
        <time>2022-03-08T12:51:54Z</time>
      </trkpt>
      <trkpt lat="43.57076" lon="2.01359">
        <ele>340.9</ele>
        <time>2022-03-08T12:51:55Z</time>
      </trkpt>
      <trkpt lat="43.57076" lon="2.01358">
        <ele>340.9</ele>
        <time>2022-03-08T12:51:56Z</time>
      </trkpt>
      <trkpt lat="43.57075" lon="2.01358">
        <ele>340.9</ele>
        <time>2022-03-08T12:51:57Z</time>
      </trkpt>
      <trkpt lat="43.57075" lon="2.01358">
        <ele>340.5</ele>
        <time>2022-03-08T12:51:58Z</time>
      </trkpt>
      <trkpt lat="43.57075" lon="2.01357">
        <ele>340.5</ele>
        <time>2022-03-08T12:51:59Z</time>
      </trkpt>
      <trkpt lat="43.57074" lon="2.01357">
        <ele>340.5</ele>
        <time>2022-03-08T12:52:00Z</time>
      </trkpt>
      <trkpt lat="43.57074" lon="2.01357">
        <ele>340.5</ele>
        <time>2022-03-08T12:52:01Z</time>
      </trkpt>
      <trkpt lat="43.57074" lon="2.01356">
        <ele>340.5</ele>
        <time>2022-03-08T12:52:02Z</time>
      </trkpt>
      <trkpt lat="43.57074" lon="2.01356">
        <ele>340.5</ele>
        <time>2022-03-08T12:52:03Z</time>
      </trkpt>
      <trkpt lat="43.57073" lon="2.01356">
        <ele>340.5</ele>
        <time>2022-03-08T12:52:05Z</time>
      </trkpt>
      <trkpt lat="43.57073" lon="2.01355">
        <ele>340.5</ele>
        <time>2022-03-08T12:52:06Z</time>
      </trkpt>
      <trkpt lat="43.57071" lon="2.01354">
        <ele>339.8</ele>
        <time>2022-03-08T12:52:07Z</time>
      </trkpt>
      <trkpt lat="43.5707" lon="2.01352">
        <ele>339.8</ele>
        <time>2022-03-08T12:52:08Z</time>
      </trkpt>
      <trkpt lat="43.57073" lon="2.01351">
        <ele>340.2</ele>
        <time>2022-03-08T12:52:09Z</time>
      </trkpt>
      <trkpt lat="43.57077" lon="2.01348">
        <ele>340.4</ele>
        <time>2022-03-08T12:52:10Z</time>
      </trkpt>
      <trkpt lat="43.57079" lon="2.01347">
        <ele>340.9</ele>
        <time>2022-03-08T12:52:11Z</time>
      </trkpt>
      <trkpt lat="43.57083" lon="2.01344">
        <ele>341.1</ele>
        <time>2022-03-08T12:52:13Z</time>
      </trkpt>
      <trkpt lat="43.57085" lon="2.01341">
        <ele>341.4</ele>
        <time>2022-03-08T12:52:14Z</time>
      </trkpt>
      <trkpt lat="43.57086" lon="2.01339">
        <ele>341.4</ele>
        <time>2022-03-08T12:52:15Z</time>
      </trkpt>
      <trkpt lat="43.57087" lon="2.01335">
        <ele>341.1</ele>
        <time>2022-03-08T12:52:16Z</time>
      </trkpt>
      <trkpt lat="43.57087" lon="2.01334">
        <ele>341.1</ele>
        <time>2022-03-08T12:52:17Z</time>
      </trkpt>
      <trkpt lat="43.57088" lon="2.01333">
        <ele>341.2</ele>
        <time>2022-03-08T12:52:18Z</time>
      </trkpt>
      <trkpt lat="43.57089" lon="2.01331">
        <ele>341.2</ele>
        <time>2022-03-08T12:52:19Z</time>
      </trkpt>
      <trkpt lat="43.5709" lon="2.01329">
        <ele>340.9</ele>
        <time>2022-03-08T12:52:20Z</time>
      </trkpt>
      <trkpt lat="43.57091" lon="2.01328">
        <ele>341.4</ele>
        <time>2022-03-08T12:52:21Z</time>
      </trkpt>
      <trkpt lat="43.57092" lon="2.01327">
        <ele>341.4</ele>
        <time>2022-03-08T12:52:22Z</time>
      </trkpt>
      <trkpt lat="43.57093" lon="2.01326">
        <ele>341.4</ele>
        <time>2022-03-08T12:52:23Z</time>
      </trkpt>
      <trkpt lat="43.57093" lon="2.01325">
        <ele>341.4</ele>
        <time>2022-03-08T12:52:25Z</time>
      </trkpt>
      <trkpt lat="43.57094" lon="2.01325">
        <ele>341.8</ele>
        <time>2022-03-08T12:52:26Z</time>
      </trkpt>
      <trkpt lat="43.57094" lon="2.01325">
        <ele>341.8</ele>
        <time>2022-03-08T12:52:27Z</time>
      </trkpt>
      <trkpt lat="43.57095" lon="2.01325">
        <ele>341.8</ele>
        <time>2022-03-08T12:52:28Z</time>
      </trkpt>
      <trkpt lat="43.57095" lon="2.01324">
        <ele>341.5</ele>
        <time>2022-03-08T12:52:29Z</time>
      </trkpt>
      <trkpt lat="43.57096" lon="2.01324">
        <ele>341.5</ele>
        <time>2022-03-08T12:52:30Z</time>
      </trkpt>
      <trkpt lat="43.57096" lon="2.01324">
        <ele>341.5</ele>
        <time>2022-03-08T12:52:31Z</time>
      </trkpt>
      <trkpt lat="43.57097" lon="2.01323">
        <ele>341.5</ele>
        <time>2022-03-08T12:52:32Z</time>
      </trkpt>
      <trkpt lat="43.57098" lon="2.01322">
        <ele>341.8</ele>
        <time>2022-03-08T12:52:33Z</time>
      </trkpt>
      <trkpt lat="43.57099" lon="2.01321">
        <ele>341.8</ele>
        <time>2022-03-08T12:52:35Z</time>
      </trkpt>
      <trkpt lat="43.571" lon="2.0132">
        <ele>341.5</ele>
        <time>2022-03-08T12:52:36Z</time>
      </trkpt>
      <trkpt lat="43.57101" lon="2.01319">
        <ele>341.9</ele>
        <time>2022-03-08T12:52:37Z</time>
      </trkpt>
      <trkpt lat="43.57101" lon="2.01319">
        <ele>341.9</ele>
        <time>2022-03-08T12:52:38Z</time>
      </trkpt>
      <trkpt lat="43.57102" lon="2.01319">
        <ele>341.9</ele>
        <time>2022-03-08T12:52:39Z</time>
      </trkpt>
      <trkpt lat="43.57103" lon="2.01318">
        <ele>341.9</ele>
        <time>2022-03-08T12:52:40Z</time>
      </trkpt>
      <trkpt lat="43.57105" lon="2.01317">
        <ele>342.3</ele>
        <time>2022-03-08T12:52:41Z</time>
      </trkpt>
      <trkpt lat="43.57106" lon="2.01317">
        <ele>342.3</ele>
        <time>2022-03-08T12:52:42Z</time>
      </trkpt>
      <trkpt lat="43.57107" lon="2.01317">
        <ele>342.7</ele>
        <time>2022-03-08T12:52:43Z</time>
      </trkpt>
      <trkpt lat="43.57108" lon="2.01317">
        <ele>342.7</ele>
        <time>2022-03-08T12:52:44Z</time>
      </trkpt>
      <trkpt lat="43.57109" lon="2.01316">
        <ele>342.7</ele>
        <time>2022-03-08T12:52:46Z</time>
      </trkpt>
      <trkpt lat="43.57111" lon="2.01316">
        <ele>343.1</ele>
        <time>2022-03-08T12:52:47Z</time>
      </trkpt>
      <trkpt lat="43.57112" lon="2.01316">
        <ele>342.7</ele>
        <time>2022-03-08T12:52:48Z</time>
      </trkpt>
      <trkpt lat="43.57112" lon="2.01315">
        <ele>342.7</ele>
        <time>2022-03-08T12:52:49Z</time>
      </trkpt>
      <trkpt lat="43.57112" lon="2.01314">
        <ele>342.7</ele>
        <time>2022-03-08T12:52:50Z</time>
      </trkpt>
      <trkpt lat="43.57113" lon="2.01313">
        <ele>343.1</ele>
        <time>2022-03-08T12:52:51Z</time>
      </trkpt>
      <trkpt lat="43.57115" lon="2.01313">
        <ele>343.1</ele>
        <time>2022-03-08T12:52:52Z</time>
      </trkpt>
      <trkpt lat="43.57116" lon="2.01313">
        <ele>343.4</ele>
        <time>2022-03-08T12:52:53Z</time>
      </trkpt>
      <trkpt lat="43.57116" lon="2.01312">
        <ele>343.4</ele>
        <time>2022-03-08T12:52:54Z</time>
      </trkpt>
      <trkpt lat="43.57116" lon="2.01311">
        <ele>343</ele>
        <time>2022-03-08T12:52:56Z</time>
      </trkpt>
      <trkpt lat="43.57116" lon="2.01311">
        <ele>343</ele>
        <time>2022-03-08T12:52:57Z</time>
      </trkpt>
      <trkpt lat="43.57115" lon="2.01309">
        <ele>342.7</ele>
        <time>2022-03-08T12:52:58Z</time>
      </trkpt>
      <trkpt lat="43.57115" lon="2.01308">
        <ele>342.7</ele>
        <time>2022-03-08T12:53:00Z</time>
      </trkpt>
      <trkpt lat="43.57115" lon="2.01308">
        <ele>342.7</ele>
        <time>2022-03-08T12:53:01Z</time>
      </trkpt>
      <trkpt lat="43.57115" lon="2.01309">
        <ele>342.7</ele>
        <time>2022-03-08T12:53:02Z</time>
      </trkpt>
      <trkpt lat="43.57116" lon="2.0131">
        <ele>343</ele>
        <time>2022-03-08T12:53:03Z</time>
      </trkpt>
      <trkpt lat="43.57116" lon="2.01311">
        <ele>343</ele>
        <time>2022-03-08T12:53:04Z</time>
      </trkpt>
      <trkpt lat="43.57117" lon="2.01311">
        <ele>343</ele>
        <time>2022-03-08T12:53:05Z</time>
      </trkpt>
      <trkpt lat="43.57117" lon="2.01311">
        <ele>343</ele>
        <time>2022-03-08T12:53:06Z</time>
      </trkpt>
      <trkpt lat="43.57117" lon="2.01311">
        <ele>343</ele>
        <time>2022-03-08T12:53:07Z</time>
      </trkpt>
      <trkpt lat="43.57118" lon="2.01311">
        <ele>343</ele>
        <time>2022-03-08T12:53:08Z</time>
      </trkpt>
      <trkpt lat="43.57118" lon="2.01311">
        <ele>343</ele>
        <time>2022-03-08T12:53:09Z</time>
      </trkpt>
      <trkpt lat="43.57118" lon="2.01311">
        <ele>343</ele>
        <time>2022-03-08T12:53:10Z</time>
      </trkpt>
      <trkpt lat="43.57118" lon="2.01311">
        <ele>343</ele>
        <time>2022-03-08T12:53:11Z</time>
      </trkpt>
      <trkpt lat="43.57118" lon="2.0131">
        <ele>343</ele>
        <time>2022-03-08T12:53:13Z</time>
      </trkpt>
      <trkpt lat="43.57118" lon="2.0131">
        <ele>343</ele>
        <time>2022-03-08T12:53:14Z</time>
      </trkpt>
      <trkpt lat="43.57118" lon="2.0131">
        <ele>343</ele>
        <time>2022-03-08T12:53:15Z</time>
      </trkpt>
      <trkpt lat="43.57118" lon="2.0131">
        <ele>343</ele>
        <time>2022-03-08T12:53:16Z</time>
      </trkpt>
      <trkpt lat="43.57118" lon="2.0131">
        <ele>343</ele>
        <time>2022-03-08T12:53:17Z</time>
      </trkpt>
      <trkpt lat="43.57118" lon="2.0131">
        <ele>343</ele>
        <time>2022-03-08T12:53:18Z</time>
      </trkpt>
      <trkpt lat="43.57118" lon="2.01309">
        <ele>343</ele>
        <time>2022-03-08T12:53:20Z</time>
      </trkpt>
      <trkpt lat="43.57118" lon="2.01309">
        <ele>343</ele>
        <time>2022-03-08T12:53:21Z</time>
      </trkpt>
      <trkpt lat="43.57118" lon="2.01309">
        <ele>343</ele>
        <time>2022-03-08T12:53:22Z</time>
      </trkpt>
      <trkpt lat="43.57116" lon="2.01305">
        <ele>342.6</ele>
        <time>2022-03-08T12:53:23Z</time>
      </trkpt>
      <trkpt lat="43.57115" lon="2.01303">
        <ele>342.3</ele>
        <time>2022-03-08T12:53:24Z</time>
      </trkpt>
      <trkpt lat="43.57113" lon="2.01299">
        <ele>341.8</ele>
        <time>2022-03-08T12:53:25Z</time>
      </trkpt>
      <trkpt lat="43.57111" lon="2.01296">
        <ele>341</ele>
        <time>2022-03-08T12:53:26Z</time>
      </trkpt>
      <trkpt lat="43.5711" lon="2.01294">
        <ele>340.6</ele>
        <time>2022-03-08T12:53:28Z</time>
      </trkpt>
      <trkpt lat="43.5711" lon="2.01291">
        <ele>340.6</ele>
        <time>2022-03-08T12:53:29Z</time>
      </trkpt>
      <trkpt lat="43.57111" lon="2.0129">
        <ele>340.2</ele>
        <time>2022-03-08T12:53:30Z</time>
      </trkpt>
      <trkpt lat="43.57112" lon="2.01288">
        <ele>340.2</ele>
        <time>2022-03-08T12:53:31Z</time>
      </trkpt>
      <trkpt lat="43.57109" lon="2.01289">
        <ele>339.8</ele>
        <time>2022-03-08T12:53:32Z</time>
      </trkpt>
      <trkpt lat="43.57108" lon="2.01289">
        <ele>339.8</ele>
        <time>2022-03-08T12:53:33Z</time>
      </trkpt>
      <trkpt lat="43.57107" lon="2.01289">
        <ele>339.8</ele>
        <time>2022-03-08T12:53:34Z</time>
      </trkpt>
      <trkpt lat="43.57107" lon="2.01291">
        <ele>340.2</ele>
        <time>2022-03-08T12:53:35Z</time>
      </trkpt>
      <trkpt lat="43.57107" lon="2.01292">
        <ele>340.2</ele>
        <time>2022-03-08T12:53:36Z</time>
      </trkpt>
      <trkpt lat="43.57106" lon="2.01292">
        <ele>339.9</ele>
        <time>2022-03-08T12:53:38Z</time>
      </trkpt>
      <trkpt lat="43.57105" lon="2.01292">
        <ele>339.9</ele>
        <time>2022-03-08T12:53:39Z</time>
      </trkpt>
      <trkpt lat="43.57105" lon="2.01291">
        <ele>339.9</ele>
        <time>2022-03-08T12:53:40Z</time>
      </trkpt>
      <trkpt lat="43.57105" lon="2.0129">
        <ele>339.4</ele>
        <time>2022-03-08T12:53:41Z</time>
      </trkpt>
      <trkpt lat="43.57105" lon="2.01289">
        <ele>339.4</ele>
        <time>2022-03-08T12:53:42Z</time>
      </trkpt>
      <trkpt lat="43.57104" lon="2.01288">
        <ele>339.4</ele>
        <time>2022-03-08T12:53:43Z</time>
      </trkpt>
      <trkpt lat="43.57103" lon="2.01288">
        <ele>339</ele>
        <time>2022-03-08T12:53:45Z</time>
      </trkpt>
      <trkpt lat="43.57102" lon="2.01287">
        <ele>339</ele>
        <time>2022-03-08T12:53:46Z</time>
      </trkpt>
      <trkpt lat="43.57102" lon="2.01286">
        <ele>338.6</ele>
        <time>2022-03-08T12:53:47Z</time>
      </trkpt>
      <trkpt lat="43.57101" lon="2.01283">
        <ele>338.6</ele>
        <time>2022-03-08T12:53:48Z</time>
      </trkpt>
      <trkpt lat="43.571" lon="2.01282">
        <ele>338.3</ele>
        <time>2022-03-08T12:53:49Z</time>
      </trkpt>
      <trkpt lat="43.57098" lon="2.0128">
        <ele>337.8</ele>
        <time>2022-03-08T12:53:50Z</time>
      </trkpt>
      <trkpt lat="43.57096" lon="2.01277">
        <ele>337</ele>
        <time>2022-03-08T12:53:52Z</time>
      </trkpt>
      <trkpt lat="43.57096" lon="2.01276">
        <ele>337</ele>
        <time>2022-03-08T12:53:53Z</time>
      </trkpt>
      <trkpt lat="43.57096" lon="2.01274">
        <ele>337</ele>
        <time>2022-03-08T12:53:54Z</time>
      </trkpt>
      <trkpt lat="43.57097" lon="2.01272">
        <ele>336.5</ele>
        <time>2022-03-08T12:53:55Z</time>
      </trkpt>
      <trkpt lat="43.57096" lon="2.01271">
        <ele>336.5</ele>
        <time>2022-03-08T12:53:57Z</time>
      </trkpt>
      <trkpt lat="43.57097" lon="2.0127">
        <ele>336.5</ele>
        <time>2022-03-08T12:53:58Z</time>
      </trkpt>
      <trkpt lat="43.57097" lon="2.01269">
        <ele>336.8</ele>
        <time>2022-03-08T12:53:59Z</time>
      </trkpt>
      <trkpt lat="43.57097" lon="2.01268">
        <ele>336.3</ele>
        <time>2022-03-08T12:54:00Z</time>
      </trkpt>
      <trkpt lat="43.57097" lon="2.01268">
        <ele>336</ele>
        <time>2022-03-08T12:54:01Z</time>
      </trkpt>
      <trkpt lat="43.57096" lon="2.01268">
        <ele>336</ele>
        <time>2022-03-08T12:54:02Z</time>
      </trkpt>
      <trkpt lat="43.57096" lon="2.01267">
        <ele>336</ele>
        <time>2022-03-08T12:54:03Z</time>
      </trkpt>
      <trkpt lat="43.57097" lon="2.01266">
        <ele>336</ele>
        <time>2022-03-08T12:54:04Z</time>
      </trkpt>
      <trkpt lat="43.57097" lon="2.01265">
        <ele>336</ele>
        <time>2022-03-08T12:54:05Z</time>
      </trkpt>
      <trkpt lat="43.57097" lon="2.01264">
        <ele>335.6</ele>
        <time>2022-03-08T12:54:07Z</time>
      </trkpt>
      <trkpt lat="43.57096" lon="2.01264">
        <ele>335.6</ele>
        <time>2022-03-08T12:54:08Z</time>
      </trkpt>
      <trkpt lat="43.57095" lon="2.01263">
        <ele>335.6</ele>
        <time>2022-03-08T12:54:09Z</time>
      </trkpt>
      <trkpt lat="43.57093" lon="2.01263">
        <ele>335.3</ele>
        <time>2022-03-08T12:54:10Z</time>
      </trkpt>
      <trkpt lat="43.57092" lon="2.01263">
        <ele>335.3</ele>
        <time>2022-03-08T12:54:11Z</time>
      </trkpt>
      <trkpt lat="43.5709" lon="2.01263">
        <ele>335</ele>
        <time>2022-03-08T12:54:12Z</time>
      </trkpt>
      <trkpt lat="43.57088" lon="2.01263">
        <ele>335</ele>
        <time>2022-03-08T12:54:13Z</time>
      </trkpt>
      <trkpt lat="43.57086" lon="2.01263">
        <ele>334.6</ele>
        <time>2022-03-08T12:54:15Z</time>
      </trkpt>
      <trkpt lat="43.57085" lon="2.01263">
        <ele>334.6</ele>
        <time>2022-03-08T12:54:16Z</time>
      </trkpt>
      <trkpt lat="43.57082" lon="2.01263">
        <ele>334.2</ele>
        <time>2022-03-08T12:54:17Z</time>
      </trkpt>
      <trkpt lat="43.5708" lon="2.01262">
        <ele>333.9</ele>
        <time>2022-03-08T12:54:18Z</time>
      </trkpt>
      <trkpt lat="43.57076" lon="2.01261">
        <ele>333.5</ele>
        <time>2022-03-08T12:54:19Z</time>
      </trkpt>
      <trkpt lat="43.57072" lon="2.01262">
        <ele>332.8</ele>
        <time>2022-03-08T12:54:20Z</time>
      </trkpt>
      <trkpt lat="43.57071" lon="2.01262">
        <ele>332.7</ele>
        <time>2022-03-08T12:54:21Z</time>
      </trkpt>
      <trkpt lat="43.57068" lon="2.01263">
        <ele>332.4</ele>
        <time>2022-03-08T12:54:22Z</time>
      </trkpt>
      <trkpt lat="43.57067" lon="2.01263">
        <ele>332.4</ele>
        <time>2022-03-08T12:54:23Z</time>
      </trkpt>
      <trkpt lat="43.57066" lon="2.01264">
        <ele>332.2</ele>
        <time>2022-03-08T12:54:24Z</time>
      </trkpt>
      <trkpt lat="43.57064" lon="2.01264">
        <ele>332.1</ele>
        <time>2022-03-08T12:54:25Z</time>
      </trkpt>
      <trkpt lat="43.57062" lon="2.01262">
        <ele>331.9</ele>
        <time>2022-03-08T12:54:26Z</time>
      </trkpt>
      <trkpt lat="43.57059" lon="2.01262">
        <ele>331.7</ele>
        <time>2022-03-08T12:54:28Z</time>
      </trkpt>
      <trkpt lat="43.57057" lon="2.01262">
        <ele>331.5</ele>
        <time>2022-03-08T12:54:29Z</time>
      </trkpt>
      <trkpt lat="43.57056" lon="2.01262">
        <ele>331.5</ele>
        <time>2022-03-08T12:54:30Z</time>
      </trkpt>
      <trkpt lat="43.57055" lon="2.01261">
        <ele>331.4</ele>
        <time>2022-03-08T12:54:31Z</time>
      </trkpt>
      <trkpt lat="43.57054" lon="2.01259">
        <ele>331.2</ele>
        <time>2022-03-08T12:54:32Z</time>
      </trkpt>
      <trkpt lat="43.57053" lon="2.01258">
        <ele>331.1</ele>
        <time>2022-03-08T12:54:33Z</time>
      </trkpt>
      <trkpt lat="43.5705" lon="2.01256">
        <ele>330.9</ele>
        <time>2022-03-08T12:54:34Z</time>
      </trkpt>
      <trkpt lat="43.57049" lon="2.01255">
        <ele>330.8</ele>
        <time>2022-03-08T12:54:36Z</time>
      </trkpt>
      <trkpt lat="43.57049" lon="2.01253">
        <ele>330.7</ele>
        <time>2022-03-08T12:54:37Z</time>
      </trkpt>
      <trkpt lat="43.57048" lon="2.01251">
        <ele>330.5</ele>
        <time>2022-03-08T12:54:38Z</time>
      </trkpt>
      <trkpt lat="43.57046" lon="2.01248">
        <ele>330.2</ele>
        <time>2022-03-08T12:54:39Z</time>
      </trkpt>
      <trkpt lat="43.57045" lon="2.01247">
        <ele>330.1</ele>
        <time>2022-03-08T12:54:40Z</time>
      </trkpt>
      <trkpt lat="43.57044" lon="2.01245">
        <ele>330</ele>
        <time>2022-03-08T12:54:41Z</time>
      </trkpt>
      <trkpt lat="43.57043" lon="2.01245">
        <ele>329.9</ele>
        <time>2022-03-08T12:54:42Z</time>
      </trkpt>
      <trkpt lat="43.5704" lon="2.01243">
        <ele>329.7</ele>
        <time>2022-03-08T12:54:43Z</time>
      </trkpt>
      <trkpt lat="43.5704" lon="2.01242">
        <ele>329.6</ele>
        <time>2022-03-08T12:54:44Z</time>
      </trkpt>
      <trkpt lat="43.57038" lon="2.01238">
        <ele>329.4</ele>
        <time>2022-03-08T12:54:46Z</time>
      </trkpt>
      <trkpt lat="43.57037" lon="2.01236">
        <ele>329.3</ele>
        <time>2022-03-08T12:54:47Z</time>
      </trkpt>
      <trkpt lat="43.57038" lon="2.01231">
        <ele>329</ele>
        <time>2022-03-08T12:54:48Z</time>
      </trkpt>
      <trkpt lat="43.57039" lon="2.01225">
        <ele>328.6</ele>
        <time>2022-03-08T12:54:49Z</time>
      </trkpt>
      <trkpt lat="43.57039" lon="2.01221">
        <ele>328.4</ele>
        <time>2022-03-08T12:54:50Z</time>
      </trkpt>
      <trkpt lat="43.57042" lon="2.01216">
        <ele>328.1</ele>
        <time>2022-03-08T12:54:52Z</time>
      </trkpt>
      <trkpt lat="43.57042" lon="2.01211">
        <ele>327.9</ele>
        <time>2022-03-08T12:54:53Z</time>
      </trkpt>
      <trkpt lat="43.57043" lon="2.0121">
        <ele>327.8</ele>
        <time>2022-03-08T12:54:54Z</time>
      </trkpt>
      <trkpt lat="43.57043" lon="2.01208">
        <ele>327.7</ele>
        <time>2022-03-08T12:54:55Z</time>
      </trkpt>
      <trkpt lat="43.57043" lon="2.01204">
        <ele>327.5</ele>
        <time>2022-03-08T12:54:57Z</time>
      </trkpt>
      <trkpt lat="43.57043" lon="2.01201">
        <ele>327.3</ele>
        <time>2022-03-08T12:54:58Z</time>
      </trkpt>
      <trkpt lat="43.57043" lon="2.012">
        <ele>327.3</ele>
        <time>2022-03-08T12:54:59Z</time>
      </trkpt>
      <trkpt lat="43.57042" lon="2.01199">
        <ele>327.2</ele>
        <time>2022-03-08T12:55:00Z</time>
      </trkpt>
      <trkpt lat="43.57042" lon="2.01196">
        <ele>327.1</ele>
        <time>2022-03-08T12:55:01Z</time>
      </trkpt>
      <trkpt lat="43.57041" lon="2.01195">
        <ele>327</ele>
        <time>2022-03-08T12:55:02Z</time>
      </trkpt>
      <trkpt lat="43.57041" lon="2.01194">
        <ele>327</ele>
        <time>2022-03-08T12:55:03Z</time>
      </trkpt>
      <trkpt lat="43.5704" lon="2.01193">
        <ele>326.9</ele>
        <time>2022-03-08T12:55:04Z</time>
      </trkpt>
      <trkpt lat="43.5704" lon="2.01192">
        <ele>326.8</ele>
        <time>2022-03-08T12:55:05Z</time>
      </trkpt>
      <trkpt lat="43.57039" lon="2.01191">
        <ele>326.7</ele>
        <time>2022-03-08T12:55:06Z</time>
      </trkpt>
      <trkpt lat="43.57038" lon="2.01189">
        <ele>326.6</ele>
        <time>2022-03-08T12:55:07Z</time>
      </trkpt>
      <trkpt lat="43.57037" lon="2.01188">
        <ele>326.6</ele>
        <time>2022-03-08T12:55:08Z</time>
      </trkpt>
      <trkpt lat="43.57037" lon="2.01188">
        <ele>326.5</ele>
        <time>2022-03-08T12:55:09Z</time>
      </trkpt>
      <trkpt lat="43.57035" lon="2.01186">
        <ele>326.4</ele>
        <time>2022-03-08T12:55:10Z</time>
      </trkpt>
      <trkpt lat="43.57034" lon="2.01185">
        <ele>326.3</ele>
        <time>2022-03-08T12:55:11Z</time>
      </trkpt>
      <trkpt lat="43.57034" lon="2.01184">
        <ele>326.3</ele>
        <time>2022-03-08T12:55:12Z</time>
      </trkpt>
      <trkpt lat="43.57033" lon="2.01182">
        <ele>326.1</ele>
        <time>2022-03-08T12:55:14Z</time>
      </trkpt>
      <trkpt lat="43.57033" lon="2.01181">
        <ele>326.1</ele>
        <time>2022-03-08T12:55:15Z</time>
      </trkpt>
      <trkpt lat="43.57032" lon="2.01178">
        <ele>325.9</ele>
        <time>2022-03-08T12:55:16Z</time>
      </trkpt>
      <trkpt lat="43.57031" lon="2.01177">
        <ele>325.9</ele>
        <time>2022-03-08T12:55:17Z</time>
      </trkpt>
      <trkpt lat="43.57031" lon="2.01176">
        <ele>325.8</ele>
        <time>2022-03-08T12:55:18Z</time>
      </trkpt>
      <trkpt lat="43.5703" lon="2.01173">
        <ele>325.7</ele>
        <time>2022-03-08T12:55:20Z</time>
      </trkpt>
      <trkpt lat="43.57029" lon="2.01172">
        <ele>325.6</ele>
        <time>2022-03-08T12:55:21Z</time>
      </trkpt>
      <trkpt lat="43.57029" lon="2.01169">
        <ele>325.4</ele>
        <time>2022-03-08T12:55:22Z</time>
      </trkpt>
      <trkpt lat="43.57028" lon="2.01168">
        <ele>325.4</ele>
        <time>2022-03-08T12:55:23Z</time>
      </trkpt>
      <trkpt lat="43.57028" lon="2.01167">
        <ele>325.3</ele>
        <time>2022-03-08T12:55:24Z</time>
      </trkpt>
      <trkpt lat="43.57027" lon="2.01164">
        <ele>325.2</ele>
        <time>2022-03-08T12:55:25Z</time>
      </trkpt>
      <trkpt lat="43.57027" lon="2.01163">
        <ele>325.1</ele>
        <time>2022-03-08T12:55:26Z</time>
      </trkpt>
      <trkpt lat="43.57027" lon="2.01162">
        <ele>325.1</ele>
        <time>2022-03-08T12:55:27Z</time>
      </trkpt>
      <trkpt lat="43.57026" lon="2.0116">
        <ele>324.9</ele>
        <time>2022-03-08T12:55:29Z</time>
      </trkpt>
      <trkpt lat="43.57026" lon="2.01158">
        <ele>324.9</ele>
        <time>2022-03-08T12:55:30Z</time>
      </trkpt>
      <trkpt lat="43.57025" lon="2.01157">
        <ele>324.8</ele>
        <time>2022-03-08T12:55:31Z</time>
      </trkpt>
      <trkpt lat="43.57025" lon="2.01156">
        <ele>324.7</ele>
        <time>2022-03-08T12:55:32Z</time>
      </trkpt>
      <trkpt lat="43.57024" lon="2.01155">
        <ele>324.7</ele>
        <time>2022-03-08T12:55:33Z</time>
      </trkpt>
      <trkpt lat="43.57024" lon="2.01154">
        <ele>324.6</ele>
        <time>2022-03-08T12:55:34Z</time>
      </trkpt>
      <trkpt lat="43.57023" lon="2.01153">
        <ele>324.5</ele>
        <time>2022-03-08T12:55:35Z</time>
      </trkpt>
      <trkpt lat="43.57022" lon="2.01152">
        <ele>324.4</ele>
        <time>2022-03-08T12:55:36Z</time>
      </trkpt>
      <trkpt lat="43.57021" lon="2.01151">
        <ele>324.3</ele>
        <time>2022-03-08T12:55:37Z</time>
      </trkpt>
      <trkpt lat="43.5702" lon="2.0115">
        <ele>324.3</ele>
        <time>2022-03-08T12:55:38Z</time>
      </trkpt>
      <trkpt lat="43.57019" lon="2.0115">
        <ele>324.2</ele>
        <time>2022-03-08T12:55:39Z</time>
      </trkpt>
      <trkpt lat="43.57018" lon="2.01149">
        <ele>324.1</ele>
        <time>2022-03-08T12:55:40Z</time>
      </trkpt>
      <trkpt lat="43.57017" lon="2.01148">
        <ele>324.1</ele>
        <time>2022-03-08T12:55:41Z</time>
      </trkpt>
      <trkpt lat="43.57017" lon="2.01147">
        <ele>324</ele>
        <time>2022-03-08T12:55:42Z</time>
      </trkpt>
      <trkpt lat="43.57016" lon="2.01146">
        <ele>323.9</ele>
        <time>2022-03-08T12:55:43Z</time>
      </trkpt>
      <trkpt lat="43.57014" lon="2.01145">
        <ele>323.8</ele>
        <time>2022-03-08T12:55:44Z</time>
      </trkpt>
      <trkpt lat="43.57014" lon="2.01145">
        <ele>323.7</ele>
        <time>2022-03-08T12:55:45Z</time>
      </trkpt>
      <trkpt lat="43.57013" lon="2.01145">
        <ele>323.7</ele>
        <time>2022-03-08T12:55:46Z</time>
      </trkpt>
      <trkpt lat="43.57012" lon="2.01144">
        <ele>323.6</ele>
        <time>2022-03-08T12:55:47Z</time>
      </trkpt>
      <trkpt lat="43.57011" lon="2.01143">
        <ele>323.5</ele>
        <time>2022-03-08T12:55:48Z</time>
      </trkpt>
      <trkpt lat="43.5701" lon="2.01143">
        <ele>323.4</ele>
        <time>2022-03-08T12:55:49Z</time>
      </trkpt>
      <trkpt lat="43.57008" lon="2.01142">
        <ele>323.3</ele>
        <time>2022-03-08T12:55:50Z</time>
      </trkpt>
      <trkpt lat="43.57008" lon="2.01141">
        <ele>323.3</ele>
        <time>2022-03-08T12:55:51Z</time>
      </trkpt>
      <trkpt lat="43.57007" lon="2.0114">
        <ele>323.2</ele>
        <time>2022-03-08T12:55:52Z</time>
      </trkpt>
      <trkpt lat="43.57005" lon="2.01139">
        <ele>323</ele>
        <time>2022-03-08T12:55:54Z</time>
      </trkpt>
      <trkpt lat="43.57004" lon="2.01138">
        <ele>323</ele>
        <time>2022-03-08T12:55:55Z</time>
      </trkpt>
      <trkpt lat="43.57004" lon="2.01138">
        <ele>322.9</ele>
        <time>2022-03-08T12:55:56Z</time>
      </trkpt>
      <trkpt lat="43.57003" lon="2.01137">
        <ele>322.9</ele>
        <time>2022-03-08T12:55:57Z</time>
      </trkpt>
      <trkpt lat="43.57002" lon="2.01137">
        <ele>322.8</ele>
        <time>2022-03-08T12:55:59Z</time>
      </trkpt>
      <trkpt lat="43.57001" lon="2.01137">
        <ele>322.7</ele>
        <time>2022-03-08T12:56:00Z</time>
      </trkpt>
      <trkpt lat="43.57" lon="2.01137">
        <ele>322.7</ele>
        <time>2022-03-08T12:56:01Z</time>
      </trkpt>
      <trkpt lat="43.57" lon="2.01137">
        <ele>322.6</ele>
        <time>2022-03-08T12:56:02Z</time>
      </trkpt>
      <trkpt lat="43.56999" lon="2.01136">
        <ele>322.6</ele>
        <time>2022-03-08T12:56:03Z</time>
      </trkpt>
      <trkpt lat="43.56998" lon="2.01136">
        <ele>322.5</ele>
        <time>2022-03-08T12:56:04Z</time>
      </trkpt>
      <trkpt lat="43.56998" lon="2.01135">
        <ele>322.5</ele>
        <time>2022-03-08T12:56:05Z</time>
      </trkpt>
      <trkpt lat="43.56999" lon="2.01129">
        <ele>322.1</ele>
        <time>2022-03-08T12:56:06Z</time>
      </trkpt>
      <trkpt lat="43.57" lon="2.01126">
        <ele>321.9</ele>
        <time>2022-03-08T12:56:07Z</time>
      </trkpt>
      <trkpt lat="43.57" lon="2.01121">
        <ele>321.7</ele>
        <time>2022-03-08T12:56:08Z</time>
      </trkpt>
      <trkpt lat="43.57" lon="2.01117">
        <ele>321.5</ele>
        <time>2022-03-08T12:56:10Z</time>
      </trkpt>
      <trkpt lat="43.57" lon="2.01115">
        <ele>321.3</ele>
        <time>2022-03-08T12:56:11Z</time>
      </trkpt>
      <trkpt lat="43.57" lon="2.01113">
        <ele>321.2</ele>
        <time>2022-03-08T12:56:12Z</time>
      </trkpt>
      <trkpt lat="43.57" lon="2.01109">
        <ele>321</ele>
        <time>2022-03-08T12:56:13Z</time>
      </trkpt>
      <trkpt lat="43.56999" lon="2.01108">
        <ele>320.9</ele>
        <time>2022-03-08T12:56:14Z</time>
      </trkpt>
      <trkpt lat="43.56999" lon="2.01105">
        <ele>320.8</ele>
        <time>2022-03-08T12:56:15Z</time>
      </trkpt>
      <trkpt lat="43.56999" lon="2.01104">
        <ele>320.7</ele>
        <time>2022-03-08T12:56:16Z</time>
      </trkpt>
      <trkpt lat="43.56999" lon="2.01103">
        <ele>320.6</ele>
        <time>2022-03-08T12:56:17Z</time>
      </trkpt>
      <trkpt lat="43.56999" lon="2.01101">
        <ele>320.5</ele>
        <time>2022-03-08T12:56:18Z</time>
      </trkpt>
      <trkpt lat="43.56998" lon="2.01099">
        <ele>320.4</ele>
        <time>2022-03-08T12:56:19Z</time>
      </trkpt>
      <trkpt lat="43.56998" lon="2.01098">
        <ele>320.4</ele>
        <time>2022-03-08T12:56:20Z</time>
      </trkpt>
      <trkpt lat="43.56998" lon="2.01098">
        <ele>320.3</ele>
        <time>2022-03-08T12:56:21Z</time>
      </trkpt>
      <trkpt lat="43.56998" lon="2.01096">
        <ele>320.3</ele>
        <time>2022-03-08T12:56:22Z</time>
      </trkpt>
      <trkpt lat="43.56998" lon="2.01095">
        <ele>320.2</ele>
        <time>2022-03-08T12:56:23Z</time>
      </trkpt>
      <trkpt lat="43.56998" lon="2.01094">
        <ele>320.1</ele>
        <time>2022-03-08T12:56:24Z</time>
      </trkpt>
      <trkpt lat="43.56998" lon="2.01092">
        <ele>320</ele>
        <time>2022-03-08T12:56:25Z</time>
      </trkpt>
      <trkpt lat="43.56997" lon="2.01091">
        <ele>320</ele>
        <time>2022-03-08T12:56:26Z</time>
      </trkpt>
      <trkpt lat="43.56996" lon="2.0109">
        <ele>319.9</ele>
        <time>2022-03-08T12:56:28Z</time>
      </trkpt>
      <trkpt lat="43.56996" lon="2.01089">
        <ele>319.8</ele>
        <time>2022-03-08T12:56:29Z</time>
      </trkpt>
      <trkpt lat="43.56994" lon="2.01087">
        <ele>319.6</ele>
        <time>2022-03-08T12:56:30Z</time>
      </trkpt>
      <trkpt lat="43.56993" lon="2.01086">
        <ele>319.5</ele>
        <time>2022-03-08T12:56:31Z</time>
      </trkpt>
      <trkpt lat="43.56992" lon="2.01084">
        <ele>319.4</ele>
        <time>2022-03-08T12:56:32Z</time>
      </trkpt>
      <trkpt lat="43.5699" lon="2.01083">
        <ele>319.3</ele>
        <time>2022-03-08T12:56:33Z</time>
      </trkpt>
      <trkpt lat="43.56989" lon="2.01082">
        <ele>319.2</ele>
        <time>2022-03-08T12:56:34Z</time>
      </trkpt>
      <trkpt lat="43.56988" lon="2.0108">
        <ele>319</ele>
        <time>2022-03-08T12:56:35Z</time>
      </trkpt>
      <trkpt lat="43.56987" lon="2.0108">
        <ele>319</ele>
        <time>2022-03-08T12:56:36Z</time>
      </trkpt>
      <trkpt lat="43.56987" lon="2.01079">
        <ele>318.9</ele>
        <time>2022-03-08T12:56:37Z</time>
      </trkpt>
      <trkpt lat="43.56986" lon="2.01077">
        <ele>318.8</ele>
        <time>2022-03-08T12:56:38Z</time>
      </trkpt>
      <trkpt lat="43.56985" lon="2.01076">
        <ele>318.7</ele>
        <time>2022-03-08T12:56:39Z</time>
      </trkpt>
      <trkpt lat="43.56985" lon="2.01075">
        <ele>318.6</ele>
        <time>2022-03-08T12:56:40Z</time>
      </trkpt>
      <trkpt lat="43.56984" lon="2.01072">
        <ele>318.5</ele>
        <time>2022-03-08T12:56:41Z</time>
      </trkpt>
      <trkpt lat="43.56983" lon="2.01071">
        <ele>318.4</ele>
        <time>2022-03-08T12:56:42Z</time>
      </trkpt>
      <trkpt lat="43.56983" lon="2.0107">
        <ele>318.4</ele>
        <time>2022-03-08T12:56:43Z</time>
      </trkpt>
      <trkpt lat="43.56982" lon="2.01068">
        <ele>318.2</ele>
        <time>2022-03-08T12:56:44Z</time>
      </trkpt>
      <trkpt lat="43.56982" lon="2.01067">
        <ele>318.2</ele>
        <time>2022-03-08T12:56:45Z</time>
      </trkpt>
      <trkpt lat="43.56981" lon="2.01066">
        <ele>318.1</ele>
        <time>2022-03-08T12:56:46Z</time>
      </trkpt>
      <trkpt lat="43.56981" lon="2.01064">
        <ele>318</ele>
        <time>2022-03-08T12:56:47Z</time>
      </trkpt>
      <trkpt lat="43.56981" lon="2.01063">
        <ele>317.9</ele>
        <time>2022-03-08T12:56:48Z</time>
      </trkpt>
      <trkpt lat="43.5698" lon="2.01061">
        <ele>317.8</ele>
        <time>2022-03-08T12:56:49Z</time>
      </trkpt>
      <trkpt lat="43.5698" lon="2.01058">
        <ele>317.7</ele>
        <time>2022-03-08T12:56:50Z</time>
      </trkpt>
      <trkpt lat="43.5698" lon="2.01057">
        <ele>317.6</ele>
        <time>2022-03-08T12:56:51Z</time>
      </trkpt>
      <trkpt lat="43.5698" lon="2.01056">
        <ele>317.6</ele>
        <time>2022-03-08T12:56:52Z</time>
      </trkpt>
      <trkpt lat="43.5698" lon="2.01054">
        <ele>317.5</ele>
        <time>2022-03-08T12:56:53Z</time>
      </trkpt>
      <trkpt lat="43.5698" lon="2.01053">
        <ele>317.4</ele>
        <time>2022-03-08T12:56:54Z</time>
      </trkpt>
      <trkpt lat="43.5698" lon="2.01052">
        <ele>317.4</ele>
        <time>2022-03-08T12:56:55Z</time>
      </trkpt>
      <trkpt lat="43.5698" lon="2.0105">
        <ele>317.3</ele>
        <time>2022-03-08T12:56:57Z</time>
      </trkpt>
      <trkpt lat="43.5698" lon="2.0105">
        <ele>317.2</ele>
        <time>2022-03-08T12:56:58Z</time>
      </trkpt>
      <trkpt lat="43.5698" lon="2.01049">
        <ele>317.2</ele>
        <time>2022-03-08T12:56:59Z</time>
      </trkpt>
      <trkpt lat="43.5698" lon="2.01048">
        <ele>317.2</ele>
        <time>2022-03-08T12:57:00Z</time>
      </trkpt>
      <trkpt lat="43.56981" lon="2.01047">
        <ele>317.1</ele>
        <time>2022-03-08T12:57:01Z</time>
      </trkpt>
      <trkpt lat="43.56981" lon="2.01046">
        <ele>317.1</ele>
        <time>2022-03-08T12:57:02Z</time>
      </trkpt>
      <trkpt lat="43.56981" lon="2.01046">
        <ele>317</ele>
        <time>2022-03-08T12:57:03Z</time>
      </trkpt>
      <trkpt lat="43.5698" lon="2.01045">
        <ele>317</ele>
        <time>2022-03-08T12:57:04Z</time>
      </trkpt>
      <trkpt lat="43.5698" lon="2.01044">
        <ele>316.9</ele>
        <time>2022-03-08T12:57:05Z</time>
      </trkpt>
      <trkpt lat="43.5698" lon="2.01042">
        <ele>316.8</ele>
        <time>2022-03-08T12:57:06Z</time>
      </trkpt>
      <trkpt lat="43.56979" lon="2.0104">
        <ele>316.7</ele>
        <time>2022-03-08T12:57:07Z</time>
      </trkpt>
      <trkpt lat="43.56979" lon="2.01039">
        <ele>316.6</ele>
        <time>2022-03-08T12:57:08Z</time>
      </trkpt>
      <trkpt lat="43.56979" lon="2.01035">
        <ele>316.4</ele>
        <time>2022-03-08T12:57:10Z</time>
      </trkpt>
      <trkpt lat="43.5698" lon="2.01034">
        <ele>316.3</ele>
        <time>2022-03-08T12:57:11Z</time>
      </trkpt>
      <trkpt lat="43.5698" lon="2.0103">
        <ele>316.1</ele>
        <time>2022-03-08T12:57:12Z</time>
      </trkpt>
      <trkpt lat="43.5698" lon="2.01029">
        <ele>316</ele>
        <time>2022-03-08T12:57:13Z</time>
      </trkpt>
      <trkpt lat="43.56979" lon="2.01026">
        <ele>315.9</ele>
        <time>2022-03-08T12:57:14Z</time>
      </trkpt>
      <trkpt lat="43.56979" lon="2.01025">
        <ele>315.8</ele>
        <time>2022-03-08T12:57:15Z</time>
      </trkpt>
      <trkpt lat="43.5698" lon="2.01023">
        <ele>315.7</ele>
        <time>2022-03-08T12:57:16Z</time>
      </trkpt>
      <trkpt lat="43.5698" lon="2.0102">
        <ele>315.5</ele>
        <time>2022-03-08T12:57:17Z</time>
      </trkpt>
      <trkpt lat="43.56982" lon="2.01017">
        <ele>315.3</ele>
        <time>2022-03-08T12:57:18Z</time>
      </trkpt>
      <trkpt lat="43.56982" lon="2.01016">
        <ele>315.3</ele>
        <time>2022-03-08T12:57:19Z</time>
      </trkpt>
      <trkpt lat="43.56983" lon="2.01012">
        <ele>315.1</ele>
        <time>2022-03-08T12:57:20Z</time>
      </trkpt>
      <trkpt lat="43.56983" lon="2.01011">
        <ele>315</ele>
        <time>2022-03-08T12:57:21Z</time>
      </trkpt>
      <trkpt lat="43.56983" lon="2.01009">
        <ele>315</ele>
        <time>2022-03-08T12:57:22Z</time>
      </trkpt>
      <trkpt lat="43.56983" lon="2.01008">
        <ele>314.9</ele>
        <time>2022-03-08T12:57:23Z</time>
      </trkpt>
      <trkpt lat="43.56983" lon="2.01007">
        <ele>314.8</ele>
        <time>2022-03-08T12:57:25Z</time>
      </trkpt>
      <trkpt lat="43.56981" lon="2.01005">
        <ele>314.7</ele>
        <time>2022-03-08T12:57:26Z</time>
      </trkpt>
      <trkpt lat="43.56981" lon="2.01004">
        <ele>314.7</ele>
        <time>2022-03-08T12:57:27Z</time>
      </trkpt>
      <trkpt lat="43.56981" lon="2.01001">
        <ele>314.5</ele>
        <time>2022-03-08T12:57:29Z</time>
      </trkpt>
      <trkpt lat="43.56981" lon="2.01">
        <ele>314.5</ele>
        <time>2022-03-08T12:57:30Z</time>
      </trkpt>
      <trkpt lat="43.56981" lon="2.00998">
        <ele>314.4</ele>
        <time>2022-03-08T12:57:31Z</time>
      </trkpt>
      <trkpt lat="43.56982" lon="2.00995">
        <ele>314.2</ele>
        <time>2022-03-08T12:57:32Z</time>
      </trkpt>
      <trkpt lat="43.56983" lon="2.00993">
        <ele>314.2</ele>
        <time>2022-03-08T12:57:33Z</time>
      </trkpt>
      <trkpt lat="43.56984" lon="2.0099">
        <ele>314</ele>
        <time>2022-03-08T12:57:34Z</time>
      </trkpt>
      <trkpt lat="43.56985" lon="2.00987">
        <ele>313.9</ele>
        <time>2022-03-08T12:57:36Z</time>
      </trkpt>
      <trkpt lat="43.56986" lon="2.00983">
        <ele>313.7</ele>
        <time>2022-03-08T12:57:37Z</time>
      </trkpt>
      <trkpt lat="43.56988" lon="2.0098">
        <ele>313.5</ele>
        <time>2022-03-08T12:57:38Z</time>
      </trkpt>
      <trkpt lat="43.56988" lon="2.00979">
        <ele>313.5</ele>
        <time>2022-03-08T12:57:39Z</time>
      </trkpt>
      <trkpt lat="43.5699" lon="2.00976">
        <ele>313.3</ele>
        <time>2022-03-08T12:57:40Z</time>
      </trkpt>
      <trkpt lat="43.56991" lon="2.00976">
        <ele>313.3</ele>
        <time>2022-03-08T12:57:41Z</time>
      </trkpt>
      <trkpt lat="43.56993" lon="2.00975">
        <ele>313.2</ele>
        <time>2022-03-08T12:57:43Z</time>
      </trkpt>
      <trkpt lat="43.56994" lon="2.00974">
        <ele>313.1</ele>
        <time>2022-03-08T12:57:44Z</time>
      </trkpt>
      <trkpt lat="43.56995" lon="2.00974">
        <ele>313</ele>
        <time>2022-03-08T12:57:45Z</time>
      </trkpt>
      <trkpt lat="43.56997" lon="2.00974">
        <ele>313</ele>
        <time>2022-03-08T12:57:46Z</time>
      </trkpt>
      <trkpt lat="43.56998" lon="2.00974">
        <ele>312.9</ele>
        <time>2022-03-08T12:57:47Z</time>
      </trkpt>
      <trkpt lat="43.56999" lon="2.00974">
        <ele>312.8</ele>
        <time>2022-03-08T12:57:48Z</time>
      </trkpt>
      <trkpt lat="43.57001" lon="2.00973">
        <ele>312.7</ele>
        <time>2022-03-08T12:57:49Z</time>
      </trkpt>
      <trkpt lat="43.57002" lon="2.00973">
        <ele>312.6</ele>
        <time>2022-03-08T12:57:51Z</time>
      </trkpt>
      <trkpt lat="43.57004" lon="2.00972">
        <ele>312.6</ele>
        <time>2022-03-08T12:57:52Z</time>
      </trkpt>
      <trkpt lat="43.57004" lon="2.00971">
        <ele>312.5</ele>
        <time>2022-03-08T12:57:54Z</time>
      </trkpt>
      <trkpt lat="43.57005" lon="2.0097">
        <ele>312.5</ele>
        <time>2022-03-08T12:57:55Z</time>
      </trkpt>
      <trkpt lat="43.57005" lon="2.00969">
        <ele>312.4</ele>
        <time>2022-03-08T12:57:56Z</time>
      </trkpt>
      <trkpt lat="43.57006" lon="2.00966">
        <ele>312.3</ele>
        <time>2022-03-08T12:57:57Z</time>
      </trkpt>
      <trkpt lat="43.57007" lon="2.00964">
        <ele>312.2</ele>
        <time>2022-03-08T12:57:58Z</time>
      </trkpt>
      <trkpt lat="43.57007" lon="2.00963">
        <ele>312.2</ele>
        <time>2022-03-08T12:57:59Z</time>
      </trkpt>
      <trkpt lat="43.57007" lon="2.0096">
        <ele>312.1</ele>
        <time>2022-03-08T12:58:00Z</time>
      </trkpt>
      <trkpt lat="43.57007" lon="2.00957">
        <ele>311.9</ele>
        <time>2022-03-08T12:58:02Z</time>
      </trkpt>
      <trkpt lat="43.57008" lon="2.00955">
        <ele>311.9</ele>
        <time>2022-03-08T12:58:03Z</time>
      </trkpt>
      <trkpt lat="43.57008" lon="2.00953">
        <ele>311.8</ele>
        <time>2022-03-08T12:58:04Z</time>
      </trkpt>
      <trkpt lat="43.57008" lon="2.0095">
        <ele>311.7</ele>
        <time>2022-03-08T12:58:05Z</time>
      </trkpt>
      <trkpt lat="43.57008" lon="2.00948">
        <ele>311.6</ele>
        <time>2022-03-08T12:58:06Z</time>
      </trkpt>
      <trkpt lat="43.57008" lon="2.00946">
        <ele>311.5</ele>
        <time>2022-03-08T12:58:07Z</time>
      </trkpt>
      <trkpt lat="43.57008" lon="2.00944">
        <ele>311.4</ele>
        <time>2022-03-08T12:58:08Z</time>
      </trkpt>
      <trkpt lat="43.57008" lon="2.00942">
        <ele>311.4</ele>
        <time>2022-03-08T12:58:09Z</time>
      </trkpt>
      <trkpt lat="43.57008" lon="2.0094">
        <ele>311.3</ele>
        <time>2022-03-08T12:58:10Z</time>
      </trkpt>
      <trkpt lat="43.57008" lon="2.00938">
        <ele>311.2</ele>
        <time>2022-03-08T12:58:11Z</time>
      </trkpt>
      <trkpt lat="43.57008" lon="2.00936">
        <ele>311.2</ele>
        <time>2022-03-08T12:58:12Z</time>
      </trkpt>
      <trkpt lat="43.57008" lon="2.00935">
        <ele>311.1</ele>
        <time>2022-03-08T12:58:13Z</time>
      </trkpt>
      <trkpt lat="43.57007" lon="2.00933">
        <ele>311.1</ele>
        <time>2022-03-08T12:58:14Z</time>
      </trkpt>
      <trkpt lat="43.57007" lon="2.00932">
        <ele>311</ele>
        <time>2022-03-08T12:58:15Z</time>
      </trkpt>
      <trkpt lat="43.57008" lon="2.00929">
        <ele>310.9</ele>
        <time>2022-03-08T12:58:16Z</time>
      </trkpt>
      <trkpt lat="43.57009" lon="2.00928">
        <ele>310.9</ele>
        <time>2022-03-08T12:58:17Z</time>
      </trkpt>
      <trkpt lat="43.5701" lon="2.00927">
        <ele>310.9</ele>
        <time>2022-03-08T12:58:18Z</time>
      </trkpt>
      <trkpt lat="43.57011" lon="2.00925">
        <ele>310.8</ele>
        <time>2022-03-08T12:58:19Z</time>
      </trkpt>
      <trkpt lat="43.57012" lon="2.00924">
        <ele>310.7</ele>
        <time>2022-03-08T12:58:20Z</time>
      </trkpt>
      <trkpt lat="43.57013" lon="2.00922">
        <ele>310.6</ele>
        <time>2022-03-08T12:58:21Z</time>
      </trkpt>
      <trkpt lat="43.57014" lon="2.00921">
        <ele>310.6</ele>
        <time>2022-03-08T12:58:22Z</time>
      </trkpt>
      <trkpt lat="43.57016" lon="2.00918">
        <ele>310.4</ele>
        <time>2022-03-08T12:58:23Z</time>
      </trkpt>
      <trkpt lat="43.57017" lon="2.00918">
        <ele>310.4</ele>
        <time>2022-03-08T12:58:24Z</time>
      </trkpt>
      <trkpt lat="43.5702" lon="2.00915">
        <ele>310.2</ele>
        <time>2022-03-08T12:58:26Z</time>
      </trkpt>
      <trkpt lat="43.57021" lon="2.00914">
        <ele>310.2</ele>
        <time>2022-03-08T12:58:27Z</time>
      </trkpt>
      <trkpt lat="43.57023" lon="2.00913">
        <ele>310.1</ele>
        <time>2022-03-08T12:58:28Z</time>
      </trkpt>
      <trkpt lat="43.57026" lon="2.00913">
        <ele>309.9</ele>
        <time>2022-03-08T12:58:29Z</time>
      </trkpt>
      <trkpt lat="43.57027" lon="2.00913">
        <ele>309.9</ele>
        <time>2022-03-08T12:58:30Z</time>
      </trkpt>
      <trkpt lat="43.57029" lon="2.00914">
        <ele>309.7</ele>
        <time>2022-03-08T12:58:31Z</time>
      </trkpt>
      <trkpt lat="43.5703" lon="2.00914">
        <ele>309.7</ele>
        <time>2022-03-08T12:58:32Z</time>
      </trkpt>
      <trkpt lat="43.57033" lon="2.00915">
        <ele>309.5</ele>
        <time>2022-03-08T12:58:34Z</time>
      </trkpt>
      <trkpt lat="43.57034" lon="2.00915">
        <ele>309.4</ele>
        <time>2022-03-08T12:58:35Z</time>
      </trkpt>
      <trkpt lat="43.57035" lon="2.00915">
        <ele>309.4</ele>
        <time>2022-03-08T12:58:36Z</time>
      </trkpt>
      <trkpt lat="43.57036" lon="2.00915">
        <ele>309.3</ele>
        <time>2022-03-08T12:58:37Z</time>
      </trkpt>
      <trkpt lat="43.57038" lon="2.00914">
        <ele>309.2</ele>
        <time>2022-03-08T12:58:38Z</time>
      </trkpt>
      <trkpt lat="43.57039" lon="2.00913">
        <ele>309</ele>
        <time>2022-03-08T12:58:40Z</time>
      </trkpt>
      <trkpt lat="43.57041" lon="2.00913">
        <ele>309</ele>
        <time>2022-03-08T12:58:41Z</time>
      </trkpt>
      <trkpt lat="43.57041" lon="2.00912">
        <ele>308.9</ele>
        <time>2022-03-08T12:58:42Z</time>
      </trkpt>
      <trkpt lat="43.57042" lon="2.00911">
        <ele>308.8</ele>
        <time>2022-03-08T12:58:43Z</time>
      </trkpt>
      <trkpt lat="43.57043" lon="2.0091">
        <ele>308.8</ele>
        <time>2022-03-08T12:58:44Z</time>
      </trkpt>
      <trkpt lat="43.57044" lon="2.00909">
        <ele>308.7</ele>
        <time>2022-03-08T12:58:45Z</time>
      </trkpt>
      <trkpt lat="43.57045" lon="2.00908">
        <ele>308.7</ele>
        <time>2022-03-08T12:58:46Z</time>
      </trkpt>
      <trkpt lat="43.57046" lon="2.00906">
        <ele>308.5</ele>
        <time>2022-03-08T12:58:47Z</time>
      </trkpt>
      <trkpt lat="43.57046" lon="2.00904">
        <ele>308.5</ele>
        <time>2022-03-08T12:58:48Z</time>
      </trkpt>
      <trkpt lat="43.57047" lon="2.00903">
        <ele>308.5</ele>
        <time>2022-03-08T12:58:49Z</time>
      </trkpt>
      <trkpt lat="43.57048" lon="2.00901">
        <ele>308.3</ele>
        <time>2022-03-08T12:58:50Z</time>
      </trkpt>
      <trkpt lat="43.57049" lon="2.009">
        <ele>308.3</ele>
        <time>2022-03-08T12:58:51Z</time>
      </trkpt>
      <trkpt lat="43.57049" lon="2.00899">
        <ele>308.2</ele>
        <time>2022-03-08T12:58:52Z</time>
      </trkpt>
      <trkpt lat="43.5705" lon="2.00898">
        <ele>308.2</ele>
        <time>2022-03-08T12:58:53Z</time>
      </trkpt>
      <trkpt lat="43.5705" lon="2.00897">
        <ele>308.1</ele>
        <time>2022-03-08T12:58:54Z</time>
      </trkpt>
      <trkpt lat="43.57051" lon="2.00895">
        <ele>308.1</ele>
        <time>2022-03-08T12:58:55Z</time>
      </trkpt>
      <trkpt lat="43.57052" lon="2.00894">
        <ele>308</ele>
        <time>2022-03-08T12:58:56Z</time>
      </trkpt>
      <trkpt lat="43.57053" lon="2.00893">
        <ele>307.9</ele>
        <time>2022-03-08T12:58:57Z</time>
      </trkpt>
      <trkpt lat="43.57054" lon="2.00891">
        <ele>307.8</ele>
        <time>2022-03-08T12:58:58Z</time>
      </trkpt>
      <trkpt lat="43.57055" lon="2.0089">
        <ele>307.7</ele>
        <time>2022-03-08T12:58:59Z</time>
      </trkpt>
      <trkpt lat="43.57056" lon="2.00888">
        <ele>307.7</ele>
        <time>2022-03-08T12:59:00Z</time>
      </trkpt>
      <trkpt lat="43.57057" lon="2.00886">
        <ele>307.6</ele>
        <time>2022-03-08T12:59:01Z</time>
      </trkpt>
      <trkpt lat="43.57058" lon="2.00884">
        <ele>307.4</ele>
        <time>2022-03-08T12:59:02Z</time>
      </trkpt>
      <trkpt lat="43.57059" lon="2.00883">
        <ele>307.4</ele>
        <time>2022-03-08T12:59:03Z</time>
      </trkpt>
      <trkpt lat="43.5706" lon="2.00882">
        <ele>307.3</ele>
        <time>2022-03-08T12:59:04Z</time>
      </trkpt>
      <trkpt lat="43.57061" lon="2.00879">
        <ele>307.2</ele>
        <time>2022-03-08T12:59:05Z</time>
      </trkpt>
      <trkpt lat="43.57061" lon="2.00878">
        <ele>307.1</ele>
        <time>2022-03-08T12:59:06Z</time>
      </trkpt>
      <trkpt lat="43.57062" lon="2.00877">
        <ele>307.1</ele>
        <time>2022-03-08T12:59:07Z</time>
      </trkpt>
      <trkpt lat="43.57063" lon="2.00875">
        <ele>307</ele>
        <time>2022-03-08T12:59:08Z</time>
      </trkpt>
      <trkpt lat="43.57064" lon="2.00873">
        <ele>306.8</ele>
        <time>2022-03-08T12:59:10Z</time>
      </trkpt>
      <trkpt lat="43.57064" lon="2.00871">
        <ele>306.7</ele>
        <time>2022-03-08T12:59:11Z</time>
      </trkpt>
      <trkpt lat="43.57065" lon="2.00869">
        <ele>306.6</ele>
        <time>2022-03-08T12:59:12Z</time>
      </trkpt>
      <trkpt lat="43.57066" lon="2.00867">
        <ele>306.5</ele>
        <time>2022-03-08T12:59:13Z</time>
      </trkpt>
      <trkpt lat="43.57066" lon="2.00865">
        <ele>306.4</ele>
        <time>2022-03-08T12:59:14Z</time>
      </trkpt>
      <trkpt lat="43.57067" lon="2.00863">
        <ele>306.4</ele>
        <time>2022-03-08T12:59:15Z</time>
      </trkpt>
      <trkpt lat="43.57067" lon="2.00863">
        <ele>306.3</ele>
        <time>2022-03-08T12:59:17Z</time>
      </trkpt>
      <trkpt lat="43.57067" lon="2.00862">
        <ele>306.3</ele>
        <time>2022-03-08T12:59:18Z</time>
      </trkpt>
      <trkpt lat="43.57067" lon="2.00862">
        <ele>306.3</ele>
        <time>2022-03-08T12:59:19Z</time>
      </trkpt>
      <trkpt lat="43.57065" lon="2.00864">
        <ele>306.1</ele>
        <time>2022-03-08T12:59:20Z</time>
      </trkpt>
      <trkpt lat="43.57063" lon="2.00865">
        <ele>306</ele>
        <time>2022-03-08T12:59:22Z</time>
      </trkpt>
      <trkpt lat="43.57062" lon="2.00866">
        <ele>305.9</ele>
        <time>2022-03-08T12:59:23Z</time>
      </trkpt>
      <trkpt lat="43.57061" lon="2.00865">
        <ele>305.8</ele>
        <time>2022-03-08T12:59:24Z</time>
      </trkpt>
      <trkpt lat="43.5706" lon="2.00865">
        <ele>305.8</ele>
        <time>2022-03-08T12:59:26Z</time>
      </trkpt>
      <trkpt lat="43.5706" lon="2.00865">
        <ele>305.8</ele>
        <time>2022-03-08T12:59:27Z</time>
      </trkpt>
      <trkpt lat="43.5706" lon="2.00865">
        <ele>305.7</ele>
        <time>2022-03-08T12:59:28Z</time>
      </trkpt>
      <trkpt lat="43.57059" lon="2.00866">
        <ele>305.7</ele>
        <time>2022-03-08T12:59:29Z</time>
      </trkpt>
      <trkpt lat="43.57058" lon="2.00867">
        <ele>305.5</ele>
        <time>2022-03-08T12:59:30Z</time>
      </trkpt>
      <trkpt lat="43.57057" lon="2.00868">
        <ele>305.5</ele>
        <time>2022-03-08T12:59:31Z</time>
      </trkpt>
      <trkpt lat="43.57056" lon="2.00869">
        <ele>305.4</ele>
        <time>2022-03-08T12:59:32Z</time>
      </trkpt>
      <trkpt lat="43.57056" lon="2.00869">
        <ele>305.4</ele>
        <time>2022-03-08T12:59:33Z</time>
      </trkpt>
      <trkpt lat="43.57056" lon="2.00868">
        <ele>305.3</ele>
        <time>2022-03-08T12:59:34Z</time>
      </trkpt>
      <trkpt lat="43.57057" lon="2.00868">
        <ele>305.3</ele>
        <time>2022-03-08T12:59:35Z</time>
      </trkpt>
      <trkpt lat="43.57058" lon="2.00868">
        <ele>305.3</ele>
        <time>2022-03-08T12:59:36Z</time>
      </trkpt>
      <trkpt lat="43.57058" lon="2.00868">
        <ele>305.2</ele>
        <time>2022-03-08T12:59:37Z</time>
      </trkpt>
      <trkpt lat="43.57059" lon="2.00867">
        <ele>305.2</ele>
        <time>2022-03-08T12:59:38Z</time>
      </trkpt>
      <trkpt lat="43.57059" lon="2.00867">
        <ele>305.1</ele>
        <time>2022-03-08T12:59:39Z</time>
      </trkpt>
      <trkpt lat="43.5706" lon="2.00868">
        <ele>305.1</ele>
        <time>2022-03-08T12:59:40Z</time>
      </trkpt>
      <trkpt lat="43.5706" lon="2.00868">
        <ele>305.1</ele>
        <time>2022-03-08T12:59:41Z</time>
      </trkpt>
      <trkpt lat="43.57061" lon="2.00868">
        <ele>305.1</ele>
        <time>2022-03-08T12:59:42Z</time>
      </trkpt>
      <trkpt lat="43.57061" lon="2.00868">
        <ele>305.1</ele>
        <time>2022-03-08T12:59:43Z</time>
      </trkpt>
      <trkpt lat="43.57048" lon="2.00864">
        <ele>304.2</ele>
        <time>2022-03-08T12:59:45Z</time>
      </trkpt>
      <trkpt lat="43.57025" lon="2.00856">
        <ele>303</ele>
        <time>2022-03-08T12:59:46Z</time>
      </trkpt>
      <trkpt lat="43.57016" lon="2.00853">
        <ele>302.5</ele>
        <time>2022-03-08T12:59:47Z</time>
      </trkpt>
      <trkpt lat="43.5701" lon="2.00851">
        <ele>302.2</ele>
        <time>2022-03-08T12:59:48Z</time>
      </trkpt>
      <trkpt lat="43.57005" lon="2.00849">
        <ele>302</ele>
        <time>2022-03-08T12:59:49Z</time>
      </trkpt>
      <trkpt lat="43.57001" lon="2.00847">
        <ele>301.8</ele>
        <time>2022-03-08T12:59:50Z</time>
      </trkpt>
      <trkpt lat="43.56999" lon="2.00846">
        <ele>301.7</ele>
        <time>2022-03-08T12:59:51Z</time>
      </trkpt>
      <trkpt lat="43.56997" lon="2.00845">
        <ele>301.6</ele>
        <time>2022-03-08T12:59:53Z</time>
      </trkpt>
      <trkpt lat="43.56995" lon="2.00843">
        <ele>301.1</ele>
        <time>2022-03-08T12:59:54Z</time>
      </trkpt>
      <trkpt lat="43.56994" lon="2.00842">
        <ele>301.1</ele>
        <time>2022-03-08T12:59:55Z</time>
      </trkpt>
      <trkpt lat="43.56993" lon="2.0084">
        <ele>301.1</ele>
        <time>2022-03-08T12:59:56Z</time>
      </trkpt>
      <trkpt lat="43.56992" lon="2.00839">
        <ele>301</ele>
        <time>2022-03-08T12:59:57Z</time>
      </trkpt>
      <trkpt lat="43.56991" lon="2.00839">
        <ele>301</ele>
        <time>2022-03-08T12:59:58Z</time>
      </trkpt>
      <trkpt lat="43.5699" lon="2.00837">
        <ele>301</ele>
        <time>2022-03-08T12:59:59Z</time>
      </trkpt>
      <trkpt lat="43.56989" lon="2.00836">
        <ele>301</ele>
        <time>2022-03-08T13:00:00Z</time>
      </trkpt>
      <trkpt lat="43.56988" lon="2.00836">
        <ele>301</ele>
        <time>2022-03-08T13:00:01Z</time>
      </trkpt>
      <trkpt lat="43.56986" lon="2.00835">
        <ele>300.9</ele>
        <time>2022-03-08T13:00:02Z</time>
      </trkpt>
      <trkpt lat="43.56985" lon="2.00835">
        <ele>300.9</ele>
        <time>2022-03-08T13:00:03Z</time>
      </trkpt>
      <trkpt lat="43.56984" lon="2.00834">
        <ele>300.9</ele>
        <time>2022-03-08T13:00:04Z</time>
      </trkpt>
      <trkpt lat="43.56982" lon="2.00833">
        <ele>300.9</ele>
        <time>2022-03-08T13:00:05Z</time>
      </trkpt>
      <trkpt lat="43.56982" lon="2.00832">
        <ele>300.9</ele>
        <time>2022-03-08T13:00:06Z</time>
      </trkpt>
      <trkpt lat="43.56981" lon="2.00832">
        <ele>300.8</ele>
        <time>2022-03-08T13:00:07Z</time>
      </trkpt>
      <trkpt lat="43.56979" lon="2.00829">
        <ele>300.8</ele>
        <time>2022-03-08T13:00:09Z</time>
      </trkpt>
      <trkpt lat="43.56979" lon="2.00828">
        <ele>300.8</ele>
        <time>2022-03-08T13:00:10Z</time>
      </trkpt>
      <trkpt lat="43.56978" lon="2.00829">
        <ele>300.8</ele>
        <time>2022-03-08T13:00:11Z</time>
      </trkpt>
      <trkpt lat="43.56976" lon="2.0083">
        <ele>300.8</ele>
        <time>2022-03-08T13:00:12Z</time>
      </trkpt>
      <trkpt lat="43.56975" lon="2.00834">
        <ele>300.7</ele>
        <time>2022-03-08T13:00:13Z</time>
      </trkpt>
      <trkpt lat="43.56975" lon="2.00836">
        <ele>300.7</ele>
        <time>2022-03-08T13:00:14Z</time>
      </trkpt>
      <trkpt lat="43.56974" lon="2.00838">
        <ele>300.7</ele>
        <time>2022-03-08T13:00:15Z</time>
      </trkpt>
      <trkpt lat="43.56974" lon="2.00839">
        <ele>300.7</ele>
        <time>2022-03-08T13:00:16Z</time>
      </trkpt>
      <trkpt lat="43.56974" lon="2.0084">
        <ele>300.7</ele>
        <time>2022-03-08T13:00:17Z</time>
      </trkpt>
      <trkpt lat="43.56974" lon="2.0084">
        <ele>300.6</ele>
        <time>2022-03-08T13:00:18Z</time>
      </trkpt>
      <trkpt lat="43.56974" lon="2.0084">
        <ele>300.6</ele>
        <time>2022-03-08T13:00:20Z</time>
      </trkpt>
      <trkpt lat="43.56974" lon="2.00838">
        <ele>300.6</ele>
        <time>2022-03-08T13:00:21Z</time>
      </trkpt>
      <trkpt lat="43.56973" lon="2.00836">
        <ele>300.6</ele>
        <time>2022-03-08T13:00:22Z</time>
      </trkpt>
      <trkpt lat="43.56972" lon="2.00835">
        <ele>300.6</ele>
        <time>2022-03-08T13:00:23Z</time>
      </trkpt>
      <trkpt lat="43.56972" lon="2.00834">
        <ele>300.6</ele>
        <time>2022-03-08T13:00:25Z</time>
      </trkpt>
      <trkpt lat="43.56971" lon="2.00834">
        <ele>300.6</ele>
        <time>2022-03-08T13:00:26Z</time>
      </trkpt>
      <trkpt lat="43.5697" lon="2.00835">
        <ele>300.5</ele>
        <time>2022-03-08T13:00:27Z</time>
      </trkpt>
      <trkpt lat="43.56968" lon="2.00836">
        <ele>300.5</ele>
        <time>2022-03-08T13:00:28Z</time>
      </trkpt>
      <trkpt lat="43.56967" lon="2.00836">
        <ele>300.5</ele>
        <time>2022-03-08T13:00:29Z</time>
      </trkpt>
      <trkpt lat="43.56966" lon="2.00837">
        <ele>300.5</ele>
        <time>2022-03-08T13:00:30Z</time>
      </trkpt>
      <trkpt lat="43.56963" lon="2.00839">
        <ele>300.5</ele>
        <time>2022-03-08T13:00:31Z</time>
      </trkpt>
      <trkpt lat="43.56962" lon="2.0084">
        <ele>300.4</ele>
        <time>2022-03-08T13:00:32Z</time>
      </trkpt>
      <trkpt lat="43.56959" lon="2.00843">
        <ele>300.3</ele>
        <time>2022-03-08T13:00:33Z</time>
      </trkpt>
      <trkpt lat="43.56956" lon="2.00846">
        <ele>300.3</ele>
        <time>2022-03-08T13:00:34Z</time>
      </trkpt>
      <trkpt lat="43.56955" lon="2.00847">
        <ele>300.3</ele>
        <time>2022-03-08T13:00:35Z</time>
      </trkpt>
      <trkpt lat="43.56952" lon="2.00849">
        <ele>300.3</ele>
        <time>2022-03-08T13:00:36Z</time>
      </trkpt>
      <trkpt lat="43.56949" lon="2.0085">
        <ele>300.3</ele>
        <time>2022-03-08T13:00:38Z</time>
      </trkpt>
      <trkpt lat="43.56948" lon="2.00851">
        <ele>300.3</ele>
        <time>2022-03-08T13:00:39Z</time>
      </trkpt>
      <trkpt lat="43.56946" lon="2.00852">
        <ele>300.2</ele>
        <time>2022-03-08T13:00:40Z</time>
      </trkpt>
      <trkpt lat="43.56945" lon="2.00852">
        <ele>300.1</ele>
        <time>2022-03-08T13:00:41Z</time>
      </trkpt>
      <trkpt lat="43.56944" lon="2.00853">
        <ele>300.1</ele>
        <time>2022-03-08T13:00:42Z</time>
      </trkpt>
      <trkpt lat="43.56943" lon="2.00853">
        <ele>300</ele>
        <time>2022-03-08T13:00:43Z</time>
      </trkpt>
      <trkpt lat="43.56942" lon="2.00853">
        <ele>300</ele>
        <time>2022-03-08T13:00:44Z</time>
      </trkpt>
      <trkpt lat="43.5694" lon="2.00852">
        <ele>299.9</ele>
        <time>2022-03-08T13:00:45Z</time>
      </trkpt>
      <trkpt lat="43.56939" lon="2.00851">
        <ele>299.8</ele>
        <time>2022-03-08T13:00:46Z</time>
      </trkpt>
      <trkpt lat="43.56937" lon="2.00851">
        <ele>299.8</ele>
        <time>2022-03-08T13:00:47Z</time>
      </trkpt>
      <trkpt lat="43.56935" lon="2.00848">
        <ele>299.7</ele>
        <time>2022-03-08T13:00:48Z</time>
      </trkpt>
      <trkpt lat="43.56934" lon="2.00848">
        <ele>299.6</ele>
        <time>2022-03-08T13:00:49Z</time>
      </trkpt>
      <trkpt lat="43.56933" lon="2.00844">
        <ele>299.5</ele>
        <time>2022-03-08T13:00:50Z</time>
      </trkpt>
      <trkpt lat="43.56931" lon="2.0084">
        <ele>299.4</ele>
        <time>2022-03-08T13:00:51Z</time>
      </trkpt>
      <trkpt lat="43.5693" lon="2.00836">
        <ele>299.2</ele>
        <time>2022-03-08T13:00:52Z</time>
      </trkpt>
      <trkpt lat="43.56929" lon="2.00835">
        <ele>299.2</ele>
        <time>2022-03-08T13:00:53Z</time>
      </trkpt>
      <trkpt lat="43.56928" lon="2.00833">
        <ele>299.1</ele>
        <time>2022-03-08T13:00:54Z</time>
      </trkpt>
      <trkpt lat="43.56927" lon="2.00832">
        <ele>299.1</ele>
        <time>2022-03-08T13:00:55Z</time>
      </trkpt>
      <trkpt lat="43.56926" lon="2.00832">
        <ele>299</ele>
        <time>2022-03-08T13:00:56Z</time>
      </trkpt>
      <trkpt lat="43.56924" lon="2.0083">
        <ele>298.9</ele>
        <time>2022-03-08T13:00:57Z</time>
      </trkpt>
      <trkpt lat="43.56924" lon="2.0083">
        <ele>298.9</ele>
        <time>2022-03-08T13:00:58Z</time>
      </trkpt>
      <trkpt lat="43.56923" lon="2.00829">
        <ele>298.9</ele>
        <time>2022-03-08T13:00:59Z</time>
      </trkpt>
      <trkpt lat="43.56922" lon="2.00828">
        <ele>298.8</ele>
        <time>2022-03-08T13:01:00Z</time>
      </trkpt>
      <trkpt lat="43.56922" lon="2.00827">
        <ele>298.8</ele>
        <time>2022-03-08T13:01:02Z</time>
      </trkpt>
      <trkpt lat="43.56922" lon="2.00825">
        <ele>298.7</ele>
        <time>2022-03-08T13:01:03Z</time>
      </trkpt>
      <trkpt lat="43.56921" lon="2.00823">
        <ele>298.7</ele>
        <time>2022-03-08T13:01:04Z</time>
      </trkpt>
      <trkpt lat="43.5692" lon="2.00822">
        <ele>298.6</ele>
        <time>2022-03-08T13:01:05Z</time>
      </trkpt>
      <trkpt lat="43.5692" lon="2.00821">
        <ele>298.6</ele>
        <time>2022-03-08T13:01:06Z</time>
      </trkpt>
      <trkpt lat="43.56919" lon="2.00821">
        <ele>298.5</ele>
        <time>2022-03-08T13:01:07Z</time>
      </trkpt>
      <trkpt lat="43.56918" lon="2.0082">
        <ele>298.5</ele>
        <time>2022-03-08T13:01:08Z</time>
      </trkpt>
      <trkpt lat="43.56916" lon="2.00819">
        <ele>298.5</ele>
        <time>2022-03-08T13:01:09Z</time>
      </trkpt>
      <trkpt lat="43.56915" lon="2.00819">
        <ele>298.4</ele>
        <time>2022-03-08T13:01:10Z</time>
      </trkpt>
      <trkpt lat="43.56914" lon="2.00818">
        <ele>298.4</ele>
        <time>2022-03-08T13:01:11Z</time>
      </trkpt>
      <trkpt lat="43.56912" lon="2.00817">
        <ele>298.3</ele>
        <time>2022-03-08T13:01:12Z</time>
      </trkpt>
      <trkpt lat="43.56911" lon="2.00817">
        <ele>298.3</ele>
        <time>2022-03-08T13:01:13Z</time>
      </trkpt>
      <trkpt lat="43.56909" lon="2.00817">
        <ele>298.2</ele>
        <time>2022-03-08T13:01:14Z</time>
      </trkpt>
      <trkpt lat="43.56908" lon="2.00816">
        <ele>298.1</ele>
        <time>2022-03-08T13:01:15Z</time>
      </trkpt>
      <trkpt lat="43.56906" lon="2.00816">
        <ele>298.1</ele>
        <time>2022-03-08T13:01:16Z</time>
      </trkpt>
      <trkpt lat="43.56905" lon="2.00815">
        <ele>298</ele>
        <time>2022-03-08T13:01:17Z</time>
      </trkpt>
      <trkpt lat="43.56903" lon="2.00815">
        <ele>298</ele>
        <time>2022-03-08T13:01:19Z</time>
      </trkpt>
      <trkpt lat="43.56902" lon="2.00814">
        <ele>297.9</ele>
        <time>2022-03-08T13:01:20Z</time>
      </trkpt>
      <trkpt lat="43.56902" lon="2.00814">
        <ele>297.9</ele>
        <time>2022-03-08T13:01:21Z</time>
      </trkpt>
      <trkpt lat="43.56901" lon="2.00813">
        <ele>297.9</ele>
        <time>2022-03-08T13:01:22Z</time>
      </trkpt>
      <trkpt lat="43.56901" lon="2.00812">
        <ele>297.9</ele>
        <time>2022-03-08T13:01:23Z</time>
      </trkpt>
      <trkpt lat="43.569" lon="2.00811">
        <ele>297.8</ele>
        <time>2022-03-08T13:01:24Z</time>
      </trkpt>
      <trkpt lat="43.56899" lon="2.0081">
        <ele>297.8</ele>
        <time>2022-03-08T13:01:25Z</time>
      </trkpt>
      <trkpt lat="43.56898" lon="2.00809">
        <ele>297.7</ele>
        <time>2022-03-08T13:01:26Z</time>
      </trkpt>
      <trkpt lat="43.56897" lon="2.00808">
        <ele>297.7</ele>
        <time>2022-03-08T13:01:27Z</time>
      </trkpt>
      <trkpt lat="43.56895" lon="2.00807">
        <ele>297.6</ele>
        <time>2022-03-08T13:01:29Z</time>
      </trkpt>
      <trkpt lat="43.56893" lon="2.00806">
        <ele>297.6</ele>
        <time>2022-03-08T13:01:30Z</time>
      </trkpt>
      <trkpt lat="43.56892" lon="2.00806">
        <ele>297.6</ele>
        <time>2022-03-08T13:01:31Z</time>
      </trkpt>
      <trkpt lat="43.5689" lon="2.00805">
        <ele>297.5</ele>
        <time>2022-03-08T13:01:32Z</time>
      </trkpt>
      <trkpt lat="43.56889" lon="2.00806">
        <ele>297.5</ele>
        <time>2022-03-08T13:01:33Z</time>
      </trkpt>
      <trkpt lat="43.56888" lon="2.00806">
        <ele>297.5</ele>
        <time>2022-03-08T13:01:34Z</time>
      </trkpt>
      <trkpt lat="43.56886" lon="2.00806">
        <ele>297.5</ele>
        <time>2022-03-08T13:01:35Z</time>
      </trkpt>
      <trkpt lat="43.56884" lon="2.00807">
        <ele>297.5</ele>
        <time>2022-03-08T13:01:36Z</time>
      </trkpt>
      <trkpt lat="43.56883" lon="2.00807">
        <ele>297.5</ele>
        <time>2022-03-08T13:01:37Z</time>
      </trkpt>
      <trkpt lat="43.56883" lon="2.00807">
        <ele>297.5</ele>
        <time>2022-03-08T13:01:38Z</time>
      </trkpt>
      <trkpt lat="43.56881" lon="2.00808">
        <ele>297.5</ele>
        <time>2022-03-08T13:01:39Z</time>
      </trkpt>
      <trkpt lat="43.5688" lon="2.00807">
        <ele>297.5</ele>
        <time>2022-03-08T13:01:40Z</time>
      </trkpt>
      <trkpt lat="43.56879" lon="2.00807">
        <ele>297.4</ele>
        <time>2022-03-08T13:01:41Z</time>
      </trkpt>
      <trkpt lat="43.56879" lon="2.00807">
        <ele>297.4</ele>
        <time>2022-03-08T13:01:42Z</time>
      </trkpt>
      <trkpt lat="43.56878" lon="2.00807">
        <ele>297.4</ele>
        <time>2022-03-08T13:01:44Z</time>
      </trkpt>
      <trkpt lat="43.56877" lon="2.00806">
        <ele>297.4</ele>
        <time>2022-03-08T13:01:45Z</time>
      </trkpt>
      <trkpt lat="43.56877" lon="2.00806">
        <ele>297.4</ele>
        <time>2022-03-08T13:01:46Z</time>
      </trkpt>
      <trkpt lat="43.56876" lon="2.00806">
        <ele>297.4</ele>
        <time>2022-03-08T13:01:47Z</time>
      </trkpt>
      <trkpt lat="43.56876" lon="2.00806">
        <ele>297.4</ele>
        <time>2022-03-08T13:01:48Z</time>
      </trkpt>
      <trkpt lat="43.56875" lon="2.00805">
        <ele>297.4</ele>
        <time>2022-03-08T13:01:49Z</time>
      </trkpt>
      <trkpt lat="43.56874" lon="2.00805">
        <ele>297.4</ele>
        <time>2022-03-08T13:01:50Z</time>
      </trkpt>
      <trkpt lat="43.56874" lon="2.00805">
        <ele>297.4</ele>
        <time>2022-03-08T13:01:52Z</time>
      </trkpt>
      <trkpt lat="43.56873" lon="2.00805">
        <ele>297.4</ele>
        <time>2022-03-08T13:01:53Z</time>
      </trkpt>
      <trkpt lat="43.56873" lon="2.00804">
        <ele>297.4</ele>
        <time>2022-03-08T13:01:54Z</time>
      </trkpt>
      <trkpt lat="43.56872" lon="2.00804">
        <ele>297.4</ele>
        <time>2022-03-08T13:01:55Z</time>
      </trkpt>
      <trkpt lat="43.5687" lon="2.00804">
        <ele>297.4</ele>
        <time>2022-03-08T13:01:56Z</time>
      </trkpt>
      <trkpt lat="43.56869" lon="2.00803">
        <ele>297.4</ele>
        <time>2022-03-08T13:01:57Z</time>
      </trkpt>
      <trkpt lat="43.56868" lon="2.00803">
        <ele>297.3</ele>
        <time>2022-03-08T13:01:58Z</time>
      </trkpt>
      <trkpt lat="43.56868" lon="2.00803">
        <ele>297.3</ele>
        <time>2022-03-08T13:01:59Z</time>
      </trkpt>
      <trkpt lat="43.56867" lon="2.00802">
        <ele>297.3</ele>
        <time>2022-03-08T13:02:00Z</time>
      </trkpt>
      <trkpt lat="43.56866" lon="2.00801">
        <ele>297.3</ele>
        <time>2022-03-08T13:02:02Z</time>
      </trkpt>
      <trkpt lat="43.56865" lon="2.008">
        <ele>297.3</ele>
        <time>2022-03-08T13:02:03Z</time>
      </trkpt>
      <trkpt lat="43.56863" lon="2.008">
        <ele>297.3</ele>
        <time>2022-03-08T13:02:04Z</time>
      </trkpt>
      <trkpt lat="43.5686" lon="2.00798">
        <ele>297.3</ele>
        <time>2022-03-08T13:02:05Z</time>
      </trkpt>
      <trkpt lat="43.56859" lon="2.00798">
        <ele>297.3</ele>
        <time>2022-03-08T13:02:06Z</time>
      </trkpt>
      <trkpt lat="43.56857" lon="2.00797">
        <ele>297.2</ele>
        <time>2022-03-08T13:02:07Z</time>
      </trkpt>
      <trkpt lat="43.56856" lon="2.00796">
        <ele>297.2</ele>
        <time>2022-03-08T13:02:08Z</time>
      </trkpt>
      <trkpt lat="43.56853" lon="2.00794">
        <ele>297.2</ele>
        <time>2022-03-08T13:02:09Z</time>
      </trkpt>
      <trkpt lat="43.56852" lon="2.00794">
        <ele>297.2</ele>
        <time>2022-03-08T13:02:10Z</time>
      </trkpt>
      <trkpt lat="43.56851" lon="2.00793">
        <ele>297.2</ele>
        <time>2022-03-08T13:02:11Z</time>
      </trkpt>
      <trkpt lat="43.56849" lon="2.00792">
        <ele>297.2</ele>
        <time>2022-03-08T13:02:12Z</time>
      </trkpt>
      <trkpt lat="43.56847" lon="2.00791">
        <ele>297.2</ele>
        <time>2022-03-08T13:02:13Z</time>
      </trkpt>
      <trkpt lat="43.56846" lon="2.0079">
        <ele>297.1</ele>
        <time>2022-03-08T13:02:14Z</time>
      </trkpt>
      <trkpt lat="43.56842" lon="2.0079">
        <ele>297.1</ele>
        <time>2022-03-08T13:02:16Z</time>
      </trkpt>
      <trkpt lat="43.56842" lon="2.0079">
        <ele>297.1</ele>
        <time>2022-03-08T13:02:17Z</time>
      </trkpt>
      <trkpt lat="43.5684" lon="2.0079">
        <ele>297.1</ele>
        <time>2022-03-08T13:02:18Z</time>
      </trkpt>
      <trkpt lat="43.56838" lon="2.0079">
        <ele>297.1</ele>
        <time>2022-03-08T13:02:19Z</time>
      </trkpt>
      <trkpt lat="43.56835" lon="2.0079">
        <ele>297.1</ele>
        <time>2022-03-08T13:02:20Z</time>
      </trkpt>
      <trkpt lat="43.56834" lon="2.0079">
        <ele>297.1</ele>
        <time>2022-03-08T13:02:21Z</time>
      </trkpt>
      <trkpt lat="43.56832" lon="2.0079">
        <ele>297.1</ele>
        <time>2022-03-08T13:02:22Z</time>
      </trkpt>
      <trkpt lat="43.56831" lon="2.0079">
        <ele>297.1</ele>
        <time>2022-03-08T13:02:23Z</time>
      </trkpt>
      <trkpt lat="43.56829" lon="2.00789">
        <ele>297.1</ele>
        <time>2022-03-08T13:02:24Z</time>
      </trkpt>
      <trkpt lat="43.56828" lon="2.00789">
        <ele>297.1</ele>
        <time>2022-03-08T13:02:25Z</time>
      </trkpt>
      <trkpt lat="43.56827" lon="2.0079">
        <ele>297.1</ele>
        <time>2022-03-08T13:02:26Z</time>
      </trkpt>
      <trkpt lat="43.56825" lon="2.0079">
        <ele>297.1</ele>
        <time>2022-03-08T13:02:27Z</time>
      </trkpt>
      <trkpt lat="43.56824" lon="2.0079">
        <ele>297.1</ele>
        <time>2022-03-08T13:02:28Z</time>
      </trkpt>
      <trkpt lat="43.56824" lon="2.0079">
        <ele>297.1</ele>
        <time>2022-03-08T13:02:29Z</time>
      </trkpt>
      <trkpt lat="43.56822" lon="2.00791">
        <ele>297.1</ele>
        <time>2022-03-08T13:02:31Z</time>
      </trkpt>
      <trkpt lat="43.56821" lon="2.00791">
        <ele>297.1</ele>
        <time>2022-03-08T13:02:32Z</time>
      </trkpt>
      <trkpt lat="43.5682" lon="2.0079">
        <ele>297.1</ele>
        <time>2022-03-08T13:02:33Z</time>
      </trkpt>
      <trkpt lat="43.56819" lon="2.00789">
        <ele>297.1</ele>
        <time>2022-03-08T13:02:34Z</time>
      </trkpt>
      <trkpt lat="43.56818" lon="2.00789">
        <ele>297.1</ele>
        <time>2022-03-08T13:02:35Z</time>
      </trkpt>
      <trkpt lat="43.56816" lon="2.0079">
        <ele>297.1</ele>
        <time>2022-03-08T13:02:37Z</time>
      </trkpt>
      <trkpt lat="43.56815" lon="2.0079">
        <ele>297.1</ele>
        <time>2022-03-08T13:02:38Z</time>
      </trkpt>
      <trkpt lat="43.56815" lon="2.00789">
        <ele>297.1</ele>
        <time>2022-03-08T13:02:39Z</time>
      </trkpt>
      <trkpt lat="43.56815" lon="2.00787">
        <ele>297.1</ele>
        <time>2022-03-08T13:02:40Z</time>
      </trkpt>
      <trkpt lat="43.56815" lon="2.00785">
        <ele>297.1</ele>
        <time>2022-03-08T13:02:41Z</time>
      </trkpt>
      <trkpt lat="43.56815" lon="2.00785">
        <ele>297.1</ele>
        <time>2022-03-08T13:02:43Z</time>
      </trkpt>
      <trkpt lat="43.56814" lon="2.00785">
        <ele>297.1</ele>
        <time>2022-03-08T13:02:44Z</time>
      </trkpt>
      <trkpt lat="43.56813" lon="2.00786">
        <ele>297.1</ele>
        <time>2022-03-08T13:02:45Z</time>
      </trkpt>
      <trkpt lat="43.56813" lon="2.00786">
        <ele>297.1</ele>
        <time>2022-03-08T13:02:46Z</time>
      </trkpt>
      <trkpt lat="43.56812" lon="2.00786">
        <ele>297.1</ele>
        <time>2022-03-08T13:02:47Z</time>
      </trkpt>
      <trkpt lat="43.56811" lon="2.00785">
        <ele>297.1</ele>
        <time>2022-03-08T13:02:48Z</time>
      </trkpt>
      <trkpt lat="43.5681" lon="2.00784">
        <ele>297.1</ele>
        <time>2022-03-08T13:02:49Z</time>
      </trkpt>
      <trkpt lat="43.56809" lon="2.00782">
        <ele>297.1</ele>
        <time>2022-03-08T13:02:50Z</time>
      </trkpt>
      <trkpt lat="43.56805" lon="2.00772">
        <ele>297.1</ele>
        <time>2022-03-08T13:02:51Z</time>
      </trkpt>
      <trkpt lat="43.56803" lon="2.00768">
        <ele>297</ele>
        <time>2022-03-08T13:02:53Z</time>
      </trkpt>
      <trkpt lat="43.56802" lon="2.00767">
        <ele>297</ele>
        <time>2022-03-08T13:02:54Z</time>
      </trkpt>
      <trkpt lat="43.56801" lon="2.00766">
        <ele>297</ele>
        <time>2022-03-08T13:02:55Z</time>
      </trkpt>
      <trkpt lat="43.568" lon="2.00765">
        <ele>297</ele>
        <time>2022-03-08T13:02:56Z</time>
      </trkpt>
      <trkpt lat="43.56799" lon="2.00765">
        <ele>297</ele>
        <time>2022-03-08T13:02:57Z</time>
      </trkpt>
      <trkpt lat="43.56798" lon="2.00765">
        <ele>297</ele>
        <time>2022-03-08T13:02:59Z</time>
      </trkpt>
      <trkpt lat="43.56797" lon="2.00765">
        <ele>297</ele>
        <time>2022-03-08T13:03:00Z</time>
      </trkpt>
      <trkpt lat="43.56796" lon="2.00765">
        <ele>297</ele>
        <time>2022-03-08T13:03:01Z</time>
      </trkpt>
      <trkpt lat="43.56796" lon="2.00765">
        <ele>297</ele>
        <time>2022-03-08T13:03:02Z</time>
      </trkpt>
      <trkpt lat="43.56795" lon="2.00765">
        <ele>297</ele>
        <time>2022-03-08T13:03:03Z</time>
      </trkpt>
      <trkpt lat="43.56793" lon="2.00765">
        <ele>297</ele>
        <time>2022-03-08T13:03:04Z</time>
      </trkpt>
      <trkpt lat="43.56792" lon="2.00764">
        <ele>296.9</ele>
        <time>2022-03-08T13:03:05Z</time>
      </trkpt>
      <trkpt lat="43.5679" lon="2.00764">
        <ele>296.9</ele>
        <time>2022-03-08T13:03:07Z</time>
      </trkpt>
      <trkpt lat="43.56789" lon="2.00763">
        <ele>296.9</ele>
        <time>2022-03-08T13:03:08Z</time>
      </trkpt>
      <trkpt lat="43.56786" lon="2.00762">
        <ele>296.9</ele>
        <time>2022-03-08T13:03:09Z</time>
      </trkpt>
      <trkpt lat="43.56785" lon="2.00762">
        <ele>296.8</ele>
        <time>2022-03-08T13:03:11Z</time>
      </trkpt>
      <trkpt lat="43.56783" lon="2.00761">
        <ele>296.8</ele>
        <time>2022-03-08T13:03:12Z</time>
      </trkpt>
      <trkpt lat="43.56782" lon="2.00761">
        <ele>296.8</ele>
        <time>2022-03-08T13:03:13Z</time>
      </trkpt>
      <trkpt lat="43.56779" lon="2.00761">
        <ele>296.8</ele>
        <time>2022-03-08T13:03:14Z</time>
      </trkpt>
      <trkpt lat="43.56777" lon="2.00761">
        <ele>296.7</ele>
        <time>2022-03-08T13:03:15Z</time>
      </trkpt>
      <trkpt lat="43.56776" lon="2.00761">
        <ele>296.7</ele>
        <time>2022-03-08T13:03:16Z</time>
      </trkpt>
      <trkpt lat="43.56774" lon="2.00761">
        <ele>296.7</ele>
        <time>2022-03-08T13:03:18Z</time>
      </trkpt>
      <trkpt lat="43.56772" lon="2.00762">
        <ele>296.6</ele>
        <time>2022-03-08T13:03:19Z</time>
      </trkpt>
      <trkpt lat="43.56771" lon="2.00762">
        <ele>296.6</ele>
        <time>2022-03-08T13:03:20Z</time>
      </trkpt>
      <trkpt lat="43.5677" lon="2.00761">
        <ele>296.6</ele>
        <time>2022-03-08T13:03:21Z</time>
      </trkpt>
      <trkpt lat="43.5677" lon="2.00761">
        <ele>296.6</ele>
        <time>2022-03-08T13:03:22Z</time>
      </trkpt>
      <trkpt lat="43.56769" lon="2.0076">
        <ele>296.6</ele>
        <time>2022-03-08T13:03:23Z</time>
      </trkpt>
      <trkpt lat="43.56768" lon="2.0076">
        <ele>296.6</ele>
        <time>2022-03-08T13:03:24Z</time>
      </trkpt>
      <trkpt lat="43.56766" lon="2.0076">
        <ele>296.6</ele>
        <time>2022-03-08T13:03:25Z</time>
      </trkpt>
      <trkpt lat="43.56765" lon="2.0076">
        <ele>296.6</ele>
        <time>2022-03-08T13:03:26Z</time>
      </trkpt>
      <trkpt lat="43.56764" lon="2.0076">
        <ele>296.5</ele>
        <time>2022-03-08T13:03:27Z</time>
      </trkpt>
      <trkpt lat="43.56763" lon="2.00759">
        <ele>296.5</ele>
        <time>2022-03-08T13:03:28Z</time>
      </trkpt>
      <trkpt lat="43.56761" lon="2.00759">
        <ele>296.5</ele>
        <time>2022-03-08T13:03:29Z</time>
      </trkpt>
      <trkpt lat="43.5676" lon="2.00759">
        <ele>296.5</ele>
        <time>2022-03-08T13:03:30Z</time>
      </trkpt>
      <trkpt lat="43.56758" lon="2.00759">
        <ele>296.5</ele>
        <time>2022-03-08T13:03:31Z</time>
      </trkpt>
      <trkpt lat="43.56756" lon="2.00758">
        <ele>296.5</ele>
        <time>2022-03-08T13:03:32Z</time>
      </trkpt>
      <trkpt lat="43.56754" lon="2.00758">
        <ele>296.4</ele>
        <time>2022-03-08T13:03:33Z</time>
      </trkpt>
      <trkpt lat="43.56753" lon="2.00758">
        <ele>296.4</ele>
        <time>2022-03-08T13:03:34Z</time>
      </trkpt>
      <trkpt lat="43.56752" lon="2.00758">
        <ele>296.4</ele>
        <time>2022-03-08T13:03:35Z</time>
      </trkpt>
      <trkpt lat="43.5675" lon="2.00757">
        <ele>296.4</ele>
        <time>2022-03-08T13:03:36Z</time>
      </trkpt>
      <trkpt lat="43.56749" lon="2.00757">
        <ele>296.4</ele>
        <time>2022-03-08T13:03:37Z</time>
      </trkpt>
      <trkpt lat="43.56747" lon="2.00757">
        <ele>296.4</ele>
        <time>2022-03-08T13:03:38Z</time>
      </trkpt>
      <trkpt lat="43.56745" lon="2.00757">
        <ele>296.3</ele>
        <time>2022-03-08T13:03:40Z</time>
      </trkpt>
      <trkpt lat="43.56744" lon="2.00757">
        <ele>296.3</ele>
        <time>2022-03-08T13:03:41Z</time>
      </trkpt>
      <trkpt lat="43.56743" lon="2.00756">
        <ele>296.3</ele>
        <time>2022-03-08T13:03:42Z</time>
      </trkpt>
      <trkpt lat="43.56742" lon="2.00754">
        <ele>296.3</ele>
        <time>2022-03-08T13:03:43Z</time>
      </trkpt>
      <trkpt lat="43.5674" lon="2.00753">
        <ele>296.3</ele>
        <time>2022-03-08T13:03:44Z</time>
      </trkpt>
      <trkpt lat="43.56739" lon="2.00752">
        <ele>296.2</ele>
        <time>2022-03-08T13:03:46Z</time>
      </trkpt>
      <trkpt lat="43.56738" lon="2.00752">
        <ele>296.2</ele>
        <time>2022-03-08T13:03:47Z</time>
      </trkpt>
      <trkpt lat="43.56736" lon="2.00752">
        <ele>296.2</ele>
        <time>2022-03-08T13:03:48Z</time>
      </trkpt>
      <trkpt lat="43.56735" lon="2.00752">
        <ele>296.2</ele>
        <time>2022-03-08T13:03:49Z</time>
      </trkpt>
      <trkpt lat="43.56734" lon="2.00752">
        <ele>296.2</ele>
        <time>2022-03-08T13:03:50Z</time>
      </trkpt>
      <trkpt lat="43.56733" lon="2.00753">
        <ele>296.2</ele>
        <time>2022-03-08T13:03:51Z</time>
      </trkpt>
      <trkpt lat="43.56732" lon="2.00753">
        <ele>296.2</ele>
        <time>2022-03-08T13:03:52Z</time>
      </trkpt>
      <trkpt lat="43.56731" lon="2.00753">
        <ele>296.1</ele>
        <time>2022-03-08T13:03:53Z</time>
      </trkpt>
      <trkpt lat="43.56729" lon="2.00752">
        <ele>296.1</ele>
        <time>2022-03-08T13:03:54Z</time>
      </trkpt>
      <trkpt lat="43.56728" lon="2.00752">
        <ele>296.1</ele>
        <time>2022-03-08T13:03:55Z</time>
      </trkpt>
      <trkpt lat="43.56727" lon="2.00752">
        <ele>296.1</ele>
        <time>2022-03-08T13:03:56Z</time>
      </trkpt>
      <trkpt lat="43.56726" lon="2.00751">
        <ele>296</ele>
        <time>2022-03-08T13:03:57Z</time>
      </trkpt>
      <trkpt lat="43.56725" lon="2.0075">
        <ele>296</ele>
        <time>2022-03-08T13:03:58Z</time>
      </trkpt>
      <trkpt lat="43.56721" lon="2.00748">
        <ele>295.9</ele>
        <time>2022-03-08T13:04:00Z</time>
      </trkpt>
      <trkpt lat="43.5672" lon="2.00748">
        <ele>295.9</ele>
        <time>2022-03-08T13:04:01Z</time>
      </trkpt>
      <trkpt lat="43.56719" lon="2.00747">
        <ele>295.9</ele>
        <time>2022-03-08T13:04:02Z</time>
      </trkpt>
      <trkpt lat="43.56718" lon="2.00746">
        <ele>295.9</ele>
        <time>2022-03-08T13:04:03Z</time>
      </trkpt>
      <trkpt lat="43.56717" lon="2.00745">
        <ele>295.9</ele>
        <time>2022-03-08T13:04:04Z</time>
      </trkpt>
      <trkpt lat="43.56716" lon="2.00743">
        <ele>295.8</ele>
        <time>2022-03-08T13:04:05Z</time>
      </trkpt>
      <trkpt lat="43.56715" lon="2.00743">
        <ele>295.8</ele>
        <time>2022-03-08T13:04:06Z</time>
      </trkpt>
      <trkpt lat="43.56714" lon="2.00742">
        <ele>295.8</ele>
        <time>2022-03-08T13:04:07Z</time>
      </trkpt>
      <trkpt lat="43.56713" lon="2.0074">
        <ele>295.8</ele>
        <time>2022-03-08T13:04:08Z</time>
      </trkpt>
      <trkpt lat="43.56713" lon="2.00738">
        <ele>295.7</ele>
        <time>2022-03-08T13:04:09Z</time>
      </trkpt>
      <trkpt lat="43.56712" lon="2.00736">
        <ele>295.7</ele>
        <time>2022-03-08T13:04:11Z</time>
      </trkpt>
      <trkpt lat="43.56711" lon="2.00735">
        <ele>295.7</ele>
        <time>2022-03-08T13:04:12Z</time>
      </trkpt>
      <trkpt lat="43.56711" lon="2.00734">
        <ele>295.7</ele>
        <time>2022-03-08T13:04:13Z</time>
      </trkpt>
      <trkpt lat="43.5671" lon="2.00733">
        <ele>295.7</ele>
        <time>2022-03-08T13:04:14Z</time>
      </trkpt>
      <trkpt lat="43.56709" lon="2.00732">
        <ele>295.6</ele>
        <time>2022-03-08T13:04:15Z</time>
      </trkpt>
      <trkpt lat="43.56709" lon="2.00731">
        <ele>295.6</ele>
        <time>2022-03-08T13:04:16Z</time>
      </trkpt>
      <trkpt lat="43.56708" lon="2.0073">
        <ele>295.6</ele>
        <time>2022-03-08T13:04:17Z</time>
      </trkpt>
      <trkpt lat="43.56708" lon="2.00729">
        <ele>295.6</ele>
        <time>2022-03-08T13:04:18Z</time>
      </trkpt>
      <trkpt lat="43.56707" lon="2.00728">
        <ele>295.6</ele>
        <time>2022-03-08T13:04:19Z</time>
      </trkpt>
      <trkpt lat="43.56706" lon="2.00727">
        <ele>295.6</ele>
        <time>2022-03-08T13:04:20Z</time>
      </trkpt>
      <trkpt lat="43.56705" lon="2.00725">
        <ele>295.5</ele>
        <time>2022-03-08T13:04:22Z</time>
      </trkpt>
      <trkpt lat="43.56704" lon="2.00725">
        <ele>295.5</ele>
        <time>2022-03-08T13:04:23Z</time>
      </trkpt>
      <trkpt lat="43.56703" lon="2.00724">
        <ele>295.5</ele>
        <time>2022-03-08T13:04:24Z</time>
      </trkpt>
      <trkpt lat="43.56703" lon="2.00723">
        <ele>295.5</ele>
        <time>2022-03-08T13:04:25Z</time>
      </trkpt>
      <trkpt lat="43.56703" lon="2.00722">
        <ele>295.5</ele>
        <time>2022-03-08T13:04:26Z</time>
      </trkpt>
      <trkpt lat="43.56702" lon="2.00722">
        <ele>295.5</ele>
        <time>2022-03-08T13:04:27Z</time>
      </trkpt>
      <trkpt lat="43.56702" lon="2.00721">
        <ele>295.5</ele>
        <time>2022-03-08T13:04:28Z</time>
      </trkpt>
      <trkpt lat="43.56701" lon="2.00721">
        <ele>295.4</ele>
        <time>2022-03-08T13:04:29Z</time>
      </trkpt>
      <trkpt lat="43.56701" lon="2.00721">
        <ele>295.4</ele>
        <time>2022-03-08T13:04:30Z</time>
      </trkpt>
      <trkpt lat="43.567" lon="2.0072">
        <ele>295.4</ele>
        <time>2022-03-08T13:04:32Z</time>
      </trkpt>
      <trkpt lat="43.567" lon="2.0072">
        <ele>295.4</ele>
        <time>2022-03-08T13:04:33Z</time>
      </trkpt>
      <trkpt lat="43.56699" lon="2.00721">
        <ele>295.4</ele>
        <time>2022-03-08T13:04:34Z</time>
      </trkpt>
      <trkpt lat="43.56699" lon="2.00722">
        <ele>295.4</ele>
        <time>2022-03-08T13:04:35Z</time>
      </trkpt>
      <trkpt lat="43.56699" lon="2.00723">
        <ele>295.4</ele>
        <time>2022-03-08T13:04:36Z</time>
      </trkpt>
      <trkpt lat="43.56699" lon="2.00724">
        <ele>295.4</ele>
        <time>2022-03-08T13:04:38Z</time>
      </trkpt>
      <trkpt lat="43.56699" lon="2.00724">
        <ele>295.4</ele>
        <time>2022-03-08T13:04:39Z</time>
      </trkpt>
      <trkpt lat="43.56698" lon="2.00725">
        <ele>295.4</ele>
        <time>2022-03-08T13:04:40Z</time>
      </trkpt>
      <trkpt lat="43.56698" lon="2.00725">
        <ele>295.4</ele>
        <time>2022-03-08T13:04:41Z</time>
      </trkpt>
      <trkpt lat="43.56697" lon="2.00726">
        <ele>295.3</ele>
        <time>2022-03-08T13:04:42Z</time>
      </trkpt>
      <trkpt lat="43.56696" lon="2.00726">
        <ele>295.3</ele>
        <time>2022-03-08T13:04:43Z</time>
      </trkpt>
      <trkpt lat="43.56697" lon="2.00727">
        <ele>295.3</ele>
        <time>2022-03-08T13:04:45Z</time>
      </trkpt>
      <trkpt lat="43.56697" lon="2.00727">
        <ele>295.3</ele>
        <time>2022-03-08T13:04:46Z</time>
      </trkpt>
      <trkpt lat="43.56697" lon="2.00728">
        <ele>295.3</ele>
        <time>2022-03-08T13:04:47Z</time>
      </trkpt>
      <trkpt lat="43.56698" lon="2.00729">
        <ele>295.3</ele>
        <time>2022-03-08T13:04:48Z</time>
      </trkpt>
      <trkpt lat="43.56698" lon="2.00732">
        <ele>295.3</ele>
        <time>2022-03-08T13:04:49Z</time>
      </trkpt>
      <trkpt lat="43.56697" lon="2.00733">
        <ele>295.2</ele>
        <time>2022-03-08T13:04:51Z</time>
      </trkpt>
      <trkpt lat="43.56696" lon="2.00734">
        <ele>295.2</ele>
        <time>2022-03-08T13:04:52Z</time>
      </trkpt>
      <trkpt lat="43.56695" lon="2.00735">
        <ele>295.2</ele>
        <time>2022-03-08T13:04:53Z</time>
      </trkpt>
      <trkpt lat="43.56692" lon="2.00734">
        <ele>295.2</ele>
        <time>2022-03-08T13:04:54Z</time>
      </trkpt>
      <trkpt lat="43.56689" lon="2.00735">
        <ele>295.1</ele>
        <time>2022-03-08T13:04:56Z</time>
      </trkpt>
      <trkpt lat="43.56687" lon="2.00736">
        <ele>295.1</ele>
        <time>2022-03-08T13:04:57Z</time>
      </trkpt>
      <trkpt lat="43.56685" lon="2.00737">
        <ele>295.1</ele>
        <time>2022-03-08T13:04:58Z</time>
      </trkpt>
      <trkpt lat="43.56683" lon="2.00737">
        <ele>295</ele>
        <time>2022-03-08T13:04:59Z</time>
      </trkpt>
      <trkpt lat="43.56682" lon="2.00737">
        <ele>295</ele>
        <time>2022-03-08T13:05:00Z</time>
      </trkpt>
      <trkpt lat="43.56679" lon="2.00736">
        <ele>295</ele>
        <time>2022-03-08T13:05:01Z</time>
      </trkpt>
      <trkpt lat="43.56678" lon="2.00736">
        <ele>295</ele>
        <time>2022-03-08T13:05:02Z</time>
      </trkpt>
      <trkpt lat="43.56674" lon="2.00734">
        <ele>294.9</ele>
        <time>2022-03-08T13:05:04Z</time>
      </trkpt>
      <trkpt lat="43.56673" lon="2.00733">
        <ele>294.9</ele>
        <time>2022-03-08T13:05:05Z</time>
      </trkpt>
      <trkpt lat="43.5667" lon="2.0073">
        <ele>294.8</ele>
        <time>2022-03-08T13:05:06Z</time>
      </trkpt>
      <trkpt lat="43.56667" lon="2.00727">
        <ele>294.8</ele>
        <time>2022-03-08T13:05:07Z</time>
      </trkpt>
      <trkpt lat="43.56664" lon="2.00724">
        <ele>294.7</ele>
        <time>2022-03-08T13:05:08Z</time>
      </trkpt>
      <trkpt lat="43.56661" lon="2.00722">
        <ele>294.7</ele>
        <time>2022-03-08T13:05:09Z</time>
      </trkpt>
      <trkpt lat="43.56659" lon="2.00719">
        <ele>294.6</ele>
        <time>2022-03-08T13:05:10Z</time>
      </trkpt>
      <trkpt lat="43.56655" lon="2.00717">
        <ele>294.6</ele>
        <time>2022-03-08T13:05:11Z</time>
      </trkpt>
      <trkpt lat="43.56653" lon="2.00716">
        <ele>294.5</ele>
        <time>2022-03-08T13:05:12Z</time>
      </trkpt>
      <trkpt lat="43.5665" lon="2.00716">
        <ele>294.5</ele>
        <time>2022-03-08T13:05:13Z</time>
      </trkpt>
      <trkpt lat="43.56648" lon="2.00715">
        <ele>294.5</ele>
        <time>2022-03-08T13:05:14Z</time>
      </trkpt>
      <trkpt lat="43.56647" lon="2.00713">
        <ele>294.4</ele>
        <time>2022-03-08T13:05:15Z</time>
      </trkpt>
      <trkpt lat="43.56646" lon="2.00712">
        <ele>294.4</ele>
        <time>2022-03-08T13:05:16Z</time>
      </trkpt>
      <trkpt lat="43.56645" lon="2.00711">
        <ele>294.4</ele>
        <time>2022-03-08T13:05:17Z</time>
      </trkpt>
      <trkpt lat="43.56643" lon="2.00709">
        <ele>294.4</ele>
        <time>2022-03-08T13:05:18Z</time>
      </trkpt>
      <trkpt lat="43.56642" lon="2.00708">
        <ele>294.4</ele>
        <time>2022-03-08T13:05:19Z</time>
      </trkpt>
      <trkpt lat="43.5664" lon="2.00707">
        <ele>294.4</ele>
        <time>2022-03-08T13:05:20Z</time>
      </trkpt>
      <trkpt lat="43.56638" lon="2.00706">
        <ele>294.3</ele>
        <time>2022-03-08T13:05:22Z</time>
      </trkpt>
      <trkpt lat="43.56635" lon="2.00704">
        <ele>294.3</ele>
        <time>2022-03-08T13:05:23Z</time>
      </trkpt>
      <trkpt lat="43.56634" lon="2.00704">
        <ele>294.3</ele>
        <time>2022-03-08T13:05:24Z</time>
      </trkpt>
      <trkpt lat="43.56631" lon="2.00702">
        <ele>294.2</ele>
        <time>2022-03-08T13:05:25Z</time>
      </trkpt>
      <trkpt lat="43.56629" lon="2.00701">
        <ele>294.2</ele>
        <time>2022-03-08T13:05:26Z</time>
      </trkpt>
      <trkpt lat="43.56626" lon="2.00698">
        <ele>294.2</ele>
        <time>2022-03-08T13:05:28Z</time>
      </trkpt>
      <trkpt lat="43.56625" lon="2.00698">
        <ele>294.2</ele>
        <time>2022-03-08T13:05:29Z</time>
      </trkpt>
      <trkpt lat="43.56624" lon="2.00697">
        <ele>294.1</ele>
        <time>2022-03-08T13:05:30Z</time>
      </trkpt>
      <trkpt lat="43.56623" lon="2.00696">
        <ele>294.1</ele>
        <time>2022-03-08T13:05:31Z</time>
      </trkpt>
      <trkpt lat="43.56621" lon="2.00694">
        <ele>294.1</ele>
        <time>2022-03-08T13:05:33Z</time>
      </trkpt>
      <trkpt lat="43.56621" lon="2.00693">
        <ele>294.1</ele>
        <time>2022-03-08T13:05:34Z</time>
      </trkpt>
      <trkpt lat="43.5662" lon="2.00693">
        <ele>294.1</ele>
        <time>2022-03-08T13:05:35Z</time>
      </trkpt>
      <trkpt lat="43.56619" lon="2.00692">
        <ele>294.1</ele>
        <time>2022-03-08T13:05:36Z</time>
      </trkpt>
      <trkpt lat="43.56619" lon="2.00691">
        <ele>294.1</ele>
        <time>2022-03-08T13:05:37Z</time>
      </trkpt>
      <trkpt lat="43.56618" lon="2.0069">
        <ele>294</ele>
        <time>2022-03-08T13:05:38Z</time>
      </trkpt>
      <trkpt lat="43.56618" lon="2.00688">
        <ele>294</ele>
        <time>2022-03-08T13:05:39Z</time>
      </trkpt>
      <trkpt lat="43.56617" lon="2.00687">
        <ele>294</ele>
        <time>2022-03-08T13:05:41Z</time>
      </trkpt>
      <trkpt lat="43.56617" lon="2.00686">
        <ele>294</ele>
        <time>2022-03-08T13:05:42Z</time>
      </trkpt>
      <trkpt lat="43.56615" lon="2.00684">
        <ele>294</ele>
        <time>2022-03-08T13:05:43Z</time>
      </trkpt>
      <trkpt lat="43.56615" lon="2.00683">
        <ele>293.9</ele>
        <time>2022-03-08T13:05:44Z</time>
      </trkpt>
      <trkpt lat="43.56614" lon="2.00681">
        <ele>293.9</ele>
        <time>2022-03-08T13:05:46Z</time>
      </trkpt>
      <trkpt lat="43.56613" lon="2.00681">
        <ele>293.9</ele>
        <time>2022-03-08T13:05:47Z</time>
      </trkpt>
      <trkpt lat="43.56613" lon="2.0068">
        <ele>293.9</ele>
        <time>2022-03-08T13:05:48Z</time>
      </trkpt>
      <trkpt lat="43.56612" lon="2.00679">
        <ele>293.8</ele>
        <time>2022-03-08T13:05:49Z</time>
      </trkpt>
      <trkpt lat="43.56611" lon="2.00679">
        <ele>293.8</ele>
        <time>2022-03-08T13:05:50Z</time>
      </trkpt>
      <trkpt lat="43.5661" lon="2.00679">
        <ele>293.8</ele>
        <time>2022-03-08T13:05:51Z</time>
      </trkpt>
      <trkpt lat="43.5661" lon="2.00679">
        <ele>293.8</ele>
        <time>2022-03-08T13:05:52Z</time>
      </trkpt>
      <trkpt lat="43.56609" lon="2.00678">
        <ele>293.8</ele>
        <time>2022-03-08T13:05:53Z</time>
      </trkpt>
      <trkpt lat="43.56607" lon="2.00677">
        <ele>293.7</ele>
        <time>2022-03-08T13:05:54Z</time>
      </trkpt>
      <trkpt lat="43.56605" lon="2.00675">
        <ele>293.6</ele>
        <time>2022-03-08T13:05:56Z</time>
      </trkpt>
      <trkpt lat="43.56601" lon="2.00674">
        <ele>293.6</ele>
        <time>2022-03-08T13:05:57Z</time>
      </trkpt>
      <trkpt lat="43.56598" lon="2.00673">
        <ele>293.5</ele>
        <time>2022-03-08T13:05:58Z</time>
      </trkpt>
      <trkpt lat="43.56591" lon="2.00672">
        <ele>293.4</ele>
        <time>2022-03-08T13:05:59Z</time>
      </trkpt>
      <trkpt lat="43.56586" lon="2.00671">
        <ele>293.2</ele>
        <time>2022-03-08T13:06:01Z</time>
      </trkpt>
      <trkpt lat="43.56583" lon="2.0067">
        <ele>293.2</ele>
        <time>2022-03-08T13:06:02Z</time>
      </trkpt>
      <trkpt lat="43.56582" lon="2.0067">
        <ele>293.2</ele>
        <time>2022-03-08T13:06:03Z</time>
      </trkpt>
      <trkpt lat="43.5658" lon="2.00671">
        <ele>293.1</ele>
        <time>2022-03-08T13:06:04Z</time>
      </trkpt>
      <trkpt lat="43.56579" lon="2.00671">
        <ele>293.1</ele>
        <time>2022-03-08T13:06:06Z</time>
      </trkpt>
      <trkpt lat="43.56577" lon="2.00671">
        <ele>293.1</ele>
        <time>2022-03-08T13:06:07Z</time>
      </trkpt>
      <trkpt lat="43.56576" lon="2.00671">
        <ele>293.1</ele>
        <time>2022-03-08T13:06:08Z</time>
      </trkpt>
      <trkpt lat="43.56576" lon="2.00671">
        <ele>293</ele>
        <time>2022-03-08T13:06:09Z</time>
      </trkpt>
      <trkpt lat="43.56575" lon="2.00671">
        <ele>293</ele>
        <time>2022-03-08T13:06:10Z</time>
      </trkpt>
      <trkpt lat="43.56575" lon="2.00671">
        <ele>293</ele>
        <time>2022-03-08T13:06:11Z</time>
      </trkpt>
      <trkpt lat="43.56574" lon="2.00671">
        <ele>293</ele>
        <time>2022-03-08T13:06:12Z</time>
      </trkpt>
      <trkpt lat="43.56573" lon="2.00669">
        <ele>293</ele>
        <time>2022-03-08T13:06:13Z</time>
      </trkpt>
      <trkpt lat="43.56573" lon="2.00669">
        <ele>293</ele>
        <time>2022-03-08T13:06:14Z</time>
      </trkpt>
      <trkpt lat="43.56572" lon="2.00668">
        <ele>293</ele>
        <time>2022-03-08T13:06:15Z</time>
      </trkpt>
      <trkpt lat="43.56572" lon="2.00667">
        <ele>293</ele>
        <time>2022-03-08T13:06:16Z</time>
      </trkpt>
      <trkpt lat="43.56571" lon="2.00667">
        <ele>293</ele>
        <time>2022-03-08T13:06:17Z</time>
      </trkpt>
      <trkpt lat="43.56571" lon="2.00666">
        <ele>292.9</ele>
        <time>2022-03-08T13:06:18Z</time>
      </trkpt>
      <trkpt lat="43.5657" lon="2.00664">
        <ele>292.9</ele>
        <time>2022-03-08T13:06:19Z</time>
      </trkpt>
      <trkpt lat="43.56569" lon="2.00664">
        <ele>292.9</ele>
        <time>2022-03-08T13:06:20Z</time>
      </trkpt>
      <trkpt lat="43.56566" lon="2.00663">
        <ele>292.9</ele>
        <time>2022-03-08T13:06:21Z</time>
      </trkpt>
      <trkpt lat="43.56565" lon="2.00663">
        <ele>292.9</ele>
        <time>2022-03-08T13:06:22Z</time>
      </trkpt>
      <trkpt lat="43.56562" lon="2.00663">
        <ele>292.8</ele>
        <time>2022-03-08T13:06:23Z</time>
      </trkpt>
      <trkpt lat="43.5656" lon="2.00663">
        <ele>292.8</ele>
        <time>2022-03-08T13:06:24Z</time>
      </trkpt>
      <trkpt lat="43.56557" lon="2.00664">
        <ele>292.8</ele>
        <time>2022-03-08T13:06:25Z</time>
      </trkpt>
      <trkpt lat="43.56553" lon="2.00665">
        <ele>292.8</ele>
        <time>2022-03-08T13:06:26Z</time>
      </trkpt>
      <trkpt lat="43.56552" lon="2.00666">
        <ele>292.8</ele>
        <time>2022-03-08T13:06:27Z</time>
      </trkpt>
      <trkpt lat="43.56549" lon="2.00668">
        <ele>292.8</ele>
        <time>2022-03-08T13:06:28Z</time>
      </trkpt>
      <trkpt lat="43.56547" lon="2.0067">
        <ele>292.8</ele>
        <time>2022-03-08T13:06:30Z</time>
      </trkpt>
      <trkpt lat="43.56546" lon="2.00671">
        <ele>292.9</ele>
        <time>2022-03-08T13:06:31Z</time>
      </trkpt>
      <trkpt lat="43.56545" lon="2.00671">
        <ele>292.9</ele>
        <time>2022-03-08T13:06:32Z</time>
      </trkpt>
      <trkpt lat="43.56545" lon="2.00673">
        <ele>292.9</ele>
        <time>2022-03-08T13:06:33Z</time>
      </trkpt>
      <trkpt lat="43.56545" lon="2.00674">
        <ele>292.9</ele>
        <time>2022-03-08T13:06:34Z</time>
      </trkpt>
      <trkpt lat="43.56545" lon="2.00675">
        <ele>292.9</ele>
        <time>2022-03-08T13:06:35Z</time>
      </trkpt>
      <trkpt lat="43.56544" lon="2.00675">
        <ele>292.9</ele>
        <time>2022-03-08T13:06:37Z</time>
      </trkpt>
      <trkpt lat="43.56543" lon="2.00676">
        <ele>292.9</ele>
        <time>2022-03-08T13:06:38Z</time>
      </trkpt>
      <trkpt lat="43.56542" lon="2.00676">
        <ele>292.9</ele>
        <time>2022-03-08T13:06:39Z</time>
      </trkpt>
      <trkpt lat="43.56542" lon="2.00677">
        <ele>292.9</ele>
        <time>2022-03-08T13:06:40Z</time>
      </trkpt>
      <trkpt lat="43.56541" lon="2.00677">
        <ele>292.9</ele>
        <time>2022-03-08T13:06:41Z</time>
      </trkpt>
      <trkpt lat="43.56541" lon="2.00678">
        <ele>292.9</ele>
        <time>2022-03-08T13:06:42Z</time>
      </trkpt>
      <trkpt lat="43.56541" lon="2.00679">
        <ele>292.9</ele>
        <time>2022-03-08T13:06:43Z</time>
      </trkpt>
      <trkpt lat="43.56541" lon="2.0068">
        <ele>292.9</ele>
        <time>2022-03-08T13:06:44Z</time>
      </trkpt>
      <trkpt lat="43.56541" lon="2.0068">
        <ele>292.9</ele>
        <time>2022-03-08T13:06:45Z</time>
      </trkpt>
      <trkpt lat="43.56541" lon="2.00681">
        <ele>292.9</ele>
        <time>2022-03-08T13:06:46Z</time>
      </trkpt>
      <trkpt lat="43.56541" lon="2.00681">
        <ele>292.9</ele>
        <time>2022-03-08T13:06:47Z</time>
      </trkpt>
      <trkpt lat="43.56541" lon="2.00682">
        <ele>292.9</ele>
        <time>2022-03-08T13:06:48Z</time>
      </trkpt>
      <trkpt lat="43.56541" lon="2.00682">
        <ele>293</ele>
        <time>2022-03-08T13:06:49Z</time>
      </trkpt>
      <trkpt lat="43.56541" lon="2.00682">
        <ele>293</ele>
        <time>2022-03-08T13:06:50Z</time>
      </trkpt>
      <trkpt lat="43.56541" lon="2.00682">
        <ele>293</ele>
        <time>2022-03-08T13:06:51Z</time>
      </trkpt>
      <trkpt lat="43.56541" lon="2.00682">
        <ele>293</ele>
        <time>2022-03-08T13:06:52Z</time>
      </trkpt>
      <trkpt lat="43.56541" lon="2.00683">
        <ele>293</ele>
        <time>2022-03-08T13:06:53Z</time>
      </trkpt>
      <trkpt lat="43.56542" lon="2.00683">
        <ele>293</ele>
        <time>2022-03-08T13:06:54Z</time>
      </trkpt>
      <trkpt lat="43.56542" lon="2.00683">
        <ele>293</ele>
        <time>2022-03-08T13:06:55Z</time>
      </trkpt>
      <trkpt lat="43.56542" lon="2.00683">
        <ele>293</ele>
        <time>2022-03-08T13:06:56Z</time>
      </trkpt>
      <trkpt lat="43.56542" lon="2.00683">
        <ele>293</ele>
        <time>2022-03-08T13:06:57Z</time>
      </trkpt>
      <trkpt lat="43.56542" lon="2.00683">
        <ele>293</ele>
        <time>2022-03-08T13:06:59Z</time>
      </trkpt>
      <trkpt lat="43.56542" lon="2.00683">
        <ele>293</ele>
        <time>2022-03-08T13:07:00Z</time>
      </trkpt>
      <trkpt lat="43.56543" lon="2.00682">
        <ele>293</ele>
        <time>2022-03-08T13:07:01Z</time>
      </trkpt>
      <trkpt lat="43.56543" lon="2.00682">
        <ele>293</ele>
        <time>2022-03-08T13:07:02Z</time>
      </trkpt>
      <trkpt lat="43.56543" lon="2.00682">
        <ele>293</ele>
        <time>2022-03-08T13:07:03Z</time>
      </trkpt>
      <trkpt lat="43.56543" lon="2.00682">
        <ele>293</ele>
        <time>2022-03-08T13:07:04Z</time>
      </trkpt>
      <trkpt lat="43.56542" lon="2.00683">
        <ele>293</ele>
        <time>2022-03-08T13:07:05Z</time>
      </trkpt>
      <trkpt lat="43.56542" lon="2.00683">
        <ele>293</ele>
        <time>2022-03-08T13:07:06Z</time>
      </trkpt>
      <trkpt lat="43.56541" lon="2.00683">
        <ele>293</ele>
        <time>2022-03-08T13:07:07Z</time>
      </trkpt>
      <trkpt lat="43.56541" lon="2.00683">
        <ele>293</ele>
        <time>2022-03-08T13:07:08Z</time>
      </trkpt>
      <trkpt lat="43.5654" lon="2.00682">
        <ele>293</ele>
        <time>2022-03-08T13:07:09Z</time>
      </trkpt>
      <trkpt lat="43.5654" lon="2.00682">
        <ele>293</ele>
        <time>2022-03-08T13:07:10Z</time>
      </trkpt>
      <trkpt lat="43.56539" lon="2.00681">
        <ele>293.1</ele>
        <time>2022-03-08T13:07:11Z</time>
      </trkpt>
      <trkpt lat="43.56539" lon="2.0068">
        <ele>293.1</ele>
        <time>2022-03-08T13:07:12Z</time>
      </trkpt>
      <trkpt lat="43.56538" lon="2.00678">
        <ele>293.1</ele>
        <time>2022-03-08T13:07:14Z</time>
      </trkpt>
      <trkpt lat="43.56538" lon="2.00677">
        <ele>293.1</ele>
        <time>2022-03-08T13:07:15Z</time>
      </trkpt>
      <trkpt lat="43.56538" lon="2.00675">
        <ele>293.1</ele>
        <time>2022-03-08T13:07:16Z</time>
      </trkpt>
      <trkpt lat="43.56538" lon="2.00674">
        <ele>293.2</ele>
        <time>2022-03-08T13:07:17Z</time>
      </trkpt>
      <trkpt lat="43.56538" lon="2.0067">
        <ele>293.3</ele>
        <time>2022-03-08T13:07:18Z</time>
      </trkpt>
      <trkpt lat="43.56538" lon="2.00669">
        <ele>293.3</ele>
        <time>2022-03-08T13:07:19Z</time>
      </trkpt>
      <trkpt lat="43.56537" lon="2.00665">
        <ele>293.4</ele>
        <time>2022-03-08T13:07:21Z</time>
      </trkpt>
      <trkpt lat="43.56537" lon="2.00664">
        <ele>293.5</ele>
        <time>2022-03-08T13:07:22Z</time>
      </trkpt>
      <trkpt lat="43.56537" lon="2.00662">
        <ele>293.5</ele>
        <time>2022-03-08T13:07:23Z</time>
      </trkpt>
      <trkpt lat="43.56536" lon="2.00659">
        <ele>293.6</ele>
        <time>2022-03-08T13:07:24Z</time>
      </trkpt>
      <trkpt lat="43.56536" lon="2.00655">
        <ele>293.7</ele>
        <time>2022-03-08T13:07:25Z</time>
      </trkpt>
      <trkpt lat="43.56536" lon="2.00654">
        <ele>293.8</ele>
        <time>2022-03-08T13:07:26Z</time>
      </trkpt>
      <trkpt lat="43.56536" lon="2.00651">
        <ele>293.8</ele>
        <time>2022-03-08T13:07:27Z</time>
      </trkpt>
      <trkpt lat="43.56535" lon="2.00649">
        <ele>293.9</ele>
        <time>2022-03-08T13:07:28Z</time>
      </trkpt>
      <trkpt lat="43.56534" lon="2.00648">
        <ele>293.9</ele>
        <time>2022-03-08T13:07:29Z</time>
      </trkpt>
      <trkpt lat="43.56534" lon="2.00646">
        <ele>294</ele>
        <time>2022-03-08T13:07:30Z</time>
      </trkpt>
      <trkpt lat="43.56533" lon="2.00645">
        <ele>294</ele>
        <time>2022-03-08T13:07:31Z</time>
      </trkpt>
      <trkpt lat="43.56532" lon="2.00644">
        <ele>294.1</ele>
        <time>2022-03-08T13:07:32Z</time>
      </trkpt>
      <trkpt lat="43.56532" lon="2.00643">
        <ele>294.1</ele>
        <time>2022-03-08T13:07:33Z</time>
      </trkpt>
      <trkpt lat="43.56531" lon="2.00642">
        <ele>294.2</ele>
        <time>2022-03-08T13:07:34Z</time>
      </trkpt>
      <trkpt lat="43.5653" lon="2.0064">
        <ele>294.2</ele>
        <time>2022-03-08T13:07:35Z</time>
      </trkpt>
      <trkpt lat="43.56529" lon="2.00639">
        <ele>294.3</ele>
        <time>2022-03-08T13:07:36Z</time>
      </trkpt>
      <trkpt lat="43.56528" lon="2.00638">
        <ele>294.3</ele>
        <time>2022-03-08T13:07:37Z</time>
      </trkpt>
      <trkpt lat="43.56526" lon="2.00637">
        <ele>294.4</ele>
        <time>2022-03-08T13:07:39Z</time>
      </trkpt>
      <trkpt lat="43.56525" lon="2.00636">
        <ele>294.4</ele>
        <time>2022-03-08T13:07:40Z</time>
      </trkpt>
      <trkpt lat="43.56524" lon="2.00636">
        <ele>294.4</ele>
        <time>2022-03-08T13:07:41Z</time>
      </trkpt>
      <trkpt lat="43.56523" lon="2.00635">
        <ele>294.4</ele>
        <time>2022-03-08T13:07:42Z</time>
      </trkpt>
      <trkpt lat="43.56521" lon="2.00634">
        <ele>294.4</ele>
        <time>2022-03-08T13:07:43Z</time>
      </trkpt>
      <trkpt lat="43.5652" lon="2.00634">
        <ele>294.5</ele>
        <time>2022-03-08T13:07:44Z</time>
      </trkpt>
      <trkpt lat="43.56518" lon="2.00634">
        <ele>294.5</ele>
        <time>2022-03-08T13:07:45Z</time>
      </trkpt>
      <trkpt lat="43.56517" lon="2.00634">
        <ele>294.5</ele>
        <time>2022-03-08T13:07:46Z</time>
      </trkpt>
      <trkpt lat="43.56516" lon="2.00634">
        <ele>294.5</ele>
        <time>2022-03-08T13:07:47Z</time>
      </trkpt>
      <trkpt lat="43.56515" lon="2.00633">
        <ele>294.5</ele>
        <time>2022-03-08T13:07:48Z</time>
      </trkpt>
      <trkpt lat="43.56514" lon="2.00632">
        <ele>294.5</ele>
        <time>2022-03-08T13:07:49Z</time>
      </trkpt>
      <trkpt lat="43.56513" lon="2.00631">
        <ele>294.6</ele>
        <time>2022-03-08T13:07:50Z</time>
      </trkpt>
      <trkpt lat="43.56512" lon="2.0063">
        <ele>294.6</ele>
        <time>2022-03-08T13:07:52Z</time>
      </trkpt>
      <trkpt lat="43.56511" lon="2.00629">
        <ele>294.6</ele>
        <time>2022-03-08T13:07:53Z</time>
      </trkpt>
      <trkpt lat="43.56509" lon="2.00628">
        <ele>294.6</ele>
        <time>2022-03-08T13:07:54Z</time>
      </trkpt>
      <trkpt lat="43.56508" lon="2.00627">
        <ele>294.6</ele>
        <time>2022-03-08T13:07:55Z</time>
      </trkpt>
      <trkpt lat="43.56507" lon="2.00626">
        <ele>294.7</ele>
        <time>2022-03-08T13:07:56Z</time>
      </trkpt>
      <trkpt lat="43.56505" lon="2.00625">
        <ele>294.7</ele>
        <time>2022-03-08T13:07:57Z</time>
      </trkpt>
      <trkpt lat="43.56504" lon="2.00624">
        <ele>294.7</ele>
        <time>2022-03-08T13:07:58Z</time>
      </trkpt>
      <trkpt lat="43.56503" lon="2.00623">
        <ele>294.7</ele>
        <time>2022-03-08T13:07:59Z</time>
      </trkpt>
      <trkpt lat="43.56502" lon="2.00621">
        <ele>294.8</ele>
        <time>2022-03-08T13:08:00Z</time>
      </trkpt>
      <trkpt lat="43.565" lon="2.00618">
        <ele>294.8</ele>
        <time>2022-03-08T13:08:01Z</time>
      </trkpt>
      <trkpt lat="43.56499" lon="2.00618">
        <ele>294.8</ele>
        <time>2022-03-08T13:08:02Z</time>
      </trkpt>
      <trkpt lat="43.56498" lon="2.00616">
        <ele>294.9</ele>
        <time>2022-03-08T13:08:03Z</time>
      </trkpt>
      <trkpt lat="43.56497" lon="2.00615">
        <ele>294.9</ele>
        <time>2022-03-08T13:08:04Z</time>
      </trkpt>
      <trkpt lat="43.56495" lon="2.00613">
        <ele>295</ele>
        <time>2022-03-08T13:08:06Z</time>
      </trkpt>
      <trkpt lat="43.56493" lon="2.00611">
        <ele>295</ele>
        <time>2022-03-08T13:08:08Z</time>
      </trkpt>
      <trkpt lat="43.56492" lon="2.0061">
        <ele>295</ele>
        <time>2022-03-08T13:08:09Z</time>
      </trkpt>
      <trkpt lat="43.56491" lon="2.00608">
        <ele>295.1</ele>
        <time>2022-03-08T13:08:10Z</time>
      </trkpt>
      <trkpt lat="43.5649" lon="2.00607">
        <ele>295.1</ele>
        <time>2022-03-08T13:08:11Z</time>
      </trkpt>
      <trkpt lat="43.56488" lon="2.00607">
        <ele>295.2</ele>
        <time>2022-03-08T13:08:12Z</time>
      </trkpt>
      <trkpt lat="43.56486" lon="2.00606">
        <ele>295.2</ele>
        <time>2022-03-08T13:08:13Z</time>
      </trkpt>
      <trkpt lat="43.56485" lon="2.00606">
        <ele>295.3</ele>
        <time>2022-03-08T13:08:14Z</time>
      </trkpt>
      <trkpt lat="43.56483" lon="2.00606">
        <ele>295.3</ele>
        <time>2022-03-08T13:08:15Z</time>
      </trkpt>
      <trkpt lat="43.56482" lon="2.00605">
        <ele>295.3</ele>
        <time>2022-03-08T13:08:16Z</time>
      </trkpt>
      <trkpt lat="43.56481" lon="2.00605">
        <ele>295.4</ele>
        <time>2022-03-08T13:08:17Z</time>
      </trkpt>
      <trkpt lat="43.5648" lon="2.00605">
        <ele>295.4</ele>
        <time>2022-03-08T13:08:18Z</time>
      </trkpt>
      <trkpt lat="43.56479" lon="2.00605">
        <ele>295.4</ele>
        <time>2022-03-08T13:08:19Z</time>
      </trkpt>
      <trkpt lat="43.56477" lon="2.00605">
        <ele>295.5</ele>
        <time>2022-03-08T13:08:20Z</time>
      </trkpt>
      <trkpt lat="43.56476" lon="2.00604">
        <ele>295.5</ele>
        <time>2022-03-08T13:08:21Z</time>
      </trkpt>
      <trkpt lat="43.56475" lon="2.00604">
        <ele>295.5</ele>
        <time>2022-03-08T13:08:22Z</time>
      </trkpt>
      <trkpt lat="43.56474" lon="2.00603">
        <ele>295.5</ele>
        <time>2022-03-08T13:08:23Z</time>
      </trkpt>
      <trkpt lat="43.56473" lon="2.00603">
        <ele>295.6</ele>
        <time>2022-03-08T13:08:24Z</time>
      </trkpt>
      <trkpt lat="43.56471" lon="2.00601">
        <ele>295.6</ele>
        <time>2022-03-08T13:08:26Z</time>
      </trkpt>
      <trkpt lat="43.5647" lon="2.00601">
        <ele>295.7</ele>
        <time>2022-03-08T13:08:27Z</time>
      </trkpt>
      <trkpt lat="43.5647" lon="2.00601">
        <ele>295.7</ele>
        <time>2022-03-08T13:08:28Z</time>
      </trkpt>
      <trkpt lat="43.56472" lon="2.00602">
        <ele>295.7</ele>
        <time>2022-03-08T13:08:29Z</time>
      </trkpt>
      <trkpt lat="43.56474" lon="2.00603">
        <ele>295.8</ele>
        <time>2022-03-08T13:08:30Z</time>
      </trkpt>
      <trkpt lat="43.56475" lon="2.00603">
        <ele>295.8</ele>
        <time>2022-03-08T13:08:31Z</time>
      </trkpt>
      <trkpt lat="43.56475" lon="2.00603">
        <ele>295.8</ele>
        <time>2022-03-08T13:08:33Z</time>
      </trkpt>
      <trkpt lat="43.56475" lon="2.00602">
        <ele>295.8</ele>
        <time>2022-03-08T13:08:34Z</time>
      </trkpt>
      <trkpt lat="43.56474" lon="2.00602">
        <ele>295.8</ele>
        <time>2022-03-08T13:08:35Z</time>
      </trkpt>
      <trkpt lat="43.56473" lon="2.00601">
        <ele>295.9</ele>
        <time>2022-03-08T13:08:36Z</time>
      </trkpt>
      <trkpt lat="43.56472" lon="2.00601">
        <ele>295.9</ele>
        <time>2022-03-08T13:08:38Z</time>
      </trkpt>
      <trkpt lat="43.56472" lon="2.006">
        <ele>295.9</ele>
        <time>2022-03-08T13:08:39Z</time>
      </trkpt>
      <trkpt lat="43.56471" lon="2.006">
        <ele>295.9</ele>
        <time>2022-03-08T13:08:40Z</time>
      </trkpt>
      <trkpt lat="43.5647" lon="2.00599">
        <ele>296</ele>
        <time>2022-03-08T13:08:41Z</time>
      </trkpt>
      <trkpt lat="43.5647" lon="2.00598">
        <ele>296</ele>
        <time>2022-03-08T13:08:42Z</time>
      </trkpt>
      <trkpt lat="43.5647" lon="2.00597">
        <ele>296</ele>
        <time>2022-03-08T13:08:44Z</time>
      </trkpt>
      <trkpt lat="43.5647" lon="2.00595">
        <ele>296</ele>
        <time>2022-03-08T13:08:45Z</time>
      </trkpt>
      <trkpt lat="43.56471" lon="2.00594">
        <ele>296.1</ele>
        <time>2022-03-08T13:08:46Z</time>
      </trkpt>
      <trkpt lat="43.56471" lon="2.00593">
        <ele>296.1</ele>
        <time>2022-03-08T13:08:47Z</time>
      </trkpt>
      <trkpt lat="43.56471" lon="2.00592">
        <ele>296.1</ele>
        <time>2022-03-08T13:08:48Z</time>
      </trkpt>
      <trkpt lat="43.56471" lon="2.00592">
        <ele>296.1</ele>
        <time>2022-03-08T13:08:49Z</time>
      </trkpt>
      <trkpt lat="43.56471" lon="2.00591">
        <ele>296.1</ele>
        <time>2022-03-08T13:08:50Z</time>
      </trkpt>
      <trkpt lat="43.56472" lon="2.00591">
        <ele>296.1</ele>
        <time>2022-03-08T13:08:51Z</time>
      </trkpt>
      <trkpt lat="43.56472" lon="2.00591">
        <ele>296.1</ele>
        <time>2022-03-08T13:08:52Z</time>
      </trkpt>
      <trkpt lat="43.56472" lon="2.00591">
        <ele>296.1</ele>
        <time>2022-03-08T13:08:53Z</time>
      </trkpt>
      <trkpt lat="43.56472" lon="2.00591">
        <ele>296.1</ele>
        <time>2022-03-08T13:08:54Z</time>
      </trkpt>
      <trkpt lat="43.56472" lon="2.0059">
        <ele>296.1</ele>
        <time>2022-03-08T13:08:55Z</time>
      </trkpt>
      <trkpt lat="43.56471" lon="2.0059">
        <ele>296.1</ele>
        <time>2022-03-08T13:08:56Z</time>
      </trkpt>
      <trkpt lat="43.56471" lon="2.0059">
        <ele>296.2</ele>
        <time>2022-03-08T13:08:58Z</time>
      </trkpt>
      <trkpt lat="43.5647" lon="2.00589">
        <ele>296.2</ele>
        <time>2022-03-08T13:08:59Z</time>
      </trkpt>
      <trkpt lat="43.56468" lon="2.00588">
        <ele>296.2</ele>
        <time>2022-03-08T13:09:00Z</time>
      </trkpt>
      <trkpt lat="43.56467" lon="2.00588">
        <ele>296.2</ele>
        <time>2022-03-08T13:09:01Z</time>
      </trkpt>
      <trkpt lat="43.56467" lon="2.00587">
        <ele>296.3</ele>
        <time>2022-03-08T13:09:02Z</time>
      </trkpt>
      <trkpt lat="43.56465" lon="2.00586">
        <ele>296.3</ele>
        <time>2022-03-08T13:09:03Z</time>
      </trkpt>
      <trkpt lat="43.56464" lon="2.00586">
        <ele>296.3</ele>
        <time>2022-03-08T13:09:05Z</time>
      </trkpt>
      <trkpt lat="43.56463" lon="2.00586">
        <ele>296.4</ele>
        <time>2022-03-08T13:09:06Z</time>
      </trkpt>
      <trkpt lat="43.56461" lon="2.00585">
        <ele>296.4</ele>
        <time>2022-03-08T13:09:07Z</time>
      </trkpt>
      <trkpt lat="43.5646" lon="2.00585">
        <ele>296.4</ele>
        <time>2022-03-08T13:09:08Z</time>
      </trkpt>
      <trkpt lat="43.5646" lon="2.00585">
        <ele>296.4</ele>
        <time>2022-03-08T13:09:09Z</time>
      </trkpt>
      <trkpt lat="43.56459" lon="2.00584">
        <ele>296.3</ele>
        <time>2022-03-08T13:09:10Z</time>
      </trkpt>
      <trkpt lat="43.56458" lon="2.00583">
        <ele>296.3</ele>
        <time>2022-03-08T13:09:11Z</time>
      </trkpt>
      <trkpt lat="43.56457" lon="2.00583">
        <ele>296.3</ele>
        <time>2022-03-08T13:09:12Z</time>
      </trkpt>
      <trkpt lat="43.56457" lon="2.00584">
        <ele>296.3</ele>
        <time>2022-03-08T13:09:13Z</time>
      </trkpt>
      <trkpt lat="43.56457" lon="2.00584">
        <ele>296.3</ele>
        <time>2022-03-08T13:09:14Z</time>
      </trkpt>
      <trkpt lat="43.56457" lon="2.00584">
        <ele>296.3</ele>
        <time>2022-03-08T13:09:15Z</time>
      </trkpt>
      <trkpt lat="43.56458" lon="2.00584">
        <ele>296.3</ele>
        <time>2022-03-08T13:09:16Z</time>
      </trkpt>
      <trkpt lat="43.56458" lon="2.00584">
        <ele>296.3</ele>
        <time>2022-03-08T13:09:17Z</time>
      </trkpt>
      <trkpt lat="43.56458" lon="2.00584">
        <ele>296.3</ele>
        <time>2022-03-08T13:09:18Z</time>
      </trkpt>
      <trkpt lat="43.56458" lon="2.00584">
        <ele>296.3</ele>
        <time>2022-03-08T13:09:19Z</time>
      </trkpt>
      <trkpt lat="43.56458" lon="2.00584">
        <ele>296.3</ele>
        <time>2022-03-08T13:09:20Z</time>
      </trkpt>
      <trkpt lat="43.56458" lon="2.00584">
        <ele>296.3</ele>
        <time>2022-03-08T13:09:21Z</time>
      </trkpt>
      <trkpt lat="43.56458" lon="2.00584">
        <ele>296.3</ele>
        <time>2022-03-08T13:09:22Z</time>
      </trkpt>
      <trkpt lat="43.56458" lon="2.00584">
        <ele>296.3</ele>
        <time>2022-03-08T13:09:23Z</time>
      </trkpt>
      <trkpt lat="43.56457" lon="2.00584">
        <ele>296.3</ele>
        <time>2022-03-08T13:09:25Z</time>
      </trkpt>
      <trkpt lat="43.56457" lon="2.00585">
        <ele>296.3</ele>
        <time>2022-03-08T13:09:26Z</time>
      </trkpt>
      <trkpt lat="43.56457" lon="2.00585">
        <ele>296.3</ele>
        <time>2022-03-08T13:09:27Z</time>
      </trkpt>
      <trkpt lat="43.56456" lon="2.00586">
        <ele>296.3</ele>
        <time>2022-03-08T13:09:28Z</time>
      </trkpt>
      <trkpt lat="43.56456" lon="2.00587">
        <ele>296.2</ele>
        <time>2022-03-08T13:09:29Z</time>
      </trkpt>
      <trkpt lat="43.56456" lon="2.00588">
        <ele>296.2</ele>
        <time>2022-03-08T13:09:31Z</time>
      </trkpt>
      <trkpt lat="43.56456" lon="2.00589">
        <ele>296.2</ele>
        <time>2022-03-08T13:09:32Z</time>
      </trkpt>
      <trkpt lat="43.56456" lon="2.0059">
        <ele>296.2</ele>
        <time>2022-03-08T13:09:33Z</time>
      </trkpt>
      <trkpt lat="43.56457" lon="2.00591">
        <ele>296.2</ele>
        <time>2022-03-08T13:09:34Z</time>
      </trkpt>
      <trkpt lat="43.56457" lon="2.00593">
        <ele>296.1</ele>
        <time>2022-03-08T13:09:36Z</time>
      </trkpt>
      <trkpt lat="43.56458" lon="2.00595">
        <ele>296.1</ele>
        <time>2022-03-08T13:09:37Z</time>
      </trkpt>
      <trkpt lat="43.56458" lon="2.00597">
        <ele>296.1</ele>
        <time>2022-03-08T13:09:38Z</time>
      </trkpt>
      <trkpt lat="43.56459" lon="2.00597">
        <ele>296</ele>
        <time>2022-03-08T13:09:39Z</time>
      </trkpt>
      <trkpt lat="43.5646" lon="2.00599">
        <ele>296</ele>
        <time>2022-03-08T13:09:40Z</time>
      </trkpt>
      <trkpt lat="43.56461" lon="2.006">
        <ele>296</ele>
        <time>2022-03-08T13:09:41Z</time>
      </trkpt>
      <trkpt lat="43.56461" lon="2.00601">
        <ele>296</ele>
        <time>2022-03-08T13:09:42Z</time>
      </trkpt>
      <trkpt lat="43.56462" lon="2.00602">
        <ele>295.9</ele>
        <time>2022-03-08T13:09:43Z</time>
      </trkpt>
      <trkpt lat="43.56464" lon="2.00603">
        <ele>295.9</ele>
        <time>2022-03-08T13:09:44Z</time>
      </trkpt>
      <trkpt lat="43.56467" lon="2.00602">
        <ele>295.8</ele>
        <time>2022-03-08T13:09:46Z</time>
      </trkpt>
      <trkpt lat="43.56468" lon="2.00602">
        <ele>295.8</ele>
        <time>2022-03-08T13:09:47Z</time>
      </trkpt>
      <trkpt lat="43.5647" lon="2.006">
        <ele>295.7</ele>
        <time>2022-03-08T13:09:48Z</time>
      </trkpt>
      <trkpt lat="43.56471" lon="2.00599">
        <ele>295.7</ele>
        <time>2022-03-08T13:09:49Z</time>
      </trkpt>
      <trkpt lat="43.56471" lon="2.00599">
        <ele>295.7</ele>
        <time>2022-03-08T13:09:50Z</time>
      </trkpt>
      <trkpt lat="43.56472" lon="2.00599">
        <ele>295.7</ele>
        <time>2022-03-08T13:09:51Z</time>
      </trkpt>
      <trkpt lat="43.56473" lon="2.00599">
        <ele>295.6</ele>
        <time>2022-03-08T13:09:52Z</time>
      </trkpt>
      <trkpt lat="43.56473" lon="2.00599">
        <ele>295.6</ele>
        <time>2022-03-08T13:09:54Z</time>
      </trkpt>
      <trkpt lat="43.56474" lon="2.00599">
        <ele>295.6</ele>
        <time>2022-03-08T13:09:55Z</time>
      </trkpt>
      <trkpt lat="43.56474" lon="2.00599">
        <ele>295.6</ele>
        <time>2022-03-08T13:09:57Z</time>
      </trkpt>
      <trkpt lat="43.56474" lon="2.00599">
        <ele>295.6</ele>
        <time>2022-03-08T13:09:58Z</time>
      </trkpt>
      <trkpt lat="43.56474" lon="2.00599">
        <ele>295.6</ele>
        <time>2022-03-08T13:09:59Z</time>
      </trkpt>
      <trkpt lat="43.56474" lon="2.00599">
        <ele>295.6</ele>
        <time>2022-03-08T13:10:00Z</time>
      </trkpt>
      <trkpt lat="43.56474" lon="2.006">
        <ele>295.6</ele>
        <time>2022-03-08T13:10:01Z</time>
      </trkpt>
      <trkpt lat="43.56474" lon="2.006">
        <ele>295.6</ele>
        <time>2022-03-08T13:10:02Z</time>
      </trkpt>
      <trkpt lat="43.56474" lon="2.006">
        <ele>295.6</ele>
        <time>2022-03-08T13:10:03Z</time>
      </trkpt>
      <trkpt lat="43.56474" lon="2.006">
        <ele>295.6</ele>
        <time>2022-03-08T13:10:04Z</time>
      </trkpt>
      <trkpt lat="43.56474" lon="2.006">
        <ele>295.6</ele>
        <time>2022-03-08T13:10:05Z</time>
      </trkpt>
      <trkpt lat="43.56474" lon="2.006">
        <ele>295.6</ele>
        <time>2022-03-08T13:10:06Z</time>
      </trkpt>
      <trkpt lat="43.56474" lon="2.006">
        <ele>295.6</ele>
        <time>2022-03-08T13:10:07Z</time>
      </trkpt>
      <trkpt lat="43.56474" lon="2.006">
        <ele>295.6</ele>
        <time>2022-03-08T13:10:08Z</time>
      </trkpt>
      <trkpt lat="43.56474" lon="2.006">
        <ele>295.6</ele>
        <time>2022-03-08T13:10:09Z</time>
      </trkpt>
      <trkpt lat="43.56474" lon="2.006">
        <ele>295.6</ele>
        <time>2022-03-08T13:10:10Z</time>
      </trkpt>
      <trkpt lat="43.56474" lon="2.00601">
        <ele>295.6</ele>
        <time>2022-03-08T13:10:11Z</time>
      </trkpt>
      <trkpt lat="43.56474" lon="2.00601">
        <ele>295.6</ele>
        <time>2022-03-08T13:10:12Z</time>
      </trkpt>
      <trkpt lat="43.56474" lon="2.00601">
        <ele>295.6</ele>
        <time>2022-03-08T13:10:13Z</time>
      </trkpt>
      <trkpt lat="43.56474" lon="2.00601">
        <ele>295.6</ele>
        <time>2022-03-08T13:10:14Z</time>
      </trkpt>
      <trkpt lat="43.56474" lon="2.00601">
        <ele>295.6</ele>
        <time>2022-03-08T13:10:15Z</time>
      </trkpt>
      <trkpt lat="43.56474" lon="2.00601">
        <ele>295.6</ele>
        <time>2022-03-08T13:10:16Z</time>
      </trkpt>
      <trkpt lat="43.56473" lon="2.00601">
        <ele>295.6</ele>
        <time>2022-03-08T13:10:17Z</time>
      </trkpt>
      <trkpt lat="43.56473" lon="2.00601">
        <ele>295.6</ele>
        <time>2022-03-08T13:10:18Z</time>
      </trkpt>
      <trkpt lat="43.56473" lon="2.00601">
        <ele>295.5</ele>
        <time>2022-03-08T13:10:19Z</time>
      </trkpt>
      <trkpt lat="43.56472" lon="2.006">
        <ele>295.5</ele>
        <time>2022-03-08T13:10:20Z</time>
      </trkpt>
      <trkpt lat="43.56472" lon="2.006">
        <ele>295.5</ele>
        <time>2022-03-08T13:10:21Z</time>
      </trkpt>
      <trkpt lat="43.56471" lon="2.006">
        <ele>295.5</ele>
        <time>2022-03-08T13:10:22Z</time>
      </trkpt>
      <trkpt lat="43.56471" lon="2.00599">
        <ele>295.5</ele>
        <time>2022-03-08T13:10:23Z</time>
      </trkpt>
      <trkpt lat="43.56471" lon="2.00599">
        <ele>295.5</ele>
        <time>2022-03-08T13:10:24Z</time>
      </trkpt>
      <trkpt lat="43.56471" lon="2.00599">
        <ele>295.5</ele>
        <time>2022-03-08T13:10:25Z</time>
      </trkpt>
      <trkpt lat="43.56471" lon="2.00599">
        <ele>295.5</ele>
        <time>2022-03-08T13:10:26Z</time>
      </trkpt>
      <trkpt lat="43.56471" lon="2.00599">
        <ele>295.5</ele>
        <time>2022-03-08T13:10:27Z</time>
      </trkpt>
      <trkpt lat="43.56471" lon="2.00599">
        <ele>295.5</ele>
        <time>2022-03-08T13:10:28Z</time>
      </trkpt>
      <trkpt lat="43.56471" lon="2.00599">
        <ele>295.5</ele>
        <time>2022-03-08T13:10:29Z</time>
      </trkpt>
      <trkpt lat="43.56471" lon="2.00599">
        <ele>295.5</ele>
        <time>2022-03-08T13:10:30Z</time>
      </trkpt>
      <trkpt lat="43.56471" lon="2.00599">
        <ele>295.5</ele>
        <time>2022-03-08T13:10:31Z</time>
      </trkpt>
      <trkpt lat="43.56471" lon="2.00599">
        <ele>295.5</ele>
        <time>2022-03-08T13:10:32Z</time>
      </trkpt>
      <trkpt lat="43.56471" lon="2.00599">
        <ele>295.5</ele>
        <time>2022-03-08T13:10:33Z</time>
      </trkpt>
      <trkpt lat="43.56471" lon="2.00599">
        <ele>295.5</ele>
        <time>2022-03-08T13:10:34Z</time>
      </trkpt>
      <trkpt lat="43.56471" lon="2.00599">
        <ele>295.5</ele>
        <time>2022-03-08T13:10:35Z</time>
      </trkpt>
      <trkpt lat="43.56471" lon="2.00599">
        <ele>295.5</ele>
        <time>2022-03-08T13:10:36Z</time>
      </trkpt>
      <trkpt lat="43.56471" lon="2.00599">
        <ele>295.5</ele>
        <time>2022-03-08T13:10:37Z</time>
      </trkpt>
      <trkpt lat="43.56471" lon="2.00599">
        <ele>295.5</ele>
        <time>2022-03-08T13:10:38Z</time>
      </trkpt>
      <trkpt lat="43.56472" lon="2.00599">
        <ele>295.5</ele>
        <time>2022-03-08T13:10:39Z</time>
      </trkpt>
      <trkpt lat="43.56473" lon="2.00598">
        <ele>295.4</ele>
        <time>2022-03-08T13:10:40Z</time>
      </trkpt>
      <trkpt lat="43.56474" lon="2.00598">
        <ele>295.4</ele>
        <time>2022-03-08T13:10:41Z</time>
      </trkpt>
      <trkpt lat="43.56474" lon="2.00598">
        <ele>295.4</ele>
        <time>2022-03-08T13:10:42Z</time>
      </trkpt>
      <trkpt lat="43.56475" lon="2.00598">
        <ele>295.4</ele>
        <time>2022-03-08T13:10:43Z</time>
      </trkpt>
      <trkpt lat="43.56475" lon="2.00598">
        <ele>295.4</ele>
        <time>2022-03-08T13:10:44Z</time>
      </trkpt>
      <trkpt lat="43.56475" lon="2.00598">
        <ele>295.4</ele>
        <time>2022-03-08T13:10:45Z</time>
      </trkpt>
      <trkpt lat="43.56475" lon="2.00598">
        <ele>295.4</ele>
        <time>2022-03-08T13:10:46Z</time>
      </trkpt>
      <trkpt lat="43.56475" lon="2.00598">
        <ele>295.4</ele>
        <time>2022-03-08T13:10:47Z</time>
      </trkpt>
      <trkpt lat="43.56475" lon="2.00598">
        <ele>295.4</ele>
        <time>2022-03-08T13:10:48Z</time>
      </trkpt>
      <trkpt lat="43.56475" lon="2.00598">
        <ele>295.4</ele>
        <time>2022-03-08T13:10:49Z</time>
      </trkpt>
      <trkpt lat="43.56475" lon="2.00598">
        <ele>295.4</ele>
        <time>2022-03-08T13:10:50Z</time>
      </trkpt>
      <trkpt lat="43.56475" lon="2.00598">
        <ele>295.4</ele>
        <time>2022-03-08T13:10:51Z</time>
      </trkpt>
      <trkpt lat="43.56476" lon="2.00598">
        <ele>295.4</ele>
        <time>2022-03-08T13:10:52Z</time>
      </trkpt>
      <trkpt lat="43.56477" lon="2.00599">
        <ele>295.3</ele>
        <time>2022-03-08T13:10:54Z</time>
      </trkpt>
      <trkpt lat="43.56478" lon="2.00599">
        <ele>295.3</ele>
        <time>2022-03-08T13:10:55Z</time>
      </trkpt>
      <trkpt lat="43.56478" lon="2.00599">
        <ele>295.3</ele>
        <time>2022-03-08T13:10:56Z</time>
      </trkpt>
      <trkpt lat="43.56479" lon="2.00599">
        <ele>295.3</ele>
        <time>2022-03-08T13:10:57Z</time>
      </trkpt>
      <trkpt lat="43.5648" lon="2.006">
        <ele>295.3</ele>
        <time>2022-03-08T13:10:59Z</time>
      </trkpt>
      <trkpt lat="43.5648" lon="2.006">
        <ele>295.3</ele>
        <time>2022-03-08T13:11:00Z</time>
      </trkpt>
      <trkpt lat="43.56481" lon="2.00601">
        <ele>295.2</ele>
        <time>2022-03-08T13:11:01Z</time>
      </trkpt>
      <trkpt lat="43.56482" lon="2.00601">
        <ele>295.2</ele>
        <time>2022-03-08T13:11:02Z</time>
      </trkpt>
      <trkpt lat="43.56483" lon="2.00602">
        <ele>295.2</ele>
        <time>2022-03-08T13:11:03Z</time>
      </trkpt>
      <trkpt lat="43.56484" lon="2.00603">
        <ele>295.2</ele>
        <time>2022-03-08T13:11:04Z</time>
      </trkpt>
      <trkpt lat="43.56485" lon="2.00603">
        <ele>295.1</ele>
        <time>2022-03-08T13:11:05Z</time>
      </trkpt>
      <trkpt lat="43.56486" lon="2.00605">
        <ele>295.1</ele>
        <time>2022-03-08T13:11:06Z</time>
      </trkpt>
      <trkpt lat="43.56486" lon="2.00606">
        <ele>295.1</ele>
        <time>2022-03-08T13:11:08Z</time>
      </trkpt>
      <trkpt lat="43.56487" lon="2.00608">
        <ele>295</ele>
        <time>2022-03-08T13:11:09Z</time>
      </trkpt>
      <trkpt lat="43.56488" lon="2.00609">
        <ele>295</ele>
        <time>2022-03-08T13:11:10Z</time>
      </trkpt>
      <trkpt lat="43.5649" lon="2.00611">
        <ele>295</ele>
        <time>2022-03-08T13:11:11Z</time>
      </trkpt>
      <trkpt lat="43.56491" lon="2.00612">
        <ele>294.9</ele>
        <time>2022-03-08T13:11:12Z</time>
      </trkpt>
      <trkpt lat="43.56492" lon="2.00612">
        <ele>294.9</ele>
        <time>2022-03-08T13:11:13Z</time>
      </trkpt>
      <trkpt lat="43.56494" lon="2.00615">
        <ele>294.9</ele>
        <time>2022-03-08T13:11:14Z</time>
      </trkpt>
      <trkpt lat="43.56495" lon="2.00616">
        <ele>294.9</ele>
        <time>2022-03-08T13:11:16Z</time>
      </trkpt>
      <trkpt lat="43.56496" lon="2.00617">
        <ele>294.8</ele>
        <time>2022-03-08T13:11:17Z</time>
      </trkpt>
      <trkpt lat="43.56496" lon="2.00618">
        <ele>294.8</ele>
        <time>2022-03-08T13:11:18Z</time>
      </trkpt>
      <trkpt lat="43.56497" lon="2.00619">
        <ele>294.8</ele>
        <time>2022-03-08T13:11:19Z</time>
      </trkpt>
      <trkpt lat="43.56498" lon="2.0062">
        <ele>294.8</ele>
        <time>2022-03-08T13:11:20Z</time>
      </trkpt>
      <trkpt lat="43.565" lon="2.00622">
        <ele>294.7</ele>
        <time>2022-03-08T13:11:21Z</time>
      </trkpt>
      <trkpt lat="43.56501" lon="2.00623">
        <ele>294.7</ele>
        <time>2022-03-08T13:11:22Z</time>
      </trkpt>
      <trkpt lat="43.56502" lon="2.00623">
        <ele>294.7</ele>
        <time>2022-03-08T13:11:23Z</time>
      </trkpt>
      <trkpt lat="43.56503" lon="2.00624">
        <ele>294.7</ele>
        <time>2022-03-08T13:11:24Z</time>
      </trkpt>
      <trkpt lat="43.56504" lon="2.00625">
        <ele>294.7</ele>
        <time>2022-03-08T13:11:25Z</time>
      </trkpt>
      <trkpt lat="43.56506" lon="2.00626">
        <ele>294.6</ele>
        <time>2022-03-08T13:11:27Z</time>
      </trkpt>
      <trkpt lat="43.56507" lon="2.00627">
        <ele>294.6</ele>
        <time>2022-03-08T13:11:28Z</time>
      </trkpt>
      <trkpt lat="43.56508" lon="2.00628">
        <ele>294.6</ele>
        <time>2022-03-08T13:11:29Z</time>
      </trkpt>
      <trkpt lat="43.56508" lon="2.00628">
        <ele>294.6</ele>
        <time>2022-03-08T13:11:30Z</time>
      </trkpt>
      <trkpt lat="43.5651" lon="2.00629">
        <ele>294.6</ele>
        <time>2022-03-08T13:11:31Z</time>
      </trkpt>
      <trkpt lat="43.56511" lon="2.0063">
        <ele>294.6</ele>
        <time>2022-03-08T13:11:32Z</time>
      </trkpt>
      <trkpt lat="43.56512" lon="2.0063">
        <ele>294.6</ele>
        <time>2022-03-08T13:11:34Z</time>
      </trkpt>
      <trkpt lat="43.56513" lon="2.00631">
        <ele>294.5</ele>
        <time>2022-03-08T13:11:35Z</time>
      </trkpt>
      <trkpt lat="43.56514" lon="2.00632">
        <ele>294.5</ele>
        <time>2022-03-08T13:11:36Z</time>
      </trkpt>
      <trkpt lat="43.56516" lon="2.00633">
        <ele>294.5</ele>
        <time>2022-03-08T13:11:38Z</time>
      </trkpt>
      <trkpt lat="43.56518" lon="2.00634">
        <ele>294.5</ele>
        <time>2022-03-08T13:11:39Z</time>
      </trkpt>
      <trkpt lat="43.56519" lon="2.00634">
        <ele>294.5</ele>
        <time>2022-03-08T13:11:40Z</time>
      </trkpt>
      <trkpt lat="43.5652" lon="2.00635">
        <ele>294.4</ele>
        <time>2022-03-08T13:11:41Z</time>
      </trkpt>
      <trkpt lat="43.56522" lon="2.00635">
        <ele>294.4</ele>
        <time>2022-03-08T13:11:42Z</time>
      </trkpt>
      <trkpt lat="43.56523" lon="2.00635">
        <ele>294.4</ele>
        <time>2022-03-08T13:11:43Z</time>
      </trkpt>
      <trkpt lat="43.56527" lon="2.00636">
        <ele>294.4</ele>
        <time>2022-03-08T13:11:45Z</time>
      </trkpt>
      <trkpt lat="43.5653" lon="2.00637">
        <ele>294.3</ele>
        <time>2022-03-08T13:11:46Z</time>
      </trkpt>
      <trkpt lat="43.56531" lon="2.00637">
        <ele>294.3</ele>
        <time>2022-03-08T13:11:47Z</time>
      </trkpt>
      <trkpt lat="43.56532" lon="2.00639">
        <ele>294.2</ele>
        <time>2022-03-08T13:11:48Z</time>
      </trkpt>
      <trkpt lat="43.56533" lon="2.0064">
        <ele>294.2</ele>
        <time>2022-03-08T13:11:49Z</time>
      </trkpt>
      <trkpt lat="43.56536" lon="2.00643">
        <ele>294.1</ele>
        <time>2022-03-08T13:11:51Z</time>
      </trkpt>
      <trkpt lat="43.56536" lon="2.00644">
        <ele>294</ele>
        <time>2022-03-08T13:11:52Z</time>
      </trkpt>
      <trkpt lat="43.56537" lon="2.00645">
        <ele>294</ele>
        <time>2022-03-08T13:11:53Z</time>
      </trkpt>
      <trkpt lat="43.56539" lon="2.00646">
        <ele>294</ele>
        <time>2022-03-08T13:11:54Z</time>
      </trkpt>
      <trkpt lat="43.5654" lon="2.00647">
        <ele>293.9</ele>
        <time>2022-03-08T13:11:55Z</time>
      </trkpt>
      <trkpt lat="43.56541" lon="2.00647">
        <ele>293.9</ele>
        <time>2022-03-08T13:11:56Z</time>
      </trkpt>
      <trkpt lat="43.56543" lon="2.00648">
        <ele>293.8</ele>
        <time>2022-03-08T13:11:58Z</time>
      </trkpt>
      <trkpt lat="43.56545" lon="2.00648">
        <ele>293.8</ele>
        <time>2022-03-08T13:11:59Z</time>
      </trkpt>
      <trkpt lat="43.56546" lon="2.00649">
        <ele>293.7</ele>
        <time>2022-03-08T13:12:00Z</time>
      </trkpt>
      <trkpt lat="43.56547" lon="2.0065">
        <ele>293.7</ele>
        <time>2022-03-08T13:12:01Z</time>
      </trkpt>
      <trkpt lat="43.56548" lon="2.00652">
        <ele>293.6</ele>
        <time>2022-03-08T13:12:02Z</time>
      </trkpt>
      <trkpt lat="43.56549" lon="2.00653">
        <ele>293.6</ele>
        <time>2022-03-08T13:12:03Z</time>
      </trkpt>
      <trkpt lat="43.5655" lon="2.00655">
        <ele>293.5</ele>
        <time>2022-03-08T13:12:05Z</time>
      </trkpt>
      <trkpt lat="43.5655" lon="2.00657">
        <ele>293.5</ele>
        <time>2022-03-08T13:12:06Z</time>
      </trkpt>
      <trkpt lat="43.56551" lon="2.00659">
        <ele>293.4</ele>
        <time>2022-03-08T13:12:07Z</time>
      </trkpt>
      <trkpt lat="43.56551" lon="2.00661">
        <ele>293.4</ele>
        <time>2022-03-08T13:12:08Z</time>
      </trkpt>
      <trkpt lat="43.56551" lon="2.00662">
        <ele>293.4</ele>
        <time>2022-03-08T13:12:09Z</time>
      </trkpt>
      <trkpt lat="43.56551" lon="2.00666">
        <ele>293.2</ele>
        <time>2022-03-08T13:12:10Z</time>
      </trkpt>
      <trkpt lat="43.56551" lon="2.00668">
        <ele>293.2</ele>
        <time>2022-03-08T13:12:11Z</time>
      </trkpt>
      <trkpt lat="43.56552" lon="2.00671">
        <ele>293.1</ele>
        <time>2022-03-08T13:12:12Z</time>
      </trkpt>
      <trkpt lat="43.56552" lon="2.00673">
        <ele>293.1</ele>
        <time>2022-03-08T13:12:13Z</time>
      </trkpt>
      <trkpt lat="43.56551" lon="2.00674">
        <ele>293.1</ele>
        <time>2022-03-08T13:12:14Z</time>
      </trkpt>
      <trkpt lat="43.56551" lon="2.00679">
        <ele>293.2</ele>
        <time>2022-03-08T13:12:16Z</time>
      </trkpt>
      <trkpt lat="43.5655" lon="2.0068">
        <ele>293.2</ele>
        <time>2022-03-08T13:12:17Z</time>
      </trkpt>
      <trkpt lat="43.56549" lon="2.00683">
        <ele>293.2</ele>
        <time>2022-03-08T13:12:18Z</time>
      </trkpt>
      <trkpt lat="43.56548" lon="2.00684">
        <ele>293.2</ele>
        <time>2022-03-08T13:12:19Z</time>
      </trkpt>
      <trkpt lat="43.56544" lon="2.00687">
        <ele>293.3</ele>
        <time>2022-03-08T13:12:20Z</time>
      </trkpt>
      <trkpt lat="43.56543" lon="2.00688">
        <ele>293.4</ele>
        <time>2022-03-08T13:12:21Z</time>
      </trkpt>
      <trkpt lat="43.56539" lon="2.0069">
        <ele>293.5</ele>
        <time>2022-03-08T13:12:22Z</time>
      </trkpt>
      <trkpt lat="43.56538" lon="2.00691">
        <ele>293.5</ele>
        <time>2022-03-08T13:12:23Z</time>
      </trkpt>
      <trkpt lat="43.56535" lon="2.00693">
        <ele>293.6</ele>
        <time>2022-03-08T13:12:24Z</time>
      </trkpt>
      <trkpt lat="43.56534" lon="2.00694">
        <ele>293.6</ele>
        <time>2022-03-08T13:12:25Z</time>
      </trkpt>
      <trkpt lat="43.5653" lon="2.00695">
        <ele>293.7</ele>
        <time>2022-03-08T13:12:26Z</time>
      </trkpt>
      <trkpt lat="43.56529" lon="2.00695">
        <ele>293.8</ele>
        <time>2022-03-08T13:12:27Z</time>
      </trkpt>
      <trkpt lat="43.56526" lon="2.00695">
        <ele>293.9</ele>
        <time>2022-03-08T13:12:28Z</time>
      </trkpt>
      <trkpt lat="43.56525" lon="2.00696">
        <ele>293.9</ele>
        <time>2022-03-08T13:12:29Z</time>
      </trkpt>
      <trkpt lat="43.56523" lon="2.00696">
        <ele>294</ele>
        <time>2022-03-08T13:12:30Z</time>
      </trkpt>
      <trkpt lat="43.56522" lon="2.00696">
        <ele>294</ele>
        <time>2022-03-08T13:12:31Z</time>
      </trkpt>
      <trkpt lat="43.56519" lon="2.00696">
        <ele>294.2</ele>
        <time>2022-03-08T13:12:33Z</time>
      </trkpt>
      <trkpt lat="43.56518" lon="2.00696">
        <ele>294.2</ele>
        <time>2022-03-08T13:12:34Z</time>
      </trkpt>
      <trkpt lat="43.56516" lon="2.00696">
        <ele>294.3</ele>
        <time>2022-03-08T13:12:35Z</time>
      </trkpt>
      <trkpt lat="43.56514" lon="2.00696">
        <ele>294.3</ele>
        <time>2022-03-08T13:12:36Z</time>
      </trkpt>
      <trkpt lat="43.56512" lon="2.00696">
        <ele>294.4</ele>
        <time>2022-03-08T13:12:37Z</time>
      </trkpt>
      <trkpt lat="43.56511" lon="2.00695">
        <ele>294.5</ele>
        <time>2022-03-08T13:12:38Z</time>
      </trkpt>
      <trkpt lat="43.56508" lon="2.00694">
        <ele>294.6</ele>
        <time>2022-03-08T13:12:39Z</time>
      </trkpt>
      <trkpt lat="43.56507" lon="2.00693">
        <ele>294.6</ele>
        <time>2022-03-08T13:12:40Z</time>
      </trkpt>
      <trkpt lat="43.56506" lon="2.00692">
        <ele>294.7</ele>
        <time>2022-03-08T13:12:41Z</time>
      </trkpt>
      <trkpt lat="43.56504" lon="2.00692">
        <ele>294.8</ele>
        <time>2022-03-08T13:12:43Z</time>
      </trkpt>
      <trkpt lat="43.56502" lon="2.00691">
        <ele>294.9</ele>
        <time>2022-03-08T13:12:44Z</time>
      </trkpt>
      <trkpt lat="43.56501" lon="2.00691">
        <ele>294.9</ele>
        <time>2022-03-08T13:12:46Z</time>
      </trkpt>
      <trkpt lat="43.565" lon="2.00691">
        <ele>295</ele>
        <time>2022-03-08T13:12:47Z</time>
      </trkpt>
      <trkpt lat="43.56499" lon="2.00691">
        <ele>295</ele>
        <time>2022-03-08T13:12:48Z</time>
      </trkpt>
      <trkpt lat="43.56497" lon="2.0069">
        <ele>295.1</ele>
        <time>2022-03-08T13:12:49Z</time>
      </trkpt>
      <trkpt lat="43.56496" lon="2.00691">
        <ele>295.1</ele>
        <time>2022-03-08T13:12:50Z</time>
      </trkpt>
      <trkpt lat="43.56495" lon="2.00691">
        <ele>295.2</ele>
        <time>2022-03-08T13:12:51Z</time>
      </trkpt>
      <trkpt lat="43.56494" lon="2.00692">
        <ele>295.2</ele>
        <time>2022-03-08T13:12:52Z</time>
      </trkpt>
      <trkpt lat="43.56493" lon="2.00692">
        <ele>295.3</ele>
        <time>2022-03-08T13:12:53Z</time>
      </trkpt>
      <trkpt lat="43.56492" lon="2.00693">
        <ele>295.3</ele>
        <time>2022-03-08T13:12:54Z</time>
      </trkpt>
      <trkpt lat="43.56491" lon="2.00693">
        <ele>295.4</ele>
        <time>2022-03-08T13:12:55Z</time>
      </trkpt>
      <trkpt lat="43.56489" lon="2.00694">
        <ele>295.5</ele>
        <time>2022-03-08T13:12:56Z</time>
      </trkpt>
      <trkpt lat="43.56488" lon="2.00695">
        <ele>295.5</ele>
        <time>2022-03-08T13:12:58Z</time>
      </trkpt>
      <trkpt lat="43.56487" lon="2.00695">
        <ele>295.6</ele>
        <time>2022-03-08T13:12:59Z</time>
      </trkpt>
      <trkpt lat="43.56486" lon="2.00696">
        <ele>295.6</ele>
        <time>2022-03-08T13:13:00Z</time>
      </trkpt>
      <trkpt lat="43.56485" lon="2.00696">
        <ele>295.7</ele>
        <time>2022-03-08T13:13:01Z</time>
      </trkpt>
      <trkpt lat="43.56483" lon="2.00697">
        <ele>295.8</ele>
        <time>2022-03-08T13:13:02Z</time>
      </trkpt>
      <trkpt lat="43.56482" lon="2.00697">
        <ele>295.8</ele>
        <time>2022-03-08T13:13:03Z</time>
      </trkpt>
      <trkpt lat="43.56481" lon="2.00697">
        <ele>295.8</ele>
        <time>2022-03-08T13:13:04Z</time>
      </trkpt>
      <trkpt lat="43.5648" lon="2.00697">
        <ele>295.9</ele>
        <time>2022-03-08T13:13:05Z</time>
      </trkpt>
      <trkpt lat="43.56478" lon="2.00697">
        <ele>296</ele>
        <time>2022-03-08T13:13:07Z</time>
      </trkpt>
      <trkpt lat="43.56477" lon="2.00697">
        <ele>296</ele>
        <time>2022-03-08T13:13:08Z</time>
      </trkpt>
      <trkpt lat="43.56475" lon="2.00697">
        <ele>296.1</ele>
        <time>2022-03-08T13:13:10Z</time>
      </trkpt>
      <trkpt lat="43.56474" lon="2.00697">
        <ele>296.1</ele>
        <time>2022-03-08T13:13:11Z</time>
      </trkpt>
      <trkpt lat="43.56473" lon="2.00697">
        <ele>296.2</ele>
        <time>2022-03-08T13:13:12Z</time>
      </trkpt>
      <trkpt lat="43.56472" lon="2.00697">
        <ele>296.2</ele>
        <time>2022-03-08T13:13:13Z</time>
      </trkpt>
      <trkpt lat="43.56471" lon="2.00698">
        <ele>296.3</ele>
        <time>2022-03-08T13:13:14Z</time>
      </trkpt>
      <trkpt lat="43.56469" lon="2.00698">
        <ele>296.3</ele>
        <time>2022-03-08T13:13:16Z</time>
      </trkpt>
      <trkpt lat="43.56468" lon="2.00699">
        <ele>296.4</ele>
        <time>2022-03-08T13:13:17Z</time>
      </trkpt>
      <trkpt lat="43.56467" lon="2.007">
        <ele>296.4</ele>
        <time>2022-03-08T13:13:18Z</time>
      </trkpt>
      <trkpt lat="43.56466" lon="2.007">
        <ele>296.4</ele>
        <time>2022-03-08T13:13:19Z</time>
      </trkpt>
      <trkpt lat="43.56465" lon="2.00701">
        <ele>296.5</ele>
        <time>2022-03-08T13:13:20Z</time>
      </trkpt>
      <trkpt lat="43.56464" lon="2.00702">
        <ele>296.5</ele>
        <time>2022-03-08T13:13:21Z</time>
      </trkpt>
      <trkpt lat="43.56463" lon="2.00702">
        <ele>296.6</ele>
        <time>2022-03-08T13:13:23Z</time>
      </trkpt>
      <trkpt lat="43.56462" lon="2.00703">
        <ele>296.6</ele>
        <time>2022-03-08T13:13:24Z</time>
      </trkpt>
      <trkpt lat="43.56461" lon="2.00703">
        <ele>296.6</ele>
        <time>2022-03-08T13:13:25Z</time>
      </trkpt>
      <trkpt lat="43.5646" lon="2.00703">
        <ele>296.7</ele>
        <time>2022-03-08T13:13:26Z</time>
      </trkpt>
      <trkpt lat="43.56459" lon="2.00704">
        <ele>296.7</ele>
        <time>2022-03-08T13:13:27Z</time>
      </trkpt>
      <trkpt lat="43.56458" lon="2.00704">
        <ele>296.7</ele>
        <time>2022-03-08T13:13:28Z</time>
      </trkpt>
      <trkpt lat="43.56456" lon="2.00703">
        <ele>296.8</ele>
        <time>2022-03-08T13:13:29Z</time>
      </trkpt>
      <trkpt lat="43.56455" lon="2.00702">
        <ele>296.8</ele>
        <time>2022-03-08T13:13:30Z</time>
      </trkpt>
      <trkpt lat="43.56454" lon="2.00702">
        <ele>296.9</ele>
        <time>2022-03-08T13:13:31Z</time>
      </trkpt>
      <trkpt lat="43.56452" lon="2.00702">
        <ele>296.9</ele>
        <time>2022-03-08T13:13:33Z</time>
      </trkpt>
      <trkpt lat="43.56451" lon="2.00702">
        <ele>297</ele>
        <time>2022-03-08T13:13:34Z</time>
      </trkpt>
      <trkpt lat="43.5645" lon="2.00702">
        <ele>297</ele>
        <time>2022-03-08T13:13:35Z</time>
      </trkpt>
      <trkpt lat="43.56449" lon="2.00703">
        <ele>297</ele>
        <time>2022-03-08T13:13:36Z</time>
      </trkpt>
      <trkpt lat="43.56447" lon="2.00703">
        <ele>297.1</ele>
        <time>2022-03-08T13:13:37Z</time>
      </trkpt>
      <trkpt lat="43.56446" lon="2.00704">
        <ele>297.1</ele>
        <time>2022-03-08T13:13:38Z</time>
      </trkpt>
      <trkpt lat="43.56444" lon="2.00704">
        <ele>297.1</ele>
        <time>2022-03-08T13:13:39Z</time>
      </trkpt>
      <trkpt lat="43.56443" lon="2.00705">
        <ele>297.1</ele>
        <time>2022-03-08T13:13:40Z</time>
      </trkpt>
      <trkpt lat="43.56442" lon="2.00706">
        <ele>297.2</ele>
        <time>2022-03-08T13:13:41Z</time>
      </trkpt>
      <trkpt lat="43.5644" lon="2.00706">
        <ele>297.2</ele>
        <time>2022-03-08T13:13:42Z</time>
      </trkpt>
      <trkpt lat="43.56439" lon="2.00707">
        <ele>297.2</ele>
        <time>2022-03-08T13:13:43Z</time>
      </trkpt>
      <trkpt lat="43.56438" lon="2.00708">
        <ele>297.2</ele>
        <time>2022-03-08T13:13:44Z</time>
      </trkpt>
      <trkpt lat="43.56437" lon="2.00709">
        <ele>297.3</ele>
        <time>2022-03-08T13:13:45Z</time>
      </trkpt>
      <trkpt lat="43.56436" lon="2.0071">
        <ele>297.3</ele>
        <time>2022-03-08T13:13:46Z</time>
      </trkpt>
      <trkpt lat="43.56434" lon="2.0071">
        <ele>297.3</ele>
        <time>2022-03-08T13:13:47Z</time>
      </trkpt>
      <trkpt lat="43.56433" lon="2.0071">
        <ele>297.3</ele>
        <time>2022-03-08T13:13:49Z</time>
      </trkpt>
      <trkpt lat="43.56432" lon="2.0071">
        <ele>297.3</ele>
        <time>2022-03-08T13:13:50Z</time>
      </trkpt>
      <trkpt lat="43.56431" lon="2.00711">
        <ele>297.3</ele>
        <time>2022-03-08T13:13:51Z</time>
      </trkpt>
      <trkpt lat="43.56431" lon="2.00711">
        <ele>297.3</ele>
        <time>2022-03-08T13:13:52Z</time>
      </trkpt>
      <trkpt lat="43.5643" lon="2.00711">
        <ele>297.3</ele>
        <time>2022-03-08T13:13:53Z</time>
      </trkpt>
      <trkpt lat="43.56429" lon="2.00712">
        <ele>297.3</ele>
        <time>2022-03-08T13:13:54Z</time>
      </trkpt>
      <trkpt lat="43.56428" lon="2.00713">
        <ele>297.3</ele>
        <time>2022-03-08T13:13:55Z</time>
      </trkpt>
      <trkpt lat="43.56427" lon="2.00713">
        <ele>297.3</ele>
        <time>2022-03-08T13:13:57Z</time>
      </trkpt>
      <trkpt lat="43.56427" lon="2.00714">
        <ele>297.3</ele>
        <time>2022-03-08T13:13:58Z</time>
      </trkpt>
      <trkpt lat="43.56426" lon="2.00714">
        <ele>297.3</ele>
        <time>2022-03-08T13:13:59Z</time>
      </trkpt>
      <trkpt lat="43.56425" lon="2.00714">
        <ele>297.3</ele>
        <time>2022-03-08T13:14:00Z</time>
      </trkpt>
      <trkpt lat="43.56424" lon="2.00715">
        <ele>297.3</ele>
        <time>2022-03-08T13:14:01Z</time>
      </trkpt>
      <trkpt lat="43.56424" lon="2.00715">
        <ele>297.3</ele>
        <time>2022-03-08T13:14:02Z</time>
      </trkpt>
      <trkpt lat="43.56423" lon="2.00716">
        <ele>297.3</ele>
        <time>2022-03-08T13:14:03Z</time>
      </trkpt>
      <trkpt lat="43.56421" lon="2.00717">
        <ele>297.3</ele>
        <time>2022-03-08T13:14:04Z</time>
      </trkpt>
      <trkpt lat="43.56419" lon="2.00718">
        <ele>297.3</ele>
        <time>2022-03-08T13:14:05Z</time>
      </trkpt>
      <trkpt lat="43.56418" lon="2.00718">
        <ele>297.3</ele>
        <time>2022-03-08T13:14:06Z</time>
      </trkpt>
      <trkpt lat="43.56417" lon="2.00717">
        <ele>297.3</ele>
        <time>2022-03-08T13:14:07Z</time>
      </trkpt>
      <trkpt lat="43.56415" lon="2.00716">
        <ele>297.3</ele>
        <time>2022-03-08T13:14:08Z</time>
      </trkpt>
      <trkpt lat="43.56414" lon="2.00716">
        <ele>297.3</ele>
        <time>2022-03-08T13:14:09Z</time>
      </trkpt>
      <trkpt lat="43.56413" lon="2.00716">
        <ele>297.3</ele>
        <time>2022-03-08T13:14:10Z</time>
      </trkpt>
      <trkpt lat="43.56412" lon="2.00717">
        <ele>297.3</ele>
        <time>2022-03-08T13:14:11Z</time>
      </trkpt>
      <trkpt lat="43.5641" lon="2.00718">
        <ele>297.3</ele>
        <time>2022-03-08T13:14:13Z</time>
      </trkpt>
      <trkpt lat="43.56409" lon="2.00719">
        <ele>297.3</ele>
        <time>2022-03-08T13:14:14Z</time>
      </trkpt>
      <trkpt lat="43.56408" lon="2.00719">
        <ele>297.3</ele>
        <time>2022-03-08T13:14:15Z</time>
      </trkpt>
      <trkpt lat="43.56407" lon="2.0072">
        <ele>297.3</ele>
        <time>2022-03-08T13:14:16Z</time>
      </trkpt>
      <trkpt lat="43.56405" lon="2.00721">
        <ele>297.3</ele>
        <time>2022-03-08T13:14:17Z</time>
      </trkpt>
      <trkpt lat="43.56404" lon="2.00721">
        <ele>297.3</ele>
        <time>2022-03-08T13:14:18Z</time>
      </trkpt>
      <trkpt lat="43.56403" lon="2.00722">
        <ele>297.3</ele>
        <time>2022-03-08T13:14:19Z</time>
      </trkpt>
      <trkpt lat="43.56402" lon="2.00722">
        <ele>297.3</ele>
        <time>2022-03-08T13:14:20Z</time>
      </trkpt>
      <trkpt lat="43.564" lon="2.00723">
        <ele>297.3</ele>
        <time>2022-03-08T13:14:21Z</time>
      </trkpt>
      <trkpt lat="43.56399" lon="2.00724">
        <ele>297.2</ele>
        <time>2022-03-08T13:14:22Z</time>
      </trkpt>
      <trkpt lat="43.56399" lon="2.00724">
        <ele>297.2</ele>
        <time>2022-03-08T13:14:23Z</time>
      </trkpt>
      <trkpt lat="43.56397" lon="2.00725">
        <ele>297.2</ele>
        <time>2022-03-08T13:14:24Z</time>
      </trkpt>
      <trkpt lat="43.56396" lon="2.00725">
        <ele>297.2</ele>
        <time>2022-03-08T13:14:25Z</time>
      </trkpt>
      <trkpt lat="43.56395" lon="2.00725">
        <ele>297.2</ele>
        <time>2022-03-08T13:14:26Z</time>
      </trkpt>
      <trkpt lat="43.56393" lon="2.00726">
        <ele>297.2</ele>
        <time>2022-03-08T13:14:28Z</time>
      </trkpt>
      <trkpt lat="43.56392" lon="2.00726">
        <ele>297.2</ele>
        <time>2022-03-08T13:14:29Z</time>
      </trkpt>
      <trkpt lat="43.56391" lon="2.00727">
        <ele>297.2</ele>
        <time>2022-03-08T13:14:30Z</time>
      </trkpt>
      <trkpt lat="43.5639" lon="2.00727">
        <ele>297.2</ele>
        <time>2022-03-08T13:14:31Z</time>
      </trkpt>
      <trkpt lat="43.56389" lon="2.00728">
        <ele>297.2</ele>
        <time>2022-03-08T13:14:32Z</time>
      </trkpt>
      <trkpt lat="43.56388" lon="2.00728">
        <ele>297.2</ele>
        <time>2022-03-08T13:14:33Z</time>
      </trkpt>
      <trkpt lat="43.56387" lon="2.00729">
        <ele>297.2</ele>
        <time>2022-03-08T13:14:34Z</time>
      </trkpt>
      <trkpt lat="43.56386" lon="2.00729">
        <ele>297.2</ele>
        <time>2022-03-08T13:14:35Z</time>
      </trkpt>
      <trkpt lat="43.56385" lon="2.0073">
        <ele>297.2</ele>
        <time>2022-03-08T13:14:36Z</time>
      </trkpt>
      <trkpt lat="43.56383" lon="2.00731">
        <ele>297.2</ele>
        <time>2022-03-08T13:14:38Z</time>
      </trkpt>
      <trkpt lat="43.56382" lon="2.00731">
        <ele>297.2</ele>
        <time>2022-03-08T13:14:39Z</time>
      </trkpt>
      <trkpt lat="43.5638" lon="2.00731">
        <ele>297.2</ele>
        <time>2022-03-08T13:14:40Z</time>
      </trkpt>
      <trkpt lat="43.56379" lon="2.00731">
        <ele>297.2</ele>
        <time>2022-03-08T13:14:41Z</time>
      </trkpt>
      <trkpt lat="43.56377" lon="2.00731">
        <ele>297.2</ele>
        <time>2022-03-08T13:14:42Z</time>
      </trkpt>
      <trkpt lat="43.56376" lon="2.00731">
        <ele>297.2</ele>
        <time>2022-03-08T13:14:43Z</time>
      </trkpt>
      <trkpt lat="43.56375" lon="2.00731">
        <ele>297.2</ele>
        <time>2022-03-08T13:14:44Z</time>
      </trkpt>
      <trkpt lat="43.56373" lon="2.00731">
        <ele>297.2</ele>
        <time>2022-03-08T13:14:45Z</time>
      </trkpt>
      <trkpt lat="43.56372" lon="2.00731">
        <ele>297.1</ele>
        <time>2022-03-08T13:14:46Z</time>
      </trkpt>
      <trkpt lat="43.5637" lon="2.00732">
        <ele>297.1</ele>
        <time>2022-03-08T13:14:47Z</time>
      </trkpt>
      <trkpt lat="43.56369" lon="2.00732">
        <ele>297.1</ele>
        <time>2022-03-08T13:14:48Z</time>
      </trkpt>
      <trkpt lat="43.56368" lon="2.00733">
        <ele>297.1</ele>
        <time>2022-03-08T13:14:49Z</time>
      </trkpt>
      <trkpt lat="43.56366" lon="2.00734">
        <ele>297.1</ele>
        <time>2022-03-08T13:14:51Z</time>
      </trkpt>
      <trkpt lat="43.56365" lon="2.00734">
        <ele>297.1</ele>
        <time>2022-03-08T13:14:52Z</time>
      </trkpt>
      <trkpt lat="43.56363" lon="2.00735">
        <ele>297.1</ele>
        <time>2022-03-08T13:14:53Z</time>
      </trkpt>
      <trkpt lat="43.56361" lon="2.00737">
        <ele>297.1</ele>
        <time>2022-03-08T13:14:54Z</time>
      </trkpt>
      <trkpt lat="43.56361" lon="2.00737">
        <ele>297.1</ele>
        <time>2022-03-08T13:14:55Z</time>
      </trkpt>
      <trkpt lat="43.5636" lon="2.00738">
        <ele>297.1</ele>
        <time>2022-03-08T13:14:56Z</time>
      </trkpt>
      <trkpt lat="43.56358" lon="2.00739">
        <ele>297.1</ele>
        <time>2022-03-08T13:14:57Z</time>
      </trkpt>
      <trkpt lat="43.56357" lon="2.00739">
        <ele>297.1</ele>
        <time>2022-03-08T13:14:58Z</time>
      </trkpt>
      <trkpt lat="43.56356" lon="2.0074">
        <ele>297.1</ele>
        <time>2022-03-08T13:14:59Z</time>
      </trkpt>
      <trkpt lat="43.56354" lon="2.0074">
        <ele>297.1</ele>
        <time>2022-03-08T13:15:01Z</time>
      </trkpt>
      <trkpt lat="43.56352" lon="2.0074">
        <ele>297.1</ele>
        <time>2022-03-08T13:15:02Z</time>
      </trkpt>
      <trkpt lat="43.56351" lon="2.0074">
        <ele>297.1</ele>
        <time>2022-03-08T13:15:03Z</time>
      </trkpt>
      <trkpt lat="43.56348" lon="2.00739">
        <ele>297.1</ele>
        <time>2022-03-08T13:15:04Z</time>
      </trkpt>
      <trkpt lat="43.56348" lon="2.00739">
        <ele>297.1</ele>
        <time>2022-03-08T13:15:06Z</time>
      </trkpt>
      <trkpt lat="43.56347" lon="2.00739">
        <ele>297.1</ele>
        <time>2022-03-08T13:15:07Z</time>
      </trkpt>
      <trkpt lat="43.56346" lon="2.00739">
        <ele>297.1</ele>
        <time>2022-03-08T13:15:08Z</time>
      </trkpt>
      <trkpt lat="43.56346" lon="2.00739">
        <ele>297.1</ele>
        <time>2022-03-08T13:15:09Z</time>
      </trkpt>
      <trkpt lat="43.56345" lon="2.00739">
        <ele>297.1</ele>
        <time>2022-03-08T13:15:10Z</time>
      </trkpt>
      <trkpt lat="43.56345" lon="2.00739">
        <ele>297.1</ele>
        <time>2022-03-08T13:15:11Z</time>
      </trkpt>
      <trkpt lat="43.56344" lon="2.00739">
        <ele>297.1</ele>
        <time>2022-03-08T13:15:12Z</time>
      </trkpt>
      <trkpt lat="43.56344" lon="2.00739">
        <ele>297.1</ele>
        <time>2022-03-08T13:15:13Z</time>
      </trkpt>
      <trkpt lat="43.56341" lon="2.0074">
        <ele>297.1</ele>
        <time>2022-03-08T13:15:14Z</time>
      </trkpt>
      <trkpt lat="43.56341" lon="2.00741">
        <ele>297.1</ele>
        <time>2022-03-08T13:15:15Z</time>
      </trkpt>
      <trkpt lat="43.5634" lon="2.00741">
        <ele>297.1</ele>
        <time>2022-03-08T13:15:16Z</time>
      </trkpt>
      <trkpt lat="43.56339" lon="2.00742">
        <ele>297.1</ele>
        <time>2022-03-08T13:15:17Z</time>
      </trkpt>
      <trkpt lat="43.56338" lon="2.00743">
        <ele>297.1</ele>
        <time>2022-03-08T13:15:18Z</time>
      </trkpt>
      <trkpt lat="43.56337" lon="2.00743">
        <ele>297.2</ele>
        <time>2022-03-08T13:15:19Z</time>
      </trkpt>
      <trkpt lat="43.56334" lon="2.00745">
        <ele>297.2</ele>
        <time>2022-03-08T13:15:20Z</time>
      </trkpt>
      <trkpt lat="43.56333" lon="2.00745">
        <ele>297.2</ele>
        <time>2022-03-08T13:15:22Z</time>
      </trkpt>
      <trkpt lat="43.56332" lon="2.00746">
        <ele>297.2</ele>
        <time>2022-03-08T13:15:23Z</time>
      </trkpt>
      <trkpt lat="43.56332" lon="2.00746">
        <ele>297.2</ele>
        <time>2022-03-08T13:15:24Z</time>
      </trkpt>
      <trkpt lat="43.56331" lon="2.00746">
        <ele>297.2</ele>
        <time>2022-03-08T13:15:25Z</time>
      </trkpt>
      <trkpt lat="43.56329" lon="2.00747">
        <ele>297.2</ele>
        <time>2022-03-08T13:15:26Z</time>
      </trkpt>
      <trkpt lat="43.56327" lon="2.00747">
        <ele>297.2</ele>
        <time>2022-03-08T13:15:27Z</time>
      </trkpt>
      <trkpt lat="43.56325" lon="2.00747">
        <ele>297.2</ele>
        <time>2022-03-08T13:15:28Z</time>
      </trkpt>
      <trkpt lat="43.56324" lon="2.00747">
        <ele>297.2</ele>
        <time>2022-03-08T13:15:29Z</time>
      </trkpt>
      <trkpt lat="43.56323" lon="2.00747">
        <ele>297.2</ele>
        <time>2022-03-08T13:15:30Z</time>
      </trkpt>
      <trkpt lat="43.5632" lon="2.00747">
        <ele>297.2</ele>
        <time>2022-03-08T13:15:32Z</time>
      </trkpt>
      <trkpt lat="43.56319" lon="2.00747">
        <ele>297.2</ele>
        <time>2022-03-08T13:15:33Z</time>
      </trkpt>
      <trkpt lat="43.56318" lon="2.00746">
        <ele>297.2</ele>
        <time>2022-03-08T13:15:34Z</time>
      </trkpt>
      <trkpt lat="43.56317" lon="2.00746">
        <ele>297.2</ele>
        <time>2022-03-08T13:15:35Z</time>
      </trkpt>
      <trkpt lat="43.56316" lon="2.00746">
        <ele>297.3</ele>
        <time>2022-03-08T13:15:36Z</time>
      </trkpt>
      <trkpt lat="43.56314" lon="2.00746">
        <ele>297.3</ele>
        <time>2022-03-08T13:15:37Z</time>
      </trkpt>
      <trkpt lat="43.56313" lon="2.00746">
        <ele>297.3</ele>
        <time>2022-03-08T13:15:38Z</time>
      </trkpt>
      <trkpt lat="43.5631" lon="2.00747">
        <ele>297.3</ele>
        <time>2022-03-08T13:15:39Z</time>
      </trkpt>
      <trkpt lat="43.56309" lon="2.00747">
        <ele>297.3</ele>
        <time>2022-03-08T13:15:41Z</time>
      </trkpt>
      <trkpt lat="43.56308" lon="2.00747">
        <ele>297.3</ele>
        <time>2022-03-08T13:15:43Z</time>
      </trkpt>
      <trkpt lat="43.56307" lon="2.00748">
        <ele>297.4</ele>
        <time>2022-03-08T13:15:44Z</time>
      </trkpt>
      <trkpt lat="43.56306" lon="2.00748">
        <ele>297.4</ele>
        <time>2022-03-08T13:15:45Z</time>
      </trkpt>
      <trkpt lat="43.56305" lon="2.00749">
        <ele>297.4</ele>
        <time>2022-03-08T13:15:46Z</time>
      </trkpt>
      <trkpt lat="43.56304" lon="2.00749">
        <ele>297.4</ele>
        <time>2022-03-08T13:15:47Z</time>
      </trkpt>
      <trkpt lat="43.56303" lon="2.0075">
        <ele>297.4</ele>
        <time>2022-03-08T13:15:48Z</time>
      </trkpt>
      <trkpt lat="43.56302" lon="2.00751">
        <ele>297.4</ele>
        <time>2022-03-08T13:15:49Z</time>
      </trkpt>
      <trkpt lat="43.563" lon="2.00753">
        <ele>297.5</ele>
        <time>2022-03-08T13:15:51Z</time>
      </trkpt>
      <trkpt lat="43.56299" lon="2.00754">
        <ele>297.5</ele>
        <time>2022-03-08T13:15:52Z</time>
      </trkpt>
      <trkpt lat="43.56299" lon="2.00755">
        <ele>297.5</ele>
        <time>2022-03-08T13:15:53Z</time>
      </trkpt>
      <trkpt lat="43.56298" lon="2.00756">
        <ele>297.5</ele>
        <time>2022-03-08T13:15:54Z</time>
      </trkpt>
      <trkpt lat="43.56297" lon="2.00757">
        <ele>297.5</ele>
        <time>2022-03-08T13:15:55Z</time>
      </trkpt>
      <trkpt lat="43.56295" lon="2.00758">
        <ele>297.6</ele>
        <time>2022-03-08T13:15:56Z</time>
      </trkpt>
      <trkpt lat="43.56294" lon="2.00759">
        <ele>297.6</ele>
        <time>2022-03-08T13:15:58Z</time>
      </trkpt>
      <trkpt lat="43.56293" lon="2.00759">
        <ele>297.6</ele>
        <time>2022-03-08T13:15:59Z</time>
      </trkpt>
      <trkpt lat="43.56292" lon="2.00759">
        <ele>297.6</ele>
        <time>2022-03-08T13:16:00Z</time>
      </trkpt>
      <trkpt lat="43.56291" lon="2.00759">
        <ele>297.7</ele>
        <time>2022-03-08T13:16:01Z</time>
      </trkpt>
      <trkpt lat="43.5629" lon="2.00759">
        <ele>297.7</ele>
        <time>2022-03-08T13:16:02Z</time>
      </trkpt>
      <trkpt lat="43.56289" lon="2.00759">
        <ele>297.7</ele>
        <time>2022-03-08T13:16:03Z</time>
      </trkpt>
      <trkpt lat="43.56287" lon="2.00759">
        <ele>297.7</ele>
        <time>2022-03-08T13:16:04Z</time>
      </trkpt>
      <trkpt lat="43.56286" lon="2.0076">
        <ele>297.7</ele>
        <time>2022-03-08T13:16:05Z</time>
      </trkpt>
      <trkpt lat="43.56285" lon="2.0076">
        <ele>297.8</ele>
        <time>2022-03-08T13:16:06Z</time>
      </trkpt>
      <trkpt lat="43.56283" lon="2.0076">
        <ele>297.8</ele>
        <time>2022-03-08T13:16:07Z</time>
      </trkpt>
      <trkpt lat="43.56282" lon="2.00761">
        <ele>297.8</ele>
        <time>2022-03-08T13:16:08Z</time>
      </trkpt>
      <trkpt lat="43.56282" lon="2.00761">
        <ele>297.8</ele>
        <time>2022-03-08T13:16:09Z</time>
      </trkpt>
      <trkpt lat="43.5628" lon="2.00761">
        <ele>297.8</ele>
        <time>2022-03-08T13:16:10Z</time>
      </trkpt>
      <trkpt lat="43.56279" lon="2.00762">
        <ele>297.9</ele>
        <time>2022-03-08T13:16:11Z</time>
      </trkpt>
      <trkpt lat="43.56278" lon="2.00762">
        <ele>297.9</ele>
        <time>2022-03-08T13:16:12Z</time>
      </trkpt>
      <trkpt lat="43.56277" lon="2.00763">
        <ele>297.9</ele>
        <time>2022-03-08T13:16:13Z</time>
      </trkpt>
      <trkpt lat="43.56275" lon="2.00764">
        <ele>297.9</ele>
        <time>2022-03-08T13:16:15Z</time>
      </trkpt>
      <trkpt lat="43.56274" lon="2.00765">
        <ele>298</ele>
        <time>2022-03-08T13:16:16Z</time>
      </trkpt>
      <trkpt lat="43.56273" lon="2.00765">
        <ele>298</ele>
        <time>2022-03-08T13:16:17Z</time>
      </trkpt>
      <trkpt lat="43.56272" lon="2.00766">
        <ele>298</ele>
        <time>2022-03-08T13:16:18Z</time>
      </trkpt>
      <trkpt lat="43.5627" lon="2.00767">
        <ele>298</ele>
        <time>2022-03-08T13:16:19Z</time>
      </trkpt>
      <trkpt lat="43.56269" lon="2.00768">
        <ele>298.1</ele>
        <time>2022-03-08T13:16:20Z</time>
      </trkpt>
      <trkpt lat="43.56268" lon="2.00768">
        <ele>298.1</ele>
        <time>2022-03-08T13:16:21Z</time>
      </trkpt>
      <trkpt lat="43.56266" lon="2.00769">
        <ele>298.1</ele>
        <time>2022-03-08T13:16:23Z</time>
      </trkpt>
      <trkpt lat="43.56265" lon="2.00769">
        <ele>298.1</ele>
        <time>2022-03-08T13:16:24Z</time>
      </trkpt>
      <trkpt lat="43.56264" lon="2.00769">
        <ele>298.2</ele>
        <time>2022-03-08T13:16:25Z</time>
      </trkpt>
      <trkpt lat="43.56262" lon="2.0077">
        <ele>298.2</ele>
        <time>2022-03-08T13:16:26Z</time>
      </trkpt>
      <trkpt lat="43.56261" lon="2.0077">
        <ele>298.2</ele>
        <time>2022-03-08T13:16:27Z</time>
      </trkpt>
      <trkpt lat="43.56259" lon="2.0077">
        <ele>298.2</ele>
        <time>2022-03-08T13:16:28Z</time>
      </trkpt>
      <trkpt lat="43.56258" lon="2.0077">
        <ele>298.3</ele>
        <time>2022-03-08T13:16:29Z</time>
      </trkpt>
      <trkpt lat="43.56256" lon="2.0077">
        <ele>298.3</ele>
        <time>2022-03-08T13:16:30Z</time>
      </trkpt>
      <trkpt lat="43.56255" lon="2.00769">
        <ele>298.3</ele>
        <time>2022-03-08T13:16:31Z</time>
      </trkpt>
      <trkpt lat="43.56254" lon="2.00769">
        <ele>298.3</ele>
        <time>2022-03-08T13:16:32Z</time>
      </trkpt>
      <trkpt lat="43.56251" lon="2.00769">
        <ele>298.4</ele>
        <time>2022-03-08T13:16:33Z</time>
      </trkpt>
      <trkpt lat="43.56251" lon="2.00769">
        <ele>298.4</ele>
        <time>2022-03-08T13:16:34Z</time>
      </trkpt>
      <trkpt lat="43.5625" lon="2.00768">
        <ele>298.4</ele>
        <time>2022-03-08T13:16:35Z</time>
      </trkpt>
      <trkpt lat="43.56248" lon="2.00768">
        <ele>298.4</ele>
        <time>2022-03-08T13:16:37Z</time>
      </trkpt>
      <trkpt lat="43.56247" lon="2.00769">
        <ele>298.4</ele>
        <time>2022-03-08T13:16:38Z</time>
      </trkpt>
      <trkpt lat="43.56245" lon="2.00769">
        <ele>298.5</ele>
        <time>2022-03-08T13:16:39Z</time>
      </trkpt>
      <trkpt lat="43.56244" lon="2.00769">
        <ele>298.5</ele>
        <time>2022-03-08T13:16:40Z</time>
      </trkpt>
      <trkpt lat="43.56243" lon="2.0077">
        <ele>298.5</ele>
        <time>2022-03-08T13:16:41Z</time>
      </trkpt>
      <trkpt lat="43.56241" lon="2.0077">
        <ele>298.5</ele>
        <time>2022-03-08T13:16:43Z</time>
      </trkpt>
      <trkpt lat="43.56241" lon="2.00771">
        <ele>298.5</ele>
        <time>2022-03-08T13:16:44Z</time>
      </trkpt>
      <trkpt lat="43.56239" lon="2.00772">
        <ele>298.5</ele>
        <time>2022-03-08T13:16:45Z</time>
      </trkpt>
      <trkpt lat="43.56238" lon="2.00773">
        <ele>298.5</ele>
        <time>2022-03-08T13:16:46Z</time>
      </trkpt>
      <trkpt lat="43.56238" lon="2.00773">
        <ele>298.5</ele>
        <time>2022-03-08T13:16:47Z</time>
      </trkpt>
      <trkpt lat="43.56237" lon="2.00774">
        <ele>298.5</ele>
        <time>2022-03-08T13:16:48Z</time>
      </trkpt>
      <trkpt lat="43.56236" lon="2.00775">
        <ele>298.6</ele>
        <time>2022-03-08T13:16:49Z</time>
      </trkpt>
      <trkpt lat="43.56235" lon="2.00776">
        <ele>298.6</ele>
        <time>2022-03-08T13:16:50Z</time>
      </trkpt>
      <trkpt lat="43.56233" lon="2.00777">
        <ele>298.6</ele>
        <time>2022-03-08T13:16:51Z</time>
      </trkpt>
      <trkpt lat="43.56232" lon="2.00778">
        <ele>298.6</ele>
        <time>2022-03-08T13:16:52Z</time>
      </trkpt>
      <trkpt lat="43.56231" lon="2.00778">
        <ele>298.6</ele>
        <time>2022-03-08T13:16:53Z</time>
      </trkpt>
      <trkpt lat="43.56229" lon="2.00779">
        <ele>298.6</ele>
        <time>2022-03-08T13:16:54Z</time>
      </trkpt>
      <trkpt lat="43.56229" lon="2.0078">
        <ele>298.6</ele>
        <time>2022-03-08T13:16:55Z</time>
      </trkpt>
      <trkpt lat="43.56228" lon="2.0078">
        <ele>298.5</ele>
        <time>2022-03-08T13:16:56Z</time>
      </trkpt>
      <trkpt lat="43.56227" lon="2.0078">
        <ele>298.5</ele>
        <time>2022-03-08T13:16:57Z</time>
      </trkpt>
      <trkpt lat="43.56226" lon="2.00781">
        <ele>298.5</ele>
        <time>2022-03-08T13:16:58Z</time>
      </trkpt>
      <trkpt lat="43.56225" lon="2.00781">
        <ele>298.5</ele>
        <time>2022-03-08T13:16:59Z</time>
      </trkpt>
      <trkpt lat="43.56224" lon="2.00781">
        <ele>298.5</ele>
        <time>2022-03-08T13:17:00Z</time>
      </trkpt>
      <trkpt lat="43.56223" lon="2.00781">
        <ele>298.5</ele>
        <time>2022-03-08T13:17:01Z</time>
      </trkpt>
      <trkpt lat="43.56222" lon="2.00781">
        <ele>298.5</ele>
        <time>2022-03-08T13:17:02Z</time>
      </trkpt>
      <trkpt lat="43.56221" lon="2.00781">
        <ele>298.5</ele>
        <time>2022-03-08T13:17:03Z</time>
      </trkpt>
      <trkpt lat="43.5622" lon="2.00781">
        <ele>298.5</ele>
        <time>2022-03-08T13:17:04Z</time>
      </trkpt>
      <trkpt lat="43.56219" lon="2.00781">
        <ele>298.5</ele>
        <time>2022-03-08T13:17:05Z</time>
      </trkpt>
      <trkpt lat="43.56216" lon="2.00782">
        <ele>298.5</ele>
        <time>2022-03-08T13:17:06Z</time>
      </trkpt>
      <trkpt lat="43.56215" lon="2.00783">
        <ele>298.5</ele>
        <time>2022-03-08T13:17:08Z</time>
      </trkpt>
      <trkpt lat="43.56214" lon="2.00783">
        <ele>298.5</ele>
        <time>2022-03-08T13:17:09Z</time>
      </trkpt>
      <trkpt lat="43.56213" lon="2.00784">
        <ele>298.5</ele>
        <time>2022-03-08T13:17:10Z</time>
      </trkpt>
      <trkpt lat="43.56212" lon="2.00784">
        <ele>298.5</ele>
        <time>2022-03-08T13:17:11Z</time>
      </trkpt>
      <trkpt lat="43.5621" lon="2.00785">
        <ele>298.5</ele>
        <time>2022-03-08T13:17:13Z</time>
      </trkpt>
      <trkpt lat="43.56209" lon="2.00785">
        <ele>298.6</ele>
        <time>2022-03-08T13:17:14Z</time>
      </trkpt>
      <trkpt lat="43.56207" lon="2.00785">
        <ele>298.6</ele>
        <time>2022-03-08T13:17:15Z</time>
      </trkpt>
      <trkpt lat="43.56205" lon="2.00786">
        <ele>298.6</ele>
        <time>2022-03-08T13:17:16Z</time>
      </trkpt>
      <trkpt lat="43.56204" lon="2.00786">
        <ele>298.6</ele>
        <time>2022-03-08T13:17:17Z</time>
      </trkpt>
      <trkpt lat="43.56203" lon="2.00786">
        <ele>298.6</ele>
        <time>2022-03-08T13:17:18Z</time>
      </trkpt>
      <trkpt lat="43.56202" lon="2.00787">
        <ele>298.6</ele>
        <time>2022-03-08T13:17:19Z</time>
      </trkpt>
      <trkpt lat="43.562" lon="2.00787">
        <ele>298.6</ele>
        <time>2022-03-08T13:17:20Z</time>
      </trkpt>
      <trkpt lat="43.56199" lon="2.00788">
        <ele>298.6</ele>
        <time>2022-03-08T13:17:22Z</time>
      </trkpt>
      <trkpt lat="43.56197" lon="2.00788">
        <ele>298.6</ele>
        <time>2022-03-08T13:17:23Z</time>
      </trkpt>
      <trkpt lat="43.56196" lon="2.00789">
        <ele>298.6</ele>
        <time>2022-03-08T13:17:24Z</time>
      </trkpt>
      <trkpt lat="43.56195" lon="2.00789">
        <ele>298.6</ele>
        <time>2022-03-08T13:17:25Z</time>
      </trkpt>
      <trkpt lat="43.56193" lon="2.00789">
        <ele>298.6</ele>
        <time>2022-03-08T13:17:26Z</time>
      </trkpt>
      <trkpt lat="43.56192" lon="2.0079">
        <ele>298.6</ele>
        <time>2022-03-08T13:17:27Z</time>
      </trkpt>
      <trkpt lat="43.56189" lon="2.00791">
        <ele>298.7</ele>
        <time>2022-03-08T13:17:28Z</time>
      </trkpt>
      <trkpt lat="43.56188" lon="2.00791">
        <ele>298.7</ele>
        <time>2022-03-08T13:17:29Z</time>
      </trkpt>
      <trkpt lat="43.56188" lon="2.00791">
        <ele>298.7</ele>
        <time>2022-03-08T13:17:30Z</time>
      </trkpt>
      <trkpt lat="43.56186" lon="2.00792">
        <ele>298.7</ele>
        <time>2022-03-08T13:17:32Z</time>
      </trkpt>
      <trkpt lat="43.56185" lon="2.00793">
        <ele>298.7</ele>
        <time>2022-03-08T13:17:33Z</time>
      </trkpt>
      <trkpt lat="43.56184" lon="2.00793">
        <ele>298.7</ele>
        <time>2022-03-08T13:17:34Z</time>
      </trkpt>
      <trkpt lat="43.56182" lon="2.00793">
        <ele>298.7</ele>
        <time>2022-03-08T13:17:35Z</time>
      </trkpt>
      <trkpt lat="43.56181" lon="2.00794">
        <ele>298.7</ele>
        <time>2022-03-08T13:17:37Z</time>
      </trkpt>
      <trkpt lat="43.5618" lon="2.00794">
        <ele>298.7</ele>
        <time>2022-03-08T13:17:38Z</time>
      </trkpt>
      <trkpt lat="43.56178" lon="2.00795">
        <ele>298.7</ele>
        <time>2022-03-08T13:17:39Z</time>
      </trkpt>
      <trkpt lat="43.56177" lon="2.00795">
        <ele>298.7</ele>
        <time>2022-03-08T13:17:40Z</time>
      </trkpt>
      <trkpt lat="43.56176" lon="2.00796">
        <ele>298.7</ele>
        <time>2022-03-08T13:17:41Z</time>
      </trkpt>
      <trkpt lat="43.56175" lon="2.00797">
        <ele>298.7</ele>
        <time>2022-03-08T13:17:42Z</time>
      </trkpt>
      <trkpt lat="43.56174" lon="2.00797">
        <ele>298.7</ele>
        <time>2022-03-08T13:17:43Z</time>
      </trkpt>
      <trkpt lat="43.56173" lon="2.00797">
        <ele>298.8</ele>
        <time>2022-03-08T13:17:44Z</time>
      </trkpt>
      <trkpt lat="43.56171" lon="2.00798">
        <ele>298.8</ele>
        <time>2022-03-08T13:17:45Z</time>
      </trkpt>
      <trkpt lat="43.5617" lon="2.00798">
        <ele>298.8</ele>
        <time>2022-03-08T13:17:46Z</time>
      </trkpt>
      <trkpt lat="43.56169" lon="2.00799">
        <ele>298.8</ele>
        <time>2022-03-08T13:17:47Z</time>
      </trkpt>
      <trkpt lat="43.56168" lon="2.00798">
        <ele>298.8</ele>
        <time>2022-03-08T13:17:48Z</time>
      </trkpt>
      <trkpt lat="43.56166" lon="2.00798">
        <ele>298.8</ele>
        <time>2022-03-08T13:17:49Z</time>
      </trkpt>
      <trkpt lat="43.56165" lon="2.00798">
        <ele>298.8</ele>
        <time>2022-03-08T13:17:50Z</time>
      </trkpt>
      <trkpt lat="43.56163" lon="2.00798">
        <ele>298.8</ele>
        <time>2022-03-08T13:17:51Z</time>
      </trkpt>
      <trkpt lat="43.5616" lon="2.00798">
        <ele>298.9</ele>
        <time>2022-03-08T13:17:53Z</time>
      </trkpt>
      <trkpt lat="43.56158" lon="2.00798">
        <ele>298.9</ele>
        <time>2022-03-08T13:17:54Z</time>
      </trkpt>
      <trkpt lat="43.56157" lon="2.00798">
        <ele>298.9</ele>
        <time>2022-03-08T13:17:55Z</time>
      </trkpt>
      <trkpt lat="43.56155" lon="2.00798">
        <ele>298.9</ele>
        <time>2022-03-08T13:17:56Z</time>
      </trkpt>
      <trkpt lat="43.56154" lon="2.00798">
        <ele>298.9</ele>
        <time>2022-03-08T13:17:57Z</time>
      </trkpt>
      <trkpt lat="43.56153" lon="2.00798">
        <ele>298.9</ele>
        <time>2022-03-08T13:17:58Z</time>
      </trkpt>
      <trkpt lat="43.56152" lon="2.00798">
        <ele>299</ele>
        <time>2022-03-08T13:17:59Z</time>
      </trkpt>
      <trkpt lat="43.56151" lon="2.00799">
        <ele>299</ele>
        <time>2022-03-08T13:18:00Z</time>
      </trkpt>
      <trkpt lat="43.56149" lon="2.008">
        <ele>299</ele>
        <time>2022-03-08T13:18:02Z</time>
      </trkpt>
      <trkpt lat="43.56147" lon="2.00802">
        <ele>299</ele>
        <time>2022-03-08T13:18:04Z</time>
      </trkpt>
      <trkpt lat="43.56146" lon="2.00802">
        <ele>299.1</ele>
        <time>2022-03-08T13:18:05Z</time>
      </trkpt>
      <trkpt lat="43.56146" lon="2.00803">
        <ele>299.1</ele>
        <time>2022-03-08T13:18:06Z</time>
      </trkpt>
      <trkpt lat="43.56145" lon="2.00804">
        <ele>299.1</ele>
        <time>2022-03-08T13:18:07Z</time>
      </trkpt>
      <trkpt lat="43.56144" lon="2.00805">
        <ele>299.1</ele>
        <time>2022-03-08T13:18:08Z</time>
      </trkpt>
      <trkpt lat="43.56143" lon="2.00807">
        <ele>299.1</ele>
        <time>2022-03-08T13:18:09Z</time>
      </trkpt>
      <trkpt lat="43.56142" lon="2.00808">
        <ele>299.1</ele>
        <time>2022-03-08T13:18:10Z</time>
      </trkpt>
      <trkpt lat="43.56142" lon="2.00809">
        <ele>299.1</ele>
        <time>2022-03-08T13:18:11Z</time>
      </trkpt>
      <trkpt lat="43.5614" lon="2.0081">
        <ele>299.2</ele>
        <time>2022-03-08T13:18:12Z</time>
      </trkpt>
      <trkpt lat="43.56139" lon="2.00811">
        <ele>299.2</ele>
        <time>2022-03-08T13:18:14Z</time>
      </trkpt>
      <trkpt lat="43.56138" lon="2.00812">
        <ele>299.2</ele>
        <time>2022-03-08T13:18:15Z</time>
      </trkpt>
      <trkpt lat="43.56137" lon="2.00813">
        <ele>299.2</ele>
        <time>2022-03-08T13:18:16Z</time>
      </trkpt>
      <trkpt lat="43.56136" lon="2.00814">
        <ele>299.2</ele>
        <time>2022-03-08T13:18:17Z</time>
      </trkpt>
      <trkpt lat="43.56135" lon="2.00815">
        <ele>299.3</ele>
        <time>2022-03-08T13:18:18Z</time>
      </trkpt>
      <trkpt lat="43.56135" lon="2.00816">
        <ele>299.3</ele>
        <time>2022-03-08T13:18:19Z</time>
      </trkpt>
      <trkpt lat="43.56134" lon="2.00817">
        <ele>299.3</ele>
        <time>2022-03-08T13:18:20Z</time>
      </trkpt>
      <trkpt lat="43.56132" lon="2.00817">
        <ele>299.3</ele>
        <time>2022-03-08T13:18:21Z</time>
      </trkpt>
      <trkpt lat="43.56132" lon="2.00818">
        <ele>299.3</ele>
        <time>2022-03-08T13:18:22Z</time>
      </trkpt>
      <trkpt lat="43.56131" lon="2.00819">
        <ele>299.3</ele>
        <time>2022-03-08T13:18:23Z</time>
      </trkpt>
      <trkpt lat="43.5613" lon="2.00819">
        <ele>299.4</ele>
        <time>2022-03-08T13:18:24Z</time>
      </trkpt>
      <trkpt lat="43.5613" lon="2.0082">
        <ele>299.4</ele>
        <time>2022-03-08T13:18:25Z</time>
      </trkpt>
      <trkpt lat="43.56128" lon="2.00822">
        <ele>299.4</ele>
        <time>2022-03-08T13:18:26Z</time>
      </trkpt>
      <trkpt lat="43.56127" lon="2.00823">
        <ele>299.4</ele>
        <time>2022-03-08T13:18:28Z</time>
      </trkpt>
      <trkpt lat="43.56126" lon="2.00825">
        <ele>299.5</ele>
        <time>2022-03-08T13:18:29Z</time>
      </trkpt>
      <trkpt lat="43.56124" lon="2.00826">
        <ele>299.5</ele>
        <time>2022-03-08T13:18:30Z</time>
      </trkpt>
      <trkpt lat="43.56123" lon="2.00826">
        <ele>299.5</ele>
        <time>2022-03-08T13:18:31Z</time>
      </trkpt>
      <trkpt lat="43.56122" lon="2.00827">
        <ele>299.5</ele>
        <time>2022-03-08T13:18:32Z</time>
      </trkpt>
      <trkpt lat="43.5612" lon="2.00828">
        <ele>299.6</ele>
        <time>2022-03-08T13:18:33Z</time>
      </trkpt>
      <trkpt lat="43.56119" lon="2.00829">
        <ele>299.6</ele>
        <time>2022-03-08T13:18:35Z</time>
      </trkpt>
      <trkpt lat="43.56118" lon="2.0083">
        <ele>299.6</ele>
        <time>2022-03-08T13:18:36Z</time>
      </trkpt>
      <trkpt lat="43.56116" lon="2.00831">
        <ele>299.6</ele>
        <time>2022-03-08T13:18:37Z</time>
      </trkpt>
      <trkpt lat="43.56115" lon="2.00831">
        <ele>299.7</ele>
        <time>2022-03-08T13:18:38Z</time>
      </trkpt>
      <trkpt lat="43.56114" lon="2.00831">
        <ele>299.7</ele>
        <time>2022-03-08T13:18:39Z</time>
      </trkpt>
      <trkpt lat="43.56112" lon="2.00831">
        <ele>299.7</ele>
        <time>2022-03-08T13:18:40Z</time>
      </trkpt>
      <trkpt lat="43.56111" lon="2.00831">
        <ele>299.7</ele>
        <time>2022-03-08T13:18:41Z</time>
      </trkpt>
      <trkpt lat="43.5611" lon="2.00829">
        <ele>299.8</ele>
        <time>2022-03-08T13:18:42Z</time>
      </trkpt>
      <trkpt lat="43.56109" lon="2.0083">
        <ele>299.8</ele>
        <time>2022-03-08T13:18:43Z</time>
      </trkpt>
      <trkpt lat="43.56108" lon="2.0083">
        <ele>299.8</ele>
        <time>2022-03-08T13:18:44Z</time>
      </trkpt>
      <trkpt lat="43.56107" lon="2.00831">
        <ele>299.9</ele>
        <time>2022-03-08T13:18:46Z</time>
      </trkpt>
      <trkpt lat="43.56106" lon="2.00831">
        <ele>299.9</ele>
        <time>2022-03-08T13:18:47Z</time>
      </trkpt>
      <trkpt lat="43.56104" lon="2.00832">
        <ele>299.9</ele>
        <time>2022-03-08T13:18:48Z</time>
      </trkpt>
      <trkpt lat="43.56103" lon="2.00832">
        <ele>299.9</ele>
        <time>2022-03-08T13:18:49Z</time>
      </trkpt>
      <trkpt lat="43.56101" lon="2.00833">
        <ele>300</ele>
        <time>2022-03-08T13:18:50Z</time>
      </trkpt>
      <trkpt lat="43.561" lon="2.00833">
        <ele>300</ele>
        <time>2022-03-08T13:18:51Z</time>
      </trkpt>
      <trkpt lat="43.561" lon="2.00833">
        <ele>300</ele>
        <time>2022-03-08T13:18:52Z</time>
      </trkpt>
      <trkpt lat="43.56098" lon="2.00834">
        <ele>300.1</ele>
        <time>2022-03-08T13:18:53Z</time>
      </trkpt>
      <trkpt lat="43.56097" lon="2.00835">
        <ele>300.1</ele>
        <time>2022-03-08T13:18:54Z</time>
      </trkpt>
      <trkpt lat="43.56095" lon="2.00837">
        <ele>300.1</ele>
        <time>2022-03-08T13:18:55Z</time>
      </trkpt>
      <trkpt lat="43.56094" lon="2.00838">
        <ele>300.2</ele>
        <time>2022-03-08T13:18:56Z</time>
      </trkpt>
      <trkpt lat="43.56093" lon="2.00838">
        <ele>300.2</ele>
        <time>2022-03-08T13:18:57Z</time>
      </trkpt>
      <trkpt lat="43.56092" lon="2.00839">
        <ele>300.2</ele>
        <time>2022-03-08T13:18:59Z</time>
      </trkpt>
      <trkpt lat="43.56091" lon="2.0084">
        <ele>300.2</ele>
        <time>2022-03-08T13:19:00Z</time>
      </trkpt>
      <trkpt lat="43.5609" lon="2.00843">
        <ele>300.3</ele>
        <time>2022-03-08T13:19:01Z</time>
      </trkpt>
      <trkpt lat="43.56089" lon="2.00843">
        <ele>300.3</ele>
        <time>2022-03-08T13:19:02Z</time>
      </trkpt>
      <trkpt lat="43.56088" lon="2.00844">
        <ele>300.3</ele>
        <time>2022-03-08T13:19:03Z</time>
      </trkpt>
      <trkpt lat="43.56087" lon="2.00846">
        <ele>300.4</ele>
        <time>2022-03-08T13:19:04Z</time>
      </trkpt>
      <trkpt lat="43.56086" lon="2.00847">
        <ele>300.4</ele>
        <time>2022-03-08T13:19:05Z</time>
      </trkpt>
      <trkpt lat="43.56085" lon="2.00848">
        <ele>300.4</ele>
        <time>2022-03-08T13:19:06Z</time>
      </trkpt>
      <trkpt lat="43.56084" lon="2.00849">
        <ele>300.4</ele>
        <time>2022-03-08T13:19:07Z</time>
      </trkpt>
      <trkpt lat="43.56083" lon="2.00849">
        <ele>300.4</ele>
        <time>2022-03-08T13:19:08Z</time>
      </trkpt>
      <trkpt lat="43.56083" lon="2.0085">
        <ele>300.4</ele>
        <time>2022-03-08T13:19:09Z</time>
      </trkpt>
      <trkpt lat="43.56081" lon="2.00851">
        <ele>300.5</ele>
        <time>2022-03-08T13:19:11Z</time>
      </trkpt>
      <trkpt lat="43.5608" lon="2.00852">
        <ele>300.5</ele>
        <time>2022-03-08T13:19:12Z</time>
      </trkpt>
      <trkpt lat="43.56079" lon="2.00852">
        <ele>300.5</ele>
        <time>2022-03-08T13:19:13Z</time>
      </trkpt>
      <trkpt lat="43.56079" lon="2.00853">
        <ele>300.5</ele>
        <time>2022-03-08T13:19:14Z</time>
      </trkpt>
      <trkpt lat="43.56077" lon="2.00854">
        <ele>300.5</ele>
        <time>2022-03-08T13:19:15Z</time>
      </trkpt>
      <trkpt lat="43.56076" lon="2.00854">
        <ele>300.5</ele>
        <time>2022-03-08T13:19:16Z</time>
      </trkpt>
      <trkpt lat="43.56075" lon="2.00855">
        <ele>300.5</ele>
        <time>2022-03-08T13:19:17Z</time>
      </trkpt>
      <trkpt lat="43.56074" lon="2.00856">
        <ele>300.5</ele>
        <time>2022-03-08T13:19:18Z</time>
      </trkpt>
      <trkpt lat="43.56073" lon="2.00857">
        <ele>300.5</ele>
        <time>2022-03-08T13:19:19Z</time>
      </trkpt>
      <trkpt lat="43.56071" lon="2.00857">
        <ele>300.6</ele>
        <time>2022-03-08T13:19:20Z</time>
      </trkpt>
      <trkpt lat="43.5607" lon="2.00858">
        <ele>300.6</ele>
        <time>2022-03-08T13:19:22Z</time>
      </trkpt>
      <trkpt lat="43.56067" lon="2.00859">
        <ele>300.6</ele>
        <time>2022-03-08T13:19:23Z</time>
      </trkpt>
      <trkpt lat="43.56066" lon="2.00859">
        <ele>300.6</ele>
        <time>2022-03-08T13:19:24Z</time>
      </trkpt>
      <trkpt lat="43.56064" lon="2.0086">
        <ele>300.6</ele>
        <time>2022-03-08T13:19:26Z</time>
      </trkpt>
      <trkpt lat="43.56062" lon="2.00861">
        <ele>300.7</ele>
        <time>2022-03-08T13:19:27Z</time>
      </trkpt>
      <trkpt lat="43.56061" lon="2.00861">
        <ele>300.7</ele>
        <time>2022-03-08T13:19:28Z</time>
      </trkpt>
      <trkpt lat="43.5606" lon="2.00862">
        <ele>300.7</ele>
        <time>2022-03-08T13:19:29Z</time>
      </trkpt>
      <trkpt lat="43.56058" lon="2.00864">
        <ele>300.7</ele>
        <time>2022-03-08T13:19:31Z</time>
      </trkpt>
      <trkpt lat="43.56057" lon="2.00864">
        <ele>300.7</ele>
        <time>2022-03-08T13:19:32Z</time>
      </trkpt>
      <trkpt lat="43.56057" lon="2.00865">
        <ele>300.7</ele>
        <time>2022-03-08T13:19:33Z</time>
      </trkpt>
      <trkpt lat="43.56056" lon="2.00865">
        <ele>300.7</ele>
        <time>2022-03-08T13:19:34Z</time>
      </trkpt>
      <trkpt lat="43.56056" lon="2.00866">
        <ele>300.7</ele>
        <time>2022-03-08T13:19:35Z</time>
      </trkpt>
      <trkpt lat="43.56055" lon="2.00867">
        <ele>300.8</ele>
        <time>2022-03-08T13:19:36Z</time>
      </trkpt>
      <trkpt lat="43.56054" lon="2.00868">
        <ele>300.8</ele>
        <time>2022-03-08T13:19:38Z</time>
      </trkpt>
      <trkpt lat="43.56053" lon="2.00869">
        <ele>300.8</ele>
        <time>2022-03-08T13:19:39Z</time>
      </trkpt>
      <trkpt lat="43.56052" lon="2.0087">
        <ele>300.8</ele>
        <time>2022-03-08T13:19:40Z</time>
      </trkpt>
      <trkpt lat="43.56051" lon="2.0087">
        <ele>300.8</ele>
        <time>2022-03-08T13:19:41Z</time>
      </trkpt>
      <trkpt lat="43.56049" lon="2.00872">
        <ele>300.8</ele>
        <time>2022-03-08T13:19:43Z</time>
      </trkpt>
      <trkpt lat="43.56047" lon="2.00874">
        <ele>300.8</ele>
        <time>2022-03-08T13:19:44Z</time>
      </trkpt>
      <trkpt lat="43.56047" lon="2.00875">
        <ele>300.9</ele>
        <time>2022-03-08T13:19:45Z</time>
      </trkpt>
      <trkpt lat="43.56046" lon="2.00875">
        <ele>300.9</ele>
        <time>2022-03-08T13:19:46Z</time>
      </trkpt>
      <trkpt lat="43.56043" lon="2.00877">
        <ele>300.9</ele>
        <time>2022-03-08T13:19:47Z</time>
      </trkpt>
      <trkpt lat="43.56042" lon="2.00878">
        <ele>300.9</ele>
        <time>2022-03-08T13:19:48Z</time>
      </trkpt>
      <trkpt lat="43.56041" lon="2.00879">
        <ele>300.9</ele>
        <time>2022-03-08T13:19:49Z</time>
      </trkpt>
      <trkpt lat="43.56039" lon="2.00879">
        <ele>300.9</ele>
        <time>2022-03-08T13:19:50Z</time>
      </trkpt>
      <trkpt lat="43.56038" lon="2.0088">
        <ele>300.9</ele>
        <time>2022-03-08T13:19:52Z</time>
      </trkpt>
      <trkpt lat="43.56036" lon="2.00881">
        <ele>300.9</ele>
        <time>2022-03-08T13:19:53Z</time>
      </trkpt>
      <trkpt lat="43.56034" lon="2.00882">
        <ele>300.9</ele>
        <time>2022-03-08T13:19:55Z</time>
      </trkpt>
      <trkpt lat="43.56033" lon="2.00882">
        <ele>300.9</ele>
        <time>2022-03-08T13:19:56Z</time>
      </trkpt>
      <trkpt lat="43.56032" lon="2.00883">
        <ele>300.9</ele>
        <time>2022-03-08T13:19:57Z</time>
      </trkpt>
      <trkpt lat="43.56031" lon="2.00884">
        <ele>300.9</ele>
        <time>2022-03-08T13:19:58Z</time>
      </trkpt>
      <trkpt lat="43.5603" lon="2.00884">
        <ele>300.9</ele>
        <time>2022-03-08T13:19:59Z</time>
      </trkpt>
      <trkpt lat="43.56029" lon="2.00885">
        <ele>300.9</ele>
        <time>2022-03-08T13:20:00Z</time>
      </trkpt>
      <trkpt lat="43.56028" lon="2.00886">
        <ele>300.9</ele>
        <time>2022-03-08T13:20:01Z</time>
      </trkpt>
      <trkpt lat="43.56028" lon="2.00886">
        <ele>300.9</ele>
        <time>2022-03-08T13:20:02Z</time>
      </trkpt>
      <trkpt lat="43.56027" lon="2.00887">
        <ele>300.9</ele>
        <time>2022-03-08T13:20:03Z</time>
      </trkpt>
      <trkpt lat="43.56026" lon="2.00888">
        <ele>300.9</ele>
        <time>2022-03-08T13:20:04Z</time>
      </trkpt>
      <trkpt lat="43.56024" lon="2.0089">
        <ele>300.9</ele>
        <time>2022-03-08T13:20:05Z</time>
      </trkpt>
      <trkpt lat="43.56023" lon="2.00891">
        <ele>300.9</ele>
        <time>2022-03-08T13:20:07Z</time>
      </trkpt>
      <trkpt lat="43.56022" lon="2.00892">
        <ele>300.8</ele>
        <time>2022-03-08T13:20:08Z</time>
      </trkpt>
      <trkpt lat="43.56021" lon="2.00893">
        <ele>300.8</ele>
        <time>2022-03-08T13:20:09Z</time>
      </trkpt>
      <trkpt lat="43.5602" lon="2.00894">
        <ele>300.8</ele>
        <time>2022-03-08T13:20:10Z</time>
      </trkpt>
      <trkpt lat="43.56019" lon="2.00895">
        <ele>300.8</ele>
        <time>2022-03-08T13:20:11Z</time>
      </trkpt>
      <trkpt lat="43.56018" lon="2.00896">
        <ele>300.8</ele>
        <time>2022-03-08T13:20:12Z</time>
      </trkpt>
      <trkpt lat="43.56016" lon="2.00896">
        <ele>300.8</ele>
        <time>2022-03-08T13:20:13Z</time>
      </trkpt>
      <trkpt lat="43.56014" lon="2.00897">
        <ele>300.8</ele>
        <time>2022-03-08T13:20:14Z</time>
      </trkpt>
      <trkpt lat="43.56013" lon="2.00898">
        <ele>300.8</ele>
        <time>2022-03-08T13:20:15Z</time>
      </trkpt>
      <trkpt lat="43.56011" lon="2.00898">
        <ele>300.7</ele>
        <time>2022-03-08T13:20:16Z</time>
      </trkpt>
      <trkpt lat="43.56008" lon="2.00899">
        <ele>300.7</ele>
        <time>2022-03-08T13:20:18Z</time>
      </trkpt>
      <trkpt lat="43.56007" lon="2.00899">
        <ele>300.7</ele>
        <time>2022-03-08T13:20:19Z</time>
      </trkpt>
      <trkpt lat="43.56005" lon="2.009">
        <ele>300.7</ele>
        <time>2022-03-08T13:20:20Z</time>
      </trkpt>
      <trkpt lat="43.56004" lon="2.009">
        <ele>300.7</ele>
        <time>2022-03-08T13:20:21Z</time>
      </trkpt>
      <trkpt lat="43.56003" lon="2.009">
        <ele>300.7</ele>
        <time>2022-03-08T13:20:22Z</time>
      </trkpt>
      <trkpt lat="43.56001" lon="2.00901">
        <ele>300.6</ele>
        <time>2022-03-08T13:20:23Z</time>
      </trkpt>
      <trkpt lat="43.56" lon="2.00901">
        <ele>300.6</ele>
        <time>2022-03-08T13:20:24Z</time>
      </trkpt>
      <trkpt lat="43.55998" lon="2.00903">
        <ele>300.6</ele>
        <time>2022-03-08T13:20:25Z</time>
      </trkpt>
      <trkpt lat="43.55997" lon="2.00903">
        <ele>300.6</ele>
        <time>2022-03-08T13:20:26Z</time>
      </trkpt>
      <trkpt lat="43.55997" lon="2.00904">
        <ele>300.6</ele>
        <time>2022-03-08T13:20:27Z</time>
      </trkpt>
      <trkpt lat="43.55996" lon="2.00904">
        <ele>300.5</ele>
        <time>2022-03-08T13:20:28Z</time>
      </trkpt>
      <trkpt lat="43.55995" lon="2.00905">
        <ele>300.5</ele>
        <time>2022-03-08T13:20:29Z</time>
      </trkpt>
      <trkpt lat="43.55994" lon="2.00905">
        <ele>300.5</ele>
        <time>2022-03-08T13:20:30Z</time>
      </trkpt>
      <trkpt lat="43.55992" lon="2.00906">
        <ele>300.5</ele>
        <time>2022-03-08T13:20:31Z</time>
      </trkpt>
      <trkpt lat="43.55992" lon="2.00907">
        <ele>300.5</ele>
        <time>2022-03-08T13:20:33Z</time>
      </trkpt>
      <trkpt lat="43.55991" lon="2.00908">
        <ele>300.5</ele>
        <time>2022-03-08T13:20:34Z</time>
      </trkpt>
      <trkpt lat="43.5599" lon="2.00909">
        <ele>300.4</ele>
        <time>2022-03-08T13:20:35Z</time>
      </trkpt>
      <trkpt lat="43.55988" lon="2.0091">
        <ele>300.4</ele>
        <time>2022-03-08T13:20:36Z</time>
      </trkpt>
      <trkpt lat="43.55988" lon="2.00911">
        <ele>300.4</ele>
        <time>2022-03-08T13:20:37Z</time>
      </trkpt>
      <trkpt lat="43.55987" lon="2.00912">
        <ele>300.4</ele>
        <time>2022-03-08T13:20:38Z</time>
      </trkpt>
      <trkpt lat="43.55987" lon="2.00913">
        <ele>300.3</ele>
        <time>2022-03-08T13:20:39Z</time>
      </trkpt>
      <trkpt lat="43.55986" lon="2.00914">
        <ele>300.3</ele>
        <time>2022-03-08T13:20:40Z</time>
      </trkpt>
      <trkpt lat="43.55986" lon="2.00915">
        <ele>300.3</ele>
        <time>2022-03-08T13:20:41Z</time>
      </trkpt>
      <trkpt lat="43.55986" lon="2.00917">
        <ele>300.3</ele>
        <time>2022-03-08T13:20:42Z</time>
      </trkpt>
      <trkpt lat="43.55985" lon="2.00919">
        <ele>300.2</ele>
        <time>2022-03-08T13:20:43Z</time>
      </trkpt>
      <trkpt lat="43.55985" lon="2.0092">
        <ele>300.2</ele>
        <time>2022-03-08T13:20:44Z</time>
      </trkpt>
      <trkpt lat="43.55985" lon="2.00921">
        <ele>300.2</ele>
        <time>2022-03-08T13:20:45Z</time>
      </trkpt>
      <trkpt lat="43.55985" lon="2.00922">
        <ele>300.2</ele>
        <time>2022-03-08T13:20:46Z</time>
      </trkpt>
      <trkpt lat="43.55984" lon="2.00924">
        <ele>300.1</ele>
        <time>2022-03-08T13:20:47Z</time>
      </trkpt>
      <trkpt lat="43.55983" lon="2.00925">
        <ele>300.1</ele>
        <time>2022-03-08T13:20:48Z</time>
      </trkpt>
      <trkpt lat="43.55982" lon="2.00928">
        <ele>300.1</ele>
        <time>2022-03-08T13:20:49Z</time>
      </trkpt>
      <trkpt lat="43.55982" lon="2.00928">
        <ele>300</ele>
        <time>2022-03-08T13:20:50Z</time>
      </trkpt>
      <trkpt lat="43.55981" lon="2.00929">
        <ele>300</ele>
        <time>2022-03-08T13:20:51Z</time>
      </trkpt>
      <trkpt lat="43.5598" lon="2.0093">
        <ele>300</ele>
        <time>2022-03-08T13:20:52Z</time>
      </trkpt>
      <trkpt lat="43.55979" lon="2.00931">
        <ele>300</ele>
        <time>2022-03-08T13:20:53Z</time>
      </trkpt>
      <trkpt lat="43.55978" lon="2.00931">
        <ele>299.9</ele>
        <time>2022-03-08T13:20:54Z</time>
      </trkpt>
      <trkpt lat="43.55975" lon="2.00933">
        <ele>299.8</ele>
        <time>2022-03-08T13:20:55Z</time>
      </trkpt>
      <trkpt lat="43.55974" lon="2.00933">
        <ele>299.8</ele>
        <time>2022-03-08T13:20:56Z</time>
      </trkpt>
      <trkpt lat="43.55971" lon="2.00933">
        <ele>299.7</ele>
        <time>2022-03-08T13:20:57Z</time>
      </trkpt>
      <trkpt lat="43.5597" lon="2.00933">
        <ele>299.7</ele>
        <time>2022-03-08T13:20:58Z</time>
      </trkpt>
      <trkpt lat="43.55968" lon="2.00933">
        <ele>299.6</ele>
        <time>2022-03-08T13:20:59Z</time>
      </trkpt>
      <trkpt lat="43.55967" lon="2.00933">
        <ele>299.6</ele>
        <time>2022-03-08T13:21:00Z</time>
      </trkpt>
      <trkpt lat="43.55964" lon="2.00932">
        <ele>299.5</ele>
        <time>2022-03-08T13:21:01Z</time>
      </trkpt>
      <trkpt lat="43.55963" lon="2.00932">
        <ele>299.4</ele>
        <time>2022-03-08T13:21:02Z</time>
      </trkpt>
      <trkpt lat="43.55961" lon="2.00932">
        <ele>299.4</ele>
        <time>2022-03-08T13:21:03Z</time>
      </trkpt>
      <trkpt lat="43.5596" lon="2.00932">
        <ele>299.3</ele>
        <time>2022-03-08T13:21:04Z</time>
      </trkpt>
      <trkpt lat="43.55958" lon="2.00932">
        <ele>299.2</ele>
        <time>2022-03-08T13:21:05Z</time>
      </trkpt>
      <trkpt lat="43.55957" lon="2.00932">
        <ele>299.2</ele>
        <time>2022-03-08T13:21:06Z</time>
      </trkpt>
      <trkpt lat="43.55955" lon="2.00932">
        <ele>299.1</ele>
        <time>2022-03-08T13:21:07Z</time>
      </trkpt>
      <trkpt lat="43.55954" lon="2.00931">
        <ele>299.1</ele>
        <time>2022-03-08T13:21:08Z</time>
      </trkpt>
      <trkpt lat="43.55953" lon="2.00931">
        <ele>299</ele>
        <time>2022-03-08T13:21:09Z</time>
      </trkpt>
      <trkpt lat="43.55952" lon="2.0093">
        <ele>298.9</ele>
        <time>2022-03-08T13:21:10Z</time>
      </trkpt>
      <trkpt lat="43.55951" lon="2.0093">
        <ele>298.9</ele>
        <time>2022-03-08T13:21:11Z</time>
      </trkpt>
      <trkpt lat="43.5595" lon="2.0093">
        <ele>298.8</ele>
        <time>2022-03-08T13:21:12Z</time>
      </trkpt>
      <trkpt lat="43.55949" lon="2.0093">
        <ele>298.8</ele>
        <time>2022-03-08T13:21:13Z</time>
      </trkpt>
      <trkpt lat="43.55948" lon="2.0093">
        <ele>298.7</ele>
        <time>2022-03-08T13:21:14Z</time>
      </trkpt>
      <trkpt lat="43.55946" lon="2.0093">
        <ele>298.6</ele>
        <time>2022-03-08T13:21:15Z</time>
      </trkpt>
      <trkpt lat="43.55945" lon="2.0093">
        <ele>298.6</ele>
        <time>2022-03-08T13:21:17Z</time>
      </trkpt>
      <trkpt lat="43.55944" lon="2.00931">
        <ele>298.5</ele>
        <time>2022-03-08T13:21:18Z</time>
      </trkpt>
      <trkpt lat="43.55943" lon="2.00931">
        <ele>298.5</ele>
        <time>2022-03-08T13:21:19Z</time>
      </trkpt>
      <trkpt lat="43.55942" lon="2.00931">
        <ele>298.4</ele>
        <time>2022-03-08T13:21:20Z</time>
      </trkpt>
      <trkpt lat="43.55941" lon="2.00931">
        <ele>298.4</ele>
        <time>2022-03-08T13:21:21Z</time>
      </trkpt>
      <trkpt lat="43.5594" lon="2.00931">
        <ele>298.3</ele>
        <time>2022-03-08T13:21:22Z</time>
      </trkpt>
      <trkpt lat="43.5594" lon="2.0093">
        <ele>298.3</ele>
        <time>2022-03-08T13:21:23Z</time>
      </trkpt>
      <trkpt lat="43.55939" lon="2.0093">
        <ele>298.2</ele>
        <time>2022-03-08T13:21:24Z</time>
      </trkpt>
      <trkpt lat="43.55938" lon="2.00929">
        <ele>298.2</ele>
        <time>2022-03-08T13:21:25Z</time>
      </trkpt>
      <trkpt lat="43.55937" lon="2.00929">
        <ele>298.1</ele>
        <time>2022-03-08T13:21:26Z</time>
      </trkpt>
      <trkpt lat="43.55936" lon="2.00929">
        <ele>298.1</ele>
        <time>2022-03-08T13:21:27Z</time>
      </trkpt>
      <trkpt lat="43.55935" lon="2.00929">
        <ele>298</ele>
        <time>2022-03-08T13:21:28Z</time>
      </trkpt>
      <trkpt lat="43.55935" lon="2.00929">
        <ele>298</ele>
        <time>2022-03-08T13:21:29Z</time>
      </trkpt>
      <trkpt lat="43.55934" lon="2.00929">
        <ele>297.9</ele>
        <time>2022-03-08T13:21:30Z</time>
      </trkpt>
      <trkpt lat="43.55933" lon="2.00929">
        <ele>297.9</ele>
        <time>2022-03-08T13:21:31Z</time>
      </trkpt>
      <trkpt lat="43.55932" lon="2.0093">
        <ele>297.8</ele>
        <time>2022-03-08T13:21:32Z</time>
      </trkpt>
      <trkpt lat="43.55931" lon="2.00931">
        <ele>297.8</ele>
        <time>2022-03-08T13:21:33Z</time>
      </trkpt>
      <trkpt lat="43.5593" lon="2.00932">
        <ele>297.7</ele>
        <time>2022-03-08T13:21:34Z</time>
      </trkpt>
      <trkpt lat="43.55929" lon="2.00932">
        <ele>297.6</ele>
        <time>2022-03-08T13:21:35Z</time>
      </trkpt>
      <trkpt lat="43.55928" lon="2.00934">
        <ele>297.5</ele>
        <time>2022-03-08T13:21:37Z</time>
      </trkpt>
      <trkpt lat="43.55927" lon="2.00935">
        <ele>297.4</ele>
        <time>2022-03-08T13:21:38Z</time>
      </trkpt>
      <trkpt lat="43.55926" lon="2.00937">
        <ele>297.3</ele>
        <time>2022-03-08T13:21:39Z</time>
      </trkpt>
      <trkpt lat="43.55925" lon="2.00939">
        <ele>297.2</ele>
        <time>2022-03-08T13:21:40Z</time>
      </trkpt>
      <trkpt lat="43.55924" lon="2.00942">
        <ele>297.1</ele>
        <time>2022-03-08T13:21:41Z</time>
      </trkpt>
      <trkpt lat="43.55923" lon="2.00943">
        <ele>297</ele>
        <time>2022-03-08T13:21:42Z</time>
      </trkpt>
      <trkpt lat="43.55922" lon="2.00946">
        <ele>296.9</ele>
        <time>2022-03-08T13:21:43Z</time>
      </trkpt>
      <trkpt lat="43.55922" lon="2.00947">
        <ele>296.9</ele>
        <time>2022-03-08T13:21:44Z</time>
      </trkpt>
      <trkpt lat="43.55921" lon="2.00947">
        <ele>296.8</ele>
        <time>2022-03-08T13:21:45Z</time>
      </trkpt>
      <trkpt lat="43.55921" lon="2.00949">
        <ele>296.7</ele>
        <time>2022-03-08T13:21:46Z</time>
      </trkpt>
      <trkpt lat="43.5592" lon="2.0095">
        <ele>296.7</ele>
        <time>2022-03-08T13:21:47Z</time>
      </trkpt>
      <trkpt lat="43.55919" lon="2.00951">
        <ele>296.6</ele>
        <time>2022-03-08T13:21:48Z</time>
      </trkpt>
      <trkpt lat="43.55918" lon="2.00952">
        <ele>296.5</ele>
        <time>2022-03-08T13:21:49Z</time>
      </trkpt>
      <trkpt lat="43.55917" lon="2.00953">
        <ele>296.4</ele>
        <time>2022-03-08T13:21:50Z</time>
      </trkpt>
      <trkpt lat="43.55916" lon="2.00953">
        <ele>296.4</ele>
        <time>2022-03-08T13:21:51Z</time>
      </trkpt>
      <trkpt lat="43.55914" lon="2.00954">
        <ele>296.3</ele>
        <time>2022-03-08T13:21:52Z</time>
      </trkpt>
      <trkpt lat="43.55913" lon="2.00955">
        <ele>296.2</ele>
        <time>2022-03-08T13:21:53Z</time>
      </trkpt>
      <trkpt lat="43.55913" lon="2.00956">
        <ele>296.2</ele>
        <time>2022-03-08T13:21:54Z</time>
      </trkpt>
      <trkpt lat="43.55911" lon="2.00956">
        <ele>296.1</ele>
        <time>2022-03-08T13:21:55Z</time>
      </trkpt>
      <trkpt lat="43.5591" lon="2.00956">
        <ele>296</ele>
        <time>2022-03-08T13:21:56Z</time>
      </trkpt>
      <trkpt lat="43.55908" lon="2.00956">
        <ele>295.9</ele>
        <time>2022-03-08T13:21:57Z</time>
      </trkpt>
      <trkpt lat="43.55907" lon="2.00956">
        <ele>295.8</ele>
        <time>2022-03-08T13:21:58Z</time>
      </trkpt>
      <trkpt lat="43.55906" lon="2.00957">
        <ele>295.8</ele>
        <time>2022-03-08T13:21:59Z</time>
      </trkpt>
      <trkpt lat="43.55904" lon="2.00957">
        <ele>295.7</ele>
        <time>2022-03-08T13:22:00Z</time>
      </trkpt>
      <trkpt lat="43.55903" lon="2.00956">
        <ele>295.6</ele>
        <time>2022-03-08T13:22:01Z</time>
      </trkpt>
      <trkpt lat="43.55901" lon="2.00957">
        <ele>295.6</ele>
        <time>2022-03-08T13:22:02Z</time>
      </trkpt>
      <trkpt lat="43.55899" lon="2.00957">
        <ele>295.5</ele>
        <time>2022-03-08T13:22:03Z</time>
      </trkpt>
      <trkpt lat="43.55898" lon="2.00957">
        <ele>295.4</ele>
        <time>2022-03-08T13:22:04Z</time>
      </trkpt>
      <trkpt lat="43.55896" lon="2.00957">
        <ele>295.3</ele>
        <time>2022-03-08T13:22:05Z</time>
      </trkpt>
      <trkpt lat="43.55895" lon="2.00958">
        <ele>295.3</ele>
        <time>2022-03-08T13:22:06Z</time>
      </trkpt>
      <trkpt lat="43.55893" lon="2.00957">
        <ele>295.2</ele>
        <time>2022-03-08T13:22:07Z</time>
      </trkpt>
      <trkpt lat="43.55891" lon="2.00957">
        <ele>295.1</ele>
        <time>2022-03-08T13:22:08Z</time>
      </trkpt>
      <trkpt lat="43.55891" lon="2.00957">
        <ele>295.1</ele>
        <time>2022-03-08T13:22:09Z</time>
      </trkpt>
      <trkpt lat="43.5589" lon="2.00957">
        <ele>295</ele>
        <time>2022-03-08T13:22:10Z</time>
      </trkpt>
      <trkpt lat="43.55888" lon="2.00957">
        <ele>294.9</ele>
        <time>2022-03-08T13:22:11Z</time>
      </trkpt>
      <trkpt lat="43.55887" lon="2.00957">
        <ele>294.9</ele>
        <time>2022-03-08T13:22:12Z</time>
      </trkpt>
      <trkpt lat="43.55886" lon="2.00958">
        <ele>294.9</ele>
        <time>2022-03-08T13:22:13Z</time>
      </trkpt>
      <trkpt lat="43.55884" lon="2.00958">
        <ele>294.8</ele>
        <time>2022-03-08T13:22:14Z</time>
      </trkpt>
      <trkpt lat="43.55883" lon="2.00958">
        <ele>294.7</ele>
        <time>2022-03-08T13:22:15Z</time>
      </trkpt>
      <trkpt lat="43.55882" lon="2.00958">
        <ele>294.7</ele>
        <time>2022-03-08T13:22:16Z</time>
      </trkpt>
      <trkpt lat="43.5588" lon="2.00958">
        <ele>294.6</ele>
        <time>2022-03-08T13:22:17Z</time>
      </trkpt>
      <trkpt lat="43.55879" lon="2.00959">
        <ele>294.6</ele>
        <time>2022-03-08T13:22:18Z</time>
      </trkpt>
      <trkpt lat="43.55878" lon="2.00959">
        <ele>294.5</ele>
        <time>2022-03-08T13:22:19Z</time>
      </trkpt>
      <trkpt lat="43.55876" lon="2.00959">
        <ele>294.4</ele>
        <time>2022-03-08T13:22:20Z</time>
      </trkpt>
      <trkpt lat="43.55875" lon="2.00959">
        <ele>294.4</ele>
        <time>2022-03-08T13:22:21Z</time>
      </trkpt>
      <trkpt lat="43.55874" lon="2.00958">
        <ele>294.3</ele>
        <time>2022-03-08T13:22:22Z</time>
      </trkpt>
      <trkpt lat="43.55871" lon="2.00957">
        <ele>294.2</ele>
        <time>2022-03-08T13:22:23Z</time>
      </trkpt>
      <trkpt lat="43.5587" lon="2.00957">
        <ele>294.2</ele>
        <time>2022-03-08T13:22:24Z</time>
      </trkpt>
      <trkpt lat="43.55869" lon="2.00956">
        <ele>294.1</ele>
        <time>2022-03-08T13:22:25Z</time>
      </trkpt>
      <trkpt lat="43.55867" lon="2.00956">
        <ele>294</ele>
        <time>2022-03-08T13:22:26Z</time>
      </trkpt>
      <trkpt lat="43.55866" lon="2.00955">
        <ele>294</ele>
        <time>2022-03-08T13:22:27Z</time>
      </trkpt>
      <trkpt lat="43.55865" lon="2.00954">
        <ele>293.9</ele>
        <time>2022-03-08T13:22:28Z</time>
      </trkpt>
      <trkpt lat="43.55862" lon="2.00952">
        <ele>293.7</ele>
        <time>2022-03-08T13:22:29Z</time>
      </trkpt>
      <trkpt lat="43.55861" lon="2.00951">
        <ele>293.7</ele>
        <time>2022-03-08T13:22:30Z</time>
      </trkpt>
      <trkpt lat="43.5586" lon="2.0095">
        <ele>293.6</ele>
        <time>2022-03-08T13:22:31Z</time>
      </trkpt>
      <trkpt lat="43.55858" lon="2.00949">
        <ele>293.5</ele>
        <time>2022-03-08T13:22:33Z</time>
      </trkpt>
      <trkpt lat="43.55856" lon="2.00948">
        <ele>293.4</ele>
        <time>2022-03-08T13:22:34Z</time>
      </trkpt>
      <trkpt lat="43.55855" lon="2.00948">
        <ele>293.3</ele>
        <time>2022-03-08T13:22:35Z</time>
      </trkpt>
      <trkpt lat="43.55854" lon="2.00948">
        <ele>293.3</ele>
        <time>2022-03-08T13:22:36Z</time>
      </trkpt>
      <trkpt lat="43.55853" lon="2.00947">
        <ele>293.2</ele>
        <time>2022-03-08T13:22:37Z</time>
      </trkpt>
      <trkpt lat="43.55852" lon="2.00946">
        <ele>293.1</ele>
        <time>2022-03-08T13:22:38Z</time>
      </trkpt>
      <trkpt lat="43.55851" lon="2.00946">
        <ele>293.1</ele>
        <time>2022-03-08T13:22:39Z</time>
      </trkpt>
      <trkpt lat="43.5585" lon="2.00945">
        <ele>293</ele>
        <time>2022-03-08T13:22:40Z</time>
      </trkpt>
      <trkpt lat="43.55849" lon="2.00945">
        <ele>293</ele>
        <time>2022-03-08T13:22:41Z</time>
      </trkpt>
      <trkpt lat="43.55848" lon="2.00945">
        <ele>292.9</ele>
        <time>2022-03-08T13:22:42Z</time>
      </trkpt>
      <trkpt lat="43.55846" lon="2.00945">
        <ele>292.8</ele>
        <time>2022-03-08T13:22:43Z</time>
      </trkpt>
      <trkpt lat="43.55844" lon="2.00946">
        <ele>292.7</ele>
        <time>2022-03-08T13:22:45Z</time>
      </trkpt>
      <trkpt lat="43.55843" lon="2.00947">
        <ele>292.6</ele>
        <time>2022-03-08T13:22:46Z</time>
      </trkpt>
      <trkpt lat="43.55842" lon="2.00947">
        <ele>292.5</ele>
        <time>2022-03-08T13:22:47Z</time>
      </trkpt>
      <trkpt lat="43.5584" lon="2.00948">
        <ele>292.5</ele>
        <time>2022-03-08T13:22:48Z</time>
      </trkpt>
      <trkpt lat="43.55839" lon="2.0095">
        <ele>292.4</ele>
        <time>2022-03-08T13:22:49Z</time>
      </trkpt>
      <trkpt lat="43.55837" lon="2.00953">
        <ele>292.3</ele>
        <time>2022-03-08T13:22:50Z</time>
      </trkpt>
      <trkpt lat="43.55836" lon="2.00955">
        <ele>292.2</ele>
        <time>2022-03-08T13:22:51Z</time>
      </trkpt>
      <trkpt lat="43.55835" lon="2.00956">
        <ele>292.2</ele>
        <time>2022-03-08T13:22:52Z</time>
      </trkpt>
      <trkpt lat="43.55834" lon="2.00957">
        <ele>292.1</ele>
        <time>2022-03-08T13:22:53Z</time>
      </trkpt>
      <trkpt lat="43.55833" lon="2.00958">
        <ele>292.1</ele>
        <time>2022-03-08T13:22:54Z</time>
      </trkpt>
      <trkpt lat="43.55832" lon="2.00959">
        <ele>292.1</ele>
        <time>2022-03-08T13:22:55Z</time>
      </trkpt>
      <trkpt lat="43.55831" lon="2.0096">
        <ele>292</ele>
        <time>2022-03-08T13:22:56Z</time>
      </trkpt>
      <trkpt lat="43.55829" lon="2.00961">
        <ele>292</ele>
        <time>2022-03-08T13:22:58Z</time>
      </trkpt>
      <trkpt lat="43.55828" lon="2.00962">
        <ele>291.9</ele>
        <time>2022-03-08T13:22:59Z</time>
      </trkpt>
      <trkpt lat="43.55826" lon="2.0096">
        <ele>291.9</ele>
        <time>2022-03-08T13:23:00Z</time>
      </trkpt>
      <trkpt lat="43.55824" lon="2.00957">
        <ele>291.8</ele>
        <time>2022-03-08T13:23:01Z</time>
      </trkpt>
      <trkpt lat="43.55822" lon="2.00954">
        <ele>291.7</ele>
        <time>2022-03-08T13:23:03Z</time>
      </trkpt>
      <trkpt lat="43.55821" lon="2.00953">
        <ele>291.6</ele>
        <time>2022-03-08T13:23:04Z</time>
      </trkpt>
      <trkpt lat="43.55819" lon="2.0095">
        <ele>291.5</ele>
        <time>2022-03-08T13:23:05Z</time>
      </trkpt>
      <trkpt lat="43.55819" lon="2.00949">
        <ele>291.5</ele>
        <time>2022-03-08T13:23:06Z</time>
      </trkpt>
      <trkpt lat="43.55818" lon="2.00947">
        <ele>291.4</ele>
        <time>2022-03-08T13:23:07Z</time>
      </trkpt>
      <trkpt lat="43.55817" lon="2.00945">
        <ele>291.4</ele>
        <time>2022-03-08T13:23:08Z</time>
      </trkpt>
      <trkpt lat="43.55815" lon="2.00941">
        <ele>291.2</ele>
        <time>2022-03-08T13:23:10Z</time>
      </trkpt>
      <trkpt lat="43.55814" lon="2.0094">
        <ele>291.1</ele>
        <time>2022-03-08T13:23:11Z</time>
      </trkpt>
      <trkpt lat="43.55813" lon="2.00938">
        <ele>291</ele>
        <time>2022-03-08T13:23:12Z</time>
      </trkpt>
      <trkpt lat="43.55812" lon="2.00935">
        <ele>290.8</ele>
        <time>2022-03-08T13:23:13Z</time>
      </trkpt>
      <trkpt lat="43.55812" lon="2.00934">
        <ele>290.8</ele>
        <time>2022-03-08T13:23:14Z</time>
      </trkpt>
      <trkpt lat="43.55811" lon="2.00931">
        <ele>290.6</ele>
        <time>2022-03-08T13:23:15Z</time>
      </trkpt>
      <trkpt lat="43.55811" lon="2.0093">
        <ele>290.5</ele>
        <time>2022-03-08T13:23:16Z</time>
      </trkpt>
      <trkpt lat="43.5581" lon="2.00929">
        <ele>290.5</ele>
        <time>2022-03-08T13:23:17Z</time>
      </trkpt>
      <trkpt lat="43.5581" lon="2.00927">
        <ele>290.4</ele>
        <time>2022-03-08T13:23:18Z</time>
      </trkpt>
      <trkpt lat="43.55809" lon="2.00925">
        <ele>290.3</ele>
        <time>2022-03-08T13:23:19Z</time>
      </trkpt>
      <trkpt lat="43.55809" lon="2.00923">
        <ele>290.1</ele>
        <time>2022-03-08T13:23:20Z</time>
      </trkpt>
      <trkpt lat="43.55808" lon="2.00921">
        <ele>290</ele>
        <time>2022-03-08T13:23:22Z</time>
      </trkpt>
      <trkpt lat="43.55807" lon="2.0092">
        <ele>290</ele>
        <time>2022-03-08T13:23:23Z</time>
      </trkpt>
      <trkpt lat="43.55806" lon="2.00918">
        <ele>289.8</ele>
        <time>2022-03-08T13:23:24Z</time>
      </trkpt>
      <trkpt lat="43.55803" lon="2.00914">
        <ele>289.5</ele>
        <time>2022-03-08T13:23:26Z</time>
      </trkpt>
      <trkpt lat="43.55802" lon="2.00914">
        <ele>289.5</ele>
        <time>2022-03-08T13:23:27Z</time>
      </trkpt>
      <trkpt lat="43.55801" lon="2.00913">
        <ele>289.4</ele>
        <time>2022-03-08T13:23:28Z</time>
      </trkpt>
      <trkpt lat="43.558" lon="2.00912">
        <ele>289.3</ele>
        <time>2022-03-08T13:23:29Z</time>
      </trkpt>
      <trkpt lat="43.55798" lon="2.00911">
        <ele>289.1</ele>
        <time>2022-03-08T13:23:30Z</time>
      </trkpt>
      <trkpt lat="43.55797" lon="2.0091">
        <ele>289</ele>
        <time>2022-03-08T13:23:31Z</time>
      </trkpt>
      <trkpt lat="43.55796" lon="2.0091">
        <ele>288.9</ele>
        <time>2022-03-08T13:23:32Z</time>
      </trkpt>
      <trkpt lat="43.55794" lon="2.00909">
        <ele>288.8</ele>
        <time>2022-03-08T13:23:33Z</time>
      </trkpt>
      <trkpt lat="43.55792" lon="2.00908">
        <ele>288.6</ele>
        <time>2022-03-08T13:23:34Z</time>
      </trkpt>
      <trkpt lat="43.55792" lon="2.00908">
        <ele>288.5</ele>
        <time>2022-03-08T13:23:35Z</time>
      </trkpt>
      <trkpt lat="43.55791" lon="2.00907">
        <ele>288.4</ele>
        <time>2022-03-08T13:23:36Z</time>
      </trkpt>
      <trkpt lat="43.5579" lon="2.00906">
        <ele>288.3</ele>
        <time>2022-03-08T13:23:37Z</time>
      </trkpt>
      <trkpt lat="43.55788" lon="2.00906">
        <ele>288.2</ele>
        <time>2022-03-08T13:23:39Z</time>
      </trkpt>
      <trkpt lat="43.55787" lon="2.00905">
        <ele>288.1</ele>
        <time>2022-03-08T13:23:40Z</time>
      </trkpt>
      <trkpt lat="43.55786" lon="2.00905">
        <ele>288</ele>
        <time>2022-03-08T13:23:41Z</time>
      </trkpt>
      <trkpt lat="43.55785" lon="2.00905">
        <ele>287.9</ele>
        <time>2022-03-08T13:23:42Z</time>
      </trkpt>
      <trkpt lat="43.55784" lon="2.00904">
        <ele>287.8</ele>
        <time>2022-03-08T13:23:43Z</time>
      </trkpt>
      <trkpt lat="43.55782" lon="2.00904">
        <ele>287.6</ele>
        <time>2022-03-08T13:23:44Z</time>
      </trkpt>
      <trkpt lat="43.55781" lon="2.00904">
        <ele>287.5</ele>
        <time>2022-03-08T13:23:45Z</time>
      </trkpt>
      <trkpt lat="43.55779" lon="2.00904">
        <ele>287.4</ele>
        <time>2022-03-08T13:23:47Z</time>
      </trkpt>
      <trkpt lat="43.55778" lon="2.00904">
        <ele>287.2</ele>
        <time>2022-03-08T13:23:48Z</time>
      </trkpt>
      <trkpt lat="43.55777" lon="2.00904">
        <ele>287.1</ele>
        <time>2022-03-08T13:23:49Z</time>
      </trkpt>
      <trkpt lat="43.55776" lon="2.00903">
        <ele>287</ele>
        <time>2022-03-08T13:23:50Z</time>
      </trkpt>
      <trkpt lat="43.55775" lon="2.00903">
        <ele>286.9</ele>
        <time>2022-03-08T13:23:51Z</time>
      </trkpt>
      <trkpt lat="43.55773" lon="2.00903">
        <ele>286.7</ele>
        <time>2022-03-08T13:23:52Z</time>
      </trkpt>
      <trkpt lat="43.55772" lon="2.00904">
        <ele>286.6</ele>
        <time>2022-03-08T13:23:53Z</time>
      </trkpt>
      <trkpt lat="43.5577" lon="2.00904">
        <ele>286.4</ele>
        <time>2022-03-08T13:23:54Z</time>
      </trkpt>
      <trkpt lat="43.55769" lon="2.00905">
        <ele>286.2</ele>
        <time>2022-03-08T13:23:55Z</time>
      </trkpt>
      <trkpt lat="43.55767" lon="2.00905">
        <ele>286.1</ele>
        <time>2022-03-08T13:23:57Z</time>
      </trkpt>
      <trkpt lat="43.55766" lon="2.00905">
        <ele>286</ele>
        <time>2022-03-08T13:23:58Z</time>
      </trkpt>
      <trkpt lat="43.55765" lon="2.00904">
        <ele>285.8</ele>
        <time>2022-03-08T13:23:59Z</time>
      </trkpt>
      <trkpt lat="43.55764" lon="2.00904">
        <ele>285.7</ele>
        <time>2022-03-08T13:24:00Z</time>
      </trkpt>
      <trkpt lat="43.55762" lon="2.00903">
        <ele>285.5</ele>
        <time>2022-03-08T13:24:01Z</time>
      </trkpt>
      <trkpt lat="43.55761" lon="2.00903">
        <ele>285.4</ele>
        <time>2022-03-08T13:24:02Z</time>
      </trkpt>
      <trkpt lat="43.55759" lon="2.00902">
        <ele>285.2</ele>
        <time>2022-03-08T13:24:04Z</time>
      </trkpt>
      <trkpt lat="43.55758" lon="2.00902">
        <ele>285.1</ele>
        <time>2022-03-08T13:24:05Z</time>
      </trkpt>
      <trkpt lat="43.55757" lon="2.00902">
        <ele>284.9</ele>
        <time>2022-03-08T13:24:06Z</time>
      </trkpt>
      <trkpt lat="43.55755" lon="2.00903">
        <ele>284.8</ele>
        <time>2022-03-08T13:24:07Z</time>
      </trkpt>
      <trkpt lat="43.55754" lon="2.00902">
        <ele>284.7</ele>
        <time>2022-03-08T13:24:08Z</time>
      </trkpt>
      <trkpt lat="43.55753" lon="2.00902">
        <ele>284.5</ele>
        <time>2022-03-08T13:24:09Z</time>
      </trkpt>
      <trkpt lat="43.55751" lon="2.00902">
        <ele>284.4</ele>
        <time>2022-03-08T13:24:11Z</time>
      </trkpt>
      <trkpt lat="43.5575" lon="2.009">
        <ele>284.2</ele>
        <time>2022-03-08T13:24:12Z</time>
      </trkpt>
      <trkpt lat="43.55749" lon="2.00899">
        <ele>284.1</ele>
        <time>2022-03-08T13:24:13Z</time>
      </trkpt>
      <trkpt lat="43.55747" lon="2.00898">
        <ele>283.9</ele>
        <time>2022-03-08T13:24:14Z</time>
      </trkpt>
      <trkpt lat="43.55746" lon="2.00898">
        <ele>283.8</ele>
        <time>2022-03-08T13:24:15Z</time>
      </trkpt>
      <trkpt lat="43.55744" lon="2.00897">
        <ele>283.6</ele>
        <time>2022-03-08T13:24:16Z</time>
      </trkpt>
      <trkpt lat="43.55743" lon="2.00896">
        <ele>283.5</ele>
        <time>2022-03-08T13:24:17Z</time>
      </trkpt>
      <trkpt lat="43.55742" lon="2.00895">
        <ele>283.3</ele>
        <time>2022-03-08T13:24:19Z</time>
      </trkpt>
      <trkpt lat="43.5574" lon="2.00894">
        <ele>283.2</ele>
        <time>2022-03-08T13:24:20Z</time>
      </trkpt>
      <trkpt lat="43.5574" lon="2.00894">
        <ele>283.1</ele>
        <time>2022-03-08T13:24:21Z</time>
      </trkpt>
      <trkpt lat="43.55739" lon="2.00893">
        <ele>283</ele>
        <time>2022-03-08T13:24:22Z</time>
      </trkpt>
      <trkpt lat="43.55738" lon="2.00894">
        <ele>282.9</ele>
        <time>2022-03-08T13:24:23Z</time>
      </trkpt>
      <trkpt lat="43.55737" lon="2.00894">
        <ele>282.8</ele>
        <time>2022-03-08T13:24:24Z</time>
      </trkpt>
      <trkpt lat="43.55734" lon="2.00892">
        <ele>282.5</ele>
        <time>2022-03-08T13:24:25Z</time>
      </trkpt>
      <trkpt lat="43.55733" lon="2.00892">
        <ele>282.4</ele>
        <time>2022-03-08T13:24:27Z</time>
      </trkpt>
      <trkpt lat="43.55732" lon="2.00892">
        <ele>282.3</ele>
        <time>2022-03-08T13:24:28Z</time>
      </trkpt>
      <trkpt lat="43.55731" lon="2.00892">
        <ele>282.2</ele>
        <time>2022-03-08T13:24:29Z</time>
      </trkpt>
      <trkpt lat="43.5573" lon="2.00891">
        <ele>282.1</ele>
        <time>2022-03-08T13:24:30Z</time>
      </trkpt>
      <trkpt lat="43.55729" lon="2.00891">
        <ele>282</ele>
        <time>2022-03-08T13:24:31Z</time>
      </trkpt>
      <trkpt lat="43.55727" lon="2.00892">
        <ele>281.8</ele>
        <time>2022-03-08T13:24:33Z</time>
      </trkpt>
      <trkpt lat="43.55725" lon="2.00892">
        <ele>281.7</ele>
        <time>2022-03-08T13:24:35Z</time>
      </trkpt>
      <trkpt lat="43.55724" lon="2.00892">
        <ele>281.5</ele>
        <time>2022-03-08T13:24:36Z</time>
      </trkpt>
      <trkpt lat="43.55721" lon="2.00892">
        <ele>281.2</ele>
        <time>2022-03-08T13:24:38Z</time>
      </trkpt>
      <trkpt lat="43.5572" lon="2.00893">
        <ele>281.1</ele>
        <time>2022-03-08T13:24:39Z</time>
      </trkpt>
      <trkpt lat="43.55718" lon="2.00892">
        <ele>281</ele>
        <time>2022-03-08T13:24:40Z</time>
      </trkpt>
      <trkpt lat="43.55717" lon="2.00892">
        <ele>280.8</ele>
        <time>2022-03-08T13:24:41Z</time>
      </trkpt>
      <trkpt lat="43.55715" lon="2.00892">
        <ele>280.7</ele>
        <time>2022-03-08T13:24:43Z</time>
      </trkpt>
      <trkpt lat="43.55714" lon="2.00892">
        <ele>280.5</ele>
        <time>2022-03-08T13:24:44Z</time>
      </trkpt>
      <trkpt lat="43.55712" lon="2.00891">
        <ele>280.3</ele>
        <time>2022-03-08T13:24:45Z</time>
      </trkpt>
      <trkpt lat="43.55712" lon="2.0089">
        <ele>280.3</ele>
        <time>2022-03-08T13:24:46Z</time>
      </trkpt>
      <trkpt lat="43.55711" lon="2.00889">
        <ele>280.2</ele>
        <time>2022-03-08T13:24:47Z</time>
      </trkpt>
      <trkpt lat="43.55709" lon="2.00886">
        <ele>279.9</ele>
        <time>2022-03-08T13:24:48Z</time>
      </trkpt>
      <trkpt lat="43.55709" lon="2.00885">
        <ele>279.8</ele>
        <time>2022-03-08T13:24:49Z</time>
      </trkpt>
      <trkpt lat="43.55707" lon="2.00883">
        <ele>279.6</ele>
        <time>2022-03-08T13:24:51Z</time>
      </trkpt>
      <trkpt lat="43.55706" lon="2.00882">
        <ele>279.5</ele>
        <time>2022-03-08T13:24:52Z</time>
      </trkpt>
      <trkpt lat="43.55706" lon="2.00882">
        <ele>279.5</ele>
        <time>2022-03-08T13:24:53Z</time>
      </trkpt>
      <trkpt lat="43.55705" lon="2.00881">
        <ele>279.4</ele>
        <time>2022-03-08T13:24:54Z</time>
      </trkpt>
      <trkpt lat="43.55703" lon="2.00879">
        <ele>279.2</ele>
        <time>2022-03-08T13:24:55Z</time>
      </trkpt>
      <trkpt lat="43.55702" lon="2.00879">
        <ele>279.1</ele>
        <time>2022-03-08T13:24:57Z</time>
      </trkpt>
      <trkpt lat="43.55701" lon="2.00878">
        <ele>279</ele>
        <time>2022-03-08T13:24:58Z</time>
      </trkpt>
      <trkpt lat="43.557" lon="2.00878">
        <ele>278.9</ele>
        <time>2022-03-08T13:24:59Z</time>
      </trkpt>
      <trkpt lat="43.55697" lon="2.00878">
        <ele>278.6</ele>
        <time>2022-03-08T13:25:00Z</time>
      </trkpt>
      <trkpt lat="43.55696" lon="2.00878">
        <ele>278.5</ele>
        <time>2022-03-08T13:25:01Z</time>
      </trkpt>
      <trkpt lat="43.55695" lon="2.00879">
        <ele>278.4</ele>
        <time>2022-03-08T13:25:03Z</time>
      </trkpt>
      <trkpt lat="43.55693" lon="2.00879">
        <ele>278.2</ele>
        <time>2022-03-08T13:25:04Z</time>
      </trkpt>
      <trkpt lat="43.55691" lon="2.0088">
        <ele>278.1</ele>
        <time>2022-03-08T13:25:05Z</time>
      </trkpt>
      <trkpt lat="43.5569" lon="2.0088">
        <ele>278</ele>
        <time>2022-03-08T13:25:06Z</time>
      </trkpt>
      <trkpt lat="43.55689" lon="2.00881">
        <ele>277.9</ele>
        <time>2022-03-08T13:25:07Z</time>
      </trkpt>
      <trkpt lat="43.55688" lon="2.00881">
        <ele>277.8</ele>
        <time>2022-03-08T13:25:09Z</time>
      </trkpt>
      <trkpt lat="43.55688" lon="2.0088">
        <ele>277.7</ele>
        <time>2022-03-08T13:25:10Z</time>
      </trkpt>
      <trkpt lat="43.55687" lon="2.00881">
        <ele>277.6</ele>
        <time>2022-03-08T13:25:11Z</time>
      </trkpt>
      <trkpt lat="43.55686" lon="2.00881">
        <ele>277.5</ele>
        <time>2022-03-08T13:25:12Z</time>
      </trkpt>
      <trkpt lat="43.55685" lon="2.00882">
        <ele>277.4</ele>
        <time>2022-03-08T13:25:13Z</time>
      </trkpt>
      <trkpt lat="43.55684" lon="2.00882">
        <ele>277.3</ele>
        <time>2022-03-08T13:25:14Z</time>
      </trkpt>
      <trkpt lat="43.55683" lon="2.00883">
        <ele>277.3</ele>
        <time>2022-03-08T13:25:15Z</time>
      </trkpt>
      <trkpt lat="43.55682" lon="2.00884">
        <ele>277.1</ele>
        <time>2022-03-08T13:25:17Z</time>
      </trkpt>
      <trkpt lat="43.5568" lon="2.00885">
        <ele>277</ele>
        <time>2022-03-08T13:25:18Z</time>
      </trkpt>
      <trkpt lat="43.55677" lon="2.00886">
        <ele>276.7</ele>
        <time>2022-03-08T13:25:20Z</time>
      </trkpt>
      <trkpt lat="43.55677" lon="2.00886">
        <ele>276.7</ele>
        <time>2022-03-08T13:25:21Z</time>
      </trkpt>
      <trkpt lat="43.55675" lon="2.00885">
        <ele>276.6</ele>
        <time>2022-03-08T13:25:22Z</time>
      </trkpt>
      <trkpt lat="43.55673" lon="2.00886">
        <ele>276.4</ele>
        <time>2022-03-08T13:25:23Z</time>
      </trkpt>
      <trkpt lat="43.55672" lon="2.00887">
        <ele>276.3</ele>
        <time>2022-03-08T13:25:24Z</time>
      </trkpt>
      <trkpt lat="43.55671" lon="2.00887">
        <ele>276.2</ele>
        <time>2022-03-08T13:25:25Z</time>
      </trkpt>
      <trkpt lat="43.55669" lon="2.00886">
        <ele>276</ele>
        <time>2022-03-08T13:25:26Z</time>
      </trkpt>
      <trkpt lat="43.55668" lon="2.00885">
        <ele>275.9</ele>
        <time>2022-03-08T13:25:27Z</time>
      </trkpt>
      <trkpt lat="43.55666" lon="2.00885">
        <ele>275.8</ele>
        <time>2022-03-08T13:25:28Z</time>
      </trkpt>
      <trkpt lat="43.55665" lon="2.00884">
        <ele>275.7</ele>
        <time>2022-03-08T13:25:29Z</time>
      </trkpt>
      <trkpt lat="43.55664" lon="2.00883">
        <ele>275.6</ele>
        <time>2022-03-08T13:25:30Z</time>
      </trkpt>
      <trkpt lat="43.55661" lon="2.00882">
        <ele>275.3</ele>
        <time>2022-03-08T13:25:32Z</time>
      </trkpt>
      <trkpt lat="43.55659" lon="2.00879">
        <ele>275.1</ele>
        <time>2022-03-08T13:25:33Z</time>
      </trkpt>
      <trkpt lat="43.55658" lon="2.00878">
        <ele>275</ele>
        <time>2022-03-08T13:25:34Z</time>
      </trkpt>
      <trkpt lat="43.55656" lon="2.00874">
        <ele>274.8</ele>
        <time>2022-03-08T13:25:35Z</time>
      </trkpt>
      <trkpt lat="43.55656" lon="2.00873">
        <ele>274.7</ele>
        <time>2022-03-08T13:25:36Z</time>
      </trkpt>
      <trkpt lat="43.55655" lon="2.00869">
        <ele>274.4</ele>
        <time>2022-03-08T13:25:37Z</time>
      </trkpt>
      <trkpt lat="43.55654" lon="2.00867">
        <ele>274.3</ele>
        <time>2022-03-08T13:25:39Z</time>
      </trkpt>
      <trkpt lat="43.55653" lon="2.00863">
        <ele>274</ele>
        <time>2022-03-08T13:25:40Z</time>
      </trkpt>
      <trkpt lat="43.55653" lon="2.00861">
        <ele>273.9</ele>
        <time>2022-03-08T13:25:42Z</time>
      </trkpt>
      <trkpt lat="43.55653" lon="2.00859">
        <ele>273.8</ele>
        <time>2022-03-08T13:25:43Z</time>
      </trkpt>
      <trkpt lat="43.55652" lon="2.00857">
        <ele>273.6</ele>
        <time>2022-03-08T13:25:44Z</time>
      </trkpt>
      <trkpt lat="43.55651" lon="2.00855">
        <ele>273.5</ele>
        <time>2022-03-08T13:25:45Z</time>
      </trkpt>
      <trkpt lat="43.55649" lon="2.00855">
        <ele>273.4</ele>
        <time>2022-03-08T13:25:46Z</time>
      </trkpt>
      <trkpt lat="43.55648" lon="2.00854">
        <ele>273.3</ele>
        <time>2022-03-08T13:25:47Z</time>
      </trkpt>
      <trkpt lat="43.55646" lon="2.00853">
        <ele>273.1</ele>
        <time>2022-03-08T13:25:48Z</time>
      </trkpt>
      <trkpt lat="43.55644" lon="2.00852">
        <ele>272.9</ele>
        <time>2022-03-08T13:25:49Z</time>
      </trkpt>
      <trkpt lat="43.55643" lon="2.00852">
        <ele>272.8</ele>
        <time>2022-03-08T13:25:50Z</time>
      </trkpt>
      <trkpt lat="43.55641" lon="2.00852">
        <ele>272.7</ele>
        <time>2022-03-08T13:25:51Z</time>
      </trkpt>
      <trkpt lat="43.55639" lon="2.00852">
        <ele>272.5</ele>
        <time>2022-03-08T13:25:53Z</time>
      </trkpt>
      <trkpt lat="43.55638" lon="2.00852">
        <ele>272.4</ele>
        <time>2022-03-08T13:25:54Z</time>
      </trkpt>
      <trkpt lat="43.55636" lon="2.00852">
        <ele>272.3</ele>
        <time>2022-03-08T13:25:55Z</time>
      </trkpt>
      <trkpt lat="43.55633" lon="2.00853">
        <ele>272</ele>
        <time>2022-03-08T13:25:56Z</time>
      </trkpt>
      <trkpt lat="43.55632" lon="2.00853">
        <ele>272</ele>
        <time>2022-03-08T13:25:57Z</time>
      </trkpt>
      <trkpt lat="43.5563" lon="2.00854">
        <ele>271.8</ele>
        <time>2022-03-08T13:25:58Z</time>
      </trkpt>
      <trkpt lat="43.55629" lon="2.00854">
        <ele>271.7</ele>
        <time>2022-03-08T13:25:59Z</time>
      </trkpt>
      <trkpt lat="43.55628" lon="2.00854">
        <ele>271.7</ele>
        <time>2022-03-08T13:26:00Z</time>
      </trkpt>
      <trkpt lat="43.55626" lon="2.00855">
        <ele>271.5</ele>
        <time>2022-03-08T13:26:01Z</time>
      </trkpt>
      <trkpt lat="43.55625" lon="2.00855">
        <ele>271.4</ele>
        <time>2022-03-08T13:26:02Z</time>
      </trkpt>
      <trkpt lat="43.55624" lon="2.00855">
        <ele>271.3</ele>
        <time>2022-03-08T13:26:03Z</time>
      </trkpt>
      <trkpt lat="43.55623" lon="2.00855">
        <ele>271.2</ele>
        <time>2022-03-08T13:26:04Z</time>
      </trkpt>
      <trkpt lat="43.5562" lon="2.00854">
        <ele>271</ele>
        <time>2022-03-08T13:26:06Z</time>
      </trkpt>
      <trkpt lat="43.55617" lon="2.00853">
        <ele>270.8</ele>
        <time>2022-03-08T13:26:08Z</time>
      </trkpt>
      <trkpt lat="43.55617" lon="2.00853">
        <ele>270.7</ele>
        <time>2022-03-08T13:26:09Z</time>
      </trkpt>
      <trkpt lat="43.55616" lon="2.00852">
        <ele>270.6</ele>
        <time>2022-03-08T13:26:10Z</time>
      </trkpt>
      <trkpt lat="43.55615" lon="2.00851">
        <ele>270.6</ele>
        <time>2022-03-08T13:26:11Z</time>
      </trkpt>
      <trkpt lat="43.55614" lon="2.0085">
        <ele>270.5</ele>
        <time>2022-03-08T13:26:12Z</time>
      </trkpt>
      <trkpt lat="43.55613" lon="2.00849">
        <ele>270.4</ele>
        <time>2022-03-08T13:26:13Z</time>
      </trkpt>
      <trkpt lat="43.55612" lon="2.00848">
        <ele>270.3</ele>
        <time>2022-03-08T13:26:14Z</time>
      </trkpt>
      <trkpt lat="43.55611" lon="2.00846">
        <ele>270.2</ele>
        <time>2022-03-08T13:26:16Z</time>
      </trkpt>
      <trkpt lat="43.5561" lon="2.00845">
        <ele>270.1</ele>
        <time>2022-03-08T13:26:17Z</time>
      </trkpt>
      <trkpt lat="43.5561" lon="2.00844">
        <ele>270</ele>
        <time>2022-03-08T13:26:18Z</time>
      </trkpt>
      <trkpt lat="43.55608" lon="2.00843">
        <ele>269.9</ele>
        <time>2022-03-08T13:26:19Z</time>
      </trkpt>
      <trkpt lat="43.55608" lon="2.00843">
        <ele>269.9</ele>
        <time>2022-03-08T13:26:20Z</time>
      </trkpt>
      <trkpt lat="43.55607" lon="2.00841">
        <ele>269.8</ele>
        <time>2022-03-08T13:26:22Z</time>
      </trkpt>
      <trkpt lat="43.55606" lon="2.00841">
        <ele>269.7</ele>
        <time>2022-03-08T13:26:23Z</time>
      </trkpt>
      <trkpt lat="43.55605" lon="2.00841">
        <ele>269.6</ele>
        <time>2022-03-08T13:26:24Z</time>
      </trkpt>
      <trkpt lat="43.55604" lon="2.0084">
        <ele>269.5</ele>
        <time>2022-03-08T13:26:25Z</time>
      </trkpt>
      <trkpt lat="43.55603" lon="2.00841">
        <ele>269.4</ele>
        <time>2022-03-08T13:26:26Z</time>
      </trkpt>
      <trkpt lat="43.55602" lon="2.00843">
        <ele>269.3</ele>
        <time>2022-03-08T13:26:28Z</time>
      </trkpt>
      <trkpt lat="43.55602" lon="2.00845">
        <ele>269.2</ele>
        <time>2022-03-08T13:26:29Z</time>
      </trkpt>
      <trkpt lat="43.55601" lon="2.00846">
        <ele>269.1</ele>
        <time>2022-03-08T13:26:30Z</time>
      </trkpt>
      <trkpt lat="43.55601" lon="2.00847">
        <ele>269</ele>
        <time>2022-03-08T13:26:32Z</time>
      </trkpt>
      <trkpt lat="43.556" lon="2.00846">
        <ele>269</ele>
        <time>2022-03-08T13:26:33Z</time>
      </trkpt>
      <trkpt lat="43.556" lon="2.00845">
        <ele>268.9</ele>
        <time>2022-03-08T13:26:35Z</time>
      </trkpt>
      <trkpt lat="43.556" lon="2.00844">
        <ele>268.9</ele>
        <time>2022-03-08T13:26:36Z</time>
      </trkpt>
      <trkpt lat="43.556" lon="2.00842">
        <ele>268.8</ele>
        <time>2022-03-08T13:26:37Z</time>
      </trkpt>
      <trkpt lat="43.556" lon="2.00839">
        <ele>268.6</ele>
        <time>2022-03-08T13:26:39Z</time>
      </trkpt>
      <trkpt lat="43.556" lon="2.00838">
        <ele>268.5</ele>
        <time>2022-03-08T13:26:40Z</time>
      </trkpt>
      <trkpt lat="43.55599" lon="2.00838">
        <ele>268.5</ele>
        <time>2022-03-08T13:26:41Z</time>
      </trkpt>
      <trkpt lat="43.55598" lon="2.00839">
        <ele>268.4</ele>
        <time>2022-03-08T13:26:42Z</time>
      </trkpt>
      <trkpt lat="43.55597" lon="2.00837">
        <ele>268.2</ele>
        <time>2022-03-08T13:26:45Z</time>
      </trkpt>
      <trkpt lat="43.55596" lon="2.00836">
        <ele>268.2</ele>
        <time>2022-03-08T13:26:46Z</time>
      </trkpt>
      <trkpt lat="43.55596" lon="2.00835">
        <ele>268.1</ele>
        <time>2022-03-08T13:26:47Z</time>
      </trkpt>
      <trkpt lat="43.55595" lon="2.00834">
        <ele>268.1</ele>
        <time>2022-03-08T13:26:48Z</time>
      </trkpt>
      <trkpt lat="43.55595" lon="2.00833">
        <ele>268</ele>
        <time>2022-03-08T13:26:50Z</time>
      </trkpt>
      <trkpt lat="43.55594" lon="2.00833">
        <ele>267.9</ele>
        <time>2022-03-08T13:26:51Z</time>
      </trkpt>
      <trkpt lat="43.55593" lon="2.00834">
        <ele>267.9</ele>
        <time>2022-03-08T13:26:52Z</time>
      </trkpt>
      <trkpt lat="43.55592" lon="2.00834">
        <ele>267.8</ele>
        <time>2022-03-08T13:26:53Z</time>
      </trkpt>
      <trkpt lat="43.55591" lon="2.00834">
        <ele>267.7</ele>
        <time>2022-03-08T13:26:54Z</time>
      </trkpt>
      <trkpt lat="43.55588" lon="2.00831">
        <ele>267.4</ele>
        <time>2022-03-08T13:26:56Z</time>
      </trkpt>
      <trkpt lat="43.55587" lon="2.0083">
        <ele>267.3</ele>
        <time>2022-03-08T13:26:57Z</time>
      </trkpt>
      <trkpt lat="43.55583" lon="2.00829">
        <ele>267</ele>
        <time>2022-03-08T13:26:58Z</time>
      </trkpt>
      <trkpt lat="43.5558" lon="2.00829">
        <ele>266.7</ele>
        <time>2022-03-08T13:26:59Z</time>
      </trkpt>
      <trkpt lat="43.55579" lon="2.00829">
        <ele>266.6</ele>
        <time>2022-03-08T13:27:00Z</time>
      </trkpt>
      <trkpt lat="43.55577" lon="2.00829">
        <ele>266.5</ele>
        <time>2022-03-08T13:27:01Z</time>
      </trkpt>
      <trkpt lat="43.55572" lon="2.0083">
        <ele>266.1</ele>
        <time>2022-03-08T13:27:03Z</time>
      </trkpt>
      <trkpt lat="43.55569" lon="2.00831">
        <ele>265.9</ele>
        <time>2022-03-08T13:27:04Z</time>
      </trkpt>
      <trkpt lat="43.55568" lon="2.00832">
        <ele>265.8</ele>
        <time>2022-03-08T13:27:05Z</time>
      </trkpt>
      <trkpt lat="43.55565" lon="2.00834">
        <ele>265.5</ele>
        <time>2022-03-08T13:27:06Z</time>
      </trkpt>
      <trkpt lat="43.55562" lon="2.00836">
        <ele>265.2</ele>
        <time>2022-03-08T13:27:08Z</time>
      </trkpt>
      <trkpt lat="43.5556" lon="2.00839">
        <ele>265</ele>
        <time>2022-03-08T13:27:09Z</time>
      </trkpt>
      <trkpt lat="43.55558" lon="2.00842">
        <ele>264.8</ele>
        <time>2022-03-08T13:27:10Z</time>
      </trkpt>
      <trkpt lat="43.55557" lon="2.00842">
        <ele>264.7</ele>
        <time>2022-03-08T13:27:11Z</time>
      </trkpt>
      <trkpt lat="43.55554" lon="2.00845">
        <ele>264.5</ele>
        <time>2022-03-08T13:27:12Z</time>
      </trkpt>
      <trkpt lat="43.55553" lon="2.00846">
        <ele>264.4</ele>
        <time>2022-03-08T13:27:13Z</time>
      </trkpt>
      <trkpt lat="43.5555" lon="2.00848">
        <ele>264.1</ele>
        <time>2022-03-08T13:27:14Z</time>
      </trkpt>
      <trkpt lat="43.5555" lon="2.00849">
        <ele>264</ele>
        <time>2022-03-08T13:27:15Z</time>
      </trkpt>
      <trkpt lat="43.55546" lon="2.00852">
        <ele>263.7</ele>
        <time>2022-03-08T13:27:17Z</time>
      </trkpt>
      <trkpt lat="43.55545" lon="2.00853">
        <ele>263.6</ele>
        <time>2022-03-08T13:27:18Z</time>
      </trkpt>
      <trkpt lat="43.55544" lon="2.00854">
        <ele>263.5</ele>
        <time>2022-03-08T13:27:19Z</time>
      </trkpt>
      <trkpt lat="43.55541" lon="2.00858">
        <ele>263.2</ele>
        <time>2022-03-08T13:27:20Z</time>
      </trkpt>
      <trkpt lat="43.55541" lon="2.00859">
        <ele>263.1</ele>
        <time>2022-03-08T13:27:21Z</time>
      </trkpt>
      <trkpt lat="43.55539" lon="2.00863">
        <ele>262.9</ele>
        <time>2022-03-08T13:27:23Z</time>
      </trkpt>
      <trkpt lat="43.55538" lon="2.00864">
        <ele>262.8</ele>
        <time>2022-03-08T13:27:24Z</time>
      </trkpt>
      <trkpt lat="43.55538" lon="2.00866">
        <ele>262.7</ele>
        <time>2022-03-08T13:27:25Z</time>
      </trkpt>
      <trkpt lat="43.55537" lon="2.00868">
        <ele>262.6</ele>
        <time>2022-03-08T13:27:26Z</time>
      </trkpt>
      <trkpt lat="43.55536" lon="2.0087">
        <ele>262.4</ele>
        <time>2022-03-08T13:27:27Z</time>
      </trkpt>
      <trkpt lat="43.55535" lon="2.00871">
        <ele>262.4</ele>
        <time>2022-03-08T13:27:28Z</time>
      </trkpt>
      <trkpt lat="43.55535" lon="2.00872">
        <ele>262.3</ele>
        <time>2022-03-08T13:27:30Z</time>
      </trkpt>
      <trkpt lat="43.55534" lon="2.00873">
        <ele>262.3</ele>
        <time>2022-03-08T13:27:31Z</time>
      </trkpt>
      <trkpt lat="43.55533" lon="2.00874">
        <ele>262.2</ele>
        <time>2022-03-08T13:27:32Z</time>
      </trkpt>
      <trkpt lat="43.55533" lon="2.00875">
        <ele>262.1</ele>
        <time>2022-03-08T13:27:33Z</time>
      </trkpt>
      <trkpt lat="43.55532" lon="2.00876">
        <ele>262</ele>
        <time>2022-03-08T13:27:34Z</time>
      </trkpt>
      <trkpt lat="43.55529" lon="2.00878">
        <ele>261.8</ele>
        <time>2022-03-08T13:27:36Z</time>
      </trkpt>
      <trkpt lat="43.55527" lon="2.0088">
        <ele>261.7</ele>
        <time>2022-03-08T13:27:37Z</time>
      </trkpt>
      <trkpt lat="43.55526" lon="2.00881">
        <ele>261.6</ele>
        <time>2022-03-08T13:27:38Z</time>
      </trkpt>
      <trkpt lat="43.55524" lon="2.00882">
        <ele>261.5</ele>
        <time>2022-03-08T13:27:39Z</time>
      </trkpt>
      <trkpt lat="43.55521" lon="2.00883">
        <ele>261.3</ele>
        <time>2022-03-08T13:27:41Z</time>
      </trkpt>
      <trkpt lat="43.55519" lon="2.00884">
        <ele>261.2</ele>
        <time>2022-03-08T13:27:42Z</time>
      </trkpt>
      <trkpt lat="43.55517" lon="2.00884">
        <ele>261.1</ele>
        <time>2022-03-08T13:27:43Z</time>
      </trkpt>
      <trkpt lat="43.55514" lon="2.00884">
        <ele>260.9</ele>
        <time>2022-03-08T13:27:44Z</time>
      </trkpt>
      <trkpt lat="43.55513" lon="2.00884">
        <ele>260.9</ele>
        <time>2022-03-08T13:27:45Z</time>
      </trkpt>
      <trkpt lat="43.55511" lon="2.00885">
        <ele>260.7</ele>
        <time>2022-03-08T13:27:47Z</time>
      </trkpt>
      <trkpt lat="43.5551" lon="2.00886">
        <ele>260.7</ele>
        <time>2022-03-08T13:27:48Z</time>
      </trkpt>
      <trkpt lat="43.55507" lon="2.00886">
        <ele>260.6</ele>
        <time>2022-03-08T13:27:49Z</time>
      </trkpt>
      <trkpt lat="43.55505" lon="2.00886">
        <ele>260.5</ele>
        <time>2022-03-08T13:27:50Z</time>
      </trkpt>
      <trkpt lat="43.55503" lon="2.00886">
        <ele>260.4</ele>
        <time>2022-03-08T13:27:52Z</time>
      </trkpt>
      <trkpt lat="43.55501" lon="2.00886">
        <ele>260.3</ele>
        <time>2022-03-08T13:27:53Z</time>
      </trkpt>
      <trkpt lat="43.555" lon="2.00886">
        <ele>260.2</ele>
        <time>2022-03-08T13:27:54Z</time>
      </trkpt>
      <trkpt lat="43.55499" lon="2.00885">
        <ele>260.2</ele>
        <time>2022-03-08T13:27:55Z</time>
      </trkpt>
      <trkpt lat="43.55498" lon="2.00885">
        <ele>260.1</ele>
        <time>2022-03-08T13:27:56Z</time>
      </trkpt>
      <trkpt lat="43.55497" lon="2.00885">
        <ele>260.1</ele>
        <time>2022-03-08T13:27:57Z</time>
      </trkpt>
      <trkpt lat="43.55496" lon="2.00884">
        <ele>260</ele>
        <time>2022-03-08T13:27:58Z</time>
      </trkpt>
      <trkpt lat="43.55495" lon="2.00884">
        <ele>260</ele>
        <time>2022-03-08T13:27:59Z</time>
      </trkpt>
      <trkpt lat="43.55494" lon="2.00885">
        <ele>259.9</ele>
        <time>2022-03-08T13:28:00Z</time>
      </trkpt>
      <trkpt lat="43.55492" lon="2.00885">
        <ele>259.8</ele>
        <time>2022-03-08T13:28:02Z</time>
      </trkpt>
      <trkpt lat="43.5549" lon="2.00886">
        <ele>259.7</ele>
        <time>2022-03-08T13:28:03Z</time>
      </trkpt>
      <trkpt lat="43.55489" lon="2.00886">
        <ele>259.7</ele>
        <time>2022-03-08T13:28:04Z</time>
      </trkpt>
      <trkpt lat="43.55488" lon="2.00887">
        <ele>259.6</ele>
        <time>2022-03-08T13:28:05Z</time>
      </trkpt>
      <trkpt lat="43.55487" lon="2.00888">
        <ele>259.6</ele>
        <time>2022-03-08T13:28:06Z</time>
      </trkpt>
      <trkpt lat="43.55485" lon="2.00888">
        <ele>259.5</ele>
        <time>2022-03-08T13:28:07Z</time>
      </trkpt>
      <trkpt lat="43.55482" lon="2.0089">
        <ele>259.4</ele>
        <time>2022-03-08T13:28:08Z</time>
      </trkpt>
      <trkpt lat="43.55482" lon="2.00891">
        <ele>259.3</ele>
        <time>2022-03-08T13:28:09Z</time>
      </trkpt>
      <trkpt lat="43.5548" lon="2.00892">
        <ele>259.2</ele>
        <time>2022-03-08T13:28:10Z</time>
      </trkpt>
      <trkpt lat="43.55479" lon="2.00894">
        <ele>259.2</ele>
        <time>2022-03-08T13:28:11Z</time>
      </trkpt>
      <trkpt lat="43.55477" lon="2.00897">
        <ele>259</ele>
        <time>2022-03-08T13:28:12Z</time>
      </trkpt>
      <trkpt lat="43.55476" lon="2.00898">
        <ele>259</ele>
        <time>2022-03-08T13:28:13Z</time>
      </trkpt>
      <trkpt lat="43.55475" lon="2.00902">
        <ele>258.8</ele>
        <time>2022-03-08T13:28:15Z</time>
      </trkpt>
      <trkpt lat="43.55474" lon="2.00903">
        <ele>258.8</ele>
        <time>2022-03-08T13:28:16Z</time>
      </trkpt>
      <trkpt lat="43.55474" lon="2.00905">
        <ele>258.7</ele>
        <time>2022-03-08T13:28:17Z</time>
      </trkpt>
      <trkpt lat="43.55475" lon="2.00907">
        <ele>258.7</ele>
        <time>2022-03-08T13:28:18Z</time>
      </trkpt>
      <trkpt lat="43.55475" lon="2.00909">
        <ele>258.6</ele>
        <time>2022-03-08T13:28:20Z</time>
      </trkpt>
      <trkpt lat="43.55475" lon="2.00911">
        <ele>258.5</ele>
        <time>2022-03-08T13:28:21Z</time>
      </trkpt>
      <trkpt lat="43.55475" lon="2.00912">
        <ele>258.5</ele>
        <time>2022-03-08T13:28:22Z</time>
      </trkpt>
      <trkpt lat="43.55475" lon="2.00913">
        <ele>258.4</ele>
        <time>2022-03-08T13:28:23Z</time>
      </trkpt>
      <trkpt lat="43.55473" lon="2.00916">
        <ele>258.3</ele>
        <time>2022-03-08T13:28:24Z</time>
      </trkpt>
      <trkpt lat="43.55472" lon="2.00917">
        <ele>258.3</ele>
        <time>2022-03-08T13:28:26Z</time>
      </trkpt>
      <trkpt lat="43.55471" lon="2.00918">
        <ele>258.2</ele>
        <time>2022-03-08T13:28:27Z</time>
      </trkpt>
      <trkpt lat="43.55471" lon="2.00919">
        <ele>258.2</ele>
        <time>2022-03-08T13:28:28Z</time>
      </trkpt>
      <trkpt lat="43.5547" lon="2.0092">
        <ele>258.1</ele>
        <time>2022-03-08T13:28:29Z</time>
      </trkpt>
      <trkpt lat="43.55468" lon="2.0092">
        <ele>258</ele>
        <time>2022-03-08T13:28:30Z</time>
      </trkpt>
      <trkpt lat="43.55465" lon="2.00921">
        <ele>257.8</ele>
        <time>2022-03-08T13:28:32Z</time>
      </trkpt>
      <trkpt lat="43.55463" lon="2.00921">
        <ele>257.8</ele>
        <time>2022-03-08T13:28:33Z</time>
      </trkpt>
      <trkpt lat="43.55461" lon="2.00921">
        <ele>257.7</ele>
        <time>2022-03-08T13:28:34Z</time>
      </trkpt>
      <trkpt lat="43.55459" lon="2.00921">
        <ele>257.6</ele>
        <time>2022-03-08T13:28:35Z</time>
      </trkpt>
      <trkpt lat="43.55458" lon="2.00921">
        <ele>257.5</ele>
        <time>2022-03-08T13:28:36Z</time>
      </trkpt>
      <trkpt lat="43.55457" lon="2.00921">
        <ele>257.5</ele>
        <time>2022-03-08T13:28:37Z</time>
      </trkpt>
      <trkpt lat="43.55456" lon="2.00921">
        <ele>257.4</ele>
        <time>2022-03-08T13:28:38Z</time>
      </trkpt>
      <trkpt lat="43.55455" lon="2.00922">
        <ele>257.4</ele>
        <time>2022-03-08T13:28:39Z</time>
      </trkpt>
      <trkpt lat="43.55454" lon="2.00923">
        <ele>257.3</ele>
        <time>2022-03-08T13:28:41Z</time>
      </trkpt>
      <trkpt lat="43.55453" lon="2.00924">
        <ele>257.2</ele>
        <time>2022-03-08T13:28:42Z</time>
      </trkpt>
      <trkpt lat="43.55452" lon="2.00925">
        <ele>257.2</ele>
        <time>2022-03-08T13:28:43Z</time>
      </trkpt>
      <trkpt lat="43.55451" lon="2.00926">
        <ele>257.1</ele>
        <time>2022-03-08T13:28:44Z</time>
      </trkpt>
      <trkpt lat="43.55451" lon="2.00928">
        <ele>257</ele>
        <time>2022-03-08T13:28:45Z</time>
      </trkpt>
      <trkpt lat="43.5545" lon="2.00929">
        <ele>257</ele>
        <time>2022-03-08T13:28:46Z</time>
      </trkpt>
      <trkpt lat="43.5545" lon="2.0093">
        <ele>256.9</ele>
        <time>2022-03-08T13:28:47Z</time>
      </trkpt>
      <trkpt lat="43.5545" lon="2.00931">
        <ele>256.9</ele>
        <time>2022-03-08T13:28:48Z</time>
      </trkpt>
      <trkpt lat="43.55449" lon="2.00933">
        <ele>256.8</ele>
        <time>2022-03-08T13:28:49Z</time>
      </trkpt>
      <trkpt lat="43.55448" lon="2.00934">
        <ele>256.8</ele>
        <time>2022-03-08T13:28:50Z</time>
      </trkpt>
      <trkpt lat="43.55446" lon="2.00937">
        <ele>256.6</ele>
        <time>2022-03-08T13:28:51Z</time>
      </trkpt>
      <trkpt lat="43.55445" lon="2.00938">
        <ele>256.5</ele>
        <time>2022-03-08T13:28:52Z</time>
      </trkpt>
      <trkpt lat="43.55444" lon="2.00939">
        <ele>256.5</ele>
        <time>2022-03-08T13:28:53Z</time>
      </trkpt>
      <trkpt lat="43.55441" lon="2.0094">
        <ele>256.3</ele>
        <time>2022-03-08T13:28:55Z</time>
      </trkpt>
      <trkpt lat="43.55439" lon="2.0094">
        <ele>256.2</ele>
        <time>2022-03-08T13:28:56Z</time>
      </trkpt>
      <trkpt lat="43.55438" lon="2.0094">
        <ele>256.1</ele>
        <time>2022-03-08T13:28:57Z</time>
      </trkpt>
      <trkpt lat="43.55436" lon="2.0094">
        <ele>256</ele>
        <time>2022-03-08T13:28:58Z</time>
      </trkpt>
      <trkpt lat="43.55434" lon="2.0094">
        <ele>255.9</ele>
        <time>2022-03-08T13:28:59Z</time>
      </trkpt>
      <trkpt lat="43.55433" lon="2.0094">
        <ele>255.9</ele>
        <time>2022-03-08T13:29:00Z</time>
      </trkpt>
      <trkpt lat="43.55431" lon="2.00941">
        <ele>255.8</ele>
        <time>2022-03-08T13:29:01Z</time>
      </trkpt>
      <trkpt lat="43.5543" lon="2.00941">
        <ele>255.7</ele>
        <time>2022-03-08T13:29:02Z</time>
      </trkpt>
      <trkpt lat="43.55428" lon="2.00942">
        <ele>255.6</ele>
        <time>2022-03-08T13:29:04Z</time>
      </trkpt>
      <trkpt lat="43.55427" lon="2.00943">
        <ele>255.5</ele>
        <time>2022-03-08T13:29:05Z</time>
      </trkpt>
      <trkpt lat="43.55426" lon="2.00944">
        <ele>255.4</ele>
        <time>2022-03-08T13:29:06Z</time>
      </trkpt>
      <trkpt lat="43.55425" lon="2.00946">
        <ele>255.4</ele>
        <time>2022-03-08T13:29:07Z</time>
      </trkpt>
      <trkpt lat="43.55423" lon="2.00947">
        <ele>255.3</ele>
        <time>2022-03-08T13:29:08Z</time>
      </trkpt>
      <trkpt lat="43.55422" lon="2.0095">
        <ele>255.2</ele>
        <time>2022-03-08T13:29:09Z</time>
      </trkpt>
      <trkpt lat="43.55422" lon="2.00951">
        <ele>255.1</ele>
        <time>2022-03-08T13:29:10Z</time>
      </trkpt>
      <trkpt lat="43.55421" lon="2.00952">
        <ele>255.1</ele>
        <time>2022-03-08T13:29:11Z</time>
      </trkpt>
      <trkpt lat="43.5542" lon="2.00954">
        <ele>255</ele>
        <time>2022-03-08T13:29:12Z</time>
      </trkpt>
      <trkpt lat="43.55418" lon="2.00957">
        <ele>254.8</ele>
        <time>2022-03-08T13:29:14Z</time>
      </trkpt>
      <trkpt lat="43.55418" lon="2.00957">
        <ele>254.8</ele>
        <time>2022-03-08T13:29:15Z</time>
      </trkpt>
      <trkpt lat="43.55417" lon="2.00958">
        <ele>254.7</ele>
        <time>2022-03-08T13:29:16Z</time>
      </trkpt>
      <trkpt lat="43.55416" lon="2.00959">
        <ele>254.6</ele>
        <time>2022-03-08T13:29:17Z</time>
      </trkpt>
      <trkpt lat="43.55413" lon="2.0096">
        <ele>254.5</ele>
        <time>2022-03-08T13:29:18Z</time>
      </trkpt>
      <trkpt lat="43.55412" lon="2.0096">
        <ele>254.4</ele>
        <time>2022-03-08T13:29:19Z</time>
      </trkpt>
      <trkpt lat="43.5541" lon="2.00961">
        <ele>254.3</ele>
        <time>2022-03-08T13:29:20Z</time>
      </trkpt>
      <trkpt lat="43.55409" lon="2.00961">
        <ele>254.3</ele>
        <time>2022-03-08T13:29:21Z</time>
      </trkpt>
      <trkpt lat="43.55408" lon="2.00961">
        <ele>254.2</ele>
        <time>2022-03-08T13:29:22Z</time>
      </trkpt>
      <trkpt lat="43.55406" lon="2.00961">
        <ele>254.1</ele>
        <time>2022-03-08T13:29:24Z</time>
      </trkpt>
      <trkpt lat="43.55405" lon="2.00961">
        <ele>254</ele>
        <time>2022-03-08T13:29:25Z</time>
      </trkpt>
      <trkpt lat="43.55403" lon="2.00961">
        <ele>253.9</ele>
        <time>2022-03-08T13:29:26Z</time>
      </trkpt>
      <trkpt lat="43.55401" lon="2.0096">
        <ele>253.8</ele>
        <time>2022-03-08T13:29:28Z</time>
      </trkpt>
      <trkpt lat="43.554" lon="2.00961">
        <ele>253.7</ele>
        <time>2022-03-08T13:29:29Z</time>
      </trkpt>
      <trkpt lat="43.55399" lon="2.00961">
        <ele>253.7</ele>
        <time>2022-03-08T13:29:30Z</time>
      </trkpt>
      <trkpt lat="43.55396" lon="2.00961">
        <ele>253.5</ele>
        <time>2022-03-08T13:29:31Z</time>
      </trkpt>
      <trkpt lat="43.55396" lon="2.00962">
        <ele>253.5</ele>
        <time>2022-03-08T13:29:32Z</time>
      </trkpt>
      <trkpt lat="43.55395" lon="2.00962">
        <ele>253.4</ele>
        <time>2022-03-08T13:29:33Z</time>
      </trkpt>
      <trkpt lat="43.55394" lon="2.00963">
        <ele>253.3</ele>
        <time>2022-03-08T13:29:35Z</time>
      </trkpt>
      <trkpt lat="43.55392" lon="2.00965">
        <ele>253.2</ele>
        <time>2022-03-08T13:29:37Z</time>
      </trkpt>
      <trkpt lat="43.55391" lon="2.00965">
        <ele>253.2</ele>
        <time>2022-03-08T13:29:39Z</time>
      </trkpt>
      <trkpt lat="43.55391" lon="2.00965">
        <ele>253.1</ele>
        <time>2022-03-08T13:29:40Z</time>
      </trkpt>
      <trkpt lat="43.5539" lon="2.00964">
        <ele>253.1</ele>
        <time>2022-03-08T13:29:41Z</time>
      </trkpt>
      <trkpt lat="43.55389" lon="2.00965">
        <ele>253</ele>
        <time>2022-03-08T13:29:42Z</time>
      </trkpt>
      <trkpt lat="43.55388" lon="2.00965">
        <ele>253</ele>
        <time>2022-03-08T13:29:43Z</time>
      </trkpt>
      <trkpt lat="43.55387" lon="2.00966">
        <ele>252.9</ele>
        <time>2022-03-08T13:29:44Z</time>
      </trkpt>
      <trkpt lat="43.55386" lon="2.00969">
        <ele>252.7</ele>
        <time>2022-03-08T13:29:45Z</time>
      </trkpt>
      <trkpt lat="43.55386" lon="2.00971">
        <ele>252.6</ele>
        <time>2022-03-08T13:29:46Z</time>
      </trkpt>
      <trkpt lat="43.55385" lon="2.00973">
        <ele>252.5</ele>
        <time>2022-03-08T13:29:47Z</time>
      </trkpt>
      <trkpt lat="43.55383" lon="2.00975">
        <ele>252.4</ele>
        <time>2022-03-08T13:29:48Z</time>
      </trkpt>
      <trkpt lat="43.55382" lon="2.00975">
        <ele>252.3</ele>
        <time>2022-03-08T13:29:49Z</time>
      </trkpt>
      <trkpt lat="43.55381" lon="2.00976">
        <ele>252.3</ele>
        <time>2022-03-08T13:29:50Z</time>
      </trkpt>
      <trkpt lat="43.5538" lon="2.00978">
        <ele>252.1</ele>
        <time>2022-03-08T13:29:51Z</time>
      </trkpt>
      <trkpt lat="43.55379" lon="2.00979">
        <ele>252</ele>
        <time>2022-03-08T13:29:52Z</time>
      </trkpt>
      <trkpt lat="43.55377" lon="2.00983">
        <ele>251.8</ele>
        <time>2022-03-08T13:29:54Z</time>
      </trkpt>
      <trkpt lat="43.55377" lon="2.00984">
        <ele>251.7</ele>
        <time>2022-03-08T13:29:55Z</time>
      </trkpt>
      <trkpt lat="43.55376" lon="2.00988">
        <ele>251.5</ele>
        <time>2022-03-08T13:29:56Z</time>
      </trkpt>
      <trkpt lat="43.55375" lon="2.00989">
        <ele>251.5</ele>
        <time>2022-03-08T13:29:57Z</time>
      </trkpt>
      <trkpt lat="43.55375" lon="2.00991">
        <ele>251.4</ele>
        <time>2022-03-08T13:29:58Z</time>
      </trkpt>
      <trkpt lat="43.55374" lon="2.00992">
        <ele>251.3</ele>
        <time>2022-03-08T13:29:59Z</time>
      </trkpt>
      <trkpt lat="43.55372" lon="2.00995">
        <ele>251</ele>
        <time>2022-03-08T13:30:01Z</time>
      </trkpt>
      <trkpt lat="43.5537" lon="2.00997">
        <ele>250.9</ele>
        <time>2022-03-08T13:30:02Z</time>
      </trkpt>
      <trkpt lat="43.55369" lon="2.00998">
        <ele>250.8</ele>
        <time>2022-03-08T13:30:03Z</time>
      </trkpt>
      <trkpt lat="43.55367" lon="2.00998">
        <ele>250.7</ele>
        <time>2022-03-08T13:30:04Z</time>
      </trkpt>
      <trkpt lat="43.55364" lon="2.00998">
        <ele>250.4</ele>
        <time>2022-03-08T13:30:06Z</time>
      </trkpt>
      <trkpt lat="43.55361" lon="2.00998">
        <ele>250.2</ele>
        <time>2022-03-08T13:30:07Z</time>
      </trkpt>
      <trkpt lat="43.5536" lon="2.00998">
        <ele>250.1</ele>
        <time>2022-03-08T13:30:08Z</time>
      </trkpt>
      <trkpt lat="43.55358" lon="2.00998">
        <ele>250</ele>
        <time>2022-03-08T13:30:09Z</time>
      </trkpt>
      <trkpt lat="43.55356" lon="2.00997">
        <ele>249.8</ele>
        <time>2022-03-08T13:30:10Z</time>
      </trkpt>
      <trkpt lat="43.55355" lon="2.00997">
        <ele>249.7</ele>
        <time>2022-03-08T13:30:11Z</time>
      </trkpt>
      <trkpt lat="43.55353" lon="2.00996">
        <ele>249.6</ele>
        <time>2022-03-08T13:30:12Z</time>
      </trkpt>
      <trkpt lat="43.55352" lon="2.00995">
        <ele>249.5</ele>
        <time>2022-03-08T13:30:13Z</time>
      </trkpt>
      <trkpt lat="43.55351" lon="2.00995">
        <ele>249.5</ele>
        <time>2022-03-08T13:30:14Z</time>
      </trkpt>
      <trkpt lat="43.5535" lon="2.00995">
        <ele>249.4</ele>
        <time>2022-03-08T13:30:16Z</time>
      </trkpt>
      <trkpt lat="43.55349" lon="2.00994">
        <ele>249.3</ele>
        <time>2022-03-08T13:30:17Z</time>
      </trkpt>
      <trkpt lat="43.55349" lon="2.00995">
        <ele>249.3</ele>
        <time>2022-03-08T13:30:18Z</time>
      </trkpt>
      <trkpt lat="43.55349" lon="2.00996">
        <ele>249.2</ele>
        <time>2022-03-08T13:30:19Z</time>
      </trkpt>
      <trkpt lat="43.55347" lon="2.00996">
        <ele>249.1</ele>
        <time>2022-03-08T13:30:20Z</time>
      </trkpt>
      <trkpt lat="43.55346" lon="2.00997">
        <ele>249</ele>
        <time>2022-03-08T13:30:21Z</time>
      </trkpt>
      <trkpt lat="43.55345" lon="2.00998">
        <ele>248.9</ele>
        <time>2022-03-08T13:30:22Z</time>
      </trkpt>
      <trkpt lat="43.55344" lon="2.00999">
        <ele>248.9</ele>
        <time>2022-03-08T13:30:23Z</time>
      </trkpt>
      <trkpt lat="43.55343" lon="2.01">
        <ele>248.8</ele>
        <time>2022-03-08T13:30:24Z</time>
      </trkpt>
      <trkpt lat="43.55342" lon="2.01002">
        <ele>248.7</ele>
        <time>2022-03-08T13:30:25Z</time>
      </trkpt>
      <trkpt lat="43.55342" lon="2.01004">
        <ele>248.5</ele>
        <time>2022-03-08T13:30:26Z</time>
      </trkpt>
      <trkpt lat="43.55341" lon="2.01006">
        <ele>248.4</ele>
        <time>2022-03-08T13:30:27Z</time>
      </trkpt>
      <trkpt lat="43.55341" lon="2.01009">
        <ele>248.3</ele>
        <time>2022-03-08T13:30:28Z</time>
      </trkpt>
      <trkpt lat="43.55341" lon="2.01011">
        <ele>248.2</ele>
        <time>2022-03-08T13:30:29Z</time>
      </trkpt>
      <trkpt lat="43.5534" lon="2.01015">
        <ele>247.9</ele>
        <time>2022-03-08T13:30:31Z</time>
      </trkpt>
      <trkpt lat="43.5534" lon="2.01018">
        <ele>247.8</ele>
        <time>2022-03-08T13:30:32Z</time>
      </trkpt>
      <trkpt lat="43.55339" lon="2.01019">
        <ele>247.7</ele>
        <time>2022-03-08T13:30:33Z</time>
      </trkpt>
      <trkpt lat="43.55338" lon="2.01021">
        <ele>247.6</ele>
        <time>2022-03-08T13:30:34Z</time>
      </trkpt>
      <trkpt lat="43.55336" lon="2.01022">
        <ele>247.5</ele>
        <time>2022-03-08T13:30:35Z</time>
      </trkpt>
      <trkpt lat="43.55335" lon="2.01022">
        <ele>247.4</ele>
        <time>2022-03-08T13:30:36Z</time>
      </trkpt>
      <trkpt lat="43.55333" lon="2.01023">
        <ele>247.2</ele>
        <time>2022-03-08T13:30:37Z</time>
      </trkpt>
      <trkpt lat="43.55331" lon="2.01024">
        <ele>247.1</ele>
        <time>2022-03-08T13:30:38Z</time>
      </trkpt>
      <trkpt lat="43.5533" lon="2.01024">
        <ele>247</ele>
        <time>2022-03-08T13:30:39Z</time>
      </trkpt>
      <trkpt lat="43.55328" lon="2.01024">
        <ele>246.9</ele>
        <time>2022-03-08T13:30:40Z</time>
      </trkpt>
      <trkpt lat="43.55327" lon="2.01024">
        <ele>246.8</ele>
        <time>2022-03-08T13:30:41Z</time>
      </trkpt>
      <trkpt lat="43.55325" lon="2.01024">
        <ele>246.6</ele>
        <time>2022-03-08T13:30:42Z</time>
      </trkpt>
      <trkpt lat="43.55324" lon="2.01024">
        <ele>246.5</ele>
        <time>2022-03-08T13:30:43Z</time>
      </trkpt>
      <trkpt lat="43.55322" lon="2.01025">
        <ele>246.4</ele>
        <time>2022-03-08T13:30:44Z</time>
      </trkpt>
      <trkpt lat="43.55321" lon="2.01026">
        <ele>246.3</ele>
        <time>2022-03-08T13:30:45Z</time>
      </trkpt>
      <trkpt lat="43.55319" lon="2.01027">
        <ele>246.2</ele>
        <time>2022-03-08T13:30:47Z</time>
      </trkpt>
      <trkpt lat="43.55318" lon="2.01028">
        <ele>246.1</ele>
        <time>2022-03-08T13:30:48Z</time>
      </trkpt>
      <trkpt lat="43.55318" lon="2.01029">
        <ele>246</ele>
        <time>2022-03-08T13:30:49Z</time>
      </trkpt>
      <trkpt lat="43.55317" lon="2.0103">
        <ele>245.9</ele>
        <time>2022-03-08T13:30:50Z</time>
      </trkpt>
      <trkpt lat="43.55317" lon="2.01032">
        <ele>245.8</ele>
        <time>2022-03-08T13:30:51Z</time>
      </trkpt>
      <trkpt lat="43.55316" lon="2.01033">
        <ele>245.8</ele>
        <time>2022-03-08T13:30:52Z</time>
      </trkpt>
      <trkpt lat="43.55316" lon="2.01034">
        <ele>245.7</ele>
        <time>2022-03-08T13:30:53Z</time>
      </trkpt>
      <trkpt lat="43.55315" lon="2.01035">
        <ele>245.7</ele>
        <time>2022-03-08T13:30:54Z</time>
      </trkpt>
      <trkpt lat="43.55315" lon="2.01036">
        <ele>245.6</ele>
        <time>2022-03-08T13:30:55Z</time>
      </trkpt>
      <trkpt lat="43.55313" lon="2.01039">
        <ele>245.4</ele>
        <time>2022-03-08T13:30:57Z</time>
      </trkpt>
      <trkpt lat="43.55312" lon="2.01039">
        <ele>245.3</ele>
        <time>2022-03-08T13:30:58Z</time>
      </trkpt>
      <trkpt lat="43.5531" lon="2.0104">
        <ele>245.2</ele>
        <time>2022-03-08T13:30:59Z</time>
      </trkpt>
      <trkpt lat="43.5531" lon="2.0104">
        <ele>245.1</ele>
        <time>2022-03-08T13:31:00Z</time>
      </trkpt>
      <trkpt lat="43.55309" lon="2.0104">
        <ele>245.1</ele>
        <time>2022-03-08T13:31:01Z</time>
      </trkpt>
      <trkpt lat="43.55307" lon="2.01041">
        <ele>245</ele>
        <time>2022-03-08T13:31:02Z</time>
      </trkpt>
      <trkpt lat="43.55306" lon="2.01041">
        <ele>244.9</ele>
        <time>2022-03-08T13:31:03Z</time>
      </trkpt>
      <trkpt lat="43.55304" lon="2.0104">
        <ele>244.8</ele>
        <time>2022-03-08T13:31:04Z</time>
      </trkpt>
      <trkpt lat="43.55304" lon="2.0104">
        <ele>244.7</ele>
        <time>2022-03-08T13:31:05Z</time>
      </trkpt>
      <trkpt lat="43.55302" lon="2.0104">
        <ele>244.6</ele>
        <time>2022-03-08T13:31:07Z</time>
      </trkpt>
      <trkpt lat="43.55301" lon="2.01042">
        <ele>244.5</ele>
        <time>2022-03-08T13:31:08Z</time>
      </trkpt>
      <trkpt lat="43.553" lon="2.01042">
        <ele>244.4</ele>
        <time>2022-03-08T13:31:09Z</time>
      </trkpt>
      <trkpt lat="43.55299" lon="2.01043">
        <ele>244.4</ele>
        <time>2022-03-08T13:31:10Z</time>
      </trkpt>
      <trkpt lat="43.55298" lon="2.01043">
        <ele>244.2</ele>
        <time>2022-03-08T13:31:11Z</time>
      </trkpt>
      <trkpt lat="43.55297" lon="2.01043">
        <ele>244.2</ele>
        <time>2022-03-08T13:31:12Z</time>
      </trkpt>
      <trkpt lat="43.55296" lon="2.01042">
        <ele>244.1</ele>
        <time>2022-03-08T13:31:13Z</time>
      </trkpt>
      <trkpt lat="43.55293" lon="2.01043">
        <ele>243.9</ele>
        <time>2022-03-08T13:31:14Z</time>
      </trkpt>
      <trkpt lat="43.55293" lon="2.01043">
        <ele>243.9</ele>
        <time>2022-03-08T13:31:15Z</time>
      </trkpt>
      <trkpt lat="43.55292" lon="2.01044">
        <ele>243.8</ele>
        <time>2022-03-08T13:31:16Z</time>
      </trkpt>
      <trkpt lat="43.5529" lon="2.01046">
        <ele>243.6</ele>
        <time>2022-03-08T13:31:17Z</time>
      </trkpt>
      <trkpt lat="43.55289" lon="2.01047">
        <ele>243.5</ele>
        <time>2022-03-08T13:31:18Z</time>
      </trkpt>
      <trkpt lat="43.55289" lon="2.01048">
        <ele>243.5</ele>
        <time>2022-03-08T13:31:19Z</time>
      </trkpt>
      <trkpt lat="43.55287" lon="2.0105">
        <ele>243.3</ele>
        <time>2022-03-08T13:31:21Z</time>
      </trkpt>
      <trkpt lat="43.55286" lon="2.01051">
        <ele>243.2</ele>
        <time>2022-03-08T13:31:22Z</time>
      </trkpt>
      <trkpt lat="43.55284" lon="2.01052">
        <ele>243</ele>
        <time>2022-03-08T13:31:24Z</time>
      </trkpt>
      <trkpt lat="43.55283" lon="2.01052">
        <ele>242.9</ele>
        <time>2022-03-08T13:31:25Z</time>
      </trkpt>
      <trkpt lat="43.55281" lon="2.01053">
        <ele>242.8</ele>
        <time>2022-03-08T13:31:26Z</time>
      </trkpt>
      <trkpt lat="43.5528" lon="2.01054">
        <ele>242.7</ele>
        <time>2022-03-08T13:31:27Z</time>
      </trkpt>
      <trkpt lat="43.55279" lon="2.01055">
        <ele>242.6</ele>
        <time>2022-03-08T13:31:28Z</time>
      </trkpt>
      <trkpt lat="43.55278" lon="2.01056">
        <ele>242.5</ele>
        <time>2022-03-08T13:31:29Z</time>
      </trkpt>
      <trkpt lat="43.55278" lon="2.01057">
        <ele>242.4</ele>
        <time>2022-03-08T13:31:30Z</time>
      </trkpt>
      <trkpt lat="43.55277" lon="2.01057">
        <ele>242.4</ele>
        <time>2022-03-08T13:31:31Z</time>
      </trkpt>
      <trkpt lat="43.55277" lon="2.0106">
        <ele>242.3</ele>
        <time>2022-03-08T13:31:32Z</time>
      </trkpt>
      <trkpt lat="43.55277" lon="2.0106">
        <ele>242.2</ele>
        <time>2022-03-08T13:31:33Z</time>
      </trkpt>
      <trkpt lat="43.55275" lon="2.01062">
        <ele>242</ele>
        <time>2022-03-08T13:31:34Z</time>
      </trkpt>
      <trkpt lat="43.55275" lon="2.01063">
        <ele>242</ele>
        <time>2022-03-08T13:31:35Z</time>
      </trkpt>
      <trkpt lat="43.55274" lon="2.01064">
        <ele>241.9</ele>
        <time>2022-03-08T13:31:36Z</time>
      </trkpt>
      <trkpt lat="43.55273" lon="2.01066">
        <ele>241.8</ele>
        <time>2022-03-08T13:31:37Z</time>
      </trkpt>
      <trkpt lat="43.55272" lon="2.01067">
        <ele>241.6</ele>
        <time>2022-03-08T13:31:38Z</time>
      </trkpt>
      <trkpt lat="43.55271" lon="2.01068">
        <ele>241.6</ele>
        <time>2022-03-08T13:31:39Z</time>
      </trkpt>
      <trkpt lat="43.5527" lon="2.01069">
        <ele>241.5</ele>
        <time>2022-03-08T13:31:40Z</time>
      </trkpt>
      <trkpt lat="43.55269" lon="2.01069">
        <ele>241.3</ele>
        <time>2022-03-08T13:31:42Z</time>
      </trkpt>
      <trkpt lat="43.55267" lon="2.0107">
        <ele>241.2</ele>
        <time>2022-03-08T13:31:43Z</time>
      </trkpt>
      <trkpt lat="43.55266" lon="2.01071">
        <ele>241.1</ele>
        <time>2022-03-08T13:31:44Z</time>
      </trkpt>
      <trkpt lat="43.55265" lon="2.01071">
        <ele>241</ele>
        <time>2022-03-08T13:31:45Z</time>
      </trkpt>
      <trkpt lat="43.55264" lon="2.01072">
        <ele>240.9</ele>
        <time>2022-03-08T13:31:46Z</time>
      </trkpt>
      <trkpt lat="43.55263" lon="2.01073">
        <ele>240.8</ele>
        <time>2022-03-08T13:31:47Z</time>
      </trkpt>
      <trkpt lat="43.55262" lon="2.01074">
        <ele>240.7</ele>
        <time>2022-03-08T13:31:48Z</time>
      </trkpt>
      <trkpt lat="43.55261" lon="2.01078">
        <ele>240.5</ele>
        <time>2022-03-08T13:31:50Z</time>
      </trkpt>
      <trkpt lat="43.55261" lon="2.0108">
        <ele>240.4</ele>
        <time>2022-03-08T13:31:51Z</time>
      </trkpt>
      <trkpt lat="43.55262" lon="2.01087">
        <ele>240</ele>
        <time>2022-03-08T13:31:52Z</time>
      </trkpt>
      <trkpt lat="43.55262" lon="2.01089">
        <ele>239.9</ele>
        <time>2022-03-08T13:31:53Z</time>
      </trkpt>
      <trkpt lat="43.55262" lon="2.01092">
        <ele>239.7</ele>
        <time>2022-03-08T13:31:55Z</time>
      </trkpt>
      <trkpt lat="43.55262" lon="2.01093">
        <ele>239.6</ele>
        <time>2022-03-08T13:31:56Z</time>
      </trkpt>
      <trkpt lat="43.55262" lon="2.01095">
        <ele>239.5</ele>
        <time>2022-03-08T13:31:57Z</time>
      </trkpt>
      <trkpt lat="43.55263" lon="2.01097">
        <ele>239.4</ele>
        <time>2022-03-08T13:31:58Z</time>
      </trkpt>
      <trkpt lat="43.55263" lon="2.01098">
        <ele>239.4</ele>
        <time>2022-03-08T13:31:59Z</time>
      </trkpt>
      <trkpt lat="43.55263" lon="2.01099">
        <ele>239.3</ele>
        <time>2022-03-08T13:32:00Z</time>
      </trkpt>
      <trkpt lat="43.55263" lon="2.011">
        <ele>239.2</ele>
        <time>2022-03-08T13:32:01Z</time>
      </trkpt>
      <trkpt lat="43.55263" lon="2.01101">
        <ele>239.2</ele>
        <time>2022-03-08T13:32:02Z</time>
      </trkpt>
      <trkpt lat="43.55262" lon="2.01103">
        <ele>239</ele>
        <time>2022-03-08T13:32:03Z</time>
      </trkpt>
      <trkpt lat="43.55262" lon="2.01105">
        <ele>238.9</ele>
        <time>2022-03-08T13:32:04Z</time>
      </trkpt>
      <trkpt lat="43.55261" lon="2.01106">
        <ele>238.9</ele>
        <time>2022-03-08T13:32:05Z</time>
      </trkpt>
      <trkpt lat="43.55259" lon="2.01107">
        <ele>238.7</ele>
        <time>2022-03-08T13:32:06Z</time>
      </trkpt>
      <trkpt lat="43.55257" lon="2.01108">
        <ele>238.6</ele>
        <time>2022-03-08T13:32:07Z</time>
      </trkpt>
      <trkpt lat="43.55256" lon="2.01109">
        <ele>238.4</ele>
        <time>2022-03-08T13:32:08Z</time>
      </trkpt>
      <trkpt lat="43.55253" lon="2.0111">
        <ele>238.2</ele>
        <time>2022-03-08T13:32:09Z</time>
      </trkpt>
      <trkpt lat="43.55252" lon="2.0111">
        <ele>238.2</ele>
        <time>2022-03-08T13:32:10Z</time>
      </trkpt>
      <trkpt lat="43.5525" lon="2.01111">
        <ele>238</ele>
        <time>2022-03-08T13:32:11Z</time>
      </trkpt>
      <trkpt lat="43.5525" lon="2.01112">
        <ele>237.9</ele>
        <time>2022-03-08T13:32:12Z</time>
      </trkpt>
      <trkpt lat="43.55249" lon="2.01112">
        <ele>237.9</ele>
        <time>2022-03-08T13:32:13Z</time>
      </trkpt>
      <trkpt lat="43.55248" lon="2.01113">
        <ele>237.8</ele>
        <time>2022-03-08T13:32:14Z</time>
      </trkpt>
      <trkpt lat="43.55247" lon="2.01116">
        <ele>237.6</ele>
        <time>2022-03-08T13:32:15Z</time>
      </trkpt>
      <trkpt lat="43.55246" lon="2.01117">
        <ele>237.5</ele>
        <time>2022-03-08T13:32:16Z</time>
      </trkpt>
      <trkpt lat="43.55246" lon="2.01119">
        <ele>237.4</ele>
        <time>2022-03-08T13:32:17Z</time>
      </trkpt>
      <trkpt lat="43.55245" lon="2.01121">
        <ele>237.3</ele>
        <time>2022-03-08T13:32:18Z</time>
      </trkpt>
      <trkpt lat="43.55245" lon="2.01124">
        <ele>237.2</ele>
        <time>2022-03-08T13:32:20Z</time>
      </trkpt>
      <trkpt lat="43.55244" lon="2.01128">
        <ele>237</ele>
        <time>2022-03-08T13:32:22Z</time>
      </trkpt>
      <trkpt lat="43.55244" lon="2.0113">
        <ele>236.9</ele>
        <time>2022-03-08T13:32:23Z</time>
      </trkpt>
      <trkpt lat="43.55243" lon="2.01131">
        <ele>236.8</ele>
        <time>2022-03-08T13:32:24Z</time>
      </trkpt>
      <trkpt lat="43.55243" lon="2.01132">
        <ele>236.7</ele>
        <time>2022-03-08T13:32:25Z</time>
      </trkpt>
      <trkpt lat="43.55243" lon="2.01133">
        <ele>236.7</ele>
        <time>2022-03-08T13:32:26Z</time>
      </trkpt>
      <trkpt lat="43.55242" lon="2.01135">
        <ele>236.6</ele>
        <time>2022-03-08T13:32:27Z</time>
      </trkpt>
      <trkpt lat="43.55242" lon="2.01136">
        <ele>236.5</ele>
        <time>2022-03-08T13:32:28Z</time>
      </trkpt>
      <trkpt lat="43.55241" lon="2.01137">
        <ele>236.4</ele>
        <time>2022-03-08T13:32:29Z</time>
      </trkpt>
      <trkpt lat="43.55239" lon="2.01138">
        <ele>236.3</ele>
        <time>2022-03-08T13:32:30Z</time>
      </trkpt>
      <trkpt lat="43.55238" lon="2.01139">
        <ele>236.2</ele>
        <time>2022-03-08T13:32:32Z</time>
      </trkpt>
      <trkpt lat="43.55237" lon="2.01139">
        <ele>236.1</ele>
        <time>2022-03-08T13:32:33Z</time>
      </trkpt>
      <trkpt lat="43.55236" lon="2.0114">
        <ele>236.1</ele>
        <time>2022-03-08T13:32:34Z</time>
      </trkpt>
      <trkpt lat="43.55235" lon="2.01141">
        <ele>236</ele>
        <time>2022-03-08T13:32:35Z</time>
      </trkpt>
      <trkpt lat="43.55234" lon="2.01144">
        <ele>235.8</ele>
        <time>2022-03-08T13:32:37Z</time>
      </trkpt>
      <trkpt lat="43.55233" lon="2.01147">
        <ele>235.6</ele>
        <time>2022-03-08T13:32:38Z</time>
      </trkpt>
      <trkpt lat="43.55233" lon="2.01148">
        <ele>235.6</ele>
        <time>2022-03-08T13:32:39Z</time>
      </trkpt>
      <trkpt lat="43.55233" lon="2.01149">
        <ele>235.5</ele>
        <time>2022-03-08T13:32:40Z</time>
      </trkpt>
      <trkpt lat="43.55233" lon="2.01151">
        <ele>235.4</ele>
        <time>2022-03-08T13:32:41Z</time>
      </trkpt>
      <trkpt lat="43.55234" lon="2.01155">
        <ele>235.2</ele>
        <time>2022-03-08T13:32:43Z</time>
      </trkpt>
      <trkpt lat="43.55234" lon="2.01157">
        <ele>235.1</ele>
        <time>2022-03-08T13:32:44Z</time>
      </trkpt>
      <trkpt lat="43.55233" lon="2.01158">
        <ele>235</ele>
        <time>2022-03-08T13:32:45Z</time>
      </trkpt>
      <trkpt lat="43.55233" lon="2.0116">
        <ele>235</ele>
        <time>2022-03-08T13:32:46Z</time>
      </trkpt>
      <trkpt lat="43.55231" lon="2.01162">
        <ele>234.8</ele>
        <time>2022-03-08T13:32:47Z</time>
      </trkpt>
      <trkpt lat="43.55231" lon="2.01163">
        <ele>234.8</ele>
        <time>2022-03-08T13:32:48Z</time>
      </trkpt>
      <trkpt lat="43.5523" lon="2.01164">
        <ele>234.7</ele>
        <time>2022-03-08T13:32:49Z</time>
      </trkpt>
      <trkpt lat="43.55228" lon="2.01165">
        <ele>234.6</ele>
        <time>2022-03-08T13:32:50Z</time>
      </trkpt>
      <trkpt lat="43.55228" lon="2.01166">
        <ele>234.6</ele>
        <time>2022-03-08T13:32:51Z</time>
      </trkpt>
      <trkpt lat="43.55227" lon="2.01166">
        <ele>234.5</ele>
        <time>2022-03-08T13:32:52Z</time>
      </trkpt>
      <trkpt lat="43.55225" lon="2.01168">
        <ele>234.4</ele>
        <time>2022-03-08T13:32:53Z</time>
      </trkpt>
      <trkpt lat="43.55224" lon="2.01168">
        <ele>234.3</ele>
        <time>2022-03-08T13:32:54Z</time>
      </trkpt>
      <trkpt lat="43.55223" lon="2.01169">
        <ele>234.3</ele>
        <time>2022-03-08T13:32:55Z</time>
      </trkpt>
      <trkpt lat="43.55222" lon="2.01169">
        <ele>234.2</ele>
        <time>2022-03-08T13:32:57Z</time>
      </trkpt>
      <trkpt lat="43.55221" lon="2.0117">
        <ele>234.1</ele>
        <time>2022-03-08T13:32:58Z</time>
      </trkpt>
      <trkpt lat="43.5522" lon="2.01171">
        <ele>234.1</ele>
        <time>2022-03-08T13:32:59Z</time>
      </trkpt>
      <trkpt lat="43.55219" lon="2.01172">
        <ele>234</ele>
        <time>2022-03-08T13:33:00Z</time>
      </trkpt>
      <trkpt lat="43.55218" lon="2.01173">
        <ele>233.9</ele>
        <time>2022-03-08T13:33:01Z</time>
      </trkpt>
      <trkpt lat="43.55217" lon="2.01174">
        <ele>233.9</ele>
        <time>2022-03-08T13:33:02Z</time>
      </trkpt>
      <trkpt lat="43.55219" lon="2.01177">
        <ele>233.8</ele>
        <time>2022-03-08T13:33:03Z</time>
      </trkpt>
      <trkpt lat="43.5522" lon="2.01179">
        <ele>233.7</ele>
        <time>2022-03-08T13:33:05Z</time>
      </trkpt>
      <trkpt lat="43.55221" lon="2.01183">
        <ele>233.5</ele>
        <time>2022-03-08T13:33:06Z</time>
      </trkpt>
      <trkpt lat="43.55221" lon="2.01187">
        <ele>233.3</ele>
        <time>2022-03-08T13:33:07Z</time>
      </trkpt>
      <trkpt lat="43.55222" lon="2.01189">
        <ele>233.3</ele>
        <time>2022-03-08T13:33:08Z</time>
      </trkpt>
      <trkpt lat="43.55222" lon="2.01191">
        <ele>233.2</ele>
        <time>2022-03-08T13:33:09Z</time>
      </trkpt>
      <trkpt lat="43.55222" lon="2.01194">
        <ele>233.1</ele>
        <time>2022-03-08T13:33:10Z</time>
      </trkpt>
      <trkpt lat="43.55222" lon="2.01196">
        <ele>233</ele>
        <time>2022-03-08T13:33:11Z</time>
      </trkpt>
      <trkpt lat="43.55223" lon="2.012">
        <ele>232.8</ele>
        <time>2022-03-08T13:33:13Z</time>
      </trkpt>
      <trkpt lat="43.55223" lon="2.01202">
        <ele>232.8</ele>
        <time>2022-03-08T13:33:14Z</time>
      </trkpt>
      <trkpt lat="43.55222" lon="2.01204">
        <ele>232.7</ele>
        <time>2022-03-08T13:33:15Z</time>
      </trkpt>
      <trkpt lat="43.55221" lon="2.01207">
        <ele>232.6</ele>
        <time>2022-03-08T13:33:16Z</time>
      </trkpt>
      <trkpt lat="43.5522" lon="2.01209">
        <ele>232.5</ele>
        <time>2022-03-08T13:33:17Z</time>
      </trkpt>
      <trkpt lat="43.55219" lon="2.01212">
        <ele>232.4</ele>
        <time>2022-03-08T13:33:19Z</time>
      </trkpt>
      <trkpt lat="43.55217" lon="2.01213">
        <ele>232.3</ele>
        <time>2022-03-08T13:33:20Z</time>
      </trkpt>
      <trkpt lat="43.55216" lon="2.01214">
        <ele>232.2</ele>
        <time>2022-03-08T13:33:21Z</time>
      </trkpt>
      <trkpt lat="43.55214" lon="2.01216">
        <ele>232.1</ele>
        <time>2022-03-08T13:33:22Z</time>
      </trkpt>
      <trkpt lat="43.55213" lon="2.01216">
        <ele>232</ele>
        <time>2022-03-08T13:33:23Z</time>
      </trkpt>
      <trkpt lat="43.5521" lon="2.01217">
        <ele>231.9</ele>
        <time>2022-03-08T13:33:24Z</time>
      </trkpt>
      <trkpt lat="43.55209" lon="2.01218">
        <ele>231.8</ele>
        <time>2022-03-08T13:33:25Z</time>
      </trkpt>
      <trkpt lat="43.55207" lon="2.01219">
        <ele>231.8</ele>
        <time>2022-03-08T13:33:27Z</time>
      </trkpt>
      <trkpt lat="43.55206" lon="2.0122">
        <ele>231.7</ele>
        <time>2022-03-08T13:33:28Z</time>
      </trkpt>
      <trkpt lat="43.55205" lon="2.01221">
        <ele>231.6</ele>
        <time>2022-03-08T13:33:29Z</time>
      </trkpt>
      <trkpt lat="43.55204" lon="2.01223">
        <ele>231.6</ele>
        <time>2022-03-08T13:33:30Z</time>
      </trkpt>
      <trkpt lat="43.55204" lon="2.01226">
        <ele>231.5</ele>
        <time>2022-03-08T13:33:31Z</time>
      </trkpt>
      <trkpt lat="43.55204" lon="2.01227">
        <ele>231.4</ele>
        <time>2022-03-08T13:33:32Z</time>
      </trkpt>
      <trkpt lat="43.55204" lon="2.01229">
        <ele>231.4</ele>
        <time>2022-03-08T13:33:33Z</time>
      </trkpt>
      <trkpt lat="43.55204" lon="2.01231">
        <ele>231.3</ele>
        <time>2022-03-08T13:33:34Z</time>
      </trkpt>
      <trkpt lat="43.55204" lon="2.01235">
        <ele>231.2</ele>
        <time>2022-03-08T13:33:35Z</time>
      </trkpt>
      <trkpt lat="43.55204" lon="2.01236">
        <ele>231.2</ele>
        <time>2022-03-08T13:33:36Z</time>
      </trkpt>
      <trkpt lat="43.55204" lon="2.01237">
        <ele>231.2</ele>
        <time>2022-03-08T13:33:37Z</time>
      </trkpt>
      <trkpt lat="43.55204" lon="2.01238">
        <ele>231.1</ele>
        <time>2022-03-08T13:33:38Z</time>
      </trkpt>
      <trkpt lat="43.55205" lon="2.0124">
        <ele>231.1</ele>
        <time>2022-03-08T13:33:39Z</time>
      </trkpt>
      <trkpt lat="43.55205" lon="2.01241">
        <ele>231.1</ele>
        <time>2022-03-08T13:33:40Z</time>
      </trkpt>
      <trkpt lat="43.55205" lon="2.01243">
        <ele>231</ele>
        <time>2022-03-08T13:33:41Z</time>
      </trkpt>
      <trkpt lat="43.55205" lon="2.01245">
        <ele>231</ele>
        <time>2022-03-08T13:33:42Z</time>
      </trkpt>
      <trkpt lat="43.55205" lon="2.01247">
        <ele>230.9</ele>
        <time>2022-03-08T13:33:44Z</time>
      </trkpt>
      <trkpt lat="43.55203" lon="2.01249">
        <ele>230.8</ele>
        <time>2022-03-08T13:33:45Z</time>
      </trkpt>
      <trkpt lat="43.55201" lon="2.0125">
        <ele>230.8</ele>
        <time>2022-03-08T13:33:46Z</time>
      </trkpt>
      <trkpt lat="43.55199" lon="2.01251">
        <ele>230.7</ele>
        <time>2022-03-08T13:33:47Z</time>
      </trkpt>
      <trkpt lat="43.55198" lon="2.01251">
        <ele>230.7</ele>
        <time>2022-03-08T13:33:48Z</time>
      </trkpt>
      <trkpt lat="43.55197" lon="2.01252">
        <ele>230.7</ele>
        <time>2022-03-08T13:33:49Z</time>
      </trkpt>
      <trkpt lat="43.55195" lon="2.01253">
        <ele>230.6</ele>
        <time>2022-03-08T13:33:50Z</time>
      </trkpt>
      <trkpt lat="43.55193" lon="2.01254">
        <ele>230.6</ele>
        <time>2022-03-08T13:33:52Z</time>
      </trkpt>
      <trkpt lat="43.55191" lon="2.01255">
        <ele>230.5</ele>
        <time>2022-03-08T13:33:53Z</time>
      </trkpt>
      <trkpt lat="43.55191" lon="2.01256">
        <ele>230.5</ele>
        <time>2022-03-08T13:33:54Z</time>
      </trkpt>
      <trkpt lat="43.5519" lon="2.01256">
        <ele>230.5</ele>
        <time>2022-03-08T13:33:55Z</time>
      </trkpt>
      <trkpt lat="43.55188" lon="2.0126">
        <ele>230.4</ele>
        <time>2022-03-08T13:33:56Z</time>
      </trkpt>
      <trkpt lat="43.55187" lon="2.01261">
        <ele>230.4</ele>
        <time>2022-03-08T13:33:57Z</time>
      </trkpt>
      <trkpt lat="43.55186" lon="2.01265">
        <ele>230.3</ele>
        <time>2022-03-08T13:33:58Z</time>
      </trkpt>
      <trkpt lat="43.55186" lon="2.01266">
        <ele>230.3</ele>
        <time>2022-03-08T13:33:59Z</time>
      </trkpt>
      <trkpt lat="43.55187" lon="2.01271">
        <ele>230.3</ele>
        <time>2022-03-08T13:34:01Z</time>
      </trkpt>
      <trkpt lat="43.55187" lon="2.01273">
        <ele>230.2</ele>
        <time>2022-03-08T13:34:02Z</time>
      </trkpt>
      <trkpt lat="43.55187" lon="2.01276">
        <ele>230.2</ele>
        <time>2022-03-08T13:34:03Z</time>
      </trkpt>
      <trkpt lat="43.55187" lon="2.01277">
        <ele>230.2</ele>
        <time>2022-03-08T13:34:04Z</time>
      </trkpt>
      <trkpt lat="43.55186" lon="2.01278">
        <ele>230.2</ele>
        <time>2022-03-08T13:34:05Z</time>
      </trkpt>
      <trkpt lat="43.55186" lon="2.01279">
        <ele>230.2</ele>
        <time>2022-03-08T13:34:06Z</time>
      </trkpt>
      <trkpt lat="43.55186" lon="2.01281">
        <ele>230.2</ele>
        <time>2022-03-08T13:34:07Z</time>
      </trkpt>
      <trkpt lat="43.55185" lon="2.01284">
        <ele>230.1</ele>
        <time>2022-03-08T13:34:08Z</time>
      </trkpt>
      <trkpt lat="43.55185" lon="2.01286">
        <ele>230.1</ele>
        <time>2022-03-08T13:34:09Z</time>
      </trkpt>
      <trkpt lat="43.55184" lon="2.01287">
        <ele>230.1</ele>
        <time>2022-03-08T13:34:10Z</time>
      </trkpt>
      <trkpt lat="43.55183" lon="2.01289">
        <ele>230.1</ele>
        <time>2022-03-08T13:34:11Z</time>
      </trkpt>
      <trkpt lat="43.55182" lon="2.01289">
        <ele>230.1</ele>
        <time>2022-03-08T13:34:12Z</time>
      </trkpt>
      <trkpt lat="43.55181" lon="2.0129">
        <ele>230.1</ele>
        <time>2022-03-08T13:34:13Z</time>
      </trkpt>
      <trkpt lat="43.55179" lon="2.01291">
        <ele>230.1</ele>
        <time>2022-03-08T13:34:15Z</time>
      </trkpt>
      <trkpt lat="43.55177" lon="2.01291">
        <ele>230.1</ele>
        <time>2022-03-08T13:34:16Z</time>
      </trkpt>
      <trkpt lat="43.55176" lon="2.01291">
        <ele>230.1</ele>
        <time>2022-03-08T13:34:18Z</time>
      </trkpt>
      <trkpt lat="43.55176" lon="2.01291">
        <ele>230.1</ele>
        <time>2022-03-08T13:34:19Z</time>
      </trkpt>
      <trkpt lat="43.55175" lon="2.01291">
        <ele>230</ele>
        <time>2022-03-08T13:34:20Z</time>
      </trkpt>
      <trkpt lat="43.55174" lon="2.01292">
        <ele>230</ele>
        <time>2022-03-08T13:34:21Z</time>
      </trkpt>
      <trkpt lat="43.55172" lon="2.01293">
        <ele>230</ele>
        <time>2022-03-08T13:34:22Z</time>
      </trkpt>
      <trkpt lat="43.55172" lon="2.01297">
        <ele>230</ele>
        <time>2022-03-08T13:34:23Z</time>
      </trkpt>
      <trkpt lat="43.55172" lon="2.01298">
        <ele>230</ele>
        <time>2022-03-08T13:34:24Z</time>
      </trkpt>
      <trkpt lat="43.55171" lon="2.01301">
        <ele>230</ele>
        <time>2022-03-08T13:34:25Z</time>
      </trkpt>
      <trkpt lat="43.5517" lon="2.01303">
        <ele>230</ele>
        <time>2022-03-08T13:34:27Z</time>
      </trkpt>
      <trkpt lat="43.5517" lon="2.01305">
        <ele>230</ele>
        <time>2022-03-08T13:34:28Z</time>
      </trkpt>
      <trkpt lat="43.5517" lon="2.0131">
        <ele>230</ele>
        <time>2022-03-08T13:34:30Z</time>
      </trkpt>
      <trkpt lat="43.55169" lon="2.01311">
        <ele>230</ele>
        <time>2022-03-08T13:34:31Z</time>
      </trkpt>
      <trkpt lat="43.55168" lon="2.01312">
        <ele>230</ele>
        <time>2022-03-08T13:34:32Z</time>
      </trkpt>
      <trkpt lat="43.55167" lon="2.01313">
        <ele>230</ele>
        <time>2022-03-08T13:34:34Z</time>
      </trkpt>
      <trkpt lat="43.55164" lon="2.01316">
        <ele>230</ele>
        <time>2022-03-08T13:34:35Z</time>
      </trkpt>
      <trkpt lat="43.55161" lon="2.01317">
        <ele>230</ele>
        <time>2022-03-08T13:34:36Z</time>
      </trkpt>
      <trkpt lat="43.5516" lon="2.01317">
        <ele>230</ele>
        <time>2022-03-08T13:34:37Z</time>
      </trkpt>
      <trkpt lat="43.55157" lon="2.01317">
        <ele>230</ele>
        <time>2022-03-08T13:34:39Z</time>
      </trkpt>
      <trkpt lat="43.55156" lon="2.01317">
        <ele>230</ele>
        <time>2022-03-08T13:34:40Z</time>
      </trkpt>
      <trkpt lat="43.55154" lon="2.01317">
        <ele>230</ele>
        <time>2022-03-08T13:34:41Z</time>
      </trkpt>
      <trkpt lat="43.55154" lon="2.01317">
        <ele>230</ele>
        <time>2022-03-08T13:34:42Z</time>
      </trkpt>
      <trkpt lat="43.55153" lon="2.01317">
        <ele>230</ele>
        <time>2022-03-08T13:34:43Z</time>
      </trkpt>
      <trkpt lat="43.55152" lon="2.01317">
        <ele>230</ele>
        <time>2022-03-08T13:34:44Z</time>
      </trkpt>
      <trkpt lat="43.55151" lon="2.01316">
        <ele>230</ele>
        <time>2022-03-08T13:34:45Z</time>
      </trkpt>
      <trkpt lat="43.5515" lon="2.01316">
        <ele>230</ele>
        <time>2022-03-08T13:34:46Z</time>
      </trkpt>
      <trkpt lat="43.55149" lon="2.01315">
        <ele>230</ele>
        <time>2022-03-08T13:34:47Z</time>
      </trkpt>
      <trkpt lat="43.55148" lon="2.01315">
        <ele>230</ele>
        <time>2022-03-08T13:34:48Z</time>
      </trkpt>
      <trkpt lat="43.55148" lon="2.01315">
        <ele>230</ele>
        <time>2022-03-08T13:34:49Z</time>
      </trkpt>
      <trkpt lat="43.55147" lon="2.01315">
        <ele>230</ele>
        <time>2022-03-08T13:34:50Z</time>
      </trkpt>
      <trkpt lat="43.55146" lon="2.01315">
        <ele>230</ele>
        <time>2022-03-08T13:34:51Z</time>
      </trkpt>
      <trkpt lat="43.55145" lon="2.01314">
        <ele>230</ele>
        <time>2022-03-08T13:34:52Z</time>
      </trkpt>
      <trkpt lat="43.55143" lon="2.01314">
        <ele>230</ele>
        <time>2022-03-08T13:34:53Z</time>
      </trkpt>
      <trkpt lat="43.55142" lon="2.01314">
        <ele>230</ele>
        <time>2022-03-08T13:34:54Z</time>
      </trkpt>
      <trkpt lat="43.55141" lon="2.01314">
        <ele>230.1</ele>
        <time>2022-03-08T13:34:55Z</time>
      </trkpt>
      <trkpt lat="43.55139" lon="2.01316">
        <ele>230.1</ele>
        <time>2022-03-08T13:34:56Z</time>
      </trkpt>
      <trkpt lat="43.55138" lon="2.01316">
        <ele>230.1</ele>
        <time>2022-03-08T13:34:57Z</time>
      </trkpt>
      <trkpt lat="43.55134" lon="2.0132">
        <ele>230.2</ele>
        <time>2022-03-08T13:34:59Z</time>
      </trkpt>
      <trkpt lat="43.55133" lon="2.01321">
        <ele>230.2</ele>
        <time>2022-03-08T13:35:00Z</time>
      </trkpt>
      <trkpt lat="43.55132" lon="2.01323">
        <ele>230.2</ele>
        <time>2022-03-08T13:35:01Z</time>
      </trkpt>
      <trkpt lat="43.55131" lon="2.01324">
        <ele>230.2</ele>
        <time>2022-03-08T13:35:02Z</time>
      </trkpt>
      <trkpt lat="43.5513" lon="2.01325">
        <ele>230.2</ele>
        <time>2022-03-08T13:35:03Z</time>
      </trkpt>
      <trkpt lat="43.55129" lon="2.01326">
        <ele>230.3</ele>
        <time>2022-03-08T13:35:05Z</time>
      </trkpt>
      <trkpt lat="43.55129" lon="2.01327">
        <ele>230.3</ele>
        <time>2022-03-08T13:35:06Z</time>
      </trkpt>
      <trkpt lat="43.55128" lon="2.01327">
        <ele>230.3</ele>
        <time>2022-03-08T13:35:07Z</time>
      </trkpt>
      <trkpt lat="43.55127" lon="2.01326">
        <ele>230.3</ele>
        <time>2022-03-08T13:35:08Z</time>
      </trkpt>
      <trkpt lat="43.55126" lon="2.01325">
        <ele>230.3</ele>
        <time>2022-03-08T13:35:09Z</time>
      </trkpt>
      <trkpt lat="43.55125" lon="2.01319">
        <ele>230.4</ele>
        <time>2022-03-08T13:35:10Z</time>
      </trkpt>
      <trkpt lat="43.55124" lon="2.01315">
        <ele>230.5</ele>
        <time>2022-03-08T13:35:11Z</time>
      </trkpt>
      <trkpt lat="43.55123" lon="2.01315">
        <ele>230.5</ele>
        <time>2022-03-08T13:35:12Z</time>
      </trkpt>
      <trkpt lat="43.55122" lon="2.01313">
        <ele>230.6</ele>
        <time>2022-03-08T13:35:13Z</time>
      </trkpt>
      <trkpt lat="43.5512" lon="2.01312">
        <ele>230.6</ele>
        <time>2022-03-08T13:35:14Z</time>
      </trkpt>
      <trkpt lat="43.55119" lon="2.01311">
        <ele>230.6</ele>
        <time>2022-03-08T13:35:15Z</time>
      </trkpt>
      <trkpt lat="43.55116" lon="2.01309">
        <ele>230.7</ele>
        <time>2022-03-08T13:35:16Z</time>
      </trkpt>
      <trkpt lat="43.55116" lon="2.01308">
        <ele>230.7</ele>
        <time>2022-03-08T13:35:17Z</time>
      </trkpt>
      <trkpt lat="43.55115" lon="2.01307">
        <ele>230.8</ele>
        <time>2022-03-08T13:35:18Z</time>
      </trkpt>
      <trkpt lat="43.55113" lon="2.01305">
        <ele>230.8</ele>
        <time>2022-03-08T13:35:20Z</time>
      </trkpt>
      <trkpt lat="43.55111" lon="2.01301">
        <ele>230.9</ele>
        <time>2022-03-08T13:35:22Z</time>
      </trkpt>
      <trkpt lat="43.55111" lon="2.013">
        <ele>230.9</ele>
        <time>2022-03-08T13:35:23Z</time>
      </trkpt>
      <trkpt lat="43.5511" lon="2.01298">
        <ele>231</ele>
        <time>2022-03-08T13:35:24Z</time>
      </trkpt>
      <trkpt lat="43.55109" lon="2.01297">
        <ele>231</ele>
        <time>2022-03-08T13:35:25Z</time>
      </trkpt>
      <trkpt lat="43.55108" lon="2.01295">
        <ele>231</ele>
        <time>2022-03-08T13:35:26Z</time>
      </trkpt>
      <trkpt lat="43.55106" lon="2.01294">
        <ele>231.1</ele>
        <time>2022-03-08T13:35:27Z</time>
      </trkpt>
      <trkpt lat="43.55104" lon="2.01293">
        <ele>231.1</ele>
        <time>2022-03-08T13:35:29Z</time>
      </trkpt>
      <trkpt lat="43.55101" lon="2.01293">
        <ele>231.2</ele>
        <time>2022-03-08T13:35:30Z</time>
      </trkpt>
      <trkpt lat="43.551" lon="2.01293">
        <ele>231.2</ele>
        <time>2022-03-08T13:35:31Z</time>
      </trkpt>
      <trkpt lat="43.55099" lon="2.01294">
        <ele>231.2</ele>
        <time>2022-03-08T13:35:32Z</time>
      </trkpt>
      <trkpt lat="43.55097" lon="2.01295">
        <ele>231.3</ele>
        <time>2022-03-08T13:35:33Z</time>
      </trkpt>
      <trkpt lat="43.55095" lon="2.01296">
        <ele>231.3</ele>
        <time>2022-03-08T13:35:34Z</time>
      </trkpt>
      <trkpt lat="43.55094" lon="2.01296">
        <ele>231.3</ele>
        <time>2022-03-08T13:35:35Z</time>
      </trkpt>
      <trkpt lat="43.55092" lon="2.01296">
        <ele>231.4</ele>
        <time>2022-03-08T13:35:36Z</time>
      </trkpt>
      <trkpt lat="43.55091" lon="2.01295">
        <ele>231.4</ele>
        <time>2022-03-08T13:35:37Z</time>
      </trkpt>
      <trkpt lat="43.55089" lon="2.01293">
        <ele>231.4</ele>
        <time>2022-03-08T13:35:38Z</time>
      </trkpt>
      <trkpt lat="43.55088" lon="2.01292">
        <ele>231.4</ele>
        <time>2022-03-08T13:35:39Z</time>
      </trkpt>
      <trkpt lat="43.55087" lon="2.01291">
        <ele>231.5</ele>
        <time>2022-03-08T13:35:40Z</time>
      </trkpt>
      <trkpt lat="43.55087" lon="2.01289">
        <ele>231.5</ele>
        <time>2022-03-08T13:35:41Z</time>
      </trkpt>
      <trkpt lat="43.55086" lon="2.01287">
        <ele>231.5</ele>
        <time>2022-03-08T13:35:43Z</time>
      </trkpt>
      <trkpt lat="43.55085" lon="2.01285">
        <ele>231.6</ele>
        <time>2022-03-08T13:35:44Z</time>
      </trkpt>
      <trkpt lat="43.55084" lon="2.01284">
        <ele>231.6</ele>
        <time>2022-03-08T13:35:45Z</time>
      </trkpt>
      <trkpt lat="43.55083" lon="2.01281">
        <ele>231.6</ele>
        <time>2022-03-08T13:35:46Z</time>
      </trkpt>
      <trkpt lat="43.55083" lon="2.0128">
        <ele>231.6</ele>
        <time>2022-03-08T13:35:47Z</time>
      </trkpt>
      <trkpt lat="43.55081" lon="2.01278">
        <ele>231.7</ele>
        <time>2022-03-08T13:35:48Z</time>
      </trkpt>
      <trkpt lat="43.55081" lon="2.01277">
        <ele>231.7</ele>
        <time>2022-03-08T13:35:50Z</time>
      </trkpt>
      <trkpt lat="43.5508" lon="2.01276">
        <ele>231.7</ele>
        <time>2022-03-08T13:35:51Z</time>
      </trkpt>
      <trkpt lat="43.55078" lon="2.01275">
        <ele>231.7</ele>
        <time>2022-03-08T13:35:52Z</time>
      </trkpt>
      <trkpt lat="43.55077" lon="2.01275">
        <ele>231.7</ele>
        <time>2022-03-08T13:35:53Z</time>
      </trkpt>
      <trkpt lat="43.55077" lon="2.01275">
        <ele>231.7</ele>
        <time>2022-03-08T13:35:54Z</time>
      </trkpt>
      <trkpt lat="43.55075" lon="2.01274">
        <ele>231.8</ele>
        <time>2022-03-08T13:35:55Z</time>
      </trkpt>
      <trkpt lat="43.55074" lon="2.01274">
        <ele>231.8</ele>
        <time>2022-03-08T13:35:57Z</time>
      </trkpt>
      <trkpt lat="43.55073" lon="2.01274">
        <ele>231.8</ele>
        <time>2022-03-08T13:35:58Z</time>
      </trkpt>
      <trkpt lat="43.55072" lon="2.01274">
        <ele>231.8</ele>
        <time>2022-03-08T13:35:59Z</time>
      </trkpt>
      <trkpt lat="43.55071" lon="2.01274">
        <ele>231.8</ele>
        <time>2022-03-08T13:36:00Z</time>
      </trkpt>
      <trkpt lat="43.5507" lon="2.01274">
        <ele>231.8</ele>
        <time>2022-03-08T13:36:01Z</time>
      </trkpt>
      <trkpt lat="43.5507" lon="2.01274">
        <ele>231.8</ele>
        <time>2022-03-08T13:36:02Z</time>
      </trkpt>
      <trkpt lat="43.55068" lon="2.01273">
        <ele>231.8</ele>
        <time>2022-03-08T13:36:04Z</time>
      </trkpt>
      <trkpt lat="43.55067" lon="2.01272">
        <ele>231.8</ele>
        <time>2022-03-08T13:36:05Z</time>
      </trkpt>
      <trkpt lat="43.55065" lon="2.01272">
        <ele>231.8</ele>
        <time>2022-03-08T13:36:06Z</time>
      </trkpt>
      <trkpt lat="43.55064" lon="2.01272">
        <ele>231.8</ele>
        <time>2022-03-08T13:36:07Z</time>
      </trkpt>
      <trkpt lat="43.55062" lon="2.0127">
        <ele>231.8</ele>
        <time>2022-03-08T13:36:08Z</time>
      </trkpt>
      <trkpt lat="43.55061" lon="2.01269">
        <ele>231.8</ele>
        <time>2022-03-08T13:36:09Z</time>
      </trkpt>
      <trkpt lat="43.55059" lon="2.01267">
        <ele>231.8</ele>
        <time>2022-03-08T13:36:10Z</time>
      </trkpt>
      <trkpt lat="43.55059" lon="2.01266">
        <ele>231.8</ele>
        <time>2022-03-08T13:36:11Z</time>
      </trkpt>
      <trkpt lat="43.55058" lon="2.01265">
        <ele>231.8</ele>
        <time>2022-03-08T13:36:12Z</time>
      </trkpt>
      <trkpt lat="43.55057" lon="2.01263">
        <ele>231.8</ele>
        <time>2022-03-08T13:36:13Z</time>
      </trkpt>
      <trkpt lat="43.55057" lon="2.01261">
        <ele>231.9</ele>
        <time>2022-03-08T13:36:14Z</time>
      </trkpt>
      <trkpt lat="43.55056" lon="2.01259">
        <ele>231.9</ele>
        <time>2022-03-08T13:36:15Z</time>
      </trkpt>
      <trkpt lat="43.55055" lon="2.01256">
        <ele>231.9</ele>
        <time>2022-03-08T13:36:16Z</time>
      </trkpt>
      <trkpt lat="43.55055" lon="2.01255">
        <ele>231.9</ele>
        <time>2022-03-08T13:36:17Z</time>
      </trkpt>
      <trkpt lat="43.55054" lon="2.01252">
        <ele>231.9</ele>
        <time>2022-03-08T13:36:18Z</time>
      </trkpt>
      <trkpt lat="43.55054" lon="2.01251">
        <ele>231.9</ele>
        <time>2022-03-08T13:36:19Z</time>
      </trkpt>
      <trkpt lat="43.55053" lon="2.0125">
        <ele>231.9</ele>
        <time>2022-03-08T13:36:20Z</time>
      </trkpt>
      <trkpt lat="43.55052" lon="2.01249">
        <ele>231.9</ele>
        <time>2022-03-08T13:36:21Z</time>
      </trkpt>
      <trkpt lat="43.55051" lon="2.01249">
        <ele>231.9</ele>
        <time>2022-03-08T13:36:23Z</time>
      </trkpt>
      <trkpt lat="43.5505" lon="2.01248">
        <ele>231.9</ele>
        <time>2022-03-08T13:36:24Z</time>
      </trkpt>
      <trkpt lat="43.55049" lon="2.01248">
        <ele>231.9</ele>
        <time>2022-03-08T13:36:25Z</time>
      </trkpt>
      <trkpt lat="43.55047" lon="2.01246">
        <ele>231.9</ele>
        <time>2022-03-08T13:36:27Z</time>
      </trkpt>
      <trkpt lat="43.55045" lon="2.01246">
        <ele>231.8</ele>
        <time>2022-03-08T13:36:28Z</time>
      </trkpt>
      <trkpt lat="43.55044" lon="2.01245">
        <ele>231.8</ele>
        <time>2022-03-08T13:36:29Z</time>
      </trkpt>
      <trkpt lat="43.55043" lon="2.01245">
        <ele>231.8</ele>
        <time>2022-03-08T13:36:30Z</time>
      </trkpt>
      <trkpt lat="43.55041" lon="2.01245">
        <ele>231.8</ele>
        <time>2022-03-08T13:36:31Z</time>
      </trkpt>
      <trkpt lat="43.55039" lon="2.01244">
        <ele>231.8</ele>
        <time>2022-03-08T13:36:33Z</time>
      </trkpt>
      <trkpt lat="43.55037" lon="2.01243">
        <ele>231.8</ele>
        <time>2022-03-08T13:36:34Z</time>
      </trkpt>
      <trkpt lat="43.55036" lon="2.01243">
        <ele>231.8</ele>
        <time>2022-03-08T13:36:35Z</time>
      </trkpt>
      <trkpt lat="43.55035" lon="2.01241">
        <ele>231.8</ele>
        <time>2022-03-08T13:36:36Z</time>
      </trkpt>
      <trkpt lat="43.55034" lon="2.0124">
        <ele>231.8</ele>
        <time>2022-03-08T13:36:37Z</time>
      </trkpt>
      <trkpt lat="43.55033" lon="2.01238">
        <ele>231.8</ele>
        <time>2022-03-08T13:36:38Z</time>
      </trkpt>
      <trkpt lat="43.55033" lon="2.01237">
        <ele>231.8</ele>
        <time>2022-03-08T13:36:39Z</time>
      </trkpt>
      <trkpt lat="43.55032" lon="2.01234">
        <ele>231.7</ele>
        <time>2022-03-08T13:36:40Z</time>
      </trkpt>
      <trkpt lat="43.55031" lon="2.01232">
        <ele>231.7</ele>
        <time>2022-03-08T13:36:41Z</time>
      </trkpt>
      <trkpt lat="43.55031" lon="2.01229">
        <ele>231.7</ele>
        <time>2022-03-08T13:36:42Z</time>
      </trkpt>
      <trkpt lat="43.55031" lon="2.01228">
        <ele>231.7</ele>
        <time>2022-03-08T13:36:43Z</time>
      </trkpt>
      <trkpt lat="43.55031" lon="2.01227">
        <ele>231.7</ele>
        <time>2022-03-08T13:36:44Z</time>
      </trkpt>
      <trkpt lat="43.55031" lon="2.01226">
        <ele>231.7</ele>
        <time>2022-03-08T13:36:45Z</time>
      </trkpt>
      <trkpt lat="43.55031" lon="2.01224">
        <ele>231.6</ele>
        <time>2022-03-08T13:36:46Z</time>
      </trkpt>
      <trkpt lat="43.5503" lon="2.01223">
        <ele>231.6</ele>
        <time>2022-03-08T13:36:48Z</time>
      </trkpt>
      <trkpt lat="43.5503" lon="2.01221">
        <ele>231.6</ele>
        <time>2022-03-08T13:36:49Z</time>
      </trkpt>
      <trkpt lat="43.55029" lon="2.0122">
        <ele>231.6</ele>
        <time>2022-03-08T13:36:50Z</time>
      </trkpt>
      <trkpt lat="43.55029" lon="2.01219">
        <ele>231.6</ele>
        <time>2022-03-08T13:36:51Z</time>
      </trkpt>
      <trkpt lat="43.55028" lon="2.01218">
        <ele>231.6</ele>
        <time>2022-03-08T13:36:52Z</time>
      </trkpt>
      <trkpt lat="43.55026" lon="2.01217">
        <ele>231.5</ele>
        <time>2022-03-08T13:36:53Z</time>
      </trkpt>
      <trkpt lat="43.55024" lon="2.01216">
        <ele>231.5</ele>
        <time>2022-03-08T13:36:54Z</time>
      </trkpt>
      <trkpt lat="43.55023" lon="2.01216">
        <ele>231.5</ele>
        <time>2022-03-08T13:36:55Z</time>
      </trkpt>
      <trkpt lat="43.55022" lon="2.01216">
        <ele>231.5</ele>
        <time>2022-03-08T13:36:56Z</time>
      </trkpt>
      <trkpt lat="43.55021" lon="2.01216">
        <ele>231.4</ele>
        <time>2022-03-08T13:36:57Z</time>
      </trkpt>
      <trkpt lat="43.55019" lon="2.01215">
        <ele>231.4</ele>
        <time>2022-03-08T13:36:58Z</time>
      </trkpt>
      <trkpt lat="43.55018" lon="2.01214">
        <ele>231.4</ele>
        <time>2022-03-08T13:37:00Z</time>
      </trkpt>
      <trkpt lat="43.55017" lon="2.01213">
        <ele>231.3</ele>
        <time>2022-03-08T13:37:01Z</time>
      </trkpt>
      <trkpt lat="43.55016" lon="2.01213">
        <ele>231.3</ele>
        <time>2022-03-08T13:37:02Z</time>
      </trkpt>
      <trkpt lat="43.55016" lon="2.01212">
        <ele>231.3</ele>
        <time>2022-03-08T13:37:03Z</time>
      </trkpt>
      <trkpt lat="43.55015" lon="2.0121">
        <ele>231.3</ele>
        <time>2022-03-08T13:37:04Z</time>
      </trkpt>
      <trkpt lat="43.55014" lon="2.01208">
        <ele>231.2</ele>
        <time>2022-03-08T13:37:06Z</time>
      </trkpt>
      <trkpt lat="43.55013" lon="2.01203">
        <ele>231.2</ele>
        <time>2022-03-08T13:37:08Z</time>
      </trkpt>
      <trkpt lat="43.55013" lon="2.01202">
        <ele>231.2</ele>
        <time>2022-03-08T13:37:09Z</time>
      </trkpt>
      <trkpt lat="43.55013" lon="2.01201">
        <ele>231.1</ele>
        <time>2022-03-08T13:37:10Z</time>
      </trkpt>
      <trkpt lat="43.55013" lon="2.01199">
        <ele>231.1</ele>
        <time>2022-03-08T13:37:11Z</time>
      </trkpt>
      <trkpt lat="43.55013" lon="2.01196">
        <ele>231.1</ele>
        <time>2022-03-08T13:37:13Z</time>
      </trkpt>
      <trkpt lat="43.55013" lon="2.01193">
        <ele>231</ele>
        <time>2022-03-08T13:37:14Z</time>
      </trkpt>
      <trkpt lat="43.55013" lon="2.01192">
        <ele>231</ele>
        <time>2022-03-08T13:37:15Z</time>
      </trkpt>
      <trkpt lat="43.55012" lon="2.0119">
        <ele>231</ele>
        <time>2022-03-08T13:37:16Z</time>
      </trkpt>
      <trkpt lat="43.55011" lon="2.01187">
        <ele>230.9</ele>
        <time>2022-03-08T13:37:17Z</time>
      </trkpt>
      <trkpt lat="43.5501" lon="2.01186">
        <ele>230.9</ele>
        <time>2022-03-08T13:37:18Z</time>
      </trkpt>
      <trkpt lat="43.55009" lon="2.01184">
        <ele>230.8</ele>
        <time>2022-03-08T13:37:19Z</time>
      </trkpt>
      <trkpt lat="43.55008" lon="2.01183">
        <ele>230.8</ele>
        <time>2022-03-08T13:37:20Z</time>
      </trkpt>
      <trkpt lat="43.55008" lon="2.01181">
        <ele>230.8</ele>
        <time>2022-03-08T13:37:21Z</time>
      </trkpt>
      <trkpt lat="43.55007" lon="2.01178">
        <ele>230.7</ele>
        <time>2022-03-08T13:37:23Z</time>
      </trkpt>
      <trkpt lat="43.55007" lon="2.01174">
        <ele>230.6</ele>
        <time>2022-03-08T13:37:24Z</time>
      </trkpt>
      <trkpt lat="43.55007" lon="2.01173">
        <ele>230.6</ele>
        <time>2022-03-08T13:37:25Z</time>
      </trkpt>
      <trkpt lat="43.55008" lon="2.01171">
        <ele>230.6</ele>
        <time>2022-03-08T13:37:26Z</time>
      </trkpt>
      <trkpt lat="43.55009" lon="2.01169">
        <ele>230.5</ele>
        <time>2022-03-08T13:37:27Z</time>
      </trkpt>
      <trkpt lat="43.55009" lon="2.01167">
        <ele>230.5</ele>
        <time>2022-03-08T13:37:28Z</time>
      </trkpt>
      <trkpt lat="43.5501" lon="2.01165">
        <ele>230.4</ele>
        <time>2022-03-08T13:37:30Z</time>
      </trkpt>
      <trkpt lat="43.55011" lon="2.01162">
        <ele>230.4</ele>
        <time>2022-03-08T13:37:31Z</time>
      </trkpt>
      <trkpt lat="43.55011" lon="2.0116">
        <ele>230.3</ele>
        <time>2022-03-08T13:37:32Z</time>
      </trkpt>
      <trkpt lat="43.55012" lon="2.01159">
        <ele>230.3</ele>
        <time>2022-03-08T13:37:33Z</time>
      </trkpt>
      <trkpt lat="43.55012" lon="2.01157">
        <ele>230.3</ele>
        <time>2022-03-08T13:37:34Z</time>
      </trkpt>
      <trkpt lat="43.55012" lon="2.01156">
        <ele>230.2</ele>
        <time>2022-03-08T13:37:35Z</time>
      </trkpt>
      <trkpt lat="43.55011" lon="2.01154">
        <ele>230.2</ele>
        <time>2022-03-08T13:37:36Z</time>
      </trkpt>
      <trkpt lat="43.55011" lon="2.01152">
        <ele>230.2</ele>
        <time>2022-03-08T13:37:37Z</time>
      </trkpt>
      <trkpt lat="43.55011" lon="2.01151">
        <ele>230.1</ele>
        <time>2022-03-08T13:37:38Z</time>
      </trkpt>
      <trkpt lat="43.5501" lon="2.01149">
        <ele>230.1</ele>
        <time>2022-03-08T13:37:40Z</time>
      </trkpt>
      <trkpt lat="43.5501" lon="2.01148">
        <ele>230.1</ele>
        <time>2022-03-08T13:37:41Z</time>
      </trkpt>
      <trkpt lat="43.5501" lon="2.01146">
        <ele>230</ele>
        <time>2022-03-08T13:37:42Z</time>
      </trkpt>
      <trkpt lat="43.5501" lon="2.01144">
        <ele>230</ele>
        <time>2022-03-08T13:37:43Z</time>
      </trkpt>
      <trkpt lat="43.55011" lon="2.01141">
        <ele>229.9</ele>
        <time>2022-03-08T13:37:44Z</time>
      </trkpt>
      <trkpt lat="43.55012" lon="2.0114">
        <ele>229.9</ele>
        <time>2022-03-08T13:37:45Z</time>
      </trkpt>
      <trkpt lat="43.55013" lon="2.01139">
        <ele>229.8</ele>
        <time>2022-03-08T13:37:46Z</time>
      </trkpt>
      <trkpt lat="43.55016" lon="2.01136">
        <ele>229.7</ele>
        <time>2022-03-08T13:37:48Z</time>
      </trkpt>
      <trkpt lat="43.55016" lon="2.01135">
        <ele>229.7</ele>
        <time>2022-03-08T13:37:49Z</time>
      </trkpt>
      <trkpt lat="43.55018" lon="2.01134">
        <ele>229.6</ele>
        <time>2022-03-08T13:37:50Z</time>
      </trkpt>
      <trkpt lat="43.55019" lon="2.01134">
        <ele>229.6</ele>
        <time>2022-03-08T13:37:51Z</time>
      </trkpt>
      <trkpt lat="43.5502" lon="2.01133">
        <ele>229.6</ele>
        <time>2022-03-08T13:37:52Z</time>
      </trkpt>
      <trkpt lat="43.55021" lon="2.01133">
        <ele>229.5</ele>
        <time>2022-03-08T13:37:53Z</time>
      </trkpt>
      <trkpt lat="43.55022" lon="2.01132">
        <ele>229.5</ele>
        <time>2022-03-08T13:37:54Z</time>
      </trkpt>
      <trkpt lat="43.55023" lon="2.01131">
        <ele>229.4</ele>
        <time>2022-03-08T13:37:56Z</time>
      </trkpt>
      <trkpt lat="43.55024" lon="2.0113">
        <ele>229.4</ele>
        <time>2022-03-08T13:37:57Z</time>
      </trkpt>
      <trkpt lat="43.55025" lon="2.01129">
        <ele>229.4</ele>
        <time>2022-03-08T13:37:58Z</time>
      </trkpt>
      <trkpt lat="43.55025" lon="2.01127">
        <ele>229.3</ele>
        <time>2022-03-08T13:37:59Z</time>
      </trkpt>
      <trkpt lat="43.55025" lon="2.01125">
        <ele>229.3</ele>
        <time>2022-03-08T13:38:00Z</time>
      </trkpt>
      <trkpt lat="43.55025" lon="2.01121">
        <ele>229.2</ele>
        <time>2022-03-08T13:38:01Z</time>
      </trkpt>
      <trkpt lat="43.55024" lon="2.01117">
        <ele>229.1</ele>
        <time>2022-03-08T13:38:03Z</time>
      </trkpt>
      <trkpt lat="43.55023" lon="2.01116">
        <ele>229.1</ele>
        <time>2022-03-08T13:38:04Z</time>
      </trkpt>
      <trkpt lat="43.55023" lon="2.01114">
        <ele>229</ele>
        <time>2022-03-08T13:38:05Z</time>
      </trkpt>
      <trkpt lat="43.55022" lon="2.01112">
        <ele>229</ele>
        <time>2022-03-08T13:38:06Z</time>
      </trkpt>
      <trkpt lat="43.55021" lon="2.01109">
        <ele>228.9</ele>
        <time>2022-03-08T13:38:07Z</time>
      </trkpt>
      <trkpt lat="43.55021" lon="2.01107">
        <ele>228.9</ele>
        <time>2022-03-08T13:38:08Z</time>
      </trkpt>
      <trkpt lat="43.55021" lon="2.01104">
        <ele>228.8</ele>
        <time>2022-03-08T13:38:09Z</time>
      </trkpt>
      <trkpt lat="43.55021" lon="2.01103">
        <ele>228.8</ele>
        <time>2022-03-08T13:38:10Z</time>
      </trkpt>
      <trkpt lat="43.55021" lon="2.01102">
        <ele>228.7</ele>
        <time>2022-03-08T13:38:11Z</time>
      </trkpt>
      <trkpt lat="43.55021" lon="2.011">
        <ele>228.7</ele>
        <time>2022-03-08T13:38:12Z</time>
      </trkpt>
      <trkpt lat="43.55022" lon="2.01097">
        <ele>228.6</ele>
        <time>2022-03-08T13:38:13Z</time>
      </trkpt>
      <trkpt lat="43.55023" lon="2.01095">
        <ele>228.6</ele>
        <time>2022-03-08T13:38:14Z</time>
      </trkpt>
      <trkpt lat="43.55023" lon="2.01093">
        <ele>228.5</ele>
        <time>2022-03-08T13:38:15Z</time>
      </trkpt>
      <trkpt lat="43.55024" lon="2.01092">
        <ele>228.5</ele>
        <time>2022-03-08T13:38:16Z</time>
      </trkpt>
      <trkpt lat="43.55024" lon="2.0109">
        <ele>228.5</ele>
        <time>2022-03-08T13:38:18Z</time>
      </trkpt>
      <trkpt lat="43.55025" lon="2.01089">
        <ele>228.4</ele>
        <time>2022-03-08T13:38:19Z</time>
      </trkpt>
      <trkpt lat="43.55025" lon="2.01087">
        <ele>228.4</ele>
        <time>2022-03-08T13:38:20Z</time>
      </trkpt>
      <trkpt lat="43.55026" lon="2.01085">
        <ele>228.3</ele>
        <time>2022-03-08T13:38:21Z</time>
      </trkpt>
      <trkpt lat="43.55026" lon="2.01083">
        <ele>228.3</ele>
        <time>2022-03-08T13:38:22Z</time>
      </trkpt>
      <trkpt lat="43.55025" lon="2.01081">
        <ele>228.3</ele>
        <time>2022-03-08T13:38:23Z</time>
      </trkpt>
      <trkpt lat="43.55025" lon="2.01077">
        <ele>228.2</ele>
        <time>2022-03-08T13:38:24Z</time>
      </trkpt>
      <trkpt lat="43.55025" lon="2.01076">
        <ele>228.2</ele>
        <time>2022-03-08T13:38:25Z</time>
      </trkpt>
      <trkpt lat="43.55024" lon="2.01074">
        <ele>228.1</ele>
        <time>2022-03-08T13:38:26Z</time>
      </trkpt>
      <trkpt lat="43.55023" lon="2.01072">
        <ele>228.1</ele>
        <time>2022-03-08T13:38:27Z</time>
      </trkpt>
      <trkpt lat="43.55022" lon="2.0107">
        <ele>228</ele>
        <time>2022-03-08T13:38:29Z</time>
      </trkpt>
      <trkpt lat="43.55022" lon="2.01069">
        <ele>228</ele>
        <time>2022-03-08T13:38:30Z</time>
      </trkpt>
      <trkpt lat="43.55021" lon="2.01067">
        <ele>228</ele>
        <time>2022-03-08T13:38:31Z</time>
      </trkpt>
      <trkpt lat="43.55021" lon="2.01066">
        <ele>227.9</ele>
        <time>2022-03-08T13:38:32Z</time>
      </trkpt>
      <trkpt lat="43.55021" lon="2.01065">
        <ele>227.9</ele>
        <time>2022-03-08T13:38:33Z</time>
      </trkpt>
      <trkpt lat="43.55021" lon="2.01062">
        <ele>227.9</ele>
        <time>2022-03-08T13:38:35Z</time>
      </trkpt>
      <trkpt lat="43.55021" lon="2.0106">
        <ele>227.8</ele>
        <time>2022-03-08T13:38:36Z</time>
      </trkpt>
      <trkpt lat="43.55022" lon="2.01058">
        <ele>227.8</ele>
        <time>2022-03-08T13:38:37Z</time>
      </trkpt>
      <trkpt lat="43.55023" lon="2.01056">
        <ele>227.8</ele>
        <time>2022-03-08T13:38:38Z</time>
      </trkpt>
      <trkpt lat="43.55023" lon="2.01054">
        <ele>227.7</ele>
        <time>2022-03-08T13:38:39Z</time>
      </trkpt>
      <trkpt lat="43.55024" lon="2.01052">
        <ele>227.7</ele>
        <time>2022-03-08T13:38:40Z</time>
      </trkpt>
      <trkpt lat="43.55025" lon="2.0105">
        <ele>227.7</ele>
        <time>2022-03-08T13:38:42Z</time>
      </trkpt>
      <trkpt lat="43.55027" lon="2.01047">
        <ele>227.6</ele>
        <time>2022-03-08T13:38:44Z</time>
      </trkpt>
      <trkpt lat="43.55027" lon="2.01046">
        <ele>227.6</ele>
        <time>2022-03-08T13:38:45Z</time>
      </trkpt>
      <trkpt lat="43.55028" lon="2.01044">
        <ele>227.6</ele>
        <time>2022-03-08T13:38:46Z</time>
      </trkpt>
      <trkpt lat="43.55028" lon="2.01042">
        <ele>227.6</ele>
        <time>2022-03-08T13:38:47Z</time>
      </trkpt>
      <trkpt lat="43.55027" lon="2.01038">
        <ele>227.5</ele>
        <time>2022-03-08T13:38:48Z</time>
      </trkpt>
      <trkpt lat="43.55027" lon="2.01036">
        <ele>227.5</ele>
        <time>2022-03-08T13:38:49Z</time>
      </trkpt>
      <trkpt lat="43.55026" lon="2.01034">
        <ele>227.5</ele>
        <time>2022-03-08T13:38:50Z</time>
      </trkpt>
      <trkpt lat="43.55026" lon="2.01031">
        <ele>227.4</ele>
        <time>2022-03-08T13:38:52Z</time>
      </trkpt>
      <trkpt lat="43.55025" lon="2.01028">
        <ele>227.4</ele>
        <time>2022-03-08T13:38:53Z</time>
      </trkpt>
      <trkpt lat="43.55025" lon="2.01026">
        <ele>227.4</ele>
        <time>2022-03-08T13:38:54Z</time>
      </trkpt>
      <trkpt lat="43.55025" lon="2.01025">
        <ele>227.4</ele>
        <time>2022-03-08T13:38:55Z</time>
      </trkpt>
      <trkpt lat="43.55026" lon="2.01023">
        <ele>227.4</ele>
        <time>2022-03-08T13:38:56Z</time>
      </trkpt>
      <trkpt lat="43.55027" lon="2.01022">
        <ele>227.3</ele>
        <time>2022-03-08T13:38:57Z</time>
      </trkpt>
      <trkpt lat="43.55028" lon="2.0102">
        <ele>227.3</ele>
        <time>2022-03-08T13:38:59Z</time>
      </trkpt>
      <trkpt lat="43.55029" lon="2.01019">
        <ele>227.3</ele>
        <time>2022-03-08T13:39:00Z</time>
      </trkpt>
      <trkpt lat="43.55032" lon="2.01017">
        <ele>227.3</ele>
        <time>2022-03-08T13:39:02Z</time>
      </trkpt>
      <trkpt lat="43.55033" lon="2.01016">
        <ele>227.3</ele>
        <time>2022-03-08T13:39:03Z</time>
      </trkpt>
      <trkpt lat="43.55034" lon="2.01016">
        <ele>227.3</ele>
        <time>2022-03-08T13:39:04Z</time>
      </trkpt>
      <trkpt lat="43.55035" lon="2.01015">
        <ele>227.3</ele>
        <time>2022-03-08T13:39:05Z</time>
      </trkpt>
      <trkpt lat="43.55036" lon="2.01015">
        <ele>227.3</ele>
        <time>2022-03-08T13:39:06Z</time>
      </trkpt>
      <trkpt lat="43.55037" lon="2.01013">
        <ele>227.3</ele>
        <time>2022-03-08T13:39:08Z</time>
      </trkpt>
      <trkpt lat="43.55037" lon="2.01012">
        <ele>227.3</ele>
        <time>2022-03-08T13:39:09Z</time>
      </trkpt>
      <trkpt lat="43.55038" lon="2.01012">
        <ele>227.3</ele>
        <time>2022-03-08T13:39:10Z</time>
      </trkpt>
      <trkpt lat="43.55038" lon="2.01012">
        <ele>227.3</ele>
        <time>2022-03-08T13:39:11Z</time>
      </trkpt>
      <trkpt lat="43.55038" lon="2.01011">
        <ele>227.2</ele>
        <time>2022-03-08T13:39:12Z</time>
      </trkpt>
      <trkpt lat="43.55037" lon="2.01012">
        <ele>227.2</ele>
        <time>2022-03-08T13:39:14Z</time>
      </trkpt>
      <trkpt lat="43.55037" lon="2.01012">
        <ele>227.2</ele>
        <time>2022-03-08T13:39:15Z</time>
      </trkpt>
      <trkpt lat="43.55037" lon="2.01012">
        <ele>227.2</ele>
        <time>2022-03-08T13:39:16Z</time>
      </trkpt>
      <trkpt lat="43.55037" lon="2.01011">
        <ele>227.2</ele>
        <time>2022-03-08T13:39:17Z</time>
      </trkpt>
      <trkpt lat="43.55037" lon="2.01011">
        <ele>227.2</ele>
        <time>2022-03-08T13:39:18Z</time>
      </trkpt>
      <trkpt lat="43.55038" lon="2.0101">
        <ele>227.2</ele>
        <time>2022-03-08T13:39:20Z</time>
      </trkpt>
      <trkpt lat="43.55038" lon="2.0101">
        <ele>227.2</ele>
        <time>2022-03-08T13:39:21Z</time>
      </trkpt>
      <trkpt lat="43.55038" lon="2.0101">
        <ele>227.2</ele>
        <time>2022-03-08T13:39:22Z</time>
      </trkpt>
      <trkpt lat="43.55038" lon="2.0101">
        <ele>227.2</ele>
        <time>2022-03-08T13:39:23Z</time>
      </trkpt>
      <trkpt lat="43.55039" lon="2.0101">
        <ele>227.2</ele>
        <time>2022-03-08T13:39:24Z</time>
      </trkpt>
      <trkpt lat="43.55039" lon="2.0101">
        <ele>227.2</ele>
        <time>2022-03-08T13:39:26Z</time>
      </trkpt>
      <trkpt lat="43.55039" lon="2.0101">
        <ele>227.2</ele>
        <time>2022-03-08T13:39:27Z</time>
      </trkpt>
      <trkpt lat="43.55039" lon="2.0101">
        <ele>227.2</ele>
        <time>2022-03-08T13:39:28Z</time>
      </trkpt>
      <trkpt lat="43.55039" lon="2.0101">
        <ele>227.2</ele>
        <time>2022-03-08T13:39:29Z</time>
      </trkpt>
      <trkpt lat="43.55039" lon="2.0101">
        <ele>227.2</ele>
        <time>2022-03-08T13:39:30Z</time>
      </trkpt>
      <trkpt lat="43.55039" lon="2.0101">
        <ele>227.2</ele>
        <time>2022-03-08T13:39:32Z</time>
      </trkpt>
      <trkpt lat="43.55039" lon="2.0101">
        <ele>227.2</ele>
        <time>2022-03-08T13:39:33Z</time>
      </trkpt>
      <trkpt lat="43.55039" lon="2.0101">
        <ele>227.2</ele>
        <time>2022-03-08T13:39:34Z</time>
      </trkpt>
      <trkpt lat="43.55039" lon="2.0101">
        <ele>227.2</ele>
        <time>2022-03-08T13:39:35Z</time>
      </trkpt>
      <trkpt lat="43.55039" lon="2.0101">
        <ele>227.2</ele>
        <time>2022-03-08T13:39:36Z</time>
      </trkpt>
      <trkpt lat="43.55039" lon="2.01009">
        <ele>227.2</ele>
        <time>2022-03-08T13:39:38Z</time>
      </trkpt>
      <trkpt lat="43.55039" lon="2.01009">
        <ele>227.2</ele>
        <time>2022-03-08T13:39:39Z</time>
      </trkpt>
      <trkpt lat="43.55039" lon="2.0101">
        <ele>227.2</ele>
        <time>2022-03-08T13:39:40Z</time>
      </trkpt>
      <trkpt lat="43.55039" lon="2.0101">
        <ele>227.2</ele>
        <time>2022-03-08T13:39:41Z</time>
      </trkpt>
      <trkpt lat="43.55039" lon="2.0101">
        <ele>227.2</ele>
        <time>2022-03-08T13:39:42Z</time>
      </trkpt>
      <trkpt lat="43.55039" lon="2.0101">
        <ele>227.2</ele>
        <time>2022-03-08T13:39:43Z</time>
      </trkpt>
      <trkpt lat="43.55039" lon="2.0101">
        <ele>227.2</ele>
        <time>2022-03-08T13:39:44Z</time>
      </trkpt>
      <trkpt lat="43.55039" lon="2.0101">
        <ele>227.2</ele>
        <time>2022-03-08T13:39:45Z</time>
      </trkpt>
      <trkpt lat="43.55039" lon="2.0101">
        <ele>227.2</ele>
        <time>2022-03-08T13:39:46Z</time>
      </trkpt>
      <trkpt lat="43.55039" lon="2.0101">
        <ele>227.2</ele>
        <time>2022-03-08T13:39:47Z</time>
      </trkpt>
      <trkpt lat="43.55039" lon="2.0101">
        <ele>227.2</ele>
        <time>2022-03-08T13:39:48Z</time>
      </trkpt>
      <trkpt lat="43.55039" lon="2.0101">
        <ele>227.2</ele>
        <time>2022-03-08T13:39:49Z</time>
      </trkpt>
      <trkpt lat="43.55039" lon="2.0101">
        <ele>227.2</ele>
        <time>2022-03-08T13:39:50Z</time>
      </trkpt>
      <trkpt lat="43.55039" lon="2.0101">
        <ele>227.2</ele>
        <time>2022-03-08T13:39:51Z</time>
      </trkpt>
      <trkpt lat="43.55039" lon="2.0101">
        <ele>227.2</ele>
        <time>2022-03-08T13:39:52Z</time>
      </trkpt>
      <trkpt lat="43.55039" lon="2.0101">
        <ele>227.2</ele>
        <time>2022-03-08T13:39:53Z</time>
      </trkpt>
      <trkpt lat="43.55039" lon="2.0101">
        <ele>227.2</ele>
        <time>2022-03-08T13:39:54Z</time>
      </trkpt>
      <trkpt lat="43.55039" lon="2.0101">
        <ele>227.2</ele>
        <time>2022-03-08T13:39:55Z</time>
      </trkpt>
      <trkpt lat="43.55039" lon="2.0101">
        <ele>227.2</ele>
        <time>2022-03-08T13:39:56Z</time>
      </trkpt>
      <trkpt lat="43.55039" lon="2.0101">
        <ele>227.2</ele>
        <time>2022-03-08T13:39:57Z</time>
      </trkpt>
      <trkpt lat="43.55039" lon="2.0101">
        <ele>227.2</ele>
        <time>2022-03-08T13:39:58Z</time>
      </trkpt>
      <trkpt lat="43.55039" lon="2.0101">
        <ele>227.2</ele>
        <time>2022-03-08T13:39:59Z</time>
      </trkpt>
      <trkpt lat="43.55039" lon="2.0101">
        <ele>227.2</ele>
        <time>2022-03-08T13:40:00Z</time>
      </trkpt>
      <trkpt lat="43.55039" lon="2.0101">
        <ele>227.2</ele>
        <time>2022-03-08T13:40:01Z</time>
      </trkpt>
      <trkpt lat="43.55039" lon="2.0101">
        <ele>227.2</ele>
        <time>2022-03-08T13:40:02Z</time>
      </trkpt>
      <trkpt lat="43.55039" lon="2.0101">
        <ele>227.2</ele>
        <time>2022-03-08T13:40:03Z</time>
      </trkpt>
      <trkpt lat="43.55039" lon="2.0101">
        <ele>227.2</ele>
        <time>2022-03-08T13:40:04Z</time>
      </trkpt>
      <trkpt lat="43.55039" lon="2.0101">
        <ele>227.2</ele>
        <time>2022-03-08T13:40:05Z</time>
      </trkpt>
      <trkpt lat="43.55039" lon="2.0101">
        <ele>227.2</ele>
        <time>2022-03-08T13:40:06Z</time>
      </trkpt>
      <trkpt lat="43.55039" lon="2.0101">
        <ele>227.2</ele>
        <time>2022-03-08T13:40:07Z</time>
      </trkpt>
      <trkpt lat="43.55039" lon="2.0101">
        <ele>227.2</ele>
        <time>2022-03-08T13:40:08Z</time>
      </trkpt>
      <trkpt lat="43.55039" lon="2.0101">
        <ele>227.2</ele>
        <time>2022-03-08T13:40:09Z</time>
      </trkpt>
      <trkpt lat="43.55039" lon="2.0101">
        <ele>227.2</ele>
        <time>2022-03-08T13:40:10Z</time>
      </trkpt>
      <trkpt lat="43.55039" lon="2.0101">
        <ele>227.2</ele>
        <time>2022-03-08T13:40:11Z</time>
      </trkpt>
      <trkpt lat="43.55039" lon="2.0101">
        <ele>227.2</ele>
        <time>2022-03-08T13:40:12Z</time>
      </trkpt>
      <trkpt lat="43.55039" lon="2.0101">
        <ele>227.2</ele>
        <time>2022-03-08T13:40:13Z</time>
      </trkpt>
      <trkpt lat="43.55039" lon="2.0101">
        <ele>227.2</ele>
        <time>2022-03-08T13:40:14Z</time>
      </trkpt>
      <trkpt lat="43.55039" lon="2.0101">
        <ele>227.2</ele>
        <time>2022-03-08T13:40:15Z</time>
      </trkpt>
      <trkpt lat="43.55039" lon="2.0101">
        <ele>227.2</ele>
        <time>2022-03-08T13:40:16Z</time>
      </trkpt>
      <trkpt lat="43.55039" lon="2.0101">
        <ele>227.2</ele>
        <time>2022-03-08T13:40:17Z</time>
      </trkpt>
      <trkpt lat="43.55039" lon="2.0101">
        <ele>227.2</ele>
        <time>2022-03-08T13:40:18Z</time>
      </trkpt>
      <trkpt lat="43.55039" lon="2.0101">
        <ele>227.2</ele>
        <time>2022-03-08T13:40:19Z</time>
      </trkpt>
      <trkpt lat="43.55039" lon="2.0101">
        <ele>227.2</ele>
        <time>2022-03-08T13:40:20Z</time>
      </trkpt>
      <trkpt lat="43.55039" lon="2.0101">
        <ele>227.2</ele>
        <time>2022-03-08T13:40:21Z</time>
      </trkpt>
      <trkpt lat="43.55039" lon="2.0101">
        <ele>227.2</ele>
        <time>2022-03-08T13:40:22Z</time>
      </trkpt>
      <trkpt lat="43.55039" lon="2.0101">
        <ele>227.2</ele>
        <time>2022-03-08T13:40:23Z</time>
      </trkpt>
      <trkpt lat="43.55039" lon="2.0101">
        <ele>227.2</ele>
        <time>2022-03-08T13:40:24Z</time>
      </trkpt>
      <trkpt lat="43.55039" lon="2.0101">
        <ele>227.2</ele>
        <time>2022-03-08T13:40:25Z</time>
      </trkpt>
      <trkpt lat="43.55039" lon="2.0101">
        <ele>227.2</ele>
        <time>2022-03-08T13:40:26Z</time>
      </trkpt>
      <trkpt lat="43.55039" lon="2.0101">
        <ele>227.2</ele>
        <time>2022-03-08T13:40:27Z</time>
      </trkpt>
      <trkpt lat="43.55039" lon="2.0101">
        <ele>227.2</ele>
        <time>2022-03-08T13:40:28Z</time>
      </trkpt>
      <trkpt lat="43.55039" lon="2.0101">
        <ele>227.2</ele>
        <time>2022-03-08T13:40:29Z</time>
      </trkpt>
      <trkpt lat="43.55039" lon="2.0101">
        <ele>227.2</ele>
        <time>2022-03-08T13:40:30Z</time>
      </trkpt>
      <trkpt lat="43.55039" lon="2.0101">
        <ele>227.2</ele>
        <time>2022-03-08T13:40:31Z</time>
      </trkpt>
      <trkpt lat="43.55039" lon="2.0101">
        <ele>227.2</ele>
        <time>2022-03-08T13:40:32Z</time>
      </trkpt>
      <trkpt lat="43.55039" lon="2.0101">
        <ele>227.2</ele>
        <time>2022-03-08T13:40:33Z</time>
      </trkpt>
      <trkpt lat="43.55039" lon="2.0101">
        <ele>227.2</ele>
        <time>2022-03-08T13:40:34Z</time>
      </trkpt>
      <trkpt lat="43.55039" lon="2.0101">
        <ele>227.2</ele>
        <time>2022-03-08T13:40:35Z</time>
      </trkpt>
      <trkpt lat="43.55039" lon="2.0101">
        <ele>227.2</ele>
        <time>2022-03-08T13:40:36Z</time>
      </trkpt>
      <trkpt lat="43.55039" lon="2.0101">
        <ele>227.2</ele>
        <time>2022-03-08T13:40:37Z</time>
      </trkpt>
      <trkpt lat="43.55039" lon="2.0101">
        <ele>227.2</ele>
        <time>2022-03-08T13:40:38Z</time>
      </trkpt>
      <trkpt lat="43.55039" lon="2.0101">
        <ele>227.2</ele>
        <time>2022-03-08T13:40:39Z</time>
      </trkpt>
      <trkpt lat="43.55039" lon="2.0101">
        <ele>227.2</ele>
        <time>2022-03-08T13:40:40Z</time>
      </trkpt>
      <trkpt lat="43.5504" lon="2.01011">
        <ele>227.2</ele>
        <time>2022-03-08T13:40:41Z</time>
      </trkpt>
      <trkpt lat="43.55041" lon="2.01011">
        <ele>227.2</ele>
        <time>2022-03-08T13:40:42Z</time>
      </trkpt>
      <trkpt lat="43.55041" lon="2.01011">
        <ele>227.2</ele>
        <time>2022-03-08T13:40:43Z</time>
      </trkpt>
      <trkpt lat="43.55042" lon="2.01012">
        <ele>227.2</ele>
        <time>2022-03-08T13:40:44Z</time>
      </trkpt>
      <trkpt lat="43.55042" lon="2.01012">
        <ele>227.2</ele>
        <time>2022-03-08T13:40:45Z</time>
      </trkpt>
      <trkpt lat="43.55042" lon="2.01012">
        <ele>227.2</ele>
        <time>2022-03-08T13:40:46Z</time>
      </trkpt>
      <trkpt lat="43.55042" lon="2.01012">
        <ele>227.2</ele>
        <time>2022-03-08T13:40:47Z</time>
      </trkpt>
      <trkpt lat="43.55042" lon="2.01012">
        <ele>227.2</ele>
        <time>2022-03-08T13:40:48Z</time>
      </trkpt>
      <trkpt lat="43.55042" lon="2.01012">
        <ele>227.2</ele>
        <time>2022-03-08T13:40:49Z</time>
      </trkpt>
      <trkpt lat="43.55042" lon="2.01012">
        <ele>227.2</ele>
        <time>2022-03-08T13:40:50Z</time>
      </trkpt>
      <trkpt lat="43.55042" lon="2.01012">
        <ele>227.2</ele>
        <time>2022-03-08T13:40:51Z</time>
      </trkpt>
      <trkpt lat="43.55042" lon="2.01012">
        <ele>227.2</ele>
        <time>2022-03-08T13:40:52Z</time>
      </trkpt>
      <trkpt lat="43.55042" lon="2.01012">
        <ele>227.2</ele>
        <time>2022-03-08T13:40:53Z</time>
      </trkpt>
      <trkpt lat="43.55042" lon="2.01012">
        <ele>227.2</ele>
        <time>2022-03-08T13:40:54Z</time>
      </trkpt>
      <trkpt lat="43.55042" lon="2.01012">
        <ele>227.2</ele>
        <time>2022-03-08T13:40:55Z</time>
      </trkpt>
      <trkpt lat="43.55042" lon="2.01012">
        <ele>227.2</ele>
        <time>2022-03-08T13:40:56Z</time>
      </trkpt>
      <trkpt lat="43.55042" lon="2.01011">
        <ele>227.2</ele>
        <time>2022-03-08T13:40:57Z</time>
      </trkpt>
      <trkpt lat="43.55042" lon="2.01011">
        <ele>227.2</ele>
        <time>2022-03-08T13:40:58Z</time>
      </trkpt>
      <trkpt lat="43.55042" lon="2.01011">
        <ele>227.2</ele>
        <time>2022-03-08T13:40:59Z</time>
      </trkpt>
      <trkpt lat="43.55042" lon="2.01011">
        <ele>227.2</ele>
        <time>2022-03-08T13:41:00Z</time>
      </trkpt>
      <trkpt lat="43.55042" lon="2.01011">
        <ele>227.2</ele>
        <time>2022-03-08T13:41:01Z</time>
      </trkpt>
      <trkpt lat="43.55042" lon="2.01011">
        <ele>227.2</ele>
        <time>2022-03-08T13:41:03Z</time>
      </trkpt>
      <trkpt lat="43.55042" lon="2.01011">
        <ele>227.2</ele>
        <time>2022-03-08T13:41:05Z</time>
      </trkpt>
      <trkpt lat="43.55042" lon="2.01011">
        <ele>227.2</ele>
        <time>2022-03-08T13:41:06Z</time>
      </trkpt>
      <trkpt lat="43.55042" lon="2.01012">
        <ele>227.2</ele>
        <time>2022-03-08T13:41:07Z</time>
      </trkpt>
      <trkpt lat="43.55042" lon="2.01012">
        <ele>227.2</ele>
        <time>2022-03-08T13:41:08Z</time>
      </trkpt>
      <trkpt lat="43.55042" lon="2.01012">
        <ele>227.2</ele>
        <time>2022-03-08T13:41:09Z</time>
      </trkpt>
      <trkpt lat="43.55042" lon="2.01012">
        <ele>227.2</ele>
        <time>2022-03-08T13:41:10Z</time>
      </trkpt>
      <trkpt lat="43.55042" lon="2.01012">
        <ele>227.2</ele>
        <time>2022-03-08T13:41:11Z</time>
      </trkpt>
      <trkpt lat="43.55042" lon="2.01012">
        <ele>227.2</ele>
        <time>2022-03-08T13:41:12Z</time>
      </trkpt>
      <trkpt lat="43.55042" lon="2.01012">
        <ele>227.2</ele>
        <time>2022-03-08T13:41:13Z</time>
      </trkpt>
      <trkpt lat="43.55042" lon="2.01012">
        <ele>227.2</ele>
        <time>2022-03-08T13:41:14Z</time>
      </trkpt>
      <trkpt lat="43.55042" lon="2.01012">
        <ele>227.2</ele>
        <time>2022-03-08T13:41:15Z</time>
      </trkpt>
      <trkpt lat="43.55042" lon="2.01012">
        <ele>227.2</ele>
        <time>2022-03-08T13:41:16Z</time>
      </trkpt>
      <trkpt lat="43.55042" lon="2.01012">
        <ele>227.2</ele>
        <time>2022-03-08T13:41:17Z</time>
      </trkpt>
      <trkpt lat="43.55042" lon="2.01012">
        <ele>227.2</ele>
        <time>2022-03-08T13:41:18Z</time>
      </trkpt>
      <trkpt lat="43.55042" lon="2.01012">
        <ele>227.2</ele>
        <time>2022-03-08T13:41:19Z</time>
      </trkpt>
      <trkpt lat="43.55042" lon="2.01012">
        <ele>227.2</ele>
        <time>2022-03-08T13:41:20Z</time>
      </trkpt>
      <trkpt lat="43.55042" lon="2.01012">
        <ele>227.2</ele>
        <time>2022-03-08T13:41:21Z</time>
      </trkpt>
      <trkpt lat="43.55042" lon="2.01012">
        <ele>227.2</ele>
        <time>2022-03-08T13:41:22Z</time>
      </trkpt>
      <trkpt lat="43.55042" lon="2.01012">
        <ele>227.2</ele>
        <time>2022-03-08T13:41:23Z</time>
      </trkpt>
      <trkpt lat="43.55042" lon="2.01012">
        <ele>227.2</ele>
        <time>2022-03-08T13:41:24Z</time>
      </trkpt>
      <trkpt lat="43.55042" lon="2.01012">
        <ele>227.2</ele>
        <time>2022-03-08T13:41:25Z</time>
      </trkpt>
      <trkpt lat="43.55042" lon="2.01012">
        <ele>227.2</ele>
        <time>2022-03-08T13:41:26Z</time>
      </trkpt>
      <trkpt lat="43.55042" lon="2.01012">
        <ele>227.2</ele>
        <time>2022-03-08T13:41:27Z</time>
      </trkpt>
      <trkpt lat="43.55042" lon="2.01012">
        <ele>227.2</ele>
        <time>2022-03-08T13:41:28Z</time>
      </trkpt>
      <trkpt lat="43.55042" lon="2.01012">
        <ele>227.2</ele>
        <time>2022-03-08T13:41:29Z</time>
      </trkpt>
      <trkpt lat="43.55042" lon="2.01012">
        <ele>227.2</ele>
        <time>2022-03-08T13:41:31Z</time>
      </trkpt>
      <trkpt lat="43.55042" lon="2.01012">
        <ele>227.2</ele>
        <time>2022-03-08T13:41:32Z</time>
      </trkpt>
      <trkpt lat="43.55042" lon="2.01012">
        <ele>227.2</ele>
        <time>2022-03-08T13:41:33Z</time>
      </trkpt>
      <trkpt lat="43.55042" lon="2.01012">
        <ele>227.2</ele>
        <time>2022-03-08T13:41:34Z</time>
      </trkpt>
      <trkpt lat="43.55042" lon="2.01012">
        <ele>227.2</ele>
        <time>2022-03-08T13:41:35Z</time>
      </trkpt>
      <trkpt lat="43.55042" lon="2.01012">
        <ele>227.2</ele>
        <time>2022-03-08T13:41:36Z</time>
      </trkpt>
      <trkpt lat="43.55042" lon="2.01012">
        <ele>227.2</ele>
        <time>2022-03-08T13:41:37Z</time>
      </trkpt>
      <trkpt lat="43.55042" lon="2.01012">
        <ele>227.2</ele>
        <time>2022-03-08T13:41:38Z</time>
      </trkpt>
      <trkpt lat="43.55042" lon="2.01012">
        <ele>227.2</ele>
        <time>2022-03-08T13:41:39Z</time>
      </trkpt>
      <trkpt lat="43.55042" lon="2.01012">
        <ele>227.2</ele>
        <time>2022-03-08T13:41:40Z</time>
      </trkpt>
      <trkpt lat="43.55042" lon="2.01012">
        <ele>227.2</ele>
        <time>2022-03-08T13:41:41Z</time>
      </trkpt>
      <trkpt lat="43.55042" lon="2.01012">
        <ele>227.2</ele>
        <time>2022-03-08T13:41:42Z</time>
      </trkpt>
      <trkpt lat="43.55042" lon="2.01012">
        <ele>227.2</ele>
        <time>2022-03-08T13:41:43Z</time>
      </trkpt>
      <trkpt lat="43.55042" lon="2.01012">
        <ele>227.2</ele>
        <time>2022-03-08T13:41:44Z</time>
      </trkpt>
      <trkpt lat="43.55042" lon="2.01012">
        <ele>227.2</ele>
        <time>2022-03-08T13:41:45Z</time>
      </trkpt>
      <trkpt lat="43.55042" lon="2.01012">
        <ele>227.2</ele>
        <time>2022-03-08T13:41:46Z</time>
      </trkpt>
      <trkpt lat="43.55042" lon="2.01012">
        <ele>227.2</ele>
        <time>2022-03-08T13:41:47Z</time>
      </trkpt>
      <trkpt lat="43.55042" lon="2.01012">
        <ele>227.2</ele>
        <time>2022-03-08T13:41:48Z</time>
      </trkpt>
      <trkpt lat="43.55042" lon="2.01012">
        <ele>227.2</ele>
        <time>2022-03-08T13:41:49Z</time>
      </trkpt>
      <trkpt lat="43.55042" lon="2.01012">
        <ele>227.2</ele>
        <time>2022-03-08T13:41:50Z</time>
      </trkpt>
      <trkpt lat="43.55042" lon="2.01012">
        <ele>227.2</ele>
        <time>2022-03-08T13:41:51Z</time>
      </trkpt>
      <trkpt lat="43.55042" lon="2.01012">
        <ele>227.2</ele>
        <time>2022-03-08T13:41:52Z</time>
      </trkpt>
      <trkpt lat="43.55042" lon="2.01012">
        <ele>227.2</ele>
        <time>2022-03-08T13:41:53Z</time>
      </trkpt>
      <trkpt lat="43.55042" lon="2.01012">
        <ele>227.2</ele>
        <time>2022-03-08T13:41:54Z</time>
      </trkpt>
      <trkpt lat="43.55042" lon="2.01012">
        <ele>227.2</ele>
        <time>2022-03-08T13:41:55Z</time>
      </trkpt>
      <trkpt lat="43.55042" lon="2.01012">
        <ele>227.2</ele>
        <time>2022-03-08T13:41:56Z</time>
      </trkpt>
      <trkpt lat="43.55042" lon="2.01012">
        <ele>227.2</ele>
        <time>2022-03-08T13:41:57Z</time>
      </trkpt>
      <trkpt lat="43.55042" lon="2.01012">
        <ele>227.2</ele>
        <time>2022-03-08T13:41:58Z</time>
      </trkpt>
      <trkpt lat="43.55042" lon="2.01012">
        <ele>227.2</ele>
        <time>2022-03-08T13:41:59Z</time>
      </trkpt>
      <trkpt lat="43.55042" lon="2.01012">
        <ele>227.2</ele>
        <time>2022-03-08T13:42:00Z</time>
      </trkpt>
      <trkpt lat="43.55042" lon="2.01012">
        <ele>227.2</ele>
        <time>2022-03-08T13:42:01Z</time>
      </trkpt>
      <trkpt lat="43.55042" lon="2.01012">
        <ele>227.2</ele>
        <time>2022-03-08T13:42:02Z</time>
      </trkpt>
      <trkpt lat="43.55042" lon="2.01012">
        <ele>227.2</ele>
        <time>2022-03-08T13:42:03Z</time>
      </trkpt>
      <trkpt lat="43.55042" lon="2.01012">
        <ele>227.2</ele>
        <time>2022-03-08T13:42:04Z</time>
      </trkpt>
      <trkpt lat="43.55042" lon="2.01012">
        <ele>227.2</ele>
        <time>2022-03-08T13:42:05Z</time>
      </trkpt>
      <trkpt lat="43.55042" lon="2.01012">
        <ele>227.2</ele>
        <time>2022-03-08T13:42:06Z</time>
      </trkpt>
      <trkpt lat="43.55042" lon="2.01012">
        <ele>227.2</ele>
        <time>2022-03-08T13:42:07Z</time>
      </trkpt>
      <trkpt lat="43.55042" lon="2.01012">
        <ele>227.2</ele>
        <time>2022-03-08T13:42:08Z</time>
      </trkpt>
      <trkpt lat="43.55042" lon="2.01012">
        <ele>227.2</ele>
        <time>2022-03-08T13:42:09Z</time>
      </trkpt>
      <trkpt lat="43.55042" lon="2.01012">
        <ele>227.2</ele>
        <time>2022-03-08T13:42:10Z</time>
      </trkpt>
      <trkpt lat="43.55042" lon="2.01012">
        <ele>227.2</ele>
        <time>2022-03-08T13:42:11Z</time>
      </trkpt>
      <trkpt lat="43.55042" lon="2.01012">
        <ele>227.2</ele>
        <time>2022-03-08T13:42:12Z</time>
      </trkpt>
      <trkpt lat="43.55042" lon="2.01012">
        <ele>227.2</ele>
        <time>2022-03-08T13:42:13Z</time>
      </trkpt>
      <trkpt lat="43.55042" lon="2.01012">
        <ele>227.2</ele>
        <time>2022-03-08T13:42:14Z</time>
      </trkpt>
      <trkpt lat="43.55042" lon="2.01012">
        <ele>227.2</ele>
        <time>2022-03-08T13:42:15Z</time>
      </trkpt>
      <trkpt lat="43.55042" lon="2.01012">
        <ele>227.2</ele>
        <time>2022-03-08T13:42:16Z</time>
      </trkpt>
      <trkpt lat="43.55042" lon="2.01012">
        <ele>227.2</ele>
        <time>2022-03-08T13:42:17Z</time>
      </trkpt>
      <trkpt lat="43.55042" lon="2.01012">
        <ele>227.2</ele>
        <time>2022-03-08T13:42:18Z</time>
      </trkpt>
      <trkpt lat="43.55042" lon="2.01012">
        <ele>227.2</ele>
        <time>2022-03-08T13:42:19Z</time>
      </trkpt>
      <trkpt lat="43.55042" lon="2.01012">
        <ele>227.2</ele>
        <time>2022-03-08T13:42:20Z</time>
      </trkpt>
      <trkpt lat="43.55042" lon="2.01012">
        <ele>227.2</ele>
        <time>2022-03-08T13:42:21Z</time>
      </trkpt>
      <trkpt lat="43.55042" lon="2.01012">
        <ele>227.2</ele>
        <time>2022-03-08T13:42:22Z</time>
      </trkpt>
      <trkpt lat="43.55042" lon="2.01012">
        <ele>227.2</ele>
        <time>2022-03-08T13:42:23Z</time>
      </trkpt>
      <trkpt lat="43.55042" lon="2.01012">
        <ele>227.2</ele>
        <time>2022-03-08T13:42:24Z</time>
      </trkpt>
      <trkpt lat="43.55042" lon="2.01012">
        <ele>227.2</ele>
        <time>2022-03-08T13:42:25Z</time>
      </trkpt>
      <trkpt lat="43.55042" lon="2.01012">
        <ele>227.2</ele>
        <time>2022-03-08T13:42:26Z</time>
      </trkpt>
      <trkpt lat="43.55042" lon="2.01012">
        <ele>227.2</ele>
        <time>2022-03-08T13:42:27Z</time>
      </trkpt>
      <trkpt lat="43.55042" lon="2.01012">
        <ele>227.2</ele>
        <time>2022-03-08T13:42:28Z</time>
      </trkpt>
      <trkpt lat="43.55042" lon="2.01012">
        <ele>227.2</ele>
        <time>2022-03-08T13:42:29Z</time>
      </trkpt>
      <trkpt lat="43.55042" lon="2.01012">
        <ele>227.2</ele>
        <time>2022-03-08T13:42:30Z</time>
      </trkpt>
      <trkpt lat="43.55042" lon="2.01012">
        <ele>227.2</ele>
        <time>2022-03-08T13:42:31Z</time>
      </trkpt>
      <trkpt lat="43.55042" lon="2.01012">
        <ele>227.2</ele>
        <time>2022-03-08T13:42:32Z</time>
      </trkpt>
      <trkpt lat="43.55042" lon="2.01012">
        <ele>227.2</ele>
        <time>2022-03-08T13:42:33Z</time>
      </trkpt>
      <trkpt lat="43.55042" lon="2.01012">
        <ele>227.2</ele>
        <time>2022-03-08T13:42:34Z</time>
      </trkpt>
      <trkpt lat="43.55042" lon="2.01012">
        <ele>227.2</ele>
        <time>2022-03-08T13:42:35Z</time>
      </trkpt>
      <trkpt lat="43.55042" lon="2.01012">
        <ele>227.2</ele>
        <time>2022-03-08T13:42:36Z</time>
      </trkpt>
      <trkpt lat="43.55042" lon="2.01012">
        <ele>227.2</ele>
        <time>2022-03-08T13:42:37Z</time>
      </trkpt>
      <trkpt lat="43.55042" lon="2.01012">
        <ele>227.2</ele>
        <time>2022-03-08T13:42:38Z</time>
      </trkpt>
      <trkpt lat="43.55042" lon="2.01012">
        <ele>227.2</ele>
        <time>2022-03-08T13:42:39Z</time>
      </trkpt>
      <trkpt lat="43.55042" lon="2.01012">
        <ele>227.2</ele>
        <time>2022-03-08T13:42:40Z</time>
      </trkpt>
      <trkpt lat="43.55042" lon="2.01012">
        <ele>227.2</ele>
        <time>2022-03-08T13:42:41Z</time>
      </trkpt>
      <trkpt lat="43.55042" lon="2.01012">
        <ele>227.2</ele>
        <time>2022-03-08T13:42:42Z</time>
      </trkpt>
      <trkpt lat="43.55042" lon="2.01012">
        <ele>227.2</ele>
        <time>2022-03-08T13:42:43Z</time>
      </trkpt>
      <trkpt lat="43.55042" lon="2.01012">
        <ele>227.2</ele>
        <time>2022-03-08T13:42:44Z</time>
      </trkpt>
      <trkpt lat="43.55042" lon="2.01012">
        <ele>227.2</ele>
        <time>2022-03-08T13:42:45Z</time>
      </trkpt>
      <trkpt lat="43.55042" lon="2.01012">
        <ele>227.2</ele>
        <time>2022-03-08T13:42:46Z</time>
      </trkpt>
      <trkpt lat="43.55042" lon="2.01012">
        <ele>227.2</ele>
        <time>2022-03-08T13:42:47Z</time>
      </trkpt>
      <trkpt lat="43.55042" lon="2.01012">
        <ele>227.2</ele>
        <time>2022-03-08T13:42:48Z</time>
      </trkpt>
      <trkpt lat="43.55042" lon="2.01012">
        <ele>227.2</ele>
        <time>2022-03-08T13:42:49Z</time>
      </trkpt>
      <trkpt lat="43.55042" lon="2.01012">
        <ele>227.2</ele>
        <time>2022-03-08T13:42:50Z</time>
      </trkpt>
      <trkpt lat="43.55042" lon="2.01012">
        <ele>227.2</ele>
        <time>2022-03-08T13:42:51Z</time>
      </trkpt>
      <trkpt lat="43.55042" lon="2.01012">
        <ele>227.2</ele>
        <time>2022-03-08T13:42:52Z</time>
      </trkpt>
      <trkpt lat="43.55042" lon="2.01012">
        <ele>227.2</ele>
        <time>2022-03-08T13:42:53Z</time>
      </trkpt>
      <trkpt lat="43.55042" lon="2.01012">
        <ele>227.2</ele>
        <time>2022-03-08T13:42:54Z</time>
      </trkpt>
      <trkpt lat="43.55042" lon="2.01012">
        <ele>227.2</ele>
        <time>2022-03-08T13:42:55Z</time>
      </trkpt>
      <trkpt lat="43.55042" lon="2.01012">
        <ele>227.2</ele>
        <time>2022-03-08T13:42:56Z</time>
      </trkpt>
      <trkpt lat="43.55042" lon="2.01012">
        <ele>227.2</ele>
        <time>2022-03-08T13:42:57Z</time>
      </trkpt>
      <trkpt lat="43.55042" lon="2.01012">
        <ele>227.2</ele>
        <time>2022-03-08T13:42:58Z</time>
      </trkpt>
      <trkpt lat="43.55042" lon="2.01012">
        <ele>227.2</ele>
        <time>2022-03-08T13:42:59Z</time>
      </trkpt>
      <trkpt lat="43.55042" lon="2.01012">
        <ele>227.2</ele>
        <time>2022-03-08T13:43:00Z</time>
      </trkpt>
      <trkpt lat="43.55042" lon="2.01012">
        <ele>227.2</ele>
        <time>2022-03-08T13:43:01Z</time>
      </trkpt>
      <trkpt lat="43.55042" lon="2.01012">
        <ele>227.2</ele>
        <time>2022-03-08T13:43:02Z</time>
      </trkpt>
      <trkpt lat="43.55042" lon="2.01012">
        <ele>227.2</ele>
        <time>2022-03-08T13:43:03Z</time>
      </trkpt>
      <trkpt lat="43.55042" lon="2.01012">
        <ele>227.2</ele>
        <time>2022-03-08T13:43:04Z</time>
      </trkpt>
      <trkpt lat="43.55042" lon="2.01012">
        <ele>227.2</ele>
        <time>2022-03-08T13:43:05Z</time>
      </trkpt>
      <trkpt lat="43.55042" lon="2.01012">
        <ele>227.2</ele>
        <time>2022-03-08T13:43:06Z</time>
      </trkpt>
      <trkpt lat="43.55042" lon="2.01012">
        <ele>227.2</ele>
        <time>2022-03-08T13:43:07Z</time>
      </trkpt>
      <trkpt lat="43.55042" lon="2.01012">
        <ele>227.2</ele>
        <time>2022-03-08T13:43:08Z</time>
      </trkpt>
      <trkpt lat="43.55042" lon="2.01012">
        <ele>227.2</ele>
        <time>2022-03-08T13:43:09Z</time>
      </trkpt>
      <trkpt lat="43.55042" lon="2.01012">
        <ele>227.2</ele>
        <time>2022-03-08T13:43:10Z</time>
      </trkpt>
      <trkpt lat="43.55042" lon="2.01012">
        <ele>227.2</ele>
        <time>2022-03-08T13:43:11Z</time>
      </trkpt>
      <trkpt lat="43.55042" lon="2.01012">
        <ele>227.2</ele>
        <time>2022-03-08T13:43:12Z</time>
      </trkpt>
      <trkpt lat="43.55042" lon="2.01012">
        <ele>227.2</ele>
        <time>2022-03-08T13:43:13Z</time>
      </trkpt>
      <trkpt lat="43.55042" lon="2.01012">
        <ele>227.2</ele>
        <time>2022-03-08T13:43:14Z</time>
      </trkpt>
      <trkpt lat="43.55042" lon="2.01012">
        <ele>227.2</ele>
        <time>2022-03-08T13:43:15Z</time>
      </trkpt>
      <trkpt lat="43.55042" lon="2.01012">
        <ele>227.2</ele>
        <time>2022-03-08T13:43:16Z</time>
      </trkpt>
      <trkpt lat="43.55042" lon="2.01012">
        <ele>227.2</ele>
        <time>2022-03-08T13:43:17Z</time>
      </trkpt>
      <trkpt lat="43.55042" lon="2.01012">
        <ele>227.2</ele>
        <time>2022-03-08T13:43:18Z</time>
      </trkpt>
      <trkpt lat="43.55042" lon="2.01012">
        <ele>227.2</ele>
        <time>2022-03-08T13:43:19Z</time>
      </trkpt>
      <trkpt lat="43.55042" lon="2.01012">
        <ele>227.2</ele>
        <time>2022-03-08T13:43:20Z</time>
      </trkpt>
      <trkpt lat="43.55042" lon="2.01012">
        <ele>227.2</ele>
        <time>2022-03-08T13:43:21Z</time>
      </trkpt>
      <trkpt lat="43.55042" lon="2.01012">
        <ele>227.2</ele>
        <time>2022-03-08T13:43:22Z</time>
      </trkpt>
      <trkpt lat="43.55042" lon="2.01012">
        <ele>227.2</ele>
        <time>2022-03-08T13:43:23Z</time>
      </trkpt>
      <trkpt lat="43.55042" lon="2.01012">
        <ele>227.2</ele>
        <time>2022-03-08T13:43:24Z</time>
      </trkpt>
      <trkpt lat="43.55042" lon="2.01012">
        <ele>227.2</ele>
        <time>2022-03-08T13:43:25Z</time>
      </trkpt>
      <trkpt lat="43.55042" lon="2.01012">
        <ele>227.2</ele>
        <time>2022-03-08T13:43:26Z</time>
      </trkpt>
      <trkpt lat="43.55042" lon="2.01012">
        <ele>227.2</ele>
        <time>2022-03-08T13:43:27Z</time>
      </trkpt>
      <trkpt lat="43.55042" lon="2.01012">
        <ele>227.2</ele>
        <time>2022-03-08T13:43:28Z</time>
      </trkpt>
      <trkpt lat="43.55042" lon="2.01012">
        <ele>227.2</ele>
        <time>2022-03-08T13:43:29Z</time>
      </trkpt>
      <trkpt lat="43.55042" lon="2.01012">
        <ele>227.2</ele>
        <time>2022-03-08T13:43:30Z</time>
      </trkpt>
      <trkpt lat="43.55042" lon="2.01012">
        <ele>227.2</ele>
        <time>2022-03-08T13:43:31Z</time>
      </trkpt>
      <trkpt lat="43.55042" lon="2.01012">
        <ele>227.2</ele>
        <time>2022-03-08T13:43:32Z</time>
      </trkpt>
      <trkpt lat="43.55042" lon="2.01012">
        <ele>227.2</ele>
        <time>2022-03-08T13:43:33Z</time>
      </trkpt>
      <trkpt lat="43.55042" lon="2.01012">
        <ele>227.2</ele>
        <time>2022-03-08T13:43:34Z</time>
      </trkpt>
      <trkpt lat="43.55042" lon="2.01012">
        <ele>227.2</ele>
        <time>2022-03-08T13:43:35Z</time>
      </trkpt>
      <trkpt lat="43.55042" lon="2.01012">
        <ele>227.2</ele>
        <time>2022-03-08T13:43:36Z</time>
      </trkpt>
      <trkpt lat="43.55042" lon="2.01012">
        <ele>227.2</ele>
        <time>2022-03-08T13:43:38Z</time>
      </trkpt>
      <trkpt lat="43.55041" lon="2.01011">
        <ele>227.2</ele>
        <time>2022-03-08T13:43:39Z</time>
      </trkpt>
      <trkpt lat="43.5504" lon="2.0101">
        <ele>227.2</ele>
        <time>2022-03-08T13:43:40Z</time>
      </trkpt>
      <trkpt lat="43.55039" lon="2.01009">
        <ele>227.2</ele>
        <time>2022-03-08T13:43:42Z</time>
      </trkpt>
      <trkpt lat="43.55038" lon="2.01008">
        <ele>227.2</ele>
        <time>2022-03-08T13:43:43Z</time>
      </trkpt>
      <trkpt lat="43.55037" lon="2.01006">
        <ele>227.2</ele>
        <time>2022-03-08T13:43:44Z</time>
      </trkpt>
      <trkpt lat="43.55037" lon="2.01004">
        <ele>227.2</ele>
        <time>2022-03-08T13:43:45Z</time>
      </trkpt>
      <trkpt lat="43.55036" lon="2.01002">
        <ele>227.2</ele>
        <time>2022-03-08T13:43:46Z</time>
      </trkpt>
      <trkpt lat="43.55035" lon="2.01">
        <ele>227.2</ele>
        <time>2022-03-08T13:43:47Z</time>
      </trkpt>
      <trkpt lat="43.55033" lon="2.00996">
        <ele>227.2</ele>
        <time>2022-03-08T13:43:49Z</time>
      </trkpt>
      <trkpt lat="43.55032" lon="2.00994">
        <ele>227.2</ele>
        <time>2022-03-08T13:43:50Z</time>
      </trkpt>
      <trkpt lat="43.55032" lon="2.00993">
        <ele>227.1</ele>
        <time>2022-03-08T13:43:51Z</time>
      </trkpt>
      <trkpt lat="43.5503" lon="2.00989">
        <ele>227.1</ele>
        <time>2022-03-08T13:43:52Z</time>
      </trkpt>
      <trkpt lat="43.55029" lon="2.00988">
        <ele>227</ele>
        <time>2022-03-08T13:43:53Z</time>
      </trkpt>
      <trkpt lat="43.55027" lon="2.00985">
        <ele>227</ele>
        <time>2022-03-08T13:43:54Z</time>
      </trkpt>
      <trkpt lat="43.55026" lon="2.00984">
        <ele>227</ele>
        <time>2022-03-08T13:43:55Z</time>
      </trkpt>
      <trkpt lat="43.55024" lon="2.00981">
        <ele>226.9</ele>
        <time>2022-03-08T13:43:57Z</time>
      </trkpt>
      <trkpt lat="43.55023" lon="2.00979">
        <ele>226.9</ele>
        <time>2022-03-08T13:43:58Z</time>
      </trkpt>
      <trkpt lat="43.55023" lon="2.00978">
        <ele>226.9</ele>
        <time>2022-03-08T13:43:59Z</time>
      </trkpt>
      <trkpt lat="43.55021" lon="2.00974">
        <ele>226.9</ele>
        <time>2022-03-08T13:44:00Z</time>
      </trkpt>
      <trkpt lat="43.5502" lon="2.00972">
        <ele>226.9</ele>
        <time>2022-03-08T13:44:02Z</time>
      </trkpt>
      <trkpt lat="43.5502" lon="2.0097">
        <ele>226.9</ele>
        <time>2022-03-08T13:44:03Z</time>
      </trkpt>
      <trkpt lat="43.55019" lon="2.00968">
        <ele>226.9</ele>
        <time>2022-03-08T13:44:04Z</time>
      </trkpt>
      <trkpt lat="43.55018" lon="2.00965">
        <ele>226.9</ele>
        <time>2022-03-08T13:44:05Z</time>
      </trkpt>
      <trkpt lat="43.55018" lon="2.00963">
        <ele>226.9</ele>
        <time>2022-03-08T13:44:06Z</time>
      </trkpt>
      <trkpt lat="43.55018" lon="2.00961">
        <ele>226.9</ele>
        <time>2022-03-08T13:44:08Z</time>
      </trkpt>
      <trkpt lat="43.55017" lon="2.00959">
        <ele>226.9</ele>
        <time>2022-03-08T13:44:09Z</time>
      </trkpt>
      <trkpt lat="43.55016" lon="2.00957">
        <ele>226.9</ele>
        <time>2022-03-08T13:44:10Z</time>
      </trkpt>
      <trkpt lat="43.55016" lon="2.00955">
        <ele>226.9</ele>
        <time>2022-03-08T13:44:11Z</time>
      </trkpt>
      <trkpt lat="43.55015" lon="2.00954">
        <ele>226.9</ele>
        <time>2022-03-08T13:44:12Z</time>
      </trkpt>
      <trkpt lat="43.55014" lon="2.00952">
        <ele>226.9</ele>
        <time>2022-03-08T13:44:13Z</time>
      </trkpt>
      <trkpt lat="43.55014" lon="2.00951">
        <ele>226.9</ele>
        <time>2022-03-08T13:44:14Z</time>
      </trkpt>
      <trkpt lat="43.55012" lon="2.00949">
        <ele>226.9</ele>
        <time>2022-03-08T13:44:15Z</time>
      </trkpt>
      <trkpt lat="43.55011" lon="2.00948">
        <ele>227</ele>
        <time>2022-03-08T13:44:16Z</time>
      </trkpt>
      <trkpt lat="43.5501" lon="2.00947">
        <ele>227</ele>
        <time>2022-03-08T13:44:18Z</time>
      </trkpt>
      <trkpt lat="43.55009" lon="2.00946">
        <ele>227</ele>
        <time>2022-03-08T13:44:19Z</time>
      </trkpt>
      <trkpt lat="43.55008" lon="2.00945">
        <ele>227</ele>
        <time>2022-03-08T13:44:20Z</time>
      </trkpt>
      <trkpt lat="43.55006" lon="2.00943">
        <ele>227</ele>
        <time>2022-03-08T13:44:21Z</time>
      </trkpt>
      <trkpt lat="43.55005" lon="2.00943">
        <ele>227</ele>
        <time>2022-03-08T13:44:22Z</time>
      </trkpt>
      <trkpt lat="43.55004" lon="2.00942">
        <ele>227</ele>
        <time>2022-03-08T13:44:23Z</time>
      </trkpt>
      <trkpt lat="43.55003" lon="2.00941">
        <ele>227</ele>
        <time>2022-03-08T13:44:24Z</time>
      </trkpt>
      <trkpt lat="43.55002" lon="2.0094">
        <ele>227</ele>
        <time>2022-03-08T13:44:25Z</time>
      </trkpt>
      <trkpt lat="43.55002" lon="2.00939">
        <ele>227.1</ele>
        <time>2022-03-08T13:44:26Z</time>
      </trkpt>
      <trkpt lat="43.55001" lon="2.00938">
        <ele>227.1</ele>
        <time>2022-03-08T13:44:27Z</time>
      </trkpt>
      <trkpt lat="43.55" lon="2.00936">
        <ele>227.1</ele>
        <time>2022-03-08T13:44:29Z</time>
      </trkpt>
      <trkpt lat="43.55" lon="2.00935">
        <ele>227.1</ele>
        <time>2022-03-08T13:44:30Z</time>
      </trkpt>
      <trkpt lat="43.54999" lon="2.00932">
        <ele>227.1</ele>
        <time>2022-03-08T13:44:31Z</time>
      </trkpt>
      <trkpt lat="43.54999" lon="2.00931">
        <ele>227.1</ele>
        <time>2022-03-08T13:44:32Z</time>
      </trkpt>
      <trkpt lat="43.54998" lon="2.0093">
        <ele>227.1</ele>
        <time>2022-03-08T13:44:33Z</time>
      </trkpt>
      <trkpt lat="43.54998" lon="2.00928">
        <ele>227.1</ele>
        <time>2022-03-08T13:44:34Z</time>
      </trkpt>
      <trkpt lat="43.54997" lon="2.00927">
        <ele>227.1</ele>
        <time>2022-03-08T13:44:35Z</time>
      </trkpt>
      <trkpt lat="43.54997" lon="2.00926">
        <ele>227.1</ele>
        <time>2022-03-08T13:44:36Z</time>
      </trkpt>
      <trkpt lat="43.54996" lon="2.00924">
        <ele>227.2</ele>
        <time>2022-03-08T13:44:37Z</time>
      </trkpt>
      <trkpt lat="43.54995" lon="2.00924">
        <ele>227.2</ele>
        <time>2022-03-08T13:44:38Z</time>
      </trkpt>
      <trkpt lat="43.54995" lon="2.00923">
        <ele>227.2</ele>
        <time>2022-03-08T13:44:39Z</time>
      </trkpt>
      <trkpt lat="43.54994" lon="2.00921">
        <ele>227.2</ele>
        <time>2022-03-08T13:44:40Z</time>
      </trkpt>
      <trkpt lat="43.54992" lon="2.00919">
        <ele>227.2</ele>
        <time>2022-03-08T13:44:41Z</time>
      </trkpt>
      <trkpt lat="43.54992" lon="2.00919">
        <ele>227.2</ele>
        <time>2022-03-08T13:44:42Z</time>
      </trkpt>
      <trkpt lat="43.54991" lon="2.00918">
        <ele>227.2</ele>
        <time>2022-03-08T13:44:43Z</time>
      </trkpt>
      <trkpt lat="43.5499" lon="2.00917">
        <ele>227.2</ele>
        <time>2022-03-08T13:44:44Z</time>
      </trkpt>
      <trkpt lat="43.54989" lon="2.00916">
        <ele>227.2</ele>
        <time>2022-03-08T13:44:45Z</time>
      </trkpt>
      <trkpt lat="43.54988" lon="2.00915">
        <ele>227.2</ele>
        <time>2022-03-08T13:44:47Z</time>
      </trkpt>
      <trkpt lat="43.54987" lon="2.00914">
        <ele>227.2</ele>
        <time>2022-03-08T13:44:48Z</time>
      </trkpt>
      <trkpt lat="43.54985" lon="2.00913">
        <ele>227.3</ele>
        <time>2022-03-08T13:44:49Z</time>
      </trkpt>
      <trkpt lat="43.54983" lon="2.00912">
        <ele>227.3</ele>
        <time>2022-03-08T13:44:50Z</time>
      </trkpt>
      <trkpt lat="43.54983" lon="2.00912">
        <ele>227.3</ele>
        <time>2022-03-08T13:44:51Z</time>
      </trkpt>
      <trkpt lat="43.54982" lon="2.00912">
        <ele>227.3</ele>
        <time>2022-03-08T13:44:52Z</time>
      </trkpt>
      <trkpt lat="43.54979" lon="2.00912">
        <ele>227.3</ele>
        <time>2022-03-08T13:44:53Z</time>
      </trkpt>
      <trkpt lat="43.54978" lon="2.00912">
        <ele>227.4</ele>
        <time>2022-03-08T13:44:54Z</time>
      </trkpt>
      <trkpt lat="43.54976" lon="2.00913">
        <ele>227.4</ele>
        <time>2022-03-08T13:44:55Z</time>
      </trkpt>
      <trkpt lat="43.54975" lon="2.00914">
        <ele>227.4</ele>
        <time>2022-03-08T13:44:56Z</time>
      </trkpt>
      <trkpt lat="43.54974" lon="2.00915">
        <ele>227.4</ele>
        <time>2022-03-08T13:44:57Z</time>
      </trkpt>
      <trkpt lat="43.54972" lon="2.00916">
        <ele>227.5</ele>
        <time>2022-03-08T13:44:59Z</time>
      </trkpt>
      <trkpt lat="43.54971" lon="2.00916">
        <ele>227.5</ele>
        <time>2022-03-08T13:45:00Z</time>
      </trkpt>
      <trkpt lat="43.54969" lon="2.00917">
        <ele>227.6</ele>
        <time>2022-03-08T13:45:01Z</time>
      </trkpt>
      <trkpt lat="43.54968" lon="2.00917">
        <ele>227.6</ele>
        <time>2022-03-08T13:45:02Z</time>
      </trkpt>
      <trkpt lat="43.54967" lon="2.00918">
        <ele>227.7</ele>
        <time>2022-03-08T13:45:03Z</time>
      </trkpt>
      <trkpt lat="43.54966" lon="2.00919">
        <ele>227.7</ele>
        <time>2022-03-08T13:45:04Z</time>
      </trkpt>
      <trkpt lat="43.54964" lon="2.0092">
        <ele>227.8</ele>
        <time>2022-03-08T13:45:06Z</time>
      </trkpt>
      <trkpt lat="43.54963" lon="2.00921">
        <ele>227.9</ele>
        <time>2022-03-08T13:45:07Z</time>
      </trkpt>
      <trkpt lat="43.54962" lon="2.00921">
        <ele>227.9</ele>
        <time>2022-03-08T13:45:08Z</time>
      </trkpt>
      <trkpt lat="43.54961" lon="2.00922">
        <ele>227.9</ele>
        <time>2022-03-08T13:45:09Z</time>
      </trkpt>
      <trkpt lat="43.54959" lon="2.00922">
        <ele>228</ele>
        <time>2022-03-08T13:45:10Z</time>
      </trkpt>
      <trkpt lat="43.54958" lon="2.00922">
        <ele>228.1</ele>
        <time>2022-03-08T13:45:11Z</time>
      </trkpt>
      <trkpt lat="43.54956" lon="2.00922">
        <ele>228.2</ele>
        <time>2022-03-08T13:45:13Z</time>
      </trkpt>
      <trkpt lat="43.54955" lon="2.00922">
        <ele>228.3</ele>
        <time>2022-03-08T13:45:14Z</time>
      </trkpt>
      <trkpt lat="43.54954" lon="2.00922">
        <ele>228.3</ele>
        <time>2022-03-08T13:45:15Z</time>
      </trkpt>
      <trkpt lat="43.54952" lon="2.00922">
        <ele>228.4</ele>
        <time>2022-03-08T13:45:16Z</time>
      </trkpt>
      <trkpt lat="43.54951" lon="2.00922">
        <ele>228.5</ele>
        <time>2022-03-08T13:45:17Z</time>
      </trkpt>
      <trkpt lat="43.5495" lon="2.00922">
        <ele>228.5</ele>
        <time>2022-03-08T13:45:18Z</time>
      </trkpt>
      <trkpt lat="43.54949" lon="2.00922">
        <ele>228.6</ele>
        <time>2022-03-08T13:45:19Z</time>
      </trkpt>
      <trkpt lat="43.54948" lon="2.00922">
        <ele>228.6</ele>
        <time>2022-03-08T13:45:20Z</time>
      </trkpt>
      <trkpt lat="43.54947" lon="2.00922">
        <ele>228.7</ele>
        <time>2022-03-08T13:45:21Z</time>
      </trkpt>
      <trkpt lat="43.54946" lon="2.00922">
        <ele>228.8</ele>
        <time>2022-03-08T13:45:22Z</time>
      </trkpt>
      <trkpt lat="43.54945" lon="2.00923">
        <ele>228.8</ele>
        <time>2022-03-08T13:45:23Z</time>
      </trkpt>
      <trkpt lat="43.54944" lon="2.00923">
        <ele>228.9</ele>
        <time>2022-03-08T13:45:24Z</time>
      </trkpt>
      <trkpt lat="43.54943" lon="2.00924">
        <ele>229</ele>
        <time>2022-03-08T13:45:25Z</time>
      </trkpt>
      <trkpt lat="43.54942" lon="2.00924">
        <ele>229</ele>
        <time>2022-03-08T13:45:26Z</time>
      </trkpt>
      <trkpt lat="43.54941" lon="2.00925">
        <ele>229.1</ele>
        <time>2022-03-08T13:45:27Z</time>
      </trkpt>
      <trkpt lat="43.5494" lon="2.00925">
        <ele>229.1</ele>
        <time>2022-03-08T13:45:28Z</time>
      </trkpt>
      <trkpt lat="43.54939" lon="2.00926">
        <ele>229.2</ele>
        <time>2022-03-08T13:45:29Z</time>
      </trkpt>
      <trkpt lat="43.54938" lon="2.00926">
        <ele>229.3</ele>
        <time>2022-03-08T13:45:30Z</time>
      </trkpt>
      <trkpt lat="43.54937" lon="2.00926">
        <ele>229.3</ele>
        <time>2022-03-08T13:45:31Z</time>
      </trkpt>
      <trkpt lat="43.54936" lon="2.00926">
        <ele>229.4</ele>
        <time>2022-03-08T13:45:32Z</time>
      </trkpt>
      <trkpt lat="43.54935" lon="2.00926">
        <ele>229.5</ele>
        <time>2022-03-08T13:45:33Z</time>
      </trkpt>
      <trkpt lat="43.54934" lon="2.00926">
        <ele>229.5</ele>
        <time>2022-03-08T13:45:34Z</time>
      </trkpt>
      <trkpt lat="43.54933" lon="2.00926">
        <ele>229.6</ele>
        <time>2022-03-08T13:45:35Z</time>
      </trkpt>
      <trkpt lat="43.54932" lon="2.00927">
        <ele>229.6</ele>
        <time>2022-03-08T13:45:37Z</time>
      </trkpt>
      <trkpt lat="43.54931" lon="2.00927">
        <ele>229.7</ele>
        <time>2022-03-08T13:45:38Z</time>
      </trkpt>
      <trkpt lat="43.54931" lon="2.00927">
        <ele>229.7</ele>
        <time>2022-03-08T13:45:39Z</time>
      </trkpt>
      <trkpt lat="43.5493" lon="2.00928">
        <ele>229.8</ele>
        <time>2022-03-08T13:45:40Z</time>
      </trkpt>
      <trkpt lat="43.54929" lon="2.00929">
        <ele>229.9</ele>
        <time>2022-03-08T13:45:41Z</time>
      </trkpt>
      <trkpt lat="43.54928" lon="2.00929">
        <ele>229.9</ele>
        <time>2022-03-08T13:45:42Z</time>
      </trkpt>
      <trkpt lat="43.54927" lon="2.0093">
        <ele>230</ele>
        <time>2022-03-08T13:45:43Z</time>
      </trkpt>
      <trkpt lat="43.54927" lon="2.00931">
        <ele>230</ele>
        <time>2022-03-08T13:45:44Z</time>
      </trkpt>
      <trkpt lat="43.54927" lon="2.00932">
        <ele>230.1</ele>
        <time>2022-03-08T13:45:45Z</time>
      </trkpt>
      <trkpt lat="43.54926" lon="2.00933">
        <ele>230.1</ele>
        <time>2022-03-08T13:45:46Z</time>
      </trkpt>
      <trkpt lat="43.54924" lon="2.00934">
        <ele>230.3</ele>
        <time>2022-03-08T13:45:47Z</time>
      </trkpt>
      <trkpt lat="43.54923" lon="2.00935">
        <ele>230.3</ele>
        <time>2022-03-08T13:45:48Z</time>
      </trkpt>
      <trkpt lat="43.54922" lon="2.00936">
        <ele>230.4</ele>
        <time>2022-03-08T13:45:49Z</time>
      </trkpt>
      <trkpt lat="43.54921" lon="2.00937">
        <ele>230.5</ele>
        <time>2022-03-08T13:45:51Z</time>
      </trkpt>
      <trkpt lat="43.54919" lon="2.00938">
        <ele>230.6</ele>
        <time>2022-03-08T13:45:52Z</time>
      </trkpt>
      <trkpt lat="43.54918" lon="2.00938">
        <ele>230.7</ele>
        <time>2022-03-08T13:45:53Z</time>
      </trkpt>
      <trkpt lat="43.54917" lon="2.00939">
        <ele>230.8</ele>
        <time>2022-03-08T13:45:54Z</time>
      </trkpt>
      <trkpt lat="43.54915" lon="2.0094">
        <ele>230.9</ele>
        <time>2022-03-08T13:45:55Z</time>
      </trkpt>
      <trkpt lat="43.54914" lon="2.0094">
        <ele>231</ele>
        <time>2022-03-08T13:45:56Z</time>
      </trkpt>
      <trkpt lat="43.54912" lon="2.00941">
        <ele>231.2</ele>
        <time>2022-03-08T13:45:57Z</time>
      </trkpt>
      <trkpt lat="43.54911" lon="2.00941">
        <ele>231.2</ele>
        <time>2022-03-08T13:45:58Z</time>
      </trkpt>
      <trkpt lat="43.54911" lon="2.00942">
        <ele>231.3</ele>
        <time>2022-03-08T13:45:59Z</time>
      </trkpt>
      <trkpt lat="43.54908" lon="2.00943">
        <ele>231.5</ele>
        <time>2022-03-08T13:46:00Z</time>
      </trkpt>
      <trkpt lat="43.54907" lon="2.00943">
        <ele>231.5</ele>
        <time>2022-03-08T13:46:02Z</time>
      </trkpt>
      <trkpt lat="43.54906" lon="2.00944">
        <ele>231.6</ele>
        <time>2022-03-08T13:46:03Z</time>
      </trkpt>
      <trkpt lat="43.54905" lon="2.00944">
        <ele>231.7</ele>
        <time>2022-03-08T13:46:04Z</time>
      </trkpt>
      <trkpt lat="43.54905" lon="2.00945">
        <ele>231.7</ele>
        <time>2022-03-08T13:46:05Z</time>
      </trkpt>
      <trkpt lat="43.54903" lon="2.00945">
        <ele>231.9</ele>
        <time>2022-03-08T13:46:06Z</time>
      </trkpt>
      <trkpt lat="43.54902" lon="2.00945">
        <ele>232</ele>
        <time>2022-03-08T13:46:07Z</time>
      </trkpt>
      <trkpt lat="43.54901" lon="2.00946">
        <ele>232</ele>
        <time>2022-03-08T13:46:08Z</time>
      </trkpt>
      <trkpt lat="43.549" lon="2.00946">
        <ele>232.1</ele>
        <time>2022-03-08T13:46:09Z</time>
      </trkpt>
      <trkpt lat="43.54899" lon="2.00946">
        <ele>232.2</ele>
        <time>2022-03-08T13:46:11Z</time>
      </trkpt>
      <trkpt lat="43.54898" lon="2.00946">
        <ele>232.3</ele>
        <time>2022-03-08T13:46:12Z</time>
      </trkpt>
      <trkpt lat="43.54895" lon="2.00946">
        <ele>232.4</ele>
        <time>2022-03-08T13:46:13Z</time>
      </trkpt>
      <trkpt lat="43.54895" lon="2.00946">
        <ele>232.5</ele>
        <time>2022-03-08T13:46:14Z</time>
      </trkpt>
      <trkpt lat="43.54894" lon="2.00946">
        <ele>232.5</ele>
        <time>2022-03-08T13:46:15Z</time>
      </trkpt>
      <trkpt lat="43.54892" lon="2.00948">
        <ele>232.7</ele>
        <time>2022-03-08T13:46:16Z</time>
      </trkpt>
      <trkpt lat="43.54891" lon="2.00948">
        <ele>232.8</ele>
        <time>2022-03-08T13:46:17Z</time>
      </trkpt>
      <trkpt lat="43.5489" lon="2.00949">
        <ele>232.8</ele>
        <time>2022-03-08T13:46:18Z</time>
      </trkpt>
      <trkpt lat="43.54889" lon="2.0095">
        <ele>232.9</ele>
        <time>2022-03-08T13:46:19Z</time>
      </trkpt>
      <trkpt lat="43.54888" lon="2.00951">
        <ele>233</ele>
        <time>2022-03-08T13:46:20Z</time>
      </trkpt>
      <trkpt lat="43.54887" lon="2.00951">
        <ele>233.1</ele>
        <time>2022-03-08T13:46:21Z</time>
      </trkpt>
      <trkpt lat="43.54886" lon="2.00951">
        <ele>233.1</ele>
        <time>2022-03-08T13:46:23Z</time>
      </trkpt>
      <trkpt lat="43.54885" lon="2.00952">
        <ele>233.2</ele>
        <time>2022-03-08T13:46:24Z</time>
      </trkpt>
      <trkpt lat="43.54883" lon="2.00952">
        <ele>233.3</ele>
        <time>2022-03-08T13:46:25Z</time>
      </trkpt>
      <trkpt lat="43.54883" lon="2.00952">
        <ele>233.4</ele>
        <time>2022-03-08T13:46:26Z</time>
      </trkpt>
      <trkpt lat="43.54882" lon="2.00952">
        <ele>233.4</ele>
        <time>2022-03-08T13:46:27Z</time>
      </trkpt>
      <trkpt lat="43.54881" lon="2.00952">
        <ele>233.5</ele>
        <time>2022-03-08T13:46:28Z</time>
      </trkpt>
      <trkpt lat="43.5488" lon="2.00952">
        <ele>233.5</ele>
        <time>2022-03-08T13:46:29Z</time>
      </trkpt>
      <trkpt lat="43.54879" lon="2.00952">
        <ele>233.6</ele>
        <time>2022-03-08T13:46:30Z</time>
      </trkpt>
      <trkpt lat="43.54878" lon="2.00953">
        <ele>233.6</ele>
        <time>2022-03-08T13:46:31Z</time>
      </trkpt>
      <trkpt lat="43.54878" lon="2.00953">
        <ele>233.7</ele>
        <time>2022-03-08T13:46:32Z</time>
      </trkpt>
      <trkpt lat="43.54877" lon="2.00953">
        <ele>233.8</ele>
        <time>2022-03-08T13:46:33Z</time>
      </trkpt>
      <trkpt lat="43.54876" lon="2.00954">
        <ele>233.8</ele>
        <time>2022-03-08T13:46:34Z</time>
      </trkpt>
      <trkpt lat="43.54875" lon="2.00954">
        <ele>233.9</ele>
        <time>2022-03-08T13:46:35Z</time>
      </trkpt>
      <trkpt lat="43.54873" lon="2.00955">
        <ele>234</ele>
        <time>2022-03-08T13:46:36Z</time>
      </trkpt>
      <trkpt lat="43.54872" lon="2.00955">
        <ele>234</ele>
        <time>2022-03-08T13:46:38Z</time>
      </trkpt>
      <trkpt lat="43.54872" lon="2.00955">
        <ele>234.1</ele>
        <time>2022-03-08T13:46:39Z</time>
      </trkpt>
      <trkpt lat="43.54871" lon="2.00956">
        <ele>234.1</ele>
        <time>2022-03-08T13:46:40Z</time>
      </trkpt>
      <trkpt lat="43.5487" lon="2.00956">
        <ele>234.2</ele>
        <time>2022-03-08T13:46:41Z</time>
      </trkpt>
      <trkpt lat="43.54869" lon="2.00957">
        <ele>234.2</ele>
        <time>2022-03-08T13:46:42Z</time>
      </trkpt>
      <trkpt lat="43.54867" lon="2.00958">
        <ele>234.3</ele>
        <time>2022-03-08T13:46:43Z</time>
      </trkpt>
      <trkpt lat="43.54867" lon="2.00959">
        <ele>234.4</ele>
        <time>2022-03-08T13:46:44Z</time>
      </trkpt>
      <trkpt lat="43.54865" lon="2.0096">
        <ele>234.5</ele>
        <time>2022-03-08T13:46:45Z</time>
      </trkpt>
      <trkpt lat="43.54864" lon="2.00961">
        <ele>234.6</ele>
        <time>2022-03-08T13:46:46Z</time>
      </trkpt>
      <trkpt lat="43.54863" lon="2.00963">
        <ele>234.6</ele>
        <time>2022-03-08T13:46:47Z</time>
      </trkpt>
      <trkpt lat="43.54862" lon="2.00964">
        <ele>234.7</ele>
        <time>2022-03-08T13:46:48Z</time>
      </trkpt>
      <trkpt lat="43.54861" lon="2.00965">
        <ele>234.8</ele>
        <time>2022-03-08T13:46:49Z</time>
      </trkpt>
      <trkpt lat="43.5486" lon="2.00966">
        <ele>234.8</ele>
        <time>2022-03-08T13:46:50Z</time>
      </trkpt>
      <trkpt lat="43.54858" lon="2.00967">
        <ele>234.9</ele>
        <time>2022-03-08T13:46:52Z</time>
      </trkpt>
      <trkpt lat="43.54857" lon="2.00968">
        <ele>235</ele>
        <time>2022-03-08T13:46:53Z</time>
      </trkpt>
      <trkpt lat="43.54856" lon="2.00968">
        <ele>235</ele>
        <time>2022-03-08T13:46:54Z</time>
      </trkpt>
      <trkpt lat="43.54855" lon="2.00968">
        <ele>235.1</ele>
        <time>2022-03-08T13:46:55Z</time>
      </trkpt>
      <trkpt lat="43.54853" lon="2.00968">
        <ele>235.1</ele>
        <time>2022-03-08T13:46:56Z</time>
      </trkpt>
      <trkpt lat="43.54851" lon="2.00968">
        <ele>235.2</ele>
        <time>2022-03-08T13:46:57Z</time>
      </trkpt>
      <trkpt lat="43.5485" lon="2.00968">
        <ele>235.3</ele>
        <time>2022-03-08T13:46:58Z</time>
      </trkpt>
      <trkpt lat="43.54849" lon="2.00967">
        <ele>235.3</ele>
        <time>2022-03-08T13:47:00Z</time>
      </trkpt>
      <trkpt lat="43.54847" lon="2.00967">
        <ele>235.3</ele>
        <time>2022-03-08T13:47:01Z</time>
      </trkpt>
      <trkpt lat="43.54846" lon="2.00967">
        <ele>235.4</ele>
        <time>2022-03-08T13:47:02Z</time>
      </trkpt>
      <trkpt lat="43.54845" lon="2.00967">
        <ele>235.4</ele>
        <time>2022-03-08T13:47:03Z</time>
      </trkpt>
      <trkpt lat="43.54843" lon="2.00967">
        <ele>235.5</ele>
        <time>2022-03-08T13:47:04Z</time>
      </trkpt>
      <trkpt lat="43.54842" lon="2.00968">
        <ele>235.5</ele>
        <time>2022-03-08T13:47:06Z</time>
      </trkpt>
      <trkpt lat="43.54841" lon="2.00968">
        <ele>235.5</ele>
        <time>2022-03-08T13:47:07Z</time>
      </trkpt>
      <trkpt lat="43.5484" lon="2.00968">
        <ele>235.6</ele>
        <time>2022-03-08T13:47:08Z</time>
      </trkpt>
      <trkpt lat="43.54839" lon="2.00969">
        <ele>235.6</ele>
        <time>2022-03-08T13:47:09Z</time>
      </trkpt>
      <trkpt lat="43.54838" lon="2.0097">
        <ele>235.6</ele>
        <time>2022-03-08T13:47:10Z</time>
      </trkpt>
      <trkpt lat="43.54836" lon="2.00971">
        <ele>235.7</ele>
        <time>2022-03-08T13:47:11Z</time>
      </trkpt>
      <trkpt lat="43.54836" lon="2.00972">
        <ele>235.7</ele>
        <time>2022-03-08T13:47:12Z</time>
      </trkpt>
      <trkpt lat="43.54835" lon="2.00973">
        <ele>235.7</ele>
        <time>2022-03-08T13:47:14Z</time>
      </trkpt>
      <trkpt lat="43.54834" lon="2.00974">
        <ele>235.7</ele>
        <time>2022-03-08T13:47:15Z</time>
      </trkpt>
      <trkpt lat="43.54833" lon="2.00975">
        <ele>235.8</ele>
        <time>2022-03-08T13:47:16Z</time>
      </trkpt>
      <trkpt lat="43.54832" lon="2.00977">
        <ele>235.8</ele>
        <time>2022-03-08T13:47:17Z</time>
      </trkpt>
      <trkpt lat="43.54831" lon="2.00977">
        <ele>235.8</ele>
        <time>2022-03-08T13:47:18Z</time>
      </trkpt>
      <trkpt lat="43.5483" lon="2.00978">
        <ele>235.8</ele>
        <time>2022-03-08T13:47:19Z</time>
      </trkpt>
      <trkpt lat="43.54828" lon="2.00979">
        <ele>235.9</ele>
        <time>2022-03-08T13:47:20Z</time>
      </trkpt>
      <trkpt lat="43.54827" lon="2.00979">
        <ele>235.9</ele>
        <time>2022-03-08T13:47:21Z</time>
      </trkpt>
      <trkpt lat="43.54825" lon="2.00979">
        <ele>235.9</ele>
        <time>2022-03-08T13:47:23Z</time>
      </trkpt>
      <trkpt lat="43.54824" lon="2.00978">
        <ele>235.9</ele>
        <time>2022-03-08T13:47:24Z</time>
      </trkpt>
      <trkpt lat="43.54823" lon="2.00977">
        <ele>235.9</ele>
        <time>2022-03-08T13:47:25Z</time>
      </trkpt>
      <trkpt lat="43.54822" lon="2.00977">
        <ele>236</ele>
        <time>2022-03-08T13:47:26Z</time>
      </trkpt>
      <trkpt lat="43.54819" lon="2.00977">
        <ele>236</ele>
        <time>2022-03-08T13:47:27Z</time>
      </trkpt>
      <trkpt lat="43.54817" lon="2.00976">
        <ele>236</ele>
        <time>2022-03-08T13:47:29Z</time>
      </trkpt>
      <trkpt lat="43.54816" lon="2.00975">
        <ele>236</ele>
        <time>2022-03-08T13:47:30Z</time>
      </trkpt>
      <trkpt lat="43.54815" lon="2.00974">
        <ele>236.1</ele>
        <time>2022-03-08T13:47:31Z</time>
      </trkpt>
      <trkpt lat="43.54813" lon="2.00974">
        <ele>236.1</ele>
        <time>2022-03-08T13:47:32Z</time>
      </trkpt>
      <trkpt lat="43.54812" lon="2.00973">
        <ele>236.1</ele>
        <time>2022-03-08T13:47:33Z</time>
      </trkpt>
      <trkpt lat="43.5481" lon="2.00973">
        <ele>236.1</ele>
        <time>2022-03-08T13:47:34Z</time>
      </trkpt>
      <trkpt lat="43.54808" lon="2.00973">
        <ele>236.1</ele>
        <time>2022-03-08T13:47:35Z</time>
      </trkpt>
      <trkpt lat="43.54807" lon="2.00973">
        <ele>236.1</ele>
        <time>2022-03-08T13:47:36Z</time>
      </trkpt>
      <trkpt lat="43.54806" lon="2.00973">
        <ele>236.1</ele>
        <time>2022-03-08T13:47:37Z</time>
      </trkpt>
      <trkpt lat="43.54804" lon="2.00973">
        <ele>236.2</ele>
        <time>2022-03-08T13:47:39Z</time>
      </trkpt>
      <trkpt lat="43.54802" lon="2.00974">
        <ele>236.2</ele>
        <time>2022-03-08T13:47:40Z</time>
      </trkpt>
      <trkpt lat="43.548" lon="2.00974">
        <ele>236.2</ele>
        <time>2022-03-08T13:47:41Z</time>
      </trkpt>
      <trkpt lat="43.548" lon="2.00974">
        <ele>236.2</ele>
        <time>2022-03-08T13:47:42Z</time>
      </trkpt>
      <trkpt lat="43.54798" lon="2.00973">
        <ele>236.2</ele>
        <time>2022-03-08T13:47:43Z</time>
      </trkpt>
      <trkpt lat="43.54797" lon="2.00973">
        <ele>236.2</ele>
        <time>2022-03-08T13:47:44Z</time>
      </trkpt>
      <trkpt lat="43.54795" lon="2.00974">
        <ele>236.3</ele>
        <time>2022-03-08T13:47:45Z</time>
      </trkpt>
      <trkpt lat="43.54794" lon="2.00974">
        <ele>236.3</ele>
        <time>2022-03-08T13:47:46Z</time>
      </trkpt>
      <trkpt lat="43.54793" lon="2.00974">
        <ele>236.3</ele>
        <time>2022-03-08T13:47:47Z</time>
      </trkpt>
      <trkpt lat="43.54792" lon="2.00974">
        <ele>236.3</ele>
        <time>2022-03-08T13:47:48Z</time>
      </trkpt>
      <trkpt lat="43.5479" lon="2.00973">
        <ele>236.3</ele>
        <time>2022-03-08T13:47:49Z</time>
      </trkpt>
      <trkpt lat="43.54787" lon="2.00971">
        <ele>236.4</ele>
        <time>2022-03-08T13:47:51Z</time>
      </trkpt>
      <trkpt lat="43.54786" lon="2.0097">
        <ele>236.4</ele>
        <time>2022-03-08T13:47:52Z</time>
      </trkpt>
      <trkpt lat="43.54784" lon="2.00969">
        <ele>236.4</ele>
        <time>2022-03-08T13:47:53Z</time>
      </trkpt>
      <trkpt lat="43.54783" lon="2.00968">
        <ele>236.4</ele>
        <time>2022-03-08T13:47:54Z</time>
      </trkpt>
      <trkpt lat="43.54782" lon="2.00966">
        <ele>236.5</ele>
        <time>2022-03-08T13:47:55Z</time>
      </trkpt>
      <trkpt lat="43.54781" lon="2.00965">
        <ele>236.5</ele>
        <time>2022-03-08T13:47:56Z</time>
      </trkpt>
      <trkpt lat="43.5478" lon="2.00963">
        <ele>236.6</ele>
        <time>2022-03-08T13:47:57Z</time>
      </trkpt>
      <trkpt lat="43.54778" lon="2.00961">
        <ele>236.6</ele>
        <time>2022-03-08T13:47:58Z</time>
      </trkpt>
      <trkpt lat="43.54776" lon="2.00959">
        <ele>236.7</ele>
        <time>2022-03-08T13:47:59Z</time>
      </trkpt>
      <trkpt lat="43.54776" lon="2.00958">
        <ele>236.7</ele>
        <time>2022-03-08T13:48:00Z</time>
      </trkpt>
      <trkpt lat="43.54775" lon="2.00956">
        <ele>236.7</ele>
        <time>2022-03-08T13:48:02Z</time>
      </trkpt>
      <trkpt lat="43.54774" lon="2.00955">
        <ele>236.8</ele>
        <time>2022-03-08T13:48:03Z</time>
      </trkpt>
      <trkpt lat="43.54772" lon="2.00954">
        <ele>236.8</ele>
        <time>2022-03-08T13:48:04Z</time>
      </trkpt>
      <trkpt lat="43.54771" lon="2.00953">
        <ele>236.9</ele>
        <time>2022-03-08T13:48:05Z</time>
      </trkpt>
      <trkpt lat="43.5477" lon="2.00952">
        <ele>236.9</ele>
        <time>2022-03-08T13:48:06Z</time>
      </trkpt>
      <trkpt lat="43.54769" lon="2.00952">
        <ele>236.9</ele>
        <time>2022-03-08T13:48:07Z</time>
      </trkpt>
      <trkpt lat="43.54768" lon="2.00952">
        <ele>237</ele>
        <time>2022-03-08T13:48:08Z</time>
      </trkpt>
      <trkpt lat="43.54767" lon="2.00952">
        <ele>237</ele>
        <time>2022-03-08T13:48:09Z</time>
      </trkpt>
      <trkpt lat="43.54765" lon="2.00952">
        <ele>237.1</ele>
        <time>2022-03-08T13:48:10Z</time>
      </trkpt>
      <trkpt lat="43.54763" lon="2.00953">
        <ele>237.1</ele>
        <time>2022-03-08T13:48:12Z</time>
      </trkpt>
      <trkpt lat="43.54762" lon="2.00953">
        <ele>237.2</ele>
        <time>2022-03-08T13:48:13Z</time>
      </trkpt>
      <trkpt lat="43.54761" lon="2.00953">
        <ele>237.2</ele>
        <time>2022-03-08T13:48:14Z</time>
      </trkpt>
      <trkpt lat="43.5476" lon="2.00953">
        <ele>237.2</ele>
        <time>2022-03-08T13:48:15Z</time>
      </trkpt>
      <trkpt lat="43.54758" lon="2.00953">
        <ele>237.3</ele>
        <time>2022-03-08T13:48:16Z</time>
      </trkpt>
      <trkpt lat="43.54757" lon="2.00952">
        <ele>237.3</ele>
        <time>2022-03-08T13:48:17Z</time>
      </trkpt>
      <trkpt lat="43.54756" lon="2.00952">
        <ele>237.4</ele>
        <time>2022-03-08T13:48:19Z</time>
      </trkpt>
      <trkpt lat="43.54755" lon="2.00951">
        <ele>237.4</ele>
        <time>2022-03-08T13:48:20Z</time>
      </trkpt>
      <trkpt lat="43.54753" lon="2.00949">
        <ele>237.5</ele>
        <time>2022-03-08T13:48:21Z</time>
      </trkpt>
      <trkpt lat="43.54752" lon="2.00949">
        <ele>237.5</ele>
        <time>2022-03-08T13:48:22Z</time>
      </trkpt>
      <trkpt lat="43.54752" lon="2.00948">
        <ele>237.5</ele>
        <time>2022-03-08T13:48:23Z</time>
      </trkpt>
      <trkpt lat="43.5475" lon="2.00947">
        <ele>237.6</ele>
        <time>2022-03-08T13:48:24Z</time>
      </trkpt>
      <trkpt lat="43.54749" lon="2.00946">
        <ele>237.6</ele>
        <time>2022-03-08T13:48:25Z</time>
      </trkpt>
      <trkpt lat="43.54748" lon="2.00946">
        <ele>237.7</ele>
        <time>2022-03-08T13:48:26Z</time>
      </trkpt>
      <trkpt lat="43.54746" lon="2.00944">
        <ele>237.7</ele>
        <time>2022-03-08T13:48:27Z</time>
      </trkpt>
      <trkpt lat="43.54745" lon="2.00944">
        <ele>237.7</ele>
        <time>2022-03-08T13:48:28Z</time>
      </trkpt>
      <trkpt lat="43.54744" lon="2.00943">
        <ele>237.8</ele>
        <time>2022-03-08T13:48:29Z</time>
      </trkpt>
      <trkpt lat="43.54742" lon="2.00942">
        <ele>237.8</ele>
        <time>2022-03-08T13:48:30Z</time>
      </trkpt>
      <trkpt lat="43.54742" lon="2.00942">
        <ele>237.9</ele>
        <time>2022-03-08T13:48:31Z</time>
      </trkpt>
      <trkpt lat="43.54741" lon="2.00942">
        <ele>237.9</ele>
        <time>2022-03-08T13:48:32Z</time>
      </trkpt>
      <trkpt lat="43.54739" lon="2.00942">
        <ele>237.9</ele>
        <time>2022-03-08T13:48:33Z</time>
      </trkpt>
      <trkpt lat="43.54737" lon="2.00942">
        <ele>238</ele>
        <time>2022-03-08T13:48:34Z</time>
      </trkpt>
      <trkpt lat="43.54736" lon="2.00942">
        <ele>238</ele>
        <time>2022-03-08T13:48:35Z</time>
      </trkpt>
      <trkpt lat="43.54735" lon="2.00942">
        <ele>238</ele>
        <time>2022-03-08T13:48:36Z</time>
      </trkpt>
      <trkpt lat="43.54734" lon="2.00943">
        <ele>238.1</ele>
        <time>2022-03-08T13:48:38Z</time>
      </trkpt>
      <trkpt lat="43.54732" lon="2.00943">
        <ele>238.1</ele>
        <time>2022-03-08T13:48:39Z</time>
      </trkpt>
      <trkpt lat="43.54731" lon="2.00943">
        <ele>238.2</ele>
        <time>2022-03-08T13:48:40Z</time>
      </trkpt>
      <trkpt lat="43.54729" lon="2.00943">
        <ele>238.2</ele>
        <time>2022-03-08T13:48:41Z</time>
      </trkpt>
      <trkpt lat="43.54728" lon="2.00943">
        <ele>238.3</ele>
        <time>2022-03-08T13:48:42Z</time>
      </trkpt>
      <trkpt lat="43.54727" lon="2.00943">
        <ele>238.3</ele>
        <time>2022-03-08T13:48:43Z</time>
      </trkpt>
      <trkpt lat="43.54726" lon="2.00943">
        <ele>238.3</ele>
        <time>2022-03-08T13:48:44Z</time>
      </trkpt>
      <trkpt lat="43.54724" lon="2.00943">
        <ele>238.4</ele>
        <time>2022-03-08T13:48:46Z</time>
      </trkpt>
      <trkpt lat="43.54722" lon="2.00942">
        <ele>238.5</ele>
        <time>2022-03-08T13:48:47Z</time>
      </trkpt>
      <trkpt lat="43.54721" lon="2.00942">
        <ele>238.5</ele>
        <time>2022-03-08T13:48:48Z</time>
      </trkpt>
      <trkpt lat="43.5472" lon="2.00941">
        <ele>238.5</ele>
        <time>2022-03-08T13:48:49Z</time>
      </trkpt>
      <trkpt lat="43.54719" lon="2.0094">
        <ele>238.6</ele>
        <time>2022-03-08T13:48:50Z</time>
      </trkpt>
      <trkpt lat="43.54718" lon="2.0094">
        <ele>238.6</ele>
        <time>2022-03-08T13:48:51Z</time>
      </trkpt>
      <trkpt lat="43.54717" lon="2.00939">
        <ele>238.7</ele>
        <time>2022-03-08T13:48:52Z</time>
      </trkpt>
      <trkpt lat="43.54715" lon="2.00938">
        <ele>238.7</ele>
        <time>2022-03-08T13:48:54Z</time>
      </trkpt>
      <trkpt lat="43.54714" lon="2.00937">
        <ele>238.7</ele>
        <time>2022-03-08T13:48:55Z</time>
      </trkpt>
      <trkpt lat="43.54713" lon="2.00937">
        <ele>238.8</ele>
        <time>2022-03-08T13:48:56Z</time>
      </trkpt>
      <trkpt lat="43.54712" lon="2.00936">
        <ele>238.8</ele>
        <time>2022-03-08T13:48:57Z</time>
      </trkpt>
      <trkpt lat="43.54711" lon="2.00936">
        <ele>238.8</ele>
        <time>2022-03-08T13:48:58Z</time>
      </trkpt>
      <trkpt lat="43.5471" lon="2.00936">
        <ele>238.9</ele>
        <time>2022-03-08T13:48:59Z</time>
      </trkpt>
      <trkpt lat="43.54708" lon="2.00937">
        <ele>238.9</ele>
        <time>2022-03-08T13:49:00Z</time>
      </trkpt>
      <trkpt lat="43.54708" lon="2.00937">
        <ele>239</ele>
        <time>2022-03-08T13:49:01Z</time>
      </trkpt>
      <trkpt lat="43.54707" lon="2.00937">
        <ele>239</ele>
        <time>2022-03-08T13:49:02Z</time>
      </trkpt>
      <trkpt lat="43.54706" lon="2.00937">
        <ele>239</ele>
        <time>2022-03-08T13:49:03Z</time>
      </trkpt>
      <trkpt lat="43.54705" lon="2.00938">
        <ele>239</ele>
        <time>2022-03-08T13:49:04Z</time>
      </trkpt>
      <trkpt lat="43.54704" lon="2.00939">
        <ele>239.1</ele>
        <time>2022-03-08T13:49:05Z</time>
      </trkpt>
      <trkpt lat="43.54703" lon="2.00939">
        <ele>239.1</ele>
        <time>2022-03-08T13:49:06Z</time>
      </trkpt>
      <trkpt lat="43.54701" lon="2.00941">
        <ele>239.1</ele>
        <time>2022-03-08T13:49:07Z</time>
      </trkpt>
      <trkpt lat="43.54701" lon="2.00941">
        <ele>239.2</ele>
        <time>2022-03-08T13:49:09Z</time>
      </trkpt>
      <trkpt lat="43.547" lon="2.00942">
        <ele>239.2</ele>
        <time>2022-03-08T13:49:10Z</time>
      </trkpt>
      <trkpt lat="43.54698" lon="2.00943">
        <ele>239.2</ele>
        <time>2022-03-08T13:49:11Z</time>
      </trkpt>
      <trkpt lat="43.54698" lon="2.00943">
        <ele>239.2</ele>
        <time>2022-03-08T13:49:12Z</time>
      </trkpt>
      <trkpt lat="43.54697" lon="2.00944">
        <ele>239.2</ele>
        <time>2022-03-08T13:49:13Z</time>
      </trkpt>
      <trkpt lat="43.54695" lon="2.00944">
        <ele>239.3</ele>
        <time>2022-03-08T13:49:14Z</time>
      </trkpt>
      <trkpt lat="43.54695" lon="2.00944">
        <ele>239.3</ele>
        <time>2022-03-08T13:49:15Z</time>
      </trkpt>
      <trkpt lat="43.54694" lon="2.00945">
        <ele>239.3</ele>
        <time>2022-03-08T13:49:16Z</time>
      </trkpt>
      <trkpt lat="43.54693" lon="2.00945">
        <ele>239.3</ele>
        <time>2022-03-08T13:49:17Z</time>
      </trkpt>
      <trkpt lat="43.54692" lon="2.00945">
        <ele>239.3</ele>
        <time>2022-03-08T13:49:18Z</time>
      </trkpt>
      <trkpt lat="43.54691" lon="2.00945">
        <ele>239.3</ele>
        <time>2022-03-08T13:49:19Z</time>
      </trkpt>
      <trkpt lat="43.54691" lon="2.00945">
        <ele>239.3</ele>
        <time>2022-03-08T13:49:20Z</time>
      </trkpt>
      <trkpt lat="43.5469" lon="2.00945">
        <ele>239.3</ele>
        <time>2022-03-08T13:49:21Z</time>
      </trkpt>
      <trkpt lat="43.54689" lon="2.00945">
        <ele>239.3</ele>
        <time>2022-03-08T13:49:22Z</time>
      </trkpt>
      <trkpt lat="43.54687" lon="2.00946">
        <ele>239.3</ele>
        <time>2022-03-08T13:49:23Z</time>
      </trkpt>
      <trkpt lat="43.54686" lon="2.00946">
        <ele>239.3</ele>
        <time>2022-03-08T13:49:24Z</time>
      </trkpt>
      <trkpt lat="43.54685" lon="2.00945">
        <ele>239.3</ele>
        <time>2022-03-08T13:49:25Z</time>
      </trkpt>
      <trkpt lat="43.54684" lon="2.00945">
        <ele>239.3</ele>
        <time>2022-03-08T13:49:26Z</time>
      </trkpt>
      <trkpt lat="43.54683" lon="2.00945">
        <ele>239.3</ele>
        <time>2022-03-08T13:49:28Z</time>
      </trkpt>
      <trkpt lat="43.5468" lon="2.00946">
        <ele>239.3</ele>
        <time>2022-03-08T13:49:29Z</time>
      </trkpt>
      <trkpt lat="43.54679" lon="2.00947">
        <ele>239.3</ele>
        <time>2022-03-08T13:49:30Z</time>
      </trkpt>
      <trkpt lat="43.54679" lon="2.00947">
        <ele>239.3</ele>
        <time>2022-03-08T13:49:31Z</time>
      </trkpt>
      <trkpt lat="43.54677" lon="2.00948">
        <ele>239.3</ele>
        <time>2022-03-08T13:49:32Z</time>
      </trkpt>
      <trkpt lat="43.54676" lon="2.00949">
        <ele>239.3</ele>
        <time>2022-03-08T13:49:33Z</time>
      </trkpt>
      <trkpt lat="43.54675" lon="2.00949">
        <ele>239.3</ele>
        <time>2022-03-08T13:49:34Z</time>
      </trkpt>
      <trkpt lat="43.54674" lon="2.00951">
        <ele>239.3</ele>
        <time>2022-03-08T13:49:36Z</time>
      </trkpt>
      <trkpt lat="43.54673" lon="2.00953">
        <ele>239.3</ele>
        <time>2022-03-08T13:49:37Z</time>
      </trkpt>
      <trkpt lat="43.54672" lon="2.00954">
        <ele>239.3</ele>
        <time>2022-03-08T13:49:38Z</time>
      </trkpt>
      <trkpt lat="43.54671" lon="2.00955">
        <ele>239.3</ele>
        <time>2022-03-08T13:49:39Z</time>
      </trkpt>
      <trkpt lat="43.54671" lon="2.00956">
        <ele>239.3</ele>
        <time>2022-03-08T13:49:40Z</time>
      </trkpt>
      <trkpt lat="43.54669" lon="2.00957">
        <ele>239.1</ele>
        <time>2022-03-08T13:49:41Z</time>
      </trkpt>
      <trkpt lat="43.54669" lon="2.00958">
        <ele>239.1</ele>
        <time>2022-03-08T13:49:42Z</time>
      </trkpt>
      <trkpt lat="43.54668" lon="2.00958">
        <ele>239.1</ele>
        <time>2022-03-08T13:49:43Z</time>
      </trkpt>
      <trkpt lat="43.54667" lon="2.00958">
        <ele>239</ele>
        <time>2022-03-08T13:49:44Z</time>
      </trkpt>
      <trkpt lat="43.54665" lon="2.00958">
        <ele>239</ele>
        <time>2022-03-08T13:49:45Z</time>
      </trkpt>
      <trkpt lat="43.54664" lon="2.00959">
        <ele>238.9</ele>
        <time>2022-03-08T13:49:46Z</time>
      </trkpt>
      <trkpt lat="43.54663" lon="2.00959">
        <ele>238.9</ele>
        <time>2022-03-08T13:49:47Z</time>
      </trkpt>
      <trkpt lat="43.54662" lon="2.00959">
        <ele>238.9</ele>
        <time>2022-03-08T13:49:49Z</time>
      </trkpt>
      <trkpt lat="43.54661" lon="2.0096">
        <ele>238.8</ele>
        <time>2022-03-08T13:49:50Z</time>
      </trkpt>
      <trkpt lat="43.5466" lon="2.0096">
        <ele>238.8</ele>
        <time>2022-03-08T13:49:51Z</time>
      </trkpt>
      <trkpt lat="43.54658" lon="2.00961">
        <ele>238.8</ele>
        <time>2022-03-08T13:49:52Z</time>
      </trkpt>
      <trkpt lat="43.54657" lon="2.00962">
        <ele>238.7</ele>
        <time>2022-03-08T13:49:53Z</time>
      </trkpt>
      <trkpt lat="43.54656" lon="2.00965">
        <ele>238.7</ele>
        <time>2022-03-08T13:49:54Z</time>
      </trkpt>
      <trkpt lat="43.54656" lon="2.00966">
        <ele>238.7</ele>
        <time>2022-03-08T13:49:55Z</time>
      </trkpt>
      <trkpt lat="43.54655" lon="2.00967">
        <ele>238.7</ele>
        <time>2022-03-08T13:49:56Z</time>
      </trkpt>
      <trkpt lat="43.54655" lon="2.00969">
        <ele>238.6</ele>
        <time>2022-03-08T13:49:57Z</time>
      </trkpt>
      <trkpt lat="43.54654" lon="2.00971">
        <ele>238.6</ele>
        <time>2022-03-08T13:49:59Z</time>
      </trkpt>
      <trkpt lat="43.54654" lon="2.00973">
        <ele>238.6</ele>
        <time>2022-03-08T13:50:00Z</time>
      </trkpt>
      <trkpt lat="43.54653" lon="2.00974">
        <ele>238.6</ele>
        <time>2022-03-08T13:50:01Z</time>
      </trkpt>
      <trkpt lat="43.54653" lon="2.00976">
        <ele>238.6</ele>
        <time>2022-03-08T13:50:03Z</time>
      </trkpt>
      <trkpt lat="43.54653" lon="2.00978">
        <ele>238.6</ele>
        <time>2022-03-08T13:50:04Z</time>
      </trkpt>
      <trkpt lat="43.54652" lon="2.0098">
        <ele>238.6</ele>
        <time>2022-03-08T13:50:05Z</time>
      </trkpt>
      <trkpt lat="43.54652" lon="2.00981">
        <ele>238.5</ele>
        <time>2022-03-08T13:50:06Z</time>
      </trkpt>
      <trkpt lat="43.54652" lon="2.00983">
        <ele>238.5</ele>
        <time>2022-03-08T13:50:08Z</time>
      </trkpt>
      <trkpt lat="43.54652" lon="2.00984">
        <ele>238.5</ele>
        <time>2022-03-08T13:50:09Z</time>
      </trkpt>
      <trkpt lat="43.54651" lon="2.00985">
        <ele>238.5</ele>
        <time>2022-03-08T13:50:10Z</time>
      </trkpt>
      <trkpt lat="43.54651" lon="2.00987">
        <ele>238.5</ele>
        <time>2022-03-08T13:50:11Z</time>
      </trkpt>
      <trkpt lat="43.5465" lon="2.00987">
        <ele>238.5</ele>
        <time>2022-03-08T13:50:12Z</time>
      </trkpt>
      <trkpt lat="43.54649" lon="2.00987">
        <ele>238.5</ele>
        <time>2022-03-08T13:50:13Z</time>
      </trkpt>
      <trkpt lat="43.54649" lon="2.00988">
        <ele>238.5</ele>
        <time>2022-03-08T13:50:14Z</time>
      </trkpt>
      <trkpt lat="43.54648" lon="2.0099">
        <ele>238.5</ele>
        <time>2022-03-08T13:50:16Z</time>
      </trkpt>
      <trkpt lat="43.54647" lon="2.00991">
        <ele>238.5</ele>
        <time>2022-03-08T13:50:17Z</time>
      </trkpt>
      <trkpt lat="43.54645" lon="2.00992">
        <ele>238.4</ele>
        <time>2022-03-08T13:50:18Z</time>
      </trkpt>
      <trkpt lat="43.54644" lon="2.00993">
        <ele>238.4</ele>
        <time>2022-03-08T13:50:19Z</time>
      </trkpt>
      <trkpt lat="43.54643" lon="2.00993">
        <ele>238.4</ele>
        <time>2022-03-08T13:50:21Z</time>
      </trkpt>
      <trkpt lat="43.54642" lon="2.00994">
        <ele>238.4</ele>
        <time>2022-03-08T13:50:22Z</time>
      </trkpt>
      <trkpt lat="43.54641" lon="2.00994">
        <ele>238.4</ele>
        <time>2022-03-08T13:50:23Z</time>
      </trkpt>
      <trkpt lat="43.5464" lon="2.00994">
        <ele>238.4</ele>
        <time>2022-03-08T13:50:24Z</time>
      </trkpt>
      <trkpt lat="43.54639" lon="2.00996">
        <ele>238.4</ele>
        <time>2022-03-08T13:50:25Z</time>
      </trkpt>
      <trkpt lat="43.54638" lon="2.00996">
        <ele>238.4</ele>
        <time>2022-03-08T13:50:26Z</time>
      </trkpt>
      <trkpt lat="43.54635" lon="2.00999">
        <ele>238.4</ele>
        <time>2022-03-08T13:50:28Z</time>
      </trkpt>
      <trkpt lat="43.54634" lon="2.01">
        <ele>238.4</ele>
        <time>2022-03-08T13:50:29Z</time>
      </trkpt>
      <trkpt lat="43.54633" lon="2.01001">
        <ele>238.4</ele>
        <time>2022-03-08T13:50:31Z</time>
      </trkpt>
      <trkpt lat="43.54632" lon="2.01002">
        <ele>238.4</ele>
        <time>2022-03-08T13:50:32Z</time>
      </trkpt>
      <trkpt lat="43.54631" lon="2.01003">
        <ele>238.4</ele>
        <time>2022-03-08T13:50:33Z</time>
      </trkpt>
      <trkpt lat="43.5463" lon="2.01006">
        <ele>238.4</ele>
        <time>2022-03-08T13:50:34Z</time>
      </trkpt>
      <trkpt lat="43.54629" lon="2.01007">
        <ele>238.4</ele>
        <time>2022-03-08T13:50:35Z</time>
      </trkpt>
      <trkpt lat="43.54628" lon="2.01009">
        <ele>238.4</ele>
        <time>2022-03-08T13:50:37Z</time>
      </trkpt>
      <trkpt lat="43.54628" lon="2.01011">
        <ele>238.4</ele>
        <time>2022-03-08T13:50:38Z</time>
      </trkpt>
      <trkpt lat="43.54627" lon="2.01013">
        <ele>238.4</ele>
        <time>2022-03-08T13:50:39Z</time>
      </trkpt>
      <trkpt lat="43.54626" lon="2.01015">
        <ele>238.4</ele>
        <time>2022-03-08T13:50:40Z</time>
      </trkpt>
      <trkpt lat="43.54626" lon="2.01017">
        <ele>238.5</ele>
        <time>2022-03-08T13:50:41Z</time>
      </trkpt>
      <trkpt lat="43.54625" lon="2.01018">
        <ele>238.5</ele>
        <time>2022-03-08T13:50:42Z</time>
      </trkpt>
      <trkpt lat="43.54624" lon="2.0102">
        <ele>238.5</ele>
        <time>2022-03-08T13:50:43Z</time>
      </trkpt>
      <trkpt lat="43.54623" lon="2.01021">
        <ele>238.5</ele>
        <time>2022-03-08T13:50:44Z</time>
      </trkpt>
      <trkpt lat="43.5462" lon="2.01025">
        <ele>238.5</ele>
        <time>2022-03-08T13:50:46Z</time>
      </trkpt>
      <trkpt lat="43.54619" lon="2.01026">
        <ele>238.4</ele>
        <time>2022-03-08T13:50:47Z</time>
      </trkpt>
      <trkpt lat="43.54618" lon="2.01027">
        <ele>238.4</ele>
        <time>2022-03-08T13:50:48Z</time>
      </trkpt>
      <trkpt lat="43.54616" lon="2.0103">
        <ele>238.4</ele>
        <time>2022-03-08T13:50:50Z</time>
      </trkpt>
      <trkpt lat="43.54615" lon="2.01031">
        <ele>238.4</ele>
        <time>2022-03-08T13:50:51Z</time>
      </trkpt>
      <trkpt lat="43.54614" lon="2.01033">
        <ele>238.4</ele>
        <time>2022-03-08T13:50:53Z</time>
      </trkpt>
      <trkpt lat="43.54613" lon="2.01035">
        <ele>238.4</ele>
        <time>2022-03-08T13:50:54Z</time>
      </trkpt>
      <trkpt lat="43.54612" lon="2.01036">
        <ele>238.4</ele>
        <time>2022-03-08T13:50:55Z</time>
      </trkpt>
      <trkpt lat="43.54612" lon="2.01038">
        <ele>238.4</ele>
        <time>2022-03-08T13:50:56Z</time>
      </trkpt>
      <trkpt lat="43.5461" lon="2.01039">
        <ele>238.4</ele>
        <time>2022-03-08T13:50:57Z</time>
      </trkpt>
      <trkpt lat="43.54609" lon="2.01041">
        <ele>238.4</ele>
        <time>2022-03-08T13:50:58Z</time>
      </trkpt>
      <trkpt lat="43.54608" lon="2.01042">
        <ele>238.4</ele>
        <time>2022-03-08T13:50:59Z</time>
      </trkpt>
      <trkpt lat="43.54608" lon="2.01045">
        <ele>238.4</ele>
        <time>2022-03-08T13:51:00Z</time>
      </trkpt>
      <trkpt lat="43.54607" lon="2.01046">
        <ele>238.4</ele>
        <time>2022-03-08T13:51:01Z</time>
      </trkpt>
      <trkpt lat="43.54607" lon="2.01047">
        <ele>238.3</ele>
        <time>2022-03-08T13:51:02Z</time>
      </trkpt>
      <trkpt lat="43.54607" lon="2.01048">
        <ele>238.3</ele>
        <time>2022-03-08T13:51:03Z</time>
      </trkpt>
      <trkpt lat="43.54607" lon="2.0105">
        <ele>238.3</ele>
        <time>2022-03-08T13:51:04Z</time>
      </trkpt>
      <trkpt lat="43.54606" lon="2.01051">
        <ele>238.3</ele>
        <time>2022-03-08T13:51:05Z</time>
      </trkpt>
      <trkpt lat="43.54605" lon="2.01052">
        <ele>238.3</ele>
        <time>2022-03-08T13:51:06Z</time>
      </trkpt>
      <trkpt lat="43.54605" lon="2.01053">
        <ele>238.3</ele>
        <time>2022-03-08T13:51:07Z</time>
      </trkpt>
      <trkpt lat="43.54604" lon="2.01054">
        <ele>238.3</ele>
        <time>2022-03-08T13:51:08Z</time>
      </trkpt>
      <trkpt lat="43.54603" lon="2.01055">
        <ele>238.3</ele>
        <time>2022-03-08T13:51:09Z</time>
      </trkpt>
      <trkpt lat="43.54602" lon="2.01055">
        <ele>238.3</ele>
        <time>2022-03-08T13:51:10Z</time>
      </trkpt>
      <trkpt lat="43.546" lon="2.01056">
        <ele>238.3</ele>
        <time>2022-03-08T13:51:11Z</time>
      </trkpt>
      <trkpt lat="43.54599" lon="2.01057">
        <ele>238.3</ele>
        <time>2022-03-08T13:51:12Z</time>
      </trkpt>
      <trkpt lat="43.54598" lon="2.01057">
        <ele>238.3</ele>
        <time>2022-03-08T13:51:13Z</time>
      </trkpt>
      <trkpt lat="43.54595" lon="2.01061">
        <ele>238.3</ele>
        <time>2022-03-08T13:51:15Z</time>
      </trkpt>
      <trkpt lat="43.54595" lon="2.01062">
        <ele>238.3</ele>
        <time>2022-03-08T13:51:16Z</time>
      </trkpt>
      <trkpt lat="43.54594" lon="2.01064">
        <ele>238.3</ele>
        <time>2022-03-08T13:51:17Z</time>
      </trkpt>
      <trkpt lat="43.54594" lon="2.01065">
        <ele>238.3</ele>
        <time>2022-03-08T13:51:18Z</time>
      </trkpt>
      <trkpt lat="43.54593" lon="2.01067">
        <ele>238.3</ele>
        <time>2022-03-08T13:51:19Z</time>
      </trkpt>
      <trkpt lat="43.54592" lon="2.01072">
        <ele>238.3</ele>
        <time>2022-03-08T13:51:21Z</time>
      </trkpt>
      <trkpt lat="43.54591" lon="2.01074">
        <ele>238.3</ele>
        <time>2022-03-08T13:51:22Z</time>
      </trkpt>
      <trkpt lat="43.5459" lon="2.01076">
        <ele>238.2</ele>
        <time>2022-03-08T13:51:23Z</time>
      </trkpt>
      <trkpt lat="43.54589" lon="2.01078">
        <ele>238.2</ele>
        <time>2022-03-08T13:51:24Z</time>
      </trkpt>
      <trkpt lat="43.54588" lon="2.01079">
        <ele>238.2</ele>
        <time>2022-03-08T13:51:25Z</time>
      </trkpt>
      <trkpt lat="43.54586" lon="2.01081">
        <ele>238.2</ele>
        <time>2022-03-08T13:51:27Z</time>
      </trkpt>
      <trkpt lat="43.54585" lon="2.01081">
        <ele>238.2</ele>
        <time>2022-03-08T13:51:28Z</time>
      </trkpt>
      <trkpt lat="43.54585" lon="2.01082">
        <ele>238.2</ele>
        <time>2022-03-08T13:51:29Z</time>
      </trkpt>
      <trkpt lat="43.54584" lon="2.01084">
        <ele>238.1</ele>
        <time>2022-03-08T13:51:30Z</time>
      </trkpt>
      <trkpt lat="43.54583" lon="2.01086">
        <ele>238.1</ele>
        <time>2022-03-08T13:51:31Z</time>
      </trkpt>
      <trkpt lat="43.54581" lon="2.0109">
        <ele>238.1</ele>
        <time>2022-03-08T13:51:32Z</time>
      </trkpt>
      <trkpt lat="43.54581" lon="2.01091">
        <ele>238</ele>
        <time>2022-03-08T13:51:33Z</time>
      </trkpt>
      <trkpt lat="43.5458" lon="2.01093">
        <ele>238</ele>
        <time>2022-03-08T13:51:35Z</time>
      </trkpt>
      <trkpt lat="43.5458" lon="2.01095">
        <ele>238</ele>
        <time>2022-03-08T13:51:36Z</time>
      </trkpt>
      <trkpt lat="43.54579" lon="2.01097">
        <ele>237.9</ele>
        <time>2022-03-08T13:51:37Z</time>
      </trkpt>
      <trkpt lat="43.54578" lon="2.01099">
        <ele>237.9</ele>
        <time>2022-03-08T13:51:38Z</time>
      </trkpt>
      <trkpt lat="43.54577" lon="2.011">
        <ele>237.9</ele>
        <time>2022-03-08T13:51:39Z</time>
      </trkpt>
      <trkpt lat="43.54576" lon="2.01102">
        <ele>237.8</ele>
        <time>2022-03-08T13:51:40Z</time>
      </trkpt>
      <trkpt lat="43.54574" lon="2.01103">
        <ele>237.8</ele>
        <time>2022-03-08T13:51:41Z</time>
      </trkpt>
      <trkpt lat="43.54573" lon="2.01104">
        <ele>237.7</ele>
        <time>2022-03-08T13:51:43Z</time>
      </trkpt>
      <trkpt lat="43.54571" lon="2.01106">
        <ele>237.6</ele>
        <time>2022-03-08T13:51:45Z</time>
      </trkpt>
      <trkpt lat="43.5457" lon="2.01107">
        <ele>237.6</ele>
        <time>2022-03-08T13:51:46Z</time>
      </trkpt>
      <trkpt lat="43.54568" lon="2.01109">
        <ele>237.5</ele>
        <time>2022-03-08T13:51:47Z</time>
      </trkpt>
      <trkpt lat="43.54567" lon="2.0111">
        <ele>237.5</ele>
        <time>2022-03-08T13:51:48Z</time>
      </trkpt>
      <trkpt lat="43.54566" lon="2.01112">
        <ele>237.4</ele>
        <time>2022-03-08T13:51:50Z</time>
      </trkpt>
      <trkpt lat="43.54565" lon="2.01113">
        <ele>237.4</ele>
        <time>2022-03-08T13:51:51Z</time>
      </trkpt>
      <trkpt lat="43.54564" lon="2.01115">
        <ele>237.4</ele>
        <time>2022-03-08T13:51:52Z</time>
      </trkpt>
      <trkpt lat="43.54563" lon="2.01117">
        <ele>237.3</ele>
        <time>2022-03-08T13:51:53Z</time>
      </trkpt>
      <trkpt lat="43.54562" lon="2.01118">
        <ele>237.3</ele>
        <time>2022-03-08T13:51:54Z</time>
      </trkpt>
      <trkpt lat="43.54561" lon="2.01119">
        <ele>237.3</ele>
        <time>2022-03-08T13:51:55Z</time>
      </trkpt>
      <trkpt lat="43.5456" lon="2.0112">
        <ele>237.3</ele>
        <time>2022-03-08T13:51:56Z</time>
      </trkpt>
      <trkpt lat="43.54558" lon="2.0112">
        <ele>237.2</ele>
        <time>2022-03-08T13:51:58Z</time>
      </trkpt>
      <trkpt lat="43.54556" lon="2.01119">
        <ele>237.2</ele>
        <time>2022-03-08T13:51:59Z</time>
      </trkpt>
      <trkpt lat="43.54555" lon="2.01119">
        <ele>237.2</ele>
        <time>2022-03-08T13:52:00Z</time>
      </trkpt>
      <trkpt lat="43.54553" lon="2.01119">
        <ele>237.1</ele>
        <time>2022-03-08T13:52:01Z</time>
      </trkpt>
      <trkpt lat="43.5455" lon="2.0112">
        <ele>237.1</ele>
        <time>2022-03-08T13:52:03Z</time>
      </trkpt>
      <trkpt lat="43.54549" lon="2.0112">
        <ele>237.1</ele>
        <time>2022-03-08T13:52:04Z</time>
      </trkpt>
      <trkpt lat="43.54547" lon="2.01121">
        <ele>237.1</ele>
        <time>2022-03-08T13:52:05Z</time>
      </trkpt>
      <trkpt lat="43.54546" lon="2.01122">
        <ele>237</ele>
        <time>2022-03-08T13:52:06Z</time>
      </trkpt>
      <trkpt lat="43.54545" lon="2.01123">
        <ele>237</ele>
        <time>2022-03-08T13:52:07Z</time>
      </trkpt>
      <trkpt lat="43.54543" lon="2.01124">
        <ele>237</ele>
        <time>2022-03-08T13:52:08Z</time>
      </trkpt>
      <trkpt lat="43.54542" lon="2.01126">
        <ele>236.9</ele>
        <time>2022-03-08T13:52:09Z</time>
      </trkpt>
      <trkpt lat="43.54541" lon="2.01128">
        <ele>236.9</ele>
        <time>2022-03-08T13:52:10Z</time>
      </trkpt>
      <trkpt lat="43.5454" lon="2.01129">
        <ele>236.9</ele>
        <time>2022-03-08T13:52:11Z</time>
      </trkpt>
      <trkpt lat="43.54539" lon="2.01132">
        <ele>236.8</ele>
        <time>2022-03-08T13:52:12Z</time>
      </trkpt>
      <trkpt lat="43.54538" lon="2.01133">
        <ele>236.8</ele>
        <time>2022-03-08T13:52:13Z</time>
      </trkpt>
      <trkpt lat="43.54538" lon="2.01133">
        <ele>236.8</ele>
        <time>2022-03-08T13:52:14Z</time>
      </trkpt>
      <trkpt lat="43.54536" lon="2.01135">
        <ele>236.8</ele>
        <time>2022-03-08T13:52:15Z</time>
      </trkpt>
      <trkpt lat="43.54535" lon="2.01136">
        <ele>236.7</ele>
        <time>2022-03-08T13:52:16Z</time>
      </trkpt>
      <trkpt lat="43.54535" lon="2.01136">
        <ele>236.7</ele>
        <time>2022-03-08T13:52:17Z</time>
      </trkpt>
      <trkpt lat="43.54532" lon="2.01138">
        <ele>236.6</ele>
        <time>2022-03-08T13:52:19Z</time>
      </trkpt>
      <trkpt lat="43.54531" lon="2.01137">
        <ele>236.6</ele>
        <time>2022-03-08T13:52:20Z</time>
      </trkpt>
      <trkpt lat="43.5453" lon="2.01136">
        <ele>236.6</ele>
        <time>2022-03-08T13:52:21Z</time>
      </trkpt>
      <trkpt lat="43.54529" lon="2.01137">
        <ele>236.5</ele>
        <time>2022-03-08T13:52:23Z</time>
      </trkpt>
      <trkpt lat="43.54528" lon="2.01137">
        <ele>236.5</ele>
        <time>2022-03-08T13:52:24Z</time>
      </trkpt>
      <trkpt lat="43.54527" lon="2.01138">
        <ele>236.5</ele>
        <time>2022-03-08T13:52:25Z</time>
      </trkpt>
      <trkpt lat="43.54526" lon="2.01139">
        <ele>236.5</ele>
        <time>2022-03-08T13:52:26Z</time>
      </trkpt>
      <trkpt lat="43.54525" lon="2.0114">
        <ele>236.4</ele>
        <time>2022-03-08T13:52:27Z</time>
      </trkpt>
      <trkpt lat="43.54525" lon="2.01141">
        <ele>236.4</ele>
        <time>2022-03-08T13:52:28Z</time>
      </trkpt>
      <trkpt lat="43.54524" lon="2.01143">
        <ele>236.4</ele>
        <time>2022-03-08T13:52:29Z</time>
      </trkpt>
      <trkpt lat="43.54524" lon="2.01144">
        <ele>236.3</ele>
        <time>2022-03-08T13:52:30Z</time>
      </trkpt>
      <trkpt lat="43.54524" lon="2.01145">
        <ele>236.3</ele>
        <time>2022-03-08T13:52:32Z</time>
      </trkpt>
      <trkpt lat="43.54524" lon="2.01146">
        <ele>236.3</ele>
        <time>2022-03-08T13:52:33Z</time>
      </trkpt>
      <trkpt lat="43.54525" lon="2.01146">
        <ele>236.3</ele>
        <time>2022-03-08T13:52:34Z</time>
      </trkpt>
      <trkpt lat="43.54525" lon="2.01145">
        <ele>236.3</ele>
        <time>2022-03-08T13:52:35Z</time>
      </trkpt>
      <trkpt lat="43.54525" lon="2.01145">
        <ele>236.2</ele>
        <time>2022-03-08T13:52:36Z</time>
      </trkpt>
      <trkpt lat="43.54525" lon="2.01145">
        <ele>236.2</ele>
        <time>2022-03-08T13:52:37Z</time>
      </trkpt>
      <trkpt lat="43.54525" lon="2.01146">
        <ele>236.2</ele>
        <time>2022-03-08T13:52:38Z</time>
      </trkpt>
      <trkpt lat="43.54523" lon="2.01147">
        <ele>236.2</ele>
        <time>2022-03-08T13:52:39Z</time>
      </trkpt>
      <trkpt lat="43.54523" lon="2.01148">
        <ele>236.1</ele>
        <time>2022-03-08T13:52:40Z</time>
      </trkpt>
      <trkpt lat="43.54522" lon="2.01149">
        <ele>236.1</ele>
        <time>2022-03-08T13:52:41Z</time>
      </trkpt>
      <trkpt lat="43.54521" lon="2.01149">
        <ele>236.1</ele>
        <time>2022-03-08T13:52:42Z</time>
      </trkpt>
      <trkpt lat="43.5452" lon="2.0115">
        <ele>236.1</ele>
        <time>2022-03-08T13:52:43Z</time>
      </trkpt>
      <trkpt lat="43.5452" lon="2.0115">
        <ele>236.1</ele>
        <time>2022-03-08T13:52:44Z</time>
      </trkpt>
      <trkpt lat="43.54519" lon="2.01151">
        <ele>236</ele>
        <time>2022-03-08T13:52:45Z</time>
      </trkpt>
      <trkpt lat="43.54518" lon="2.01154">
        <ele>236</ele>
        <time>2022-03-08T13:52:47Z</time>
      </trkpt>
      <trkpt lat="43.54517" lon="2.01156">
        <ele>236</ele>
        <time>2022-03-08T13:52:48Z</time>
      </trkpt>
      <trkpt lat="43.54516" lon="2.01158">
        <ele>235.9</ele>
        <time>2022-03-08T13:52:49Z</time>
      </trkpt>
      <trkpt lat="43.54515" lon="2.0116">
        <ele>235.9</ele>
        <time>2022-03-08T13:52:50Z</time>
      </trkpt>
      <trkpt lat="43.54512" lon="2.01164">
        <ele>235.8</ele>
        <time>2022-03-08T13:52:52Z</time>
      </trkpt>
      <trkpt lat="43.54511" lon="2.01165">
        <ele>235.7</ele>
        <time>2022-03-08T13:52:53Z</time>
      </trkpt>
      <trkpt lat="43.5451" lon="2.01167">
        <ele>235.7</ele>
        <time>2022-03-08T13:52:54Z</time>
      </trkpt>
      <trkpt lat="43.54507" lon="2.01169">
        <ele>235.7</ele>
        <time>2022-03-08T13:52:55Z</time>
      </trkpt>
      <trkpt lat="43.54506" lon="2.0117">
        <ele>235.7</ele>
        <time>2022-03-08T13:52:56Z</time>
      </trkpt>
      <trkpt lat="43.54504" lon="2.01172">
        <ele>235.6</ele>
        <time>2022-03-08T13:52:57Z</time>
      </trkpt>
      <trkpt lat="43.54503" lon="2.01172">
        <ele>235.6</ele>
        <time>2022-03-08T13:52:58Z</time>
      </trkpt>
      <trkpt lat="43.54502" lon="2.01173">
        <ele>235.6</ele>
        <time>2022-03-08T13:52:59Z</time>
      </trkpt>
      <trkpt lat="43.54501" lon="2.01174">
        <ele>235.6</ele>
        <time>2022-03-08T13:53:00Z</time>
      </trkpt>
      <trkpt lat="43.54499" lon="2.01176">
        <ele>235.5</ele>
        <time>2022-03-08T13:53:02Z</time>
      </trkpt>
      <trkpt lat="43.54498" lon="2.01178">
        <ele>235.5</ele>
        <time>2022-03-08T13:53:03Z</time>
      </trkpt>
      <trkpt lat="43.54497" lon="2.0118">
        <ele>235.5</ele>
        <time>2022-03-08T13:53:04Z</time>
      </trkpt>
      <trkpt lat="43.54497" lon="2.01182">
        <ele>235.4</ele>
        <time>2022-03-08T13:53:05Z</time>
      </trkpt>
      <trkpt lat="43.54496" lon="2.01183">
        <ele>235.4</ele>
        <time>2022-03-08T13:53:06Z</time>
      </trkpt>
      <trkpt lat="43.54495" lon="2.01185">
        <ele>235.4</ele>
        <time>2022-03-08T13:53:07Z</time>
      </trkpt>
      <trkpt lat="43.54494" lon="2.01187">
        <ele>235.3</ele>
        <time>2022-03-08T13:53:08Z</time>
      </trkpt>
      <trkpt lat="43.54494" lon="2.01188">
        <ele>235.3</ele>
        <time>2022-03-08T13:53:09Z</time>
      </trkpt>
      <trkpt lat="43.54493" lon="2.01189">
        <ele>235.3</ele>
        <time>2022-03-08T13:53:10Z</time>
      </trkpt>
      <trkpt lat="43.54492" lon="2.01189">
        <ele>235.3</ele>
        <time>2022-03-08T13:53:11Z</time>
      </trkpt>
      <trkpt lat="43.54491" lon="2.0119">
        <ele>235.3</ele>
        <time>2022-03-08T13:53:12Z</time>
      </trkpt>
      <trkpt lat="43.5449" lon="2.01191">
        <ele>235.3</ele>
        <time>2022-03-08T13:53:13Z</time>
      </trkpt>
      <trkpt lat="43.5449" lon="2.01191">
        <ele>235.3</ele>
        <time>2022-03-08T13:53:14Z</time>
      </trkpt>
      <trkpt lat="43.54489" lon="2.01191">
        <ele>235.3</ele>
        <time>2022-03-08T13:53:15Z</time>
      </trkpt>
      <trkpt lat="43.54489" lon="2.01191">
        <ele>235.3</ele>
        <time>2022-03-08T13:53:16Z</time>
      </trkpt>
      <trkpt lat="43.54488" lon="2.01191">
        <ele>235.2</ele>
        <time>2022-03-08T13:53:17Z</time>
      </trkpt>
      <trkpt lat="43.54488" lon="2.01191">
        <ele>235.2</ele>
        <time>2022-03-08T13:53:18Z</time>
      </trkpt>
      <trkpt lat="43.54486" lon="2.01192">
        <ele>235.2</ele>
        <time>2022-03-08T13:53:20Z</time>
      </trkpt>
      <trkpt lat="43.54485" lon="2.01193">
        <ele>235.2</ele>
        <time>2022-03-08T13:53:21Z</time>
      </trkpt>
      <trkpt lat="43.54483" lon="2.01194">
        <ele>235.2</ele>
        <time>2022-03-08T13:53:22Z</time>
      </trkpt>
      <trkpt lat="43.54482" lon="2.01195">
        <ele>235.2</ele>
        <time>2022-03-08T13:53:23Z</time>
      </trkpt>
      <trkpt lat="43.54479" lon="2.01196">
        <ele>235.1</ele>
        <time>2022-03-08T13:53:24Z</time>
      </trkpt>
      <trkpt lat="43.54478" lon="2.01197">
        <ele>235.1</ele>
        <time>2022-03-08T13:53:25Z</time>
      </trkpt>
      <trkpt lat="43.54475" lon="2.012">
        <ele>235</ele>
        <time>2022-03-08T13:53:27Z</time>
      </trkpt>
      <trkpt lat="43.54474" lon="2.01201">
        <ele>235</ele>
        <time>2022-03-08T13:53:28Z</time>
      </trkpt>
      <trkpt lat="43.54473" lon="2.01202">
        <ele>234.9</ele>
        <time>2022-03-08T13:53:29Z</time>
      </trkpt>
      <trkpt lat="43.54472" lon="2.01203">
        <ele>234.9</ele>
        <time>2022-03-08T13:53:30Z</time>
      </trkpt>
      <trkpt lat="43.54471" lon="2.01205">
        <ele>234.8</ele>
        <time>2022-03-08T13:53:31Z</time>
      </trkpt>
      <trkpt lat="43.5447" lon="2.01206">
        <ele>234.8</ele>
        <time>2022-03-08T13:53:32Z</time>
      </trkpt>
      <trkpt lat="43.54469" lon="2.01207">
        <ele>234.7</ele>
        <time>2022-03-08T13:53:33Z</time>
      </trkpt>
      <trkpt lat="43.54469" lon="2.01208">
        <ele>234.7</ele>
        <time>2022-03-08T13:53:34Z</time>
      </trkpt>
      <trkpt lat="43.54468" lon="2.01208">
        <ele>234.6</ele>
        <time>2022-03-08T13:53:35Z</time>
      </trkpt>
      <trkpt lat="43.54466" lon="2.01209">
        <ele>234.6</ele>
        <time>2022-03-08T13:53:36Z</time>
      </trkpt>
      <trkpt lat="43.54465" lon="2.01209">
        <ele>234.5</ele>
        <time>2022-03-08T13:53:37Z</time>
      </trkpt>
      <trkpt lat="43.54463" lon="2.01211">
        <ele>234.4</ele>
        <time>2022-03-08T13:53:39Z</time>
      </trkpt>
      <trkpt lat="43.54461" lon="2.01211">
        <ele>234.4</ele>
        <time>2022-03-08T13:53:41Z</time>
      </trkpt>
      <trkpt lat="43.5446" lon="2.01211">
        <ele>234.3</ele>
        <time>2022-03-08T13:53:42Z</time>
      </trkpt>
      <trkpt lat="43.54458" lon="2.01211">
        <ele>234.2</ele>
        <time>2022-03-08T13:53:43Z</time>
      </trkpt>
      <trkpt lat="43.54457" lon="2.01212">
        <ele>234.2</ele>
        <time>2022-03-08T13:53:44Z</time>
      </trkpt>
      <trkpt lat="43.54456" lon="2.01212">
        <ele>234.1</ele>
        <time>2022-03-08T13:53:45Z</time>
      </trkpt>
      <trkpt lat="43.54455" lon="2.01213">
        <ele>234.1</ele>
        <time>2022-03-08T13:53:46Z</time>
      </trkpt>
      <trkpt lat="43.54454" lon="2.01214">
        <ele>234.1</ele>
        <time>2022-03-08T13:53:47Z</time>
      </trkpt>
      <trkpt lat="43.54453" lon="2.01215">
        <ele>234</ele>
        <time>2022-03-08T13:53:48Z</time>
      </trkpt>
      <trkpt lat="43.54452" lon="2.01216">
        <ele>234</ele>
        <time>2022-03-08T13:53:49Z</time>
      </trkpt>
      <trkpt lat="43.54451" lon="2.01218">
        <ele>233.9</ele>
        <time>2022-03-08T13:53:51Z</time>
      </trkpt>
      <trkpt lat="43.54451" lon="2.01219">
        <ele>233.9</ele>
        <time>2022-03-08T13:53:52Z</time>
      </trkpt>
      <trkpt lat="43.5445" lon="2.0122">
        <ele>233.8</ele>
        <time>2022-03-08T13:53:53Z</time>
      </trkpt>
      <trkpt lat="43.54449" lon="2.01222">
        <ele>233.8</ele>
        <time>2022-03-08T13:53:54Z</time>
      </trkpt>
      <trkpt lat="43.54448" lon="2.01224">
        <ele>233.7</ele>
        <time>2022-03-08T13:53:55Z</time>
      </trkpt>
      <trkpt lat="43.54447" lon="2.01225">
        <ele>233.7</ele>
        <time>2022-03-08T13:53:56Z</time>
      </trkpt>
      <trkpt lat="43.54447" lon="2.01226">
        <ele>233.6</ele>
        <time>2022-03-08T13:53:57Z</time>
      </trkpt>
      <trkpt lat="43.54446" lon="2.01227">
        <ele>233.6</ele>
        <time>2022-03-08T13:53:58Z</time>
      </trkpt>
      <trkpt lat="43.54445" lon="2.01228">
        <ele>233.5</ele>
        <time>2022-03-08T13:53:59Z</time>
      </trkpt>
      <trkpt lat="43.54443" lon="2.01229">
        <ele>233.5</ele>
        <time>2022-03-08T13:54:01Z</time>
      </trkpt>
      <trkpt lat="43.54442" lon="2.01229">
        <ele>233.4</ele>
        <time>2022-03-08T13:54:02Z</time>
      </trkpt>
      <trkpt lat="43.54441" lon="2.0123">
        <ele>233.4</ele>
        <time>2022-03-08T13:54:03Z</time>
      </trkpt>
      <trkpt lat="43.54441" lon="2.0123">
        <ele>233.4</ele>
        <time>2022-03-08T13:54:04Z</time>
      </trkpt>
      <trkpt lat="43.5444" lon="2.0123">
        <ele>233.3</ele>
        <time>2022-03-08T13:54:05Z</time>
      </trkpt>
      <trkpt lat="43.54439" lon="2.01231">
        <ele>233.3</ele>
        <time>2022-03-08T13:54:06Z</time>
      </trkpt>
      <trkpt lat="43.54438" lon="2.01232">
        <ele>233.3</ele>
        <time>2022-03-08T13:54:07Z</time>
      </trkpt>
      <trkpt lat="43.54437" lon="2.01233">
        <ele>233.2</ele>
        <time>2022-03-08T13:54:08Z</time>
      </trkpt>
      <trkpt lat="43.54436" lon="2.01234">
        <ele>233.2</ele>
        <time>2022-03-08T13:54:09Z</time>
      </trkpt>
      <trkpt lat="43.54435" lon="2.01234">
        <ele>233.2</ele>
        <time>2022-03-08T13:54:10Z</time>
      </trkpt>
      <trkpt lat="43.54433" lon="2.01236">
        <ele>233.1</ele>
        <time>2022-03-08T13:54:12Z</time>
      </trkpt>
      <trkpt lat="43.54433" lon="2.01236">
        <ele>233.1</ele>
        <time>2022-03-08T13:54:13Z</time>
      </trkpt>
      <trkpt lat="43.54432" lon="2.01237">
        <ele>233.1</ele>
        <time>2022-03-08T13:54:15Z</time>
      </trkpt>
      <trkpt lat="43.54431" lon="2.01237">
        <ele>233.1</ele>
        <time>2022-03-08T13:54:16Z</time>
      </trkpt>
      <trkpt lat="43.54431" lon="2.01238">
        <ele>233.1</ele>
        <time>2022-03-08T13:54:17Z</time>
      </trkpt>
      <trkpt lat="43.54429" lon="2.0124">
        <ele>233</ele>
        <time>2022-03-08T13:54:18Z</time>
      </trkpt>
      <trkpt lat="43.54428" lon="2.0124">
        <ele>233</ele>
        <time>2022-03-08T13:54:19Z</time>
      </trkpt>
      <trkpt lat="43.54427" lon="2.01241">
        <ele>233</ele>
        <time>2022-03-08T13:54:20Z</time>
      </trkpt>
      <trkpt lat="43.54426" lon="2.01242">
        <ele>233</ele>
        <time>2022-03-08T13:54:21Z</time>
      </trkpt>
      <trkpt lat="43.54425" lon="2.01242">
        <ele>232.9</ele>
        <time>2022-03-08T13:54:22Z</time>
      </trkpt>
      <trkpt lat="43.54424" lon="2.01243">
        <ele>232.9</ele>
        <time>2022-03-08T13:54:23Z</time>
      </trkpt>
      <trkpt lat="43.54422" lon="2.01244">
        <ele>232.9</ele>
        <time>2022-03-08T13:54:25Z</time>
      </trkpt>
      <trkpt lat="43.5442" lon="2.01245">
        <ele>232.9</ele>
        <time>2022-03-08T13:54:26Z</time>
      </trkpt>
      <trkpt lat="43.5442" lon="2.01246">
        <ele>232.8</ele>
        <time>2022-03-08T13:54:27Z</time>
      </trkpt>
      <trkpt lat="43.54419" lon="2.01247">
        <ele>232.8</ele>
        <time>2022-03-08T13:54:28Z</time>
      </trkpt>
      <trkpt lat="43.54418" lon="2.01248">
        <ele>232.8</ele>
        <time>2022-03-08T13:54:29Z</time>
      </trkpt>
      <trkpt lat="43.54417" lon="2.0125">
        <ele>232.8</ele>
        <time>2022-03-08T13:54:30Z</time>
      </trkpt>
      <trkpt lat="43.54416" lon="2.01252">
        <ele>232.8</ele>
        <time>2022-03-08T13:54:32Z</time>
      </trkpt>
      <trkpt lat="43.54415" lon="2.01254">
        <ele>232.7</ele>
        <time>2022-03-08T13:54:33Z</time>
      </trkpt>
      <trkpt lat="43.54414" lon="2.01256">
        <ele>232.7</ele>
        <time>2022-03-08T13:54:34Z</time>
      </trkpt>
      <trkpt lat="43.54413" lon="2.01258">
        <ele>232.7</ele>
        <time>2022-03-08T13:54:35Z</time>
      </trkpt>
      <trkpt lat="43.54412" lon="2.01261">
        <ele>232.7</ele>
        <time>2022-03-08T13:54:36Z</time>
      </trkpt>
      <trkpt lat="43.5441" lon="2.01264">
        <ele>232.7</ele>
        <time>2022-03-08T13:54:37Z</time>
      </trkpt>
      <trkpt lat="43.54409" lon="2.01265">
        <ele>232.6</ele>
        <time>2022-03-08T13:54:38Z</time>
      </trkpt>
      <trkpt lat="43.54407" lon="2.01267">
        <ele>232.6</ele>
        <time>2022-03-08T13:54:39Z</time>
      </trkpt>
      <trkpt lat="43.54406" lon="2.01268">
        <ele>232.6</ele>
        <time>2022-03-08T13:54:41Z</time>
      </trkpt>
      <trkpt lat="43.54403" lon="2.0127">
        <ele>232.6</ele>
        <time>2022-03-08T13:54:42Z</time>
      </trkpt>
      <trkpt lat="43.54403" lon="2.01271">
        <ele>232.6</ele>
        <time>2022-03-08T13:54:43Z</time>
      </trkpt>
      <trkpt lat="43.54401" lon="2.01272">
        <ele>232.6</ele>
        <time>2022-03-08T13:54:44Z</time>
      </trkpt>
      <trkpt lat="43.544" lon="2.01273">
        <ele>232.6</ele>
        <time>2022-03-08T13:54:45Z</time>
      </trkpt>
      <trkpt lat="43.54399" lon="2.01274">
        <ele>232.6</ele>
        <time>2022-03-08T13:54:46Z</time>
      </trkpt>
      <trkpt lat="43.54398" lon="2.01275">
        <ele>232.5</ele>
        <time>2022-03-08T13:54:47Z</time>
      </trkpt>
      <trkpt lat="43.54396" lon="2.01276">
        <ele>232.5</ele>
        <time>2022-03-08T13:54:49Z</time>
      </trkpt>
      <trkpt lat="43.54395" lon="2.01277">
        <ele>232.5</ele>
        <time>2022-03-08T13:54:50Z</time>
      </trkpt>
      <trkpt lat="43.54394" lon="2.01277">
        <ele>232.5</ele>
        <time>2022-03-08T13:54:51Z</time>
      </trkpt>
      <trkpt lat="43.54393" lon="2.01277">
        <ele>232.5</ele>
        <time>2022-03-08T13:54:52Z</time>
      </trkpt>
      <trkpt lat="43.54391" lon="2.01278">
        <ele>232.5</ele>
        <time>2022-03-08T13:54:53Z</time>
      </trkpt>
      <trkpt lat="43.5439" lon="2.01279">
        <ele>232.5</ele>
        <time>2022-03-08T13:54:54Z</time>
      </trkpt>
      <trkpt lat="43.54389" lon="2.01279">
        <ele>232.4</ele>
        <time>2022-03-08T13:54:55Z</time>
      </trkpt>
      <trkpt lat="43.54388" lon="2.0128">
        <ele>232.4</ele>
        <time>2022-03-08T13:54:57Z</time>
      </trkpt>
      <trkpt lat="43.54387" lon="2.01281">
        <ele>232.4</ele>
        <time>2022-03-08T13:54:58Z</time>
      </trkpt>
      <trkpt lat="43.54386" lon="2.01281">
        <ele>232.4</ele>
        <time>2022-03-08T13:54:59Z</time>
      </trkpt>
      <trkpt lat="43.54385" lon="2.01281">
        <ele>232.4</ele>
        <time>2022-03-08T13:55:00Z</time>
      </trkpt>
      <trkpt lat="43.54384" lon="2.01282">
        <ele>232.4</ele>
        <time>2022-03-08T13:55:01Z</time>
      </trkpt>
      <trkpt lat="43.54382" lon="2.01283">
        <ele>232.3</ele>
        <time>2022-03-08T13:55:03Z</time>
      </trkpt>
      <trkpt lat="43.54381" lon="2.01284">
        <ele>232.3</ele>
        <time>2022-03-08T13:55:04Z</time>
      </trkpt>
      <trkpt lat="43.54381" lon="2.01285">
        <ele>232.3</ele>
        <time>2022-03-08T13:55:05Z</time>
      </trkpt>
      <trkpt lat="43.5438" lon="2.01286">
        <ele>232.3</ele>
        <time>2022-03-08T13:55:06Z</time>
      </trkpt>
      <trkpt lat="43.54379" lon="2.01288">
        <ele>232.2</ele>
        <time>2022-03-08T13:55:07Z</time>
      </trkpt>
      <trkpt lat="43.54378" lon="2.0129">
        <ele>232.2</ele>
        <time>2022-03-08T13:55:08Z</time>
      </trkpt>
      <trkpt lat="43.54378" lon="2.01291">
        <ele>232.2</ele>
        <time>2022-03-08T13:55:09Z</time>
      </trkpt>
      <trkpt lat="43.54378" lon="2.01293">
        <ele>232.2</ele>
        <time>2022-03-08T13:55:10Z</time>
      </trkpt>
      <trkpt lat="43.54377" lon="2.01296">
        <ele>232.1</ele>
        <time>2022-03-08T13:55:12Z</time>
      </trkpt>
      <trkpt lat="43.54376" lon="2.01298">
        <ele>232.1</ele>
        <time>2022-03-08T13:55:13Z</time>
      </trkpt>
      <trkpt lat="43.54375" lon="2.01299">
        <ele>232.1</ele>
        <time>2022-03-08T13:55:14Z</time>
      </trkpt>
      <trkpt lat="43.54375" lon="2.01299">
        <ele>232</ele>
        <time>2022-03-08T13:55:15Z</time>
      </trkpt>
      <trkpt lat="43.54373" lon="2.01301">
        <ele>232</ele>
        <time>2022-03-08T13:55:16Z</time>
      </trkpt>
      <trkpt lat="43.54372" lon="2.01302">
        <ele>232</ele>
        <time>2022-03-08T13:55:17Z</time>
      </trkpt>
      <trkpt lat="43.54371" lon="2.01303">
        <ele>231.9</ele>
        <time>2022-03-08T13:55:18Z</time>
      </trkpt>
      <trkpt lat="43.54369" lon="2.01304">
        <ele>231.9</ele>
        <time>2022-03-08T13:55:20Z</time>
      </trkpt>
      <trkpt lat="43.54368" lon="2.01306">
        <ele>231.9</ele>
        <time>2022-03-08T13:55:21Z</time>
      </trkpt>
      <trkpt lat="43.54367" lon="2.01307">
        <ele>231.8</ele>
        <time>2022-03-08T13:55:23Z</time>
      </trkpt>
      <trkpt lat="43.54366" lon="2.01308">
        <ele>231.8</ele>
        <time>2022-03-08T13:55:24Z</time>
      </trkpt>
      <trkpt lat="43.54365" lon="2.0131">
        <ele>231.8</ele>
        <time>2022-03-08T13:55:25Z</time>
      </trkpt>
      <trkpt lat="43.54363" lon="2.01312">
        <ele>231.7</ele>
        <time>2022-03-08T13:55:26Z</time>
      </trkpt>
      <trkpt lat="43.54362" lon="2.01314">
        <ele>231.7</ele>
        <time>2022-03-08T13:55:28Z</time>
      </trkpt>
      <trkpt lat="43.54361" lon="2.01316">
        <ele>231.6</ele>
        <time>2022-03-08T13:55:29Z</time>
      </trkpt>
      <trkpt lat="43.5436" lon="2.01318">
        <ele>231.6</ele>
        <time>2022-03-08T13:55:30Z</time>
      </trkpt>
      <trkpt lat="43.5436" lon="2.0132">
        <ele>231.6</ele>
        <time>2022-03-08T13:55:31Z</time>
      </trkpt>
      <trkpt lat="43.54359" lon="2.01322">
        <ele>231.5</ele>
        <time>2022-03-08T13:55:32Z</time>
      </trkpt>
      <trkpt lat="43.54359" lon="2.01323">
        <ele>231.5</ele>
        <time>2022-03-08T13:55:33Z</time>
      </trkpt>
      <trkpt lat="43.54358" lon="2.01323">
        <ele>231.5</ele>
        <time>2022-03-08T13:55:34Z</time>
      </trkpt>
      <trkpt lat="43.54357" lon="2.01324">
        <ele>231.4</ele>
        <time>2022-03-08T13:55:35Z</time>
      </trkpt>
      <trkpt lat="43.54357" lon="2.01325">
        <ele>231.4</ele>
        <time>2022-03-08T13:55:36Z</time>
      </trkpt>
      <trkpt lat="43.54355" lon="2.01327">
        <ele>231.3</ele>
        <time>2022-03-08T13:55:38Z</time>
      </trkpt>
      <trkpt lat="43.54354" lon="2.01328">
        <ele>231.3</ele>
        <time>2022-03-08T13:55:39Z</time>
      </trkpt>
      <trkpt lat="43.54353" lon="2.01329">
        <ele>231.3</ele>
        <time>2022-03-08T13:55:40Z</time>
      </trkpt>
      <trkpt lat="43.54352" lon="2.01331">
        <ele>231.2</ele>
        <time>2022-03-08T13:55:41Z</time>
      </trkpt>
      <trkpt lat="43.5435" lon="2.01335">
        <ele>231.1</ele>
        <time>2022-03-08T13:55:43Z</time>
      </trkpt>
      <trkpt lat="43.5435" lon="2.01337">
        <ele>231.1</ele>
        <time>2022-03-08T13:55:44Z</time>
      </trkpt>
      <trkpt lat="43.54349" lon="2.01338">
        <ele>231</ele>
        <time>2022-03-08T13:55:46Z</time>
      </trkpt>
      <trkpt lat="43.54349" lon="2.0134">
        <ele>231</ele>
        <time>2022-03-08T13:55:47Z</time>
      </trkpt>
      <trkpt lat="43.54348" lon="2.01341">
        <ele>231</ele>
        <time>2022-03-08T13:55:48Z</time>
      </trkpt>
      <trkpt lat="43.54348" lon="2.01342">
        <ele>230.9</ele>
        <time>2022-03-08T13:55:49Z</time>
      </trkpt>
      <trkpt lat="43.54347" lon="2.01343">
        <ele>230.9</ele>
        <time>2022-03-08T13:55:50Z</time>
      </trkpt>
      <trkpt lat="43.54346" lon="2.01343">
        <ele>230.9</ele>
        <time>2022-03-08T13:55:51Z</time>
      </trkpt>
      <trkpt lat="43.54345" lon="2.01342">
        <ele>230.8</ele>
        <time>2022-03-08T13:55:52Z</time>
      </trkpt>
      <trkpt lat="43.54343" lon="2.01342">
        <ele>230.8</ele>
        <time>2022-03-08T13:55:53Z</time>
      </trkpt>
      <trkpt lat="43.54341" lon="2.01343">
        <ele>230.7</ele>
        <time>2022-03-08T13:55:54Z</time>
      </trkpt>
      <trkpt lat="43.5434" lon="2.01344">
        <ele>230.7</ele>
        <time>2022-03-08T13:55:55Z</time>
      </trkpt>
      <trkpt lat="43.5434" lon="2.01345">
        <ele>230.6</ele>
        <time>2022-03-08T13:55:56Z</time>
      </trkpt>
      <trkpt lat="43.54338" lon="2.01347">
        <ele>230.5</ele>
        <time>2022-03-08T13:55:57Z</time>
      </trkpt>
      <trkpt lat="43.54338" lon="2.01349">
        <ele>230.5</ele>
        <time>2022-03-08T13:55:59Z</time>
      </trkpt>
      <trkpt lat="43.54337" lon="2.01351">
        <ele>230.4</ele>
        <time>2022-03-08T13:56:00Z</time>
      </trkpt>
      <trkpt lat="43.54336" lon="2.01353">
        <ele>230.3</ele>
        <time>2022-03-08T13:56:02Z</time>
      </trkpt>
      <trkpt lat="43.54335" lon="2.01355">
        <ele>230.3</ele>
        <time>2022-03-08T13:56:03Z</time>
      </trkpt>
      <trkpt lat="43.54334" lon="2.01356">
        <ele>230.2</ele>
        <time>2022-03-08T13:56:04Z</time>
      </trkpt>
      <trkpt lat="43.54333" lon="2.01359">
        <ele>230.2</ele>
        <time>2022-03-08T13:56:05Z</time>
      </trkpt>
      <trkpt lat="43.54332" lon="2.0136">
        <ele>230.1</ele>
        <time>2022-03-08T13:56:06Z</time>
      </trkpt>
      <trkpt lat="43.54331" lon="2.01361">
        <ele>230.1</ele>
        <time>2022-03-08T13:56:07Z</time>
      </trkpt>
      <trkpt lat="43.5433" lon="2.01363">
        <ele>230</ele>
        <time>2022-03-08T13:56:08Z</time>
      </trkpt>
      <trkpt lat="43.54329" lon="2.01364">
        <ele>230</ele>
        <time>2022-03-08T13:56:09Z</time>
      </trkpt>
      <trkpt lat="43.54328" lon="2.01365">
        <ele>229.9</ele>
        <time>2022-03-08T13:56:10Z</time>
      </trkpt>
      <trkpt lat="43.54326" lon="2.01367">
        <ele>229.8</ele>
        <time>2022-03-08T13:56:11Z</time>
      </trkpt>
      <trkpt lat="43.54326" lon="2.01368">
        <ele>229.8</ele>
        <time>2022-03-08T13:56:12Z</time>
      </trkpt>
      <trkpt lat="43.54325" lon="2.01369">
        <ele>229.8</ele>
        <time>2022-03-08T13:56:13Z</time>
      </trkpt>
      <trkpt lat="43.54325" lon="2.0137">
        <ele>229.7</ele>
        <time>2022-03-08T13:56:14Z</time>
      </trkpt>
      <trkpt lat="43.54324" lon="2.01371">
        <ele>229.7</ele>
        <time>2022-03-08T13:56:15Z</time>
      </trkpt>
      <trkpt lat="43.54324" lon="2.01373">
        <ele>229.6</ele>
        <time>2022-03-08T13:56:16Z</time>
      </trkpt>
      <trkpt lat="43.54324" lon="2.01375">
        <ele>229.5</ele>
        <time>2022-03-08T13:56:17Z</time>
      </trkpt>
      <trkpt lat="43.54325" lon="2.01377">
        <ele>229.5</ele>
        <time>2022-03-08T13:56:18Z</time>
      </trkpt>
      <trkpt lat="43.54325" lon="2.01379">
        <ele>229.4</ele>
        <time>2022-03-08T13:56:20Z</time>
      </trkpt>
      <trkpt lat="43.54324" lon="2.01381">
        <ele>229.3</ele>
        <time>2022-03-08T13:56:21Z</time>
      </trkpt>
      <trkpt lat="43.54324" lon="2.01383">
        <ele>229.3</ele>
        <time>2022-03-08T13:56:22Z</time>
      </trkpt>
      <trkpt lat="43.54323" lon="2.01385">
        <ele>229.2</ele>
        <time>2022-03-08T13:56:23Z</time>
      </trkpt>
      <trkpt lat="43.54323" lon="2.01386">
        <ele>229.1</ele>
        <time>2022-03-08T13:56:24Z</time>
      </trkpt>
      <trkpt lat="43.54322" lon="2.01387">
        <ele>229.1</ele>
        <time>2022-03-08T13:56:25Z</time>
      </trkpt>
      <trkpt lat="43.54321" lon="2.01388">
        <ele>229</ele>
        <time>2022-03-08T13:56:26Z</time>
      </trkpt>
      <trkpt lat="43.54318" lon="2.0139">
        <ele>228.8</ele>
        <time>2022-03-08T13:56:28Z</time>
      </trkpt>
      <trkpt lat="43.54317" lon="2.01391">
        <ele>228.8</ele>
        <time>2022-03-08T13:56:29Z</time>
      </trkpt>
      <trkpt lat="43.54316" lon="2.01392">
        <ele>228.7</ele>
        <time>2022-03-08T13:56:31Z</time>
      </trkpt>
      <trkpt lat="43.54315" lon="2.01393">
        <ele>228.7</ele>
        <time>2022-03-08T13:56:32Z</time>
      </trkpt>
      <trkpt lat="43.54315" lon="2.01394">
        <ele>228.6</ele>
        <time>2022-03-08T13:56:33Z</time>
      </trkpt>
      <trkpt lat="43.54314" lon="2.01396">
        <ele>228.5</ele>
        <time>2022-03-08T13:56:34Z</time>
      </trkpt>
      <trkpt lat="43.54313" lon="2.01398">
        <ele>228.4</ele>
        <time>2022-03-08T13:56:35Z</time>
      </trkpt>
      <trkpt lat="43.54312" lon="2.014">
        <ele>228.3</ele>
        <time>2022-03-08T13:56:36Z</time>
      </trkpt>
      <trkpt lat="43.54312" lon="2.01401">
        <ele>228.3</ele>
        <time>2022-03-08T13:56:37Z</time>
      </trkpt>
      <trkpt lat="43.54311" lon="2.01402">
        <ele>228.3</ele>
        <time>2022-03-08T13:56:38Z</time>
      </trkpt>
      <trkpt lat="43.5431" lon="2.01405">
        <ele>228.2</ele>
        <time>2022-03-08T13:56:39Z</time>
      </trkpt>
      <trkpt lat="43.5431" lon="2.01406">
        <ele>228.1</ele>
        <time>2022-03-08T13:56:40Z</time>
      </trkpt>
      <trkpt lat="43.54309" lon="2.01407">
        <ele>228.1</ele>
        <time>2022-03-08T13:56:41Z</time>
      </trkpt>
      <trkpt lat="43.54309" lon="2.01409">
        <ele>228.1</ele>
        <time>2022-03-08T13:56:42Z</time>
      </trkpt>
      <trkpt lat="43.54308" lon="2.01411">
        <ele>228</ele>
        <time>2022-03-08T13:56:43Z</time>
      </trkpt>
      <trkpt lat="43.54307" lon="2.01413">
        <ele>227.9</ele>
        <time>2022-03-08T13:56:44Z</time>
      </trkpt>
      <trkpt lat="43.54306" lon="2.01414">
        <ele>227.9</ele>
        <time>2022-03-08T13:56:45Z</time>
      </trkpt>
      <trkpt lat="43.54305" lon="2.01415">
        <ele>227.8</ele>
        <time>2022-03-08T13:56:46Z</time>
      </trkpt>
      <trkpt lat="43.54304" lon="2.01417">
        <ele>227.8</ele>
        <time>2022-03-08T13:56:47Z</time>
      </trkpt>
      <trkpt lat="43.54303" lon="2.01419">
        <ele>227.7</ele>
        <time>2022-03-08T13:56:49Z</time>
      </trkpt>
      <trkpt lat="43.54302" lon="2.0142">
        <ele>227.7</ele>
        <time>2022-03-08T13:56:50Z</time>
      </trkpt>
      <trkpt lat="43.54302" lon="2.01422">
        <ele>227.6</ele>
        <time>2022-03-08T13:56:52Z</time>
      </trkpt>
      <trkpt lat="43.54301" lon="2.01423">
        <ele>227.6</ele>
        <time>2022-03-08T13:56:53Z</time>
      </trkpt>
      <trkpt lat="43.54301" lon="2.01426">
        <ele>227.5</ele>
        <time>2022-03-08T13:56:54Z</time>
      </trkpt>
      <trkpt lat="43.54301" lon="2.01427">
        <ele>227.4</ele>
        <time>2022-03-08T13:56:55Z</time>
      </trkpt>
      <trkpt lat="43.54301" lon="2.01428">
        <ele>227.4</ele>
        <time>2022-03-08T13:56:56Z</time>
      </trkpt>
      <trkpt lat="43.543" lon="2.0143">
        <ele>227.3</ele>
        <time>2022-03-08T13:56:57Z</time>
      </trkpt>
      <trkpt lat="43.543" lon="2.01432">
        <ele>227.3</ele>
        <time>2022-03-08T13:56:58Z</time>
      </trkpt>
      <trkpt lat="43.54299" lon="2.01435">
        <ele>227.2</ele>
        <time>2022-03-08T13:56:59Z</time>
      </trkpt>
      <trkpt lat="43.54299" lon="2.01436">
        <ele>227.2</ele>
        <time>2022-03-08T13:57:00Z</time>
      </trkpt>
      <trkpt lat="43.54299" lon="2.01437">
        <ele>227.1</ele>
        <time>2022-03-08T13:57:01Z</time>
      </trkpt>
      <trkpt lat="43.54298" lon="2.01438">
        <ele>227.1</ele>
        <time>2022-03-08T13:57:02Z</time>
      </trkpt>
      <trkpt lat="43.54297" lon="2.0144">
        <ele>227</ele>
        <time>2022-03-08T13:57:03Z</time>
      </trkpt>
      <trkpt lat="43.54295" lon="2.01441">
        <ele>226.9</ele>
        <time>2022-03-08T13:57:05Z</time>
      </trkpt>
      <trkpt lat="43.54295" lon="2.01441">
        <ele>226.9</ele>
        <time>2022-03-08T13:57:06Z</time>
      </trkpt>
      <trkpt lat="43.54294" lon="2.01442">
        <ele>226.9</ele>
        <time>2022-03-08T13:57:07Z</time>
      </trkpt>
      <trkpt lat="43.54292" lon="2.01444">
        <ele>226.8</ele>
        <time>2022-03-08T13:57:08Z</time>
      </trkpt>
      <trkpt lat="43.54291" lon="2.01446">
        <ele>226.7</ele>
        <time>2022-03-08T13:57:09Z</time>
      </trkpt>
      <trkpt lat="43.5429" lon="2.01447">
        <ele>226.7</ele>
        <time>2022-03-08T13:57:10Z</time>
      </trkpt>
      <trkpt lat="43.54289" lon="2.01451">
        <ele>226.6</ele>
        <time>2022-03-08T13:57:12Z</time>
      </trkpt>
      <trkpt lat="43.54289" lon="2.01453">
        <ele>226.6</ele>
        <time>2022-03-08T13:57:13Z</time>
      </trkpt>
      <trkpt lat="43.54288" lon="2.01454">
        <ele>226.5</ele>
        <time>2022-03-08T13:57:14Z</time>
      </trkpt>
      <trkpt lat="43.54288" lon="2.01457">
        <ele>226.5</ele>
        <time>2022-03-08T13:57:15Z</time>
      </trkpt>
      <trkpt lat="43.54287" lon="2.01459">
        <ele>226.4</ele>
        <time>2022-03-08T13:57:16Z</time>
      </trkpt>
      <trkpt lat="43.54286" lon="2.01461">
        <ele>226.4</ele>
        <time>2022-03-08T13:57:17Z</time>
      </trkpt>
      <trkpt lat="43.54285" lon="2.01463">
        <ele>226.4</ele>
        <time>2022-03-08T13:57:18Z</time>
      </trkpt>
      <trkpt lat="43.54283" lon="2.01465">
        <ele>226.3</ele>
        <time>2022-03-08T13:57:19Z</time>
      </trkpt>
      <trkpt lat="43.54282" lon="2.01466">
        <ele>226.3</ele>
        <time>2022-03-08T13:57:20Z</time>
      </trkpt>
      <trkpt lat="43.5428" lon="2.01467">
        <ele>226.3</ele>
        <time>2022-03-08T13:57:21Z</time>
      </trkpt>
      <trkpt lat="43.54278" lon="2.01468">
        <ele>226.2</ele>
        <time>2022-03-08T13:57:22Z</time>
      </trkpt>
      <trkpt lat="43.54277" lon="2.01469">
        <ele>226.2</ele>
        <time>2022-03-08T13:57:23Z</time>
      </trkpt>
      <trkpt lat="43.54275" lon="2.0147">
        <ele>226.2</ele>
        <time>2022-03-08T13:57:25Z</time>
      </trkpt>
      <trkpt lat="43.54274" lon="2.01471">
        <ele>226.2</ele>
        <time>2022-03-08T13:57:26Z</time>
      </trkpt>
      <trkpt lat="43.54273" lon="2.01472">
        <ele>226.1</ele>
        <time>2022-03-08T13:57:27Z</time>
      </trkpt>
      <trkpt lat="43.54272" lon="2.01473">
        <ele>226.1</ele>
        <time>2022-03-08T13:57:28Z</time>
      </trkpt>
      <trkpt lat="43.54271" lon="2.01475">
        <ele>226.1</ele>
        <time>2022-03-08T13:57:29Z</time>
      </trkpt>
      <trkpt lat="43.5427" lon="2.0148">
        <ele>226</ele>
        <time>2022-03-08T13:57:31Z</time>
      </trkpt>
      <trkpt lat="43.5427" lon="2.01481">
        <ele>226</ele>
        <time>2022-03-08T13:57:32Z</time>
      </trkpt>
      <trkpt lat="43.5427" lon="2.01482">
        <ele>226</ele>
        <time>2022-03-08T13:57:33Z</time>
      </trkpt>
      <trkpt lat="43.54269" lon="2.01484">
        <ele>225.9</ele>
        <time>2022-03-08T13:57:34Z</time>
      </trkpt>
      <trkpt lat="43.54269" lon="2.01485">
        <ele>225.9</ele>
        <time>2022-03-08T13:57:35Z</time>
      </trkpt>
      <trkpt lat="43.54269" lon="2.01487">
        <ele>225.8</ele>
        <time>2022-03-08T13:57:37Z</time>
      </trkpt>
      <trkpt lat="43.54268" lon="2.01488">
        <ele>225.8</ele>
        <time>2022-03-08T13:57:38Z</time>
      </trkpt>
      <trkpt lat="43.54267" lon="2.01491">
        <ele>225.7</ele>
        <time>2022-03-08T13:57:39Z</time>
      </trkpt>
      <trkpt lat="43.54266" lon="2.01492">
        <ele>225.7</ele>
        <time>2022-03-08T13:57:40Z</time>
      </trkpt>
      <trkpt lat="43.54266" lon="2.01493">
        <ele>225.7</ele>
        <time>2022-03-08T13:57:41Z</time>
      </trkpt>
      <trkpt lat="43.54263" lon="2.01494">
        <ele>225.6</ele>
        <time>2022-03-08T13:57:42Z</time>
      </trkpt>
      <trkpt lat="43.54262" lon="2.01494">
        <ele>225.6</ele>
        <time>2022-03-08T13:57:44Z</time>
      </trkpt>
      <trkpt lat="43.54261" lon="2.01494">
        <ele>225.5</ele>
        <time>2022-03-08T13:57:45Z</time>
      </trkpt>
      <trkpt lat="43.5426" lon="2.01495">
        <ele>225.5</ele>
        <time>2022-03-08T13:57:46Z</time>
      </trkpt>
      <trkpt lat="43.54259" lon="2.01496">
        <ele>225.5</ele>
        <time>2022-03-08T13:57:47Z</time>
      </trkpt>
      <trkpt lat="43.54258" lon="2.01497">
        <ele>225.4</ele>
        <time>2022-03-08T13:57:48Z</time>
      </trkpt>
      <trkpt lat="43.54257" lon="2.01498">
        <ele>225.4</ele>
        <time>2022-03-08T13:57:49Z</time>
      </trkpt>
      <trkpt lat="43.54256" lon="2.01499">
        <ele>225.4</ele>
        <time>2022-03-08T13:57:50Z</time>
      </trkpt>
      <trkpt lat="43.54256" lon="2.01501">
        <ele>225.4</ele>
        <time>2022-03-08T13:57:51Z</time>
      </trkpt>
      <trkpt lat="43.54255" lon="2.01502">
        <ele>225.3</ele>
        <time>2022-03-08T13:57:52Z</time>
      </trkpt>
      <trkpt lat="43.54253" lon="2.01504">
        <ele>225.3</ele>
        <time>2022-03-08T13:57:54Z</time>
      </trkpt>
      <trkpt lat="43.54252" lon="2.01505">
        <ele>225.2</ele>
        <time>2022-03-08T13:57:55Z</time>
      </trkpt>
      <trkpt lat="43.54251" lon="2.01506">
        <ele>225.2</ele>
        <time>2022-03-08T13:57:56Z</time>
      </trkpt>
      <trkpt lat="43.5425" lon="2.01506">
        <ele>225.2</ele>
        <time>2022-03-08T13:57:57Z</time>
      </trkpt>
      <trkpt lat="43.54249" lon="2.01507">
        <ele>225.2</ele>
        <time>2022-03-08T13:57:58Z</time>
      </trkpt>
      <trkpt lat="43.54248" lon="2.01508">
        <ele>225.1</ele>
        <time>2022-03-08T13:58:00Z</time>
      </trkpt>
      <trkpt lat="43.54247" lon="2.01509">
        <ele>225.1</ele>
        <time>2022-03-08T13:58:01Z</time>
      </trkpt>
      <trkpt lat="43.54247" lon="2.0151">
        <ele>225.1</ele>
        <time>2022-03-08T13:58:02Z</time>
      </trkpt>
      <trkpt lat="43.54247" lon="2.01511">
        <ele>225.1</ele>
        <time>2022-03-08T13:58:03Z</time>
      </trkpt>
      <trkpt lat="43.54246" lon="2.01512">
        <ele>225.1</ele>
        <time>2022-03-08T13:58:04Z</time>
      </trkpt>
      <trkpt lat="43.54246" lon="2.01513">
        <ele>225</ele>
        <time>2022-03-08T13:58:05Z</time>
      </trkpt>
      <trkpt lat="43.54245" lon="2.01514">
        <ele>225</ele>
        <time>2022-03-08T13:58:06Z</time>
      </trkpt>
      <trkpt lat="43.54245" lon="2.01516">
        <ele>225</ele>
        <time>2022-03-08T13:58:07Z</time>
      </trkpt>
      <trkpt lat="43.54245" lon="2.01517">
        <ele>224.9</ele>
        <time>2022-03-08T13:58:08Z</time>
      </trkpt>
      <trkpt lat="43.54243" lon="2.01519">
        <ele>224.9</ele>
        <time>2022-03-08T13:58:10Z</time>
      </trkpt>
      <trkpt lat="43.54243" lon="2.01521">
        <ele>224.8</ele>
        <time>2022-03-08T13:58:11Z</time>
      </trkpt>
      <trkpt lat="43.54242" lon="2.01523">
        <ele>224.8</ele>
        <time>2022-03-08T13:58:12Z</time>
      </trkpt>
      <trkpt lat="43.54241" lon="2.01524">
        <ele>224.7</ele>
        <time>2022-03-08T13:58:13Z</time>
      </trkpt>
      <trkpt lat="43.5424" lon="2.01526">
        <ele>224.6</ele>
        <time>2022-03-08T13:58:14Z</time>
      </trkpt>
      <trkpt lat="43.54239" lon="2.01526">
        <ele>224.6</ele>
        <time>2022-03-08T13:58:15Z</time>
      </trkpt>
      <trkpt lat="43.54238" lon="2.01525">
        <ele>224.6</ele>
        <time>2022-03-08T13:58:16Z</time>
      </trkpt>
      <trkpt lat="43.54237" lon="2.01525">
        <ele>224.5</ele>
        <time>2022-03-08T13:58:17Z</time>
      </trkpt>
      <trkpt lat="43.54236" lon="2.01526">
        <ele>224.5</ele>
        <time>2022-03-08T13:58:19Z</time>
      </trkpt>
      <trkpt lat="43.54235" lon="2.01528">
        <ele>224.4</ele>
        <time>2022-03-08T13:58:21Z</time>
      </trkpt>
      <trkpt lat="43.54234" lon="2.01529">
        <ele>224.4</ele>
        <time>2022-03-08T13:58:22Z</time>
      </trkpt>
      <trkpt lat="43.54233" lon="2.01531">
        <ele>224.4</ele>
        <time>2022-03-08T13:58:23Z</time>
      </trkpt>
      <trkpt lat="43.54233" lon="2.01533">
        <ele>224.3</ele>
        <time>2022-03-08T13:58:24Z</time>
      </trkpt>
      <trkpt lat="43.54233" lon="2.01534">
        <ele>224.3</ele>
        <time>2022-03-08T13:58:26Z</time>
      </trkpt>
      <trkpt lat="43.54233" lon="2.01535">
        <ele>224.3</ele>
        <time>2022-03-08T13:58:27Z</time>
      </trkpt>
      <trkpt lat="43.54233" lon="2.01536">
        <ele>224.2</ele>
        <time>2022-03-08T13:58:28Z</time>
      </trkpt>
      <trkpt lat="43.54232" lon="2.01538">
        <ele>224.2</ele>
        <time>2022-03-08T13:58:29Z</time>
      </trkpt>
      <trkpt lat="43.54232" lon="2.01539">
        <ele>224.2</ele>
        <time>2022-03-08T13:58:30Z</time>
      </trkpt>
      <trkpt lat="43.54231" lon="2.01541">
        <ele>224.1</ele>
        <time>2022-03-08T13:58:31Z</time>
      </trkpt>
      <trkpt lat="43.5423" lon="2.01542">
        <ele>224.1</ele>
        <time>2022-03-08T13:58:32Z</time>
      </trkpt>
      <trkpt lat="43.54229" lon="2.01543">
        <ele>224</ele>
        <time>2022-03-08T13:58:33Z</time>
      </trkpt>
      <trkpt lat="43.54227" lon="2.01545">
        <ele>223.9</ele>
        <time>2022-03-08T13:58:34Z</time>
      </trkpt>
      <trkpt lat="43.54225" lon="2.01547">
        <ele>223.9</ele>
        <time>2022-03-08T13:58:35Z</time>
      </trkpt>
      <trkpt lat="43.54223" lon="2.01549">
        <ele>223.8</ele>
        <time>2022-03-08T13:58:37Z</time>
      </trkpt>
      <trkpt lat="43.54222" lon="2.01551">
        <ele>223.7</ele>
        <time>2022-03-08T13:58:38Z</time>
      </trkpt>
      <trkpt lat="43.54221" lon="2.01553">
        <ele>223.7</ele>
        <time>2022-03-08T13:58:39Z</time>
      </trkpt>
      <trkpt lat="43.54221" lon="2.01556">
        <ele>223.6</ele>
        <time>2022-03-08T13:58:40Z</time>
      </trkpt>
      <trkpt lat="43.5422" lon="2.01557">
        <ele>223.5</ele>
        <time>2022-03-08T13:58:41Z</time>
      </trkpt>
      <trkpt lat="43.5422" lon="2.01558">
        <ele>223.5</ele>
        <time>2022-03-08T13:58:42Z</time>
      </trkpt>
      <trkpt lat="43.5422" lon="2.0156">
        <ele>223.4</ele>
        <time>2022-03-08T13:58:43Z</time>
      </trkpt>
      <trkpt lat="43.54219" lon="2.01562">
        <ele>223.4</ele>
        <time>2022-03-08T13:58:44Z</time>
      </trkpt>
      <trkpt lat="43.54219" lon="2.01564">
        <ele>223.3</ele>
        <time>2022-03-08T13:58:45Z</time>
      </trkpt>
      <trkpt lat="43.54218" lon="2.01566">
        <ele>223.2</ele>
        <time>2022-03-08T13:58:46Z</time>
      </trkpt>
      <trkpt lat="43.54217" lon="2.01568">
        <ele>223.2</ele>
        <time>2022-03-08T13:58:47Z</time>
      </trkpt>
      <trkpt lat="43.54216" lon="2.01569">
        <ele>223.1</ele>
        <time>2022-03-08T13:58:48Z</time>
      </trkpt>
      <trkpt lat="43.54216" lon="2.01571">
        <ele>223</ele>
        <time>2022-03-08T13:58:49Z</time>
      </trkpt>
      <trkpt lat="43.54215" lon="2.01573">
        <ele>223</ele>
        <time>2022-03-08T13:58:50Z</time>
      </trkpt>
      <trkpt lat="43.54213" lon="2.01574">
        <ele>222.9</ele>
        <time>2022-03-08T13:58:52Z</time>
      </trkpt>
      <trkpt lat="43.54212" lon="2.01575">
        <ele>222.8</ele>
        <time>2022-03-08T13:58:53Z</time>
      </trkpt>
      <trkpt lat="43.54212" lon="2.01576">
        <ele>222.8</ele>
        <time>2022-03-08T13:58:54Z</time>
      </trkpt>
      <trkpt lat="43.54211" lon="2.01578">
        <ele>222.7</ele>
        <time>2022-03-08T13:58:55Z</time>
      </trkpt>
      <trkpt lat="43.5421" lon="2.01579">
        <ele>222.6</ele>
        <time>2022-03-08T13:58:56Z</time>
      </trkpt>
      <trkpt lat="43.54209" lon="2.0158">
        <ele>222.6</ele>
        <time>2022-03-08T13:58:58Z</time>
      </trkpt>
      <trkpt lat="43.54209" lon="2.01581">
        <ele>222.5</ele>
        <time>2022-03-08T13:58:59Z</time>
      </trkpt>
      <trkpt lat="43.54208" lon="2.01582">
        <ele>222.5</ele>
        <time>2022-03-08T13:59:00Z</time>
      </trkpt>
      <trkpt lat="43.54207" lon="2.01583">
        <ele>222.4</ele>
        <time>2022-03-08T13:59:01Z</time>
      </trkpt>
      <trkpt lat="43.54207" lon="2.01584">
        <ele>222.3</ele>
        <time>2022-03-08T13:59:02Z</time>
      </trkpt>
      <trkpt lat="43.54206" lon="2.01585">
        <ele>222.3</ele>
        <time>2022-03-08T13:59:03Z</time>
      </trkpt>
      <trkpt lat="43.54203" lon="2.01585">
        <ele>222.1</ele>
        <time>2022-03-08T13:59:04Z</time>
      </trkpt>
      <trkpt lat="43.54202" lon="2.01585">
        <ele>222</ele>
        <time>2022-03-08T13:59:05Z</time>
      </trkpt>
      <trkpt lat="43.54202" lon="2.01585">
        <ele>222</ele>
        <time>2022-03-08T13:59:06Z</time>
      </trkpt>
      <trkpt lat="43.542" lon="2.01584">
        <ele>221.9</ele>
        <time>2022-03-08T13:59:07Z</time>
      </trkpt>
      <trkpt lat="43.54199" lon="2.01582">
        <ele>221.8</ele>
        <time>2022-03-08T13:59:08Z</time>
      </trkpt>
      <trkpt lat="43.54197" lon="2.01579">
        <ele>221.9</ele>
        <time>2022-03-08T13:59:10Z</time>
      </trkpt>
      <trkpt lat="43.54196" lon="2.01578">
        <ele>221.9</ele>
        <time>2022-03-08T13:59:11Z</time>
      </trkpt>
      <trkpt lat="43.54195" lon="2.01577">
        <ele>222</ele>
        <time>2022-03-08T13:59:12Z</time>
      </trkpt>
      <trkpt lat="43.54194" lon="2.01576">
        <ele>222.1</ele>
        <time>2022-03-08T13:59:13Z</time>
      </trkpt>
      <trkpt lat="43.54192" lon="2.01574">
        <ele>222.2</ele>
        <time>2022-03-08T13:59:14Z</time>
      </trkpt>
      <trkpt lat="43.54191" lon="2.01573">
        <ele>222.2</ele>
        <time>2022-03-08T13:59:15Z</time>
      </trkpt>
      <trkpt lat="43.54189" lon="2.01571">
        <ele>222.3</ele>
        <time>2022-03-08T13:59:16Z</time>
      </trkpt>
      <trkpt lat="43.54188" lon="2.01569">
        <ele>222.4</ele>
        <time>2022-03-08T13:59:17Z</time>
      </trkpt>
      <trkpt lat="43.54187" lon="2.01568">
        <ele>222.4</ele>
        <time>2022-03-08T13:59:18Z</time>
      </trkpt>
      <trkpt lat="43.54187" lon="2.01566">
        <ele>222.5</ele>
        <time>2022-03-08T13:59:19Z</time>
      </trkpt>
      <trkpt lat="43.54185" lon="2.01564">
        <ele>222.6</ele>
        <time>2022-03-08T13:59:20Z</time>
      </trkpt>
      <trkpt lat="43.54184" lon="2.01564">
        <ele>222.6</ele>
        <time>2022-03-08T13:59:21Z</time>
      </trkpt>
      <trkpt lat="43.54183" lon="2.01564">
        <ele>222.3</ele>
        <time>2022-03-08T13:59:22Z</time>
      </trkpt>
      <trkpt lat="43.54181" lon="2.01566">
        <ele>222.2</ele>
        <time>2022-03-08T13:59:24Z</time>
      </trkpt>
      <trkpt lat="43.5418" lon="2.01567">
        <ele>222.1</ele>
        <time>2022-03-08T13:59:25Z</time>
      </trkpt>
      <trkpt lat="43.54179" lon="2.0157">
        <ele>222</ele>
        <time>2022-03-08T13:59:26Z</time>
      </trkpt>
      <trkpt lat="43.54178" lon="2.01571">
        <ele>222</ele>
        <time>2022-03-08T13:59:27Z</time>
      </trkpt>
      <trkpt lat="43.54176" lon="2.01574">
        <ele>221.8</ele>
        <time>2022-03-08T13:59:28Z</time>
      </trkpt>
      <trkpt lat="43.54176" lon="2.01575">
        <ele>221.8</ele>
        <time>2022-03-08T13:59:29Z</time>
      </trkpt>
      <trkpt lat="43.54175" lon="2.01577">
        <ele>221.8</ele>
        <time>2022-03-08T13:59:30Z</time>
      </trkpt>
      <trkpt lat="43.54175" lon="2.01578">
        <ele>221.7</ele>
        <time>2022-03-08T13:59:31Z</time>
      </trkpt>
      <trkpt lat="43.54175" lon="2.01579">
        <ele>221.7</ele>
        <time>2022-03-08T13:59:32Z</time>
      </trkpt>
      <trkpt lat="43.54176" lon="2.01581">
        <ele>221.6</ele>
        <time>2022-03-08T13:59:34Z</time>
      </trkpt>
      <trkpt lat="43.54176" lon="2.01581">
        <ele>221.6</ele>
        <time>2022-03-08T13:59:35Z</time>
      </trkpt>
      <trkpt lat="43.54176" lon="2.01581">
        <ele>221.6</ele>
        <time>2022-03-08T13:59:36Z</time>
      </trkpt>
      <trkpt lat="43.54176" lon="2.01581">
        <ele>221.6</ele>
        <time>2022-03-08T13:59:37Z</time>
      </trkpt>
      <trkpt lat="43.54176" lon="2.01582">
        <ele>221.6</ele>
        <time>2022-03-08T13:59:38Z</time>
      </trkpt>
      <trkpt lat="43.54176" lon="2.01583">
        <ele>221.6</ele>
        <time>2022-03-08T13:59:39Z</time>
      </trkpt>
      <trkpt lat="43.54175" lon="2.01583">
        <ele>221.5</ele>
        <time>2022-03-08T13:59:40Z</time>
      </trkpt>
      <trkpt lat="43.54174" lon="2.01586">
        <ele>221.4</ele>
        <time>2022-03-08T13:59:41Z</time>
      </trkpt>
      <trkpt lat="43.54173" lon="2.01587">
        <ele>221.4</ele>
        <time>2022-03-08T13:59:42Z</time>
      </trkpt>
      <trkpt lat="43.54173" lon="2.01588">
        <ele>221.4</ele>
        <time>2022-03-08T13:59:43Z</time>
      </trkpt>
      <trkpt lat="43.54172" lon="2.01589">
        <ele>221.3</ele>
        <time>2022-03-08T13:59:44Z</time>
      </trkpt>
      <trkpt lat="43.54172" lon="2.01592">
        <ele>221.2</ele>
        <time>2022-03-08T13:59:45Z</time>
      </trkpt>
      <trkpt lat="43.54171" lon="2.01595">
        <ele>221.1</ele>
        <time>2022-03-08T13:59:46Z</time>
      </trkpt>
      <trkpt lat="43.54171" lon="2.01597">
        <ele>221</ele>
        <time>2022-03-08T13:59:48Z</time>
      </trkpt>
      <trkpt lat="43.5417" lon="2.01601">
        <ele>220.9</ele>
        <time>2022-03-08T13:59:49Z</time>
      </trkpt>
      <trkpt lat="43.5417" lon="2.01603">
        <ele>220.9</ele>
        <time>2022-03-08T13:59:50Z</time>
      </trkpt>
      <trkpt lat="43.54169" lon="2.01606">
        <ele>220.7</ele>
        <time>2022-03-08T13:59:51Z</time>
      </trkpt>
      <trkpt lat="43.54169" lon="2.01608">
        <ele>220.7</ele>
        <time>2022-03-08T13:59:52Z</time>
      </trkpt>
      <trkpt lat="43.54168" lon="2.0161">
        <ele>220.6</ele>
        <time>2022-03-08T13:59:53Z</time>
      </trkpt>
      <trkpt lat="43.54167" lon="2.01612">
        <ele>220.5</ele>
        <time>2022-03-08T13:59:54Z</time>
      </trkpt>
      <trkpt lat="43.54166" lon="2.01613">
        <ele>220.5</ele>
        <time>2022-03-08T13:59:55Z</time>
      </trkpt>
      <trkpt lat="43.54166" lon="2.01614">
        <ele>220.4</ele>
        <time>2022-03-08T13:59:57Z</time>
      </trkpt>
      <trkpt lat="43.54165" lon="2.01615">
        <ele>220.4</ele>
        <time>2022-03-08T13:59:58Z</time>
      </trkpt>
      <trkpt lat="43.54165" lon="2.01616">
        <ele>220.3</ele>
        <time>2022-03-08T13:59:59Z</time>
      </trkpt>
      <trkpt lat="43.54164" lon="2.01617">
        <ele>220.3</ele>
        <time>2022-03-08T14:00:00Z</time>
      </trkpt>
      <trkpt lat="43.54164" lon="2.01619">
        <ele>220.2</ele>
        <time>2022-03-08T14:00:01Z</time>
      </trkpt>
      <trkpt lat="43.54164" lon="2.0162">
        <ele>220.1</ele>
        <time>2022-03-08T14:00:02Z</time>
      </trkpt>
      <trkpt lat="43.54163" lon="2.01622">
        <ele>220.1</ele>
        <time>2022-03-08T14:00:03Z</time>
      </trkpt>
      <trkpt lat="43.54163" lon="2.01625">
        <ele>219.9</ele>
        <time>2022-03-08T14:00:05Z</time>
      </trkpt>
      <trkpt lat="43.54163" lon="2.01626">
        <ele>219.9</ele>
        <time>2022-03-08T14:00:06Z</time>
      </trkpt>
      <trkpt lat="43.54163" lon="2.01627">
        <ele>219.8</ele>
        <time>2022-03-08T14:00:07Z</time>
      </trkpt>
      <trkpt lat="43.54162" lon="2.01629">
        <ele>219.8</ele>
        <time>2022-03-08T14:00:08Z</time>
      </trkpt>
      <trkpt lat="43.54161" lon="2.0163">
        <ele>219.7</ele>
        <time>2022-03-08T14:00:09Z</time>
      </trkpt>
      <trkpt lat="43.5416" lon="2.01632">
        <ele>219.5</ele>
        <time>2022-03-08T14:00:10Z</time>
      </trkpt>
      <trkpt lat="43.54159" lon="2.01633">
        <ele>219.4</ele>
        <time>2022-03-08T14:00:11Z</time>
      </trkpt>
      <trkpt lat="43.54158" lon="2.01634">
        <ele>219.3</ele>
        <time>2022-03-08T14:00:12Z</time>
      </trkpt>
      <trkpt lat="43.54157" lon="2.01635">
        <ele>219.2</ele>
        <time>2022-03-08T14:00:13Z</time>
      </trkpt>
      <trkpt lat="43.54156" lon="2.01637">
        <ele>219.1</ele>
        <time>2022-03-08T14:00:14Z</time>
      </trkpt>
      <trkpt lat="43.54155" lon="2.01639">
        <ele>219</ele>
        <time>2022-03-08T14:00:15Z</time>
      </trkpt>
      <trkpt lat="43.54154" lon="2.01641">
        <ele>218.8</ele>
        <time>2022-03-08T14:00:16Z</time>
      </trkpt>
      <trkpt lat="43.54153" lon="2.01645">
        <ele>218.5</ele>
        <time>2022-03-08T14:00:18Z</time>
      </trkpt>
      <trkpt lat="43.54152" lon="2.01646">
        <ele>218.5</ele>
        <time>2022-03-08T14:00:19Z</time>
      </trkpt>
      <trkpt lat="43.54152" lon="2.01648">
        <ele>218.3</ele>
        <time>2022-03-08T14:00:20Z</time>
      </trkpt>
      <trkpt lat="43.54151" lon="2.0165">
        <ele>218.2</ele>
        <time>2022-03-08T14:00:21Z</time>
      </trkpt>
      <trkpt lat="43.5415" lon="2.01652">
        <ele>218</ele>
        <time>2022-03-08T14:00:22Z</time>
      </trkpt>
      <trkpt lat="43.5415" lon="2.01654">
        <ele>217.9</ele>
        <time>2022-03-08T14:00:23Z</time>
      </trkpt>
      <trkpt lat="43.54148" lon="2.01657">
        <ele>217.6</ele>
        <time>2022-03-08T14:00:25Z</time>
      </trkpt>
      <trkpt lat="43.54148" lon="2.01658">
        <ele>217.5</ele>
        <time>2022-03-08T14:00:26Z</time>
      </trkpt>
      <trkpt lat="43.54147" lon="2.0166">
        <ele>217.3</ele>
        <time>2022-03-08T14:00:27Z</time>
      </trkpt>
      <trkpt lat="43.54146" lon="2.01661">
        <ele>217.2</ele>
        <time>2022-03-08T14:00:28Z</time>
      </trkpt>
      <trkpt lat="43.54144" lon="2.01664">
        <ele>217</ele>
        <time>2022-03-08T14:00:29Z</time>
      </trkpt>
      <trkpt lat="43.54144" lon="2.01664">
        <ele>216.9</ele>
        <time>2022-03-08T14:00:30Z</time>
      </trkpt>
      <trkpt lat="43.54143" lon="2.01665">
        <ele>216.9</ele>
        <time>2022-03-08T14:00:31Z</time>
      </trkpt>
      <trkpt lat="43.54142" lon="2.01668">
        <ele>216.6</ele>
        <time>2022-03-08T14:00:33Z</time>
      </trkpt>
      <trkpt lat="43.54141" lon="2.01669">
        <ele>216.5</ele>
        <time>2022-03-08T14:00:34Z</time>
      </trkpt>
      <trkpt lat="43.54141" lon="2.01672">
        <ele>216.3</ele>
        <time>2022-03-08T14:00:35Z</time>
      </trkpt>
      <trkpt lat="43.54141" lon="2.01673">
        <ele>216.3</ele>
        <time>2022-03-08T14:00:36Z</time>
      </trkpt>
      <trkpt lat="43.54141" lon="2.01674">
        <ele>216.2</ele>
        <time>2022-03-08T14:00:37Z</time>
      </trkpt>
      <trkpt lat="43.5414" lon="2.01676">
        <ele>216.1</ele>
        <time>2022-03-08T14:00:38Z</time>
      </trkpt>
      <trkpt lat="43.5414" lon="2.01677">
        <ele>216</ele>
        <time>2022-03-08T14:00:39Z</time>
      </trkpt>
      <trkpt lat="43.5414" lon="2.01679">
        <ele>215.9</ele>
        <time>2022-03-08T14:00:41Z</time>
      </trkpt>
      <trkpt lat="43.54139" lon="2.01682">
        <ele>215.7</ele>
        <time>2022-03-08T14:00:42Z</time>
      </trkpt>
      <trkpt lat="43.54139" lon="2.01683">
        <ele>215.6</ele>
        <time>2022-03-08T14:00:43Z</time>
      </trkpt>
      <trkpt lat="43.54138" lon="2.01684">
        <ele>215.5</ele>
        <time>2022-03-08T14:00:44Z</time>
      </trkpt>
      <trkpt lat="43.54137" lon="2.01685">
        <ele>215.4</ele>
        <time>2022-03-08T14:00:45Z</time>
      </trkpt>
      <trkpt lat="43.54136" lon="2.01687">
        <ele>215.3</ele>
        <time>2022-03-08T14:00:47Z</time>
      </trkpt>
      <trkpt lat="43.54135" lon="2.01688">
        <ele>215.2</ele>
        <time>2022-03-08T14:00:48Z</time>
      </trkpt>
      <trkpt lat="43.54135" lon="2.01689">
        <ele>215.1</ele>
        <time>2022-03-08T14:00:49Z</time>
      </trkpt>
      <trkpt lat="43.54134" lon="2.01691">
        <ele>215</ele>
        <time>2022-03-08T14:00:51Z</time>
      </trkpt>
      <trkpt lat="43.54133" lon="2.01692">
        <ele>214.9</ele>
        <time>2022-03-08T14:00:52Z</time>
      </trkpt>
      <trkpt lat="43.54133" lon="2.01693">
        <ele>214.8</ele>
        <time>2022-03-08T14:00:53Z</time>
      </trkpt>
      <trkpt lat="43.54133" lon="2.01695">
        <ele>214.8</ele>
        <time>2022-03-08T14:00:54Z</time>
      </trkpt>
      <trkpt lat="43.54132" lon="2.01696">
        <ele>214.7</ele>
        <time>2022-03-08T14:00:55Z</time>
      </trkpt>
      <trkpt lat="43.54132" lon="2.01697">
        <ele>214.6</ele>
        <time>2022-03-08T14:00:56Z</time>
      </trkpt>
      <trkpt lat="43.54132" lon="2.01699">
        <ele>214.5</ele>
        <time>2022-03-08T14:00:57Z</time>
      </trkpt>
      <trkpt lat="43.54132" lon="2.017">
        <ele>214.4</ele>
        <time>2022-03-08T14:00:58Z</time>
      </trkpt>
      <trkpt lat="43.54132" lon="2.01702">
        <ele>214.3</ele>
        <time>2022-03-08T14:00:59Z</time>
      </trkpt>
      <trkpt lat="43.54132" lon="2.01703">
        <ele>214.3</ele>
        <time>2022-03-08T14:01:00Z</time>
      </trkpt>
      <trkpt lat="43.54132" lon="2.01704">
        <ele>214.2</ele>
        <time>2022-03-08T14:01:01Z</time>
      </trkpt>
      <trkpt lat="43.54131" lon="2.01707">
        <ele>214.1</ele>
        <time>2022-03-08T14:01:02Z</time>
      </trkpt>
      <trkpt lat="43.54131" lon="2.01708">
        <ele>214</ele>
        <time>2022-03-08T14:01:03Z</time>
      </trkpt>
      <trkpt lat="43.5413" lon="2.0171">
        <ele>213.9</ele>
        <time>2022-03-08T14:01:05Z</time>
      </trkpt>
      <trkpt lat="43.54129" lon="2.01711">
        <ele>213.8</ele>
        <time>2022-03-08T14:01:06Z</time>
      </trkpt>
      <trkpt lat="43.54128" lon="2.01711">
        <ele>213.7</ele>
        <time>2022-03-08T14:01:07Z</time>
      </trkpt>
      <trkpt lat="43.54127" lon="2.01713">
        <ele>213.6</ele>
        <time>2022-03-08T14:01:08Z</time>
      </trkpt>
      <trkpt lat="43.54126" lon="2.01714">
        <ele>213.5</ele>
        <time>2022-03-08T14:01:10Z</time>
      </trkpt>
      <trkpt lat="43.54125" lon="2.01716">
        <ele>213.4</ele>
        <time>2022-03-08T14:01:11Z</time>
      </trkpt>
      <trkpt lat="43.54125" lon="2.01717">
        <ele>213.4</ele>
        <time>2022-03-08T14:01:12Z</time>
      </trkpt>
      <trkpt lat="43.54125" lon="2.01719">
        <ele>213.3</ele>
        <time>2022-03-08T14:01:13Z</time>
      </trkpt>
      <trkpt lat="43.54124" lon="2.0172">
        <ele>213.3</ele>
        <time>2022-03-08T14:01:14Z</time>
      </trkpt>
      <trkpt lat="43.54124" lon="2.01721">
        <ele>213.2</ele>
        <time>2022-03-08T14:01:15Z</time>
      </trkpt>
      <trkpt lat="43.54123" lon="2.01722">
        <ele>213.1</ele>
        <time>2022-03-08T14:01:16Z</time>
      </trkpt>
      <trkpt lat="43.54123" lon="2.01723">
        <ele>213.1</ele>
        <time>2022-03-08T14:01:17Z</time>
      </trkpt>
      <trkpt lat="43.54122" lon="2.01724">
        <ele>213</ele>
        <time>2022-03-08T14:01:18Z</time>
      </trkpt>
      <trkpt lat="43.54121" lon="2.01725">
        <ele>213</ele>
        <time>2022-03-08T14:01:19Z</time>
      </trkpt>
      <trkpt lat="43.54118" lon="2.01727">
        <ele>212.8</ele>
        <time>2022-03-08T14:01:20Z</time>
      </trkpt>
      <trkpt lat="43.54118" lon="2.01728">
        <ele>212.8</ele>
        <time>2022-03-08T14:01:22Z</time>
      </trkpt>
      <trkpt lat="43.54117" lon="2.01728">
        <ele>212.7</ele>
        <time>2022-03-08T14:01:23Z</time>
      </trkpt>
      <trkpt lat="43.54116" lon="2.01729">
        <ele>212.7</ele>
        <time>2022-03-08T14:01:24Z</time>
      </trkpt>
      <trkpt lat="43.54115" lon="2.0173">
        <ele>212.6</ele>
        <time>2022-03-08T14:01:25Z</time>
      </trkpt>
      <trkpt lat="43.54114" lon="2.01732">
        <ele>212.5</ele>
        <time>2022-03-08T14:01:26Z</time>
      </trkpt>
      <trkpt lat="43.54113" lon="2.01734">
        <ele>212.4</ele>
        <time>2022-03-08T14:01:28Z</time>
      </trkpt>
      <trkpt lat="43.54112" lon="2.01736">
        <ele>212.3</ele>
        <time>2022-03-08T14:01:29Z</time>
      </trkpt>
      <trkpt lat="43.54112" lon="2.01738">
        <ele>212.3</ele>
        <time>2022-03-08T14:01:30Z</time>
      </trkpt>
      <trkpt lat="43.54112" lon="2.0174">
        <ele>212.2</ele>
        <time>2022-03-08T14:01:31Z</time>
      </trkpt>
      <trkpt lat="43.54111" lon="2.01743">
        <ele>212.1</ele>
        <time>2022-03-08T14:01:33Z</time>
      </trkpt>
      <trkpt lat="43.5411" lon="2.01744">
        <ele>212.1</ele>
        <time>2022-03-08T14:01:34Z</time>
      </trkpt>
      <trkpt lat="43.5411" lon="2.01745">
        <ele>212</ele>
        <time>2022-03-08T14:01:35Z</time>
      </trkpt>
      <trkpt lat="43.54109" lon="2.01746">
        <ele>212</ele>
        <time>2022-03-08T14:01:36Z</time>
      </trkpt>
      <trkpt lat="43.54107" lon="2.01748">
        <ele>211.9</ele>
        <time>2022-03-08T14:01:37Z</time>
      </trkpt>
      <trkpt lat="43.54107" lon="2.01749">
        <ele>211.8</ele>
        <time>2022-03-08T14:01:38Z</time>
      </trkpt>
      <trkpt lat="43.54106" lon="2.0175">
        <ele>211.8</ele>
        <time>2022-03-08T14:01:39Z</time>
      </trkpt>
      <trkpt lat="43.54105" lon="2.01753">
        <ele>211.7</ele>
        <time>2022-03-08T14:01:40Z</time>
      </trkpt>
      <trkpt lat="43.54104" lon="2.01754">
        <ele>211.7</ele>
        <time>2022-03-08T14:01:41Z</time>
      </trkpt>
      <trkpt lat="43.54104" lon="2.01755">
        <ele>211.7</ele>
        <time>2022-03-08T14:01:42Z</time>
      </trkpt>
      <trkpt lat="43.54103" lon="2.01759">
        <ele>211.5</ele>
        <time>2022-03-08T14:01:44Z</time>
      </trkpt>
      <trkpt lat="43.54103" lon="2.0176">
        <ele>211.5</ele>
        <time>2022-03-08T14:01:45Z</time>
      </trkpt>
      <trkpt lat="43.54103" lon="2.01764">
        <ele>211.4</ele>
        <time>2022-03-08T14:01:46Z</time>
      </trkpt>
      <trkpt lat="43.54103" lon="2.01766">
        <ele>211.3</ele>
        <time>2022-03-08T14:01:48Z</time>
      </trkpt>
      <trkpt lat="43.54103" lon="2.01769">
        <ele>211.3</ele>
        <time>2022-03-08T14:01:49Z</time>
      </trkpt>
      <trkpt lat="43.54103" lon="2.0177">
        <ele>211.2</ele>
        <time>2022-03-08T14:01:50Z</time>
      </trkpt>
      <trkpt lat="43.54103" lon="2.01772">
        <ele>211.2</ele>
        <time>2022-03-08T14:01:51Z</time>
      </trkpt>
      <trkpt lat="43.54102" lon="2.01774">
        <ele>211.1</ele>
        <time>2022-03-08T14:01:52Z</time>
      </trkpt>
      <trkpt lat="43.54101" lon="2.01775">
        <ele>211.1</ele>
        <time>2022-03-08T14:01:53Z</time>
      </trkpt>
      <trkpt lat="43.541" lon="2.01778">
        <ele>211</ele>
        <time>2022-03-08T14:01:54Z</time>
      </trkpt>
      <trkpt lat="43.541" lon="2.01779">
        <ele>211</ele>
        <time>2022-03-08T14:01:55Z</time>
      </trkpt>
      <trkpt lat="43.54099" lon="2.0178">
        <ele>210.9</ele>
        <time>2022-03-08T14:01:56Z</time>
      </trkpt>
      <trkpt lat="43.54099" lon="2.01782">
        <ele>210.9</ele>
        <time>2022-03-08T14:01:57Z</time>
      </trkpt>
      <trkpt lat="43.54099" lon="2.01782">
        <ele>210.9</ele>
        <time>2022-03-08T14:01:58Z</time>
      </trkpt>
      <trkpt lat="43.54099" lon="2.01782">
        <ele>210.8</ele>
        <time>2022-03-08T14:01:59Z</time>
      </trkpt>
      <trkpt lat="43.54099" lon="2.01783">
        <ele>210.8</ele>
        <time>2022-03-08T14:02:00Z</time>
      </trkpt>
      <trkpt lat="43.54099" lon="2.01783">
        <ele>210.8</ele>
        <time>2022-03-08T14:02:01Z</time>
      </trkpt>
      <trkpt lat="43.54099" lon="2.01784">
        <ele>210.8</ele>
        <time>2022-03-08T14:02:02Z</time>
      </trkpt>
      <trkpt lat="43.54098" lon="2.01786">
        <ele>210.8</ele>
        <time>2022-03-08T14:02:04Z</time>
      </trkpt>
      <trkpt lat="43.54098" lon="2.01787">
        <ele>210.7</ele>
        <time>2022-03-08T14:02:05Z</time>
      </trkpt>
      <trkpt lat="43.54097" lon="2.01788">
        <ele>210.7</ele>
        <time>2022-03-08T14:02:06Z</time>
      </trkpt>
      <trkpt lat="43.54096" lon="2.01791">
        <ele>210.6</ele>
        <time>2022-03-08T14:02:07Z</time>
      </trkpt>
      <trkpt lat="43.54095" lon="2.01793">
        <ele>210.6</ele>
        <time>2022-03-08T14:02:10Z</time>
      </trkpt>
      <trkpt lat="43.54095" lon="2.01793">
        <ele>210.6</ele>
        <time>2022-03-08T14:02:11Z</time>
      </trkpt>
      <trkpt lat="43.54095" lon="2.01793">
        <ele>210.6</ele>
        <time>2022-03-08T14:02:12Z</time>
      </trkpt>
      <trkpt lat="43.54095" lon="2.01793">
        <ele>210.6</ele>
        <time>2022-03-08T14:02:14Z</time>
      </trkpt>
      <trkpt lat="43.54094" lon="2.01793">
        <ele>210.5</ele>
        <time>2022-03-08T14:02:15Z</time>
      </trkpt>
      <trkpt lat="43.54094" lon="2.01794">
        <ele>210.5</ele>
        <time>2022-03-08T14:02:16Z</time>
      </trkpt>
      <trkpt lat="43.54094" lon="2.01795">
        <ele>210.5</ele>
        <time>2022-03-08T14:02:17Z</time>
      </trkpt>
      <trkpt lat="43.54093" lon="2.01796">
        <ele>210.5</ele>
        <time>2022-03-08T14:02:18Z</time>
      </trkpt>
      <trkpt lat="43.54092" lon="2.01797">
        <ele>210.4</ele>
        <time>2022-03-08T14:02:19Z</time>
      </trkpt>
      <trkpt lat="43.5409" lon="2.01804">
        <ele>210.3</ele>
        <time>2022-03-08T14:02:22Z</time>
      </trkpt>
      <trkpt lat="43.54089" lon="2.01805">
        <ele>210.3</ele>
        <time>2022-03-08T14:02:23Z</time>
      </trkpt>
      <trkpt lat="43.54088" lon="2.01806">
        <ele>210.3</ele>
        <time>2022-03-08T14:02:24Z</time>
      </trkpt>
      <trkpt lat="43.54087" lon="2.01809">
        <ele>210.2</ele>
        <time>2022-03-08T14:02:25Z</time>
      </trkpt>
      <trkpt lat="43.54086" lon="2.0181">
        <ele>210.2</ele>
        <time>2022-03-08T14:02:26Z</time>
      </trkpt>
      <trkpt lat="43.54086" lon="2.01812">
        <ele>210.2</ele>
        <time>2022-03-08T14:02:27Z</time>
      </trkpt>
      <trkpt lat="43.54085" lon="2.01812">
        <ele>210.1</ele>
        <time>2022-03-08T14:02:29Z</time>
      </trkpt>
      <trkpt lat="43.54085" lon="2.01812">
        <ele>210.1</ele>
        <time>2022-03-08T14:02:30Z</time>
      </trkpt>
      <trkpt lat="43.54085" lon="2.01812">
        <ele>210.1</ele>
        <time>2022-03-08T14:02:31Z</time>
      </trkpt>
      <trkpt lat="43.54085" lon="2.01812">
        <ele>210.1</ele>
        <time>2022-03-08T14:02:32Z</time>
      </trkpt>
      <trkpt lat="43.54085" lon="2.01813">
        <ele>210.1</ele>
        <time>2022-03-08T14:02:33Z</time>
      </trkpt>
      <trkpt lat="43.54084" lon="2.01814">
        <ele>210.1</ele>
        <time>2022-03-08T14:02:34Z</time>
      </trkpt>
      <trkpt lat="43.54083" lon="2.01816">
        <ele>210</ele>
        <time>2022-03-08T14:02:35Z</time>
      </trkpt>
      <trkpt lat="43.54083" lon="2.01817">
        <ele>210</ele>
        <time>2022-03-08T14:02:37Z</time>
      </trkpt>
      <trkpt lat="43.54082" lon="2.01818">
        <ele>210</ele>
        <time>2022-03-08T14:02:38Z</time>
      </trkpt>
      <trkpt lat="43.54082" lon="2.0182">
        <ele>210</ele>
        <time>2022-03-08T14:02:39Z</time>
      </trkpt>
      <trkpt lat="43.54081" lon="2.01823">
        <ele>209.9</ele>
        <time>2022-03-08T14:02:40Z</time>
      </trkpt>
      <trkpt lat="43.54081" lon="2.01826">
        <ele>209.9</ele>
        <time>2022-03-08T14:02:42Z</time>
      </trkpt>
      <trkpt lat="43.5408" lon="2.01826">
        <ele>209.9</ele>
        <time>2022-03-08T14:02:43Z</time>
      </trkpt>
      <trkpt lat="43.5408" lon="2.01827">
        <ele>209.8</ele>
        <time>2022-03-08T14:02:45Z</time>
      </trkpt>
      <trkpt lat="43.5408" lon="2.01826">
        <ele>209.8</ele>
        <time>2022-03-08T14:02:46Z</time>
      </trkpt>
      <trkpt lat="43.5408" lon="2.01826">
        <ele>209.8</ele>
        <time>2022-03-08T14:02:47Z</time>
      </trkpt>
      <trkpt lat="43.5408" lon="2.01827">
        <ele>209.8</ele>
        <time>2022-03-08T14:02:48Z</time>
      </trkpt>
      <trkpt lat="43.54079" lon="2.01828">
        <ele>209.8</ele>
        <time>2022-03-08T14:02:50Z</time>
      </trkpt>
      <trkpt lat="43.54079" lon="2.0183">
        <ele>209.8</ele>
        <time>2022-03-08T14:02:51Z</time>
      </trkpt>
      <trkpt lat="43.54078" lon="2.01834">
        <ele>209.7</ele>
        <time>2022-03-08T14:02:52Z</time>
      </trkpt>
      <trkpt lat="43.54078" lon="2.01835">
        <ele>209.7</ele>
        <time>2022-03-08T14:02:53Z</time>
      </trkpt>
      <trkpt lat="43.54077" lon="2.01839">
        <ele>209.6</ele>
        <time>2022-03-08T14:02:54Z</time>
      </trkpt>
      <trkpt lat="43.54077" lon="2.01841">
        <ele>209.6</ele>
        <time>2022-03-08T14:02:55Z</time>
      </trkpt>
      <trkpt lat="43.54076" lon="2.01844">
        <ele>209.5</ele>
        <time>2022-03-08T14:02:57Z</time>
      </trkpt>
      <trkpt lat="43.54076" lon="2.01845">
        <ele>209.5</ele>
        <time>2022-03-08T14:02:58Z</time>
      </trkpt>
      <trkpt lat="43.54075" lon="2.01847">
        <ele>209.5</ele>
        <time>2022-03-08T14:02:59Z</time>
      </trkpt>
      <trkpt lat="43.54075" lon="2.01849">
        <ele>209.4</ele>
        <time>2022-03-08T14:03:00Z</time>
      </trkpt>
      <trkpt lat="43.54074" lon="2.0185">
        <ele>209.4</ele>
        <time>2022-03-08T14:03:01Z</time>
      </trkpt>
      <trkpt lat="43.54074" lon="2.01851">
        <ele>209.4</ele>
        <time>2022-03-08T14:03:02Z</time>
      </trkpt>
      <trkpt lat="43.54074" lon="2.01852">
        <ele>209.4</ele>
        <time>2022-03-08T14:03:03Z</time>
      </trkpt>
      <trkpt lat="43.54073" lon="2.01854">
        <ele>209.3</ele>
        <time>2022-03-08T14:03:04Z</time>
      </trkpt>
      <trkpt lat="43.54073" lon="2.01855">
        <ele>209.3</ele>
        <time>2022-03-08T14:03:05Z</time>
      </trkpt>
      <trkpt lat="43.54072" lon="2.01857">
        <ele>209.2</ele>
        <time>2022-03-08T14:03:06Z</time>
      </trkpt>
      <trkpt lat="43.54072" lon="2.01859">
        <ele>209.2</ele>
        <time>2022-03-08T14:03:08Z</time>
      </trkpt>
      <trkpt lat="43.54072" lon="2.01861">
        <ele>209.1</ele>
        <time>2022-03-08T14:03:09Z</time>
      </trkpt>
      <trkpt lat="43.54072" lon="2.01864">
        <ele>209</ele>
        <time>2022-03-08T14:03:10Z</time>
      </trkpt>
      <trkpt lat="43.54072" lon="2.01867">
        <ele>209</ele>
        <time>2022-03-08T14:03:11Z</time>
      </trkpt>
      <trkpt lat="43.54072" lon="2.01868">
        <ele>208.9</ele>
        <time>2022-03-08T14:03:12Z</time>
      </trkpt>
      <trkpt lat="43.54072" lon="2.0187">
        <ele>208.9</ele>
        <time>2022-03-08T14:03:13Z</time>
      </trkpt>
      <trkpt lat="43.54071" lon="2.01874">
        <ele>208.7</ele>
        <time>2022-03-08T14:03:15Z</time>
      </trkpt>
      <trkpt lat="43.54071" lon="2.01875">
        <ele>208.7</ele>
        <time>2022-03-08T14:03:16Z</time>
      </trkpt>
      <trkpt lat="43.5407" lon="2.01876">
        <ele>208.7</ele>
        <time>2022-03-08T14:03:17Z</time>
      </trkpt>
      <trkpt lat="43.5407" lon="2.01877">
        <ele>208.7</ele>
        <time>2022-03-08T14:03:18Z</time>
      </trkpt>
      <trkpt lat="43.5407" lon="2.01877">
        <ele>208.6</ele>
        <time>2022-03-08T14:03:19Z</time>
      </trkpt>
      <trkpt lat="43.5407" lon="2.01878">
        <ele>208.6</ele>
        <time>2022-03-08T14:03:20Z</time>
      </trkpt>
      <trkpt lat="43.5407" lon="2.0188">
        <ele>208.6</ele>
        <time>2022-03-08T14:03:21Z</time>
      </trkpt>
      <trkpt lat="43.5407" lon="2.01882">
        <ele>208.5</ele>
        <time>2022-03-08T14:03:22Z</time>
      </trkpt>
      <trkpt lat="43.54069" lon="2.01884">
        <ele>208.5</ele>
        <time>2022-03-08T14:03:24Z</time>
      </trkpt>
      <trkpt lat="43.54069" lon="2.01886">
        <ele>208.4</ele>
        <time>2022-03-08T14:03:25Z</time>
      </trkpt>
      <trkpt lat="43.54069" lon="2.01888">
        <ele>208.4</ele>
        <time>2022-03-08T14:03:26Z</time>
      </trkpt>
      <trkpt lat="43.54069" lon="2.0189">
        <ele>208.3</ele>
        <time>2022-03-08T14:03:27Z</time>
      </trkpt>
      <trkpt lat="43.54068" lon="2.01892">
        <ele>208.3</ele>
        <time>2022-03-08T14:03:28Z</time>
      </trkpt>
      <trkpt lat="43.54068" lon="2.01892">
        <ele>208.3</ele>
        <time>2022-03-08T14:03:29Z</time>
      </trkpt>
      <trkpt lat="43.54068" lon="2.01893">
        <ele>208.3</ele>
        <time>2022-03-08T14:03:30Z</time>
      </trkpt>
      <trkpt lat="43.54067" lon="2.01894">
        <ele>208.2</ele>
        <time>2022-03-08T14:03:31Z</time>
      </trkpt>
      <trkpt lat="43.54067" lon="2.01895">
        <ele>208.2</ele>
        <time>2022-03-08T14:03:32Z</time>
      </trkpt>
      <trkpt lat="43.54067" lon="2.01896">
        <ele>208.2</ele>
        <time>2022-03-08T14:03:33Z</time>
      </trkpt>
      <trkpt lat="43.54067" lon="2.01898">
        <ele>208.2</ele>
        <time>2022-03-08T14:03:34Z</time>
      </trkpt>
      <trkpt lat="43.54067" lon="2.01899">
        <ele>208.2</ele>
        <time>2022-03-08T14:03:35Z</time>
      </trkpt>
      <trkpt lat="43.54067" lon="2.019">
        <ele>208.1</ele>
        <time>2022-03-08T14:03:36Z</time>
      </trkpt>
      <trkpt lat="43.54068" lon="2.01901">
        <ele>208.1</ele>
        <time>2022-03-08T14:03:37Z</time>
      </trkpt>
      <trkpt lat="43.54068" lon="2.01902">
        <ele>208.1</ele>
        <time>2022-03-08T14:03:39Z</time>
      </trkpt>
      <trkpt lat="43.54067" lon="2.01904">
        <ele>208.1</ele>
        <time>2022-03-08T14:03:40Z</time>
      </trkpt>
      <trkpt lat="43.54067" lon="2.01905">
        <ele>208.1</ele>
        <time>2022-03-08T14:03:41Z</time>
      </trkpt>
      <trkpt lat="43.54067" lon="2.01907">
        <ele>208</ele>
        <time>2022-03-08T14:03:42Z</time>
      </trkpt>
      <trkpt lat="43.54067" lon="2.01909">
        <ele>208</ele>
        <time>2022-03-08T14:03:43Z</time>
      </trkpt>
      <trkpt lat="43.54067" lon="2.01913">
        <ele>207.9</ele>
        <time>2022-03-08T14:03:44Z</time>
      </trkpt>
      <trkpt lat="43.54067" lon="2.01914">
        <ele>207.9</ele>
        <time>2022-03-08T14:03:45Z</time>
      </trkpt>
      <trkpt lat="43.54067" lon="2.01916">
        <ele>207.9</ele>
        <time>2022-03-08T14:03:46Z</time>
      </trkpt>
      <trkpt lat="43.54066" lon="2.01918">
        <ele>207.8</ele>
        <time>2022-03-08T14:03:47Z</time>
      </trkpt>
      <trkpt lat="43.54065" lon="2.01919">
        <ele>207.8</ele>
        <time>2022-03-08T14:03:49Z</time>
      </trkpt>
      <trkpt lat="43.54064" lon="2.01921">
        <ele>207.8</ele>
        <time>2022-03-08T14:03:50Z</time>
      </trkpt>
      <trkpt lat="43.54064" lon="2.01922">
        <ele>207.7</ele>
        <time>2022-03-08T14:03:51Z</time>
      </trkpt>
      <trkpt lat="43.54063" lon="2.01925">
        <ele>207.7</ele>
        <time>2022-03-08T14:03:52Z</time>
      </trkpt>
      <trkpt lat="43.54063" lon="2.01926">
        <ele>207.7</ele>
        <time>2022-03-08T14:03:53Z</time>
      </trkpt>
      <trkpt lat="43.54062" lon="2.01927">
        <ele>207.6</ele>
        <time>2022-03-08T14:03:54Z</time>
      </trkpt>
      <trkpt lat="43.54061" lon="2.01928">
        <ele>207.6</ele>
        <time>2022-03-08T14:03:55Z</time>
      </trkpt>
      <trkpt lat="43.54059" lon="2.01932">
        <ele>207.5</ele>
        <time>2022-03-08T14:03:56Z</time>
      </trkpt>
      <trkpt lat="43.54059" lon="2.01933">
        <ele>207.5</ele>
        <time>2022-03-08T14:03:57Z</time>
      </trkpt>
      <trkpt lat="43.54057" lon="2.01935">
        <ele>207.5</ele>
        <time>2022-03-08T14:03:59Z</time>
      </trkpt>
      <trkpt lat="43.54056" lon="2.01936">
        <ele>207.4</ele>
        <time>2022-03-08T14:04:00Z</time>
      </trkpt>
      <trkpt lat="43.54056" lon="2.01938">
        <ele>207.4</ele>
        <time>2022-03-08T14:04:01Z</time>
      </trkpt>
      <trkpt lat="43.54055" lon="2.0194">
        <ele>207.4</ele>
        <time>2022-03-08T14:04:02Z</time>
      </trkpt>
      <trkpt lat="43.54054" lon="2.01942">
        <ele>207.4</ele>
        <time>2022-03-08T14:04:03Z</time>
      </trkpt>
      <trkpt lat="43.54054" lon="2.01944">
        <ele>207.4</ele>
        <time>2022-03-08T14:04:04Z</time>
      </trkpt>
      <trkpt lat="43.54053" lon="2.01945">
        <ele>207.3</ele>
        <time>2022-03-08T14:04:05Z</time>
      </trkpt>
      <trkpt lat="43.54053" lon="2.01947">
        <ele>207.3</ele>
        <time>2022-03-08T14:04:06Z</time>
      </trkpt>
      <trkpt lat="43.54053" lon="2.01948">
        <ele>207.3</ele>
        <time>2022-03-08T14:04:07Z</time>
      </trkpt>
      <trkpt lat="43.54052" lon="2.01951">
        <ele>207.3</ele>
        <time>2022-03-08T14:04:08Z</time>
      </trkpt>
      <trkpt lat="43.54052" lon="2.01953">
        <ele>207.3</ele>
        <time>2022-03-08T14:04:09Z</time>
      </trkpt>
      <trkpt lat="43.54052" lon="2.01954">
        <ele>207.3</ele>
        <time>2022-03-08T14:04:10Z</time>
      </trkpt>
      <trkpt lat="43.54051" lon="2.01955">
        <ele>207.3</ele>
        <time>2022-03-08T14:04:11Z</time>
      </trkpt>
      <trkpt lat="43.54051" lon="2.01957">
        <ele>207.3</ele>
        <time>2022-03-08T14:04:12Z</time>
      </trkpt>
      <trkpt lat="43.54051" lon="2.01958">
        <ele>207.2</ele>
        <time>2022-03-08T14:04:13Z</time>
      </trkpt>
      <trkpt lat="43.54052" lon="2.0196">
        <ele>207.2</ele>
        <time>2022-03-08T14:04:14Z</time>
      </trkpt>
      <trkpt lat="43.54052" lon="2.01962">
        <ele>207.2</ele>
        <time>2022-03-08T14:04:15Z</time>
      </trkpt>
      <trkpt lat="43.54052" lon="2.01965">
        <ele>207.2</ele>
        <time>2022-03-08T14:04:16Z</time>
      </trkpt>
      <trkpt lat="43.54052" lon="2.01966">
        <ele>207.2</ele>
        <time>2022-03-08T14:04:17Z</time>
      </trkpt>
      <trkpt lat="43.54052" lon="2.01968">
        <ele>207.2</ele>
        <time>2022-03-08T14:04:18Z</time>
      </trkpt>
      <trkpt lat="43.54051" lon="2.01971">
        <ele>207.1</ele>
        <time>2022-03-08T14:04:20Z</time>
      </trkpt>
      <trkpt lat="43.54051" lon="2.01973">
        <ele>207.1</ele>
        <time>2022-03-08T14:04:21Z</time>
      </trkpt>
      <trkpt lat="43.5405" lon="2.01974">
        <ele>207.1</ele>
        <time>2022-03-08T14:04:22Z</time>
      </trkpt>
      <trkpt lat="43.5405" lon="2.01976">
        <ele>207.1</ele>
        <time>2022-03-08T14:04:23Z</time>
      </trkpt>
      <trkpt lat="43.54049" lon="2.01978">
        <ele>207.1</ele>
        <time>2022-03-08T14:04:25Z</time>
      </trkpt>
      <trkpt lat="43.54049" lon="2.0198">
        <ele>207</ele>
        <time>2022-03-08T14:04:26Z</time>
      </trkpt>
      <trkpt lat="43.54048" lon="2.01981">
        <ele>207</ele>
        <time>2022-03-08T14:04:27Z</time>
      </trkpt>
      <trkpt lat="43.54047" lon="2.01982">
        <ele>207</ele>
        <time>2022-03-08T14:04:28Z</time>
      </trkpt>
      <trkpt lat="43.54047" lon="2.01984">
        <ele>207</ele>
        <time>2022-03-08T14:04:30Z</time>
      </trkpt>
      <trkpt lat="43.54045" lon="2.01988">
        <ele>206.9</ele>
        <time>2022-03-08T14:04:32Z</time>
      </trkpt>
      <trkpt lat="43.54045" lon="2.01989">
        <ele>206.9</ele>
        <time>2022-03-08T14:04:33Z</time>
      </trkpt>
      <trkpt lat="43.54044" lon="2.01991">
        <ele>206.9</ele>
        <time>2022-03-08T14:04:34Z</time>
      </trkpt>
      <trkpt lat="43.54044" lon="2.01992">
        <ele>206.9</ele>
        <time>2022-03-08T14:04:35Z</time>
      </trkpt>
      <trkpt lat="43.54044" lon="2.01993">
        <ele>206.9</ele>
        <time>2022-03-08T14:04:36Z</time>
      </trkpt>
      <trkpt lat="43.54042" lon="2.01996">
        <ele>206.9</ele>
        <time>2022-03-08T14:04:38Z</time>
      </trkpt>
      <trkpt lat="43.54042" lon="2.01998">
        <ele>206.9</ele>
        <time>2022-03-08T14:04:39Z</time>
      </trkpt>
      <trkpt lat="43.54041" lon="2.02002">
        <ele>206.9</ele>
        <time>2022-03-08T14:04:41Z</time>
      </trkpt>
      <trkpt lat="43.54041" lon="2.02003">
        <ele>206.9</ele>
        <time>2022-03-08T14:04:42Z</time>
      </trkpt>
      <trkpt lat="43.54041" lon="2.02004">
        <ele>206.9</ele>
        <time>2022-03-08T14:04:44Z</time>
      </trkpt>
      <trkpt lat="43.5404" lon="2.02004">
        <ele>206.9</ele>
        <time>2022-03-08T14:04:45Z</time>
      </trkpt>
      <trkpt lat="43.5404" lon="2.02005">
        <ele>206.9</ele>
        <time>2022-03-08T14:04:46Z</time>
      </trkpt>
      <trkpt lat="43.5404" lon="2.02007">
        <ele>207</ele>
        <time>2022-03-08T14:04:47Z</time>
      </trkpt>
      <trkpt lat="43.54039" lon="2.02008">
        <ele>207</ele>
        <time>2022-03-08T14:04:49Z</time>
      </trkpt>
      <trkpt lat="43.54039" lon="2.02009">
        <ele>207</ele>
        <time>2022-03-08T14:04:50Z</time>
      </trkpt>
      <trkpt lat="43.54039" lon="2.0201">
        <ele>207</ele>
        <time>2022-03-08T14:04:51Z</time>
      </trkpt>
      <trkpt lat="43.54039" lon="2.02011">
        <ele>207</ele>
        <time>2022-03-08T14:04:52Z</time>
      </trkpt>
      <trkpt lat="43.54038" lon="2.02014">
        <ele>207</ele>
        <time>2022-03-08T14:04:53Z</time>
      </trkpt>
      <trkpt lat="43.54038" lon="2.02015">
        <ele>207</ele>
        <time>2022-03-08T14:04:54Z</time>
      </trkpt>
      <trkpt lat="43.54038" lon="2.02016">
        <ele>207.1</ele>
        <time>2022-03-08T14:04:55Z</time>
      </trkpt>
      <trkpt lat="43.54038" lon="2.02019">
        <ele>207.1</ele>
        <time>2022-03-08T14:04:56Z</time>
      </trkpt>
      <trkpt lat="43.54037" lon="2.0202">
        <ele>207.1</ele>
        <time>2022-03-08T14:04:57Z</time>
      </trkpt>
      <trkpt lat="43.54037" lon="2.02021">
        <ele>207.1</ele>
        <time>2022-03-08T14:04:58Z</time>
      </trkpt>
      <trkpt lat="43.54036" lon="2.02026">
        <ele>207.2</ele>
        <time>2022-03-08T14:04:59Z</time>
      </trkpt>
      <trkpt lat="43.54036" lon="2.02027">
        <ele>207.2</ele>
        <time>2022-03-08T14:05:00Z</time>
      </trkpt>
      <trkpt lat="43.54036" lon="2.02029">
        <ele>207.2</ele>
        <time>2022-03-08T14:05:01Z</time>
      </trkpt>
      <trkpt lat="43.54036" lon="2.02031">
        <ele>207.2</ele>
        <time>2022-03-08T14:05:02Z</time>
      </trkpt>
      <trkpt lat="43.54035" lon="2.02032">
        <ele>207.2</ele>
        <time>2022-03-08T14:05:03Z</time>
      </trkpt>
      <trkpt lat="43.54034" lon="2.02035">
        <ele>207.2</ele>
        <time>2022-03-08T14:05:04Z</time>
      </trkpt>
      <trkpt lat="43.54034" lon="2.02037">
        <ele>207.2</ele>
        <time>2022-03-08T14:05:06Z</time>
      </trkpt>
      <trkpt lat="43.54033" lon="2.02039">
        <ele>207.3</ele>
        <time>2022-03-08T14:05:08Z</time>
      </trkpt>
      <trkpt lat="43.54033" lon="2.02041">
        <ele>207.3</ele>
        <time>2022-03-08T14:05:09Z</time>
      </trkpt>
      <trkpt lat="43.54033" lon="2.02042">
        <ele>207.3</ele>
        <time>2022-03-08T14:05:10Z</time>
      </trkpt>
      <trkpt lat="43.54032" lon="2.02043">
        <ele>207.3</ele>
        <time>2022-03-08T14:05:11Z</time>
      </trkpt>
      <trkpt lat="43.54032" lon="2.02044">
        <ele>207.3</ele>
        <time>2022-03-08T14:05:12Z</time>
      </trkpt>
      <trkpt lat="43.54031" lon="2.02046">
        <ele>207.3</ele>
        <time>2022-03-08T14:05:14Z</time>
      </trkpt>
      <trkpt lat="43.54031" lon="2.02048">
        <ele>207.3</ele>
        <time>2022-03-08T14:05:15Z</time>
      </trkpt>
      <trkpt lat="43.54031" lon="2.02049">
        <ele>207.3</ele>
        <time>2022-03-08T14:05:16Z</time>
      </trkpt>
      <trkpt lat="43.54031" lon="2.02051">
        <ele>207.3</ele>
        <time>2022-03-08T14:05:17Z</time>
      </trkpt>
      <trkpt lat="43.54031" lon="2.02053">
        <ele>207.3</ele>
        <time>2022-03-08T14:05:18Z</time>
      </trkpt>
      <trkpt lat="43.54032" lon="2.02056">
        <ele>207.3</ele>
        <time>2022-03-08T14:05:20Z</time>
      </trkpt>
      <trkpt lat="43.54032" lon="2.02057">
        <ele>207.3</ele>
        <time>2022-03-08T14:05:21Z</time>
      </trkpt>
      <trkpt lat="43.54032" lon="2.02058">
        <ele>207.3</ele>
        <time>2022-03-08T14:05:22Z</time>
      </trkpt>
      <trkpt lat="43.54033" lon="2.0206">
        <ele>207.2</ele>
        <time>2022-03-08T14:05:23Z</time>
      </trkpt>
      <trkpt lat="43.54035" lon="2.02061">
        <ele>207.2</ele>
        <time>2022-03-08T14:05:24Z</time>
      </trkpt>
      <trkpt lat="43.54037" lon="2.02063">
        <ele>207.2</ele>
        <time>2022-03-08T14:05:25Z</time>
      </trkpt>
      <trkpt lat="43.54038" lon="2.02064">
        <ele>207.2</ele>
        <time>2022-03-08T14:05:26Z</time>
      </trkpt>
      <trkpt lat="43.54041" lon="2.02065">
        <ele>207.2</ele>
        <time>2022-03-08T14:05:28Z</time>
      </trkpt>
      <trkpt lat="43.54042" lon="2.02066">
        <ele>207.2</ele>
        <time>2022-03-08T14:05:29Z</time>
      </trkpt>
      <trkpt lat="43.54045" lon="2.02065">
        <ele>207.2</ele>
        <time>2022-03-08T14:05:30Z</time>
      </trkpt>
      <trkpt lat="43.54046" lon="2.02065">
        <ele>207.2</ele>
        <time>2022-03-08T14:05:31Z</time>
      </trkpt>
      <trkpt lat="43.54047" lon="2.02065">
        <ele>207.2</ele>
        <time>2022-03-08T14:05:32Z</time>
      </trkpt>
      <trkpt lat="43.54049" lon="2.02065">
        <ele>207.2</ele>
        <time>2022-03-08T14:05:33Z</time>
      </trkpt>
      <trkpt lat="43.54051" lon="2.02065">
        <ele>207.2</ele>
        <time>2022-03-08T14:05:34Z</time>
      </trkpt>
      <trkpt lat="43.54052" lon="2.02064">
        <ele>207.2</ele>
        <time>2022-03-08T14:05:35Z</time>
      </trkpt>
      <trkpt lat="43.54054" lon="2.02064">
        <ele>207.2</ele>
        <time>2022-03-08T14:05:36Z</time>
      </trkpt>
      <trkpt lat="43.54055" lon="2.02064">
        <ele>207.2</ele>
        <time>2022-03-08T14:05:37Z</time>
      </trkpt>
      <trkpt lat="43.54056" lon="2.02063">
        <ele>207.2</ele>
        <time>2022-03-08T14:05:39Z</time>
      </trkpt>
      <trkpt lat="43.54058" lon="2.02062">
        <ele>207.2</ele>
        <time>2022-03-08T14:05:40Z</time>
      </trkpt>
      <trkpt lat="43.54059" lon="2.02062">
        <ele>207.2</ele>
        <time>2022-03-08T14:05:41Z</time>
      </trkpt>
      <trkpt lat="43.54061" lon="2.02062">
        <ele>207.2</ele>
        <time>2022-03-08T14:05:42Z</time>
      </trkpt>
      <trkpt lat="43.54062" lon="2.02061">
        <ele>207.2</ele>
        <time>2022-03-08T14:05:44Z</time>
      </trkpt>
      <trkpt lat="43.54063" lon="2.02061">
        <ele>207.2</ele>
        <time>2022-03-08T14:05:45Z</time>
      </trkpt>
      <trkpt lat="43.54066" lon="2.02061">
        <ele>207.2</ele>
        <time>2022-03-08T14:05:47Z</time>
      </trkpt>
      <trkpt lat="43.54067" lon="2.02061">
        <ele>207.2</ele>
        <time>2022-03-08T14:05:48Z</time>
      </trkpt>
      <trkpt lat="43.54068" lon="2.02061">
        <ele>207.3</ele>
        <time>2022-03-08T14:05:49Z</time>
      </trkpt>
      <trkpt lat="43.54069" lon="2.02062">
        <ele>207.3</ele>
        <time>2022-03-08T14:05:50Z</time>
      </trkpt>
      <trkpt lat="43.5407" lon="2.02062">
        <ele>207.3</ele>
        <time>2022-03-08T14:05:51Z</time>
      </trkpt>
      <trkpt lat="43.54071" lon="2.02064">
        <ele>207.3</ele>
        <time>2022-03-08T14:05:52Z</time>
      </trkpt>
      <trkpt lat="43.54072" lon="2.02065">
        <ele>207.3</ele>
        <time>2022-03-08T14:05:54Z</time>
      </trkpt>
      <trkpt lat="43.54073" lon="2.02067">
        <ele>207.3</ele>
        <time>2022-03-08T14:05:55Z</time>
      </trkpt>
      <trkpt lat="43.54074" lon="2.02068">
        <ele>207.3</ele>
        <time>2022-03-08T14:05:56Z</time>
      </trkpt>
      <trkpt lat="43.54074" lon="2.02069">
        <ele>207.3</ele>
        <time>2022-03-08T14:05:57Z</time>
      </trkpt>
      <trkpt lat="43.54076" lon="2.0207">
        <ele>207.3</ele>
        <time>2022-03-08T14:05:58Z</time>
      </trkpt>
      <trkpt lat="43.54077" lon="2.02071">
        <ele>207.3</ele>
        <time>2022-03-08T14:05:59Z</time>
      </trkpt>
      <trkpt lat="43.54077" lon="2.02072">
        <ele>207.3</ele>
        <time>2022-03-08T14:06:01Z</time>
      </trkpt>
      <trkpt lat="43.54078" lon="2.02073">
        <ele>207.3</ele>
        <time>2022-03-08T14:06:02Z</time>
      </trkpt>
      <trkpt lat="43.54079" lon="2.02074">
        <ele>207.3</ele>
        <time>2022-03-08T14:06:03Z</time>
      </trkpt>
      <trkpt lat="43.54081" lon="2.02075">
        <ele>207.3</ele>
        <time>2022-03-08T14:06:05Z</time>
      </trkpt>
      <trkpt lat="43.54082" lon="2.02075">
        <ele>207.3</ele>
        <time>2022-03-08T14:06:06Z</time>
      </trkpt>
      <trkpt lat="43.54084" lon="2.02076">
        <ele>207.3</ele>
        <time>2022-03-08T14:06:07Z</time>
      </trkpt>
      <trkpt lat="43.54085" lon="2.02076">
        <ele>207.3</ele>
        <time>2022-03-08T14:06:08Z</time>
      </trkpt>
      <trkpt lat="43.54086" lon="2.02077">
        <ele>207.3</ele>
        <time>2022-03-08T14:06:09Z</time>
      </trkpt>
      <trkpt lat="43.54088" lon="2.02079">
        <ele>207.3</ele>
        <time>2022-03-08T14:06:10Z</time>
      </trkpt>
      <trkpt lat="43.54088" lon="2.0208">
        <ele>207.2</ele>
        <time>2022-03-08T14:06:11Z</time>
      </trkpt>
      <trkpt lat="43.54089" lon="2.02081">
        <ele>207.2</ele>
        <time>2022-03-08T14:06:12Z</time>
      </trkpt>
      <trkpt lat="43.5409" lon="2.02083">
        <ele>207.2</ele>
        <time>2022-03-08T14:06:13Z</time>
      </trkpt>
      <trkpt lat="43.54091" lon="2.02083">
        <ele>207.2</ele>
        <time>2022-03-08T14:06:15Z</time>
      </trkpt>
      <trkpt lat="43.54091" lon="2.02084">
        <ele>207.2</ele>
        <time>2022-03-08T14:06:16Z</time>
      </trkpt>
      <trkpt lat="43.54093" lon="2.02085">
        <ele>207.1</ele>
        <time>2022-03-08T14:06:17Z</time>
      </trkpt>
      <trkpt lat="43.54093" lon="2.02086">
        <ele>207.1</ele>
        <time>2022-03-08T14:06:18Z</time>
      </trkpt>
      <trkpt lat="43.54094" lon="2.02087">
        <ele>207.1</ele>
        <time>2022-03-08T14:06:19Z</time>
      </trkpt>
      <trkpt lat="43.54095" lon="2.02088">
        <ele>207</ele>
        <time>2022-03-08T14:06:21Z</time>
      </trkpt>
      <trkpt lat="43.54095" lon="2.0209">
        <ele>207</ele>
        <time>2022-03-08T14:06:22Z</time>
      </trkpt>
      <trkpt lat="43.54094" lon="2.02091">
        <ele>207</ele>
        <time>2022-03-08T14:06:23Z</time>
      </trkpt>
      <trkpt lat="43.54094" lon="2.02091">
        <ele>207</ele>
        <time>2022-03-08T14:06:24Z</time>
      </trkpt>
      <trkpt lat="43.54094" lon="2.02091">
        <ele>207</ele>
        <time>2022-03-08T14:06:25Z</time>
      </trkpt>
      <trkpt lat="43.54093" lon="2.02091">
        <ele>207</ele>
        <time>2022-03-08T14:06:26Z</time>
      </trkpt>
      <trkpt lat="43.54093" lon="2.02091">
        <ele>207</ele>
        <time>2022-03-08T14:06:27Z</time>
      </trkpt>
      <trkpt lat="43.54093" lon="2.02091">
        <ele>207</ele>
        <time>2022-03-08T14:06:28Z</time>
      </trkpt>
      <trkpt lat="43.54093" lon="2.02091">
        <ele>207</ele>
        <time>2022-03-08T14:06:29Z</time>
      </trkpt>
      <trkpt lat="43.54093" lon="2.02091">
        <ele>207</ele>
        <time>2022-03-08T14:06:30Z</time>
      </trkpt>
      <trkpt lat="43.54093" lon="2.02092">
        <ele>207</ele>
        <time>2022-03-08T14:06:32Z</time>
      </trkpt>
      <trkpt lat="43.54093" lon="2.02092">
        <ele>207</ele>
        <time>2022-03-08T14:06:33Z</time>
      </trkpt>
      <trkpt lat="43.54094" lon="2.02093">
        <ele>207</ele>
        <time>2022-03-08T14:06:34Z</time>
      </trkpt>
      <trkpt lat="43.54095" lon="2.02094">
        <ele>207</ele>
        <time>2022-03-08T14:06:35Z</time>
      </trkpt>
      <trkpt lat="43.54096" lon="2.02094">
        <ele>207</ele>
        <time>2022-03-08T14:06:36Z</time>
      </trkpt>
      <trkpt lat="43.54097" lon="2.02095">
        <ele>206.9</ele>
        <time>2022-03-08T14:06:37Z</time>
      </trkpt>
      <trkpt lat="43.54098" lon="2.02096">
        <ele>206.9</ele>
        <time>2022-03-08T14:06:38Z</time>
      </trkpt>
      <trkpt lat="43.541" lon="2.02097">
        <ele>206.8</ele>
        <time>2022-03-08T14:06:39Z</time>
      </trkpt>
      <trkpt lat="43.54101" lon="2.02099">
        <ele>206.8</ele>
        <time>2022-03-08T14:06:40Z</time>
      </trkpt>
      <trkpt lat="43.54104" lon="2.02101">
        <ele>206.8</ele>
        <time>2022-03-08T14:06:41Z</time>
      </trkpt>
      <trkpt lat="43.54105" lon="2.02102">
        <ele>206.7</ele>
        <time>2022-03-08T14:06:42Z</time>
      </trkpt>
      <trkpt lat="43.54107" lon="2.02103">
        <ele>206.7</ele>
        <time>2022-03-08T14:06:43Z</time>
      </trkpt>
      <trkpt lat="43.54108" lon="2.02104">
        <ele>206.7</ele>
        <time>2022-03-08T14:06:44Z</time>
      </trkpt>
      <trkpt lat="43.54111" lon="2.02106">
        <ele>206.6</ele>
        <time>2022-03-08T14:06:45Z</time>
      </trkpt>
      <trkpt lat="43.54112" lon="2.02107">
        <ele>206.6</ele>
        <time>2022-03-08T14:06:46Z</time>
      </trkpt>
      <trkpt lat="43.54115" lon="2.02108">
        <ele>206.6</ele>
        <time>2022-03-08T14:06:48Z</time>
      </trkpt>
      <trkpt lat="43.54116" lon="2.02109">
        <ele>206.6</ele>
        <time>2022-03-08T14:06:49Z</time>
      </trkpt>
      <trkpt lat="43.54117" lon="2.02109">
        <ele>206.6</ele>
        <time>2022-03-08T14:06:50Z</time>
      </trkpt>
      <trkpt lat="43.54119" lon="2.0211">
        <ele>206.5</ele>
        <time>2022-03-08T14:06:51Z</time>
      </trkpt>
      <trkpt lat="43.54121" lon="2.02111">
        <ele>206.5</ele>
        <time>2022-03-08T14:06:52Z</time>
      </trkpt>
      <trkpt lat="43.54122" lon="2.02112">
        <ele>206.5</ele>
        <time>2022-03-08T14:06:54Z</time>
      </trkpt>
      <trkpt lat="43.54124" lon="2.02113">
        <ele>206.5</ele>
        <time>2022-03-08T14:06:55Z</time>
      </trkpt>
      <trkpt lat="43.54125" lon="2.02114">
        <ele>206.5</ele>
        <time>2022-03-08T14:06:56Z</time>
      </trkpt>
      <trkpt lat="43.54126" lon="2.02114">
        <ele>206.4</ele>
        <time>2022-03-08T14:06:57Z</time>
      </trkpt>
      <trkpt lat="43.54127" lon="2.02115">
        <ele>206.4</ele>
        <time>2022-03-08T14:06:58Z</time>
      </trkpt>
      <trkpt lat="43.54129" lon="2.02116">
        <ele>206.4</ele>
        <time>2022-03-08T14:06:59Z</time>
      </trkpt>
      <trkpt lat="43.54131" lon="2.02117">
        <ele>206.4</ele>
        <time>2022-03-08T14:07:00Z</time>
      </trkpt>
      <trkpt lat="43.54131" lon="2.02118">
        <ele>206.4</ele>
        <time>2022-03-08T14:07:01Z</time>
      </trkpt>
      <trkpt lat="43.54132" lon="2.02119">
        <ele>206.3</ele>
        <time>2022-03-08T14:07:02Z</time>
      </trkpt>
      <trkpt lat="43.54134" lon="2.0212">
        <ele>206.3</ele>
        <time>2022-03-08T14:07:03Z</time>
      </trkpt>
      <trkpt lat="43.54135" lon="2.02121">
        <ele>206.3</ele>
        <time>2022-03-08T14:07:04Z</time>
      </trkpt>
      <trkpt lat="43.54136" lon="2.02122">
        <ele>206.3</ele>
        <time>2022-03-08T14:07:05Z</time>
      </trkpt>
      <trkpt lat="43.54136" lon="2.02123">
        <ele>206.3</ele>
        <time>2022-03-08T14:07:06Z</time>
      </trkpt>
      <trkpt lat="43.54137" lon="2.02125">
        <ele>206.3</ele>
        <time>2022-03-08T14:07:07Z</time>
      </trkpt>
      <trkpt lat="43.54138" lon="2.02125">
        <ele>206.3</ele>
        <time>2022-03-08T14:07:08Z</time>
      </trkpt>
      <trkpt lat="43.54139" lon="2.02126">
        <ele>206.3</ele>
        <time>2022-03-08T14:07:09Z</time>
      </trkpt>
      <trkpt lat="43.5414" lon="2.02127">
        <ele>206.2</ele>
        <time>2022-03-08T14:07:10Z</time>
      </trkpt>
      <trkpt lat="43.5414" lon="2.02129">
        <ele>206.2</ele>
        <time>2022-03-08T14:07:11Z</time>
      </trkpt>
      <trkpt lat="43.54139" lon="2.02129">
        <ele>206.2</ele>
        <time>2022-03-08T14:07:12Z</time>
      </trkpt>
      <trkpt lat="43.54138" lon="2.0213">
        <ele>206.2</ele>
        <time>2022-03-08T14:07:13Z</time>
      </trkpt>
      <trkpt lat="43.54138" lon="2.02131">
        <ele>206.2</ele>
        <time>2022-03-08T14:07:14Z</time>
      </trkpt>
      <trkpt lat="43.54139" lon="2.02132">
        <ele>206.2</ele>
        <time>2022-03-08T14:07:15Z</time>
      </trkpt>
      <trkpt lat="43.5414" lon="2.02133">
        <ele>206.2</ele>
        <time>2022-03-08T14:07:16Z</time>
      </trkpt>
      <trkpt lat="43.54142" lon="2.02134">
        <ele>206.2</ele>
        <time>2022-03-08T14:07:18Z</time>
      </trkpt>
      <trkpt lat="43.54143" lon="2.02135">
        <ele>206.2</ele>
        <time>2022-03-08T14:07:19Z</time>
      </trkpt>
      <trkpt lat="43.54144" lon="2.02135">
        <ele>206.2</ele>
        <time>2022-03-08T14:07:20Z</time>
      </trkpt>
      <trkpt lat="43.54145" lon="2.02136">
        <ele>206.2</ele>
        <time>2022-03-08T14:07:21Z</time>
      </trkpt>
      <trkpt lat="43.54146" lon="2.02137">
        <ele>206.1</ele>
        <time>2022-03-08T14:07:22Z</time>
      </trkpt>
      <trkpt lat="43.54148" lon="2.02138">
        <ele>206.1</ele>
        <time>2022-03-08T14:07:23Z</time>
      </trkpt>
      <trkpt lat="43.54149" lon="2.02139">
        <ele>206.1</ele>
        <time>2022-03-08T14:07:24Z</time>
      </trkpt>
      <trkpt lat="43.54151" lon="2.0214">
        <ele>206.1</ele>
        <time>2022-03-08T14:07:26Z</time>
      </trkpt>
      <trkpt lat="43.54152" lon="2.02141">
        <ele>206.1</ele>
        <time>2022-03-08T14:07:27Z</time>
      </trkpt>
      <trkpt lat="43.54153" lon="2.02142">
        <ele>206.1</ele>
        <time>2022-03-08T14:07:28Z</time>
      </trkpt>
      <trkpt lat="43.54155" lon="2.02142">
        <ele>206.1</ele>
        <time>2022-03-08T14:07:29Z</time>
      </trkpt>
      <trkpt lat="43.54155" lon="2.02143">
        <ele>206.1</ele>
        <time>2022-03-08T14:07:30Z</time>
      </trkpt>
      <trkpt lat="43.54156" lon="2.02144">
        <ele>206.1</ele>
        <time>2022-03-08T14:07:31Z</time>
      </trkpt>
      <trkpt lat="43.54157" lon="2.02144">
        <ele>206.1</ele>
        <time>2022-03-08T14:07:32Z</time>
      </trkpt>
      <trkpt lat="43.54159" lon="2.02146">
        <ele>206</ele>
        <time>2022-03-08T14:07:34Z</time>
      </trkpt>
      <trkpt lat="43.5416" lon="2.02146">
        <ele>206</ele>
        <time>2022-03-08T14:07:35Z</time>
      </trkpt>
      <trkpt lat="43.54161" lon="2.02147">
        <ele>206</ele>
        <time>2022-03-08T14:07:36Z</time>
      </trkpt>
      <trkpt lat="43.54162" lon="2.02147">
        <ele>206</ele>
        <time>2022-03-08T14:07:37Z</time>
      </trkpt>
      <trkpt lat="43.54163" lon="2.02148">
        <ele>206</ele>
        <time>2022-03-08T14:07:38Z</time>
      </trkpt>
      <trkpt lat="43.54163" lon="2.02149">
        <ele>206</ele>
        <time>2022-03-08T14:07:39Z</time>
      </trkpt>
      <trkpt lat="43.54163" lon="2.02151">
        <ele>206</ele>
        <time>2022-03-08T14:07:41Z</time>
      </trkpt>
      <trkpt lat="43.54163" lon="2.02152">
        <ele>206</ele>
        <time>2022-03-08T14:07:42Z</time>
      </trkpt>
      <trkpt lat="43.54163" lon="2.02154">
        <ele>206</ele>
        <time>2022-03-08T14:07:43Z</time>
      </trkpt>
      <trkpt lat="43.54164" lon="2.02154">
        <ele>206</ele>
        <time>2022-03-08T14:07:44Z</time>
      </trkpt>
      <trkpt lat="43.54164" lon="2.02155">
        <ele>206</ele>
        <time>2022-03-08T14:07:45Z</time>
      </trkpt>
      <trkpt lat="43.54165" lon="2.02156">
        <ele>205.9</ele>
        <time>2022-03-08T14:07:46Z</time>
      </trkpt>
      <trkpt lat="43.54166" lon="2.02157">
        <ele>205.9</ele>
        <time>2022-03-08T14:07:47Z</time>
      </trkpt>
      <trkpt lat="43.54168" lon="2.02158">
        <ele>205.8</ele>
        <time>2022-03-08T14:07:48Z</time>
      </trkpt>
      <trkpt lat="43.54169" lon="2.0216">
        <ele>205.8</ele>
        <time>2022-03-08T14:07:49Z</time>
      </trkpt>
      <trkpt lat="43.5417" lon="2.02161">
        <ele>205.8</ele>
        <time>2022-03-08T14:07:50Z</time>
      </trkpt>
      <trkpt lat="43.54172" lon="2.02163">
        <ele>205.8</ele>
        <time>2022-03-08T14:07:51Z</time>
      </trkpt>
      <trkpt lat="43.54174" lon="2.02166">
        <ele>205.7</ele>
        <time>2022-03-08T14:07:53Z</time>
      </trkpt>
      <trkpt lat="43.54174" lon="2.02168">
        <ele>205.7</ele>
        <time>2022-03-08T14:07:54Z</time>
      </trkpt>
      <trkpt lat="43.54175" lon="2.0217">
        <ele>205.7</ele>
        <time>2022-03-08T14:07:55Z</time>
      </trkpt>
      <trkpt lat="43.54176" lon="2.02171">
        <ele>205.6</ele>
        <time>2022-03-08T14:07:56Z</time>
      </trkpt>
      <trkpt lat="43.54177" lon="2.02173">
        <ele>205.6</ele>
        <time>2022-03-08T14:07:57Z</time>
      </trkpt>
      <trkpt lat="43.54179" lon="2.02175">
        <ele>205.5</ele>
        <time>2022-03-08T14:07:59Z</time>
      </trkpt>
      <trkpt lat="43.5418" lon="2.02176">
        <ele>205.5</ele>
        <time>2022-03-08T14:08:00Z</time>
      </trkpt>
      <trkpt lat="43.54181" lon="2.02177">
        <ele>205.5</ele>
        <time>2022-03-08T14:08:01Z</time>
      </trkpt>
      <trkpt lat="43.54182" lon="2.02178">
        <ele>205.5</ele>
        <time>2022-03-08T14:08:02Z</time>
      </trkpt>
      <trkpt lat="43.54183" lon="2.0218">
        <ele>205.4</ele>
        <time>2022-03-08T14:08:04Z</time>
      </trkpt>
      <trkpt lat="43.54184" lon="2.02182">
        <ele>205.4</ele>
        <time>2022-03-08T14:08:05Z</time>
      </trkpt>
      <trkpt lat="43.54185" lon="2.02182">
        <ele>205.4</ele>
        <time>2022-03-08T14:08:06Z</time>
      </trkpt>
      <trkpt lat="43.54187" lon="2.02183">
        <ele>205.3</ele>
        <time>2022-03-08T14:08:07Z</time>
      </trkpt>
      <trkpt lat="43.54188" lon="2.02184">
        <ele>205.3</ele>
        <time>2022-03-08T14:08:08Z</time>
      </trkpt>
      <trkpt lat="43.54189" lon="2.02184">
        <ele>205.3</ele>
        <time>2022-03-08T14:08:09Z</time>
      </trkpt>
      <trkpt lat="43.5419" lon="2.02185">
        <ele>205.2</ele>
        <time>2022-03-08T14:08:10Z</time>
      </trkpt>
      <trkpt lat="43.54191" lon="2.02186">
        <ele>205.2</ele>
        <time>2022-03-08T14:08:11Z</time>
      </trkpt>
      <trkpt lat="43.54194" lon="2.02188">
        <ele>205.1</ele>
        <time>2022-03-08T14:08:12Z</time>
      </trkpt>
      <trkpt lat="43.54195" lon="2.02189">
        <ele>205.1</ele>
        <time>2022-03-08T14:08:14Z</time>
      </trkpt>
      <trkpt lat="43.54196" lon="2.0219">
        <ele>205</ele>
        <time>2022-03-08T14:08:15Z</time>
      </trkpt>
      <trkpt lat="43.54197" lon="2.02191">
        <ele>205</ele>
        <time>2022-03-08T14:08:16Z</time>
      </trkpt>
      <trkpt lat="43.54198" lon="2.02192">
        <ele>205</ele>
        <time>2022-03-08T14:08:17Z</time>
      </trkpt>
      <trkpt lat="43.54199" lon="2.02193">
        <ele>204.9</ele>
        <time>2022-03-08T14:08:19Z</time>
      </trkpt>
      <trkpt lat="43.542" lon="2.02194">
        <ele>204.9</ele>
        <time>2022-03-08T14:08:20Z</time>
      </trkpt>
      <trkpt lat="43.54203" lon="2.02195">
        <ele>204.8</ele>
        <time>2022-03-08T14:08:21Z</time>
      </trkpt>
      <trkpt lat="43.54203" lon="2.02195">
        <ele>204.8</ele>
        <time>2022-03-08T14:08:22Z</time>
      </trkpt>
      <trkpt lat="43.54204" lon="2.02196">
        <ele>204.8</ele>
        <time>2022-03-08T14:08:23Z</time>
      </trkpt>
      <trkpt lat="43.54206" lon="2.02197">
        <ele>204.7</ele>
        <time>2022-03-08T14:08:25Z</time>
      </trkpt>
      <trkpt lat="43.54207" lon="2.02198">
        <ele>204.7</ele>
        <time>2022-03-08T14:08:26Z</time>
      </trkpt>
      <trkpt lat="43.54208" lon="2.02199">
        <ele>204.7</ele>
        <time>2022-03-08T14:08:27Z</time>
      </trkpt>
      <trkpt lat="43.54209" lon="2.02201">
        <ele>204.6</ele>
        <time>2022-03-08T14:08:29Z</time>
      </trkpt>
      <trkpt lat="43.5421" lon="2.02203">
        <ele>204.6</ele>
        <time>2022-03-08T14:08:30Z</time>
      </trkpt>
      <trkpt lat="43.54211" lon="2.02206">
        <ele>204.6</ele>
        <time>2022-03-08T14:08:32Z</time>
      </trkpt>
      <trkpt lat="43.54213" lon="2.02208">
        <ele>204.6</ele>
        <time>2022-03-08T14:08:33Z</time>
      </trkpt>
      <trkpt lat="43.54213" lon="2.02209">
        <ele>204.5</ele>
        <time>2022-03-08T14:08:34Z</time>
      </trkpt>
      <trkpt lat="43.54214" lon="2.0221">
        <ele>204.5</ele>
        <time>2022-03-08T14:08:35Z</time>
      </trkpt>
      <trkpt lat="43.54214" lon="2.02211">
        <ele>204.5</ele>
        <time>2022-03-08T14:08:36Z</time>
      </trkpt>
      <trkpt lat="43.54215" lon="2.02212">
        <ele>204.5</ele>
        <time>2022-03-08T14:08:37Z</time>
      </trkpt>
      <trkpt lat="43.54216" lon="2.02214">
        <ele>204.5</ele>
        <time>2022-03-08T14:08:38Z</time>
      </trkpt>
      <trkpt lat="43.54217" lon="2.02216">
        <ele>204.5</ele>
        <time>2022-03-08T14:08:39Z</time>
      </trkpt>
      <trkpt lat="43.54217" lon="2.02217">
        <ele>204.5</ele>
        <time>2022-03-08T14:08:41Z</time>
      </trkpt>
      <trkpt lat="43.54217" lon="2.02218">
        <ele>204.4</ele>
        <time>2022-03-08T14:08:42Z</time>
      </trkpt>
      <trkpt lat="43.54218" lon="2.02219">
        <ele>204.4</ele>
        <time>2022-03-08T14:08:43Z</time>
      </trkpt>
      <trkpt lat="43.54219" lon="2.0222">
        <ele>204.4</ele>
        <time>2022-03-08T14:08:44Z</time>
      </trkpt>
      <trkpt lat="43.54219" lon="2.02221">
        <ele>204.4</ele>
        <time>2022-03-08T14:08:45Z</time>
      </trkpt>
      <trkpt lat="43.54221" lon="2.02222">
        <ele>204.3</ele>
        <time>2022-03-08T14:08:47Z</time>
      </trkpt>
      <trkpt lat="43.54222" lon="2.02223">
        <ele>204.3</ele>
        <time>2022-03-08T14:08:48Z</time>
      </trkpt>
      <trkpt lat="43.54223" lon="2.02223">
        <ele>204.3</ele>
        <time>2022-03-08T14:08:49Z</time>
      </trkpt>
      <trkpt lat="43.54224" lon="2.02224">
        <ele>204.3</ele>
        <time>2022-03-08T14:08:50Z</time>
      </trkpt>
      <trkpt lat="43.54224" lon="2.02225">
        <ele>204.3</ele>
        <time>2022-03-08T14:08:51Z</time>
      </trkpt>
      <trkpt lat="43.54225" lon="2.02225">
        <ele>204.3</ele>
        <time>2022-03-08T14:08:52Z</time>
      </trkpt>
      <trkpt lat="43.54226" lon="2.02226">
        <ele>204.3</ele>
        <time>2022-03-08T14:08:53Z</time>
      </trkpt>
      <trkpt lat="43.54227" lon="2.02227">
        <ele>204.2</ele>
        <time>2022-03-08T14:08:54Z</time>
      </trkpt>
      <trkpt lat="43.54228" lon="2.02228">
        <ele>204.2</ele>
        <time>2022-03-08T14:08:55Z</time>
      </trkpt>
      <trkpt lat="43.54229" lon="2.02229">
        <ele>204.2</ele>
        <time>2022-03-08T14:08:56Z</time>
      </trkpt>
      <trkpt lat="43.5423" lon="2.0223">
        <ele>204.2</ele>
        <time>2022-03-08T14:08:57Z</time>
      </trkpt>
      <trkpt lat="43.54232" lon="2.02232">
        <ele>204.2</ele>
        <time>2022-03-08T14:08:59Z</time>
      </trkpt>
      <trkpt lat="43.54233" lon="2.02233">
        <ele>204.2</ele>
        <time>2022-03-08T14:09:00Z</time>
      </trkpt>
      <trkpt lat="43.54234" lon="2.02236">
        <ele>204.2</ele>
        <time>2022-03-08T14:09:01Z</time>
      </trkpt>
      <trkpt lat="43.54234" lon="2.02237">
        <ele>204.2</ele>
        <time>2022-03-08T14:09:02Z</time>
      </trkpt>
      <trkpt lat="43.54234" lon="2.02238">
        <ele>204.2</ele>
        <time>2022-03-08T14:09:03Z</time>
      </trkpt>
      <trkpt lat="43.54235" lon="2.02239">
        <ele>204.1</ele>
        <time>2022-03-08T14:09:04Z</time>
      </trkpt>
      <trkpt lat="43.54237" lon="2.02241">
        <ele>204.1</ele>
        <time>2022-03-08T14:09:06Z</time>
      </trkpt>
      <trkpt lat="43.54238" lon="2.02243">
        <ele>204.1</ele>
        <time>2022-03-08T14:09:07Z</time>
      </trkpt>
      <trkpt lat="43.5424" lon="2.02245">
        <ele>204.1</ele>
        <time>2022-03-08T14:09:09Z</time>
      </trkpt>
      <trkpt lat="43.54241" lon="2.02245">
        <ele>204.1</ele>
        <time>2022-03-08T14:09:10Z</time>
      </trkpt>
      <trkpt lat="43.54242" lon="2.02247">
        <ele>204.1</ele>
        <time>2022-03-08T14:09:11Z</time>
      </trkpt>
      <trkpt lat="43.54243" lon="2.02248">
        <ele>204</ele>
        <time>2022-03-08T14:09:12Z</time>
      </trkpt>
      <trkpt lat="43.54244" lon="2.02248">
        <ele>204</ele>
        <time>2022-03-08T14:09:13Z</time>
      </trkpt>
      <trkpt lat="43.54244" lon="2.02249">
        <ele>204</ele>
        <time>2022-03-08T14:09:14Z</time>
      </trkpt>
      <trkpt lat="43.54246" lon="2.02251">
        <ele>204</ele>
        <time>2022-03-08T14:09:16Z</time>
      </trkpt>
      <trkpt lat="43.54247" lon="2.02251">
        <ele>204</ele>
        <time>2022-03-08T14:09:17Z</time>
      </trkpt>
      <trkpt lat="43.54248" lon="2.02252">
        <ele>204</ele>
        <time>2022-03-08T14:09:18Z</time>
      </trkpt>
      <trkpt lat="43.54249" lon="2.02252">
        <ele>204</ele>
        <time>2022-03-08T14:09:19Z</time>
      </trkpt>
      <trkpt lat="43.5425" lon="2.02253">
        <ele>204</ele>
        <time>2022-03-08T14:09:20Z</time>
      </trkpt>
      <trkpt lat="43.54252" lon="2.02254">
        <ele>203.9</ele>
        <time>2022-03-08T14:09:21Z</time>
      </trkpt>
      <trkpt lat="43.54253" lon="2.02255">
        <ele>203.9</ele>
        <time>2022-03-08T14:09:22Z</time>
      </trkpt>
      <trkpt lat="43.54254" lon="2.02255">
        <ele>203.9</ele>
        <time>2022-03-08T14:09:23Z</time>
      </trkpt>
      <trkpt lat="43.54256" lon="2.02257">
        <ele>203.9</ele>
        <time>2022-03-08T14:09:24Z</time>
      </trkpt>
      <trkpt lat="43.54256" lon="2.02258">
        <ele>203.9</ele>
        <time>2022-03-08T14:09:26Z</time>
      </trkpt>
      <trkpt lat="43.54257" lon="2.02259">
        <ele>203.9</ele>
        <time>2022-03-08T14:09:27Z</time>
      </trkpt>
      <trkpt lat="43.54259" lon="2.0226">
        <ele>203.8</ele>
        <time>2022-03-08T14:09:28Z</time>
      </trkpt>
      <trkpt lat="43.54259" lon="2.02261">
        <ele>203.8</ele>
        <time>2022-03-08T14:09:29Z</time>
      </trkpt>
      <trkpt lat="43.5426" lon="2.02261">
        <ele>203.8</ele>
        <time>2022-03-08T14:09:30Z</time>
      </trkpt>
      <trkpt lat="43.54261" lon="2.02262">
        <ele>203.8</ele>
        <time>2022-03-08T14:09:31Z</time>
      </trkpt>
      <trkpt lat="43.54263" lon="2.02264">
        <ele>203.8</ele>
        <time>2022-03-08T14:09:33Z</time>
      </trkpt>
      <trkpt lat="43.54264" lon="2.02266">
        <ele>203.8</ele>
        <time>2022-03-08T14:09:34Z</time>
      </trkpt>
      <trkpt lat="43.54265" lon="2.02268">
        <ele>203.8</ele>
        <time>2022-03-08T14:09:35Z</time>
      </trkpt>
      <trkpt lat="43.54267" lon="2.0227">
        <ele>203.8</ele>
        <time>2022-03-08T14:09:37Z</time>
      </trkpt>
      <trkpt lat="43.54267" lon="2.0227">
        <ele>203.7</ele>
        <time>2022-03-08T14:09:38Z</time>
      </trkpt>
      <trkpt lat="43.54268" lon="2.02271">
        <ele>203.7</ele>
        <time>2022-03-08T14:09:39Z</time>
      </trkpt>
      <trkpt lat="43.54269" lon="2.02272">
        <ele>203.7</ele>
        <time>2022-03-08T14:09:40Z</time>
      </trkpt>
      <trkpt lat="43.54269" lon="2.02272">
        <ele>203.7</ele>
        <time>2022-03-08T14:09:41Z</time>
      </trkpt>
      <trkpt lat="43.5427" lon="2.02273">
        <ele>203.7</ele>
        <time>2022-03-08T14:09:42Z</time>
      </trkpt>
      <trkpt lat="43.54271" lon="2.02274">
        <ele>203.7</ele>
        <time>2022-03-08T14:09:43Z</time>
      </trkpt>
      <trkpt lat="43.54271" lon="2.02275">
        <ele>203.7</ele>
        <time>2022-03-08T14:09:44Z</time>
      </trkpt>
      <trkpt lat="43.54272" lon="2.02276">
        <ele>203.7</ele>
        <time>2022-03-08T14:09:45Z</time>
      </trkpt>
      <trkpt lat="43.54272" lon="2.02277">
        <ele>203.7</ele>
        <time>2022-03-08T14:09:47Z</time>
      </trkpt>
      <trkpt lat="43.54273" lon="2.02279">
        <ele>203.7</ele>
        <time>2022-03-08T14:09:48Z</time>
      </trkpt>
      <trkpt lat="43.54274" lon="2.0228">
        <ele>203.7</ele>
        <time>2022-03-08T14:09:49Z</time>
      </trkpt>
      <trkpt lat="43.54274" lon="2.02281">
        <ele>203.7</ele>
        <time>2022-03-08T14:09:50Z</time>
      </trkpt>
      <trkpt lat="43.54275" lon="2.02283">
        <ele>203.7</ele>
        <time>2022-03-08T14:09:51Z</time>
      </trkpt>
      <trkpt lat="43.54276" lon="2.02284">
        <ele>203.7</ele>
        <time>2022-03-08T14:09:52Z</time>
      </trkpt>
      <trkpt lat="43.54276" lon="2.02285">
        <ele>203.7</ele>
        <time>2022-03-08T14:09:53Z</time>
      </trkpt>
      <trkpt lat="43.54277" lon="2.02286">
        <ele>203.7</ele>
        <time>2022-03-08T14:09:54Z</time>
      </trkpt>
      <trkpt lat="43.54277" lon="2.02288">
        <ele>203.7</ele>
        <time>2022-03-08T14:09:55Z</time>
      </trkpt>
      <trkpt lat="43.54277" lon="2.0229">
        <ele>203.7</ele>
        <time>2022-03-08T14:09:57Z</time>
      </trkpt>
      <trkpt lat="43.54278" lon="2.02292">
        <ele>203.7</ele>
        <time>2022-03-08T14:09:58Z</time>
      </trkpt>
      <trkpt lat="43.54278" lon="2.02294">
        <ele>203.7</ele>
        <time>2022-03-08T14:09:59Z</time>
      </trkpt>
      <trkpt lat="43.54279" lon="2.02296">
        <ele>203.7</ele>
        <time>2022-03-08T14:10:00Z</time>
      </trkpt>
      <trkpt lat="43.5428" lon="2.02297">
        <ele>203.6</ele>
        <time>2022-03-08T14:10:01Z</time>
      </trkpt>
      <trkpt lat="43.54281" lon="2.02299">
        <ele>203.6</ele>
        <time>2022-03-08T14:10:02Z</time>
      </trkpt>
      <trkpt lat="43.54282" lon="2.023">
        <ele>203.7</ele>
        <time>2022-03-08T14:10:03Z</time>
      </trkpt>
      <trkpt lat="43.54283" lon="2.02301">
        <ele>203.6</ele>
        <time>2022-03-08T14:10:04Z</time>
      </trkpt>
      <trkpt lat="43.54284" lon="2.02302">
        <ele>203.6</ele>
        <time>2022-03-08T14:10:05Z</time>
      </trkpt>
      <trkpt lat="43.54285" lon="2.02303">
        <ele>203.7</ele>
        <time>2022-03-08T14:10:07Z</time>
      </trkpt>
      <trkpt lat="43.54285" lon="2.02304">
        <ele>203.7</ele>
        <time>2022-03-08T14:10:08Z</time>
      </trkpt>
      <trkpt lat="43.54286" lon="2.02306">
        <ele>203.7</ele>
        <time>2022-03-08T14:10:09Z</time>
      </trkpt>
      <trkpt lat="43.54287" lon="2.02307">
        <ele>203.7</ele>
        <time>2022-03-08T14:10:10Z</time>
      </trkpt>
      <trkpt lat="43.5429" lon="2.0231">
        <ele>203.7</ele>
        <time>2022-03-08T14:10:12Z</time>
      </trkpt>
      <trkpt lat="43.5429" lon="2.0231">
        <ele>203.7</ele>
        <time>2022-03-08T14:10:13Z</time>
      </trkpt>
      <trkpt lat="43.54292" lon="2.02312">
        <ele>203.7</ele>
        <time>2022-03-08T14:10:14Z</time>
      </trkpt>
      <trkpt lat="43.54292" lon="2.02313">
        <ele>203.7</ele>
        <time>2022-03-08T14:10:15Z</time>
      </trkpt>
      <trkpt lat="43.54293" lon="2.02313">
        <ele>203.7</ele>
        <time>2022-03-08T14:10:16Z</time>
      </trkpt>
      <trkpt lat="43.54294" lon="2.02314">
        <ele>203.7</ele>
        <time>2022-03-08T14:10:17Z</time>
      </trkpt>
      <trkpt lat="43.54295" lon="2.02315">
        <ele>203.7</ele>
        <time>2022-03-08T14:10:18Z</time>
      </trkpt>
      <trkpt lat="43.54296" lon="2.02316">
        <ele>203.7</ele>
        <time>2022-03-08T14:10:20Z</time>
      </trkpt>
      <trkpt lat="43.54298" lon="2.02318">
        <ele>203.7</ele>
        <time>2022-03-08T14:10:21Z</time>
      </trkpt>
      <trkpt lat="43.54299" lon="2.02318">
        <ele>203.7</ele>
        <time>2022-03-08T14:10:22Z</time>
      </trkpt>
      <trkpt lat="43.543" lon="2.02319">
        <ele>203.7</ele>
        <time>2022-03-08T14:10:23Z</time>
      </trkpt>
      <trkpt lat="43.54301" lon="2.02321">
        <ele>203.7</ele>
        <time>2022-03-08T14:10:24Z</time>
      </trkpt>
      <trkpt lat="43.54302" lon="2.02323">
        <ele>203.8</ele>
        <time>2022-03-08T14:10:26Z</time>
      </trkpt>
      <trkpt lat="43.54303" lon="2.02324">
        <ele>203.7</ele>
        <time>2022-03-08T14:10:27Z</time>
      </trkpt>
      <trkpt lat="43.54304" lon="2.02326">
        <ele>203.7</ele>
        <time>2022-03-08T14:10:28Z</time>
      </trkpt>
      <trkpt lat="43.54305" lon="2.02328">
        <ele>203.7</ele>
        <time>2022-03-08T14:10:29Z</time>
      </trkpt>
      <trkpt lat="43.54306" lon="2.02331">
        <ele>203.7</ele>
        <time>2022-03-08T14:10:30Z</time>
      </trkpt>
      <trkpt lat="43.54306" lon="2.02332">
        <ele>203.7</ele>
        <time>2022-03-08T14:10:32Z</time>
      </trkpt>
      <trkpt lat="43.54307" lon="2.02333">
        <ele>203.7</ele>
        <time>2022-03-08T14:10:33Z</time>
      </trkpt>
      <trkpt lat="43.54307" lon="2.02334">
        <ele>203.7</ele>
        <time>2022-03-08T14:10:34Z</time>
      </trkpt>
      <trkpt lat="43.54309" lon="2.02336">
        <ele>203.7</ele>
        <time>2022-03-08T14:10:36Z</time>
      </trkpt>
      <trkpt lat="43.5431" lon="2.02338">
        <ele>203.7</ele>
        <time>2022-03-08T14:10:38Z</time>
      </trkpt>
      <trkpt lat="43.54311" lon="2.02339">
        <ele>203.7</ele>
        <time>2022-03-08T14:10:39Z</time>
      </trkpt>
      <trkpt lat="43.54312" lon="2.02341">
        <ele>203.7</ele>
        <time>2022-03-08T14:10:40Z</time>
      </trkpt>
      <trkpt lat="43.54313" lon="2.02342">
        <ele>203.7</ele>
        <time>2022-03-08T14:10:41Z</time>
      </trkpt>
      <trkpt lat="43.54314" lon="2.02343">
        <ele>203.7</ele>
        <time>2022-03-08T14:10:43Z</time>
      </trkpt>
      <trkpt lat="43.54315" lon="2.02344">
        <ele>203.7</ele>
        <time>2022-03-08T14:10:44Z</time>
      </trkpt>
      <trkpt lat="43.54316" lon="2.02344">
        <ele>203.7</ele>
        <time>2022-03-08T14:10:45Z</time>
      </trkpt>
      <trkpt lat="43.54317" lon="2.02345">
        <ele>203.6</ele>
        <time>2022-03-08T14:10:46Z</time>
      </trkpt>
      <trkpt lat="43.54317" lon="2.02344">
        <ele>203.6</ele>
        <time>2022-03-08T14:10:47Z</time>
      </trkpt>
      <trkpt lat="43.54317" lon="2.02344">
        <ele>203.6</ele>
        <time>2022-03-08T14:10:48Z</time>
      </trkpt>
      <trkpt lat="43.54318" lon="2.02344">
        <ele>203.6</ele>
        <time>2022-03-08T14:10:49Z</time>
      </trkpt>
      <trkpt lat="43.54318" lon="2.02345">
        <ele>203.6</ele>
        <time>2022-03-08T14:10:50Z</time>
      </trkpt>
      <trkpt lat="43.54319" lon="2.02346">
        <ele>203.6</ele>
        <time>2022-03-08T14:10:51Z</time>
      </trkpt>
      <trkpt lat="43.5432" lon="2.02348">
        <ele>203.6</ele>
        <time>2022-03-08T14:10:53Z</time>
      </trkpt>
      <trkpt lat="43.54321" lon="2.02349">
        <ele>203.6</ele>
        <time>2022-03-08T14:10:54Z</time>
      </trkpt>
      <trkpt lat="43.54322" lon="2.02351">
        <ele>203.5</ele>
        <time>2022-03-08T14:10:55Z</time>
      </trkpt>
      <trkpt lat="43.54323" lon="2.02352">
        <ele>203.5</ele>
        <time>2022-03-08T14:10:56Z</time>
      </trkpt>
      <trkpt lat="43.54324" lon="2.02354">
        <ele>203.5</ele>
        <time>2022-03-08T14:10:57Z</time>
      </trkpt>
      <trkpt lat="43.54325" lon="2.02356">
        <ele>203.5</ele>
        <time>2022-03-08T14:10:59Z</time>
      </trkpt>
      <trkpt lat="43.54326" lon="2.02357">
        <ele>203.4</ele>
        <time>2022-03-08T14:11:00Z</time>
      </trkpt>
      <trkpt lat="43.54326" lon="2.02359">
        <ele>203.4</ele>
        <time>2022-03-08T14:11:01Z</time>
      </trkpt>
      <trkpt lat="43.54325" lon="2.0236">
        <ele>203.4</ele>
        <time>2022-03-08T14:11:02Z</time>
      </trkpt>
      <trkpt lat="43.54325" lon="2.0236">
        <ele>203.4</ele>
        <time>2022-03-08T14:11:03Z</time>
      </trkpt>
      <trkpt lat="43.54326" lon="2.02361">
        <ele>203.3</ele>
        <time>2022-03-08T14:11:04Z</time>
      </trkpt>
      <trkpt lat="43.54327" lon="2.02362">
        <ele>203.3</ele>
        <time>2022-03-08T14:11:05Z</time>
      </trkpt>
      <trkpt lat="43.54328" lon="2.02364">
        <ele>203.3</ele>
        <time>2022-03-08T14:11:06Z</time>
      </trkpt>
      <trkpt lat="43.5433" lon="2.02366">
        <ele>203.2</ele>
        <time>2022-03-08T14:11:07Z</time>
      </trkpt>
      <trkpt lat="43.5433" lon="2.02367">
        <ele>203.2</ele>
        <time>2022-03-08T14:11:08Z</time>
      </trkpt>
      <trkpt lat="43.54331" lon="2.02368">
        <ele>203.2</ele>
        <time>2022-03-08T14:11:09Z</time>
      </trkpt>
      <trkpt lat="43.54333" lon="2.02371">
        <ele>203.1</ele>
        <time>2022-03-08T14:11:11Z</time>
      </trkpt>
      <trkpt lat="43.54333" lon="2.02372">
        <ele>203.1</ele>
        <time>2022-03-08T14:11:12Z</time>
      </trkpt>
      <trkpt lat="43.54334" lon="2.02373">
        <ele>203.1</ele>
        <time>2022-03-08T14:11:13Z</time>
      </trkpt>
      <trkpt lat="43.54335" lon="2.02375">
        <ele>203.1</ele>
        <time>2022-03-08T14:11:14Z</time>
      </trkpt>
      <trkpt lat="43.54335" lon="2.02377">
        <ele>203</ele>
        <time>2022-03-08T14:11:15Z</time>
      </trkpt>
      <trkpt lat="43.54336" lon="2.0238">
        <ele>203</ele>
        <time>2022-03-08T14:11:16Z</time>
      </trkpt>
      <trkpt lat="43.54336" lon="2.02381">
        <ele>203</ele>
        <time>2022-03-08T14:11:17Z</time>
      </trkpt>
      <trkpt lat="43.54337" lon="2.02384">
        <ele>203</ele>
        <time>2022-03-08T14:11:18Z</time>
      </trkpt>
      <trkpt lat="43.54338" lon="2.02387">
        <ele>202.9</ele>
        <time>2022-03-08T14:11:19Z</time>
      </trkpt>
      <trkpt lat="43.54338" lon="2.02388">
        <ele>202.9</ele>
        <time>2022-03-08T14:11:20Z</time>
      </trkpt>
      <trkpt lat="43.54338" lon="2.02389">
        <ele>202.9</ele>
        <time>2022-03-08T14:11:21Z</time>
      </trkpt>
      <trkpt lat="43.54338" lon="2.0239">
        <ele>202.9</ele>
        <time>2022-03-08T14:11:22Z</time>
      </trkpt>
      <trkpt lat="43.54338" lon="2.02392">
        <ele>202.9</ele>
        <time>2022-03-08T14:11:23Z</time>
      </trkpt>
      <trkpt lat="43.54339" lon="2.02393">
        <ele>202.9</ele>
        <time>2022-03-08T14:11:24Z</time>
      </trkpt>
      <trkpt lat="43.5434" lon="2.02395">
        <ele>202.9</ele>
        <time>2022-03-08T14:11:25Z</time>
      </trkpt>
      <trkpt lat="43.5434" lon="2.02396">
        <ele>202.9</ele>
        <time>2022-03-08T14:11:27Z</time>
      </trkpt>
      <trkpt lat="43.54341" lon="2.02397">
        <ele>202.9</ele>
        <time>2022-03-08T14:11:28Z</time>
      </trkpt>
      <trkpt lat="43.54341" lon="2.02399">
        <ele>202.9</ele>
        <time>2022-03-08T14:11:29Z</time>
      </trkpt>
      <trkpt lat="43.54342" lon="2.02401">
        <ele>202.8</ele>
        <time>2022-03-08T14:11:30Z</time>
      </trkpt>
      <trkpt lat="43.54342" lon="2.02403">
        <ele>202.8</ele>
        <time>2022-03-08T14:11:31Z</time>
      </trkpt>
      <trkpt lat="43.54342" lon="2.02404">
        <ele>202.8</ele>
        <time>2022-03-08T14:11:32Z</time>
      </trkpt>
      <trkpt lat="43.54342" lon="2.02406">
        <ele>202.8</ele>
        <time>2022-03-08T14:11:33Z</time>
      </trkpt>
      <trkpt lat="43.54342" lon="2.02409">
        <ele>202.8</ele>
        <time>2022-03-08T14:11:34Z</time>
      </trkpt>
      <trkpt lat="43.54342" lon="2.02411">
        <ele>202.8</ele>
        <time>2022-03-08T14:11:35Z</time>
      </trkpt>
      <trkpt lat="43.54342" lon="2.02412">
        <ele>202.8</ele>
        <time>2022-03-08T14:11:36Z</time>
      </trkpt>
      <trkpt lat="43.54341" lon="2.02415">
        <ele>202.8</ele>
        <time>2022-03-08T14:11:37Z</time>
      </trkpt>
      <trkpt lat="43.54341" lon="2.02416">
        <ele>202.8</ele>
        <time>2022-03-08T14:11:38Z</time>
      </trkpt>
      <trkpt lat="43.54341" lon="2.02418">
        <ele>202.8</ele>
        <time>2022-03-08T14:11:39Z</time>
      </trkpt>
      <trkpt lat="43.54341" lon="2.0242">
        <ele>202.7</ele>
        <time>2022-03-08T14:11:40Z</time>
      </trkpt>
      <trkpt lat="43.54342" lon="2.02422">
        <ele>202.7</ele>
        <time>2022-03-08T14:11:41Z</time>
      </trkpt>
      <trkpt lat="43.54342" lon="2.02424">
        <ele>202.7</ele>
        <time>2022-03-08T14:11:42Z</time>
      </trkpt>
      <trkpt lat="43.54343" lon="2.02425">
        <ele>202.7</ele>
        <time>2022-03-08T14:11:43Z</time>
      </trkpt>
      <trkpt lat="43.54344" lon="2.02427">
        <ele>202.7</ele>
        <time>2022-03-08T14:11:45Z</time>
      </trkpt>
      <trkpt lat="43.54345" lon="2.02428">
        <ele>202.6</ele>
        <time>2022-03-08T14:11:46Z</time>
      </trkpt>
      <trkpt lat="43.54345" lon="2.0243">
        <ele>202.6</ele>
        <time>2022-03-08T14:11:47Z</time>
      </trkpt>
      <trkpt lat="43.54347" lon="2.02432">
        <ele>202.6</ele>
        <time>2022-03-08T14:11:48Z</time>
      </trkpt>
      <trkpt lat="43.54347" lon="2.02433">
        <ele>202.6</ele>
        <time>2022-03-08T14:11:49Z</time>
      </trkpt>
      <trkpt lat="43.54348" lon="2.02434">
        <ele>202.6</ele>
        <time>2022-03-08T14:11:50Z</time>
      </trkpt>
      <trkpt lat="43.54349" lon="2.02436">
        <ele>202.6</ele>
        <time>2022-03-08T14:11:51Z</time>
      </trkpt>
      <trkpt lat="43.5435" lon="2.02437">
        <ele>202.5</ele>
        <time>2022-03-08T14:11:52Z</time>
      </trkpt>
      <trkpt lat="43.54351" lon="2.0244">
        <ele>202.5</ele>
        <time>2022-03-08T14:11:54Z</time>
      </trkpt>
      <trkpt lat="43.54351" lon="2.02441">
        <ele>202.5</ele>
        <time>2022-03-08T14:11:55Z</time>
      </trkpt>
      <trkpt lat="43.54352" lon="2.02442">
        <ele>202.5</ele>
        <time>2022-03-08T14:11:56Z</time>
      </trkpt>
      <trkpt lat="43.54352" lon="2.02443">
        <ele>202.4</ele>
        <time>2022-03-08T14:11:57Z</time>
      </trkpt>
      <trkpt lat="43.54353" lon="2.02446">
        <ele>202.4</ele>
        <time>2022-03-08T14:11:58Z</time>
      </trkpt>
      <trkpt lat="43.54353" lon="2.02447">
        <ele>202.4</ele>
        <time>2022-03-08T14:11:59Z</time>
      </trkpt>
      <trkpt lat="43.54354" lon="2.02448">
        <ele>202.4</ele>
        <time>2022-03-08T14:12:00Z</time>
      </trkpt>
      <trkpt lat="43.54354" lon="2.02449">
        <ele>202.4</ele>
        <time>2022-03-08T14:12:01Z</time>
      </trkpt>
      <trkpt lat="43.54355" lon="2.0245">
        <ele>202.3</ele>
        <time>2022-03-08T14:12:02Z</time>
      </trkpt>
      <trkpt lat="43.54355" lon="2.02451">
        <ele>202.3</ele>
        <time>2022-03-08T14:12:03Z</time>
      </trkpt>
      <trkpt lat="43.54356" lon="2.02453">
        <ele>202.3</ele>
        <time>2022-03-08T14:12:04Z</time>
      </trkpt>
      <trkpt lat="43.54357" lon="2.02454">
        <ele>202.3</ele>
        <time>2022-03-08T14:12:05Z</time>
      </trkpt>
      <trkpt lat="43.54357" lon="2.02455">
        <ele>202.2</ele>
        <time>2022-03-08T14:12:06Z</time>
      </trkpt>
      <trkpt lat="43.54358" lon="2.02456">
        <ele>202.2</ele>
        <time>2022-03-08T14:12:07Z</time>
      </trkpt>
      <trkpt lat="43.54358" lon="2.02457">
        <ele>202.2</ele>
        <time>2022-03-08T14:12:08Z</time>
      </trkpt>
      <trkpt lat="43.54359" lon="2.02458">
        <ele>202.2</ele>
        <time>2022-03-08T14:12:09Z</time>
      </trkpt>
      <trkpt lat="43.54359" lon="2.02459">
        <ele>202.2</ele>
        <time>2022-03-08T14:12:10Z</time>
      </trkpt>
      <trkpt lat="43.54359" lon="2.0246">
        <ele>202.1</ele>
        <time>2022-03-08T14:12:11Z</time>
      </trkpt>
      <trkpt lat="43.54358" lon="2.02463">
        <ele>202.1</ele>
        <time>2022-03-08T14:12:12Z</time>
      </trkpt>
      <trkpt lat="43.54358" lon="2.02464">
        <ele>202.1</ele>
        <time>2022-03-08T14:12:13Z</time>
      </trkpt>
      <trkpt lat="43.54357" lon="2.02466">
        <ele>202</ele>
        <time>2022-03-08T14:12:15Z</time>
      </trkpt>
      <trkpt lat="43.54356" lon="2.02468">
        <ele>202</ele>
        <time>2022-03-08T14:12:16Z</time>
      </trkpt>
      <trkpt lat="43.54354" lon="2.02469">
        <ele>201.9</ele>
        <time>2022-03-08T14:12:17Z</time>
      </trkpt>
      <trkpt lat="43.54353" lon="2.0247">
        <ele>201.9</ele>
        <time>2022-03-08T14:12:18Z</time>
      </trkpt>
      <trkpt lat="43.54353" lon="2.02471">
        <ele>201.9</ele>
        <time>2022-03-08T14:12:19Z</time>
      </trkpt>
      <trkpt lat="43.54353" lon="2.02473">
        <ele>201.8</ele>
        <time>2022-03-08T14:12:20Z</time>
      </trkpt>
      <trkpt lat="43.54352" lon="2.02476">
        <ele>201.8</ele>
        <time>2022-03-08T14:12:21Z</time>
      </trkpt>
      <trkpt lat="43.54352" lon="2.02477">
        <ele>201.8</ele>
        <time>2022-03-08T14:12:22Z</time>
      </trkpt>
      <trkpt lat="43.54352" lon="2.02479">
        <ele>201.7</ele>
        <time>2022-03-08T14:12:23Z</time>
      </trkpt>
      <trkpt lat="43.54353" lon="2.02482">
        <ele>201.7</ele>
        <time>2022-03-08T14:12:25Z</time>
      </trkpt>
      <trkpt lat="43.54353" lon="2.02483">
        <ele>201.7</ele>
        <time>2022-03-08T14:12:26Z</time>
      </trkpt>
      <trkpt lat="43.54353" lon="2.02484">
        <ele>201.6</ele>
        <time>2022-03-08T14:12:27Z</time>
      </trkpt>
      <trkpt lat="43.54353" lon="2.02487">
        <ele>201.6</ele>
        <time>2022-03-08T14:12:28Z</time>
      </trkpt>
      <trkpt lat="43.54354" lon="2.02488">
        <ele>201.6</ele>
        <time>2022-03-08T14:12:30Z</time>
      </trkpt>
      <trkpt lat="43.54354" lon="2.02489">
        <ele>201.5</ele>
        <time>2022-03-08T14:12:31Z</time>
      </trkpt>
      <trkpt lat="43.54355" lon="2.02491">
        <ele>201.5</ele>
        <time>2022-03-08T14:12:32Z</time>
      </trkpt>
      <trkpt lat="43.54355" lon="2.02492">
        <ele>201.5</ele>
        <time>2022-03-08T14:12:33Z</time>
      </trkpt>
      <trkpt lat="43.54357" lon="2.02495">
        <ele>201.4</ele>
        <time>2022-03-08T14:12:34Z</time>
      </trkpt>
      <trkpt lat="43.54357" lon="2.02496">
        <ele>201.4</ele>
        <time>2022-03-08T14:12:35Z</time>
      </trkpt>
      <trkpt lat="43.54358" lon="2.02497">
        <ele>201.3</ele>
        <time>2022-03-08T14:12:36Z</time>
      </trkpt>
      <trkpt lat="43.54359" lon="2.02498">
        <ele>201.3</ele>
        <time>2022-03-08T14:12:37Z</time>
      </trkpt>
      <trkpt lat="43.54359" lon="2.02499">
        <ele>201.3</ele>
        <time>2022-03-08T14:12:38Z</time>
      </trkpt>
      <trkpt lat="43.54359" lon="2.02499">
        <ele>201.3</ele>
        <time>2022-03-08T14:12:39Z</time>
      </trkpt>
      <trkpt lat="43.54359" lon="2.025">
        <ele>201.3</ele>
        <time>2022-03-08T14:12:41Z</time>
      </trkpt>
      <trkpt lat="43.5436" lon="2.02502">
        <ele>201.2</ele>
        <time>2022-03-08T14:12:42Z</time>
      </trkpt>
      <trkpt lat="43.54361" lon="2.02504">
        <ele>201.2</ele>
        <time>2022-03-08T14:12:43Z</time>
      </trkpt>
      <trkpt lat="43.54361" lon="2.02505">
        <ele>201.2</ele>
        <time>2022-03-08T14:12:44Z</time>
      </trkpt>
      <trkpt lat="43.54361" lon="2.02506">
        <ele>201.1</ele>
        <time>2022-03-08T14:12:45Z</time>
      </trkpt>
      <trkpt lat="43.54362" lon="2.02508">
        <ele>201.1</ele>
        <time>2022-03-08T14:12:46Z</time>
      </trkpt>
      <trkpt lat="43.54362" lon="2.02509">
        <ele>201.1</ele>
        <time>2022-03-08T14:12:47Z</time>
      </trkpt>
      <trkpt lat="43.54363" lon="2.02512">
        <ele>201.1</ele>
        <time>2022-03-08T14:12:48Z</time>
      </trkpt>
      <trkpt lat="43.54363" lon="2.02514">
        <ele>201.1</ele>
        <time>2022-03-08T14:12:49Z</time>
      </trkpt>
      <trkpt lat="43.54363" lon="2.02516">
        <ele>201</ele>
        <time>2022-03-08T14:12:50Z</time>
      </trkpt>
      <trkpt lat="43.54363" lon="2.02518">
        <ele>201</ele>
        <time>2022-03-08T14:12:51Z</time>
      </trkpt>
      <trkpt lat="43.54363" lon="2.0252">
        <ele>201</ele>
        <time>2022-03-08T14:12:52Z</time>
      </trkpt>
      <trkpt lat="43.54363" lon="2.02522">
        <ele>201</ele>
        <time>2022-03-08T14:12:53Z</time>
      </trkpt>
      <trkpt lat="43.54364" lon="2.02525">
        <ele>201</ele>
        <time>2022-03-08T14:12:54Z</time>
      </trkpt>
      <trkpt lat="43.54363" lon="2.02527">
        <ele>201</ele>
        <time>2022-03-08T14:12:55Z</time>
      </trkpt>
      <trkpt lat="43.54364" lon="2.02528">
        <ele>201</ele>
        <time>2022-03-08T14:12:56Z</time>
      </trkpt>
      <trkpt lat="43.54364" lon="2.02531">
        <ele>201</ele>
        <time>2022-03-08T14:12:57Z</time>
      </trkpt>
      <trkpt lat="43.54364" lon="2.02534">
        <ele>201</ele>
        <time>2022-03-08T14:12:59Z</time>
      </trkpt>
      <trkpt lat="43.54364" lon="2.02536">
        <ele>201</ele>
        <time>2022-03-08T14:13:00Z</time>
      </trkpt>
      <trkpt lat="43.54363" lon="2.02538">
        <ele>201</ele>
        <time>2022-03-08T14:13:01Z</time>
      </trkpt>
      <trkpt lat="43.54363" lon="2.02541">
        <ele>201.1</ele>
        <time>2022-03-08T14:13:02Z</time>
      </trkpt>
      <trkpt lat="43.54363" lon="2.02542">
        <ele>201.1</ele>
        <time>2022-03-08T14:13:03Z</time>
      </trkpt>
      <trkpt lat="43.54362" lon="2.02543">
        <ele>201.1</ele>
        <time>2022-03-08T14:13:04Z</time>
      </trkpt>
      <trkpt lat="43.54362" lon="2.02547">
        <ele>201.1</ele>
        <time>2022-03-08T14:13:06Z</time>
      </trkpt>
      <trkpt lat="43.54362" lon="2.02548">
        <ele>201.1</ele>
        <time>2022-03-08T14:13:07Z</time>
      </trkpt>
      <trkpt lat="43.54363" lon="2.02549">
        <ele>201.1</ele>
        <time>2022-03-08T14:13:08Z</time>
      </trkpt>
      <trkpt lat="43.54362" lon="2.0255">
        <ele>201.1</ele>
        <time>2022-03-08T14:13:09Z</time>
      </trkpt>
      <trkpt lat="43.54362" lon="2.02552">
        <ele>201.1</ele>
        <time>2022-03-08T14:13:10Z</time>
      </trkpt>
      <trkpt lat="43.54362" lon="2.02553">
        <ele>201.2</ele>
        <time>2022-03-08T14:13:11Z</time>
      </trkpt>
      <trkpt lat="43.54362" lon="2.02554">
        <ele>201.2</ele>
        <time>2022-03-08T14:13:12Z</time>
      </trkpt>
      <trkpt lat="43.54362" lon="2.02555">
        <ele>201.2</ele>
        <time>2022-03-08T14:13:13Z</time>
      </trkpt>
      <trkpt lat="43.54362" lon="2.02557">
        <ele>201.2</ele>
        <time>2022-03-08T14:13:14Z</time>
      </trkpt>
      <trkpt lat="43.54362" lon="2.02558">
        <ele>201.3</ele>
        <time>2022-03-08T14:13:15Z</time>
      </trkpt>
      <trkpt lat="43.54362" lon="2.0256">
        <ele>201.3</ele>
        <time>2022-03-08T14:13:17Z</time>
      </trkpt>
      <trkpt lat="43.54362" lon="2.02562">
        <ele>201.3</ele>
        <time>2022-03-08T14:13:18Z</time>
      </trkpt>
      <trkpt lat="43.54362" lon="2.02563">
        <ele>201.3</ele>
        <time>2022-03-08T14:13:19Z</time>
      </trkpt>
      <trkpt lat="43.54363" lon="2.02564">
        <ele>201.4</ele>
        <time>2022-03-08T14:13:20Z</time>
      </trkpt>
      <trkpt lat="43.54362" lon="2.02563">
        <ele>201.5</ele>
        <time>2022-03-08T14:13:21Z</time>
      </trkpt>
      <trkpt lat="43.54361" lon="2.02563">
        <ele>201.5</ele>
        <time>2022-03-08T14:13:22Z</time>
      </trkpt>
      <trkpt lat="43.54361" lon="2.02562">
        <ele>201.5</ele>
        <time>2022-03-08T14:13:23Z</time>
      </trkpt>
      <trkpt lat="43.5436" lon="2.02561">
        <ele>201.5</ele>
        <time>2022-03-08T14:13:25Z</time>
      </trkpt>
      <trkpt lat="43.5436" lon="2.02562">
        <ele>201.5</ele>
        <time>2022-03-08T14:13:26Z</time>
      </trkpt>
      <trkpt lat="43.5436" lon="2.02563">
        <ele>201.6</ele>
        <time>2022-03-08T14:13:27Z</time>
      </trkpt>
      <trkpt lat="43.5436" lon="2.02564">
        <ele>201.6</ele>
        <time>2022-03-08T14:13:28Z</time>
      </trkpt>
      <trkpt lat="43.54361" lon="2.02566">
        <ele>201.6</ele>
        <time>2022-03-08T14:13:29Z</time>
      </trkpt>
      <trkpt lat="43.54361" lon="2.02569">
        <ele>201.7</ele>
        <time>2022-03-08T14:13:30Z</time>
      </trkpt>
      <trkpt lat="43.54361" lon="2.0257">
        <ele>201.7</ele>
        <time>2022-03-08T14:13:31Z</time>
      </trkpt>
      <trkpt lat="43.54362" lon="2.02571">
        <ele>201.7</ele>
        <time>2022-03-08T14:13:32Z</time>
      </trkpt>
      <trkpt lat="43.54362" lon="2.02573">
        <ele>201.8</ele>
        <time>2022-03-08T14:13:33Z</time>
      </trkpt>
      <trkpt lat="43.54362" lon="2.02575">
        <ele>201.8</ele>
        <time>2022-03-08T14:13:35Z</time>
      </trkpt>
      <trkpt lat="43.54362" lon="2.02577">
        <ele>201.9</ele>
        <time>2022-03-08T14:13:36Z</time>
      </trkpt>
      <trkpt lat="43.54362" lon="2.02579">
        <ele>202</ele>
        <time>2022-03-08T14:13:37Z</time>
      </trkpt>
      <trkpt lat="43.54361" lon="2.02581">
        <ele>202</ele>
        <time>2022-03-08T14:13:38Z</time>
      </trkpt>
      <trkpt lat="43.54361" lon="2.02582">
        <ele>202.1</ele>
        <time>2022-03-08T14:13:39Z</time>
      </trkpt>
      <trkpt lat="43.54361" lon="2.02584">
        <ele>202.2</ele>
        <time>2022-03-08T14:13:40Z</time>
      </trkpt>
      <trkpt lat="43.54361" lon="2.02586">
        <ele>202.2</ele>
        <time>2022-03-08T14:13:41Z</time>
      </trkpt>
      <trkpt lat="43.5436" lon="2.02586">
        <ele>202.3</ele>
        <time>2022-03-08T14:13:42Z</time>
      </trkpt>
      <trkpt lat="43.54359" lon="2.02588">
        <ele>202.3</ele>
        <time>2022-03-08T14:13:43Z</time>
      </trkpt>
      <trkpt lat="43.54359" lon="2.02589">
        <ele>202.3</ele>
        <time>2022-03-08T14:13:45Z</time>
      </trkpt>
      <trkpt lat="43.54359" lon="2.0259">
        <ele>202.4</ele>
        <time>2022-03-08T14:13:46Z</time>
      </trkpt>
      <trkpt lat="43.54359" lon="2.02591">
        <ele>202.4</ele>
        <time>2022-03-08T14:13:47Z</time>
      </trkpt>
      <trkpt lat="43.54359" lon="2.02594">
        <ele>202.5</ele>
        <time>2022-03-08T14:13:48Z</time>
      </trkpt>
      <trkpt lat="43.54359" lon="2.02595">
        <ele>202.5</ele>
        <time>2022-03-08T14:13:49Z</time>
      </trkpt>
      <trkpt lat="43.5436" lon="2.02599">
        <ele>202.6</ele>
        <time>2022-03-08T14:13:50Z</time>
      </trkpt>
      <trkpt lat="43.5436" lon="2.026">
        <ele>202.6</ele>
        <time>2022-03-08T14:13:51Z</time>
      </trkpt>
      <trkpt lat="43.5436" lon="2.02601">
        <ele>202.7</ele>
        <time>2022-03-08T14:13:52Z</time>
      </trkpt>
      <trkpt lat="43.54361" lon="2.02603">
        <ele>202.7</ele>
        <time>2022-03-08T14:13:53Z</time>
      </trkpt>
      <trkpt lat="43.54361" lon="2.02606">
        <ele>202.8</ele>
        <time>2022-03-08T14:13:54Z</time>
      </trkpt>
      <trkpt lat="43.54361" lon="2.02608">
        <ele>202.8</ele>
        <time>2022-03-08T14:13:56Z</time>
      </trkpt>
      <trkpt lat="43.54361" lon="2.0261">
        <ele>202.9</ele>
        <time>2022-03-08T14:13:57Z</time>
      </trkpt>
      <trkpt lat="43.5436" lon="2.02611">
        <ele>202.9</ele>
        <time>2022-03-08T14:13:58Z</time>
      </trkpt>
      <trkpt lat="43.5436" lon="2.02612">
        <ele>203</ele>
        <time>2022-03-08T14:13:59Z</time>
      </trkpt>
      <trkpt lat="43.5436" lon="2.02614">
        <ele>203</ele>
        <time>2022-03-08T14:14:00Z</time>
      </trkpt>
      <trkpt lat="43.54361" lon="2.02615">
        <ele>203.1</ele>
        <time>2022-03-08T14:14:01Z</time>
      </trkpt>
      <trkpt lat="43.5436" lon="2.02616">
        <ele>203.1</ele>
        <time>2022-03-08T14:14:02Z</time>
      </trkpt>
      <trkpt lat="43.5436" lon="2.02617">
        <ele>203.1</ele>
        <time>2022-03-08T14:14:03Z</time>
      </trkpt>
      <trkpt lat="43.54359" lon="2.02618">
        <ele>203.2</ele>
        <time>2022-03-08T14:14:04Z</time>
      </trkpt>
      <trkpt lat="43.54359" lon="2.02621">
        <ele>203.2</ele>
        <time>2022-03-08T14:14:05Z</time>
      </trkpt>
      <trkpt lat="43.54359" lon="2.02622">
        <ele>203.3</ele>
        <time>2022-03-08T14:14:06Z</time>
      </trkpt>
      <trkpt lat="43.54358" lon="2.02623">
        <ele>203.3</ele>
        <time>2022-03-08T14:14:07Z</time>
      </trkpt>
      <trkpt lat="43.54358" lon="2.02626">
        <ele>203.4</ele>
        <time>2022-03-08T14:14:08Z</time>
      </trkpt>
      <trkpt lat="43.54358" lon="2.02628">
        <ele>203.4</ele>
        <time>2022-03-08T14:14:09Z</time>
      </trkpt>
      <trkpt lat="43.54358" lon="2.02632">
        <ele>203.5</ele>
        <time>2022-03-08T14:14:11Z</time>
      </trkpt>
      <trkpt lat="43.54358" lon="2.02634">
        <ele>203.6</ele>
        <time>2022-03-08T14:14:12Z</time>
      </trkpt>
      <trkpt lat="43.54358" lon="2.02636">
        <ele>203.7</ele>
        <time>2022-03-08T14:14:13Z</time>
      </trkpt>
      <trkpt lat="43.54358" lon="2.02638">
        <ele>203.7</ele>
        <time>2022-03-08T14:14:14Z</time>
      </trkpt>
      <trkpt lat="43.54358" lon="2.02642">
        <ele>203.8</ele>
        <time>2022-03-08T14:14:16Z</time>
      </trkpt>
      <trkpt lat="43.54358" lon="2.02645">
        <ele>203.9</ele>
        <time>2022-03-08T14:14:18Z</time>
      </trkpt>
      <trkpt lat="43.54358" lon="2.02648">
        <ele>204</ele>
        <time>2022-03-08T14:14:20Z</time>
      </trkpt>
      <trkpt lat="43.54359" lon="2.0265">
        <ele>204.1</ele>
        <time>2022-03-08T14:14:21Z</time>
      </trkpt>
      <trkpt lat="43.54359" lon="2.02651">
        <ele>204.1</ele>
        <time>2022-03-08T14:14:22Z</time>
      </trkpt>
      <trkpt lat="43.5436" lon="2.02653">
        <ele>204.3</ele>
        <time>2022-03-08T14:14:23Z</time>
      </trkpt>
      <trkpt lat="43.5436" lon="2.02656">
        <ele>204.3</ele>
        <time>2022-03-08T14:14:24Z</time>
      </trkpt>
      <trkpt lat="43.5436" lon="2.02657">
        <ele>204.4</ele>
        <time>2022-03-08T14:14:25Z</time>
      </trkpt>
      <trkpt lat="43.54361" lon="2.0266">
        <ele>204.5</ele>
        <time>2022-03-08T14:14:26Z</time>
      </trkpt>
      <trkpt lat="43.54361" lon="2.02661">
        <ele>204.5</ele>
        <time>2022-03-08T14:14:27Z</time>
      </trkpt>
      <trkpt lat="43.54361" lon="2.02663">
        <ele>204.5</ele>
        <time>2022-03-08T14:14:28Z</time>
      </trkpt>
      <trkpt lat="43.54361" lon="2.02665">
        <ele>204.6</ele>
        <time>2022-03-08T14:14:29Z</time>
      </trkpt>
      <trkpt lat="43.54361" lon="2.02667">
        <ele>204.7</ele>
        <time>2022-03-08T14:14:30Z</time>
      </trkpt>
      <trkpt lat="43.54362" lon="2.02669">
        <ele>204.7</ele>
        <time>2022-03-08T14:14:31Z</time>
      </trkpt>
      <trkpt lat="43.54362" lon="2.02671">
        <ele>204.8</ele>
        <time>2022-03-08T14:14:32Z</time>
      </trkpt>
      <trkpt lat="43.54363" lon="2.02672">
        <ele>204.8</ele>
        <time>2022-03-08T14:14:34Z</time>
      </trkpt>
      <trkpt lat="43.54363" lon="2.02674">
        <ele>204.9</ele>
        <time>2022-03-08T14:14:35Z</time>
      </trkpt>
      <trkpt lat="43.54364" lon="2.02676">
        <ele>205</ele>
        <time>2022-03-08T14:14:36Z</time>
      </trkpt>
      <trkpt lat="43.54364" lon="2.02678">
        <ele>205.1</ele>
        <time>2022-03-08T14:14:37Z</time>
      </trkpt>
      <trkpt lat="43.54364" lon="2.0268">
        <ele>205.1</ele>
        <time>2022-03-08T14:14:38Z</time>
      </trkpt>
      <trkpt lat="43.54364" lon="2.02681">
        <ele>205.2</ele>
        <time>2022-03-08T14:14:40Z</time>
      </trkpt>
      <trkpt lat="43.54364" lon="2.02684">
        <ele>205.2</ele>
        <time>2022-03-08T14:14:41Z</time>
      </trkpt>
      <trkpt lat="43.54364" lon="2.02686">
        <ele>205.3</ele>
        <time>2022-03-08T14:14:42Z</time>
      </trkpt>
      <trkpt lat="43.54364" lon="2.02687">
        <ele>205.3</ele>
        <time>2022-03-08T14:14:43Z</time>
      </trkpt>
      <trkpt lat="43.54364" lon="2.02688">
        <ele>205.3</ele>
        <time>2022-03-08T14:14:44Z</time>
      </trkpt>
      <trkpt lat="43.54365" lon="2.0269">
        <ele>205.4</ele>
        <time>2022-03-08T14:14:45Z</time>
      </trkpt>
      <trkpt lat="43.54365" lon="2.02692">
        <ele>205.4</ele>
        <time>2022-03-08T14:14:46Z</time>
      </trkpt>
      <trkpt lat="43.54365" lon="2.02694">
        <ele>205.5</ele>
        <time>2022-03-08T14:14:47Z</time>
      </trkpt>
      <trkpt lat="43.54366" lon="2.02696">
        <ele>205.5</ele>
        <time>2022-03-08T14:14:48Z</time>
      </trkpt>
      <trkpt lat="43.54366" lon="2.02697">
        <ele>205.6</ele>
        <time>2022-03-08T14:14:49Z</time>
      </trkpt>
      <trkpt lat="43.54365" lon="2.02699">
        <ele>205.6</ele>
        <time>2022-03-08T14:14:50Z</time>
      </trkpt>
      <trkpt lat="43.54365" lon="2.02701">
        <ele>205.7</ele>
        <time>2022-03-08T14:14:52Z</time>
      </trkpt>
      <trkpt lat="43.54364" lon="2.02701">
        <ele>205.7</ele>
        <time>2022-03-08T14:14:53Z</time>
      </trkpt>
      <trkpt lat="43.54363" lon="2.02703">
        <ele>205.7</ele>
        <time>2022-03-08T14:14:54Z</time>
      </trkpt>
      <trkpt lat="43.54363" lon="2.02704">
        <ele>205.8</ele>
        <time>2022-03-08T14:14:55Z</time>
      </trkpt>
      <trkpt lat="43.54363" lon="2.02705">
        <ele>205.8</ele>
        <time>2022-03-08T14:14:56Z</time>
      </trkpt>
      <trkpt lat="43.54363" lon="2.02707">
        <ele>205.8</ele>
        <time>2022-03-08T14:14:57Z</time>
      </trkpt>
      <trkpt lat="43.54363" lon="2.02708">
        <ele>205.9</ele>
        <time>2022-03-08T14:14:58Z</time>
      </trkpt>
      <trkpt lat="43.54364" lon="2.0271">
        <ele>205.9</ele>
        <time>2022-03-08T14:14:59Z</time>
      </trkpt>
      <trkpt lat="43.54364" lon="2.02712">
        <ele>206</ele>
        <time>2022-03-08T14:15:00Z</time>
      </trkpt>
      <trkpt lat="43.54364" lon="2.02715">
        <ele>206.1</ele>
        <time>2022-03-08T14:15:02Z</time>
      </trkpt>
      <trkpt lat="43.54364" lon="2.02716">
        <ele>206.1</ele>
        <time>2022-03-08T14:15:03Z</time>
      </trkpt>
      <trkpt lat="43.54363" lon="2.02717">
        <ele>206.1</ele>
        <time>2022-03-08T14:15:04Z</time>
      </trkpt>
      <trkpt lat="43.54363" lon="2.0272">
        <ele>206.2</ele>
        <time>2022-03-08T14:15:05Z</time>
      </trkpt>
      <trkpt lat="43.54363" lon="2.02722">
        <ele>206.2</ele>
        <time>2022-03-08T14:15:06Z</time>
      </trkpt>
      <trkpt lat="43.54363" lon="2.02723">
        <ele>206.2</ele>
        <time>2022-03-08T14:15:07Z</time>
      </trkpt>
      <trkpt lat="43.54364" lon="2.02724">
        <ele>206.3</ele>
        <time>2022-03-08T14:15:09Z</time>
      </trkpt>
      <trkpt lat="43.54364" lon="2.02725">
        <ele>206.3</ele>
        <time>2022-03-08T14:15:10Z</time>
      </trkpt>
      <trkpt lat="43.54365" lon="2.02726">
        <ele>206.3</ele>
        <time>2022-03-08T14:15:11Z</time>
      </trkpt>
      <trkpt lat="43.54365" lon="2.02727">
        <ele>206.4</ele>
        <time>2022-03-08T14:15:12Z</time>
      </trkpt>
      <trkpt lat="43.54366" lon="2.0273">
        <ele>206.4</ele>
        <time>2022-03-08T14:15:13Z</time>
      </trkpt>
      <trkpt lat="43.54366" lon="2.0273">
        <ele>206.4</ele>
        <time>2022-03-08T14:15:14Z</time>
      </trkpt>
      <trkpt lat="43.54367" lon="2.0273">
        <ele>206.4</ele>
        <time>2022-03-08T14:15:15Z</time>
      </trkpt>
      <trkpt lat="43.54367" lon="2.02731">
        <ele>206.5</ele>
        <time>2022-03-08T14:15:16Z</time>
      </trkpt>
      <trkpt lat="43.54367" lon="2.02731">
        <ele>206.5</ele>
        <time>2022-03-08T14:15:17Z</time>
      </trkpt>
      <trkpt lat="43.54367" lon="2.02734">
        <ele>206.5</ele>
        <time>2022-03-08T14:15:19Z</time>
      </trkpt>
      <trkpt lat="43.54367" lon="2.02735">
        <ele>206.6</ele>
        <time>2022-03-08T14:15:20Z</time>
      </trkpt>
      <trkpt lat="43.54367" lon="2.02737">
        <ele>206.6</ele>
        <time>2022-03-08T14:15:21Z</time>
      </trkpt>
      <trkpt lat="43.54368" lon="2.0274">
        <ele>206.7</ele>
        <time>2022-03-08T14:15:23Z</time>
      </trkpt>
      <trkpt lat="43.54368" lon="2.02745">
        <ele>206.8</ele>
        <time>2022-03-08T14:15:24Z</time>
      </trkpt>
      <trkpt lat="43.54368" lon="2.02746">
        <ele>206.8</ele>
        <time>2022-03-08T14:15:25Z</time>
      </trkpt>
      <trkpt lat="43.54369" lon="2.02749">
        <ele>206.9</ele>
        <time>2022-03-08T14:15:27Z</time>
      </trkpt>
      <trkpt lat="43.54369" lon="2.02751">
        <ele>206.9</ele>
        <time>2022-03-08T14:15:28Z</time>
      </trkpt>
      <trkpt lat="43.54369" lon="2.02752">
        <ele>207</ele>
        <time>2022-03-08T14:15:29Z</time>
      </trkpt>
      <trkpt lat="43.5437" lon="2.02755">
        <ele>207</ele>
        <time>2022-03-08T14:15:30Z</time>
      </trkpt>
      <trkpt lat="43.5437" lon="2.02757">
        <ele>207.1</ele>
        <time>2022-03-08T14:15:31Z</time>
      </trkpt>
      <trkpt lat="43.5437" lon="2.02759">
        <ele>207.1</ele>
        <time>2022-03-08T14:15:33Z</time>
      </trkpt>
      <trkpt lat="43.5437" lon="2.02761">
        <ele>207.2</ele>
        <time>2022-03-08T14:15:34Z</time>
      </trkpt>
      <trkpt lat="43.5437" lon="2.02763">
        <ele>207.3</ele>
        <time>2022-03-08T14:15:35Z</time>
      </trkpt>
      <trkpt lat="43.5437" lon="2.02765">
        <ele>207.3</ele>
        <time>2022-03-08T14:15:36Z</time>
      </trkpt>
      <trkpt lat="43.54371" lon="2.02767">
        <ele>207.4</ele>
        <time>2022-03-08T14:15:37Z</time>
      </trkpt>
      <trkpt lat="43.54371" lon="2.02767">
        <ele>207.4</ele>
        <time>2022-03-08T14:15:38Z</time>
      </trkpt>
      <trkpt lat="43.54372" lon="2.02768">
        <ele>207.4</ele>
        <time>2022-03-08T14:15:39Z</time>
      </trkpt>
      <trkpt lat="43.54372" lon="2.02769">
        <ele>207.5</ele>
        <time>2022-03-08T14:15:40Z</time>
      </trkpt>
      <trkpt lat="43.54373" lon="2.02771">
        <ele>207.5</ele>
        <time>2022-03-08T14:15:41Z</time>
      </trkpt>
      <trkpt lat="43.54373" lon="2.02773">
        <ele>207.6</ele>
        <time>2022-03-08T14:15:43Z</time>
      </trkpt>
      <trkpt lat="43.54374" lon="2.02775">
        <ele>207.7</ele>
        <time>2022-03-08T14:15:44Z</time>
      </trkpt>
      <trkpt lat="43.54375" lon="2.02777">
        <ele>207.7</ele>
        <time>2022-03-08T14:15:45Z</time>
      </trkpt>
      <trkpt lat="43.54376" lon="2.02778">
        <ele>207.8</ele>
        <time>2022-03-08T14:15:46Z</time>
      </trkpt>
      <trkpt lat="43.54376" lon="2.0278">
        <ele>207.9</ele>
        <time>2022-03-08T14:15:47Z</time>
      </trkpt>
      <trkpt lat="43.54377" lon="2.02782">
        <ele>208</ele>
        <time>2022-03-08T14:15:48Z</time>
      </trkpt>
      <trkpt lat="43.54378" lon="2.02783">
        <ele>208</ele>
        <time>2022-03-08T14:15:49Z</time>
      </trkpt>
      <trkpt lat="43.54379" lon="2.02784">
        <ele>208.1</ele>
        <time>2022-03-08T14:15:50Z</time>
      </trkpt>
      <trkpt lat="43.54379" lon="2.02786">
        <ele>208.1</ele>
        <time>2022-03-08T14:15:51Z</time>
      </trkpt>
      <trkpt lat="43.5438" lon="2.02787">
        <ele>208.2</ele>
        <time>2022-03-08T14:15:52Z</time>
      </trkpt>
      <trkpt lat="43.54381" lon="2.02789">
        <ele>208.3</ele>
        <time>2022-03-08T14:15:53Z</time>
      </trkpt>
      <trkpt lat="43.54381" lon="2.02791">
        <ele>208.3</ele>
        <time>2022-03-08T14:15:55Z</time>
      </trkpt>
      <trkpt lat="43.54382" lon="2.02792">
        <ele>208.4</ele>
        <time>2022-03-08T14:15:56Z</time>
      </trkpt>
      <trkpt lat="43.54383" lon="2.02793">
        <ele>208.4</ele>
        <time>2022-03-08T14:15:57Z</time>
      </trkpt>
      <trkpt lat="43.54383" lon="2.02794">
        <ele>208.5</ele>
        <time>2022-03-08T14:15:58Z</time>
      </trkpt>
      <trkpt lat="43.54383" lon="2.02796">
        <ele>208.5</ele>
        <time>2022-03-08T14:15:59Z</time>
      </trkpt>
      <trkpt lat="43.54384" lon="2.02798">
        <ele>208.6</ele>
        <time>2022-03-08T14:16:01Z</time>
      </trkpt>
      <trkpt lat="43.54384" lon="2.028">
        <ele>208.7</ele>
        <time>2022-03-08T14:16:02Z</time>
      </trkpt>
      <trkpt lat="43.54385" lon="2.02801">
        <ele>208.7</ele>
        <time>2022-03-08T14:16:03Z</time>
      </trkpt>
      <trkpt lat="43.54385" lon="2.02803">
        <ele>208.8</ele>
        <time>2022-03-08T14:16:04Z</time>
      </trkpt>
      <trkpt lat="43.54385" lon="2.02804">
        <ele>208.9</ele>
        <time>2022-03-08T14:16:05Z</time>
      </trkpt>
      <trkpt lat="43.54386" lon="2.02806">
        <ele>208.9</ele>
        <time>2022-03-08T14:16:06Z</time>
      </trkpt>
      <trkpt lat="43.54386" lon="2.02809">
        <ele>209</ele>
        <time>2022-03-08T14:16:07Z</time>
      </trkpt>
      <trkpt lat="43.54386" lon="2.0281">
        <ele>209</ele>
        <time>2022-03-08T14:16:08Z</time>
      </trkpt>
      <trkpt lat="43.54386" lon="2.02812">
        <ele>209.1</ele>
        <time>2022-03-08T14:16:10Z</time>
      </trkpt>
      <trkpt lat="43.54386" lon="2.02813">
        <ele>209.1</ele>
        <time>2022-03-08T14:16:11Z</time>
      </trkpt>
      <trkpt lat="43.54386" lon="2.02815">
        <ele>209.2</ele>
        <time>2022-03-08T14:16:12Z</time>
      </trkpt>
      <trkpt lat="43.54386" lon="2.02816">
        <ele>209.2</ele>
        <time>2022-03-08T14:16:13Z</time>
      </trkpt>
      <trkpt lat="43.54387" lon="2.02817">
        <ele>209.2</ele>
        <time>2022-03-08T14:16:14Z</time>
      </trkpt>
      <trkpt lat="43.54387" lon="2.02819">
        <ele>209.3</ele>
        <time>2022-03-08T14:16:15Z</time>
      </trkpt>
      <trkpt lat="43.54387" lon="2.0282">
        <ele>209.3</ele>
        <time>2022-03-08T14:16:16Z</time>
      </trkpt>
      <trkpt lat="43.54388" lon="2.02822">
        <ele>209.3</ele>
        <time>2022-03-08T14:16:18Z</time>
      </trkpt>
      <trkpt lat="43.54388" lon="2.02825">
        <ele>209.4</ele>
        <time>2022-03-08T14:16:19Z</time>
      </trkpt>
      <trkpt lat="43.54388" lon="2.02826">
        <ele>209.4</ele>
        <time>2022-03-08T14:16:20Z</time>
      </trkpt>
      <trkpt lat="43.54388" lon="2.02828">
        <ele>209.4</ele>
        <time>2022-03-08T14:16:21Z</time>
      </trkpt>
      <trkpt lat="43.54389" lon="2.02829">
        <ele>209.5</ele>
        <time>2022-03-08T14:16:22Z</time>
      </trkpt>
      <trkpt lat="43.54389" lon="2.02831">
        <ele>209.5</ele>
        <time>2022-03-08T14:16:23Z</time>
      </trkpt>
      <trkpt lat="43.5439" lon="2.02832">
        <ele>209.5</ele>
        <time>2022-03-08T14:16:25Z</time>
      </trkpt>
      <trkpt lat="43.5439" lon="2.02833">
        <ele>209.5</ele>
        <time>2022-03-08T14:16:26Z</time>
      </trkpt>
      <trkpt lat="43.54391" lon="2.02835">
        <ele>209.6</ele>
        <time>2022-03-08T14:16:27Z</time>
      </trkpt>
      <trkpt lat="43.54392" lon="2.02836">
        <ele>209.6</ele>
        <time>2022-03-08T14:16:28Z</time>
      </trkpt>
      <trkpt lat="43.54392" lon="2.02837">
        <ele>209.6</ele>
        <time>2022-03-08T14:16:29Z</time>
      </trkpt>
      <trkpt lat="43.54393" lon="2.02839">
        <ele>209.6</ele>
        <time>2022-03-08T14:16:30Z</time>
      </trkpt>
      <trkpt lat="43.54394" lon="2.02841">
        <ele>209.7</ele>
        <time>2022-03-08T14:16:31Z</time>
      </trkpt>
      <trkpt lat="43.54394" lon="2.02842">
        <ele>209.7</ele>
        <time>2022-03-08T14:16:32Z</time>
      </trkpt>
      <trkpt lat="43.54395" lon="2.02843">
        <ele>209.7</ele>
        <time>2022-03-08T14:16:34Z</time>
      </trkpt>
      <trkpt lat="43.54395" lon="2.02845">
        <ele>209.8</ele>
        <time>2022-03-08T14:16:35Z</time>
      </trkpt>
      <trkpt lat="43.54396" lon="2.02847">
        <ele>209.8</ele>
        <time>2022-03-08T14:16:36Z</time>
      </trkpt>
      <trkpt lat="43.54397" lon="2.02849">
        <ele>209.8</ele>
        <time>2022-03-08T14:16:37Z</time>
      </trkpt>
      <trkpt lat="43.54398" lon="2.02852">
        <ele>209.9</ele>
        <time>2022-03-08T14:16:39Z</time>
      </trkpt>
      <trkpt lat="43.54398" lon="2.02853">
        <ele>209.9</ele>
        <time>2022-03-08T14:16:40Z</time>
      </trkpt>
      <trkpt lat="43.54398" lon="2.02855">
        <ele>209.9</ele>
        <time>2022-03-08T14:16:41Z</time>
      </trkpt>
      <trkpt lat="43.54399" lon="2.02856">
        <ele>210</ele>
        <time>2022-03-08T14:16:43Z</time>
      </trkpt>
      <trkpt lat="43.54399" lon="2.02858">
        <ele>210</ele>
        <time>2022-03-08T14:16:44Z</time>
      </trkpt>
      <trkpt lat="43.54399" lon="2.0286">
        <ele>210</ele>
        <time>2022-03-08T14:16:45Z</time>
      </trkpt>
      <trkpt lat="43.54399" lon="2.02861">
        <ele>210</ele>
        <time>2022-03-08T14:16:46Z</time>
      </trkpt>
      <trkpt lat="43.54399" lon="2.02862">
        <ele>210</ele>
        <time>2022-03-08T14:16:47Z</time>
      </trkpt>
      <trkpt lat="43.54399" lon="2.02862">
        <ele>210.1</ele>
        <time>2022-03-08T14:16:48Z</time>
      </trkpt>
      <trkpt lat="43.54399" lon="2.02863">
        <ele>210.1</ele>
        <time>2022-03-08T14:16:49Z</time>
      </trkpt>
      <trkpt lat="43.544" lon="2.02863">
        <ele>210.1</ele>
        <time>2022-03-08T14:16:50Z</time>
      </trkpt>
      <trkpt lat="43.544" lon="2.02864">
        <ele>210.1</ele>
        <time>2022-03-08T14:16:51Z</time>
      </trkpt>
      <trkpt lat="43.544" lon="2.02865">
        <ele>210.1</ele>
        <time>2022-03-08T14:16:52Z</time>
      </trkpt>
      <trkpt lat="43.54401" lon="2.02867">
        <ele>210.1</ele>
        <time>2022-03-08T14:16:54Z</time>
      </trkpt>
      <trkpt lat="43.54402" lon="2.02868">
        <ele>210.2</ele>
        <time>2022-03-08T14:16:55Z</time>
      </trkpt>
      <trkpt lat="43.54402" lon="2.02869">
        <ele>210.2</ele>
        <time>2022-03-08T14:16:56Z</time>
      </trkpt>
      <trkpt lat="43.54402" lon="2.02871">
        <ele>210.2</ele>
        <time>2022-03-08T14:16:58Z</time>
      </trkpt>
      <trkpt lat="43.54402" lon="2.02872">
        <ele>210.2</ele>
        <time>2022-03-08T14:16:59Z</time>
      </trkpt>
      <trkpt lat="43.54403" lon="2.02873">
        <ele>210.2</ele>
        <time>2022-03-08T14:17:00Z</time>
      </trkpt>
      <trkpt lat="43.54403" lon="2.02875">
        <ele>210.2</ele>
        <time>2022-03-08T14:17:01Z</time>
      </trkpt>
      <trkpt lat="43.54403" lon="2.02876">
        <ele>210.2</ele>
        <time>2022-03-08T14:17:02Z</time>
      </trkpt>
      <trkpt lat="43.54403" lon="2.02878">
        <ele>210.3</ele>
        <time>2022-03-08T14:17:03Z</time>
      </trkpt>
      <trkpt lat="43.54403" lon="2.02879">
        <ele>210.3</ele>
        <time>2022-03-08T14:17:04Z</time>
      </trkpt>
      <trkpt lat="43.54403" lon="2.0288">
        <ele>210.3</ele>
        <time>2022-03-08T14:17:05Z</time>
      </trkpt>
      <trkpt lat="43.54403" lon="2.02882">
        <ele>210.3</ele>
        <time>2022-03-08T14:17:06Z</time>
      </trkpt>
      <trkpt lat="43.54404" lon="2.02883">
        <ele>210.3</ele>
        <time>2022-03-08T14:17:07Z</time>
      </trkpt>
      <trkpt lat="43.54403" lon="2.02884">
        <ele>210.3</ele>
        <time>2022-03-08T14:17:08Z</time>
      </trkpt>
      <trkpt lat="43.54403" lon="2.02883">
        <ele>210.3</ele>
        <time>2022-03-08T14:17:09Z</time>
      </trkpt>
      <trkpt lat="43.54403" lon="2.02883">
        <ele>210.3</ele>
        <time>2022-03-08T14:17:10Z</time>
      </trkpt>
      <trkpt lat="43.54403" lon="2.02883">
        <ele>210.3</ele>
        <time>2022-03-08T14:17:11Z</time>
      </trkpt>
      <trkpt lat="43.54403" lon="2.02883">
        <ele>210.3</ele>
        <time>2022-03-08T14:17:12Z</time>
      </trkpt>
      <trkpt lat="43.54403" lon="2.02883">
        <ele>210.3</ele>
        <time>2022-03-08T14:17:13Z</time>
      </trkpt>
      <trkpt lat="43.54403" lon="2.02883">
        <ele>210.3</ele>
        <time>2022-03-08T14:17:14Z</time>
      </trkpt>
      <trkpt lat="43.54403" lon="2.02883">
        <ele>210.3</ele>
        <time>2022-03-08T14:17:15Z</time>
      </trkpt>
      <trkpt lat="43.54403" lon="2.02883">
        <ele>210.3</ele>
        <time>2022-03-08T14:17:16Z</time>
      </trkpt>
      <trkpt lat="43.54403" lon="2.02883">
        <ele>210.3</ele>
        <time>2022-03-08T14:17:17Z</time>
      </trkpt>
      <trkpt lat="43.54403" lon="2.02883">
        <ele>210.3</ele>
        <time>2022-03-08T14:17:18Z</time>
      </trkpt>
      <trkpt lat="43.54403" lon="2.02883">
        <ele>210.3</ele>
        <time>2022-03-08T14:17:19Z</time>
      </trkpt>
      <trkpt lat="43.54403" lon="2.02883">
        <ele>210.3</ele>
        <time>2022-03-08T14:17:20Z</time>
      </trkpt>
      <trkpt lat="43.54403" lon="2.02883">
        <ele>210.3</ele>
        <time>2022-03-08T14:17:21Z</time>
      </trkpt>
      <trkpt lat="43.54403" lon="2.02883">
        <ele>210.3</ele>
        <time>2022-03-08T14:17:22Z</time>
      </trkpt>
      <trkpt lat="43.54403" lon="2.02883">
        <ele>210.3</ele>
        <time>2022-03-08T14:17:23Z</time>
      </trkpt>
      <trkpt lat="43.54403" lon="2.02883">
        <ele>210.3</ele>
        <time>2022-03-08T14:17:24Z</time>
      </trkpt>
      <trkpt lat="43.54402" lon="2.02883">
        <ele>210.3</ele>
        <time>2022-03-08T14:17:25Z</time>
      </trkpt>
      <trkpt lat="43.54402" lon="2.02882">
        <ele>210.3</ele>
        <time>2022-03-08T14:17:26Z</time>
      </trkpt>
      <trkpt lat="43.54402" lon="2.02882">
        <ele>210.3</ele>
        <time>2022-03-08T14:17:27Z</time>
      </trkpt>
      <trkpt lat="43.54401" lon="2.02881">
        <ele>210.3</ele>
        <time>2022-03-08T14:17:28Z</time>
      </trkpt>
      <trkpt lat="43.54401" lon="2.02881">
        <ele>210.3</ele>
        <time>2022-03-08T14:17:29Z</time>
      </trkpt>
      <trkpt lat="43.544" lon="2.0288">
        <ele>210.3</ele>
        <time>2022-03-08T14:17:30Z</time>
      </trkpt>
      <trkpt lat="43.544" lon="2.0288">
        <ele>210.3</ele>
        <time>2022-03-08T14:17:31Z</time>
      </trkpt>
      <trkpt lat="43.544" lon="2.0288">
        <ele>210.4</ele>
        <time>2022-03-08T14:17:32Z</time>
      </trkpt>
      <trkpt lat="43.544" lon="2.0288">
        <ele>210.4</ele>
        <time>2022-03-08T14:17:33Z</time>
      </trkpt>
      <trkpt lat="43.544" lon="2.0288">
        <ele>210.4</ele>
        <time>2022-03-08T14:17:34Z</time>
      </trkpt>
      <trkpt lat="43.544" lon="2.0288">
        <ele>210.4</ele>
        <time>2022-03-08T14:17:35Z</time>
      </trkpt>
      <trkpt lat="43.544" lon="2.0288">
        <ele>210.4</ele>
        <time>2022-03-08T14:17:36Z</time>
      </trkpt>
      <trkpt lat="43.544" lon="2.0288">
        <ele>210.4</ele>
        <time>2022-03-08T14:17:37Z</time>
      </trkpt>
      <trkpt lat="43.544" lon="2.0288">
        <ele>210.4</ele>
        <time>2022-03-08T14:17:38Z</time>
      </trkpt>
      <trkpt lat="43.544" lon="2.0288">
        <ele>210.4</ele>
        <time>2022-03-08T14:17:39Z</time>
      </trkpt>
      <trkpt lat="43.544" lon="2.0288">
        <ele>210.4</ele>
        <time>2022-03-08T14:17:40Z</time>
      </trkpt>
      <trkpt lat="43.544" lon="2.0288">
        <ele>210.4</ele>
        <time>2022-03-08T14:17:41Z</time>
      </trkpt>
      <trkpt lat="43.544" lon="2.0288">
        <ele>210.4</ele>
        <time>2022-03-08T14:17:42Z</time>
      </trkpt>
      <trkpt lat="43.544" lon="2.0288">
        <ele>210.4</ele>
        <time>2022-03-08T14:17:43Z</time>
      </trkpt>
      <trkpt lat="43.544" lon="2.0288">
        <ele>210.4</ele>
        <time>2022-03-08T14:17:44Z</time>
      </trkpt>
      <trkpt lat="43.544" lon="2.0288">
        <ele>210.4</ele>
        <time>2022-03-08T14:17:45Z</time>
      </trkpt>
      <trkpt lat="43.544" lon="2.0288">
        <ele>210.4</ele>
        <time>2022-03-08T14:17:46Z</time>
      </trkpt>
      <trkpt lat="43.544" lon="2.0288">
        <ele>210.4</ele>
        <time>2022-03-08T14:17:47Z</time>
      </trkpt>
      <trkpt lat="43.544" lon="2.0288">
        <ele>210.4</ele>
        <time>2022-03-08T14:17:48Z</time>
      </trkpt>
      <trkpt lat="43.544" lon="2.0288">
        <ele>210.4</ele>
        <time>2022-03-08T14:17:49Z</time>
      </trkpt>
      <trkpt lat="43.544" lon="2.0288">
        <ele>210.4</ele>
        <time>2022-03-08T14:17:50Z</time>
      </trkpt>
      <trkpt lat="43.544" lon="2.0288">
        <ele>210.4</ele>
        <time>2022-03-08T14:17:51Z</time>
      </trkpt>
      <trkpt lat="43.544" lon="2.0288">
        <ele>210.4</ele>
        <time>2022-03-08T14:17:52Z</time>
      </trkpt>
      <trkpt lat="43.544" lon="2.0288">
        <ele>210.4</ele>
        <time>2022-03-08T14:17:53Z</time>
      </trkpt>
      <trkpt lat="43.544" lon="2.0288">
        <ele>210.4</ele>
        <time>2022-03-08T14:17:54Z</time>
      </trkpt>
      <trkpt lat="43.544" lon="2.0288">
        <ele>210.4</ele>
        <time>2022-03-08T14:17:55Z</time>
      </trkpt>
      <trkpt lat="43.544" lon="2.0288">
        <ele>210.4</ele>
        <time>2022-03-08T14:17:56Z</time>
      </trkpt>
      <trkpt lat="43.544" lon="2.0288">
        <ele>210.4</ele>
        <time>2022-03-08T14:17:57Z</time>
      </trkpt>
      <trkpt lat="43.544" lon="2.0288">
        <ele>210.4</ele>
        <time>2022-03-08T14:17:58Z</time>
      </trkpt>
      <trkpt lat="43.544" lon="2.0288">
        <ele>210.4</ele>
        <time>2022-03-08T14:17:59Z</time>
      </trkpt>
      <trkpt lat="43.544" lon="2.0288">
        <ele>210.4</ele>
        <time>2022-03-08T14:18:00Z</time>
      </trkpt>
      <trkpt lat="43.544" lon="2.0288">
        <ele>210.4</ele>
        <time>2022-03-08T14:18:01Z</time>
      </trkpt>
      <trkpt lat="43.544" lon="2.0288">
        <ele>210.4</ele>
        <time>2022-03-08T14:18:02Z</time>
      </trkpt>
      <trkpt lat="43.544" lon="2.0288">
        <ele>210.4</ele>
        <time>2022-03-08T14:18:03Z</time>
      </trkpt>
      <trkpt lat="43.544" lon="2.0288">
        <ele>210.4</ele>
        <time>2022-03-08T14:18:04Z</time>
      </trkpt>
      <trkpt lat="43.544" lon="2.0288">
        <ele>210.4</ele>
        <time>2022-03-08T14:18:05Z</time>
      </trkpt>
      <trkpt lat="43.544" lon="2.0288">
        <ele>210.4</ele>
        <time>2022-03-08T14:18:06Z</time>
      </trkpt>
      <trkpt lat="43.544" lon="2.0288">
        <ele>210.4</ele>
        <time>2022-03-08T14:18:07Z</time>
      </trkpt>
      <trkpt lat="43.544" lon="2.0288">
        <ele>210.4</ele>
        <time>2022-03-08T14:18:08Z</time>
      </trkpt>
      <trkpt lat="43.544" lon="2.0288">
        <ele>210.4</ele>
        <time>2022-03-08T14:18:09Z</time>
      </trkpt>
      <trkpt lat="43.544" lon="2.0288">
        <ele>210.4</ele>
        <time>2022-03-08T14:18:10Z</time>
      </trkpt>
      <trkpt lat="43.544" lon="2.0288">
        <ele>210.4</ele>
        <time>2022-03-08T14:18:11Z</time>
      </trkpt>
      <trkpt lat="43.544" lon="2.0288">
        <ele>210.4</ele>
        <time>2022-03-08T14:18:12Z</time>
      </trkpt>
      <trkpt lat="43.544" lon="2.0288">
        <ele>210.4</ele>
        <time>2022-03-08T14:18:13Z</time>
      </trkpt>
      <trkpt lat="43.544" lon="2.0288">
        <ele>210.4</ele>
        <time>2022-03-08T14:18:14Z</time>
      </trkpt>
      <trkpt lat="43.544" lon="2.0288">
        <ele>210.4</ele>
        <time>2022-03-08T14:18:15Z</time>
      </trkpt>
      <trkpt lat="43.544" lon="2.0288">
        <ele>210.4</ele>
        <time>2022-03-08T14:18:16Z</time>
      </trkpt>
      <trkpt lat="43.544" lon="2.0288">
        <ele>210.4</ele>
        <time>2022-03-08T14:18:17Z</time>
      </trkpt>
      <trkpt lat="43.544" lon="2.0288">
        <ele>210.4</ele>
        <time>2022-03-08T14:18:18Z</time>
      </trkpt>
      <trkpt lat="43.544" lon="2.0288">
        <ele>210.4</ele>
        <time>2022-03-08T14:18:19Z</time>
      </trkpt>
      <trkpt lat="43.544" lon="2.0288">
        <ele>210.4</ele>
        <time>2022-03-08T14:18:20Z</time>
      </trkpt>
      <trkpt lat="43.544" lon="2.0288">
        <ele>210.4</ele>
        <time>2022-03-08T14:18:21Z</time>
      </trkpt>
      <trkpt lat="43.544" lon="2.0288">
        <ele>210.4</ele>
        <time>2022-03-08T14:18:22Z</time>
      </trkpt>
      <trkpt lat="43.544" lon="2.0288">
        <ele>210.4</ele>
        <time>2022-03-08T14:18:23Z</time>
      </trkpt>
      <trkpt lat="43.544" lon="2.0288">
        <ele>210.4</ele>
        <time>2022-03-08T14:18:24Z</time>
      </trkpt>
      <trkpt lat="43.544" lon="2.0288">
        <ele>210.4</ele>
        <time>2022-03-08T14:18:25Z</time>
      </trkpt>
      <trkpt lat="43.544" lon="2.0288">
        <ele>210.4</ele>
        <time>2022-03-08T14:18:26Z</time>
      </trkpt>
      <trkpt lat="43.544" lon="2.0288">
        <ele>210.4</ele>
        <time>2022-03-08T14:18:27Z</time>
      </trkpt>
      <trkpt lat="43.544" lon="2.0288">
        <ele>210.4</ele>
        <time>2022-03-08T14:18:28Z</time>
      </trkpt>
      <trkpt lat="43.544" lon="2.0288">
        <ele>210.4</ele>
        <time>2022-03-08T14:18:29Z</time>
      </trkpt>
      <trkpt lat="43.544" lon="2.0288">
        <ele>210.4</ele>
        <time>2022-03-08T14:18:30Z</time>
      </trkpt>
      <trkpt lat="43.544" lon="2.0288">
        <ele>210.4</ele>
        <time>2022-03-08T14:18:31Z</time>
      </trkpt>
      <trkpt lat="43.544" lon="2.0288">
        <ele>210.4</ele>
        <time>2022-03-08T14:18:32Z</time>
      </trkpt>
      <trkpt lat="43.54401" lon="2.0288">
        <ele>210.4</ele>
        <time>2022-03-08T14:18:33Z</time>
      </trkpt>
      <trkpt lat="43.54401" lon="2.0288">
        <ele>210.4</ele>
        <time>2022-03-08T14:18:34Z</time>
      </trkpt>
      <trkpt lat="43.544" lon="2.0288">
        <ele>210.4</ele>
        <time>2022-03-08T14:18:35Z</time>
      </trkpt>
      <trkpt lat="43.544" lon="2.0288">
        <ele>210.4</ele>
        <time>2022-03-08T14:18:36Z</time>
      </trkpt>
      <trkpt lat="43.544" lon="2.02881">
        <ele>210.4</ele>
        <time>2022-03-08T14:18:37Z</time>
      </trkpt>
      <trkpt lat="43.544" lon="2.02881">
        <ele>210.4</ele>
        <time>2022-03-08T14:18:38Z</time>
      </trkpt>
      <trkpt lat="43.544" lon="2.02881">
        <ele>210.4</ele>
        <time>2022-03-08T14:18:39Z</time>
      </trkpt>
      <trkpt lat="43.544" lon="2.02881">
        <ele>210.4</ele>
        <time>2022-03-08T14:18:40Z</time>
      </trkpt>
      <trkpt lat="43.544" lon="2.02881">
        <ele>210.4</ele>
        <time>2022-03-08T14:18:41Z</time>
      </trkpt>
      <trkpt lat="43.544" lon="2.02881">
        <ele>210.4</ele>
        <time>2022-03-08T14:18:42Z</time>
      </trkpt>
      <trkpt lat="43.544" lon="2.02881">
        <ele>210.4</ele>
        <time>2022-03-08T14:18:43Z</time>
      </trkpt>
      <trkpt lat="43.544" lon="2.02881">
        <ele>210.4</ele>
        <time>2022-03-08T14:18:44Z</time>
      </trkpt>
      <trkpt lat="43.544" lon="2.02881">
        <ele>210.4</ele>
        <time>2022-03-08T14:18:45Z</time>
      </trkpt>
      <trkpt lat="43.544" lon="2.02881">
        <ele>210.4</ele>
        <time>2022-03-08T14:18:46Z</time>
      </trkpt>
      <trkpt lat="43.544" lon="2.02881">
        <ele>210.4</ele>
        <time>2022-03-08T14:18:47Z</time>
      </trkpt>
      <trkpt lat="43.544" lon="2.02881">
        <ele>210.4</ele>
        <time>2022-03-08T14:18:48Z</time>
      </trkpt>
      <trkpt lat="43.544" lon="2.02881">
        <ele>210.4</ele>
        <time>2022-03-08T14:18:49Z</time>
      </trkpt>
      <trkpt lat="43.544" lon="2.02881">
        <ele>210.4</ele>
        <time>2022-03-08T14:18:50Z</time>
      </trkpt>
      <trkpt lat="43.544" lon="2.02881">
        <ele>210.4</ele>
        <time>2022-03-08T14:18:51Z</time>
      </trkpt>
      <trkpt lat="43.544" lon="2.02881">
        <ele>210.4</ele>
        <time>2022-03-08T14:18:52Z</time>
      </trkpt>
      <trkpt lat="43.544" lon="2.02881">
        <ele>210.4</ele>
        <time>2022-03-08T14:18:53Z</time>
      </trkpt>
      <trkpt lat="43.544" lon="2.02881">
        <ele>210.4</ele>
        <time>2022-03-08T14:18:54Z</time>
      </trkpt>
      <trkpt lat="43.544" lon="2.02881">
        <ele>210.4</ele>
        <time>2022-03-08T14:18:55Z</time>
      </trkpt>
      <trkpt lat="43.544" lon="2.02881">
        <ele>210.4</ele>
        <time>2022-03-08T14:18:56Z</time>
      </trkpt>
      <trkpt lat="43.544" lon="2.02881">
        <ele>210.4</ele>
        <time>2022-03-08T14:18:57Z</time>
      </trkpt>
      <trkpt lat="43.544" lon="2.02881">
        <ele>210.4</ele>
        <time>2022-03-08T14:18:58Z</time>
      </trkpt>
      <trkpt lat="43.544" lon="2.02881">
        <ele>210.4</ele>
        <time>2022-03-08T14:18:59Z</time>
      </trkpt>
      <trkpt lat="43.544" lon="2.02881">
        <ele>210.4</ele>
        <time>2022-03-08T14:19:00Z</time>
      </trkpt>
      <trkpt lat="43.544" lon="2.02881">
        <ele>210.4</ele>
        <time>2022-03-08T14:19:01Z</time>
      </trkpt>
      <trkpt lat="43.544" lon="2.02881">
        <ele>210.4</ele>
        <time>2022-03-08T14:19:02Z</time>
      </trkpt>
      <trkpt lat="43.544" lon="2.02881">
        <ele>210.4</ele>
        <time>2022-03-08T14:19:03Z</time>
      </trkpt>
      <trkpt lat="43.544" lon="2.02881">
        <ele>210.4</ele>
        <time>2022-03-08T14:19:04Z</time>
      </trkpt>
      <trkpt lat="43.544" lon="2.02881">
        <ele>210.4</ele>
        <time>2022-03-08T14:19:05Z</time>
      </trkpt>
      <trkpt lat="43.544" lon="2.02881">
        <ele>210.4</ele>
        <time>2022-03-08T14:19:06Z</time>
      </trkpt>
      <trkpt lat="43.544" lon="2.02881">
        <ele>210.4</ele>
        <time>2022-03-08T14:19:07Z</time>
      </trkpt>
      <trkpt lat="43.544" lon="2.02881">
        <ele>210.4</ele>
        <time>2022-03-08T14:19:08Z</time>
      </trkpt>
      <trkpt lat="43.544" lon="2.02881">
        <ele>210.4</ele>
        <time>2022-03-08T14:19:09Z</time>
      </trkpt>
      <trkpt lat="43.544" lon="2.02881">
        <ele>210.4</ele>
        <time>2022-03-08T14:19:10Z</time>
      </trkpt>
      <trkpt lat="43.544" lon="2.02881">
        <ele>210.4</ele>
        <time>2022-03-08T14:19:11Z</time>
      </trkpt>
      <trkpt lat="43.544" lon="2.02881">
        <ele>210.4</ele>
        <time>2022-03-08T14:19:12Z</time>
      </trkpt>
      <trkpt lat="43.544" lon="2.02881">
        <ele>210.4</ele>
        <time>2022-03-08T14:19:13Z</time>
      </trkpt>
      <trkpt lat="43.544" lon="2.02881">
        <ele>210.4</ele>
        <time>2022-03-08T14:19:14Z</time>
      </trkpt>
      <trkpt lat="43.544" lon="2.02881">
        <ele>210.4</ele>
        <time>2022-03-08T14:19:15Z</time>
      </trkpt>
      <trkpt lat="43.544" lon="2.02881">
        <ele>210.4</ele>
        <time>2022-03-08T14:19:16Z</time>
      </trkpt>
      <trkpt lat="43.544" lon="2.02881">
        <ele>210.4</ele>
        <time>2022-03-08T14:19:17Z</time>
      </trkpt>
      <trkpt lat="43.544" lon="2.02881">
        <ele>210.4</ele>
        <time>2022-03-08T14:19:18Z</time>
      </trkpt>
      <trkpt lat="43.544" lon="2.02881">
        <ele>210.4</ele>
        <time>2022-03-08T14:19:19Z</time>
      </trkpt>
      <trkpt lat="43.544" lon="2.02881">
        <ele>210.4</ele>
        <time>2022-03-08T14:19:20Z</time>
      </trkpt>
      <trkpt lat="43.544" lon="2.02881">
        <ele>210.4</ele>
        <time>2022-03-08T14:19:21Z</time>
      </trkpt>
      <trkpt lat="43.544" lon="2.02881">
        <ele>210.4</ele>
        <time>2022-03-08T14:19:22Z</time>
      </trkpt>
      <trkpt lat="43.544" lon="2.02881">
        <ele>210.4</ele>
        <time>2022-03-08T14:19:23Z</time>
      </trkpt>
      <trkpt lat="43.544" lon="2.02881">
        <ele>210.4</ele>
        <time>2022-03-08T14:19:24Z</time>
      </trkpt>
      <trkpt lat="43.544" lon="2.02881">
        <ele>210.4</ele>
        <time>2022-03-08T14:19:25Z</time>
      </trkpt>
      <trkpt lat="43.544" lon="2.02881">
        <ele>210.4</ele>
        <time>2022-03-08T14:19:26Z</time>
      </trkpt>
      <trkpt lat="43.544" lon="2.02881">
        <ele>210.4</ele>
        <time>2022-03-08T14:19:27Z</time>
      </trkpt>
      <trkpt lat="43.544" lon="2.02881">
        <ele>210.4</ele>
        <time>2022-03-08T14:19:28Z</time>
      </trkpt>
      <trkpt lat="43.544" lon="2.02881">
        <ele>210.4</ele>
        <time>2022-03-08T14:19:29Z</time>
      </trkpt>
      <trkpt lat="43.544" lon="2.02881">
        <ele>210.4</ele>
        <time>2022-03-08T14:19:30Z</time>
      </trkpt>
      <trkpt lat="43.544" lon="2.02881">
        <ele>210.4</ele>
        <time>2022-03-08T14:19:31Z</time>
      </trkpt>
      <trkpt lat="43.544" lon="2.02881">
        <ele>210.4</ele>
        <time>2022-03-08T14:19:32Z</time>
      </trkpt>
      <trkpt lat="43.544" lon="2.0288">
        <ele>210.4</ele>
        <time>2022-03-08T14:19:33Z</time>
      </trkpt>
      <trkpt lat="43.544" lon="2.0288">
        <ele>210.4</ele>
        <time>2022-03-08T14:19:34Z</time>
      </trkpt>
      <trkpt lat="43.544" lon="2.0288">
        <ele>210.4</ele>
        <time>2022-03-08T14:19:35Z</time>
      </trkpt>
      <trkpt lat="43.544" lon="2.02879">
        <ele>210.4</ele>
        <time>2022-03-08T14:19:36Z</time>
      </trkpt>
      <trkpt lat="43.54399" lon="2.02879">
        <ele>210.4</ele>
        <time>2022-03-08T14:19:37Z</time>
      </trkpt>
      <trkpt lat="43.544" lon="2.02879">
        <ele>210.4</ele>
        <time>2022-03-08T14:19:38Z</time>
      </trkpt>
      <trkpt lat="43.54401" lon="2.02879">
        <ele>210.4</ele>
        <time>2022-03-08T14:19:39Z</time>
      </trkpt>
      <trkpt lat="43.54402" lon="2.02879">
        <ele>210.4</ele>
        <time>2022-03-08T14:19:40Z</time>
      </trkpt>
      <trkpt lat="43.54403" lon="2.02879">
        <ele>210.4</ele>
        <time>2022-03-08T14:19:41Z</time>
      </trkpt>
      <trkpt lat="43.54403" lon="2.02879">
        <ele>210.4</ele>
        <time>2022-03-08T14:19:42Z</time>
      </trkpt>
      <trkpt lat="43.54403" lon="2.02879">
        <ele>210.4</ele>
        <time>2022-03-08T14:19:43Z</time>
      </trkpt>
      <trkpt lat="43.54403" lon="2.02879">
        <ele>210.4</ele>
        <time>2022-03-08T14:19:44Z</time>
      </trkpt>
      <trkpt lat="43.54403" lon="2.02879">
        <ele>210.4</ele>
        <time>2022-03-08T14:19:45Z</time>
      </trkpt>
      <trkpt lat="43.54403" lon="2.02879">
        <ele>210.4</ele>
        <time>2022-03-08T14:19:46Z</time>
      </trkpt>
      <trkpt lat="43.54403" lon="2.02879">
        <ele>210.4</ele>
        <time>2022-03-08T14:19:47Z</time>
      </trkpt>
      <trkpt lat="43.54403" lon="2.02879">
        <ele>210.4</ele>
        <time>2022-03-08T14:19:48Z</time>
      </trkpt>
      <trkpt lat="43.54403" lon="2.02879">
        <ele>210.4</ele>
        <time>2022-03-08T14:19:49Z</time>
      </trkpt>
      <trkpt lat="43.54403" lon="2.02879">
        <ele>210.4</ele>
        <time>2022-03-08T14:19:50Z</time>
      </trkpt>
      <trkpt lat="43.54403" lon="2.02879">
        <ele>210.4</ele>
        <time>2022-03-08T14:19:51Z</time>
      </trkpt>
      <trkpt lat="43.54403" lon="2.02879">
        <ele>210.4</ele>
        <time>2022-03-08T14:19:52Z</time>
      </trkpt>
      <trkpt lat="43.54403" lon="2.02879">
        <ele>210.4</ele>
        <time>2022-03-08T14:19:53Z</time>
      </trkpt>
      <trkpt lat="43.54403" lon="2.02879">
        <ele>210.4</ele>
        <time>2022-03-08T14:19:54Z</time>
      </trkpt>
      <trkpt lat="43.54403" lon="2.02879">
        <ele>210.4</ele>
        <time>2022-03-08T14:19:55Z</time>
      </trkpt>
      <trkpt lat="43.54403" lon="2.02879">
        <ele>210.4</ele>
        <time>2022-03-08T14:19:56Z</time>
      </trkpt>
      <trkpt lat="43.54403" lon="2.02879">
        <ele>210.4</ele>
        <time>2022-03-08T14:19:57Z</time>
      </trkpt>
      <trkpt lat="43.54403" lon="2.02879">
        <ele>210.4</ele>
        <time>2022-03-08T14:19:58Z</time>
      </trkpt>
      <trkpt lat="43.54403" lon="2.02879">
        <ele>210.4</ele>
        <time>2022-03-08T14:19:59Z</time>
      </trkpt>
      <trkpt lat="43.54403" lon="2.02879">
        <ele>210.4</ele>
        <time>2022-03-08T14:20:00Z</time>
      </trkpt>
      <trkpt lat="43.54403" lon="2.02879">
        <ele>210.4</ele>
        <time>2022-03-08T14:20:01Z</time>
      </trkpt>
      <trkpt lat="43.54403" lon="2.02879">
        <ele>210.4</ele>
        <time>2022-03-08T14:20:02Z</time>
      </trkpt>
      <trkpt lat="43.54403" lon="2.02879">
        <ele>210.4</ele>
        <time>2022-03-08T14:20:03Z</time>
      </trkpt>
      <trkpt lat="43.54403" lon="2.02879">
        <ele>210.4</ele>
        <time>2022-03-08T14:20:04Z</time>
      </trkpt>
      <trkpt lat="43.54403" lon="2.02879">
        <ele>210.4</ele>
        <time>2022-03-08T14:20:05Z</time>
      </trkpt>
      <trkpt lat="43.54403" lon="2.02879">
        <ele>210.4</ele>
        <time>2022-03-08T14:20:06Z</time>
      </trkpt>
      <trkpt lat="43.54403" lon="2.02879">
        <ele>210.4</ele>
        <time>2022-03-08T14:20:07Z</time>
      </trkpt>
      <trkpt lat="43.54403" lon="2.02879">
        <ele>210.4</ele>
        <time>2022-03-08T14:20:08Z</time>
      </trkpt>
      <trkpt lat="43.54403" lon="2.02879">
        <ele>210.4</ele>
        <time>2022-03-08T14:20:09Z</time>
      </trkpt>
      <trkpt lat="43.54403" lon="2.02879">
        <ele>210.4</ele>
        <time>2022-03-08T14:20:10Z</time>
      </trkpt>
      <trkpt lat="43.54403" lon="2.02879">
        <ele>210.4</ele>
        <time>2022-03-08T14:20:11Z</time>
      </trkpt>
      <trkpt lat="43.54403" lon="2.02879">
        <ele>210.4</ele>
        <time>2022-03-08T14:20:12Z</time>
      </trkpt>
      <trkpt lat="43.54403" lon="2.02879">
        <ele>210.4</ele>
        <time>2022-03-08T14:20:13Z</time>
      </trkpt>
      <trkpt lat="43.54403" lon="2.02879">
        <ele>210.4</ele>
        <time>2022-03-08T14:20:14Z</time>
      </trkpt>
      <trkpt lat="43.54403" lon="2.02879">
        <ele>210.4</ele>
        <time>2022-03-08T14:20:15Z</time>
      </trkpt>
      <trkpt lat="43.54403" lon="2.02879">
        <ele>210.4</ele>
        <time>2022-03-08T14:20:16Z</time>
      </trkpt>
      <trkpt lat="43.54403" lon="2.02879">
        <ele>210.4</ele>
        <time>2022-03-08T14:20:17Z</time>
      </trkpt>
      <trkpt lat="43.54403" lon="2.02879">
        <ele>210.4</ele>
        <time>2022-03-08T14:20:18Z</time>
      </trkpt>
      <trkpt lat="43.54403" lon="2.02879">
        <ele>210.4</ele>
        <time>2022-03-08T14:20:19Z</time>
      </trkpt>
      <trkpt lat="43.54403" lon="2.02879">
        <ele>210.4</ele>
        <time>2022-03-08T14:20:20Z</time>
      </trkpt>
      <trkpt lat="43.54403" lon="2.02879">
        <ele>210.4</ele>
        <time>2022-03-08T14:20:21Z</time>
      </trkpt>
      <trkpt lat="43.54402" lon="2.02879">
        <ele>210.4</ele>
        <time>2022-03-08T14:20:22Z</time>
      </trkpt>
      <trkpt lat="43.54402" lon="2.02879">
        <ele>210.4</ele>
        <time>2022-03-08T14:20:23Z</time>
      </trkpt>
      <trkpt lat="43.54402" lon="2.0288">
        <ele>210.4</ele>
        <time>2022-03-08T14:20:24Z</time>
      </trkpt>
      <trkpt lat="43.54402" lon="2.0288">
        <ele>210.4</ele>
        <time>2022-03-08T14:20:25Z</time>
      </trkpt>
      <trkpt lat="43.54402" lon="2.0288">
        <ele>210.4</ele>
        <time>2022-03-08T14:20:26Z</time>
      </trkpt>
      <trkpt lat="43.54402" lon="2.0288">
        <ele>210.4</ele>
        <time>2022-03-08T14:20:27Z</time>
      </trkpt>
      <trkpt lat="43.54402" lon="2.0288">
        <ele>210.4</ele>
        <time>2022-03-08T14:20:28Z</time>
      </trkpt>
      <trkpt lat="43.54402" lon="2.0288">
        <ele>210.4</ele>
        <time>2022-03-08T14:20:29Z</time>
      </trkpt>
      <trkpt lat="43.54402" lon="2.0288">
        <ele>210.4</ele>
        <time>2022-03-08T14:20:30Z</time>
      </trkpt>
      <trkpt lat="43.54402" lon="2.0288">
        <ele>210.4</ele>
        <time>2022-03-08T14:20:31Z</time>
      </trkpt>
      <trkpt lat="43.54402" lon="2.0288">
        <ele>210.4</ele>
        <time>2022-03-08T14:20:32Z</time>
      </trkpt>
      <trkpt lat="43.54402" lon="2.0288">
        <ele>210.4</ele>
        <time>2022-03-08T14:20:33Z</time>
      </trkpt>
      <trkpt lat="43.54402" lon="2.0288">
        <ele>210.4</ele>
        <time>2022-03-08T14:20:34Z</time>
      </trkpt>
      <trkpt lat="43.54402" lon="2.0288">
        <ele>210.4</ele>
        <time>2022-03-08T14:20:35Z</time>
      </trkpt>
      <trkpt lat="43.54402" lon="2.0288">
        <ele>210.4</ele>
        <time>2022-03-08T14:20:36Z</time>
      </trkpt>
      <trkpt lat="43.54402" lon="2.0288">
        <ele>210.4</ele>
        <time>2022-03-08T14:20:37Z</time>
      </trkpt>
      <trkpt lat="43.54402" lon="2.0288">
        <ele>210.4</ele>
        <time>2022-03-08T14:20:38Z</time>
      </trkpt>
      <trkpt lat="43.54402" lon="2.0288">
        <ele>210.4</ele>
        <time>2022-03-08T14:20:39Z</time>
      </trkpt>
      <trkpt lat="43.54402" lon="2.0288">
        <ele>210.4</ele>
        <time>2022-03-08T14:20:40Z</time>
      </trkpt>
      <trkpt lat="43.54402" lon="2.0288">
        <ele>210.4</ele>
        <time>2022-03-08T14:20:41Z</time>
      </trkpt>
      <trkpt lat="43.54402" lon="2.0288">
        <ele>210.4</ele>
        <time>2022-03-08T14:20:42Z</time>
      </trkpt>
      <trkpt lat="43.54402" lon="2.0288">
        <ele>210.4</ele>
        <time>2022-03-08T14:20:43Z</time>
      </trkpt>
      <trkpt lat="43.54402" lon="2.0288">
        <ele>210.4</ele>
        <time>2022-03-08T14:20:44Z</time>
      </trkpt>
      <trkpt lat="43.54402" lon="2.0288">
        <ele>210.4</ele>
        <time>2022-03-08T14:20:45Z</time>
      </trkpt>
      <trkpt lat="43.54402" lon="2.0288">
        <ele>210.4</ele>
        <time>2022-03-08T14:20:46Z</time>
      </trkpt>
      <trkpt lat="43.54402" lon="2.0288">
        <ele>210.4</ele>
        <time>2022-03-08T14:20:47Z</time>
      </trkpt>
      <trkpt lat="43.54402" lon="2.0288">
        <ele>210.4</ele>
        <time>2022-03-08T14:20:48Z</time>
      </trkpt>
      <trkpt lat="43.54402" lon="2.0288">
        <ele>210.4</ele>
        <time>2022-03-08T14:20:49Z</time>
      </trkpt>
      <trkpt lat="43.54402" lon="2.0288">
        <ele>210.4</ele>
        <time>2022-03-08T14:20:50Z</time>
      </trkpt>
      <trkpt lat="43.54402" lon="2.0288">
        <ele>210.4</ele>
        <time>2022-03-08T14:20:51Z</time>
      </trkpt>
      <trkpt lat="43.54402" lon="2.0288">
        <ele>210.4</ele>
        <time>2022-03-08T14:20:52Z</time>
      </trkpt>
      <trkpt lat="43.54402" lon="2.0288">
        <ele>210.4</ele>
        <time>2022-03-08T14:20:53Z</time>
      </trkpt>
      <trkpt lat="43.54402" lon="2.0288">
        <ele>210.4</ele>
        <time>2022-03-08T14:20:54Z</time>
      </trkpt>
      <trkpt lat="43.54402" lon="2.0288">
        <ele>210.4</ele>
        <time>2022-03-08T14:20:55Z</time>
      </trkpt>
      <trkpt lat="43.54402" lon="2.0288">
        <ele>210.4</ele>
        <time>2022-03-08T14:20:56Z</time>
      </trkpt>
      <trkpt lat="43.54402" lon="2.0288">
        <ele>210.4</ele>
        <time>2022-03-08T14:20:57Z</time>
      </trkpt>
      <trkpt lat="43.54402" lon="2.0288">
        <ele>210.4</ele>
        <time>2022-03-08T14:20:58Z</time>
      </trkpt>
      <trkpt lat="43.54402" lon="2.0288">
        <ele>210.4</ele>
        <time>2022-03-08T14:20:59Z</time>
      </trkpt>
      <trkpt lat="43.54402" lon="2.0288">
        <ele>210.4</ele>
        <time>2022-03-08T14:21:00Z</time>
      </trkpt>
      <trkpt lat="43.54402" lon="2.0288">
        <ele>210.4</ele>
        <time>2022-03-08T14:21:01Z</time>
      </trkpt>
      <trkpt lat="43.54402" lon="2.0288">
        <ele>210.4</ele>
        <time>2022-03-08T14:21:02Z</time>
      </trkpt>
      <trkpt lat="43.54402" lon="2.0288">
        <ele>210.4</ele>
        <time>2022-03-08T14:21:03Z</time>
      </trkpt>
      <trkpt lat="43.54402" lon="2.0288">
        <ele>210.4</ele>
        <time>2022-03-08T14:21:04Z</time>
      </trkpt>
      <trkpt lat="43.54402" lon="2.0288">
        <ele>210.4</ele>
        <time>2022-03-08T14:21:05Z</time>
      </trkpt>
      <trkpt lat="43.54402" lon="2.0288">
        <ele>210.4</ele>
        <time>2022-03-08T14:21:06Z</time>
      </trkpt>
      <trkpt lat="43.54402" lon="2.0288">
        <ele>210.4</ele>
        <time>2022-03-08T14:21:07Z</time>
      </trkpt>
      <trkpt lat="43.54402" lon="2.0288">
        <ele>210.4</ele>
        <time>2022-03-08T14:21:08Z</time>
      </trkpt>
      <trkpt lat="43.54402" lon="2.0288">
        <ele>210.4</ele>
        <time>2022-03-08T14:21:09Z</time>
      </trkpt>
      <trkpt lat="43.54402" lon="2.0288">
        <ele>210.4</ele>
        <time>2022-03-08T14:21:10Z</time>
      </trkpt>
      <trkpt lat="43.54402" lon="2.0288">
        <ele>210.4</ele>
        <time>2022-03-08T14:21:11Z</time>
      </trkpt>
      <trkpt lat="43.54402" lon="2.0288">
        <ele>210.4</ele>
        <time>2022-03-08T14:21:12Z</time>
      </trkpt>
      <trkpt lat="43.54402" lon="2.0288">
        <ele>210.4</ele>
        <time>2022-03-08T14:21:13Z</time>
      </trkpt>
      <trkpt lat="43.54402" lon="2.0288">
        <ele>210.4</ele>
        <time>2022-03-08T14:21:14Z</time>
      </trkpt>
      <trkpt lat="43.54402" lon="2.0288">
        <ele>210.4</ele>
        <time>2022-03-08T14:21:15Z</time>
      </trkpt>
      <trkpt lat="43.54402" lon="2.0288">
        <ele>210.4</ele>
        <time>2022-03-08T14:21:16Z</time>
      </trkpt>
      <trkpt lat="43.54402" lon="2.0288">
        <ele>210.4</ele>
        <time>2022-03-08T14:21:17Z</time>
      </trkpt>
      <trkpt lat="43.54402" lon="2.0288">
        <ele>210.4</ele>
        <time>2022-03-08T14:21:18Z</time>
      </trkpt>
      <trkpt lat="43.54402" lon="2.0288">
        <ele>210.4</ele>
        <time>2022-03-08T14:21:19Z</time>
      </trkpt>
      <trkpt lat="43.54402" lon="2.0288">
        <ele>210.4</ele>
        <time>2022-03-08T14:21:20Z</time>
      </trkpt>
      <trkpt lat="43.54402" lon="2.0288">
        <ele>210.4</ele>
        <time>2022-03-08T14:21:21Z</time>
      </trkpt>
      <trkpt lat="43.54402" lon="2.0288">
        <ele>210.4</ele>
        <time>2022-03-08T14:21:22Z</time>
      </trkpt>
      <trkpt lat="43.54402" lon="2.0288">
        <ele>210.4</ele>
        <time>2022-03-08T14:21:23Z</time>
      </trkpt>
      <trkpt lat="43.54402" lon="2.0288">
        <ele>210.4</ele>
        <time>2022-03-08T14:21:24Z</time>
      </trkpt>
      <trkpt lat="43.54402" lon="2.0288">
        <ele>210.4</ele>
        <time>2022-03-08T14:21:25Z</time>
      </trkpt>
      <trkpt lat="43.54402" lon="2.0288">
        <ele>210.4</ele>
        <time>2022-03-08T14:21:26Z</time>
      </trkpt>
      <trkpt lat="43.54402" lon="2.0288">
        <ele>210.4</ele>
        <time>2022-03-08T14:21:27Z</time>
      </trkpt>
      <trkpt lat="43.54402" lon="2.0288">
        <ele>210.4</ele>
        <time>2022-03-08T14:21:28Z</time>
      </trkpt>
      <trkpt lat="43.54402" lon="2.0288">
        <ele>210.4</ele>
        <time>2022-03-08T14:21:29Z</time>
      </trkpt>
      <trkpt lat="43.54402" lon="2.0288">
        <ele>210.4</ele>
        <time>2022-03-08T14:21:30Z</time>
      </trkpt>
      <trkpt lat="43.54402" lon="2.0288">
        <ele>210.4</ele>
        <time>2022-03-08T14:21:31Z</time>
      </trkpt>
      <trkpt lat="43.54402" lon="2.0288">
        <ele>210.4</ele>
        <time>2022-03-08T14:21:32Z</time>
      </trkpt>
      <trkpt lat="43.54402" lon="2.0288">
        <ele>210.4</ele>
        <time>2022-03-08T14:21:33Z</time>
      </trkpt>
      <trkpt lat="43.54402" lon="2.0288">
        <ele>210.4</ele>
        <time>2022-03-08T14:21:34Z</time>
      </trkpt>
      <trkpt lat="43.54402" lon="2.0288">
        <ele>210.4</ele>
        <time>2022-03-08T14:21:35Z</time>
      </trkpt>
      <trkpt lat="43.54402" lon="2.0288">
        <ele>210.4</ele>
        <time>2022-03-08T14:21:36Z</time>
      </trkpt>
      <trkpt lat="43.54402" lon="2.0288">
        <ele>210.4</ele>
        <time>2022-03-08T14:21:37Z</time>
      </trkpt>
      <trkpt lat="43.54402" lon="2.0288">
        <ele>210.4</ele>
        <time>2022-03-08T14:21:38Z</time>
      </trkpt>
      <trkpt lat="43.54402" lon="2.0288">
        <ele>210.4</ele>
        <time>2022-03-08T14:21:39Z</time>
      </trkpt>
      <trkpt lat="43.54402" lon="2.0288">
        <ele>210.4</ele>
        <time>2022-03-08T14:21:40Z</time>
      </trkpt>
      <trkpt lat="43.54402" lon="2.0288">
        <ele>210.4</ele>
        <time>2022-03-08T14:21:41Z</time>
      </trkpt>
      <trkpt lat="43.54402" lon="2.0288">
        <ele>210.4</ele>
        <time>2022-03-08T14:21:42Z</time>
      </trkpt>
      <trkpt lat="43.54402" lon="2.0288">
        <ele>210.4</ele>
        <time>2022-03-08T14:21:43Z</time>
      </trkpt>
      <trkpt lat="43.54402" lon="2.0288">
        <ele>210.4</ele>
        <time>2022-03-08T14:21:44Z</time>
      </trkpt>
      <trkpt lat="43.54402" lon="2.0288">
        <ele>210.4</ele>
        <time>2022-03-08T14:21:45Z</time>
      </trkpt>
      <trkpt lat="43.54402" lon="2.0288">
        <ele>210.4</ele>
        <time>2022-03-08T14:21:46Z</time>
      </trkpt>
      <trkpt lat="43.54402" lon="2.0288">
        <ele>210.4</ele>
        <time>2022-03-08T14:21:47Z</time>
      </trkpt>
      <trkpt lat="43.54402" lon="2.0288">
        <ele>210.4</ele>
        <time>2022-03-08T14:21:48Z</time>
      </trkpt>
      <trkpt lat="43.54402" lon="2.0288">
        <ele>210.4</ele>
        <time>2022-03-08T14:21:49Z</time>
      </trkpt>
      <trkpt lat="43.54402" lon="2.0288">
        <ele>210.4</ele>
        <time>2022-03-08T14:21:50Z</time>
      </trkpt>
      <trkpt lat="43.54402" lon="2.0288">
        <ele>210.4</ele>
        <time>2022-03-08T14:21:51Z</time>
      </trkpt>
      <trkpt lat="43.54402" lon="2.0288">
        <ele>210.4</ele>
        <time>2022-03-08T14:21:52Z</time>
      </trkpt>
      <trkpt lat="43.54402" lon="2.0288">
        <ele>210.4</ele>
        <time>2022-03-08T14:21:53Z</time>
      </trkpt>
      <trkpt lat="43.54402" lon="2.0288">
        <ele>210.4</ele>
        <time>2022-03-08T14:21:54Z</time>
      </trkpt>
      <trkpt lat="43.54402" lon="2.0288">
        <ele>210.4</ele>
        <time>2022-03-08T14:21:55Z</time>
      </trkpt>
      <trkpt lat="43.54402" lon="2.0288">
        <ele>210.4</ele>
        <time>2022-03-08T14:21:56Z</time>
      </trkpt>
      <trkpt lat="43.54402" lon="2.0288">
        <ele>210.4</ele>
        <time>2022-03-08T14:21:57Z</time>
      </trkpt>
      <trkpt lat="43.54402" lon="2.0288">
        <ele>210.4</ele>
        <time>2022-03-08T14:21:58Z</time>
      </trkpt>
      <trkpt lat="43.54402" lon="2.0288">
        <ele>210.4</ele>
        <time>2022-03-08T14:21:59Z</time>
      </trkpt>
      <trkpt lat="43.54402" lon="2.0288">
        <ele>210.4</ele>
        <time>2022-03-08T14:22:00Z</time>
      </trkpt>
      <trkpt lat="43.54402" lon="2.0288">
        <ele>210.4</ele>
        <time>2022-03-08T14:22:01Z</time>
      </trkpt>
      <trkpt lat="43.54402" lon="2.0288">
        <ele>210.4</ele>
        <time>2022-03-08T14:22:02Z</time>
      </trkpt>
      <trkpt lat="43.54402" lon="2.0288">
        <ele>210.4</ele>
        <time>2022-03-08T14:22:03Z</time>
      </trkpt>
      <trkpt lat="43.54402" lon="2.0288">
        <ele>210.4</ele>
        <time>2022-03-08T14:22:04Z</time>
      </trkpt>
      <trkpt lat="43.54402" lon="2.0288">
        <ele>210.4</ele>
        <time>2022-03-08T14:22:05Z</time>
      </trkpt>
      <trkpt lat="43.54402" lon="2.0288">
        <ele>210.4</ele>
        <time>2022-03-08T14:22:06Z</time>
      </trkpt>
      <trkpt lat="43.54402" lon="2.0288">
        <ele>210.4</ele>
        <time>2022-03-08T14:22:07Z</time>
      </trkpt>
      <trkpt lat="43.54402" lon="2.0288">
        <ele>210.4</ele>
        <time>2022-03-08T14:22:08Z</time>
      </trkpt>
      <trkpt lat="43.54402" lon="2.0288">
        <ele>210.4</ele>
        <time>2022-03-08T14:22:09Z</time>
      </trkpt>
      <trkpt lat="43.54402" lon="2.0288">
        <ele>210.4</ele>
        <time>2022-03-08T14:22:10Z</time>
      </trkpt>
      <trkpt lat="43.54402" lon="2.0288">
        <ele>210.4</ele>
        <time>2022-03-08T14:22:11Z</time>
      </trkpt>
      <trkpt lat="43.54402" lon="2.0288">
        <ele>210.4</ele>
        <time>2022-03-08T14:22:12Z</time>
      </trkpt>
      <trkpt lat="43.54402" lon="2.0288">
        <ele>210.4</ele>
        <time>2022-03-08T14:22:13Z</time>
      </trkpt>
      <trkpt lat="43.54402" lon="2.0288">
        <ele>210.4</ele>
        <time>2022-03-08T14:22:14Z</time>
      </trkpt>
      <trkpt lat="43.54402" lon="2.0288">
        <ele>210.4</ele>
        <time>2022-03-08T14:22:15Z</time>
      </trkpt>
      <trkpt lat="43.54402" lon="2.0288">
        <ele>210.4</ele>
        <time>2022-03-08T14:22:16Z</time>
      </trkpt>
      <trkpt lat="43.54402" lon="2.0288">
        <ele>210.4</ele>
        <time>2022-03-08T14:22:17Z</time>
      </trkpt>
      <trkpt lat="43.54402" lon="2.0288">
        <ele>210.4</ele>
        <time>2022-03-08T14:22:18Z</time>
      </trkpt>
      <trkpt lat="43.54402" lon="2.0288">
        <ele>210.4</ele>
        <time>2022-03-08T14:22:19Z</time>
      </trkpt>
      <trkpt lat="43.54402" lon="2.0288">
        <ele>210.4</ele>
        <time>2022-03-08T14:22:20Z</time>
      </trkpt>
      <trkpt lat="43.54402" lon="2.02879">
        <ele>210.4</ele>
        <time>2022-03-08T14:22:21Z</time>
      </trkpt>
      <trkpt lat="43.54402" lon="2.02878">
        <ele>210.4</ele>
        <time>2022-03-08T14:22:22Z</time>
      </trkpt>
      <trkpt lat="43.54401" lon="2.02878">
        <ele>210.4</ele>
        <time>2022-03-08T14:22:23Z</time>
      </trkpt>
      <trkpt lat="43.54401" lon="2.02877">
        <ele>210.4</ele>
        <time>2022-03-08T14:22:24Z</time>
      </trkpt>
      <trkpt lat="43.54401" lon="2.02877">
        <ele>210.4</ele>
        <time>2022-03-08T14:22:25Z</time>
      </trkpt>
      <trkpt lat="43.54401" lon="2.02877">
        <ele>210.4</ele>
        <time>2022-03-08T14:22:26Z</time>
      </trkpt>
      <trkpt lat="43.54401" lon="2.02877">
        <ele>210.4</ele>
        <time>2022-03-08T14:22:27Z</time>
      </trkpt>
      <trkpt lat="43.54401" lon="2.02877">
        <ele>210.4</ele>
        <time>2022-03-08T14:22:28Z</time>
      </trkpt>
      <trkpt lat="43.54401" lon="2.02877">
        <ele>210.4</ele>
        <time>2022-03-08T14:22:29Z</time>
      </trkpt>
      <trkpt lat="43.54401" lon="2.02877">
        <ele>210.4</ele>
        <time>2022-03-08T14:22:30Z</time>
      </trkpt>
      <trkpt lat="43.54401" lon="2.02877">
        <ele>210.4</ele>
        <time>2022-03-08T14:22:31Z</time>
      </trkpt>
      <trkpt lat="43.54401" lon="2.02877">
        <ele>210.4</ele>
        <time>2022-03-08T14:22:32Z</time>
      </trkpt>
      <trkpt lat="43.54401" lon="2.02877">
        <ele>210.4</ele>
        <time>2022-03-08T14:22:33Z</time>
      </trkpt>
      <trkpt lat="43.54401" lon="2.02877">
        <ele>210.4</ele>
        <time>2022-03-08T14:22:34Z</time>
      </trkpt>
      <trkpt lat="43.54401" lon="2.02877">
        <ele>210.4</ele>
        <time>2022-03-08T14:22:35Z</time>
      </trkpt>
      <trkpt lat="43.54401" lon="2.02877">
        <ele>210.4</ele>
        <time>2022-03-08T14:22:36Z</time>
      </trkpt>
      <trkpt lat="43.54402" lon="2.02877">
        <ele>210.4</ele>
        <time>2022-03-08T14:22:37Z</time>
      </trkpt>
      <trkpt lat="43.54403" lon="2.02877">
        <ele>210.4</ele>
        <time>2022-03-08T14:22:38Z</time>
      </trkpt>
      <trkpt lat="43.54404" lon="2.02878">
        <ele>210.4</ele>
        <time>2022-03-08T14:22:39Z</time>
      </trkpt>
      <trkpt lat="43.54405" lon="2.0288">
        <ele>210.4</ele>
        <time>2022-03-08T14:22:40Z</time>
      </trkpt>
      <trkpt lat="43.54405" lon="2.0288">
        <ele>210.4</ele>
        <time>2022-03-08T14:22:41Z</time>
      </trkpt>
      <trkpt lat="43.54405" lon="2.02881">
        <ele>210.4</ele>
        <time>2022-03-08T14:22:42Z</time>
      </trkpt>
      <trkpt lat="43.54405" lon="2.02882">
        <ele>210.4</ele>
        <time>2022-03-08T14:22:43Z</time>
      </trkpt>
      <trkpt lat="43.54405" lon="2.02882">
        <ele>210.4</ele>
        <time>2022-03-08T14:22:44Z</time>
      </trkpt>
      <trkpt lat="43.54405" lon="2.02883">
        <ele>210.4</ele>
        <time>2022-03-08T14:22:45Z</time>
      </trkpt>
      <trkpt lat="43.54405" lon="2.02884">
        <ele>210.4</ele>
        <time>2022-03-08T14:22:46Z</time>
      </trkpt>
      <trkpt lat="43.54405" lon="2.02887">
        <ele>210.4</ele>
        <time>2022-03-08T14:22:48Z</time>
      </trkpt>
      <trkpt lat="43.54404" lon="2.02888">
        <ele>210.8</ele>
        <time>2022-03-08T14:22:49Z</time>
      </trkpt>
      <trkpt lat="43.54404" lon="2.0289">
        <ele>210.9</ele>
        <time>2022-03-08T14:22:50Z</time>
      </trkpt>
      <trkpt lat="43.54405" lon="2.02891">
        <ele>210.9</ele>
        <time>2022-03-08T14:22:51Z</time>
      </trkpt>
      <trkpt lat="43.54405" lon="2.02892">
        <ele>211</ele>
        <time>2022-03-08T14:22:52Z</time>
      </trkpt>
      <trkpt lat="43.54406" lon="2.02894">
        <ele>211.1</ele>
        <time>2022-03-08T14:22:53Z</time>
      </trkpt>
      <trkpt lat="43.54407" lon="2.02895">
        <ele>211.2</ele>
        <time>2022-03-08T14:22:54Z</time>
      </trkpt>
      <trkpt lat="43.54408" lon="2.02897">
        <ele>211.3</ele>
        <time>2022-03-08T14:22:56Z</time>
      </trkpt>
      <trkpt lat="43.54409" lon="2.02898">
        <ele>211.4</ele>
        <time>2022-03-08T14:22:57Z</time>
      </trkpt>
      <trkpt lat="43.5441" lon="2.02898">
        <ele>211.4</ele>
        <time>2022-03-08T14:22:58Z</time>
      </trkpt>
      <trkpt lat="43.5441" lon="2.02897">
        <ele>211.4</ele>
        <time>2022-03-08T14:22:59Z</time>
      </trkpt>
      <trkpt lat="43.5441" lon="2.02897">
        <ele>211.4</ele>
        <time>2022-03-08T14:23:00Z</time>
      </trkpt>
      <trkpt lat="43.5441" lon="2.02896">
        <ele>211.5</ele>
        <time>2022-03-08T14:23:01Z</time>
      </trkpt>
      <trkpt lat="43.54409" lon="2.02896">
        <ele>211.5</ele>
        <time>2022-03-08T14:23:02Z</time>
      </trkpt>
      <trkpt lat="43.54409" lon="2.02896">
        <ele>211.5</ele>
        <time>2022-03-08T14:23:03Z</time>
      </trkpt>
      <trkpt lat="43.54409" lon="2.02896">
        <ele>211.5</ele>
        <time>2022-03-08T14:23:04Z</time>
      </trkpt>
      <trkpt lat="43.54409" lon="2.02896">
        <ele>211.5</ele>
        <time>2022-03-08T14:23:05Z</time>
      </trkpt>
      <trkpt lat="43.54409" lon="2.02896">
        <ele>211.5</ele>
        <time>2022-03-08T14:23:06Z</time>
      </trkpt>
      <trkpt lat="43.54409" lon="2.02896">
        <ele>211.5</ele>
        <time>2022-03-08T14:23:07Z</time>
      </trkpt>
      <trkpt lat="43.5441" lon="2.02896">
        <ele>211.5</ele>
        <time>2022-03-08T14:23:08Z</time>
      </trkpt>
      <trkpt lat="43.54411" lon="2.02896">
        <ele>211.6</ele>
        <time>2022-03-08T14:23:09Z</time>
      </trkpt>
      <trkpt lat="43.54412" lon="2.02896">
        <ele>211.6</ele>
        <time>2022-03-08T14:23:10Z</time>
      </trkpt>
      <trkpt lat="43.54413" lon="2.02897">
        <ele>211.7</ele>
        <time>2022-03-08T14:23:12Z</time>
      </trkpt>
      <trkpt lat="43.54414" lon="2.02897">
        <ele>211.8</ele>
        <time>2022-03-08T14:23:13Z</time>
      </trkpt>
      <trkpt lat="43.54417" lon="2.02897">
        <ele>212</ele>
        <time>2022-03-08T14:23:14Z</time>
      </trkpt>
      <trkpt lat="43.5442" lon="2.02895">
        <ele>212.2</ele>
        <time>2022-03-08T14:23:15Z</time>
      </trkpt>
      <trkpt lat="43.54422" lon="2.02895">
        <ele>212.3</ele>
        <time>2022-03-08T14:23:16Z</time>
      </trkpt>
      <trkpt lat="43.54424" lon="2.02893">
        <ele>212.5</ele>
        <time>2022-03-08T14:23:17Z</time>
      </trkpt>
      <trkpt lat="43.54426" lon="2.02891">
        <ele>212.7</ele>
        <time>2022-03-08T14:23:18Z</time>
      </trkpt>
      <trkpt lat="43.5443" lon="2.02889">
        <ele>212.9</ele>
        <time>2022-03-08T14:23:19Z</time>
      </trkpt>
      <trkpt lat="43.54431" lon="2.02889">
        <ele>213</ele>
        <time>2022-03-08T14:23:20Z</time>
      </trkpt>
      <trkpt lat="43.54433" lon="2.02888">
        <ele>213.1</ele>
        <time>2022-03-08T14:23:21Z</time>
      </trkpt>
      <trkpt lat="43.54435" lon="2.02888">
        <ele>213.3</ele>
        <time>2022-03-08T14:23:23Z</time>
      </trkpt>
      <trkpt lat="43.54437" lon="2.02888">
        <ele>213.4</ele>
        <time>2022-03-08T14:23:24Z</time>
      </trkpt>
      <trkpt lat="43.54438" lon="2.02887">
        <ele>213.5</ele>
        <time>2022-03-08T14:23:25Z</time>
      </trkpt>
      <trkpt lat="43.5444" lon="2.02887">
        <ele>213.6</ele>
        <time>2022-03-08T14:23:26Z</time>
      </trkpt>
      <trkpt lat="43.54442" lon="2.02886">
        <ele>213.7</ele>
        <time>2022-03-08T14:23:27Z</time>
      </trkpt>
      <trkpt lat="43.54443" lon="2.02886">
        <ele>213.8</ele>
        <time>2022-03-08T14:23:28Z</time>
      </trkpt>
      <trkpt lat="43.54445" lon="2.02886">
        <ele>213.9</ele>
        <time>2022-03-08T14:23:29Z</time>
      </trkpt>
      <trkpt lat="43.54446" lon="2.02886">
        <ele>214</ele>
        <time>2022-03-08T14:23:30Z</time>
      </trkpt>
      <trkpt lat="43.54448" lon="2.02886">
        <ele>214.1</ele>
        <time>2022-03-08T14:23:31Z</time>
      </trkpt>
      <trkpt lat="43.54449" lon="2.02886">
        <ele>214.2</ele>
        <time>2022-03-08T14:23:33Z</time>
      </trkpt>
      <trkpt lat="43.5445" lon="2.02887">
        <ele>214.3</ele>
        <time>2022-03-08T14:23:34Z</time>
      </trkpt>
      <trkpt lat="43.54451" lon="2.02887">
        <ele>214.3</ele>
        <time>2022-03-08T14:23:35Z</time>
      </trkpt>
      <trkpt lat="43.54453" lon="2.02887">
        <ele>214.4</ele>
        <time>2022-03-08T14:23:36Z</time>
      </trkpt>
      <trkpt lat="43.54454" lon="2.02887">
        <ele>214.5</ele>
        <time>2022-03-08T14:23:37Z</time>
      </trkpt>
      <trkpt lat="43.54456" lon="2.02886">
        <ele>214.6</ele>
        <time>2022-03-08T14:23:38Z</time>
      </trkpt>
      <trkpt lat="43.54457" lon="2.02887">
        <ele>214.7</ele>
        <time>2022-03-08T14:23:39Z</time>
      </trkpt>
      <trkpt lat="43.54459" lon="2.02887">
        <ele>214.8</ele>
        <time>2022-03-08T14:23:40Z</time>
      </trkpt>
      <trkpt lat="43.5446" lon="2.02887">
        <ele>214.9</ele>
        <time>2022-03-08T14:23:42Z</time>
      </trkpt>
      <trkpt lat="43.54462" lon="2.02887">
        <ele>215</ele>
        <time>2022-03-08T14:23:43Z</time>
      </trkpt>
      <trkpt lat="43.54463" lon="2.02888">
        <ele>215.1</ele>
        <time>2022-03-08T14:23:44Z</time>
      </trkpt>
      <trkpt lat="43.54465" lon="2.02888">
        <ele>215.2</ele>
        <time>2022-03-08T14:23:45Z</time>
      </trkpt>
      <trkpt lat="43.54467" lon="2.02889">
        <ele>215.3</ele>
        <time>2022-03-08T14:23:46Z</time>
      </trkpt>
      <trkpt lat="43.54468" lon="2.02889">
        <ele>215.4</ele>
        <time>2022-03-08T14:23:47Z</time>
      </trkpt>
      <trkpt lat="43.54469" lon="2.02889">
        <ele>215.5</ele>
        <time>2022-03-08T14:23:48Z</time>
      </trkpt>
      <trkpt lat="43.54471" lon="2.0289">
        <ele>215.6</ele>
        <time>2022-03-08T14:23:49Z</time>
      </trkpt>
      <trkpt lat="43.54473" lon="2.02891">
        <ele>215.7</ele>
        <time>2022-03-08T14:23:51Z</time>
      </trkpt>
      <trkpt lat="43.54474" lon="2.02892">
        <ele>215.8</ele>
        <time>2022-03-08T14:23:52Z</time>
      </trkpt>
      <trkpt lat="43.54476" lon="2.02894">
        <ele>216.1</ele>
        <time>2022-03-08T14:23:53Z</time>
      </trkpt>
      <trkpt lat="43.54477" lon="2.02894">
        <ele>216.2</ele>
        <time>2022-03-08T14:23:54Z</time>
      </trkpt>
      <trkpt lat="43.54478" lon="2.02895">
        <ele>216.2</ele>
        <time>2022-03-08T14:23:55Z</time>
      </trkpt>
      <trkpt lat="43.54479" lon="2.02896">
        <ele>216.4</ele>
        <time>2022-03-08T14:23:56Z</time>
      </trkpt>
      <trkpt lat="43.5448" lon="2.02897">
        <ele>216.4</ele>
        <time>2022-03-08T14:23:57Z</time>
      </trkpt>
      <trkpt lat="43.54482" lon="2.02898">
        <ele>216.6</ele>
        <time>2022-03-08T14:23:59Z</time>
      </trkpt>
      <trkpt lat="43.54483" lon="2.02898">
        <ele>216.7</ele>
        <time>2022-03-08T14:24:00Z</time>
      </trkpt>
      <trkpt lat="43.54484" lon="2.02898">
        <ele>216.8</ele>
        <time>2022-03-08T14:24:01Z</time>
      </trkpt>
      <trkpt lat="43.54485" lon="2.02899">
        <ele>216.8</ele>
        <time>2022-03-08T14:24:02Z</time>
      </trkpt>
      <trkpt lat="43.54485" lon="2.02899">
        <ele>216.9</ele>
        <time>2022-03-08T14:24:03Z</time>
      </trkpt>
      <trkpt lat="43.54486" lon="2.02899">
        <ele>216.9</ele>
        <time>2022-03-08T14:24:04Z</time>
      </trkpt>
      <trkpt lat="43.54486" lon="2.02899">
        <ele>216.9</ele>
        <time>2022-03-08T14:24:05Z</time>
      </trkpt>
      <trkpt lat="43.54486" lon="2.02899">
        <ele>216.9</ele>
        <time>2022-03-08T14:24:06Z</time>
      </trkpt>
      <trkpt lat="43.54487" lon="2.02899">
        <ele>217</ele>
        <time>2022-03-08T14:24:07Z</time>
      </trkpt>
      <trkpt lat="43.54487" lon="2.02899">
        <ele>217</ele>
        <time>2022-03-08T14:24:08Z</time>
      </trkpt>
      <trkpt lat="43.54487" lon="2.02899">
        <ele>217</ele>
        <time>2022-03-08T14:24:09Z</time>
      </trkpt>
      <trkpt lat="43.54488" lon="2.029">
        <ele>217.1</ele>
        <time>2022-03-08T14:24:10Z</time>
      </trkpt>
      <trkpt lat="43.54488" lon="2.029">
        <ele>217.1</ele>
        <time>2022-03-08T14:24:11Z</time>
      </trkpt>
      <trkpt lat="43.54489" lon="2.02901">
        <ele>217.2</ele>
        <time>2022-03-08T14:24:13Z</time>
      </trkpt>
      <trkpt lat="43.5449" lon="2.02902">
        <ele>217.2</ele>
        <time>2022-03-08T14:24:14Z</time>
      </trkpt>
      <trkpt lat="43.5449" lon="2.02904">
        <ele>217.3</ele>
        <time>2022-03-08T14:24:15Z</time>
      </trkpt>
      <trkpt lat="43.5449" lon="2.02906">
        <ele>217.4</ele>
        <time>2022-03-08T14:24:16Z</time>
      </trkpt>
      <trkpt lat="43.54491" lon="2.02907">
        <ele>217.5</ele>
        <time>2022-03-08T14:24:18Z</time>
      </trkpt>
      <trkpt lat="43.54491" lon="2.02908">
        <ele>217.5</ele>
        <time>2022-03-08T14:24:19Z</time>
      </trkpt>
      <trkpt lat="43.54491" lon="2.02909">
        <ele>217.5</ele>
        <time>2022-03-08T14:24:20Z</time>
      </trkpt>
      <trkpt lat="43.54491" lon="2.0291">
        <ele>217.6</ele>
        <time>2022-03-08T14:24:21Z</time>
      </trkpt>
      <trkpt lat="43.54492" lon="2.02912">
        <ele>217.6</ele>
        <time>2022-03-08T14:24:22Z</time>
      </trkpt>
      <trkpt lat="43.54493" lon="2.02914">
        <ele>217.7</ele>
        <time>2022-03-08T14:24:24Z</time>
      </trkpt>
      <trkpt lat="43.54493" lon="2.02915">
        <ele>217.8</ele>
        <time>2022-03-08T14:24:25Z</time>
      </trkpt>
      <trkpt lat="43.54494" lon="2.02917">
        <ele>217.8</ele>
        <time>2022-03-08T14:24:26Z</time>
      </trkpt>
      <trkpt lat="43.54495" lon="2.02921">
        <ele>217.9</ele>
        <time>2022-03-08T14:24:27Z</time>
      </trkpt>
      <trkpt lat="43.54495" lon="2.02922">
        <ele>217.9</ele>
        <time>2022-03-08T14:24:28Z</time>
      </trkpt>
      <trkpt lat="43.54496" lon="2.02925">
        <ele>218</ele>
        <time>2022-03-08T14:24:29Z</time>
      </trkpt>
      <trkpt lat="43.54496" lon="2.02928">
        <ele>218</ele>
        <time>2022-03-08T14:24:31Z</time>
      </trkpt>
      <trkpt lat="43.54497" lon="2.02932">
        <ele>218.1</ele>
        <time>2022-03-08T14:24:33Z</time>
      </trkpt>
      <trkpt lat="43.54498" lon="2.02932">
        <ele>218.1</ele>
        <time>2022-03-08T14:24:34Z</time>
      </trkpt>
      <trkpt lat="43.54498" lon="2.02933">
        <ele>218.1</ele>
        <time>2022-03-08T14:24:35Z</time>
      </trkpt>
      <trkpt lat="43.54499" lon="2.02935">
        <ele>218.2</ele>
        <time>2022-03-08T14:24:36Z</time>
      </trkpt>
      <trkpt lat="43.545" lon="2.02936">
        <ele>218.2</ele>
        <time>2022-03-08T14:24:37Z</time>
      </trkpt>
      <trkpt lat="43.54502" lon="2.02938">
        <ele>218.2</ele>
        <time>2022-03-08T14:24:39Z</time>
      </trkpt>
      <trkpt lat="43.54503" lon="2.02939">
        <ele>218.2</ele>
        <time>2022-03-08T14:24:40Z</time>
      </trkpt>
      <trkpt lat="43.54503" lon="2.0294">
        <ele>218.2</ele>
        <time>2022-03-08T14:24:41Z</time>
      </trkpt>
      <trkpt lat="43.54504" lon="2.02941">
        <ele>218.2</ele>
        <time>2022-03-08T14:24:42Z</time>
      </trkpt>
      <trkpt lat="43.54505" lon="2.02942">
        <ele>218.3</ele>
        <time>2022-03-08T14:24:43Z</time>
      </trkpt>
      <trkpt lat="43.54506" lon="2.02943">
        <ele>218.3</ele>
        <time>2022-03-08T14:24:44Z</time>
      </trkpt>
      <trkpt lat="43.54506" lon="2.02945">
        <ele>218.3</ele>
        <time>2022-03-08T14:24:45Z</time>
      </trkpt>
      <trkpt lat="43.54508" lon="2.02947">
        <ele>218.3</ele>
        <time>2022-03-08T14:24:47Z</time>
      </trkpt>
      <trkpt lat="43.54509" lon="2.02948">
        <ele>218.3</ele>
        <time>2022-03-08T14:24:48Z</time>
      </trkpt>
      <trkpt lat="43.54509" lon="2.0295">
        <ele>218.3</ele>
        <time>2022-03-08T14:24:49Z</time>
      </trkpt>
      <trkpt lat="43.5451" lon="2.02952">
        <ele>218.4</ele>
        <time>2022-03-08T14:24:51Z</time>
      </trkpt>
      <trkpt lat="43.54511" lon="2.02953">
        <ele>218.4</ele>
        <time>2022-03-08T14:24:52Z</time>
      </trkpt>
      <trkpt lat="43.54512" lon="2.02955">
        <ele>218.4</ele>
        <time>2022-03-08T14:24:53Z</time>
      </trkpt>
      <trkpt lat="43.54513" lon="2.02956">
        <ele>218.4</ele>
        <time>2022-03-08T14:24:54Z</time>
      </trkpt>
      <trkpt lat="43.54515" lon="2.02958">
        <ele>218.4</ele>
        <time>2022-03-08T14:24:55Z</time>
      </trkpt>
      <trkpt lat="43.54516" lon="2.02959">
        <ele>218.4</ele>
        <time>2022-03-08T14:24:56Z</time>
      </trkpt>
      <trkpt lat="43.54516" lon="2.0296">
        <ele>218.4</ele>
        <time>2022-03-08T14:24:57Z</time>
      </trkpt>
      <trkpt lat="43.54517" lon="2.02962">
        <ele>218.4</ele>
        <time>2022-03-08T14:24:58Z</time>
      </trkpt>
      <trkpt lat="43.54519" lon="2.02963">
        <ele>218.4</ele>
        <time>2022-03-08T14:24:59Z</time>
      </trkpt>
      <trkpt lat="43.54521" lon="2.02964">
        <ele>218.5</ele>
        <time>2022-03-08T14:25:00Z</time>
      </trkpt>
      <trkpt lat="43.54521" lon="2.02965">
        <ele>218.5</ele>
        <time>2022-03-08T14:25:01Z</time>
      </trkpt>
      <trkpt lat="43.54522" lon="2.02965">
        <ele>218.5</ele>
        <time>2022-03-08T14:25:02Z</time>
      </trkpt>
      <trkpt lat="43.54524" lon="2.02966">
        <ele>218.5</ele>
        <time>2022-03-08T14:25:03Z</time>
      </trkpt>
      <trkpt lat="43.54525" lon="2.02966">
        <ele>218.5</ele>
        <time>2022-03-08T14:25:04Z</time>
      </trkpt>
      <trkpt lat="43.54526" lon="2.02966">
        <ele>218.5</ele>
        <time>2022-03-08T14:25:05Z</time>
      </trkpt>
      <trkpt lat="43.54528" lon="2.02966">
        <ele>218.5</ele>
        <time>2022-03-08T14:25:06Z</time>
      </trkpt>
      <trkpt lat="43.54529" lon="2.02966">
        <ele>218.5</ele>
        <time>2022-03-08T14:25:07Z</time>
      </trkpt>
      <trkpt lat="43.54529" lon="2.02967">
        <ele>218.5</ele>
        <time>2022-03-08T14:25:08Z</time>
      </trkpt>
      <trkpt lat="43.54531" lon="2.02967">
        <ele>218.5</ele>
        <time>2022-03-08T14:25:09Z</time>
      </trkpt>
      <trkpt lat="43.54532" lon="2.02967">
        <ele>218.5</ele>
        <time>2022-03-08T14:25:10Z</time>
      </trkpt>
      <trkpt lat="43.54533" lon="2.02967">
        <ele>218.5</ele>
        <time>2022-03-08T14:25:11Z</time>
      </trkpt>
      <trkpt lat="43.54534" lon="2.02968">
        <ele>218.6</ele>
        <time>2022-03-08T14:25:12Z</time>
      </trkpt>
      <trkpt lat="43.54535" lon="2.02967">
        <ele>218.6</ele>
        <time>2022-03-08T14:25:13Z</time>
      </trkpt>
      <trkpt lat="43.54536" lon="2.02968">
        <ele>218.6</ele>
        <time>2022-03-08T14:25:14Z</time>
      </trkpt>
      <trkpt lat="43.54538" lon="2.0297">
        <ele>218.6</ele>
        <time>2022-03-08T14:25:15Z</time>
      </trkpt>
      <trkpt lat="43.54539" lon="2.02971">
        <ele>218.6</ele>
        <time>2022-03-08T14:25:17Z</time>
      </trkpt>
      <trkpt lat="43.5454" lon="2.02972">
        <ele>218.7</ele>
        <time>2022-03-08T14:25:18Z</time>
      </trkpt>
      <trkpt lat="43.54541" lon="2.02973">
        <ele>218.7</ele>
        <time>2022-03-08T14:25:19Z</time>
      </trkpt>
      <trkpt lat="43.54542" lon="2.02974">
        <ele>218.7</ele>
        <time>2022-03-08T14:25:20Z</time>
      </trkpt>
      <trkpt lat="43.54543" lon="2.02977">
        <ele>218.8</ele>
        <time>2022-03-08T14:25:21Z</time>
      </trkpt>
      <trkpt lat="43.54545" lon="2.0298">
        <ele>218.9</ele>
        <time>2022-03-08T14:25:23Z</time>
      </trkpt>
      <trkpt lat="43.54546" lon="2.02984">
        <ele>219</ele>
        <time>2022-03-08T14:25:24Z</time>
      </trkpt>
      <trkpt lat="43.54547" lon="2.02986">
        <ele>219</ele>
        <time>2022-03-08T14:25:25Z</time>
      </trkpt>
      <trkpt lat="43.54547" lon="2.02991">
        <ele>219.2</ele>
        <time>2022-03-08T14:25:26Z</time>
      </trkpt>
      <trkpt lat="43.54548" lon="2.02992">
        <ele>219.2</ele>
        <time>2022-03-08T14:25:27Z</time>
      </trkpt>
      <trkpt lat="43.54548" lon="2.02994">
        <ele>219.3</ele>
        <time>2022-03-08T14:25:28Z</time>
      </trkpt>
      <trkpt lat="43.54547" lon="2.02996">
        <ele>219.3</ele>
        <time>2022-03-08T14:25:29Z</time>
      </trkpt>
      <trkpt lat="43.54546" lon="2.03">
        <ele>219.4</ele>
        <time>2022-03-08T14:25:30Z</time>
      </trkpt>
      <trkpt lat="43.54546" lon="2.03001">
        <ele>219.5</ele>
        <time>2022-03-08T14:25:31Z</time>
      </trkpt>
      <trkpt lat="43.54545" lon="2.03003">
        <ele>219.5</ele>
        <time>2022-03-08T14:25:32Z</time>
      </trkpt>
      <trkpt lat="43.54545" lon="2.03005">
        <ele>219.6</ele>
        <time>2022-03-08T14:25:33Z</time>
      </trkpt>
      <trkpt lat="43.54544" lon="2.03006">
        <ele>219.7</ele>
        <time>2022-03-08T14:25:34Z</time>
      </trkpt>
      <trkpt lat="43.54543" lon="2.03008">
        <ele>219.7</ele>
        <time>2022-03-08T14:25:35Z</time>
      </trkpt>
      <trkpt lat="43.54543" lon="2.03009">
        <ele>219.8</ele>
        <time>2022-03-08T14:25:36Z</time>
      </trkpt>
      <trkpt lat="43.54543" lon="2.0301">
        <ele>219.8</ele>
        <time>2022-03-08T14:25:37Z</time>
      </trkpt>
      <trkpt lat="43.54543" lon="2.03012">
        <ele>219.9</ele>
        <time>2022-03-08T14:25:39Z</time>
      </trkpt>
      <trkpt lat="43.54544" lon="2.03013">
        <ele>219.9</ele>
        <time>2022-03-08T14:25:40Z</time>
      </trkpt>
      <trkpt lat="43.54544" lon="2.03016">
        <ele>220</ele>
        <time>2022-03-08T14:25:41Z</time>
      </trkpt>
      <trkpt lat="43.54545" lon="2.03018">
        <ele>220.1</ele>
        <time>2022-03-08T14:25:42Z</time>
      </trkpt>
      <trkpt lat="43.54545" lon="2.03019">
        <ele>220.1</ele>
        <time>2022-03-08T14:25:43Z</time>
      </trkpt>
      <trkpt lat="43.54546" lon="2.03022">
        <ele>220.3</ele>
        <time>2022-03-08T14:25:44Z</time>
      </trkpt>
      <trkpt lat="43.54546" lon="2.03023">
        <ele>220.3</ele>
        <time>2022-03-08T14:25:45Z</time>
      </trkpt>
      <trkpt lat="43.54549" lon="2.03027">
        <ele>220.5</ele>
        <time>2022-03-08T14:25:46Z</time>
      </trkpt>
      <trkpt lat="43.54549" lon="2.03028">
        <ele>220.6</ele>
        <time>2022-03-08T14:25:47Z</time>
      </trkpt>
      <trkpt lat="43.54553" lon="2.0303">
        <ele>220.8</ele>
        <time>2022-03-08T14:25:48Z</time>
      </trkpt>
      <trkpt lat="43.54554" lon="2.03031">
        <ele>220.9</ele>
        <time>2022-03-08T14:25:49Z</time>
      </trkpt>
      <trkpt lat="43.54557" lon="2.03031">
        <ele>221.1</ele>
        <time>2022-03-08T14:25:50Z</time>
      </trkpt>
      <trkpt lat="43.5456" lon="2.03031">
        <ele>221.3</ele>
        <time>2022-03-08T14:25:51Z</time>
      </trkpt>
      <trkpt lat="43.54563" lon="2.0303">
        <ele>221.6</ele>
        <time>2022-03-08T14:25:52Z</time>
      </trkpt>
      <trkpt lat="43.54564" lon="2.03029">
        <ele>221.7</ele>
        <time>2022-03-08T14:25:53Z</time>
      </trkpt>
      <trkpt lat="43.54567" lon="2.03028">
        <ele>221.9</ele>
        <time>2022-03-08T14:25:54Z</time>
      </trkpt>
      <trkpt lat="43.54567" lon="2.03028">
        <ele>222</ele>
        <time>2022-03-08T14:25:55Z</time>
      </trkpt>
      <trkpt lat="43.54569" lon="2.03027">
        <ele>222.1</ele>
        <time>2022-03-08T14:25:56Z</time>
      </trkpt>
      <trkpt lat="43.54571" lon="2.03027">
        <ele>222.2</ele>
        <time>2022-03-08T14:25:57Z</time>
      </trkpt>
      <trkpt lat="43.54572" lon="2.03027">
        <ele>222.3</ele>
        <time>2022-03-08T14:25:58Z</time>
      </trkpt>
      <trkpt lat="43.54574" lon="2.03027">
        <ele>222.4</ele>
        <time>2022-03-08T14:25:59Z</time>
      </trkpt>
      <trkpt lat="43.54575" lon="2.03027">
        <ele>222.6</ele>
        <time>2022-03-08T14:26:00Z</time>
      </trkpt>
      <trkpt lat="43.54577" lon="2.03028">
        <ele>222.7</ele>
        <time>2022-03-08T14:26:02Z</time>
      </trkpt>
      <trkpt lat="43.54578" lon="2.03029">
        <ele>222.8</ele>
        <time>2022-03-08T14:26:03Z</time>
      </trkpt>
      <trkpt lat="43.54579" lon="2.0303">
        <ele>222.9</ele>
        <time>2022-03-08T14:26:04Z</time>
      </trkpt>
      <trkpt lat="43.5458" lon="2.03032">
        <ele>223</ele>
        <time>2022-03-08T14:26:05Z</time>
      </trkpt>
      <trkpt lat="43.54581" lon="2.03033">
        <ele>223.1</ele>
        <time>2022-03-08T14:26:06Z</time>
      </trkpt>
      <trkpt lat="43.54582" lon="2.03033">
        <ele>223.1</ele>
        <time>2022-03-08T14:26:07Z</time>
      </trkpt>
      <trkpt lat="43.54583" lon="2.03034">
        <ele>223.1</ele>
        <time>2022-03-08T14:26:08Z</time>
      </trkpt>
      <trkpt lat="43.54583" lon="2.03034">
        <ele>223.1</ele>
        <time>2022-03-08T14:26:09Z</time>
      </trkpt>
      <trkpt lat="43.54584" lon="2.03034">
        <ele>223.1</ele>
        <time>2022-03-08T14:26:10Z</time>
      </trkpt>
      <trkpt lat="43.54584" lon="2.03034">
        <ele>223.1</ele>
        <time>2022-03-08T14:26:12Z</time>
      </trkpt>
      <trkpt lat="43.54584" lon="2.03034">
        <ele>223.1</ele>
        <time>2022-03-08T14:26:13Z</time>
      </trkpt>
      <trkpt lat="43.54585" lon="2.03034">
        <ele>223.1</ele>
        <time>2022-03-08T14:26:14Z</time>
      </trkpt>
      <trkpt lat="43.54587" lon="2.03034">
        <ele>223.1</ele>
        <time>2022-03-08T14:26:15Z</time>
      </trkpt>
      <trkpt lat="43.54588" lon="2.03034">
        <ele>223.2</ele>
        <time>2022-03-08T14:26:16Z</time>
      </trkpt>
      <trkpt lat="43.54589" lon="2.03034">
        <ele>223.2</ele>
        <time>2022-03-08T14:26:17Z</time>
      </trkpt>
      <trkpt lat="43.54592" lon="2.03034">
        <ele>223.2</ele>
        <time>2022-03-08T14:26:18Z</time>
      </trkpt>
      <trkpt lat="43.54593" lon="2.03034">
        <ele>223.2</ele>
        <time>2022-03-08T14:26:19Z</time>
      </trkpt>
      <trkpt lat="43.54596" lon="2.03034">
        <ele>223.2</ele>
        <time>2022-03-08T14:26:20Z</time>
      </trkpt>
      <trkpt lat="43.54598" lon="2.03033">
        <ele>223.2</ele>
        <time>2022-03-08T14:26:21Z</time>
      </trkpt>
      <trkpt lat="43.546" lon="2.03033">
        <ele>223.3</ele>
        <time>2022-03-08T14:26:23Z</time>
      </trkpt>
      <trkpt lat="43.54601" lon="2.03033">
        <ele>223.3</ele>
        <time>2022-03-08T14:26:24Z</time>
      </trkpt>
      <trkpt lat="43.54603" lon="2.03033">
        <ele>223.3</ele>
        <time>2022-03-08T14:26:25Z</time>
      </trkpt>
      <trkpt lat="43.54604" lon="2.03032">
        <ele>223.3</ele>
        <time>2022-03-08T14:26:26Z</time>
      </trkpt>
      <trkpt lat="43.54605" lon="2.03032">
        <ele>223.3</ele>
        <time>2022-03-08T14:26:27Z</time>
      </trkpt>
      <trkpt lat="43.54605" lon="2.03032">
        <ele>223.3</ele>
        <time>2022-03-08T14:26:29Z</time>
      </trkpt>
      <trkpt lat="43.54606" lon="2.03033">
        <ele>223.3</ele>
        <time>2022-03-08T14:26:31Z</time>
      </trkpt>
      <trkpt lat="43.54608" lon="2.03033">
        <ele>223.3</ele>
        <time>2022-03-08T14:26:32Z</time>
      </trkpt>
      <trkpt lat="43.5461" lon="2.03033">
        <ele>223.3</ele>
        <time>2022-03-08T14:26:33Z</time>
      </trkpt>
      <trkpt lat="43.54611" lon="2.03033">
        <ele>223.3</ele>
        <time>2022-03-08T14:26:34Z</time>
      </trkpt>
      <trkpt lat="43.54612" lon="2.03033">
        <ele>223.4</ele>
        <time>2022-03-08T14:26:35Z</time>
      </trkpt>
      <trkpt lat="43.54613" lon="2.03032">
        <ele>223.4</ele>
        <time>2022-03-08T14:26:36Z</time>
      </trkpt>
      <trkpt lat="43.54613" lon="2.03033">
        <ele>223.4</ele>
        <time>2022-03-08T14:26:37Z</time>
      </trkpt>
      <trkpt lat="43.54614" lon="2.03033">
        <ele>223.3</ele>
        <time>2022-03-08T14:26:38Z</time>
      </trkpt>
      <trkpt lat="43.54614" lon="2.03033">
        <ele>223.3</ele>
        <time>2022-03-08T14:26:39Z</time>
      </trkpt>
      <trkpt lat="43.54615" lon="2.03033">
        <ele>223.3</ele>
        <time>2022-03-08T14:26:40Z</time>
      </trkpt>
      <trkpt lat="43.54616" lon="2.03034">
        <ele>223.4</ele>
        <time>2022-03-08T14:26:41Z</time>
      </trkpt>
      <trkpt lat="43.54617" lon="2.03034">
        <ele>223.4</ele>
        <time>2022-03-08T14:26:42Z</time>
      </trkpt>
      <trkpt lat="43.54619" lon="2.03035">
        <ele>223.4</ele>
        <time>2022-03-08T14:26:43Z</time>
      </trkpt>
      <trkpt lat="43.5462" lon="2.03035">
        <ele>223.4</ele>
        <time>2022-03-08T14:26:44Z</time>
      </trkpt>
      <trkpt lat="43.54621" lon="2.03035">
        <ele>223.4</ele>
        <time>2022-03-08T14:26:45Z</time>
      </trkpt>
      <trkpt lat="43.54623" lon="2.03035">
        <ele>223.4</ele>
        <time>2022-03-08T14:26:46Z</time>
      </trkpt>
      <trkpt lat="43.54624" lon="2.03035">
        <ele>223.4</ele>
        <time>2022-03-08T14:26:47Z</time>
      </trkpt>
      <trkpt lat="43.54625" lon="2.03035">
        <ele>223.4</ele>
        <time>2022-03-08T14:26:48Z</time>
      </trkpt>
      <trkpt lat="43.54627" lon="2.03036">
        <ele>223.4</ele>
        <time>2022-03-08T14:26:49Z</time>
      </trkpt>
      <trkpt lat="43.54628" lon="2.03036">
        <ele>223.4</ele>
        <time>2022-03-08T14:26:50Z</time>
      </trkpt>
      <trkpt lat="43.54629" lon="2.03037">
        <ele>223.3</ele>
        <time>2022-03-08T14:26:51Z</time>
      </trkpt>
      <trkpt lat="43.5463" lon="2.03038">
        <ele>223.3</ele>
        <time>2022-03-08T14:26:53Z</time>
      </trkpt>
      <trkpt lat="43.54631" lon="2.03039">
        <ele>223.3</ele>
        <time>2022-03-08T14:26:54Z</time>
      </trkpt>
      <trkpt lat="43.54632" lon="2.03039">
        <ele>223.3</ele>
        <time>2022-03-08T14:26:55Z</time>
      </trkpt>
      <trkpt lat="43.54632" lon="2.03039">
        <ele>223.3</ele>
        <time>2022-03-08T14:26:56Z</time>
      </trkpt>
      <trkpt lat="43.54633" lon="2.03039">
        <ele>223.3</ele>
        <time>2022-03-08T14:26:57Z</time>
      </trkpt>
      <trkpt lat="43.54634" lon="2.0304">
        <ele>223.3</ele>
        <time>2022-03-08T14:26:58Z</time>
      </trkpt>
      <trkpt lat="43.54635" lon="2.0304">
        <ele>223.3</ele>
        <time>2022-03-08T14:26:59Z</time>
      </trkpt>
      <trkpt lat="43.54637" lon="2.0304">
        <ele>223.2</ele>
        <time>2022-03-08T14:27:00Z</time>
      </trkpt>
      <trkpt lat="43.54638" lon="2.03041">
        <ele>223.2</ele>
        <time>2022-03-08T14:27:01Z</time>
      </trkpt>
      <trkpt lat="43.54639" lon="2.03041">
        <ele>223.2</ele>
        <time>2022-03-08T14:27:02Z</time>
      </trkpt>
      <trkpt lat="43.5464" lon="2.03041">
        <ele>223.2</ele>
        <time>2022-03-08T14:27:03Z</time>
      </trkpt>
      <trkpt lat="43.54641" lon="2.03042">
        <ele>223.1</ele>
        <time>2022-03-08T14:27:05Z</time>
      </trkpt>
      <trkpt lat="43.54642" lon="2.03042">
        <ele>223.1</ele>
        <time>2022-03-08T14:27:06Z</time>
      </trkpt>
      <trkpt lat="43.54643" lon="2.03043">
        <ele>223.1</ele>
        <time>2022-03-08T14:27:07Z</time>
      </trkpt>
      <trkpt lat="43.54644" lon="2.03043">
        <ele>223</ele>
        <time>2022-03-08T14:27:08Z</time>
      </trkpt>
      <trkpt lat="43.54645" lon="2.03043">
        <ele>223</ele>
        <time>2022-03-08T14:27:09Z</time>
      </trkpt>
      <trkpt lat="43.54648" lon="2.03043">
        <ele>223</ele>
        <time>2022-03-08T14:27:10Z</time>
      </trkpt>
      <trkpt lat="43.54648" lon="2.03043">
        <ele>223</ele>
        <time>2022-03-08T14:27:11Z</time>
      </trkpt>
      <trkpt lat="43.54649" lon="2.03043">
        <ele>223</ele>
        <time>2022-03-08T14:27:12Z</time>
      </trkpt>
      <trkpt lat="43.5465" lon="2.03044">
        <ele>222.9</ele>
        <time>2022-03-08T14:27:13Z</time>
      </trkpt>
      <trkpt lat="43.54652" lon="2.03044">
        <ele>222.9</ele>
        <time>2022-03-08T14:27:14Z</time>
      </trkpt>
      <trkpt lat="43.54653" lon="2.03045">
        <ele>222.8</ele>
        <time>2022-03-08T14:27:15Z</time>
      </trkpt>
      <trkpt lat="43.54654" lon="2.03046">
        <ele>222.7</ele>
        <time>2022-03-08T14:27:16Z</time>
      </trkpt>
      <trkpt lat="43.54655" lon="2.03047">
        <ele>222.7</ele>
        <time>2022-03-08T14:27:18Z</time>
      </trkpt>
      <trkpt lat="43.54657" lon="2.03049">
        <ele>222.6</ele>
        <time>2022-03-08T14:27:19Z</time>
      </trkpt>
      <trkpt lat="43.54658" lon="2.0305">
        <ele>222.6</ele>
        <time>2022-03-08T14:27:20Z</time>
      </trkpt>
      <trkpt lat="43.54659" lon="2.03051">
        <ele>222.5</ele>
        <time>2022-03-08T14:27:21Z</time>
      </trkpt>
      <trkpt lat="43.5466" lon="2.03051">
        <ele>222.5</ele>
        <time>2022-03-08T14:27:22Z</time>
      </trkpt>
      <trkpt lat="43.54661" lon="2.03052">
        <ele>222.5</ele>
        <time>2022-03-08T14:27:24Z</time>
      </trkpt>
      <trkpt lat="43.54662" lon="2.03053">
        <ele>222.3</ele>
        <time>2022-03-08T14:27:25Z</time>
      </trkpt>
      <trkpt lat="43.54662" lon="2.03055">
        <ele>222.3</ele>
        <time>2022-03-08T14:27:26Z</time>
      </trkpt>
      <trkpt lat="43.54663" lon="2.03055">
        <ele>222.3</ele>
        <time>2022-03-08T14:27:27Z</time>
      </trkpt>
      <trkpt lat="43.54664" lon="2.03056">
        <ele>222.3</ele>
        <time>2022-03-08T14:27:28Z</time>
      </trkpt>
      <trkpt lat="43.54666" lon="2.03058">
        <ele>222.1</ele>
        <time>2022-03-08T14:27:30Z</time>
      </trkpt>
      <trkpt lat="43.54667" lon="2.03059">
        <ele>222</ele>
        <time>2022-03-08T14:27:31Z</time>
      </trkpt>
      <trkpt lat="43.54668" lon="2.0306">
        <ele>222</ele>
        <time>2022-03-08T14:27:32Z</time>
      </trkpt>
      <trkpt lat="43.5467" lon="2.03062">
        <ele>221.9</ele>
        <time>2022-03-08T14:27:33Z</time>
      </trkpt>
      <trkpt lat="43.54671" lon="2.03062">
        <ele>221.9</ele>
        <time>2022-03-08T14:27:35Z</time>
      </trkpt>
      <trkpt lat="43.54672" lon="2.03063">
        <ele>221.6</ele>
        <time>2022-03-08T14:27:36Z</time>
      </trkpt>
      <trkpt lat="43.54673" lon="2.03064">
        <ele>221.6</ele>
        <time>2022-03-08T14:27:37Z</time>
      </trkpt>
      <trkpt lat="43.54674" lon="2.03064">
        <ele>221.6</ele>
        <time>2022-03-08T14:27:38Z</time>
      </trkpt>
      <trkpt lat="43.54675" lon="2.03064">
        <ele>221.4</ele>
        <time>2022-03-08T14:27:39Z</time>
      </trkpt>
      <trkpt lat="43.54675" lon="2.03064">
        <ele>221.4</ele>
        <time>2022-03-08T14:27:40Z</time>
      </trkpt>
      <trkpt lat="43.54676" lon="2.03064">
        <ele>221.4</ele>
        <time>2022-03-08T14:27:41Z</time>
      </trkpt>
      <trkpt lat="43.54676" lon="2.03064">
        <ele>221.4</ele>
        <time>2022-03-08T14:27:42Z</time>
      </trkpt>
      <trkpt lat="43.54677" lon="2.03064">
        <ele>221.4</ele>
        <time>2022-03-08T14:27:43Z</time>
      </trkpt>
      <trkpt lat="43.54677" lon="2.03064">
        <ele>221.4</ele>
        <time>2022-03-08T14:27:44Z</time>
      </trkpt>
      <trkpt lat="43.54678" lon="2.03064">
        <ele>221.2</ele>
        <time>2022-03-08T14:27:45Z</time>
      </trkpt>
      <trkpt lat="43.54678" lon="2.03064">
        <ele>221.2</ele>
        <time>2022-03-08T14:27:46Z</time>
      </trkpt>
      <trkpt lat="43.54679" lon="2.03065">
        <ele>221.2</ele>
        <time>2022-03-08T14:27:47Z</time>
      </trkpt>
      <trkpt lat="43.5468" lon="2.03065">
        <ele>221.2</ele>
        <time>2022-03-08T14:27:48Z</time>
      </trkpt>
      <trkpt lat="43.5468" lon="2.03064">
        <ele>221.2</ele>
        <time>2022-03-08T14:27:50Z</time>
      </trkpt>
      <trkpt lat="43.54681" lon="2.03064">
        <ele>221</ele>
        <time>2022-03-08T14:27:51Z</time>
      </trkpt>
      <trkpt lat="43.54681" lon="2.03063">
        <ele>221</ele>
        <time>2022-03-08T14:27:52Z</time>
      </trkpt>
      <trkpt lat="43.54681" lon="2.03063">
        <ele>221</ele>
        <time>2022-03-08T14:27:53Z</time>
      </trkpt>
      <trkpt lat="43.54682" lon="2.03063">
        <ele>221</ele>
        <time>2022-03-08T14:27:54Z</time>
      </trkpt>
      <trkpt lat="43.54682" lon="2.03063">
        <ele>221</ele>
        <time>2022-03-08T14:27:56Z</time>
      </trkpt>
      <trkpt lat="43.54683" lon="2.03063">
        <ele>221</ele>
        <time>2022-03-08T14:27:57Z</time>
      </trkpt>
      <trkpt lat="43.54683" lon="2.03063">
        <ele>221</ele>
        <time>2022-03-08T14:27:58Z</time>
      </trkpt>
      <trkpt lat="43.54683" lon="2.03062">
        <ele>221.1</ele>
        <time>2022-03-08T14:27:59Z</time>
      </trkpt>
      <trkpt lat="43.54684" lon="2.03062">
        <ele>221.1</ele>
        <time>2022-03-08T14:28:00Z</time>
      </trkpt>
      <trkpt lat="43.54684" lon="2.03062">
        <ele>221</ele>
        <time>2022-03-08T14:28:01Z</time>
      </trkpt>
      <trkpt lat="43.54684" lon="2.03062">
        <ele>221</ele>
        <time>2022-03-08T14:28:02Z</time>
      </trkpt>
      <trkpt lat="43.54685" lon="2.03062">
        <ele>221</ele>
        <time>2022-03-08T14:28:03Z</time>
      </trkpt>
      <trkpt lat="43.54685" lon="2.03062">
        <ele>221</ele>
        <time>2022-03-08T14:28:04Z</time>
      </trkpt>
      <trkpt lat="43.54686" lon="2.03061">
        <ele>221</ele>
        <time>2022-03-08T14:28:05Z</time>
      </trkpt>
      <trkpt lat="43.54686" lon="2.03061">
        <ele>221</ele>
        <time>2022-03-08T14:28:06Z</time>
      </trkpt>
      <trkpt lat="43.54686" lon="2.03061">
        <ele>221</ele>
        <time>2022-03-08T14:28:07Z</time>
      </trkpt>
      <trkpt lat="43.54687" lon="2.03061">
        <ele>221</ele>
        <time>2022-03-08T14:28:08Z</time>
      </trkpt>
      <trkpt lat="43.54687" lon="2.03061">
        <ele>220.7</ele>
        <time>2022-03-08T14:28:09Z</time>
      </trkpt>
      <trkpt lat="43.54687" lon="2.03061">
        <ele>220.7</ele>
        <time>2022-03-08T14:28:10Z</time>
      </trkpt>
      <trkpt lat="43.54688" lon="2.0306">
        <ele>220.7</ele>
        <time>2022-03-08T14:28:11Z</time>
      </trkpt>
      <trkpt lat="43.54688" lon="2.0306">
        <ele>220.7</ele>
        <time>2022-03-08T14:28:12Z</time>
      </trkpt>
      <trkpt lat="43.54689" lon="2.0306">
        <ele>220.7</ele>
        <time>2022-03-08T14:28:14Z</time>
      </trkpt>
      <trkpt lat="43.54689" lon="2.0306">
        <ele>220.7</ele>
        <time>2022-03-08T14:28:15Z</time>
      </trkpt>
      <trkpt lat="43.54689" lon="2.0306">
        <ele>220.7</ele>
        <time>2022-03-08T14:28:16Z</time>
      </trkpt>
      <trkpt lat="43.54692" lon="2.03058">
        <ele>220.7</ele>
        <time>2022-03-08T14:28:17Z</time>
      </trkpt>
      <trkpt lat="43.54693" lon="2.03057">
        <ele>220.4</ele>
        <time>2022-03-08T14:28:18Z</time>
      </trkpt>
      <trkpt lat="43.54696" lon="2.03055">
        <ele>220.4</ele>
        <time>2022-03-08T14:28:19Z</time>
      </trkpt>
      <trkpt lat="43.54701" lon="2.03052">
        <ele>220.1</ele>
        <time>2022-03-08T14:28:20Z</time>
      </trkpt>
      <trkpt lat="43.54703" lon="2.03051">
        <ele>219.9</ele>
        <time>2022-03-08T14:28:21Z</time>
      </trkpt>
      <trkpt lat="43.54705" lon="2.03051">
        <ele>219.9</ele>
        <time>2022-03-08T14:28:23Z</time>
      </trkpt>
      <trkpt lat="43.54706" lon="2.03052">
        <ele>219.7</ele>
        <time>2022-03-08T14:28:24Z</time>
      </trkpt>
      <trkpt lat="43.54707" lon="2.03052">
        <ele>219.7</ele>
        <time>2022-03-08T14:28:25Z</time>
      </trkpt>
      <trkpt lat="43.54708" lon="2.03052">
        <ele>219.7</ele>
        <time>2022-03-08T14:28:26Z</time>
      </trkpt>
      <trkpt lat="43.54709" lon="2.03052">
        <ele>219.7</ele>
        <time>2022-03-08T14:28:27Z</time>
      </trkpt>
      <trkpt lat="43.54709" lon="2.03052">
        <ele>219.5</ele>
        <time>2022-03-08T14:28:28Z</time>
      </trkpt>
      <trkpt lat="43.5471" lon="2.03052">
        <ele>219.5</ele>
        <time>2022-03-08T14:28:30Z</time>
      </trkpt>
      <trkpt lat="43.54711" lon="2.03052">
        <ele>219.5</ele>
        <time>2022-03-08T14:28:31Z</time>
      </trkpt>
      <trkpt lat="43.54711" lon="2.03052">
        <ele>219.5</ele>
        <time>2022-03-08T14:28:32Z</time>
      </trkpt>
      <trkpt lat="43.54712" lon="2.03052">
        <ele>219.3</ele>
        <time>2022-03-08T14:28:33Z</time>
      </trkpt>
      <trkpt lat="43.54716" lon="2.0305">
        <ele>219.2</ele>
        <time>2022-03-08T14:28:34Z</time>
      </trkpt>
      <trkpt lat="43.54723" lon="2.03046">
        <ele>218.8</ele>
        <time>2022-03-08T14:28:35Z</time>
      </trkpt>
      <trkpt lat="43.54725" lon="2.03045">
        <ele>218.8</ele>
        <time>2022-03-08T14:28:36Z</time>
      </trkpt>
      <trkpt lat="43.54727" lon="2.03045">
        <ele>218.8</ele>
        <time>2022-03-08T14:28:37Z</time>
      </trkpt>
      <trkpt lat="43.54728" lon="2.03045">
        <ele>218.6</ele>
        <time>2022-03-08T14:28:38Z</time>
      </trkpt>
      <trkpt lat="43.54729" lon="2.03046">
        <ele>218.4</ele>
        <time>2022-03-08T14:28:39Z</time>
      </trkpt>
      <trkpt lat="43.5473" lon="2.03046">
        <ele>218.4</ele>
        <time>2022-03-08T14:28:41Z</time>
      </trkpt>
      <trkpt lat="43.5473" lon="2.03046">
        <ele>218.4</ele>
        <time>2022-03-08T14:28:42Z</time>
      </trkpt>
      <trkpt lat="43.5473" lon="2.03046">
        <ele>218.2</ele>
        <time>2022-03-08T14:28:43Z</time>
      </trkpt>
      <trkpt lat="43.54731" lon="2.03046">
        <ele>218.2</ele>
        <time>2022-03-08T14:28:44Z</time>
      </trkpt>
      <trkpt lat="43.54732" lon="2.03046">
        <ele>218.2</ele>
        <time>2022-03-08T14:28:45Z</time>
      </trkpt>
      <trkpt lat="43.54734" lon="2.03046">
        <ele>218</ele>
        <time>2022-03-08T14:28:47Z</time>
      </trkpt>
      <trkpt lat="43.54737" lon="2.03045">
        <ele>218</ele>
        <time>2022-03-08T14:28:48Z</time>
      </trkpt>
      <trkpt lat="43.54738" lon="2.03044">
        <ele>218</ele>
        <time>2022-03-08T14:28:49Z</time>
      </trkpt>
      <trkpt lat="43.54741" lon="2.03043">
        <ele>217.9</ele>
        <time>2022-03-08T14:28:50Z</time>
      </trkpt>
      <trkpt lat="43.54742" lon="2.03043">
        <ele>217.8</ele>
        <time>2022-03-08T14:28:51Z</time>
      </trkpt>
      <trkpt lat="43.54745" lon="2.03042">
        <ele>217.7</ele>
        <time>2022-03-08T14:28:52Z</time>
      </trkpt>
      <trkpt lat="43.54746" lon="2.03042">
        <ele>217.7</ele>
        <time>2022-03-08T14:28:53Z</time>
      </trkpt>
      <trkpt lat="43.54747" lon="2.03042">
        <ele>217.5</ele>
        <time>2022-03-08T14:28:55Z</time>
      </trkpt>
      <trkpt lat="43.54748" lon="2.03042">
        <ele>217.5</ele>
        <time>2022-03-08T14:28:56Z</time>
      </trkpt>
      <trkpt lat="43.54748" lon="2.03041">
        <ele>217.5</ele>
        <time>2022-03-08T14:28:57Z</time>
      </trkpt>
      <trkpt lat="43.54748" lon="2.03041">
        <ele>217.7</ele>
        <time>2022-03-08T14:28:58Z</time>
      </trkpt>
      <trkpt lat="43.54749" lon="2.03041">
        <ele>217.7</ele>
        <time>2022-03-08T14:28:59Z</time>
      </trkpt>
      <trkpt lat="43.5475" lon="2.03041">
        <ele>217.5</ele>
        <time>2022-03-08T14:29:00Z</time>
      </trkpt>
      <trkpt lat="43.54751" lon="2.03041">
        <ele>217.5</ele>
        <time>2022-03-08T14:29:01Z</time>
      </trkpt>
      <trkpt lat="43.54752" lon="2.03041">
        <ele>217.5</ele>
        <time>2022-03-08T14:29:02Z</time>
      </trkpt>
      <trkpt lat="43.54753" lon="2.03041">
        <ele>217.3</ele>
        <time>2022-03-08T14:29:04Z</time>
      </trkpt>
      <trkpt lat="43.54754" lon="2.03041">
        <ele>217.3</ele>
        <time>2022-03-08T14:29:05Z</time>
      </trkpt>
      <trkpt lat="43.54755" lon="2.03041">
        <ele>216.9</ele>
        <time>2022-03-08T14:29:06Z</time>
      </trkpt>
      <trkpt lat="43.54758" lon="2.03042">
        <ele>216.9</ele>
        <time>2022-03-08T14:29:07Z</time>
      </trkpt>
      <trkpt lat="43.54759" lon="2.03042">
        <ele>216.8</ele>
        <time>2022-03-08T14:29:08Z</time>
      </trkpt>
      <trkpt lat="43.54761" lon="2.03042">
        <ele>216.8</ele>
        <time>2022-03-08T14:29:09Z</time>
      </trkpt>
      <trkpt lat="43.54764" lon="2.03042">
        <ele>216.6</ele>
        <time>2022-03-08T14:29:11Z</time>
      </trkpt>
      <trkpt lat="43.54767" lon="2.03042">
        <ele>216.5</ele>
        <time>2022-03-08T14:29:12Z</time>
      </trkpt>
      <trkpt lat="43.54768" lon="2.03042">
        <ele>216.4</ele>
        <time>2022-03-08T14:29:13Z</time>
      </trkpt>
      <trkpt lat="43.5477" lon="2.03041">
        <ele>216.4</ele>
        <time>2022-03-08T14:29:14Z</time>
      </trkpt>
      <trkpt lat="43.54771" lon="2.03041">
        <ele>216.5</ele>
        <time>2022-03-08T14:29:15Z</time>
      </trkpt>
      <trkpt lat="43.54773" lon="2.03038">
        <ele>216.5</ele>
        <time>2022-03-08T14:29:16Z</time>
      </trkpt>
      <trkpt lat="43.54774" lon="2.03037">
        <ele>216.4</ele>
        <time>2022-03-08T14:29:17Z</time>
      </trkpt>
      <trkpt lat="43.54775" lon="2.03035">
        <ele>216.6</ele>
        <time>2022-03-08T14:29:18Z</time>
      </trkpt>
      <trkpt lat="43.54776" lon="2.03034">
        <ele>216.6</ele>
        <time>2022-03-08T14:29:19Z</time>
      </trkpt>
      <trkpt lat="43.54777" lon="2.03032">
        <ele>216.7</ele>
        <time>2022-03-08T14:29:20Z</time>
      </trkpt>
      <trkpt lat="43.54778" lon="2.03031">
        <ele>216.6</ele>
        <time>2022-03-08T14:29:21Z</time>
      </trkpt>
      <trkpt lat="43.54778" lon="2.0303">
        <ele>216.6</ele>
        <time>2022-03-08T14:29:22Z</time>
      </trkpt>
      <trkpt lat="43.54779" lon="2.03029">
        <ele>216.6</ele>
        <time>2022-03-08T14:29:23Z</time>
      </trkpt>
      <trkpt lat="43.54781" lon="2.03028">
        <ele>216.7</ele>
        <time>2022-03-08T14:29:24Z</time>
      </trkpt>
      <trkpt lat="43.54784" lon="2.03027">
        <ele>216.6</ele>
        <time>2022-03-08T14:29:26Z</time>
      </trkpt>
      <trkpt lat="43.54785" lon="2.03027">
        <ele>216.6</ele>
        <time>2022-03-08T14:29:27Z</time>
      </trkpt>
      <trkpt lat="43.54787" lon="2.03027">
        <ele>216.5</ele>
        <time>2022-03-08T14:29:28Z</time>
      </trkpt>
      <trkpt lat="43.54789" lon="2.03027">
        <ele>216.5</ele>
        <time>2022-03-08T14:29:30Z</time>
      </trkpt>
      <trkpt lat="43.5479" lon="2.03026">
        <ele>216.4</ele>
        <time>2022-03-08T14:29:31Z</time>
      </trkpt>
      <trkpt lat="43.54791" lon="2.03026">
        <ele>216.4</ele>
        <time>2022-03-08T14:29:32Z</time>
      </trkpt>
      <trkpt lat="43.54792" lon="2.03026">
        <ele>216.4</ele>
        <time>2022-03-08T14:29:33Z</time>
      </trkpt>
      <trkpt lat="43.54793" lon="2.03025">
        <ele>216.3</ele>
        <time>2022-03-08T14:29:35Z</time>
      </trkpt>
      <trkpt lat="43.54793" lon="2.03025">
        <ele>216.3</ele>
        <time>2022-03-08T14:29:36Z</time>
      </trkpt>
      <trkpt lat="43.54793" lon="2.03025">
        <ele>216.3</ele>
        <time>2022-03-08T14:29:37Z</time>
      </trkpt>
      <trkpt lat="43.54792" lon="2.03025">
        <ele>216.4</ele>
        <time>2022-03-08T14:29:39Z</time>
      </trkpt>
      <trkpt lat="43.54792" lon="2.03025">
        <ele>216.4</ele>
        <time>2022-03-08T14:29:40Z</time>
      </trkpt>
      <trkpt lat="43.54792" lon="2.03025">
        <ele>216.4</ele>
        <time>2022-03-08T14:29:41Z</time>
      </trkpt>
      <trkpt lat="43.54792" lon="2.03025">
        <ele>216.4</ele>
        <time>2022-03-08T14:29:42Z</time>
      </trkpt>
      <trkpt lat="43.54792" lon="2.03025">
        <ele>216.4</ele>
        <time>2022-03-08T14:29:43Z</time>
      </trkpt>
      <trkpt lat="43.54792" lon="2.03025">
        <ele>216.4</ele>
        <time>2022-03-08T14:29:44Z</time>
      </trkpt>
      <trkpt lat="43.54792" lon="2.03025">
        <ele>216.4</ele>
        <time>2022-03-08T14:29:45Z</time>
      </trkpt>
      <trkpt lat="43.54793" lon="2.03024">
        <ele>216.4</ele>
        <time>2022-03-08T14:29:47Z</time>
      </trkpt>
      <trkpt lat="43.54793" lon="2.03024">
        <ele>216.3</ele>
        <time>2022-03-08T14:29:48Z</time>
      </trkpt>
      <trkpt lat="43.54794" lon="2.03025">
        <ele>216.3</ele>
        <time>2022-03-08T14:29:50Z</time>
      </trkpt>
      <trkpt lat="43.54794" lon="2.03025">
        <ele>216.3</ele>
        <time>2022-03-08T14:29:51Z</time>
      </trkpt>
      <trkpt lat="43.54794" lon="2.03025">
        <ele>216.3</ele>
        <time>2022-03-08T14:29:52Z</time>
      </trkpt>
      <trkpt lat="43.54795" lon="2.03025">
        <ele>216.3</ele>
        <time>2022-03-08T14:29:53Z</time>
      </trkpt>
      <trkpt lat="43.54795" lon="2.03025">
        <ele>216.3</ele>
        <time>2022-03-08T14:29:54Z</time>
      </trkpt>
      <trkpt lat="43.54795" lon="2.03025">
        <ele>216.3</ele>
        <time>2022-03-08T14:29:55Z</time>
      </trkpt>
      <trkpt lat="43.54796" lon="2.03025">
        <ele>216.3</ele>
        <time>2022-03-08T14:29:57Z</time>
      </trkpt>
      <trkpt lat="43.54796" lon="2.03025">
        <ele>216.3</ele>
        <time>2022-03-08T14:29:58Z</time>
      </trkpt>
      <trkpt lat="43.54796" lon="2.03025">
        <ele>216.2</ele>
        <time>2022-03-08T14:29:59Z</time>
      </trkpt>
      <trkpt lat="43.54796" lon="2.03025">
        <ele>216.2</ele>
        <time>2022-03-08T14:30:00Z</time>
      </trkpt>
      <trkpt lat="43.54796" lon="2.03025">
        <ele>216.2</ele>
        <time>2022-03-08T14:30:01Z</time>
      </trkpt>
      <trkpt lat="43.54796" lon="2.03025">
        <ele>216.2</ele>
        <time>2022-03-08T14:30:02Z</time>
      </trkpt>
      <trkpt lat="43.54797" lon="2.03025">
        <ele>216.2</ele>
        <time>2022-03-08T14:30:04Z</time>
      </trkpt>
      <trkpt lat="43.54798" lon="2.03025">
        <ele>216.2</ele>
        <time>2022-03-08T14:30:05Z</time>
      </trkpt>
      <trkpt lat="43.54799" lon="2.03025">
        <ele>216.2</ele>
        <time>2022-03-08T14:30:06Z</time>
      </trkpt>
      <trkpt lat="43.548" lon="2.03025">
        <ele>216.1</ele>
        <time>2022-03-08T14:30:07Z</time>
      </trkpt>
      <trkpt lat="43.54801" lon="2.03026">
        <ele>216.1</ele>
        <time>2022-03-08T14:30:08Z</time>
      </trkpt>
      <trkpt lat="43.54802" lon="2.03026">
        <ele>216</ele>
        <time>2022-03-08T14:30:10Z</time>
      </trkpt>
      <trkpt lat="43.54803" lon="2.03026">
        <ele>216</ele>
        <time>2022-03-08T14:30:11Z</time>
      </trkpt>
      <trkpt lat="43.54803" lon="2.03026">
        <ele>216</ele>
        <time>2022-03-08T14:30:12Z</time>
      </trkpt>
      <trkpt lat="43.54805" lon="2.03027">
        <ele>215.9</ele>
        <time>2022-03-08T14:30:13Z</time>
      </trkpt>
      <trkpt lat="43.54806" lon="2.03027">
        <ele>215.9</ele>
        <time>2022-03-08T14:30:15Z</time>
      </trkpt>
      <trkpt lat="43.54807" lon="2.03027">
        <ele>215.8</ele>
        <time>2022-03-08T14:30:16Z</time>
      </trkpt>
      <trkpt lat="43.54811" lon="2.03028">
        <ele>215.7</ele>
        <time>2022-03-08T14:30:17Z</time>
      </trkpt>
      <trkpt lat="43.54812" lon="2.03028">
        <ele>215.6</ele>
        <time>2022-03-08T14:30:18Z</time>
      </trkpt>
      <trkpt lat="43.54815" lon="2.03029">
        <ele>215.4</ele>
        <time>2022-03-08T14:30:20Z</time>
      </trkpt>
      <trkpt lat="43.54817" lon="2.03029">
        <ele>215.4</ele>
        <time>2022-03-08T14:30:21Z</time>
      </trkpt>
      <trkpt lat="43.5482" lon="2.03029">
        <ele>215.3</ele>
        <time>2022-03-08T14:30:22Z</time>
      </trkpt>
      <trkpt lat="43.54822" lon="2.03029">
        <ele>215.2</ele>
        <time>2022-03-08T14:30:23Z</time>
      </trkpt>
      <trkpt lat="43.54824" lon="2.03028">
        <ele>215.2</ele>
        <time>2022-03-08T14:30:25Z</time>
      </trkpt>
      <trkpt lat="43.54826" lon="2.03027">
        <ele>215.2</ele>
        <time>2022-03-08T14:30:26Z</time>
      </trkpt>
      <trkpt lat="43.54827" lon="2.03027">
        <ele>215.2</ele>
        <time>2022-03-08T14:30:27Z</time>
      </trkpt>
      <trkpt lat="43.54828" lon="2.03027">
        <ele>215.1</ele>
        <time>2022-03-08T14:30:28Z</time>
      </trkpt>
      <trkpt lat="43.54829" lon="2.03027">
        <ele>215.1</ele>
        <time>2022-03-08T14:30:29Z</time>
      </trkpt>
      <trkpt lat="43.54829" lon="2.03027">
        <ele>215.1</ele>
        <time>2022-03-08T14:30:30Z</time>
      </trkpt>
      <trkpt lat="43.54829" lon="2.03027">
        <ele>215.1</ele>
        <time>2022-03-08T14:30:31Z</time>
      </trkpt>
      <trkpt lat="43.54829" lon="2.03027">
        <ele>215.1</ele>
        <time>2022-03-08T14:30:32Z</time>
      </trkpt>
      <trkpt lat="43.54829" lon="2.03027">
        <ele>215.1</ele>
        <time>2022-03-08T14:30:33Z</time>
      </trkpt>
      <trkpt lat="43.54831" lon="2.03027">
        <ele>215</ele>
        <time>2022-03-08T14:30:34Z</time>
      </trkpt>
      <trkpt lat="43.54832" lon="2.03027">
        <ele>215</ele>
        <time>2022-03-08T14:30:35Z</time>
      </trkpt>
      <trkpt lat="43.54834" lon="2.03027">
        <ele>214.9</ele>
        <time>2022-03-08T14:30:36Z</time>
      </trkpt>
      <trkpt lat="43.54835" lon="2.03028">
        <ele>214.9</ele>
        <time>2022-03-08T14:30:38Z</time>
      </trkpt>
      <trkpt lat="43.54836" lon="2.03028">
        <ele>214.8</ele>
        <time>2022-03-08T14:30:39Z</time>
      </trkpt>
      <trkpt lat="43.54837" lon="2.03028">
        <ele>214.8</ele>
        <time>2022-03-08T14:30:40Z</time>
      </trkpt>
      <trkpt lat="43.54839" lon="2.03028">
        <ele>214.8</ele>
        <time>2022-03-08T14:30:41Z</time>
      </trkpt>
      <trkpt lat="43.5484" lon="2.03028">
        <ele>214.7</ele>
        <time>2022-03-08T14:30:42Z</time>
      </trkpt>
      <trkpt lat="43.54842" lon="2.03028">
        <ele>214.7</ele>
        <time>2022-03-08T14:30:43Z</time>
      </trkpt>
      <trkpt lat="43.54843" lon="2.03028">
        <ele>214.6</ele>
        <time>2022-03-08T14:30:44Z</time>
      </trkpt>
      <trkpt lat="43.54845" lon="2.03029">
        <ele>214.5</ele>
        <time>2022-03-08T14:30:45Z</time>
      </trkpt>
      <trkpt lat="43.54847" lon="2.03029">
        <ele>214.4</ele>
        <time>2022-03-08T14:30:46Z</time>
      </trkpt>
      <trkpt lat="43.54848" lon="2.03029">
        <ele>214.4</ele>
        <time>2022-03-08T14:30:47Z</time>
      </trkpt>
      <trkpt lat="43.54849" lon="2.0303">
        <ele>214.3</ele>
        <time>2022-03-08T14:30:49Z</time>
      </trkpt>
      <trkpt lat="43.5485" lon="2.0303">
        <ele>214.3</ele>
        <time>2022-03-08T14:30:50Z</time>
      </trkpt>
      <trkpt lat="43.54851" lon="2.0303">
        <ele>214.3</ele>
        <time>2022-03-08T14:30:51Z</time>
      </trkpt>
      <trkpt lat="43.54853" lon="2.03031">
        <ele>214.2</ele>
        <time>2022-03-08T14:30:52Z</time>
      </trkpt>
      <trkpt lat="43.54855" lon="2.03033">
        <ele>213.9</ele>
        <time>2022-03-08T14:30:53Z</time>
      </trkpt>
      <trkpt lat="43.54856" lon="2.03034">
        <ele>213.9</ele>
        <time>2022-03-08T14:30:55Z</time>
      </trkpt>
      <trkpt lat="43.54858" lon="2.03035">
        <ele>213.9</ele>
        <time>2022-03-08T14:30:56Z</time>
      </trkpt>
      <trkpt lat="43.54859" lon="2.03036">
        <ele>213.8</ele>
        <time>2022-03-08T14:30:57Z</time>
      </trkpt>
      <trkpt lat="43.5486" lon="2.03037">
        <ele>213.7</ele>
        <time>2022-03-08T14:30:58Z</time>
      </trkpt>
      <trkpt lat="43.54861" lon="2.03038">
        <ele>213.6</ele>
        <time>2022-03-08T14:30:59Z</time>
      </trkpt>
      <trkpt lat="43.54863" lon="2.03039">
        <ele>213.6</ele>
        <time>2022-03-08T14:31:00Z</time>
      </trkpt>
      <trkpt lat="43.54864" lon="2.0304">
        <ele>213.6</ele>
        <time>2022-03-08T14:31:01Z</time>
      </trkpt>
      <trkpt lat="43.54864" lon="2.0304">
        <ele>213.5</ele>
        <time>2022-03-08T14:31:02Z</time>
      </trkpt>
      <trkpt lat="43.54865" lon="2.03041">
        <ele>213.5</ele>
        <time>2022-03-08T14:31:04Z</time>
      </trkpt>
      <trkpt lat="43.54866" lon="2.03042">
        <ele>213.5</ele>
        <time>2022-03-08T14:31:05Z</time>
      </trkpt>
      <trkpt lat="43.54867" lon="2.03043">
        <ele>213.5</ele>
        <time>2022-03-08T14:31:06Z</time>
      </trkpt>
      <trkpt lat="43.54867" lon="2.03043">
        <ele>213.4</ele>
        <time>2022-03-08T14:31:07Z</time>
      </trkpt>
      <trkpt lat="43.54869" lon="2.03044">
        <ele>213.4</ele>
        <time>2022-03-08T14:31:08Z</time>
      </trkpt>
      <trkpt lat="43.5487" lon="2.03045">
        <ele>213.4</ele>
        <time>2022-03-08T14:31:09Z</time>
      </trkpt>
      <trkpt lat="43.54872" lon="2.03047">
        <ele>213.2</ele>
        <time>2022-03-08T14:31:10Z</time>
      </trkpt>
      <trkpt lat="43.54872" lon="2.03048">
        <ele>213.2</ele>
        <time>2022-03-08T14:31:11Z</time>
      </trkpt>
      <trkpt lat="43.54873" lon="2.03048">
        <ele>213.2</ele>
        <time>2022-03-08T14:31:12Z</time>
      </trkpt>
      <trkpt lat="43.54875" lon="2.03051">
        <ele>213.1</ele>
        <time>2022-03-08T14:31:13Z</time>
      </trkpt>
      <trkpt lat="43.54876" lon="2.03053">
        <ele>213.1</ele>
        <time>2022-03-08T14:31:14Z</time>
      </trkpt>
      <trkpt lat="43.54876" lon="2.03054">
        <ele>213.1</ele>
        <time>2022-03-08T14:31:16Z</time>
      </trkpt>
      <trkpt lat="43.54877" lon="2.03055">
        <ele>213</ele>
        <time>2022-03-08T14:31:17Z</time>
      </trkpt>
      <trkpt lat="43.54878" lon="2.03056">
        <ele>213</ele>
        <time>2022-03-08T14:31:18Z</time>
      </trkpt>
      <trkpt lat="43.5488" lon="2.03058">
        <ele>213</ele>
        <time>2022-03-08T14:31:19Z</time>
      </trkpt>
      <trkpt lat="43.54881" lon="2.03059">
        <ele>212.9</ele>
        <time>2022-03-08T14:31:21Z</time>
      </trkpt>
      <trkpt lat="43.54881" lon="2.03059">
        <ele>212.9</ele>
        <time>2022-03-08T14:31:22Z</time>
      </trkpt>
      <trkpt lat="43.54881" lon="2.0306">
        <ele>212.8</ele>
        <time>2022-03-08T14:31:23Z</time>
      </trkpt>
      <trkpt lat="43.54882" lon="2.03061">
        <ele>212.8</ele>
        <time>2022-03-08T14:31:24Z</time>
      </trkpt>
      <trkpt lat="43.54883" lon="2.03062">
        <ele>212.8</ele>
        <time>2022-03-08T14:31:25Z</time>
      </trkpt>
      <trkpt lat="43.54884" lon="2.03063">
        <ele>212.7</ele>
        <time>2022-03-08T14:31:26Z</time>
      </trkpt>
      <trkpt lat="43.54885" lon="2.03064">
        <ele>212.7</ele>
        <time>2022-03-08T14:31:27Z</time>
      </trkpt>
      <trkpt lat="43.54886" lon="2.03065">
        <ele>212.7</ele>
        <time>2022-03-08T14:31:28Z</time>
      </trkpt>
      <trkpt lat="43.54887" lon="2.03066">
        <ele>212.7</ele>
        <time>2022-03-08T14:31:29Z</time>
      </trkpt>
      <trkpt lat="43.54887" lon="2.03067">
        <ele>212.6</ele>
        <time>2022-03-08T14:31:30Z</time>
      </trkpt>
      <trkpt lat="43.54888" lon="2.03068">
        <ele>212.6</ele>
        <time>2022-03-08T14:31:31Z</time>
      </trkpt>
      <trkpt lat="43.54889" lon="2.03069">
        <ele>212.6</ele>
        <time>2022-03-08T14:31:32Z</time>
      </trkpt>
      <trkpt lat="43.5489" lon="2.03069">
        <ele>212.6</ele>
        <time>2022-03-08T14:31:33Z</time>
      </trkpt>
      <trkpt lat="43.54891" lon="2.0307">
        <ele>212.6</ele>
        <time>2022-03-08T14:31:35Z</time>
      </trkpt>
      <trkpt lat="43.54892" lon="2.0307">
        <ele>212.6</ele>
        <time>2022-03-08T14:31:36Z</time>
      </trkpt>
      <trkpt lat="43.54892" lon="2.0307">
        <ele>212.5</ele>
        <time>2022-03-08T14:31:37Z</time>
      </trkpt>
      <trkpt lat="43.54893" lon="2.03071">
        <ele>212.5</ele>
        <time>2022-03-08T14:31:38Z</time>
      </trkpt>
      <trkpt lat="43.54894" lon="2.03071">
        <ele>212.5</ele>
        <time>2022-03-08T14:31:39Z</time>
      </trkpt>
      <trkpt lat="43.54895" lon="2.03072">
        <ele>212.5</ele>
        <time>2022-03-08T14:31:40Z</time>
      </trkpt>
      <trkpt lat="43.54896" lon="2.03074">
        <ele>212.5</ele>
        <time>2022-03-08T14:31:42Z</time>
      </trkpt>
      <trkpt lat="43.54896" lon="2.03075">
        <ele>212.5</ele>
        <time>2022-03-08T14:31:43Z</time>
      </trkpt>
      <trkpt lat="43.54897" lon="2.03076">
        <ele>212.4</ele>
        <time>2022-03-08T14:31:44Z</time>
      </trkpt>
      <trkpt lat="43.54899" lon="2.03077">
        <ele>212.4</ele>
        <time>2022-03-08T14:31:45Z</time>
      </trkpt>
      <trkpt lat="43.54899" lon="2.03078">
        <ele>212.4</ele>
        <time>2022-03-08T14:31:46Z</time>
      </trkpt>
      <trkpt lat="43.54901" lon="2.03079">
        <ele>212.4</ele>
        <time>2022-03-08T14:31:47Z</time>
      </trkpt>
      <trkpt lat="43.54902" lon="2.0308">
        <ele>212.4</ele>
        <time>2022-03-08T14:31:48Z</time>
      </trkpt>
      <trkpt lat="43.54904" lon="2.0308">
        <ele>212.4</ele>
        <time>2022-03-08T14:31:49Z</time>
      </trkpt>
      <trkpt lat="43.54905" lon="2.0308">
        <ele>212.3</ele>
        <time>2022-03-08T14:31:51Z</time>
      </trkpt>
      <trkpt lat="43.54906" lon="2.0308">
        <ele>212.3</ele>
        <time>2022-03-08T14:31:52Z</time>
      </trkpt>
      <trkpt lat="43.54907" lon="2.03081">
        <ele>212.3</ele>
        <time>2022-03-08T14:31:53Z</time>
      </trkpt>
      <trkpt lat="43.54907" lon="2.03081">
        <ele>212.3</ele>
        <time>2022-03-08T14:31:54Z</time>
      </trkpt>
      <trkpt lat="43.54909" lon="2.03082">
        <ele>212.3</ele>
        <time>2022-03-08T14:31:56Z</time>
      </trkpt>
      <trkpt lat="43.5491" lon="2.03082">
        <ele>212.3</ele>
        <time>2022-03-08T14:31:57Z</time>
      </trkpt>
      <trkpt lat="43.54911" lon="2.03082">
        <ele>212.4</ele>
        <time>2022-03-08T14:31:58Z</time>
      </trkpt>
      <trkpt lat="43.54912" lon="2.03082">
        <ele>212.4</ele>
        <time>2022-03-08T14:31:59Z</time>
      </trkpt>
      <trkpt lat="43.54913" lon="2.03082">
        <ele>212.4</ele>
        <time>2022-03-08T14:32:00Z</time>
      </trkpt>
      <trkpt lat="43.54914" lon="2.03081">
        <ele>212.4</ele>
        <time>2022-03-08T14:32:01Z</time>
      </trkpt>
      <trkpt lat="43.54915" lon="2.03081">
        <ele>212.4</ele>
        <time>2022-03-08T14:32:02Z</time>
      </trkpt>
      <trkpt lat="43.54917" lon="2.03081">
        <ele>212.4</ele>
        <time>2022-03-08T14:32:03Z</time>
      </trkpt>
      <trkpt lat="43.54918" lon="2.03081">
        <ele>212.4</ele>
        <time>2022-03-08T14:32:04Z</time>
      </trkpt>
      <trkpt lat="43.54919" lon="2.0308">
        <ele>212.4</ele>
        <time>2022-03-08T14:32:05Z</time>
      </trkpt>
      <trkpt lat="43.5492" lon="2.03079">
        <ele>212.4</ele>
        <time>2022-03-08T14:32:06Z</time>
      </trkpt>
      <trkpt lat="43.54921" lon="2.03078">
        <ele>212.4</ele>
        <time>2022-03-08T14:32:07Z</time>
      </trkpt>
      <trkpt lat="43.54921" lon="2.03077">
        <ele>212.4</ele>
        <time>2022-03-08T14:32:09Z</time>
      </trkpt>
      <trkpt lat="43.54922" lon="2.03076">
        <ele>212.4</ele>
        <time>2022-03-08T14:32:10Z</time>
      </trkpt>
      <trkpt lat="43.54923" lon="2.03075">
        <ele>212.4</ele>
        <time>2022-03-08T14:32:11Z</time>
      </trkpt>
      <trkpt lat="43.54923" lon="2.03074">
        <ele>212.5</ele>
        <time>2022-03-08T14:32:12Z</time>
      </trkpt>
      <trkpt lat="43.54925" lon="2.03072">
        <ele>212.5</ele>
        <time>2022-03-08T14:32:13Z</time>
      </trkpt>
      <trkpt lat="43.54926" lon="2.03071">
        <ele>212.4</ele>
        <time>2022-03-08T14:32:14Z</time>
      </trkpt>
      <trkpt lat="43.54927" lon="2.03071">
        <ele>212.5</ele>
        <time>2022-03-08T14:32:15Z</time>
      </trkpt>
      <trkpt lat="43.54927" lon="2.0307">
        <ele>212.5</ele>
        <time>2022-03-08T14:32:16Z</time>
      </trkpt>
      <trkpt lat="43.54928" lon="2.0307">
        <ele>212.5</ele>
        <time>2022-03-08T14:32:17Z</time>
      </trkpt>
      <trkpt lat="43.54929" lon="2.03069">
        <ele>212.5</ele>
        <time>2022-03-08T14:32:18Z</time>
      </trkpt>
      <trkpt lat="43.5493" lon="2.03068">
        <ele>212.5</ele>
        <time>2022-03-08T14:32:19Z</time>
      </trkpt>
      <trkpt lat="43.54931" lon="2.03067">
        <ele>212.5</ele>
        <time>2022-03-08T14:32:20Z</time>
      </trkpt>
      <trkpt lat="43.54932" lon="2.03067">
        <ele>212.5</ele>
        <time>2022-03-08T14:32:21Z</time>
      </trkpt>
      <trkpt lat="43.54933" lon="2.03067">
        <ele>212.6</ele>
        <time>2022-03-08T14:32:22Z</time>
      </trkpt>
      <trkpt lat="43.54934" lon="2.03066">
        <ele>212.6</ele>
        <time>2022-03-08T14:32:23Z</time>
      </trkpt>
      <trkpt lat="43.54935" lon="2.03066">
        <ele>212.6</ele>
        <time>2022-03-08T14:32:24Z</time>
      </trkpt>
      <trkpt lat="43.54936" lon="2.03066">
        <ele>212.6</ele>
        <time>2022-03-08T14:32:25Z</time>
      </trkpt>
      <trkpt lat="43.54938" lon="2.03066">
        <ele>212.6</ele>
        <time>2022-03-08T14:32:27Z</time>
      </trkpt>
      <trkpt lat="43.54938" lon="2.03065">
        <ele>212.6</ele>
        <time>2022-03-08T14:32:28Z</time>
      </trkpt>
      <trkpt lat="43.54939" lon="2.03065">
        <ele>212.7</ele>
        <time>2022-03-08T14:32:29Z</time>
      </trkpt>
      <trkpt lat="43.5494" lon="2.03065">
        <ele>212.7</ele>
        <time>2022-03-08T14:32:30Z</time>
      </trkpt>
      <trkpt lat="43.54941" lon="2.03065">
        <ele>212.6</ele>
        <time>2022-03-08T14:32:31Z</time>
      </trkpt>
      <trkpt lat="43.54943" lon="2.03064">
        <ele>212.7</ele>
        <time>2022-03-08T14:32:33Z</time>
      </trkpt>
      <trkpt lat="43.54944" lon="2.03063">
        <ele>212.7</ele>
        <time>2022-03-08T14:32:34Z</time>
      </trkpt>
      <trkpt lat="43.54945" lon="2.03063">
        <ele>212.7</ele>
        <time>2022-03-08T14:32:35Z</time>
      </trkpt>
      <trkpt lat="43.54946" lon="2.03062">
        <ele>212.7</ele>
        <time>2022-03-08T14:32:36Z</time>
      </trkpt>
      <trkpt lat="43.54946" lon="2.03061">
        <ele>212.7</ele>
        <time>2022-03-08T14:32:37Z</time>
      </trkpt>
      <trkpt lat="43.54948" lon="2.03061">
        <ele>212.7</ele>
        <time>2022-03-08T14:32:38Z</time>
      </trkpt>
      <trkpt lat="43.54951" lon="2.0306">
        <ele>212.8</ele>
        <time>2022-03-08T14:32:40Z</time>
      </trkpt>
      <trkpt lat="43.54952" lon="2.03059">
        <ele>212.8</ele>
        <time>2022-03-08T14:32:41Z</time>
      </trkpt>
      <trkpt lat="43.54954" lon="2.03058">
        <ele>212.8</ele>
        <time>2022-03-08T14:32:42Z</time>
      </trkpt>
      <trkpt lat="43.54956" lon="2.03057">
        <ele>212.8</ele>
        <time>2022-03-08T14:32:43Z</time>
      </trkpt>
      <trkpt lat="43.54957" lon="2.03057">
        <ele>212.8</ele>
        <time>2022-03-08T14:32:45Z</time>
      </trkpt>
      <trkpt lat="43.54959" lon="2.03057">
        <ele>212.9</ele>
        <time>2022-03-08T14:32:46Z</time>
      </trkpt>
      <trkpt lat="43.5496" lon="2.03058">
        <ele>212.9</ele>
        <time>2022-03-08T14:32:47Z</time>
      </trkpt>
      <trkpt lat="43.5496" lon="2.03058">
        <ele>212.9</ele>
        <time>2022-03-08T14:32:48Z</time>
      </trkpt>
      <trkpt lat="43.54961" lon="2.0306">
        <ele>212.9</ele>
        <time>2022-03-08T14:32:49Z</time>
      </trkpt>
      <trkpt lat="43.54961" lon="2.03061">
        <ele>212.9</ele>
        <time>2022-03-08T14:32:50Z</time>
      </trkpt>
      <trkpt lat="43.54961" lon="2.03062">
        <ele>212.9</ele>
        <time>2022-03-08T14:32:51Z</time>
      </trkpt>
      <trkpt lat="43.54962" lon="2.03063">
        <ele>212.9</ele>
        <time>2022-03-08T14:32:53Z</time>
      </trkpt>
      <trkpt lat="43.54961" lon="2.03066">
        <ele>212.9</ele>
        <time>2022-03-08T14:32:54Z</time>
      </trkpt>
      <trkpt lat="43.5496" lon="2.03069">
        <ele>212.9</ele>
        <time>2022-03-08T14:32:55Z</time>
      </trkpt>
      <trkpt lat="43.5496" lon="2.03071">
        <ele>212.9</ele>
        <time>2022-03-08T14:32:56Z</time>
      </trkpt>
      <trkpt lat="43.5496" lon="2.03073">
        <ele>213</ele>
        <time>2022-03-08T14:32:58Z</time>
      </trkpt>
      <trkpt lat="43.5496" lon="2.03076">
        <ele>213</ele>
        <time>2022-03-08T14:32:59Z</time>
      </trkpt>
      <trkpt lat="43.54961" lon="2.03079">
        <ele>213</ele>
        <time>2022-03-08T14:33:00Z</time>
      </trkpt>
      <trkpt lat="43.54961" lon="2.03081">
        <ele>213.1</ele>
        <time>2022-03-08T14:33:01Z</time>
      </trkpt>
      <trkpt lat="43.54961" lon="2.03082">
        <ele>213.1</ele>
        <time>2022-03-08T14:33:02Z</time>
      </trkpt>
      <trkpt lat="43.54962" lon="2.03084">
        <ele>213.1</ele>
        <time>2022-03-08T14:33:03Z</time>
      </trkpt>
      <trkpt lat="43.54962" lon="2.03086">
        <ele>213.1</ele>
        <time>2022-03-08T14:33:05Z</time>
      </trkpt>
      <trkpt lat="43.54962" lon="2.03088">
        <ele>213.1</ele>
        <time>2022-03-08T14:33:06Z</time>
      </trkpt>
      <trkpt lat="43.54961" lon="2.0309">
        <ele>213.2</ele>
        <time>2022-03-08T14:33:07Z</time>
      </trkpt>
      <trkpt lat="43.54961" lon="2.03091">
        <ele>213.2</ele>
        <time>2022-03-08T14:33:08Z</time>
      </trkpt>
      <trkpt lat="43.54962" lon="2.03093">
        <ele>213.2</ele>
        <time>2022-03-08T14:33:09Z</time>
      </trkpt>
      <trkpt lat="43.54962" lon="2.03094">
        <ele>213.2</ele>
        <time>2022-03-08T14:33:10Z</time>
      </trkpt>
      <trkpt lat="43.54962" lon="2.03096">
        <ele>213.2</ele>
        <time>2022-03-08T14:33:11Z</time>
      </trkpt>
      <trkpt lat="43.54962" lon="2.03097">
        <ele>213.3</ele>
        <time>2022-03-08T14:33:12Z</time>
      </trkpt>
      <trkpt lat="43.54963" lon="2.03099">
        <ele>213.3</ele>
        <time>2022-03-08T14:33:14Z</time>
      </trkpt>
      <trkpt lat="43.54964" lon="2.03101">
        <ele>213.3</ele>
        <time>2022-03-08T14:33:15Z</time>
      </trkpt>
      <trkpt lat="43.54965" lon="2.03102">
        <ele>213.4</ele>
        <time>2022-03-08T14:33:16Z</time>
      </trkpt>
      <trkpt lat="43.54966" lon="2.03104">
        <ele>213.4</ele>
        <time>2022-03-08T14:33:17Z</time>
      </trkpt>
      <trkpt lat="43.54967" lon="2.03105">
        <ele>213.5</ele>
        <time>2022-03-08T14:33:18Z</time>
      </trkpt>
      <trkpt lat="43.54968" lon="2.03106">
        <ele>213.5</ele>
        <time>2022-03-08T14:33:19Z</time>
      </trkpt>
      <trkpt lat="43.54968" lon="2.03108">
        <ele>213.5</ele>
        <time>2022-03-08T14:33:21Z</time>
      </trkpt>
      <trkpt lat="43.54969" lon="2.0311">
        <ele>213.5</ele>
        <time>2022-03-08T14:33:22Z</time>
      </trkpt>
      <trkpt lat="43.54969" lon="2.03111">
        <ele>213.6</ele>
        <time>2022-03-08T14:33:23Z</time>
      </trkpt>
      <trkpt lat="43.5497" lon="2.03114">
        <ele>213.7</ele>
        <time>2022-03-08T14:33:24Z</time>
      </trkpt>
      <trkpt lat="43.54971" lon="2.03115">
        <ele>213.8</ele>
        <time>2022-03-08T14:33:25Z</time>
      </trkpt>
      <trkpt lat="43.54972" lon="2.03117">
        <ele>213.8</ele>
        <time>2022-03-08T14:33:26Z</time>
      </trkpt>
      <trkpt lat="43.54972" lon="2.03118">
        <ele>213.8</ele>
        <time>2022-03-08T14:33:27Z</time>
      </trkpt>
      <trkpt lat="43.54973" lon="2.03119">
        <ele>213.9</ele>
        <time>2022-03-08T14:33:28Z</time>
      </trkpt>
      <trkpt lat="43.54974" lon="2.03121">
        <ele>213.9</ele>
        <time>2022-03-08T14:33:29Z</time>
      </trkpt>
      <trkpt lat="43.54974" lon="2.03122">
        <ele>213.9</ele>
        <time>2022-03-08T14:33:30Z</time>
      </trkpt>
      <trkpt lat="43.54975" lon="2.03123">
        <ele>214</ele>
        <time>2022-03-08T14:33:31Z</time>
      </trkpt>
      <trkpt lat="43.54975" lon="2.03125">
        <ele>214</ele>
        <time>2022-03-08T14:33:32Z</time>
      </trkpt>
      <trkpt lat="43.54976" lon="2.03126">
        <ele>214</ele>
        <time>2022-03-08T14:33:33Z</time>
      </trkpt>
      <trkpt lat="43.54977" lon="2.03128">
        <ele>214.2</ele>
        <time>2022-03-08T14:33:35Z</time>
      </trkpt>
      <trkpt lat="43.54978" lon="2.0313">
        <ele>214.2</ele>
        <time>2022-03-08T14:33:36Z</time>
      </trkpt>
      <trkpt lat="43.54979" lon="2.03131">
        <ele>214.2</ele>
        <time>2022-03-08T14:33:37Z</time>
      </trkpt>
      <trkpt lat="43.5498" lon="2.03132">
        <ele>214.3</ele>
        <time>2022-03-08T14:33:38Z</time>
      </trkpt>
      <trkpt lat="43.5498" lon="2.03133">
        <ele>214.3</ele>
        <time>2022-03-08T14:33:39Z</time>
      </trkpt>
      <trkpt lat="43.54981" lon="2.03135">
        <ele>214.3</ele>
        <time>2022-03-08T14:33:40Z</time>
      </trkpt>
      <trkpt lat="43.54982" lon="2.03137">
        <ele>214.4</ele>
        <time>2022-03-08T14:33:42Z</time>
      </trkpt>
      <trkpt lat="43.54983" lon="2.03138">
        <ele>214.5</ele>
        <time>2022-03-08T14:33:43Z</time>
      </trkpt>
      <trkpt lat="43.54984" lon="2.03139">
        <ele>214.5</ele>
        <time>2022-03-08T14:33:44Z</time>
      </trkpt>
      <trkpt lat="43.54984" lon="2.0314">
        <ele>214.6</ele>
        <time>2022-03-08T14:33:45Z</time>
      </trkpt>
      <trkpt lat="43.54985" lon="2.03141">
        <ele>214.6</ele>
        <time>2022-03-08T14:33:46Z</time>
      </trkpt>
      <trkpt lat="43.54985" lon="2.03142">
        <ele>214.6</ele>
        <time>2022-03-08T14:33:47Z</time>
      </trkpt>
      <trkpt lat="43.54986" lon="2.03143">
        <ele>214.6</ele>
        <time>2022-03-08T14:33:48Z</time>
      </trkpt>
      <trkpt lat="43.54986" lon="2.03144">
        <ele>214.7</ele>
        <time>2022-03-08T14:33:49Z</time>
      </trkpt>
      <trkpt lat="43.54986" lon="2.03146">
        <ele>214.7</ele>
        <time>2022-03-08T14:33:50Z</time>
      </trkpt>
      <trkpt lat="43.54987" lon="2.03147">
        <ele>214.7</ele>
        <time>2022-03-08T14:33:51Z</time>
      </trkpt>
      <trkpt lat="43.54987" lon="2.03148">
        <ele>214.8</ele>
        <time>2022-03-08T14:33:53Z</time>
      </trkpt>
      <trkpt lat="43.54988" lon="2.0315">
        <ele>214.8</ele>
        <time>2022-03-08T14:33:54Z</time>
      </trkpt>
      <trkpt lat="43.54989" lon="2.03151">
        <ele>214.8</ele>
        <time>2022-03-08T14:33:55Z</time>
      </trkpt>
      <trkpt lat="43.54989" lon="2.03151">
        <ele>214.8</ele>
        <time>2022-03-08T14:33:56Z</time>
      </trkpt>
      <trkpt lat="43.54989" lon="2.03152">
        <ele>214.8</ele>
        <time>2022-03-08T14:33:57Z</time>
      </trkpt>
      <trkpt lat="43.5499" lon="2.03154">
        <ele>214.9</ele>
        <time>2022-03-08T14:33:58Z</time>
      </trkpt>
      <trkpt lat="43.54991" lon="2.03155">
        <ele>214.9</ele>
        <time>2022-03-08T14:33:59Z</time>
      </trkpt>
      <trkpt lat="43.54991" lon="2.03156">
        <ele>214.9</ele>
        <time>2022-03-08T14:34:00Z</time>
      </trkpt>
      <trkpt lat="43.54992" lon="2.03157">
        <ele>214.9</ele>
        <time>2022-03-08T14:34:02Z</time>
      </trkpt>
      <trkpt lat="43.54993" lon="2.03158">
        <ele>215</ele>
        <time>2022-03-08T14:34:03Z</time>
      </trkpt>
      <trkpt lat="43.54993" lon="2.03159">
        <ele>215</ele>
        <time>2022-03-08T14:34:04Z</time>
      </trkpt>
      <trkpt lat="43.54994" lon="2.0316">
        <ele>215</ele>
        <time>2022-03-08T14:34:05Z</time>
      </trkpt>
      <trkpt lat="43.54994" lon="2.03161">
        <ele>215</ele>
        <time>2022-03-08T14:34:06Z</time>
      </trkpt>
      <trkpt lat="43.54995" lon="2.03162">
        <ele>215.2</ele>
        <time>2022-03-08T14:34:07Z</time>
      </trkpt>
      <trkpt lat="43.54995" lon="2.03162">
        <ele>215.2</ele>
        <time>2022-03-08T14:34:08Z</time>
      </trkpt>
      <trkpt lat="43.54996" lon="2.03162">
        <ele>215.2</ele>
        <time>2022-03-08T14:34:09Z</time>
      </trkpt>
      <trkpt lat="43.54998" lon="2.03165">
        <ele>215.2</ele>
        <time>2022-03-08T14:34:10Z</time>
      </trkpt>
      <trkpt lat="43.54999" lon="2.03166">
        <ele>215.3</ele>
        <time>2022-03-08T14:34:11Z</time>
      </trkpt>
      <trkpt lat="43.54999" lon="2.03167">
        <ele>215.3</ele>
        <time>2022-03-08T14:34:13Z</time>
      </trkpt>
      <trkpt lat="43.55" lon="2.03167">
        <ele>215.3</ele>
        <time>2022-03-08T14:34:14Z</time>
      </trkpt>
      <trkpt lat="43.55" lon="2.03168">
        <ele>215.3</ele>
        <time>2022-03-08T14:34:15Z</time>
      </trkpt>
      <trkpt lat="43.55001" lon="2.0317">
        <ele>215.3</ele>
        <time>2022-03-08T14:34:16Z</time>
      </trkpt>
      <trkpt lat="43.55001" lon="2.03171">
        <ele>215.4</ele>
        <time>2022-03-08T14:34:17Z</time>
      </trkpt>
      <trkpt lat="43.55002" lon="2.03173">
        <ele>215.4</ele>
        <time>2022-03-08T14:34:18Z</time>
      </trkpt>
      <trkpt lat="43.55002" lon="2.03174">
        <ele>215.4</ele>
        <time>2022-03-08T14:34:19Z</time>
      </trkpt>
      <trkpt lat="43.55002" lon="2.03175">
        <ele>215.5</ele>
        <time>2022-03-08T14:34:20Z</time>
      </trkpt>
      <trkpt lat="43.55003" lon="2.03177">
        <ele>215.5</ele>
        <time>2022-03-08T14:34:21Z</time>
      </trkpt>
      <trkpt lat="43.55004" lon="2.0318">
        <ele>215.5</ele>
        <time>2022-03-08T14:34:22Z</time>
      </trkpt>
      <trkpt lat="43.55004" lon="2.03181">
        <ele>215.5</ele>
        <time>2022-03-08T14:34:23Z</time>
      </trkpt>
      <trkpt lat="43.55004" lon="2.03182">
        <ele>215.6</ele>
        <time>2022-03-08T14:34:24Z</time>
      </trkpt>
      <trkpt lat="43.55005" lon="2.03183">
        <ele>215.6</ele>
        <time>2022-03-08T14:34:25Z</time>
      </trkpt>
      <trkpt lat="43.55005" lon="2.03184">
        <ele>215.6</ele>
        <time>2022-03-08T14:34:26Z</time>
      </trkpt>
      <trkpt lat="43.55006" lon="2.03184">
        <ele>215.6</ele>
        <time>2022-03-08T14:34:27Z</time>
      </trkpt>
      <trkpt lat="43.55006" lon="2.03185">
        <ele>215.6</ele>
        <time>2022-03-08T14:34:28Z</time>
      </trkpt>
      <trkpt lat="43.55008" lon="2.03187">
        <ele>215.8</ele>
        <time>2022-03-08T14:34:29Z</time>
      </trkpt>
      <trkpt lat="43.55008" lon="2.03188">
        <ele>215.8</ele>
        <time>2022-03-08T14:34:30Z</time>
      </trkpt>
      <trkpt lat="43.55009" lon="2.03189">
        <ele>215.8</ele>
        <time>2022-03-08T14:34:31Z</time>
      </trkpt>
      <trkpt lat="43.5501" lon="2.03191">
        <ele>215.8</ele>
        <time>2022-03-08T14:34:32Z</time>
      </trkpt>
      <trkpt lat="43.55011" lon="2.03192">
        <ele>215.9</ele>
        <time>2022-03-08T14:34:34Z</time>
      </trkpt>
      <trkpt lat="43.55011" lon="2.03193">
        <ele>215.9</ele>
        <time>2022-03-08T14:34:35Z</time>
      </trkpt>
      <trkpt lat="43.55013" lon="2.03195">
        <ele>215.9</ele>
        <time>2022-03-08T14:34:36Z</time>
      </trkpt>
      <trkpt lat="43.55014" lon="2.03196">
        <ele>216</ele>
        <time>2022-03-08T14:34:37Z</time>
      </trkpt>
      <trkpt lat="43.55014" lon="2.03197">
        <ele>216</ele>
        <time>2022-03-08T14:34:38Z</time>
      </trkpt>
      <trkpt lat="43.55015" lon="2.03199">
        <ele>216</ele>
        <time>2022-03-08T14:34:39Z</time>
      </trkpt>
      <trkpt lat="43.55016" lon="2.032">
        <ele>216</ele>
        <time>2022-03-08T14:34:41Z</time>
      </trkpt>
      <trkpt lat="43.55017" lon="2.03202">
        <ele>216.1</ele>
        <time>2022-03-08T14:34:42Z</time>
      </trkpt>
      <trkpt lat="43.55018" lon="2.03203">
        <ele>216.1</ele>
        <time>2022-03-08T14:34:43Z</time>
      </trkpt>
      <trkpt lat="43.55019" lon="2.03204">
        <ele>216.1</ele>
        <time>2022-03-08T14:34:44Z</time>
      </trkpt>
      <trkpt lat="43.5502" lon="2.03206">
        <ele>216.2</ele>
        <time>2022-03-08T14:34:45Z</time>
      </trkpt>
      <trkpt lat="43.55021" lon="2.03207">
        <ele>216.2</ele>
        <time>2022-03-08T14:34:47Z</time>
      </trkpt>
      <trkpt lat="43.55022" lon="2.03209">
        <ele>216.2</ele>
        <time>2022-03-08T14:34:48Z</time>
      </trkpt>
      <trkpt lat="43.55022" lon="2.0321">
        <ele>216.2</ele>
        <time>2022-03-08T14:34:49Z</time>
      </trkpt>
      <trkpt lat="43.55023" lon="2.03211">
        <ele>216.2</ele>
        <time>2022-03-08T14:34:50Z</time>
      </trkpt>
      <trkpt lat="43.55023" lon="2.03213">
        <ele>216.3</ele>
        <time>2022-03-08T14:34:51Z</time>
      </trkpt>
      <trkpt lat="43.55024" lon="2.03214">
        <ele>216.3</ele>
        <time>2022-03-08T14:34:52Z</time>
      </trkpt>
      <trkpt lat="43.55024" lon="2.03215">
        <ele>216.3</ele>
        <time>2022-03-08T14:34:53Z</time>
      </trkpt>
      <trkpt lat="43.55025" lon="2.03217">
        <ele>216.4</ele>
        <time>2022-03-08T14:34:54Z</time>
      </trkpt>
      <trkpt lat="43.55026" lon="2.03219">
        <ele>216.4</ele>
        <time>2022-03-08T14:34:56Z</time>
      </trkpt>
      <trkpt lat="43.55026" lon="2.0322">
        <ele>216.5</ele>
        <time>2022-03-08T14:34:57Z</time>
      </trkpt>
      <trkpt lat="43.55028" lon="2.03223">
        <ele>216.5</ele>
        <time>2022-03-08T14:34:58Z</time>
      </trkpt>
      <trkpt lat="43.55028" lon="2.03224">
        <ele>216.5</ele>
        <time>2022-03-08T14:34:59Z</time>
      </trkpt>
      <trkpt lat="43.55029" lon="2.03225">
        <ele>216.5</ele>
        <time>2022-03-08T14:35:00Z</time>
      </trkpt>
      <trkpt lat="43.55029" lon="2.03227">
        <ele>216.7</ele>
        <time>2022-03-08T14:35:01Z</time>
      </trkpt>
      <trkpt lat="43.5503" lon="2.03228">
        <ele>216.7</ele>
        <time>2022-03-08T14:35:03Z</time>
      </trkpt>
      <trkpt lat="43.5503" lon="2.03229">
        <ele>216.7</ele>
        <time>2022-03-08T14:35:04Z</time>
      </trkpt>
      <trkpt lat="43.55031" lon="2.03232">
        <ele>216.7</ele>
        <time>2022-03-08T14:35:05Z</time>
      </trkpt>
      <trkpt lat="43.55031" lon="2.03233">
        <ele>216.7</ele>
        <time>2022-03-08T14:35:06Z</time>
      </trkpt>
      <trkpt lat="43.55032" lon="2.03234">
        <ele>216.7</ele>
        <time>2022-03-08T14:35:07Z</time>
      </trkpt>
      <trkpt lat="43.55032" lon="2.03235">
        <ele>216.8</ele>
        <time>2022-03-08T14:35:08Z</time>
      </trkpt>
      <trkpt lat="43.55033" lon="2.03237">
        <ele>216.8</ele>
        <time>2022-03-08T14:35:09Z</time>
      </trkpt>
      <trkpt lat="43.55033" lon="2.03238">
        <ele>216.8</ele>
        <time>2022-03-08T14:35:10Z</time>
      </trkpt>
      <trkpt lat="43.55034" lon="2.03239">
        <ele>216.9</ele>
        <time>2022-03-08T14:35:11Z</time>
      </trkpt>
      <trkpt lat="43.55034" lon="2.0324">
        <ele>216.9</ele>
        <time>2022-03-08T14:35:12Z</time>
      </trkpt>
      <trkpt lat="43.55035" lon="2.03242">
        <ele>216.9</ele>
        <time>2022-03-08T14:35:13Z</time>
      </trkpt>
      <trkpt lat="43.55036" lon="2.03244">
        <ele>217</ele>
        <time>2022-03-08T14:35:14Z</time>
      </trkpt>
      <trkpt lat="43.55037" lon="2.03245">
        <ele>217</ele>
        <time>2022-03-08T14:35:15Z</time>
      </trkpt>
      <trkpt lat="43.55037" lon="2.03246">
        <ele>217</ele>
        <time>2022-03-08T14:35:16Z</time>
      </trkpt>
      <trkpt lat="43.55039" lon="2.0325">
        <ele>217.1</ele>
        <time>2022-03-08T14:35:18Z</time>
      </trkpt>
      <trkpt lat="43.5504" lon="2.0325">
        <ele>217.1</ele>
        <time>2022-03-08T14:35:19Z</time>
      </trkpt>
      <trkpt lat="43.5504" lon="2.03252">
        <ele>217.1</ele>
        <time>2022-03-08T14:35:20Z</time>
      </trkpt>
      <trkpt lat="43.55041" lon="2.03253">
        <ele>217.1</ele>
        <time>2022-03-08T14:35:21Z</time>
      </trkpt>
      <trkpt lat="43.55042" lon="2.03254">
        <ele>217.2</ele>
        <time>2022-03-08T14:35:23Z</time>
      </trkpt>
      <trkpt lat="43.55044" lon="2.03256">
        <ele>217.2</ele>
        <time>2022-03-08T14:35:24Z</time>
      </trkpt>
      <trkpt lat="43.55045" lon="2.03257">
        <ele>217.3</ele>
        <time>2022-03-08T14:35:25Z</time>
      </trkpt>
      <trkpt lat="43.55046" lon="2.03259">
        <ele>217.3</ele>
        <time>2022-03-08T14:35:26Z</time>
      </trkpt>
      <trkpt lat="43.55047" lon="2.03259">
        <ele>217.3</ele>
        <time>2022-03-08T14:35:27Z</time>
      </trkpt>
      <trkpt lat="43.55048" lon="2.0326">
        <ele>217.4</ele>
        <time>2022-03-08T14:35:28Z</time>
      </trkpt>
      <trkpt lat="43.55049" lon="2.03261">
        <ele>217.4</ele>
        <time>2022-03-08T14:35:29Z</time>
      </trkpt>
      <trkpt lat="43.55051" lon="2.03262">
        <ele>217.5</ele>
        <time>2022-03-08T14:35:30Z</time>
      </trkpt>
      <trkpt lat="43.55053" lon="2.03264">
        <ele>217.4</ele>
        <time>2022-03-08T14:35:31Z</time>
      </trkpt>
      <trkpt lat="43.55054" lon="2.03264">
        <ele>217.4</ele>
        <time>2022-03-08T14:35:33Z</time>
      </trkpt>
      <trkpt lat="43.55054" lon="2.03265">
        <ele>217.3</ele>
        <time>2022-03-08T14:35:34Z</time>
      </trkpt>
      <trkpt lat="43.55055" lon="2.03266">
        <ele>217.3</ele>
        <time>2022-03-08T14:35:35Z</time>
      </trkpt>
      <trkpt lat="43.55056" lon="2.03267">
        <ele>217.2</ele>
        <time>2022-03-08T14:35:36Z</time>
      </trkpt>
      <trkpt lat="43.55057" lon="2.03267">
        <ele>217.2</ele>
        <time>2022-03-08T14:35:37Z</time>
      </trkpt>
      <trkpt lat="43.55058" lon="2.03268">
        <ele>217.2</ele>
        <time>2022-03-08T14:35:38Z</time>
      </trkpt>
      <trkpt lat="43.55059" lon="2.03267">
        <ele>217.1</ele>
        <time>2022-03-08T14:35:39Z</time>
      </trkpt>
      <trkpt lat="43.55061" lon="2.03267">
        <ele>217.1</ele>
        <time>2022-03-08T14:35:40Z</time>
      </trkpt>
      <trkpt lat="43.55062" lon="2.03268">
        <ele>217</ele>
        <time>2022-03-08T14:35:41Z</time>
      </trkpt>
      <trkpt lat="43.55063" lon="2.03269">
        <ele>216.9</ele>
        <time>2022-03-08T14:35:42Z</time>
      </trkpt>
      <trkpt lat="43.55064" lon="2.03269">
        <ele>216.9</ele>
        <time>2022-03-08T14:35:43Z</time>
      </trkpt>
      <trkpt lat="43.55065" lon="2.0327">
        <ele>216.8</ele>
        <time>2022-03-08T14:35:45Z</time>
      </trkpt>
      <trkpt lat="43.55067" lon="2.0327">
        <ele>216.8</ele>
        <time>2022-03-08T14:35:46Z</time>
      </trkpt>
      <trkpt lat="43.55068" lon="2.03272">
        <ele>216.7</ele>
        <time>2022-03-08T14:35:47Z</time>
      </trkpt>
      <trkpt lat="43.55068" lon="2.03273">
        <ele>216.7</ele>
        <time>2022-03-08T14:35:48Z</time>
      </trkpt>
      <trkpt lat="43.55068" lon="2.03273">
        <ele>216.7</ele>
        <time>2022-03-08T14:35:49Z</time>
      </trkpt>
      <trkpt lat="43.55069" lon="2.03274">
        <ele>216.6</ele>
        <time>2022-03-08T14:35:50Z</time>
      </trkpt>
      <trkpt lat="43.55069" lon="2.03277">
        <ele>216.6</ele>
        <time>2022-03-08T14:35:51Z</time>
      </trkpt>
      <trkpt lat="43.55069" lon="2.03278">
        <ele>216.5</ele>
        <time>2022-03-08T14:35:52Z</time>
      </trkpt>
      <trkpt lat="43.5507" lon="2.0328">
        <ele>216.5</ele>
        <time>2022-03-08T14:35:53Z</time>
      </trkpt>
      <trkpt lat="43.55069" lon="2.03282">
        <ele>216.4</ele>
        <time>2022-03-08T14:35:54Z</time>
      </trkpt>
      <trkpt lat="43.55069" lon="2.03285">
        <ele>216.3</ele>
        <time>2022-03-08T14:35:55Z</time>
      </trkpt>
      <trkpt lat="43.55069" lon="2.03287">
        <ele>216.2</ele>
        <time>2022-03-08T14:35:56Z</time>
      </trkpt>
      <trkpt lat="43.55069" lon="2.03289">
        <ele>216.2</ele>
        <time>2022-03-08T14:35:58Z</time>
      </trkpt>
      <trkpt lat="43.55069" lon="2.0329">
        <ele>216.2</ele>
        <time>2022-03-08T14:35:59Z</time>
      </trkpt>
      <trkpt lat="43.5507" lon="2.03291">
        <ele>216.1</ele>
        <time>2022-03-08T14:36:00Z</time>
      </trkpt>
      <trkpt lat="43.5507" lon="2.03293">
        <ele>216.1</ele>
        <time>2022-03-08T14:36:01Z</time>
      </trkpt>
      <trkpt lat="43.5507" lon="2.03294">
        <ele>216</ele>
        <time>2022-03-08T14:36:02Z</time>
      </trkpt>
      <trkpt lat="43.5507" lon="2.03296">
        <ele>216</ele>
        <time>2022-03-08T14:36:03Z</time>
      </trkpt>
      <trkpt lat="43.5507" lon="2.03299">
        <ele>215.9</ele>
        <time>2022-03-08T14:36:05Z</time>
      </trkpt>
      <trkpt lat="43.5507" lon="2.03301">
        <ele>215.8</ele>
        <time>2022-03-08T14:36:06Z</time>
      </trkpt>
      <trkpt lat="43.55071" lon="2.03303">
        <ele>215.7</ele>
        <time>2022-03-08T14:36:07Z</time>
      </trkpt>
      <trkpt lat="43.55071" lon="2.03305">
        <ele>215.6</ele>
        <time>2022-03-08T14:36:08Z</time>
      </trkpt>
      <trkpt lat="43.55072" lon="2.03306">
        <ele>215.6</ele>
        <time>2022-03-08T14:36:09Z</time>
      </trkpt>
      <trkpt lat="43.55073" lon="2.03308">
        <ele>215.5</ele>
        <time>2022-03-08T14:36:10Z</time>
      </trkpt>
      <trkpt lat="43.55074" lon="2.0331">
        <ele>215.4</ele>
        <time>2022-03-08T14:36:12Z</time>
      </trkpt>
      <trkpt lat="43.55074" lon="2.03312">
        <ele>215.3</ele>
        <time>2022-03-08T14:36:13Z</time>
      </trkpt>
      <trkpt lat="43.55075" lon="2.03314">
        <ele>215.3</ele>
        <time>2022-03-08T14:36:14Z</time>
      </trkpt>
      <trkpt lat="43.55075" lon="2.03316">
        <ele>215.2</ele>
        <time>2022-03-08T14:36:15Z</time>
      </trkpt>
      <trkpt lat="43.55075" lon="2.03317">
        <ele>215.1</ele>
        <time>2022-03-08T14:36:16Z</time>
      </trkpt>
      <trkpt lat="43.55075" lon="2.03319">
        <ele>215</ele>
        <time>2022-03-08T14:36:17Z</time>
      </trkpt>
      <trkpt lat="43.55076" lon="2.03321">
        <ele>215</ele>
        <time>2022-03-08T14:36:18Z</time>
      </trkpt>
      <trkpt lat="43.55076" lon="2.03323">
        <ele>214.9</ele>
        <time>2022-03-08T14:36:19Z</time>
      </trkpt>
      <trkpt lat="43.55077" lon="2.03325">
        <ele>214.8</ele>
        <time>2022-03-08T14:36:20Z</time>
      </trkpt>
      <trkpt lat="43.55078" lon="2.03326">
        <ele>214.7</ele>
        <time>2022-03-08T14:36:22Z</time>
      </trkpt>
      <trkpt lat="43.55078" lon="2.03328">
        <ele>214.6</ele>
        <time>2022-03-08T14:36:23Z</time>
      </trkpt>
      <trkpt lat="43.55079" lon="2.03329">
        <ele>214.6</ele>
        <time>2022-03-08T14:36:24Z</time>
      </trkpt>
      <trkpt lat="43.55079" lon="2.03331">
        <ele>214.5</ele>
        <time>2022-03-08T14:36:25Z</time>
      </trkpt>
      <trkpt lat="43.55079" lon="2.03333">
        <ele>214.4</ele>
        <time>2022-03-08T14:36:27Z</time>
      </trkpt>
      <trkpt lat="43.55079" lon="2.03335">
        <ele>214.3</ele>
        <time>2022-03-08T14:36:28Z</time>
      </trkpt>
      <trkpt lat="43.55079" lon="2.03337">
        <ele>214.2</ele>
        <time>2022-03-08T14:36:29Z</time>
      </trkpt>
      <trkpt lat="43.55079" lon="2.03339">
        <ele>214.1</ele>
        <time>2022-03-08T14:36:30Z</time>
      </trkpt>
      <trkpt lat="43.5508" lon="2.03341">
        <ele>214</ele>
        <time>2022-03-08T14:36:31Z</time>
      </trkpt>
      <trkpt lat="43.5508" lon="2.03342">
        <ele>214</ele>
        <time>2022-03-08T14:36:32Z</time>
      </trkpt>
      <trkpt lat="43.5508" lon="2.03344">
        <ele>213.9</ele>
        <time>2022-03-08T14:36:34Z</time>
      </trkpt>
      <trkpt lat="43.55081" lon="2.03347">
        <ele>213.8</ele>
        <time>2022-03-08T14:36:35Z</time>
      </trkpt>
      <trkpt lat="43.55081" lon="2.03348">
        <ele>213.7</ele>
        <time>2022-03-08T14:36:36Z</time>
      </trkpt>
      <trkpt lat="43.55082" lon="2.03349">
        <ele>213.6</ele>
        <time>2022-03-08T14:36:37Z</time>
      </trkpt>
      <trkpt lat="43.55082" lon="2.03352">
        <ele>213.5</ele>
        <time>2022-03-08T14:36:39Z</time>
      </trkpt>
      <trkpt lat="43.55083" lon="2.03353">
        <ele>213.4</ele>
        <time>2022-03-08T14:36:40Z</time>
      </trkpt>
      <trkpt lat="43.55084" lon="2.03355">
        <ele>213.4</ele>
        <time>2022-03-08T14:36:41Z</time>
      </trkpt>
      <trkpt lat="43.55084" lon="2.03357">
        <ele>213.3</ele>
        <time>2022-03-08T14:36:42Z</time>
      </trkpt>
      <trkpt lat="43.55083" lon="2.03359">
        <ele>213.2</ele>
        <time>2022-03-08T14:36:43Z</time>
      </trkpt>
      <trkpt lat="43.55081" lon="2.03362">
        <ele>213.1</ele>
        <time>2022-03-08T14:36:45Z</time>
      </trkpt>
      <trkpt lat="43.5508" lon="2.03364">
        <ele>213</ele>
        <time>2022-03-08T14:36:46Z</time>
      </trkpt>
      <trkpt lat="43.55079" lon="2.03366">
        <ele>212.9</ele>
        <time>2022-03-08T14:36:47Z</time>
      </trkpt>
      <trkpt lat="43.55079" lon="2.03368">
        <ele>212.9</ele>
        <time>2022-03-08T14:36:48Z</time>
      </trkpt>
      <trkpt lat="43.55079" lon="2.03369">
        <ele>212.8</ele>
        <time>2022-03-08T14:36:49Z</time>
      </trkpt>
      <trkpt lat="43.55078" lon="2.03371">
        <ele>212.8</ele>
        <time>2022-03-08T14:36:50Z</time>
      </trkpt>
      <trkpt lat="43.55078" lon="2.03372">
        <ele>212.7</ele>
        <time>2022-03-08T14:36:51Z</time>
      </trkpt>
      <trkpt lat="43.55078" lon="2.03374">
        <ele>212.7</ele>
        <time>2022-03-08T14:36:52Z</time>
      </trkpt>
      <trkpt lat="43.55078" lon="2.03375">
        <ele>212.7</ele>
        <time>2022-03-08T14:36:53Z</time>
      </trkpt>
      <trkpt lat="43.55078" lon="2.03376">
        <ele>212.6</ele>
        <time>2022-03-08T14:36:54Z</time>
      </trkpt>
      <trkpt lat="43.55078" lon="2.03378">
        <ele>212.6</ele>
        <time>2022-03-08T14:36:55Z</time>
      </trkpt>
      <trkpt lat="43.55079" lon="2.03379">
        <ele>212.6</ele>
        <time>2022-03-08T14:36:56Z</time>
      </trkpt>
      <trkpt lat="43.55079" lon="2.0338">
        <ele>212.5</ele>
        <time>2022-03-08T14:36:57Z</time>
      </trkpt>
      <trkpt lat="43.5508" lon="2.0338">
        <ele>212.5</ele>
        <time>2022-03-08T14:36:58Z</time>
      </trkpt>
      <trkpt lat="43.55081" lon="2.03381">
        <ele>212.5</ele>
        <time>2022-03-08T14:36:59Z</time>
      </trkpt>
      <trkpt lat="43.55082" lon="2.03382">
        <ele>212.4</ele>
        <time>2022-03-08T14:37:01Z</time>
      </trkpt>
      <trkpt lat="43.55083" lon="2.03383">
        <ele>212.4</ele>
        <time>2022-03-08T14:37:02Z</time>
      </trkpt>
      <trkpt lat="43.55084" lon="2.03382">
        <ele>212.3</ele>
        <time>2022-03-08T14:37:03Z</time>
      </trkpt>
      <trkpt lat="43.55084" lon="2.03381">
        <ele>212.3</ele>
        <time>2022-03-08T14:37:04Z</time>
      </trkpt>
      <trkpt lat="43.55084" lon="2.0338">
        <ele>212.3</ele>
        <time>2022-03-08T14:37:05Z</time>
      </trkpt>
      <trkpt lat="43.55084" lon="2.03379">
        <ele>212.3</ele>
        <time>2022-03-08T14:37:06Z</time>
      </trkpt>
      <trkpt lat="43.55084" lon="2.03379">
        <ele>212.3</ele>
        <time>2022-03-08T14:37:07Z</time>
      </trkpt>
      <trkpt lat="43.55084" lon="2.03378">
        <ele>212.3</ele>
        <time>2022-03-08T14:37:08Z</time>
      </trkpt>
      <trkpt lat="43.55084" lon="2.03378">
        <ele>212.2</ele>
        <time>2022-03-08T14:37:09Z</time>
      </trkpt>
      <trkpt lat="43.55084" lon="2.03378">
        <ele>212.2</ele>
        <time>2022-03-08T14:37:10Z</time>
      </trkpt>
      <trkpt lat="43.55084" lon="2.03378">
        <ele>212.2</ele>
        <time>2022-03-08T14:37:11Z</time>
      </trkpt>
      <trkpt lat="43.55084" lon="2.03378">
        <ele>212.2</ele>
        <time>2022-03-08T14:37:12Z</time>
      </trkpt>
      <trkpt lat="43.55084" lon="2.03378">
        <ele>212.2</ele>
        <time>2022-03-08T14:37:13Z</time>
      </trkpt>
      <trkpt lat="43.55084" lon="2.03378">
        <ele>212.2</ele>
        <time>2022-03-08T14:37:14Z</time>
      </trkpt>
      <trkpt lat="43.55084" lon="2.03378">
        <ele>212.2</ele>
        <time>2022-03-08T14:37:15Z</time>
      </trkpt>
      <trkpt lat="43.55084" lon="2.03378">
        <ele>212.2</ele>
        <time>2022-03-08T14:37:16Z</time>
      </trkpt>
      <trkpt lat="43.55084" lon="2.03378">
        <ele>212.2</ele>
        <time>2022-03-08T14:37:17Z</time>
      </trkpt>
      <trkpt lat="43.55084" lon="2.03378">
        <ele>212.2</ele>
        <time>2022-03-08T14:37:18Z</time>
      </trkpt>
      <trkpt lat="43.55084" lon="2.03378">
        <ele>212.2</ele>
        <time>2022-03-08T14:37:19Z</time>
      </trkpt>
      <trkpt lat="43.55084" lon="2.03378">
        <ele>212.2</ele>
        <time>2022-03-08T14:37:20Z</time>
      </trkpt>
      <trkpt lat="43.55085" lon="2.03379">
        <ele>212.2</ele>
        <time>2022-03-08T14:37:21Z</time>
      </trkpt>
      <trkpt lat="43.55085" lon="2.03379">
        <ele>212.2</ele>
        <time>2022-03-08T14:37:22Z</time>
      </trkpt>
      <trkpt lat="43.55085" lon="2.03379">
        <ele>212.2</ele>
        <time>2022-03-08T14:37:23Z</time>
      </trkpt>
      <trkpt lat="43.55085" lon="2.03379">
        <ele>212.2</ele>
        <time>2022-03-08T14:37:24Z</time>
      </trkpt>
      <trkpt lat="43.55086" lon="2.0338">
        <ele>212.2</ele>
        <time>2022-03-08T14:37:25Z</time>
      </trkpt>
      <trkpt lat="43.55086" lon="2.03381">
        <ele>212.1</ele>
        <time>2022-03-08T14:37:27Z</time>
      </trkpt>
      <trkpt lat="43.55087" lon="2.03381">
        <ele>212.1</ele>
        <time>2022-03-08T14:37:28Z</time>
      </trkpt>
      <trkpt lat="43.55088" lon="2.03384">
        <ele>212.1</ele>
        <time>2022-03-08T14:37:29Z</time>
      </trkpt>
      <trkpt lat="43.55088" lon="2.03385">
        <ele>212</ele>
        <time>2022-03-08T14:37:30Z</time>
      </trkpt>
      <trkpt lat="43.55089" lon="2.03386">
        <ele>212</ele>
        <time>2022-03-08T14:37:31Z</time>
      </trkpt>
      <trkpt lat="43.55089" lon="2.03388">
        <ele>212</ele>
        <time>2022-03-08T14:37:32Z</time>
      </trkpt>
      <trkpt lat="43.5509" lon="2.0339">
        <ele>211.9</ele>
        <time>2022-03-08T14:37:33Z</time>
      </trkpt>
      <trkpt lat="43.5509" lon="2.03392">
        <ele>211.9</ele>
        <time>2022-03-08T14:37:34Z</time>
      </trkpt>
      <trkpt lat="43.55091" lon="2.03394">
        <ele>211.9</ele>
        <time>2022-03-08T14:37:35Z</time>
      </trkpt>
      <trkpt lat="43.55092" lon="2.03395">
        <ele>211.8</ele>
        <time>2022-03-08T14:37:36Z</time>
      </trkpt>
      <trkpt lat="43.55093" lon="2.03397">
        <ele>211.8</ele>
        <time>2022-03-08T14:37:38Z</time>
      </trkpt>
      <trkpt lat="43.55094" lon="2.03399">
        <ele>211.8</ele>
        <time>2022-03-08T14:37:39Z</time>
      </trkpt>
      <trkpt lat="43.55095" lon="2.034">
        <ele>211.7</ele>
        <time>2022-03-08T14:37:40Z</time>
      </trkpt>
      <trkpt lat="43.55096" lon="2.03401">
        <ele>211.7</ele>
        <time>2022-03-08T14:37:41Z</time>
      </trkpt>
      <trkpt lat="43.55097" lon="2.03403">
        <ele>211.7</ele>
        <time>2022-03-08T14:37:42Z</time>
      </trkpt>
      <trkpt lat="43.55098" lon="2.03406">
        <ele>211.7</ele>
        <time>2022-03-08T14:37:43Z</time>
      </trkpt>
      <trkpt lat="43.55099" lon="2.03407">
        <ele>211.7</ele>
        <time>2022-03-08T14:37:44Z</time>
      </trkpt>
      <trkpt lat="43.55099" lon="2.03408">
        <ele>211.7</ele>
        <time>2022-03-08T14:37:45Z</time>
      </trkpt>
      <trkpt lat="43.55099" lon="2.0341">
        <ele>211.7</ele>
        <time>2022-03-08T14:37:46Z</time>
      </trkpt>
      <trkpt lat="43.55099" lon="2.03411">
        <ele>211.7</ele>
        <time>2022-03-08T14:37:47Z</time>
      </trkpt>
      <trkpt lat="43.55098" lon="2.03415">
        <ele>211.7</ele>
        <time>2022-03-08T14:37:49Z</time>
      </trkpt>
      <trkpt lat="43.55098" lon="2.03417">
        <ele>211.7</ele>
        <time>2022-03-08T14:37:50Z</time>
      </trkpt>
      <trkpt lat="43.55098" lon="2.03418">
        <ele>211.7</ele>
        <time>2022-03-08T14:37:51Z</time>
      </trkpt>
      <trkpt lat="43.55099" lon="2.03419">
        <ele>211.8</ele>
        <time>2022-03-08T14:37:52Z</time>
      </trkpt>
      <trkpt lat="43.55099" lon="2.0342">
        <ele>211.8</ele>
        <time>2022-03-08T14:37:53Z</time>
      </trkpt>
      <trkpt lat="43.551" lon="2.03422">
        <ele>211.8</ele>
        <time>2022-03-08T14:37:54Z</time>
      </trkpt>
      <trkpt lat="43.551" lon="2.03422">
        <ele>211.8</ele>
        <time>2022-03-08T14:37:55Z</time>
      </trkpt>
      <trkpt lat="43.55101" lon="2.03422">
        <ele>211.8</ele>
        <time>2022-03-08T14:37:56Z</time>
      </trkpt>
      <trkpt lat="43.55101" lon="2.03422">
        <ele>211.8</ele>
        <time>2022-03-08T14:37:57Z</time>
      </trkpt>
      <trkpt lat="43.55102" lon="2.03423">
        <ele>211.8</ele>
        <time>2022-03-08T14:37:58Z</time>
      </trkpt>
      <trkpt lat="43.55103" lon="2.03424">
        <ele>211.9</ele>
        <time>2022-03-08T14:37:59Z</time>
      </trkpt>
      <trkpt lat="43.55104" lon="2.03426">
        <ele>211.9</ele>
        <time>2022-03-08T14:38:01Z</time>
      </trkpt>
      <trkpt lat="43.55105" lon="2.03427">
        <ele>211.9</ele>
        <time>2022-03-08T14:38:02Z</time>
      </trkpt>
      <trkpt lat="43.55106" lon="2.03428">
        <ele>211.9</ele>
        <time>2022-03-08T14:38:03Z</time>
      </trkpt>
      <trkpt lat="43.55106" lon="2.03429">
        <ele>212</ele>
        <time>2022-03-08T14:38:04Z</time>
      </trkpt>
      <trkpt lat="43.55107" lon="2.0343">
        <ele>212</ele>
        <time>2022-03-08T14:38:05Z</time>
      </trkpt>
      <trkpt lat="43.55107" lon="2.03432">
        <ele>212</ele>
        <time>2022-03-08T14:38:06Z</time>
      </trkpt>
      <trkpt lat="43.55108" lon="2.03432">
        <ele>212.1</ele>
        <time>2022-03-08T14:38:07Z</time>
      </trkpt>
      <trkpt lat="43.55108" lon="2.03433">
        <ele>212.1</ele>
        <time>2022-03-08T14:38:08Z</time>
      </trkpt>
      <trkpt lat="43.55109" lon="2.03435">
        <ele>212.1</ele>
        <time>2022-03-08T14:38:10Z</time>
      </trkpt>
      <trkpt lat="43.5511" lon="2.03436">
        <ele>212.2</ele>
        <time>2022-03-08T14:38:11Z</time>
      </trkpt>
      <trkpt lat="43.5511" lon="2.03437">
        <ele>212.2</ele>
        <time>2022-03-08T14:38:12Z</time>
      </trkpt>
      <trkpt lat="43.55111" lon="2.03438">
        <ele>212.2</ele>
        <time>2022-03-08T14:38:13Z</time>
      </trkpt>
      <trkpt lat="43.55112" lon="2.03439">
        <ele>212.3</ele>
        <time>2022-03-08T14:38:14Z</time>
      </trkpt>
      <trkpt lat="43.55113" lon="2.0344">
        <ele>212.3</ele>
        <time>2022-03-08T14:38:15Z</time>
      </trkpt>
      <trkpt lat="43.55114" lon="2.03441">
        <ele>212.4</ele>
        <time>2022-03-08T14:38:17Z</time>
      </trkpt>
      <trkpt lat="43.55115" lon="2.03441">
        <ele>212.4</ele>
        <time>2022-03-08T14:38:18Z</time>
      </trkpt>
      <trkpt lat="43.55116" lon="2.03441">
        <ele>212.4</ele>
        <time>2022-03-08T14:38:19Z</time>
      </trkpt>
      <trkpt lat="43.55117" lon="2.03442">
        <ele>212.5</ele>
        <time>2022-03-08T14:38:20Z</time>
      </trkpt>
      <trkpt lat="43.55117" lon="2.03442">
        <ele>212.5</ele>
        <time>2022-03-08T14:38:21Z</time>
      </trkpt>
      <trkpt lat="43.55119" lon="2.03444">
        <ele>212.6</ele>
        <time>2022-03-08T14:38:23Z</time>
      </trkpt>
      <trkpt lat="43.55121" lon="2.03446">
        <ele>212.7</ele>
        <time>2022-03-08T14:38:24Z</time>
      </trkpt>
      <trkpt lat="43.55122" lon="2.03446">
        <ele>212.8</ele>
        <time>2022-03-08T14:38:25Z</time>
      </trkpt>
      <trkpt lat="43.55124" lon="2.03448">
        <ele>212.9</ele>
        <time>2022-03-08T14:38:27Z</time>
      </trkpt>
      <trkpt lat="43.55125" lon="2.03449">
        <ele>213</ele>
        <time>2022-03-08T14:38:28Z</time>
      </trkpt>
      <trkpt lat="43.55127" lon="2.0345">
        <ele>213.1</ele>
        <time>2022-03-08T14:38:29Z</time>
      </trkpt>
      <trkpt lat="43.55128" lon="2.03451">
        <ele>213.2</ele>
        <time>2022-03-08T14:38:30Z</time>
      </trkpt>
      <trkpt lat="43.5513" lon="2.03452">
        <ele>213.3</ele>
        <time>2022-03-08T14:38:31Z</time>
      </trkpt>
      <trkpt lat="43.55131" lon="2.03452">
        <ele>213.4</ele>
        <time>2022-03-08T14:38:32Z</time>
      </trkpt>
      <trkpt lat="43.55133" lon="2.03453">
        <ele>213.5</ele>
        <time>2022-03-08T14:38:33Z</time>
      </trkpt>
      <trkpt lat="43.55134" lon="2.03453">
        <ele>213.6</ele>
        <time>2022-03-08T14:38:34Z</time>
      </trkpt>
      <trkpt lat="43.55135" lon="2.03453">
        <ele>213.6</ele>
        <time>2022-03-08T14:38:35Z</time>
      </trkpt>
      <trkpt lat="43.55136" lon="2.03454">
        <ele>213.8</ele>
        <time>2022-03-08T14:38:36Z</time>
      </trkpt>
      <trkpt lat="43.55137" lon="2.03455">
        <ele>213.8</ele>
        <time>2022-03-08T14:38:37Z</time>
      </trkpt>
      <trkpt lat="43.55139" lon="2.03456">
        <ele>214</ele>
        <time>2022-03-08T14:38:39Z</time>
      </trkpt>
      <trkpt lat="43.5514" lon="2.03457">
        <ele>214.1</ele>
        <time>2022-03-08T14:38:40Z</time>
      </trkpt>
      <trkpt lat="43.5514" lon="2.03457">
        <ele>214.1</ele>
        <time>2022-03-08T14:38:41Z</time>
      </trkpt>
      <trkpt lat="43.55142" lon="2.03458">
        <ele>214.2</ele>
        <time>2022-03-08T14:38:42Z</time>
      </trkpt>
      <trkpt lat="43.55143" lon="2.03459">
        <ele>214.4</ele>
        <time>2022-03-08T14:38:43Z</time>
      </trkpt>
      <trkpt lat="43.55144" lon="2.0346">
        <ele>214.5</ele>
        <time>2022-03-08T14:38:44Z</time>
      </trkpt>
      <trkpt lat="43.55145" lon="2.03461">
        <ele>214.6</ele>
        <time>2022-03-08T14:38:45Z</time>
      </trkpt>
      <trkpt lat="43.55146" lon="2.03461">
        <ele>214.7</ele>
        <time>2022-03-08T14:38:46Z</time>
      </trkpt>
      <trkpt lat="43.55148" lon="2.03463">
        <ele>214.8</ele>
        <time>2022-03-08T14:38:47Z</time>
      </trkpt>
      <trkpt lat="43.55149" lon="2.03463">
        <ele>214.9</ele>
        <time>2022-03-08T14:38:48Z</time>
      </trkpt>
      <trkpt lat="43.5515" lon="2.03464">
        <ele>215</ele>
        <time>2022-03-08T14:38:49Z</time>
      </trkpt>
      <trkpt lat="43.55151" lon="2.03464">
        <ele>215.1</ele>
        <time>2022-03-08T14:38:51Z</time>
      </trkpt>
      <trkpt lat="43.55152" lon="2.03464">
        <ele>215.1</ele>
        <time>2022-03-08T14:38:52Z</time>
      </trkpt>
      <trkpt lat="43.55153" lon="2.03464">
        <ele>215.2</ele>
        <time>2022-03-08T14:38:53Z</time>
      </trkpt>
      <trkpt lat="43.55154" lon="2.03464">
        <ele>215.3</ele>
        <time>2022-03-08T14:38:54Z</time>
      </trkpt>
      <trkpt lat="43.55155" lon="2.03464">
        <ele>215.4</ele>
        <time>2022-03-08T14:38:55Z</time>
      </trkpt>
      <trkpt lat="43.55156" lon="2.03464">
        <ele>215.5</ele>
        <time>2022-03-08T14:38:56Z</time>
      </trkpt>
      <trkpt lat="43.55157" lon="2.03464">
        <ele>215.6</ele>
        <time>2022-03-08T14:38:57Z</time>
      </trkpt>
      <trkpt lat="43.55158" lon="2.03464">
        <ele>215.7</ele>
        <time>2022-03-08T14:38:58Z</time>
      </trkpt>
      <trkpt lat="43.55159" lon="2.03464">
        <ele>215.8</ele>
        <time>2022-03-08T14:38:59Z</time>
      </trkpt>
      <trkpt lat="43.55161" lon="2.03464">
        <ele>215.9</ele>
        <time>2022-03-08T14:39:01Z</time>
      </trkpt>
      <trkpt lat="43.55162" lon="2.03464">
        <ele>216</ele>
        <time>2022-03-08T14:39:02Z</time>
      </trkpt>
      <trkpt lat="43.55162" lon="2.03464">
        <ele>216.1</ele>
        <time>2022-03-08T14:39:03Z</time>
      </trkpt>
      <trkpt lat="43.55164" lon="2.03465">
        <ele>216.2</ele>
        <time>2022-03-08T14:39:04Z</time>
      </trkpt>
      <trkpt lat="43.55165" lon="2.03465">
        <ele>216.3</ele>
        <time>2022-03-08T14:39:06Z</time>
      </trkpt>
      <trkpt lat="43.55166" lon="2.03466">
        <ele>216.4</ele>
        <time>2022-03-08T14:39:07Z</time>
      </trkpt>
      <trkpt lat="43.55166" lon="2.03468">
        <ele>216.5</ele>
        <time>2022-03-08T14:39:08Z</time>
      </trkpt>
      <trkpt lat="43.55167" lon="2.03469">
        <ele>216.6</ele>
        <time>2022-03-08T14:39:09Z</time>
      </trkpt>
      <trkpt lat="43.55168" lon="2.0347">
        <ele>216.7</ele>
        <time>2022-03-08T14:39:10Z</time>
      </trkpt>
      <trkpt lat="43.55168" lon="2.03471">
        <ele>216.8</ele>
        <time>2022-03-08T14:39:11Z</time>
      </trkpt>
      <trkpt lat="43.5517" lon="2.03474">
        <ele>217</ele>
        <time>2022-03-08T14:39:13Z</time>
      </trkpt>
      <trkpt lat="43.55171" lon="2.03477">
        <ele>217.2</ele>
        <time>2022-03-08T14:39:14Z</time>
      </trkpt>
      <trkpt lat="43.55172" lon="2.03478">
        <ele>217.3</ele>
        <time>2022-03-08T14:39:16Z</time>
      </trkpt>
      <trkpt lat="43.55173" lon="2.03479">
        <ele>217.4</ele>
        <time>2022-03-08T14:39:17Z</time>
      </trkpt>
      <trkpt lat="43.55173" lon="2.03481">
        <ele>217.5</ele>
        <time>2022-03-08T14:39:19Z</time>
      </trkpt>
      <trkpt lat="43.55174" lon="2.03482">
        <ele>217.6</ele>
        <time>2022-03-08T14:39:20Z</time>
      </trkpt>
      <trkpt lat="43.55175" lon="2.03483">
        <ele>217.8</ele>
        <time>2022-03-08T14:39:22Z</time>
      </trkpt>
      <trkpt lat="43.55176" lon="2.03485">
        <ele>217.9</ele>
        <time>2022-03-08T14:39:23Z</time>
      </trkpt>
      <trkpt lat="43.55177" lon="2.03486">
        <ele>218</ele>
        <time>2022-03-08T14:39:24Z</time>
      </trkpt>
      <trkpt lat="43.55178" lon="2.03488">
        <ele>218.1</ele>
        <time>2022-03-08T14:39:25Z</time>
      </trkpt>
      <trkpt lat="43.5518" lon="2.03489">
        <ele>218.2</ele>
        <time>2022-03-08T14:39:27Z</time>
      </trkpt>
      <trkpt lat="43.5518" lon="2.0349">
        <ele>218.3</ele>
        <time>2022-03-08T14:39:28Z</time>
      </trkpt>
      <trkpt lat="43.55181" lon="2.0349">
        <ele>218.3</ele>
        <time>2022-03-08T14:39:29Z</time>
      </trkpt>
      <trkpt lat="43.55182" lon="2.03491">
        <ele>218.4</ele>
        <time>2022-03-08T14:39:30Z</time>
      </trkpt>
      <trkpt lat="43.55184" lon="2.03492">
        <ele>218.5</ele>
        <time>2022-03-08T14:39:31Z</time>
      </trkpt>
      <trkpt lat="43.55185" lon="2.03492">
        <ele>218.6</ele>
        <time>2022-03-08T14:39:32Z</time>
      </trkpt>
      <trkpt lat="43.55186" lon="2.03493">
        <ele>218.7</ele>
        <time>2022-03-08T14:39:34Z</time>
      </trkpt>
      <trkpt lat="43.55186" lon="2.03493">
        <ele>218.7</ele>
        <time>2022-03-08T14:39:35Z</time>
      </trkpt>
      <trkpt lat="43.55187" lon="2.03493">
        <ele>218.8</ele>
        <time>2022-03-08T14:39:36Z</time>
      </trkpt>
      <trkpt lat="43.55188" lon="2.03494">
        <ele>218.9</ele>
        <time>2022-03-08T14:39:37Z</time>
      </trkpt>
      <trkpt lat="43.55189" lon="2.03495">
        <ele>219</ele>
        <time>2022-03-08T14:39:39Z</time>
      </trkpt>
      <trkpt lat="43.5519" lon="2.03495">
        <ele>219.1</ele>
        <time>2022-03-08T14:39:40Z</time>
      </trkpt>
      <trkpt lat="43.55191" lon="2.03496">
        <ele>219.1</ele>
        <time>2022-03-08T14:39:41Z</time>
      </trkpt>
      <trkpt lat="43.55192" lon="2.03496">
        <ele>219.2</ele>
        <time>2022-03-08T14:39:43Z</time>
      </trkpt>
      <trkpt lat="43.55193" lon="2.03497">
        <ele>219.3</ele>
        <time>2022-03-08T14:39:44Z</time>
      </trkpt>
      <trkpt lat="43.55194" lon="2.03498">
        <ele>219.4</ele>
        <time>2022-03-08T14:39:45Z</time>
      </trkpt>
      <trkpt lat="43.55195" lon="2.03498">
        <ele>219.4</ele>
        <time>2022-03-08T14:39:46Z</time>
      </trkpt>
      <trkpt lat="43.55195" lon="2.03499">
        <ele>219.5</ele>
        <time>2022-03-08T14:39:47Z</time>
      </trkpt>
      <trkpt lat="43.55196" lon="2.03499">
        <ele>219.6</ele>
        <time>2022-03-08T14:39:48Z</time>
      </trkpt>
      <trkpt lat="43.55198" lon="2.035">
        <ele>219.6</ele>
        <time>2022-03-08T14:39:49Z</time>
      </trkpt>
      <trkpt lat="43.55199" lon="2.035">
        <ele>219.6</ele>
        <time>2022-03-08T14:39:50Z</time>
      </trkpt>
      <trkpt lat="43.55199" lon="2.035">
        <ele>219.6</ele>
        <time>2022-03-08T14:39:51Z</time>
      </trkpt>
      <trkpt lat="43.552" lon="2.035">
        <ele>219.6</ele>
        <time>2022-03-08T14:39:52Z</time>
      </trkpt>
      <trkpt lat="43.55201" lon="2.035">
        <ele>219.7</ele>
        <time>2022-03-08T14:39:53Z</time>
      </trkpt>
      <trkpt lat="43.55203" lon="2.035">
        <ele>219.7</ele>
        <time>2022-03-08T14:39:55Z</time>
      </trkpt>
      <trkpt lat="43.55204" lon="2.03499">
        <ele>219.7</ele>
        <time>2022-03-08T14:39:56Z</time>
      </trkpt>
      <trkpt lat="43.55205" lon="2.03498">
        <ele>219.8</ele>
        <time>2022-03-08T14:39:57Z</time>
      </trkpt>
      <trkpt lat="43.55206" lon="2.03497">
        <ele>219.8</ele>
        <time>2022-03-08T14:39:59Z</time>
      </trkpt>
      <trkpt lat="43.55207" lon="2.03496">
        <ele>219.8</ele>
        <time>2022-03-08T14:40:00Z</time>
      </trkpt>
      <trkpt lat="43.55207" lon="2.03494">
        <ele>219.9</ele>
        <time>2022-03-08T14:40:01Z</time>
      </trkpt>
      <trkpt lat="43.55208" lon="2.03493">
        <ele>219.9</ele>
        <time>2022-03-08T14:40:02Z</time>
      </trkpt>
      <trkpt lat="43.55207" lon="2.03492">
        <ele>219.9</ele>
        <time>2022-03-08T14:40:03Z</time>
      </trkpt>
      <trkpt lat="43.55207" lon="2.03491">
        <ele>219.9</ele>
        <time>2022-03-08T14:40:04Z</time>
      </trkpt>
      <trkpt lat="43.55207" lon="2.0349">
        <ele>219.9</ele>
        <time>2022-03-08T14:40:05Z</time>
      </trkpt>
      <trkpt lat="43.55207" lon="2.03489">
        <ele>219.9</ele>
        <time>2022-03-08T14:40:06Z</time>
      </trkpt>
      <trkpt lat="43.55207" lon="2.03489">
        <ele>220</ele>
        <time>2022-03-08T14:40:07Z</time>
      </trkpt>
      <trkpt lat="43.55207" lon="2.03488">
        <ele>220</ele>
        <time>2022-03-08T14:40:08Z</time>
      </trkpt>
      <trkpt lat="43.55207" lon="2.03488">
        <ele>220</ele>
        <time>2022-03-08T14:40:09Z</time>
      </trkpt>
      <trkpt lat="43.55206" lon="2.03488">
        <ele>220</ele>
        <time>2022-03-08T14:40:10Z</time>
      </trkpt>
      <trkpt lat="43.55206" lon="2.03487">
        <ele>220</ele>
        <time>2022-03-08T14:40:11Z</time>
      </trkpt>
      <trkpt lat="43.55206" lon="2.03487">
        <ele>220</ele>
        <time>2022-03-08T14:40:12Z</time>
      </trkpt>
      <trkpt lat="43.55207" lon="2.03487">
        <ele>220</ele>
        <time>2022-03-08T14:40:14Z</time>
      </trkpt>
      <trkpt lat="43.55207" lon="2.03486">
        <ele>220</ele>
        <time>2022-03-08T14:40:15Z</time>
      </trkpt>
      <trkpt lat="43.55208" lon="2.03485">
        <ele>220</ele>
        <time>2022-03-08T14:40:16Z</time>
      </trkpt>
      <trkpt lat="43.5521" lon="2.03484">
        <ele>220.1</ele>
        <time>2022-03-08T14:40:17Z</time>
      </trkpt>
      <trkpt lat="43.55211" lon="2.03484">
        <ele>220.1</ele>
        <time>2022-03-08T14:40:18Z</time>
      </trkpt>
      <trkpt lat="43.55212" lon="2.03483">
        <ele>220.1</ele>
        <time>2022-03-08T14:40:19Z</time>
      </trkpt>
      <trkpt lat="43.55213" lon="2.03482">
        <ele>220.2</ele>
        <time>2022-03-08T14:40:20Z</time>
      </trkpt>
      <trkpt lat="43.55214" lon="2.03481">
        <ele>220.2</ele>
        <time>2022-03-08T14:40:22Z</time>
      </trkpt>
      <trkpt lat="43.55214" lon="2.0348">
        <ele>220.2</ele>
        <time>2022-03-08T14:40:23Z</time>
      </trkpt>
      <trkpt lat="43.55215" lon="2.03479">
        <ele>220.2</ele>
        <time>2022-03-08T14:40:24Z</time>
      </trkpt>
      <trkpt lat="43.55216" lon="2.03478">
        <ele>220.3</ele>
        <time>2022-03-08T14:40:25Z</time>
      </trkpt>
      <trkpt lat="43.55217" lon="2.03477">
        <ele>220.3</ele>
        <time>2022-03-08T14:40:26Z</time>
      </trkpt>
      <trkpt lat="43.55218" lon="2.03476">
        <ele>220.3</ele>
        <time>2022-03-08T14:40:28Z</time>
      </trkpt>
      <trkpt lat="43.55219" lon="2.03475">
        <ele>220.4</ele>
        <time>2022-03-08T14:40:29Z</time>
      </trkpt>
      <trkpt lat="43.55221" lon="2.03474">
        <ele>220.4</ele>
        <time>2022-03-08T14:40:30Z</time>
      </trkpt>
      <trkpt lat="43.55222" lon="2.03473">
        <ele>220.5</ele>
        <time>2022-03-08T14:40:31Z</time>
      </trkpt>
      <trkpt lat="43.55224" lon="2.03473">
        <ele>220.5</ele>
        <time>2022-03-08T14:40:32Z</time>
      </trkpt>
      <trkpt lat="43.55225" lon="2.03472">
        <ele>220.6</ele>
        <time>2022-03-08T14:40:33Z</time>
      </trkpt>
      <trkpt lat="43.55227" lon="2.03472">
        <ele>220.6</ele>
        <time>2022-03-08T14:40:34Z</time>
      </trkpt>
      <trkpt lat="43.55229" lon="2.03471">
        <ele>220.7</ele>
        <time>2022-03-08T14:40:35Z</time>
      </trkpt>
      <trkpt lat="43.55231" lon="2.0347">
        <ele>220.8</ele>
        <time>2022-03-08T14:40:37Z</time>
      </trkpt>
      <trkpt lat="43.55232" lon="2.03469">
        <ele>220.8</ele>
        <time>2022-03-08T14:40:38Z</time>
      </trkpt>
      <trkpt lat="43.55233" lon="2.03468">
        <ele>220.9</ele>
        <time>2022-03-08T14:40:39Z</time>
      </trkpt>
      <trkpt lat="43.55235" lon="2.03468">
        <ele>220.9</ele>
        <time>2022-03-08T14:40:41Z</time>
      </trkpt>
      <trkpt lat="43.55236" lon="2.03467">
        <ele>220.9</ele>
        <time>2022-03-08T14:40:42Z</time>
      </trkpt>
      <trkpt lat="43.55237" lon="2.03466">
        <ele>221</ele>
        <time>2022-03-08T14:40:43Z</time>
      </trkpt>
      <trkpt lat="43.55238" lon="2.03465">
        <ele>221</ele>
        <time>2022-03-08T14:40:44Z</time>
      </trkpt>
      <trkpt lat="43.55239" lon="2.03464">
        <ele>221.1</ele>
        <time>2022-03-08T14:40:45Z</time>
      </trkpt>
      <trkpt lat="43.5524" lon="2.03463">
        <ele>221.1</ele>
        <time>2022-03-08T14:40:46Z</time>
      </trkpt>
      <trkpt lat="43.55241" lon="2.03463">
        <ele>221.1</ele>
        <time>2022-03-08T14:40:47Z</time>
      </trkpt>
      <trkpt lat="43.55243" lon="2.03462">
        <ele>221.2</ele>
        <time>2022-03-08T14:40:49Z</time>
      </trkpt>
      <trkpt lat="43.55244" lon="2.03461">
        <ele>221.2</ele>
        <time>2022-03-08T14:40:50Z</time>
      </trkpt>
      <trkpt lat="43.55245" lon="2.03461">
        <ele>221.3</ele>
        <time>2022-03-08T14:40:51Z</time>
      </trkpt>
      <trkpt lat="43.55245" lon="2.03461">
        <ele>221.3</ele>
        <time>2022-03-08T14:40:52Z</time>
      </trkpt>
      <trkpt lat="43.55246" lon="2.03461">
        <ele>221.3</ele>
        <time>2022-03-08T14:40:53Z</time>
      </trkpt>
      <trkpt lat="43.55247" lon="2.03461">
        <ele>221.3</ele>
        <time>2022-03-08T14:40:54Z</time>
      </trkpt>
      <trkpt lat="43.55248" lon="2.0346">
        <ele>221.3</ele>
        <time>2022-03-08T14:40:55Z</time>
      </trkpt>
      <trkpt lat="43.55247" lon="2.0346">
        <ele>221.4</ele>
        <time>2022-03-08T14:40:56Z</time>
      </trkpt>
      <trkpt lat="43.55248" lon="2.0346">
        <ele>221.4</ele>
        <time>2022-03-08T14:40:57Z</time>
      </trkpt>
      <trkpt lat="43.55249" lon="2.0346">
        <ele>221.4</ele>
        <time>2022-03-08T14:40:58Z</time>
      </trkpt>
      <trkpt lat="43.5525" lon="2.03459">
        <ele>221.4</ele>
        <time>2022-03-08T14:40:59Z</time>
      </trkpt>
      <trkpt lat="43.55252" lon="2.03459">
        <ele>221.5</ele>
        <time>2022-03-08T14:41:00Z</time>
      </trkpt>
      <trkpt lat="43.55253" lon="2.03459">
        <ele>221.6</ele>
        <time>2022-03-08T14:41:01Z</time>
      </trkpt>
      <trkpt lat="43.55255" lon="2.03458">
        <ele>221.6</ele>
        <time>2022-03-08T14:41:03Z</time>
      </trkpt>
      <trkpt lat="43.55256" lon="2.03458">
        <ele>221.7</ele>
        <time>2022-03-08T14:41:04Z</time>
      </trkpt>
      <trkpt lat="43.55258" lon="2.03457">
        <ele>221.8</ele>
        <time>2022-03-08T14:41:05Z</time>
      </trkpt>
      <trkpt lat="43.55259" lon="2.03457">
        <ele>221.8</ele>
        <time>2022-03-08T14:41:06Z</time>
      </trkpt>
      <trkpt lat="43.55261" lon="2.03455">
        <ele>221.9</ele>
        <time>2022-03-08T14:41:07Z</time>
      </trkpt>
      <trkpt lat="43.55262" lon="2.03455">
        <ele>222</ele>
        <time>2022-03-08T14:41:08Z</time>
      </trkpt>
      <trkpt lat="43.55262" lon="2.03454">
        <ele>222</ele>
        <time>2022-03-08T14:41:09Z</time>
      </trkpt>
      <trkpt lat="43.55261" lon="2.03454">
        <ele>222</ele>
        <time>2022-03-08T14:41:10Z</time>
      </trkpt>
      <trkpt lat="43.55261" lon="2.03453">
        <ele>222</ele>
        <time>2022-03-08T14:41:11Z</time>
      </trkpt>
      <trkpt lat="43.55261" lon="2.03454">
        <ele>222.1</ele>
        <time>2022-03-08T14:41:12Z</time>
      </trkpt>
      <trkpt lat="43.5526" lon="2.03454">
        <ele>222.1</ele>
        <time>2022-03-08T14:41:13Z</time>
      </trkpt>
      <trkpt lat="43.5526" lon="2.03454">
        <ele>222.1</ele>
        <time>2022-03-08T14:41:14Z</time>
      </trkpt>
      <trkpt lat="43.5526" lon="2.03454">
        <ele>222.1</ele>
        <time>2022-03-08T14:41:15Z</time>
      </trkpt>
      <trkpt lat="43.5526" lon="2.03454">
        <ele>222.1</ele>
        <time>2022-03-08T14:41:16Z</time>
      </trkpt>
      <trkpt lat="43.55261" lon="2.03453">
        <ele>222.2</ele>
        <time>2022-03-08T14:41:17Z</time>
      </trkpt>
      <trkpt lat="43.55263" lon="2.03452">
        <ele>222.2</ele>
        <time>2022-03-08T14:41:19Z</time>
      </trkpt>
      <trkpt lat="43.55265" lon="2.0345">
        <ele>222.3</ele>
        <time>2022-03-08T14:41:20Z</time>
      </trkpt>
      <trkpt lat="43.55266" lon="2.0345">
        <ele>222.4</ele>
        <time>2022-03-08T14:41:21Z</time>
      </trkpt>
      <trkpt lat="43.55267" lon="2.0345">
        <ele>222.4</ele>
        <time>2022-03-08T14:41:22Z</time>
      </trkpt>
      <trkpt lat="43.5527" lon="2.03448">
        <ele>222.6</ele>
        <time>2022-03-08T14:41:23Z</time>
      </trkpt>
      <trkpt lat="43.55271" lon="2.03448">
        <ele>222.6</ele>
        <time>2022-03-08T14:41:24Z</time>
      </trkpt>
      <trkpt lat="43.55273" lon="2.03446">
        <ele>222.7</ele>
        <time>2022-03-08T14:41:25Z</time>
      </trkpt>
      <trkpt lat="43.55274" lon="2.03446">
        <ele>222.8</ele>
        <time>2022-03-08T14:41:26Z</time>
      </trkpt>
      <trkpt lat="43.55276" lon="2.03444">
        <ele>222.9</ele>
        <time>2022-03-08T14:41:28Z</time>
      </trkpt>
      <trkpt lat="43.55277" lon="2.03444">
        <ele>222.9</ele>
        <time>2022-03-08T14:41:29Z</time>
      </trkpt>
      <trkpt lat="43.5528" lon="2.03442">
        <ele>223</ele>
        <time>2022-03-08T14:41:30Z</time>
      </trkpt>
      <trkpt lat="43.55282" lon="2.03441">
        <ele>223.2</ele>
        <time>2022-03-08T14:41:31Z</time>
      </trkpt>
      <trkpt lat="43.55283" lon="2.03441">
        <ele>223.2</ele>
        <time>2022-03-08T14:41:33Z</time>
      </trkpt>
      <trkpt lat="43.55284" lon="2.0344">
        <ele>223.3</ele>
        <time>2022-03-08T14:41:34Z</time>
      </trkpt>
      <trkpt lat="43.55285" lon="2.0344">
        <ele>223.3</ele>
        <time>2022-03-08T14:41:35Z</time>
      </trkpt>
      <trkpt lat="43.55286" lon="2.03439">
        <ele>223.4</ele>
        <time>2022-03-08T14:41:36Z</time>
      </trkpt>
      <trkpt lat="43.55287" lon="2.03438">
        <ele>223.4</ele>
        <time>2022-03-08T14:41:37Z</time>
      </trkpt>
      <trkpt lat="43.55288" lon="2.03438">
        <ele>223.5</ele>
        <time>2022-03-08T14:41:38Z</time>
      </trkpt>
      <trkpt lat="43.55289" lon="2.03437">
        <ele>223.5</ele>
        <time>2022-03-08T14:41:39Z</time>
      </trkpt>
      <trkpt lat="43.55291" lon="2.03435">
        <ele>223.6</ele>
        <time>2022-03-08T14:41:40Z</time>
      </trkpt>
      <trkpt lat="43.55291" lon="2.03435">
        <ele>223.7</ele>
        <time>2022-03-08T14:41:41Z</time>
      </trkpt>
      <trkpt lat="43.55292" lon="2.03434">
        <ele>223.7</ele>
        <time>2022-03-08T14:41:42Z</time>
      </trkpt>
      <trkpt lat="43.55294" lon="2.03432">
        <ele>223.8</ele>
        <time>2022-03-08T14:41:43Z</time>
      </trkpt>
      <trkpt lat="43.55295" lon="2.03431">
        <ele>223.9</ele>
        <time>2022-03-08T14:41:45Z</time>
      </trkpt>
      <trkpt lat="43.55296" lon="2.03431">
        <ele>223.9</ele>
        <time>2022-03-08T14:41:46Z</time>
      </trkpt>
      <trkpt lat="43.55297" lon="2.0343">
        <ele>224.1</ele>
        <time>2022-03-08T14:41:47Z</time>
      </trkpt>
      <trkpt lat="43.55299" lon="2.0343">
        <ele>224.2</ele>
        <time>2022-03-08T14:41:48Z</time>
      </trkpt>
      <trkpt lat="43.55301" lon="2.03429">
        <ele>224.4</ele>
        <time>2022-03-08T14:41:49Z</time>
      </trkpt>
      <trkpt lat="43.55302" lon="2.03429">
        <ele>224.4</ele>
        <time>2022-03-08T14:41:51Z</time>
      </trkpt>
      <trkpt lat="43.55303" lon="2.03429">
        <ele>224.5</ele>
        <time>2022-03-08T14:41:52Z</time>
      </trkpt>
      <trkpt lat="43.55304" lon="2.03429">
        <ele>224.6</ele>
        <time>2022-03-08T14:41:53Z</time>
      </trkpt>
      <trkpt lat="43.55305" lon="2.03429">
        <ele>224.6</ele>
        <time>2022-03-08T14:41:54Z</time>
      </trkpt>
      <trkpt lat="43.55306" lon="2.0343">
        <ele>224.7</ele>
        <time>2022-03-08T14:41:55Z</time>
      </trkpt>
      <trkpt lat="43.55306" lon="2.0343">
        <ele>224.7</ele>
        <time>2022-03-08T14:41:57Z</time>
      </trkpt>
      <trkpt lat="43.55308" lon="2.0343">
        <ele>224.8</ele>
        <time>2022-03-08T14:41:58Z</time>
      </trkpt>
      <trkpt lat="43.55309" lon="2.0343">
        <ele>224.9</ele>
        <time>2022-03-08T14:41:59Z</time>
      </trkpt>
      <trkpt lat="43.5531" lon="2.0343">
        <ele>225</ele>
        <time>2022-03-08T14:42:00Z</time>
      </trkpt>
      <trkpt lat="43.55312" lon="2.0343">
        <ele>225.1</ele>
        <time>2022-03-08T14:42:01Z</time>
      </trkpt>
      <trkpt lat="43.55313" lon="2.0343">
        <ele>225.1</ele>
        <time>2022-03-08T14:42:02Z</time>
      </trkpt>
      <trkpt lat="43.55314" lon="2.03429">
        <ele>225.2</ele>
        <time>2022-03-08T14:42:03Z</time>
      </trkpt>
      <trkpt lat="43.55315" lon="2.03428">
        <ele>225.3</ele>
        <time>2022-03-08T14:42:04Z</time>
      </trkpt>
      <trkpt lat="43.55317" lon="2.03426">
        <ele>225.4</ele>
        <time>2022-03-08T14:42:05Z</time>
      </trkpt>
      <trkpt lat="43.55318" lon="2.03426">
        <ele>225.4</ele>
        <time>2022-03-08T14:42:06Z</time>
      </trkpt>
      <trkpt lat="43.55318" lon="2.03425">
        <ele>225.5</ele>
        <time>2022-03-08T14:42:07Z</time>
      </trkpt>
      <trkpt lat="43.55319" lon="2.03424">
        <ele>225.5</ele>
        <time>2022-03-08T14:42:09Z</time>
      </trkpt>
      <trkpt lat="43.5532" lon="2.03423">
        <ele>225.6</ele>
        <time>2022-03-08T14:42:10Z</time>
      </trkpt>
      <trkpt lat="43.55321" lon="2.03422">
        <ele>225.6</ele>
        <time>2022-03-08T14:42:11Z</time>
      </trkpt>
      <trkpt lat="43.55322" lon="2.0342">
        <ele>225.7</ele>
        <time>2022-03-08T14:42:12Z</time>
      </trkpt>
      <trkpt lat="43.55323" lon="2.03419">
        <ele>225.8</ele>
        <time>2022-03-08T14:42:13Z</time>
      </trkpt>
      <trkpt lat="43.55323" lon="2.03418">
        <ele>225.8</ele>
        <time>2022-03-08T14:42:14Z</time>
      </trkpt>
      <trkpt lat="43.55325" lon="2.03416">
        <ele>225.9</ele>
        <time>2022-03-08T14:42:15Z</time>
      </trkpt>
      <trkpt lat="43.55325" lon="2.03415">
        <ele>225.9</ele>
        <time>2022-03-08T14:42:17Z</time>
      </trkpt>
      <trkpt lat="43.55326" lon="2.03414">
        <ele>225.9</ele>
        <time>2022-03-08T14:42:18Z</time>
      </trkpt>
      <trkpt lat="43.55327" lon="2.03413">
        <ele>226</ele>
        <time>2022-03-08T14:42:19Z</time>
      </trkpt>
      <trkpt lat="43.55328" lon="2.03412">
        <ele>226</ele>
        <time>2022-03-08T14:42:20Z</time>
      </trkpt>
      <trkpt lat="43.5533" lon="2.03411">
        <ele>226.1</ele>
        <time>2022-03-08T14:42:22Z</time>
      </trkpt>
      <trkpt lat="43.55331" lon="2.03411">
        <ele>226.2</ele>
        <time>2022-03-08T14:42:23Z</time>
      </trkpt>
      <trkpt lat="43.55333" lon="2.0341">
        <ele>226.2</ele>
        <time>2022-03-08T14:42:24Z</time>
      </trkpt>
      <trkpt lat="43.55334" lon="2.0341">
        <ele>226.3</ele>
        <time>2022-03-08T14:42:25Z</time>
      </trkpt>
      <trkpt lat="43.55335" lon="2.03409">
        <ele>226.3</ele>
        <time>2022-03-08T14:42:26Z</time>
      </trkpt>
      <trkpt lat="43.55337" lon="2.03408">
        <ele>226.4</ele>
        <time>2022-03-08T14:42:27Z</time>
      </trkpt>
      <trkpt lat="43.55338" lon="2.03408">
        <ele>226.4</ele>
        <time>2022-03-08T14:42:28Z</time>
      </trkpt>
      <trkpt lat="43.55338" lon="2.03407">
        <ele>226.4</ele>
        <time>2022-03-08T14:42:29Z</time>
      </trkpt>
      <trkpt lat="43.5534" lon="2.03406">
        <ele>226.5</ele>
        <time>2022-03-08T14:42:30Z</time>
      </trkpt>
      <trkpt lat="43.55341" lon="2.03404">
        <ele>226.5</ele>
        <time>2022-03-08T14:42:32Z</time>
      </trkpt>
      <trkpt lat="43.55342" lon="2.03403">
        <ele>226.6</ele>
        <time>2022-03-08T14:42:33Z</time>
      </trkpt>
      <trkpt lat="43.55344" lon="2.03401">
        <ele>226.6</ele>
        <time>2022-03-08T14:42:34Z</time>
      </trkpt>
      <trkpt lat="43.55346" lon="2.034">
        <ele>226.7</ele>
        <time>2022-03-08T14:42:35Z</time>
      </trkpt>
      <trkpt lat="43.55347" lon="2.03399">
        <ele>226.7</ele>
        <time>2022-03-08T14:42:36Z</time>
      </trkpt>
      <trkpt lat="43.55348" lon="2.03398">
        <ele>226.8</ele>
        <time>2022-03-08T14:42:37Z</time>
      </trkpt>
      <trkpt lat="43.5535" lon="2.03395">
        <ele>226.8</ele>
        <time>2022-03-08T14:42:39Z</time>
      </trkpt>
      <trkpt lat="43.55351" lon="2.03394">
        <ele>226.9</ele>
        <time>2022-03-08T14:42:40Z</time>
      </trkpt>
      <trkpt lat="43.55352" lon="2.03393">
        <ele>226.9</ele>
        <time>2022-03-08T14:42:41Z</time>
      </trkpt>
      <trkpt lat="43.55353" lon="2.03393">
        <ele>227</ele>
        <time>2022-03-08T14:42:42Z</time>
      </trkpt>
      <trkpt lat="43.55354" lon="2.03392">
        <ele>227</ele>
        <time>2022-03-08T14:42:43Z</time>
      </trkpt>
      <trkpt lat="43.55355" lon="2.03391">
        <ele>227.1</ele>
        <time>2022-03-08T14:42:45Z</time>
      </trkpt>
      <trkpt lat="43.55357" lon="2.0339">
        <ele>227.1</ele>
        <time>2022-03-08T14:42:46Z</time>
      </trkpt>
      <trkpt lat="43.55358" lon="2.0339">
        <ele>227.1</ele>
        <time>2022-03-08T14:42:47Z</time>
      </trkpt>
      <trkpt lat="43.55358" lon="2.03389">
        <ele>227.2</ele>
        <time>2022-03-08T14:42:48Z</time>
      </trkpt>
      <trkpt lat="43.5536" lon="2.03388">
        <ele>227.2</ele>
        <time>2022-03-08T14:42:50Z</time>
      </trkpt>
      <trkpt lat="43.5536" lon="2.03386">
        <ele>227.2</ele>
        <time>2022-03-08T14:42:51Z</time>
      </trkpt>
      <trkpt lat="43.55361" lon="2.03384">
        <ele>227.3</ele>
        <time>2022-03-08T14:42:52Z</time>
      </trkpt>
      <trkpt lat="43.55361" lon="2.03383">
        <ele>227.3</ele>
        <time>2022-03-08T14:42:53Z</time>
      </trkpt>
      <trkpt lat="43.55362" lon="2.03382">
        <ele>227.3</ele>
        <time>2022-03-08T14:42:54Z</time>
      </trkpt>
      <trkpt lat="43.55363" lon="2.0338">
        <ele>227.4</ele>
        <time>2022-03-08T14:42:55Z</time>
      </trkpt>
      <trkpt lat="43.55364" lon="2.03378">
        <ele>227.4</ele>
        <time>2022-03-08T14:42:56Z</time>
      </trkpt>
      <trkpt lat="43.55364" lon="2.03377">
        <ele>227.4</ele>
        <time>2022-03-08T14:42:57Z</time>
      </trkpt>
      <trkpt lat="43.55365" lon="2.03376">
        <ele>227.5</ele>
        <time>2022-03-08T14:42:58Z</time>
      </trkpt>
      <trkpt lat="43.55365" lon="2.03376">
        <ele>227.5</ele>
        <time>2022-03-08T14:42:59Z</time>
      </trkpt>
      <trkpt lat="43.55366" lon="2.03376">
        <ele>227.5</ele>
        <time>2022-03-08T14:43:00Z</time>
      </trkpt>
      <trkpt lat="43.55367" lon="2.03376">
        <ele>227.5</ele>
        <time>2022-03-08T14:43:01Z</time>
      </trkpt>
      <trkpt lat="43.55368" lon="2.03375">
        <ele>227.5</ele>
        <time>2022-03-08T14:43:02Z</time>
      </trkpt>
      <trkpt lat="43.55369" lon="2.03375">
        <ele>227.5</ele>
        <time>2022-03-08T14:43:03Z</time>
      </trkpt>
      <trkpt lat="43.5537" lon="2.03374">
        <ele>227.6</ele>
        <time>2022-03-08T14:43:04Z</time>
      </trkpt>
      <trkpt lat="43.55371" lon="2.03373">
        <ele>227.6</ele>
        <time>2022-03-08T14:43:05Z</time>
      </trkpt>
      <trkpt lat="43.55373" lon="2.03371">
        <ele>227.6</ele>
        <time>2022-03-08T14:43:06Z</time>
      </trkpt>
      <trkpt lat="43.55373" lon="2.03371">
        <ele>227.6</ele>
        <time>2022-03-08T14:43:08Z</time>
      </trkpt>
      <trkpt lat="43.55374" lon="2.0337">
        <ele>227.7</ele>
        <time>2022-03-08T14:43:09Z</time>
      </trkpt>
      <trkpt lat="43.55375" lon="2.03369">
        <ele>227.7</ele>
        <time>2022-03-08T14:43:10Z</time>
      </trkpt>
      <trkpt lat="43.55376" lon="2.03368">
        <ele>227.7</ele>
        <time>2022-03-08T14:43:11Z</time>
      </trkpt>
      <trkpt lat="43.55378" lon="2.03366">
        <ele>227.7</ele>
        <time>2022-03-08T14:43:12Z</time>
      </trkpt>
      <trkpt lat="43.55379" lon="2.03366">
        <ele>227.7</ele>
        <time>2022-03-08T14:43:13Z</time>
      </trkpt>
      <trkpt lat="43.5538" lon="2.03365">
        <ele>227.7</ele>
        <time>2022-03-08T14:43:14Z</time>
      </trkpt>
      <trkpt lat="43.55381" lon="2.03364">
        <ele>227.8</ele>
        <time>2022-03-08T14:43:15Z</time>
      </trkpt>
      <trkpt lat="43.55382" lon="2.03364">
        <ele>227.8</ele>
        <time>2022-03-08T14:43:16Z</time>
      </trkpt>
      <trkpt lat="43.55384" lon="2.03363">
        <ele>227.8</ele>
        <time>2022-03-08T14:43:17Z</time>
      </trkpt>
      <trkpt lat="43.55385" lon="2.03362">
        <ele>227.8</ele>
        <time>2022-03-08T14:43:19Z</time>
      </trkpt>
      <trkpt lat="43.55386" lon="2.03362">
        <ele>227.8</ele>
        <time>2022-03-08T14:43:20Z</time>
      </trkpt>
      <trkpt lat="43.55388" lon="2.0336">
        <ele>227.9</ele>
        <time>2022-03-08T14:43:21Z</time>
      </trkpt>
      <trkpt lat="43.55389" lon="2.03359">
        <ele>227.9</ele>
        <time>2022-03-08T14:43:22Z</time>
      </trkpt>
      <trkpt lat="43.55389" lon="2.03358">
        <ele>227.9</ele>
        <time>2022-03-08T14:43:23Z</time>
      </trkpt>
      <trkpt lat="43.5539" lon="2.03357">
        <ele>227.9</ele>
        <time>2022-03-08T14:43:24Z</time>
      </trkpt>
      <trkpt lat="43.55391" lon="2.03356">
        <ele>227.9</ele>
        <time>2022-03-08T14:43:25Z</time>
      </trkpt>
      <trkpt lat="43.55391" lon="2.03355">
        <ele>227.9</ele>
        <time>2022-03-08T14:43:26Z</time>
      </trkpt>
      <trkpt lat="43.55392" lon="2.03354">
        <ele>227.9</ele>
        <time>2022-03-08T14:43:27Z</time>
      </trkpt>
      <trkpt lat="43.55393" lon="2.03353">
        <ele>228</ele>
        <time>2022-03-08T14:43:28Z</time>
      </trkpt>
      <trkpt lat="43.55394" lon="2.03352">
        <ele>228</ele>
        <time>2022-03-08T14:43:29Z</time>
      </trkpt>
      <trkpt lat="43.55396" lon="2.03352">
        <ele>228</ele>
        <time>2022-03-08T14:43:31Z</time>
      </trkpt>
      <trkpt lat="43.55397" lon="2.03351">
        <ele>228</ele>
        <time>2022-03-08T14:43:32Z</time>
      </trkpt>
      <trkpt lat="43.55398" lon="2.03351">
        <ele>228</ele>
        <time>2022-03-08T14:43:33Z</time>
      </trkpt>
      <trkpt lat="43.55399" lon="2.0335">
        <ele>228</ele>
        <time>2022-03-08T14:43:35Z</time>
      </trkpt>
      <trkpt lat="43.554" lon="2.0335">
        <ele>228</ele>
        <time>2022-03-08T14:43:36Z</time>
      </trkpt>
      <trkpt lat="43.55401" lon="2.03349">
        <ele>228</ele>
        <time>2022-03-08T14:43:37Z</time>
      </trkpt>
      <trkpt lat="43.55401" lon="2.03348">
        <ele>228</ele>
        <time>2022-03-08T14:43:38Z</time>
      </trkpt>
      <trkpt lat="43.55402" lon="2.03345">
        <ele>228</ele>
        <time>2022-03-08T14:43:39Z</time>
      </trkpt>
      <trkpt lat="43.55403" lon="2.03344">
        <ele>228.1</ele>
        <time>2022-03-08T14:43:40Z</time>
      </trkpt>
      <trkpt lat="43.55403" lon="2.03343">
        <ele>228.1</ele>
        <time>2022-03-08T14:43:41Z</time>
      </trkpt>
      <trkpt lat="43.55404" lon="2.03341">
        <ele>228.1</ele>
        <time>2022-03-08T14:43:42Z</time>
      </trkpt>
      <trkpt lat="43.55404" lon="2.0334">
        <ele>228.1</ele>
        <time>2022-03-08T14:43:43Z</time>
      </trkpt>
      <trkpt lat="43.55405" lon="2.03338">
        <ele>228.1</ele>
        <time>2022-03-08T14:43:44Z</time>
      </trkpt>
      <trkpt lat="43.55406" lon="2.03337">
        <ele>228.1</ele>
        <time>2022-03-08T14:43:45Z</time>
      </trkpt>
      <trkpt lat="43.55408" lon="2.03335">
        <ele>228.1</ele>
        <time>2022-03-08T14:43:47Z</time>
      </trkpt>
      <trkpt lat="43.5541" lon="2.03334">
        <ele>228.2</ele>
        <time>2022-03-08T14:43:48Z</time>
      </trkpt>
      <trkpt lat="43.5541" lon="2.03334">
        <ele>228.2</ele>
        <time>2022-03-08T14:43:49Z</time>
      </trkpt>
      <trkpt lat="43.55411" lon="2.03334">
        <ele>228.2</ele>
        <time>2022-03-08T14:43:50Z</time>
      </trkpt>
      <trkpt lat="43.55414" lon="2.03333">
        <ele>228.2</ele>
        <time>2022-03-08T14:43:51Z</time>
      </trkpt>
      <trkpt lat="43.55415" lon="2.03332">
        <ele>228.2</ele>
        <time>2022-03-08T14:43:53Z</time>
      </trkpt>
      <trkpt lat="43.55416" lon="2.03332">
        <ele>228.2</ele>
        <time>2022-03-08T14:43:54Z</time>
      </trkpt>
      <trkpt lat="43.55417" lon="2.03331">
        <ele>228.3</ele>
        <time>2022-03-08T14:43:55Z</time>
      </trkpt>
      <trkpt lat="43.55418" lon="2.03331">
        <ele>228.3</ele>
        <time>2022-03-08T14:43:56Z</time>
      </trkpt>
      <trkpt lat="43.5542" lon="2.03329">
        <ele>228.3</ele>
        <time>2022-03-08T14:43:57Z</time>
      </trkpt>
      <trkpt lat="43.55421" lon="2.03328">
        <ele>228.3</ele>
        <time>2022-03-08T14:43:58Z</time>
      </trkpt>
      <trkpt lat="43.55421" lon="2.03328">
        <ele>228.4</ele>
        <time>2022-03-08T14:43:59Z</time>
      </trkpt>
      <trkpt lat="43.55422" lon="2.03327">
        <ele>228.4</ele>
        <time>2022-03-08T14:44:00Z</time>
      </trkpt>
      <trkpt lat="43.55423" lon="2.03326">
        <ele>228.4</ele>
        <time>2022-03-08T14:44:01Z</time>
      </trkpt>
      <trkpt lat="43.55424" lon="2.03325">
        <ele>228.4</ele>
        <time>2022-03-08T14:44:02Z</time>
      </trkpt>
      <trkpt lat="43.55426" lon="2.03324">
        <ele>228.4</ele>
        <time>2022-03-08T14:44:03Z</time>
      </trkpt>
      <trkpt lat="43.55427" lon="2.03323">
        <ele>228.5</ele>
        <time>2022-03-08T14:44:04Z</time>
      </trkpt>
      <trkpt lat="43.55428" lon="2.03323">
        <ele>228.5</ele>
        <time>2022-03-08T14:44:05Z</time>
      </trkpt>
      <trkpt lat="43.5543" lon="2.03322">
        <ele>228.5</ele>
        <time>2022-03-08T14:44:07Z</time>
      </trkpt>
      <trkpt lat="43.55431" lon="2.03322">
        <ele>228.5</ele>
        <time>2022-03-08T14:44:08Z</time>
      </trkpt>
      <trkpt lat="43.55431" lon="2.03321">
        <ele>228.5</ele>
        <time>2022-03-08T14:44:09Z</time>
      </trkpt>
      <trkpt lat="43.55433" lon="2.0332">
        <ele>228.6</ele>
        <time>2022-03-08T14:44:10Z</time>
      </trkpt>
      <trkpt lat="43.55434" lon="2.03319">
        <ele>228.6</ele>
        <time>2022-03-08T14:44:11Z</time>
      </trkpt>
      <trkpt lat="43.55435" lon="2.03318">
        <ele>228.6</ele>
        <time>2022-03-08T14:44:12Z</time>
      </trkpt>
      <trkpt lat="43.55436" lon="2.03316">
        <ele>228.7</ele>
        <time>2022-03-08T14:44:14Z</time>
      </trkpt>
      <trkpt lat="43.55437" lon="2.03315">
        <ele>228.7</ele>
        <time>2022-03-08T14:44:15Z</time>
      </trkpt>
      <trkpt lat="43.55438" lon="2.03312">
        <ele>228.7</ele>
        <time>2022-03-08T14:44:17Z</time>
      </trkpt>
      <trkpt lat="43.55441" lon="2.03308">
        <ele>228.8</ele>
        <time>2022-03-08T14:44:19Z</time>
      </trkpt>
      <trkpt lat="43.55442" lon="2.03307">
        <ele>228.9</ele>
        <time>2022-03-08T14:44:20Z</time>
      </trkpt>
      <trkpt lat="43.55443" lon="2.03306">
        <ele>228.9</ele>
        <time>2022-03-08T14:44:21Z</time>
      </trkpt>
      <trkpt lat="43.55444" lon="2.03306">
        <ele>228.9</ele>
        <time>2022-03-08T14:44:22Z</time>
      </trkpt>
      <trkpt lat="43.55445" lon="2.03305">
        <ele>229</ele>
        <time>2022-03-08T14:44:23Z</time>
      </trkpt>
      <trkpt lat="43.55447" lon="2.03304">
        <ele>229</ele>
        <time>2022-03-08T14:44:25Z</time>
      </trkpt>
      <trkpt lat="43.55448" lon="2.03303">
        <ele>229.1</ele>
        <time>2022-03-08T14:44:26Z</time>
      </trkpt>
      <trkpt lat="43.55449" lon="2.03302">
        <ele>229.1</ele>
        <time>2022-03-08T14:44:27Z</time>
      </trkpt>
      <trkpt lat="43.5545" lon="2.03301">
        <ele>229.1</ele>
        <time>2022-03-08T14:44:28Z</time>
      </trkpt>
      <trkpt lat="43.55452" lon="2.03298">
        <ele>229.2</ele>
        <time>2022-03-08T14:44:29Z</time>
      </trkpt>
      <trkpt lat="43.55452" lon="2.03297">
        <ele>229.3</ele>
        <time>2022-03-08T14:44:30Z</time>
      </trkpt>
      <trkpt lat="43.55453" lon="2.03297">
        <ele>229.3</ele>
        <time>2022-03-08T14:44:31Z</time>
      </trkpt>
      <trkpt lat="43.55453" lon="2.03296">
        <ele>229.3</ele>
        <time>2022-03-08T14:44:32Z</time>
      </trkpt>
      <trkpt lat="43.55454" lon="2.03295">
        <ele>229.4</ele>
        <time>2022-03-08T14:44:33Z</time>
      </trkpt>
      <trkpt lat="43.55455" lon="2.03294">
        <ele>229.4</ele>
        <time>2022-03-08T14:44:34Z</time>
      </trkpt>
      <trkpt lat="43.55457" lon="2.03293">
        <ele>229.5</ele>
        <time>2022-03-08T14:44:35Z</time>
      </trkpt>
      <trkpt lat="43.55458" lon="2.03291">
        <ele>229.5</ele>
        <time>2022-03-08T14:44:36Z</time>
      </trkpt>
      <trkpt lat="43.5546" lon="2.0329">
        <ele>229.6</ele>
        <time>2022-03-08T14:44:37Z</time>
      </trkpt>
      <trkpt lat="43.55461" lon="2.03289">
        <ele>229.6</ele>
        <time>2022-03-08T14:44:39Z</time>
      </trkpt>
      <trkpt lat="43.55461" lon="2.03288">
        <ele>229.7</ele>
        <time>2022-03-08T14:44:40Z</time>
      </trkpt>
      <trkpt lat="43.55462" lon="2.03287">
        <ele>229.7</ele>
        <time>2022-03-08T14:44:41Z</time>
      </trkpt>
      <trkpt lat="43.55463" lon="2.03285">
        <ele>229.8</ele>
        <time>2022-03-08T14:44:42Z</time>
      </trkpt>
      <trkpt lat="43.55464" lon="2.03284">
        <ele>229.8</ele>
        <time>2022-03-08T14:44:43Z</time>
      </trkpt>
      <trkpt lat="43.55466" lon="2.03283">
        <ele>229.9</ele>
        <time>2022-03-08T14:44:45Z</time>
      </trkpt>
      <trkpt lat="43.55467" lon="2.03282">
        <ele>229.9</ele>
        <time>2022-03-08T14:44:46Z</time>
      </trkpt>
      <trkpt lat="43.55469" lon="2.03281">
        <ele>230</ele>
        <time>2022-03-08T14:44:47Z</time>
      </trkpt>
      <trkpt lat="43.5547" lon="2.0328">
        <ele>230</ele>
        <time>2022-03-08T14:44:48Z</time>
      </trkpt>
      <trkpt lat="43.55471" lon="2.03279">
        <ele>230.1</ele>
        <time>2022-03-08T14:44:49Z</time>
      </trkpt>
      <trkpt lat="43.55472" lon="2.03278">
        <ele>230.1</ele>
        <time>2022-03-08T14:44:51Z</time>
      </trkpt>
      <trkpt lat="43.55473" lon="2.03276">
        <ele>230.2</ele>
        <time>2022-03-08T14:44:52Z</time>
      </trkpt>
      <trkpt lat="43.55474" lon="2.03275">
        <ele>230.2</ele>
        <time>2022-03-08T14:44:53Z</time>
      </trkpt>
      <trkpt lat="43.55475" lon="2.03274">
        <ele>230.3</ele>
        <time>2022-03-08T14:44:54Z</time>
      </trkpt>
      <trkpt lat="43.55476" lon="2.03273">
        <ele>230.3</ele>
        <time>2022-03-08T14:44:56Z</time>
      </trkpt>
      <trkpt lat="43.55478" lon="2.03271">
        <ele>230.4</ele>
        <time>2022-03-08T14:44:57Z</time>
      </trkpt>
      <trkpt lat="43.55479" lon="2.0327">
        <ele>230.4</ele>
        <time>2022-03-08T14:44:58Z</time>
      </trkpt>
      <trkpt lat="43.55479" lon="2.0327">
        <ele>230.4</ele>
        <time>2022-03-08T14:44:59Z</time>
      </trkpt>
      <trkpt lat="43.55481" lon="2.03267">
        <ele>230.5</ele>
        <time>2022-03-08T14:45:00Z</time>
      </trkpt>
      <trkpt lat="43.55481" lon="2.03267">
        <ele>230.5</ele>
        <time>2022-03-08T14:45:02Z</time>
      </trkpt>
      <trkpt lat="43.55482" lon="2.03266">
        <ele>230.5</ele>
        <time>2022-03-08T14:45:03Z</time>
      </trkpt>
      <trkpt lat="43.55483" lon="2.03263">
        <ele>230.6</ele>
        <time>2022-03-08T14:45:04Z</time>
      </trkpt>
      <trkpt lat="43.55484" lon="2.03262">
        <ele>230.6</ele>
        <time>2022-03-08T14:45:05Z</time>
      </trkpt>
      <trkpt lat="43.55485" lon="2.03261">
        <ele>230.6</ele>
        <time>2022-03-08T14:45:06Z</time>
      </trkpt>
      <trkpt lat="43.55486" lon="2.0326">
        <ele>230.7</ele>
        <time>2022-03-08T14:45:08Z</time>
      </trkpt>
      <trkpt lat="43.55487" lon="2.03259">
        <ele>230.7</ele>
        <time>2022-03-08T14:45:09Z</time>
      </trkpt>
      <trkpt lat="43.55488" lon="2.03258">
        <ele>230.7</ele>
        <time>2022-03-08T14:45:10Z</time>
      </trkpt>
      <trkpt lat="43.55489" lon="2.03258">
        <ele>230.8</ele>
        <time>2022-03-08T14:45:11Z</time>
      </trkpt>
      <trkpt lat="43.55491" lon="2.03258">
        <ele>230.8</ele>
        <time>2022-03-08T14:45:12Z</time>
      </trkpt>
      <trkpt lat="43.55492" lon="2.03258">
        <ele>230.9</ele>
        <time>2022-03-08T14:45:13Z</time>
      </trkpt>
      <trkpt lat="43.55493" lon="2.03258">
        <ele>230.9</ele>
        <time>2022-03-08T14:45:14Z</time>
      </trkpt>
      <trkpt lat="43.55494" lon="2.03257">
        <ele>230.9</ele>
        <time>2022-03-08T14:45:15Z</time>
      </trkpt>
      <trkpt lat="43.55496" lon="2.03256">
        <ele>231</ele>
        <time>2022-03-08T14:45:17Z</time>
      </trkpt>
      <trkpt lat="43.55496" lon="2.03256">
        <ele>231</ele>
        <time>2022-03-08T14:45:18Z</time>
      </trkpt>
      <trkpt lat="43.55495" lon="2.03256">
        <ele>231</ele>
        <time>2022-03-08T14:45:19Z</time>
      </trkpt>
      <trkpt lat="43.55496" lon="2.03255">
        <ele>231</ele>
        <time>2022-03-08T14:45:20Z</time>
      </trkpt>
      <trkpt lat="43.55497" lon="2.03254">
        <ele>231.1</ele>
        <time>2022-03-08T14:45:21Z</time>
      </trkpt>
      <trkpt lat="43.55499" lon="2.03254">
        <ele>231.2</ele>
        <time>2022-03-08T14:45:23Z</time>
      </trkpt>
      <trkpt lat="43.55501" lon="2.03253">
        <ele>231.2</ele>
        <time>2022-03-08T14:45:25Z</time>
      </trkpt>
      <trkpt lat="43.55503" lon="2.03253">
        <ele>231.3</ele>
        <time>2022-03-08T14:45:27Z</time>
      </trkpt>
      <trkpt lat="43.55504" lon="2.03253">
        <ele>231.3</ele>
        <time>2022-03-08T14:45:28Z</time>
      </trkpt>
      <trkpt lat="43.55506" lon="2.03253">
        <ele>231.4</ele>
        <time>2022-03-08T14:45:29Z</time>
      </trkpt>
      <trkpt lat="43.55507" lon="2.03252">
        <ele>231.4</ele>
        <time>2022-03-08T14:45:30Z</time>
      </trkpt>
      <trkpt lat="43.55509" lon="2.0325">
        <ele>231.5</ele>
        <time>2022-03-08T14:45:31Z</time>
      </trkpt>
      <trkpt lat="43.55509" lon="2.03248">
        <ele>231.6</ele>
        <time>2022-03-08T14:45:32Z</time>
      </trkpt>
      <trkpt lat="43.5551" lon="2.03245">
        <ele>231.7</ele>
        <time>2022-03-08T14:45:33Z</time>
      </trkpt>
      <trkpt lat="43.5551" lon="2.03244">
        <ele>231.7</ele>
        <time>2022-03-08T14:45:34Z</time>
      </trkpt>
      <trkpt lat="43.5551" lon="2.03243">
        <ele>231.7</ele>
        <time>2022-03-08T14:45:35Z</time>
      </trkpt>
      <trkpt lat="43.55511" lon="2.03241">
        <ele>231.8</ele>
        <time>2022-03-08T14:45:36Z</time>
      </trkpt>
      <trkpt lat="43.55511" lon="2.0324">
        <ele>231.8</ele>
        <time>2022-03-08T14:45:37Z</time>
      </trkpt>
      <trkpt lat="43.55513" lon="2.03239">
        <ele>231.9</ele>
        <time>2022-03-08T14:45:39Z</time>
      </trkpt>
      <trkpt lat="43.55515" lon="2.03238">
        <ele>232</ele>
        <time>2022-03-08T14:45:40Z</time>
      </trkpt>
      <trkpt lat="43.55516" lon="2.03237">
        <ele>232.1</ele>
        <time>2022-03-08T14:45:41Z</time>
      </trkpt>
      <trkpt lat="43.55517" lon="2.03237">
        <ele>232.1</ele>
        <time>2022-03-08T14:45:42Z</time>
      </trkpt>
      <trkpt lat="43.55519" lon="2.03236">
        <ele>232.2</ele>
        <time>2022-03-08T14:45:43Z</time>
      </trkpt>
      <trkpt lat="43.55522" lon="2.03235">
        <ele>232.4</ele>
        <time>2022-03-08T14:45:44Z</time>
      </trkpt>
      <trkpt lat="43.55523" lon="2.03235">
        <ele>232.4</ele>
        <time>2022-03-08T14:45:45Z</time>
      </trkpt>
      <trkpt lat="43.55525" lon="2.03234">
        <ele>232.5</ele>
        <time>2022-03-08T14:45:46Z</time>
      </trkpt>
      <trkpt lat="43.55527" lon="2.03233">
        <ele>232.6</ele>
        <time>2022-03-08T14:45:48Z</time>
      </trkpt>
      <trkpt lat="43.55529" lon="2.03231">
        <ele>232.8</ele>
        <time>2022-03-08T14:45:49Z</time>
      </trkpt>
      <trkpt lat="43.55529" lon="2.0323">
        <ele>232.8</ele>
        <time>2022-03-08T14:45:50Z</time>
      </trkpt>
      <trkpt lat="43.55531" lon="2.03229">
        <ele>232.9</ele>
        <time>2022-03-08T14:45:51Z</time>
      </trkpt>
      <trkpt lat="43.55532" lon="2.03227">
        <ele>233</ele>
        <time>2022-03-08T14:45:53Z</time>
      </trkpt>
      <trkpt lat="43.55533" lon="2.03225">
        <ele>233.1</ele>
        <time>2022-03-08T14:45:54Z</time>
      </trkpt>
      <trkpt lat="43.55534" lon="2.03223">
        <ele>233.2</ele>
        <time>2022-03-08T14:45:55Z</time>
      </trkpt>
      <trkpt lat="43.55535" lon="2.03221">
        <ele>233.3</ele>
        <time>2022-03-08T14:45:56Z</time>
      </trkpt>
      <trkpt lat="43.55536" lon="2.03219">
        <ele>233.4</ele>
        <time>2022-03-08T14:45:57Z</time>
      </trkpt>
      <trkpt lat="43.55537" lon="2.03215">
        <ele>233.5</ele>
        <time>2022-03-08T14:45:58Z</time>
      </trkpt>
      <trkpt lat="43.55537" lon="2.03214">
        <ele>233.6</ele>
        <time>2022-03-08T14:45:59Z</time>
      </trkpt>
      <trkpt lat="43.55537" lon="2.03211">
        <ele>233.7</ele>
        <time>2022-03-08T14:46:00Z</time>
      </trkpt>
      <trkpt lat="43.55538" lon="2.03209">
        <ele>233.8</ele>
        <time>2022-03-08T14:46:01Z</time>
      </trkpt>
      <trkpt lat="43.55538" lon="2.03207">
        <ele>233.9</ele>
        <time>2022-03-08T14:46:02Z</time>
      </trkpt>
      <trkpt lat="43.55538" lon="2.03205">
        <ele>234</ele>
        <time>2022-03-08T14:46:03Z</time>
      </trkpt>
      <trkpt lat="43.55539" lon="2.03202">
        <ele>234.1</ele>
        <time>2022-03-08T14:46:04Z</time>
      </trkpt>
      <trkpt lat="43.5554" lon="2.03201">
        <ele>234.2</ele>
        <time>2022-03-08T14:46:05Z</time>
      </trkpt>
      <trkpt lat="43.55541" lon="2.03199">
        <ele>234.2</ele>
        <time>2022-03-08T14:46:06Z</time>
      </trkpt>
      <trkpt lat="43.55541" lon="2.03197">
        <ele>234.3</ele>
        <time>2022-03-08T14:46:07Z</time>
      </trkpt>
      <trkpt lat="43.55541" lon="2.03196">
        <ele>234.4</ele>
        <time>2022-03-08T14:46:09Z</time>
      </trkpt>
      <trkpt lat="43.55542" lon="2.03194">
        <ele>234.5</ele>
        <time>2022-03-08T14:46:10Z</time>
      </trkpt>
      <trkpt lat="43.55542" lon="2.03192">
        <ele>234.6</ele>
        <time>2022-03-08T14:46:11Z</time>
      </trkpt>
      <trkpt lat="43.55542" lon="2.0319">
        <ele>234.6</ele>
        <time>2022-03-08T14:46:12Z</time>
      </trkpt>
      <trkpt lat="43.55542" lon="2.03188">
        <ele>234.7</ele>
        <time>2022-03-08T14:46:13Z</time>
      </trkpt>
      <trkpt lat="43.55542" lon="2.03187">
        <ele>234.8</ele>
        <time>2022-03-08T14:46:15Z</time>
      </trkpt>
      <trkpt lat="43.55542" lon="2.03184">
        <ele>234.9</ele>
        <time>2022-03-08T14:46:16Z</time>
      </trkpt>
      <trkpt lat="43.55542" lon="2.03183">
        <ele>235</ele>
        <time>2022-03-08T14:46:17Z</time>
      </trkpt>
      <trkpt lat="43.55542" lon="2.03181">
        <ele>235</ele>
        <time>2022-03-08T14:46:18Z</time>
      </trkpt>
      <trkpt lat="43.55542" lon="2.0318">
        <ele>235.1</ele>
        <time>2022-03-08T14:46:19Z</time>
      </trkpt>
      <trkpt lat="43.55542" lon="2.03178">
        <ele>235.2</ele>
        <time>2022-03-08T14:46:20Z</time>
      </trkpt>
      <trkpt lat="43.55541" lon="2.03177">
        <ele>235.2</ele>
        <time>2022-03-08T14:46:21Z</time>
      </trkpt>
      <trkpt lat="43.55542" lon="2.03175">
        <ele>235.3</ele>
        <time>2022-03-08T14:46:22Z</time>
      </trkpt>
      <trkpt lat="43.55542" lon="2.03174">
        <ele>235.4</ele>
        <time>2022-03-08T14:46:23Z</time>
      </trkpt>
      <trkpt lat="43.55542" lon="2.03172">
        <ele>235.5</ele>
        <time>2022-03-08T14:46:24Z</time>
      </trkpt>
      <trkpt lat="43.55543" lon="2.03171">
        <ele>235.5</ele>
        <time>2022-03-08T14:46:26Z</time>
      </trkpt>
      <trkpt lat="43.55544" lon="2.0317">
        <ele>235.6</ele>
        <time>2022-03-08T14:46:27Z</time>
      </trkpt>
      <trkpt lat="43.55546" lon="2.03169">
        <ele>235.8</ele>
        <time>2022-03-08T14:46:28Z</time>
      </trkpt>
      <trkpt lat="43.55547" lon="2.03168">
        <ele>235.9</ele>
        <time>2022-03-08T14:46:29Z</time>
      </trkpt>
      <trkpt lat="43.55549" lon="2.03169">
        <ele>236.1</ele>
        <time>2022-03-08T14:46:30Z</time>
      </trkpt>
      <trkpt lat="43.5555" lon="2.03169">
        <ele>236.1</ele>
        <time>2022-03-08T14:46:31Z</time>
      </trkpt>
      <trkpt lat="43.55552" lon="2.03168">
        <ele>236.3</ele>
        <time>2022-03-08T14:46:32Z</time>
      </trkpt>
      <trkpt lat="43.55553" lon="2.03167">
        <ele>236.4</ele>
        <time>2022-03-08T14:46:33Z</time>
      </trkpt>
      <trkpt lat="43.55554" lon="2.03166">
        <ele>236.5</ele>
        <time>2022-03-08T14:46:34Z</time>
      </trkpt>
      <trkpt lat="43.55555" lon="2.03164">
        <ele>236.6</ele>
        <time>2022-03-08T14:46:36Z</time>
      </trkpt>
      <trkpt lat="43.55556" lon="2.03164">
        <ele>236.7</ele>
        <time>2022-03-08T14:46:37Z</time>
      </trkpt>
      <trkpt lat="43.55557" lon="2.03163">
        <ele>236.7</ele>
        <time>2022-03-08T14:46:38Z</time>
      </trkpt>
      <trkpt lat="43.55558" lon="2.03162">
        <ele>236.8</ele>
        <time>2022-03-08T14:46:39Z</time>
      </trkpt>
      <trkpt lat="43.55559" lon="2.03161">
        <ele>236.9</ele>
        <time>2022-03-08T14:46:40Z</time>
      </trkpt>
      <trkpt lat="43.5556" lon="2.0316">
        <ele>237</ele>
        <time>2022-03-08T14:46:41Z</time>
      </trkpt>
      <trkpt lat="43.55561" lon="2.0316">
        <ele>237.1</ele>
        <time>2022-03-08T14:46:42Z</time>
      </trkpt>
      <trkpt lat="43.55561" lon="2.03159">
        <ele>237.1</ele>
        <time>2022-03-08T14:46:43Z</time>
      </trkpt>
      <trkpt lat="43.55562" lon="2.03159">
        <ele>237.2</ele>
        <time>2022-03-08T14:46:44Z</time>
      </trkpt>
      <trkpt lat="43.55564" lon="2.03157">
        <ele>237.3</ele>
        <time>2022-03-08T14:46:45Z</time>
      </trkpt>
      <trkpt lat="43.55565" lon="2.03156">
        <ele>237.5</ele>
        <time>2022-03-08T14:46:47Z</time>
      </trkpt>
      <trkpt lat="43.55566" lon="2.03155">
        <ele>237.5</ele>
        <time>2022-03-08T14:46:48Z</time>
      </trkpt>
      <trkpt lat="43.55567" lon="2.03154">
        <ele>237.6</ele>
        <time>2022-03-08T14:46:49Z</time>
      </trkpt>
      <trkpt lat="43.55567" lon="2.03153">
        <ele>237.7</ele>
        <time>2022-03-08T14:46:50Z</time>
      </trkpt>
      <trkpt lat="43.55567" lon="2.03151">
        <ele>237.8</ele>
        <time>2022-03-08T14:46:51Z</time>
      </trkpt>
      <trkpt lat="43.55568" lon="2.03149">
        <ele>237.9</ele>
        <time>2022-03-08T14:46:52Z</time>
      </trkpt>
      <trkpt lat="43.55569" lon="2.03146">
        <ele>238</ele>
        <time>2022-03-08T14:46:54Z</time>
      </trkpt>
      <trkpt lat="43.55569" lon="2.03145">
        <ele>238.1</ele>
        <time>2022-03-08T14:46:55Z</time>
      </trkpt>
      <trkpt lat="43.55569" lon="2.03144">
        <ele>238.2</ele>
        <time>2022-03-08T14:46:56Z</time>
      </trkpt>
      <trkpt lat="43.55569" lon="2.03142">
        <ele>238.3</ele>
        <time>2022-03-08T14:46:57Z</time>
      </trkpt>
      <trkpt lat="43.55569" lon="2.03139">
        <ele>238.4</ele>
        <time>2022-03-08T14:46:58Z</time>
      </trkpt>
      <trkpt lat="43.55569" lon="2.03136">
        <ele>238.6</ele>
        <time>2022-03-08T14:46:59Z</time>
      </trkpt>
      <trkpt lat="43.55569" lon="2.03135">
        <ele>238.6</ele>
        <time>2022-03-08T14:47:00Z</time>
      </trkpt>
      <trkpt lat="43.55569" lon="2.03134">
        <ele>238.7</ele>
        <time>2022-03-08T14:47:01Z</time>
      </trkpt>
      <trkpt lat="43.55569" lon="2.03133">
        <ele>238.8</ele>
        <time>2022-03-08T14:47:02Z</time>
      </trkpt>
      <trkpt lat="43.55569" lon="2.03131">
        <ele>238.8</ele>
        <time>2022-03-08T14:47:03Z</time>
      </trkpt>
      <trkpt lat="43.55569" lon="2.03129">
        <ele>238.9</ele>
        <time>2022-03-08T14:47:04Z</time>
      </trkpt>
      <trkpt lat="43.55569" lon="2.03128">
        <ele>239</ele>
        <time>2022-03-08T14:47:05Z</time>
      </trkpt>
      <trkpt lat="43.55569" lon="2.03127">
        <ele>239.1</ele>
        <time>2022-03-08T14:47:06Z</time>
      </trkpt>
      <trkpt lat="43.55569" lon="2.03126">
        <ele>239.1</ele>
        <time>2022-03-08T14:47:07Z</time>
      </trkpt>
      <trkpt lat="43.5557" lon="2.03124">
        <ele>239.2</ele>
        <time>2022-03-08T14:47:08Z</time>
      </trkpt>
      <trkpt lat="43.5557" lon="2.03122">
        <ele>239.3</ele>
        <time>2022-03-08T14:47:09Z</time>
      </trkpt>
      <trkpt lat="43.5557" lon="2.03119">
        <ele>239.5</ele>
        <time>2022-03-08T14:47:10Z</time>
      </trkpt>
      <trkpt lat="43.55571" lon="2.03118">
        <ele>239.6</ele>
        <time>2022-03-08T14:47:11Z</time>
      </trkpt>
      <trkpt lat="43.55572" lon="2.03115">
        <ele>239.7</ele>
        <time>2022-03-08T14:47:13Z</time>
      </trkpt>
      <trkpt lat="43.55572" lon="2.03114">
        <ele>239.8</ele>
        <time>2022-03-08T14:47:14Z</time>
      </trkpt>
      <trkpt lat="43.55573" lon="2.03114">
        <ele>239.9</ele>
        <time>2022-03-08T14:47:15Z</time>
      </trkpt>
      <trkpt lat="43.55573" lon="2.03111">
        <ele>240</ele>
        <time>2022-03-08T14:47:16Z</time>
      </trkpt>
      <trkpt lat="43.55574" lon="2.0311">
        <ele>240.1</ele>
        <time>2022-03-08T14:47:17Z</time>
      </trkpt>
      <trkpt lat="43.55574" lon="2.03109">
        <ele>240.1</ele>
        <time>2022-03-08T14:47:18Z</time>
      </trkpt>
      <trkpt lat="43.55575" lon="2.03107">
        <ele>240.3</ele>
        <time>2022-03-08T14:47:19Z</time>
      </trkpt>
      <trkpt lat="43.55577" lon="2.03106">
        <ele>240.4</ele>
        <time>2022-03-08T14:47:21Z</time>
      </trkpt>
      <trkpt lat="43.55578" lon="2.03104">
        <ele>240.5</ele>
        <time>2022-03-08T14:47:22Z</time>
      </trkpt>
      <trkpt lat="43.55579" lon="2.03102">
        <ele>240.6</ele>
        <time>2022-03-08T14:47:23Z</time>
      </trkpt>
      <trkpt lat="43.5558" lon="2.03099">
        <ele>240.7</ele>
        <time>2022-03-08T14:47:24Z</time>
      </trkpt>
      <trkpt lat="43.5558" lon="2.03098">
        <ele>240.8</ele>
        <time>2022-03-08T14:47:25Z</time>
      </trkpt>
      <trkpt lat="43.55581" lon="2.03097">
        <ele>240.8</ele>
        <time>2022-03-08T14:47:26Z</time>
      </trkpt>
      <trkpt lat="43.55581" lon="2.03096">
        <ele>240.9</ele>
        <time>2022-03-08T14:47:28Z</time>
      </trkpt>
      <trkpt lat="43.55582" lon="2.03093">
        <ele>240.9</ele>
        <time>2022-03-08T14:47:29Z</time>
      </trkpt>
      <trkpt lat="43.55582" lon="2.03092">
        <ele>241</ele>
        <time>2022-03-08T14:47:30Z</time>
      </trkpt>
      <trkpt lat="43.55583" lon="2.0309">
        <ele>241.1</ele>
        <time>2022-03-08T14:47:31Z</time>
      </trkpt>
      <trkpt lat="43.55583" lon="2.03089">
        <ele>241.1</ele>
        <time>2022-03-08T14:47:32Z</time>
      </trkpt>
      <trkpt lat="43.55583" lon="2.03088">
        <ele>241.1</ele>
        <time>2022-03-08T14:47:33Z</time>
      </trkpt>
      <trkpt lat="43.55584" lon="2.03086">
        <ele>241.2</ele>
        <time>2022-03-08T14:47:34Z</time>
      </trkpt>
      <trkpt lat="43.55584" lon="2.03084">
        <ele>241.2</ele>
        <time>2022-03-08T14:47:35Z</time>
      </trkpt>
      <trkpt lat="43.55585" lon="2.03083">
        <ele>241.3</ele>
        <time>2022-03-08T14:47:36Z</time>
      </trkpt>
      <trkpt lat="43.55586" lon="2.03081">
        <ele>241.3</ele>
        <time>2022-03-08T14:47:38Z</time>
      </trkpt>
      <trkpt lat="43.55586" lon="2.0308">
        <ele>241.3</ele>
        <time>2022-03-08T14:47:39Z</time>
      </trkpt>
      <trkpt lat="43.55587" lon="2.03078">
        <ele>241.4</ele>
        <time>2022-03-08T14:47:40Z</time>
      </trkpt>
      <trkpt lat="43.55588" lon="2.03076">
        <ele>241.4</ele>
        <time>2022-03-08T14:47:41Z</time>
      </trkpt>
      <trkpt lat="43.55588" lon="2.03075">
        <ele>241.4</ele>
        <time>2022-03-08T14:47:42Z</time>
      </trkpt>
      <trkpt lat="43.55589" lon="2.03074">
        <ele>241.4</ele>
        <time>2022-03-08T14:47:43Z</time>
      </trkpt>
      <trkpt lat="43.5559" lon="2.03073">
        <ele>241.4</ele>
        <time>2022-03-08T14:47:44Z</time>
      </trkpt>
      <trkpt lat="43.55591" lon="2.03071">
        <ele>241.4</ele>
        <time>2022-03-08T14:47:45Z</time>
      </trkpt>
      <trkpt lat="43.55592" lon="2.0307">
        <ele>241.4</ele>
        <time>2022-03-08T14:47:46Z</time>
      </trkpt>
      <trkpt lat="43.55593" lon="2.03069">
        <ele>241.4</ele>
        <time>2022-03-08T14:47:47Z</time>
      </trkpt>
      <trkpt lat="43.55595" lon="2.03068">
        <ele>241.4</ele>
        <time>2022-03-08T14:47:48Z</time>
      </trkpt>
      <trkpt lat="43.55596" lon="2.03067">
        <ele>241.4</ele>
        <time>2022-03-08T14:47:49Z</time>
      </trkpt>
      <trkpt lat="43.55598" lon="2.03065">
        <ele>241.4</ele>
        <time>2022-03-08T14:47:50Z</time>
      </trkpt>
      <trkpt lat="43.55599" lon="2.03064">
        <ele>241.4</ele>
        <time>2022-03-08T14:47:51Z</time>
      </trkpt>
      <trkpt lat="43.55599" lon="2.03064">
        <ele>241.3</ele>
        <time>2022-03-08T14:47:52Z</time>
      </trkpt>
      <trkpt lat="43.556" lon="2.03063">
        <ele>241.3</ele>
        <time>2022-03-08T14:47:53Z</time>
      </trkpt>
      <trkpt lat="43.556" lon="2.03062">
        <ele>241.3</ele>
        <time>2022-03-08T14:47:54Z</time>
      </trkpt>
      <trkpt lat="43.55601" lon="2.03059">
        <ele>241.3</ele>
        <time>2022-03-08T14:47:56Z</time>
      </trkpt>
      <trkpt lat="43.55601" lon="2.03057">
        <ele>241.2</ele>
        <time>2022-03-08T14:47:57Z</time>
      </trkpt>
      <trkpt lat="43.55602" lon="2.03055">
        <ele>241.2</ele>
        <time>2022-03-08T14:47:58Z</time>
      </trkpt>
      <trkpt lat="43.55603" lon="2.03054">
        <ele>241.2</ele>
        <time>2022-03-08T14:47:59Z</time>
      </trkpt>
      <trkpt lat="43.55603" lon="2.03052">
        <ele>241.1</ele>
        <time>2022-03-08T14:48:00Z</time>
      </trkpt>
      <trkpt lat="43.55604" lon="2.03051">
        <ele>241.1</ele>
        <time>2022-03-08T14:48:01Z</time>
      </trkpt>
      <trkpt lat="43.55606" lon="2.03049">
        <ele>241</ele>
        <time>2022-03-08T14:48:02Z</time>
      </trkpt>
      <trkpt lat="43.55606" lon="2.03048">
        <ele>241</ele>
        <time>2022-03-08T14:48:03Z</time>
      </trkpt>
      <trkpt lat="43.55607" lon="2.03047">
        <ele>241</ele>
        <time>2022-03-08T14:48:04Z</time>
      </trkpt>
      <trkpt lat="43.55608" lon="2.03045">
        <ele>240.9</ele>
        <time>2022-03-08T14:48:06Z</time>
      </trkpt>
      <trkpt lat="43.55608" lon="2.03043">
        <ele>240.9</ele>
        <time>2022-03-08T14:48:07Z</time>
      </trkpt>
      <trkpt lat="43.55608" lon="2.03041">
        <ele>240.9</ele>
        <time>2022-03-08T14:48:08Z</time>
      </trkpt>
      <trkpt lat="43.55609" lon="2.03039">
        <ele>240.8</ele>
        <time>2022-03-08T14:48:09Z</time>
      </trkpt>
      <trkpt lat="43.55609" lon="2.03036">
        <ele>240.7</ele>
        <time>2022-03-08T14:48:10Z</time>
      </trkpt>
      <trkpt lat="43.55609" lon="2.03033">
        <ele>240.7</ele>
        <time>2022-03-08T14:48:12Z</time>
      </trkpt>
      <trkpt lat="43.55609" lon="2.0303">
        <ele>240.6</ele>
        <time>2022-03-08T14:48:13Z</time>
      </trkpt>
      <trkpt lat="43.55609" lon="2.03029">
        <ele>240.6</ele>
        <time>2022-03-08T14:48:14Z</time>
      </trkpt>
      <trkpt lat="43.5561" lon="2.03027">
        <ele>240.6</ele>
        <time>2022-03-08T14:48:15Z</time>
      </trkpt>
      <trkpt lat="43.5561" lon="2.03025">
        <ele>240.5</ele>
        <time>2022-03-08T14:48:16Z</time>
      </trkpt>
      <trkpt lat="43.55611" lon="2.03023">
        <ele>240.5</ele>
        <time>2022-03-08T14:48:17Z</time>
      </trkpt>
      <trkpt lat="43.55612" lon="2.03023">
        <ele>240.5</ele>
        <time>2022-03-08T14:48:18Z</time>
      </trkpt>
      <trkpt lat="43.55612" lon="2.03022">
        <ele>240.5</ele>
        <time>2022-03-08T14:48:19Z</time>
      </trkpt>
      <trkpt lat="43.55613" lon="2.03021">
        <ele>240.4</ele>
        <time>2022-03-08T14:48:21Z</time>
      </trkpt>
      <trkpt lat="43.55614" lon="2.0302">
        <ele>240.4</ele>
        <time>2022-03-08T14:48:22Z</time>
      </trkpt>
      <trkpt lat="43.55615" lon="2.03019">
        <ele>240.4</ele>
        <time>2022-03-08T14:48:23Z</time>
      </trkpt>
      <trkpt lat="43.55616" lon="2.03018">
        <ele>240.4</ele>
        <time>2022-03-08T14:48:24Z</time>
      </trkpt>
      <trkpt lat="43.55615" lon="2.03017">
        <ele>240.3</ele>
        <time>2022-03-08T14:48:25Z</time>
      </trkpt>
      <trkpt lat="43.55613" lon="2.03016">
        <ele>240.3</ele>
        <time>2022-03-08T14:48:26Z</time>
      </trkpt>
      <trkpt lat="43.55612" lon="2.03015">
        <ele>240.3</ele>
        <time>2022-03-08T14:48:27Z</time>
      </trkpt>
      <trkpt lat="43.5561" lon="2.03015">
        <ele>240.3</ele>
        <time>2022-03-08T14:48:28Z</time>
      </trkpt>
      <trkpt lat="43.5561" lon="2.03015">
        <ele>240.2</ele>
        <time>2022-03-08T14:48:29Z</time>
      </trkpt>
      <trkpt lat="43.5561" lon="2.03013">
        <ele>240.2</ele>
        <time>2022-03-08T14:48:30Z</time>
      </trkpt>
      <trkpt lat="43.5561" lon="2.03012">
        <ele>240.2</ele>
        <time>2022-03-08T14:48:31Z</time>
      </trkpt>
      <trkpt lat="43.55609" lon="2.0301">
        <ele>240.2</ele>
        <time>2022-03-08T14:48:32Z</time>
      </trkpt>
      <trkpt lat="43.55609" lon="2.03008">
        <ele>240.2</ele>
        <time>2022-03-08T14:48:33Z</time>
      </trkpt>
      <trkpt lat="43.55608" lon="2.03006">
        <ele>240.1</ele>
        <time>2022-03-08T14:48:34Z</time>
      </trkpt>
      <trkpt lat="43.55608" lon="2.03003">
        <ele>240.1</ele>
        <time>2022-03-08T14:48:35Z</time>
      </trkpt>
      <trkpt lat="43.55607" lon="2.03001">
        <ele>240.1</ele>
        <time>2022-03-08T14:48:37Z</time>
      </trkpt>
      <trkpt lat="43.55607" lon="2.02999">
        <ele>240.1</ele>
        <time>2022-03-08T14:48:38Z</time>
      </trkpt>
      <trkpt lat="43.55607" lon="2.02997">
        <ele>240.1</ele>
        <time>2022-03-08T14:48:39Z</time>
      </trkpt>
      <trkpt lat="43.55607" lon="2.02996">
        <ele>240.1</ele>
        <time>2022-03-08T14:48:40Z</time>
      </trkpt>
      <trkpt lat="43.55607" lon="2.02993">
        <ele>240</ele>
        <time>2022-03-08T14:48:41Z</time>
      </trkpt>
      <trkpt lat="43.55607" lon="2.02992">
        <ele>240</ele>
        <time>2022-03-08T14:48:43Z</time>
      </trkpt>
      <trkpt lat="43.55607" lon="2.0299">
        <ele>240</ele>
        <time>2022-03-08T14:48:44Z</time>
      </trkpt>
      <trkpt lat="43.55606" lon="2.02987">
        <ele>240</ele>
        <time>2022-03-08T14:48:45Z</time>
      </trkpt>
      <trkpt lat="43.55606" lon="2.02986">
        <ele>240</ele>
        <time>2022-03-08T14:48:46Z</time>
      </trkpt>
      <trkpt lat="43.55606" lon="2.02984">
        <ele>240</ele>
        <time>2022-03-08T14:48:47Z</time>
      </trkpt>
      <trkpt lat="43.55605" lon="2.02981">
        <ele>239.9</ele>
        <time>2022-03-08T14:48:48Z</time>
      </trkpt>
      <trkpt lat="43.55604" lon="2.0298">
        <ele>239.9</ele>
        <time>2022-03-08T14:48:49Z</time>
      </trkpt>
      <trkpt lat="43.55604" lon="2.0298">
        <ele>239.9</ele>
        <time>2022-03-08T14:48:50Z</time>
      </trkpt>
      <trkpt lat="43.55603" lon="2.02978">
        <ele>239.9</ele>
        <time>2022-03-08T14:48:51Z</time>
      </trkpt>
      <trkpt lat="43.55601" lon="2.02975">
        <ele>239.8</ele>
        <time>2022-03-08T14:48:53Z</time>
      </trkpt>
      <trkpt lat="43.556" lon="2.02974">
        <ele>239.8</ele>
        <time>2022-03-08T14:48:54Z</time>
      </trkpt>
      <trkpt lat="43.55599" lon="2.02972">
        <ele>239.8</ele>
        <time>2022-03-08T14:48:55Z</time>
      </trkpt>
      <trkpt lat="43.55599" lon="2.02971">
        <ele>239.7</ele>
        <time>2022-03-08T14:48:56Z</time>
      </trkpt>
      <trkpt lat="43.55598" lon="2.0297">
        <ele>239.7</ele>
        <time>2022-03-08T14:48:57Z</time>
      </trkpt>
      <trkpt lat="43.55598" lon="2.02968">
        <ele>239.7</ele>
        <time>2022-03-08T14:48:58Z</time>
      </trkpt>
      <trkpt lat="43.55598" lon="2.02967">
        <ele>239.7</ele>
        <time>2022-03-08T14:48:59Z</time>
      </trkpt>
      <trkpt lat="43.55598" lon="2.02966">
        <ele>239.6</ele>
        <time>2022-03-08T14:49:00Z</time>
      </trkpt>
      <trkpt lat="43.55598" lon="2.02964">
        <ele>239.6</ele>
        <time>2022-03-08T14:49:01Z</time>
      </trkpt>
      <trkpt lat="43.55597" lon="2.02961">
        <ele>239.6</ele>
        <time>2022-03-08T14:49:03Z</time>
      </trkpt>
      <trkpt lat="43.55597" lon="2.02959">
        <ele>239.5</ele>
        <time>2022-03-08T14:49:04Z</time>
      </trkpt>
      <trkpt lat="43.55597" lon="2.02958">
        <ele>239.5</ele>
        <time>2022-03-08T14:49:05Z</time>
      </trkpt>
      <trkpt lat="43.55597" lon="2.02956">
        <ele>239.5</ele>
        <time>2022-03-08T14:49:06Z</time>
      </trkpt>
      <trkpt lat="43.55597" lon="2.02954">
        <ele>239.4</ele>
        <time>2022-03-08T14:49:07Z</time>
      </trkpt>
      <trkpt lat="43.55597" lon="2.02953">
        <ele>239.4</ele>
        <time>2022-03-08T14:49:08Z</time>
      </trkpt>
      <trkpt lat="43.55598" lon="2.02952">
        <ele>239.4</ele>
        <time>2022-03-08T14:49:09Z</time>
      </trkpt>
      <trkpt lat="43.55598" lon="2.02951">
        <ele>239.3</ele>
        <time>2022-03-08T14:49:10Z</time>
      </trkpt>
      <trkpt lat="43.55598" lon="2.02948">
        <ele>239.3</ele>
        <time>2022-03-08T14:49:11Z</time>
      </trkpt>
      <trkpt lat="43.55599" lon="2.02947">
        <ele>239.2</ele>
        <time>2022-03-08T14:49:12Z</time>
      </trkpt>
      <trkpt lat="43.55599" lon="2.02946">
        <ele>239.2</ele>
        <time>2022-03-08T14:49:14Z</time>
      </trkpt>
      <trkpt lat="43.55599" lon="2.02944">
        <ele>239.1</ele>
        <time>2022-03-08T14:49:15Z</time>
      </trkpt>
      <trkpt lat="43.556" lon="2.02943">
        <ele>239.1</ele>
        <time>2022-03-08T14:49:16Z</time>
      </trkpt>
      <trkpt lat="43.556" lon="2.02942">
        <ele>239</ele>
        <time>2022-03-08T14:49:17Z</time>
      </trkpt>
      <trkpt lat="43.55601" lon="2.02939">
        <ele>238.9</ele>
        <time>2022-03-08T14:49:18Z</time>
      </trkpt>
      <trkpt lat="43.55601" lon="2.02938">
        <ele>238.9</ele>
        <time>2022-03-08T14:49:19Z</time>
      </trkpt>
      <trkpt lat="43.55601" lon="2.02937">
        <ele>238.9</ele>
        <time>2022-03-08T14:49:20Z</time>
      </trkpt>
      <trkpt lat="43.556" lon="2.02935">
        <ele>238.8</ele>
        <time>2022-03-08T14:49:21Z</time>
      </trkpt>
      <trkpt lat="43.556" lon="2.02933">
        <ele>238.7</ele>
        <time>2022-03-08T14:49:23Z</time>
      </trkpt>
      <trkpt lat="43.556" lon="2.02933">
        <ele>238.7</ele>
        <time>2022-03-08T14:49:24Z</time>
      </trkpt>
      <trkpt lat="43.556" lon="2.02932">
        <ele>238.7</ele>
        <time>2022-03-08T14:49:25Z</time>
      </trkpt>
      <trkpt lat="43.556" lon="2.0293">
        <ele>238.6</ele>
        <time>2022-03-08T14:49:26Z</time>
      </trkpt>
      <trkpt lat="43.55601" lon="2.02928">
        <ele>238.5</ele>
        <time>2022-03-08T14:49:27Z</time>
      </trkpt>
      <trkpt lat="43.55601" lon="2.02926">
        <ele>238.5</ele>
        <time>2022-03-08T14:49:28Z</time>
      </trkpt>
      <trkpt lat="43.55602" lon="2.02924">
        <ele>238.4</ele>
        <time>2022-03-08T14:49:29Z</time>
      </trkpt>
      <trkpt lat="43.55603" lon="2.02922">
        <ele>238.3</ele>
        <time>2022-03-08T14:49:31Z</time>
      </trkpt>
      <trkpt lat="43.55604" lon="2.02921">
        <ele>238.2</ele>
        <time>2022-03-08T14:49:32Z</time>
      </trkpt>
      <trkpt lat="43.55606" lon="2.02918">
        <ele>238.1</ele>
        <time>2022-03-08T14:49:33Z</time>
      </trkpt>
      <trkpt lat="43.55607" lon="2.02916">
        <ele>238</ele>
        <time>2022-03-08T14:49:34Z</time>
      </trkpt>
      <trkpt lat="43.55608" lon="2.02914">
        <ele>237.9</ele>
        <time>2022-03-08T14:49:36Z</time>
      </trkpt>
      <trkpt lat="43.55608" lon="2.02912">
        <ele>237.8</ele>
        <time>2022-03-08T14:49:37Z</time>
      </trkpt>
      <trkpt lat="43.55608" lon="2.0291">
        <ele>237.8</ele>
        <time>2022-03-08T14:49:38Z</time>
      </trkpt>
      <trkpt lat="43.55607" lon="2.02906">
        <ele>237.6</ele>
        <time>2022-03-08T14:49:40Z</time>
      </trkpt>
      <trkpt lat="43.55607" lon="2.02904">
        <ele>237.5</ele>
        <time>2022-03-08T14:49:41Z</time>
      </trkpt>
      <trkpt lat="43.55607" lon="2.02903">
        <ele>237.5</ele>
        <time>2022-03-08T14:49:42Z</time>
      </trkpt>
      <trkpt lat="43.55608" lon="2.029">
        <ele>237.4</ele>
        <time>2022-03-08T14:49:43Z</time>
      </trkpt>
      <trkpt lat="43.55608" lon="2.02899">
        <ele>237.3</ele>
        <time>2022-03-08T14:49:44Z</time>
      </trkpt>
      <trkpt lat="43.55608" lon="2.02898">
        <ele>237.3</ele>
        <time>2022-03-08T14:49:45Z</time>
      </trkpt>
      <trkpt lat="43.5561" lon="2.02895">
        <ele>237.2</ele>
        <time>2022-03-08T14:49:47Z</time>
      </trkpt>
      <trkpt lat="43.5561" lon="2.02894">
        <ele>237.1</ele>
        <time>2022-03-08T14:49:48Z</time>
      </trkpt>
      <trkpt lat="43.5561" lon="2.02893">
        <ele>237.1</ele>
        <time>2022-03-08T14:49:49Z</time>
      </trkpt>
      <trkpt lat="43.5561" lon="2.02892">
        <ele>237</ele>
        <time>2022-03-08T14:49:50Z</time>
      </trkpt>
      <trkpt lat="43.5561" lon="2.0289">
        <ele>237</ele>
        <time>2022-03-08T14:49:51Z</time>
      </trkpt>
      <trkpt lat="43.55611" lon="2.02887">
        <ele>236.8</ele>
        <time>2022-03-08T14:49:53Z</time>
      </trkpt>
      <trkpt lat="43.55611" lon="2.02886">
        <ele>236.8</ele>
        <time>2022-03-08T14:49:54Z</time>
      </trkpt>
      <trkpt lat="43.55612" lon="2.02884">
        <ele>236.7</ele>
        <time>2022-03-08T14:49:55Z</time>
      </trkpt>
      <trkpt lat="43.55613" lon="2.02883">
        <ele>236.6</ele>
        <time>2022-03-08T14:49:56Z</time>
      </trkpt>
      <trkpt lat="43.55615" lon="2.02881">
        <ele>236.5</ele>
        <time>2022-03-08T14:49:57Z</time>
      </trkpt>
      <trkpt lat="43.55617" lon="2.0288">
        <ele>236.4</ele>
        <time>2022-03-08T14:49:59Z</time>
      </trkpt>
      <trkpt lat="43.55618" lon="2.02879">
        <ele>236.3</ele>
        <time>2022-03-08T14:50:00Z</time>
      </trkpt>
      <trkpt lat="43.5562" lon="2.02878">
        <ele>236.3</ele>
        <time>2022-03-08T14:50:01Z</time>
      </trkpt>
      <trkpt lat="43.55621" lon="2.02877">
        <ele>236.2</ele>
        <time>2022-03-08T14:50:02Z</time>
      </trkpt>
      <trkpt lat="43.55622" lon="2.02876">
        <ele>236.2</ele>
        <time>2022-03-08T14:50:04Z</time>
      </trkpt>
      <trkpt lat="43.55623" lon="2.02875">
        <ele>236.2</ele>
        <time>2022-03-08T14:50:05Z</time>
      </trkpt>
      <trkpt lat="43.55624" lon="2.02874">
        <ele>236.1</ele>
        <time>2022-03-08T14:50:06Z</time>
      </trkpt>
      <trkpt lat="43.55624" lon="2.02874">
        <ele>236.1</ele>
        <time>2022-03-08T14:50:07Z</time>
      </trkpt>
      <trkpt lat="43.55627" lon="2.02873">
        <ele>236</ele>
        <time>2022-03-08T14:50:08Z</time>
      </trkpt>
      <trkpt lat="43.55628" lon="2.02873">
        <ele>236</ele>
        <time>2022-03-08T14:50:09Z</time>
      </trkpt>
      <trkpt lat="43.55629" lon="2.02872">
        <ele>236</ele>
        <time>2022-03-08T14:50:10Z</time>
      </trkpt>
      <trkpt lat="43.5563" lon="2.02872">
        <ele>235.9</ele>
        <time>2022-03-08T14:50:11Z</time>
      </trkpt>
      <trkpt lat="43.55632" lon="2.02872">
        <ele>235.9</ele>
        <time>2022-03-08T14:50:13Z</time>
      </trkpt>
      <trkpt lat="43.55633" lon="2.02871">
        <ele>235.9</ele>
        <time>2022-03-08T14:50:14Z</time>
      </trkpt>
      <trkpt lat="43.55634" lon="2.0287">
        <ele>235.8</ele>
        <time>2022-03-08T14:50:15Z</time>
      </trkpt>
      <trkpt lat="43.55636" lon="2.02869">
        <ele>235.8</ele>
        <time>2022-03-08T14:50:16Z</time>
      </trkpt>
      <trkpt lat="43.55637" lon="2.02867">
        <ele>235.8</ele>
        <time>2022-03-08T14:50:17Z</time>
      </trkpt>
      <trkpt lat="43.55638" lon="2.02865">
        <ele>235.7</ele>
        <time>2022-03-08T14:50:18Z</time>
      </trkpt>
      <trkpt lat="43.55639" lon="2.02864">
        <ele>235.7</ele>
        <time>2022-03-08T14:50:19Z</time>
      </trkpt>
      <trkpt lat="43.5564" lon="2.02863">
        <ele>235.7</ele>
        <time>2022-03-08T14:50:20Z</time>
      </trkpt>
      <trkpt lat="43.55641" lon="2.02861">
        <ele>235.6</ele>
        <time>2022-03-08T14:50:21Z</time>
      </trkpt>
      <trkpt lat="43.55643" lon="2.0286">
        <ele>235.6</ele>
        <time>2022-03-08T14:50:22Z</time>
      </trkpt>
      <trkpt lat="43.55644" lon="2.0286">
        <ele>235.5</ele>
        <time>2022-03-08T14:50:23Z</time>
      </trkpt>
      <trkpt lat="43.55645" lon="2.02859">
        <ele>235.5</ele>
        <time>2022-03-08T14:50:25Z</time>
      </trkpt>
      <trkpt lat="43.55646" lon="2.02858">
        <ele>235.5</ele>
        <time>2022-03-08T14:50:26Z</time>
      </trkpt>
      <trkpt lat="43.55646" lon="2.02857">
        <ele>235.4</ele>
        <time>2022-03-08T14:50:27Z</time>
      </trkpt>
      <trkpt lat="43.55647" lon="2.02857">
        <ele>235.4</ele>
        <time>2022-03-08T14:50:28Z</time>
      </trkpt>
      <trkpt lat="43.55647" lon="2.02856">
        <ele>235.4</ele>
        <time>2022-03-08T14:50:29Z</time>
      </trkpt>
      <trkpt lat="43.55647" lon="2.02856">
        <ele>235.4</ele>
        <time>2022-03-08T14:50:30Z</time>
      </trkpt>
      <trkpt lat="43.55648" lon="2.02855">
        <ele>235.3</ele>
        <time>2022-03-08T14:50:32Z</time>
      </trkpt>
      <trkpt lat="43.55648" lon="2.02855">
        <ele>235.3</ele>
        <time>2022-03-08T14:50:33Z</time>
      </trkpt>
      <trkpt lat="43.55649" lon="2.02854">
        <ele>235.3</ele>
        <time>2022-03-08T14:50:34Z</time>
      </trkpt>
      <trkpt lat="43.5565" lon="2.02853">
        <ele>235.2</ele>
        <time>2022-03-08T14:50:35Z</time>
      </trkpt>
      <trkpt lat="43.55652" lon="2.02853">
        <ele>235.2</ele>
        <time>2022-03-08T14:50:36Z</time>
      </trkpt>
      <trkpt lat="43.55652" lon="2.02853">
        <ele>235.2</ele>
        <time>2022-03-08T14:50:37Z</time>
      </trkpt>
      <trkpt lat="43.55651" lon="2.02853">
        <ele>235.2</ele>
        <time>2022-03-08T14:50:38Z</time>
      </trkpt>
      <trkpt lat="43.55651" lon="2.02853">
        <ele>235.2</ele>
        <time>2022-03-08T14:50:39Z</time>
      </trkpt>
      <trkpt lat="43.55652" lon="2.02853">
        <ele>235.2</ele>
        <time>2022-03-08T14:50:40Z</time>
      </trkpt>
      <trkpt lat="43.55653" lon="2.02852">
        <ele>235.1</ele>
        <time>2022-03-08T14:50:41Z</time>
      </trkpt>
      <trkpt lat="43.55654" lon="2.02851">
        <ele>235.1</ele>
        <time>2022-03-08T14:50:42Z</time>
      </trkpt>
      <trkpt lat="43.55655" lon="2.02849">
        <ele>235</ele>
        <time>2022-03-08T14:50:44Z</time>
      </trkpt>
      <trkpt lat="43.55656" lon="2.02848">
        <ele>235</ele>
        <time>2022-03-08T14:50:45Z</time>
      </trkpt>
      <trkpt lat="43.55657" lon="2.02847">
        <ele>234.9</ele>
        <time>2022-03-08T14:50:46Z</time>
      </trkpt>
      <trkpt lat="43.55658" lon="2.02845">
        <ele>234.8</ele>
        <time>2022-03-08T14:50:47Z</time>
      </trkpt>
      <trkpt lat="43.55659" lon="2.02844">
        <ele>234.8</ele>
        <time>2022-03-08T14:50:48Z</time>
      </trkpt>
      <trkpt lat="43.5566" lon="2.02842">
        <ele>234.7</ele>
        <time>2022-03-08T14:50:49Z</time>
      </trkpt>
      <trkpt lat="43.55661" lon="2.02841">
        <ele>234.6</ele>
        <time>2022-03-08T14:50:50Z</time>
      </trkpt>
      <trkpt lat="43.55662" lon="2.0284">
        <ele>234.6</ele>
        <time>2022-03-08T14:50:51Z</time>
      </trkpt>
      <trkpt lat="43.55663" lon="2.02839">
        <ele>234.5</ele>
        <time>2022-03-08T14:50:52Z</time>
      </trkpt>
      <trkpt lat="43.55665" lon="2.02837">
        <ele>234.4</ele>
        <time>2022-03-08T14:50:53Z</time>
      </trkpt>
      <trkpt lat="43.55667" lon="2.02836">
        <ele>234.4</ele>
        <time>2022-03-08T14:50:55Z</time>
      </trkpt>
      <trkpt lat="43.55668" lon="2.02834">
        <ele>234.3</ele>
        <time>2022-03-08T14:50:56Z</time>
      </trkpt>
      <trkpt lat="43.55668" lon="2.02833">
        <ele>234.2</ele>
        <time>2022-03-08T14:50:57Z</time>
      </trkpt>
      <trkpt lat="43.55669" lon="2.02831">
        <ele>234.2</ele>
        <time>2022-03-08T14:50:58Z</time>
      </trkpt>
      <trkpt lat="43.55671" lon="2.02829">
        <ele>234</ele>
        <time>2022-03-08T14:51:00Z</time>
      </trkpt>
      <trkpt lat="43.55673" lon="2.02827">
        <ele>233.9</ele>
        <time>2022-03-08T14:51:01Z</time>
      </trkpt>
      <trkpt lat="43.55673" lon="2.02826">
        <ele>233.9</ele>
        <time>2022-03-08T14:51:02Z</time>
      </trkpt>
      <trkpt lat="43.55674" lon="2.02826">
        <ele>233.9</ele>
        <time>2022-03-08T14:51:03Z</time>
      </trkpt>
      <trkpt lat="43.55675" lon="2.02825">
        <ele>233.8</ele>
        <time>2022-03-08T14:51:04Z</time>
      </trkpt>
      <trkpt lat="43.55677" lon="2.02825">
        <ele>233.7</ele>
        <time>2022-03-08T14:51:05Z</time>
      </trkpt>
      <trkpt lat="43.55678" lon="2.02824">
        <ele>233.7</ele>
        <time>2022-03-08T14:51:06Z</time>
      </trkpt>
      <trkpt lat="43.55679" lon="2.02824">
        <ele>233.6</ele>
        <time>2022-03-08T14:51:07Z</time>
      </trkpt>
      <trkpt lat="43.5568" lon="2.02823">
        <ele>233.6</ele>
        <time>2022-03-08T14:51:08Z</time>
      </trkpt>
      <trkpt lat="43.55681" lon="2.02823">
        <ele>233.5</ele>
        <time>2022-03-08T14:51:09Z</time>
      </trkpt>
      <trkpt lat="43.55682" lon="2.02822">
        <ele>233.5</ele>
        <time>2022-03-08T14:51:11Z</time>
      </trkpt>
      <trkpt lat="43.55683" lon="2.02822">
        <ele>233.4</ele>
        <time>2022-03-08T14:51:12Z</time>
      </trkpt>
      <trkpt lat="43.55684" lon="2.02821">
        <ele>233.4</ele>
        <time>2022-03-08T14:51:13Z</time>
      </trkpt>
      <trkpt lat="43.55685" lon="2.02821">
        <ele>233.3</ele>
        <time>2022-03-08T14:51:14Z</time>
      </trkpt>
      <trkpt lat="43.55685" lon="2.02821">
        <ele>233.3</ele>
        <time>2022-03-08T14:51:15Z</time>
      </trkpt>
      <trkpt lat="43.55686" lon="2.02821">
        <ele>233.3</ele>
        <time>2022-03-08T14:51:16Z</time>
      </trkpt>
      <trkpt lat="43.55687" lon="2.02821">
        <ele>233.2</ele>
        <time>2022-03-08T14:51:17Z</time>
      </trkpt>
      <trkpt lat="43.55688" lon="2.02821">
        <ele>233.2</ele>
        <time>2022-03-08T14:51:18Z</time>
      </trkpt>
      <trkpt lat="43.55688" lon="2.02821">
        <ele>233.2</ele>
        <time>2022-03-08T14:51:19Z</time>
      </trkpt>
      <trkpt lat="43.5569" lon="2.0282">
        <ele>233.1</ele>
        <time>2022-03-08T14:51:20Z</time>
      </trkpt>
      <trkpt lat="43.55691" lon="2.0282">
        <ele>233.1</ele>
        <time>2022-03-08T14:51:21Z</time>
      </trkpt>
      <trkpt lat="43.55691" lon="2.02819">
        <ele>233.1</ele>
        <time>2022-03-08T14:51:22Z</time>
      </trkpt>
      <trkpt lat="43.55692" lon="2.02819">
        <ele>233</ele>
        <time>2022-03-08T14:51:23Z</time>
      </trkpt>
      <trkpt lat="43.55692" lon="2.02818">
        <ele>233</ele>
        <time>2022-03-08T14:51:24Z</time>
      </trkpt>
      <trkpt lat="43.55691" lon="2.02818">
        <ele>233</ele>
        <time>2022-03-08T14:51:25Z</time>
      </trkpt>
      <trkpt lat="43.55691" lon="2.02818">
        <ele>233</ele>
        <time>2022-03-08T14:51:27Z</time>
      </trkpt>
      <trkpt lat="43.5569" lon="2.02817">
        <ele>233</ele>
        <time>2022-03-08T14:51:28Z</time>
      </trkpt>
      <trkpt lat="43.5569" lon="2.02817">
        <ele>232.9</ele>
        <time>2022-03-08T14:51:29Z</time>
      </trkpt>
      <trkpt lat="43.5569" lon="2.02817">
        <ele>232.9</ele>
        <time>2022-03-08T14:51:30Z</time>
      </trkpt>
      <trkpt lat="43.5569" lon="2.02817">
        <ele>232.9</ele>
        <time>2022-03-08T14:51:31Z</time>
      </trkpt>
      <trkpt lat="43.55691" lon="2.02816">
        <ele>232.9</ele>
        <time>2022-03-08T14:51:32Z</time>
      </trkpt>
      <trkpt lat="43.55692" lon="2.02816">
        <ele>232.9</ele>
        <time>2022-03-08T14:51:33Z</time>
      </trkpt>
      <trkpt lat="43.55694" lon="2.02815">
        <ele>232.8</ele>
        <time>2022-03-08T14:51:35Z</time>
      </trkpt>
      <trkpt lat="43.55695" lon="2.02814">
        <ele>232.8</ele>
        <time>2022-03-08T14:51:36Z</time>
      </trkpt>
      <trkpt lat="43.55696" lon="2.02812">
        <ele>232.8</ele>
        <time>2022-03-08T14:51:37Z</time>
      </trkpt>
      <trkpt lat="43.55699" lon="2.02812">
        <ele>232.7</ele>
        <time>2022-03-08T14:51:38Z</time>
      </trkpt>
      <trkpt lat="43.55701" lon="2.02812">
        <ele>232.7</ele>
        <time>2022-03-08T14:51:39Z</time>
      </trkpt>
      <trkpt lat="43.55704" lon="2.02812">
        <ele>232.6</ele>
        <time>2022-03-08T14:51:40Z</time>
      </trkpt>
      <trkpt lat="43.55707" lon="2.02813">
        <ele>232.6</ele>
        <time>2022-03-08T14:51:42Z</time>
      </trkpt>
      <trkpt lat="43.55708" lon="2.02813">
        <ele>232.5</ele>
        <time>2022-03-08T14:51:43Z</time>
      </trkpt>
      <trkpt lat="43.5571" lon="2.02813">
        <ele>232.5</ele>
        <time>2022-03-08T14:51:44Z</time>
      </trkpt>
      <trkpt lat="43.55711" lon="2.02814">
        <ele>232.5</ele>
        <time>2022-03-08T14:51:45Z</time>
      </trkpt>
      <trkpt lat="43.55714" lon="2.02815">
        <ele>232.4</ele>
        <time>2022-03-08T14:51:46Z</time>
      </trkpt>
      <trkpt lat="43.55715" lon="2.02815">
        <ele>232.4</ele>
        <time>2022-03-08T14:51:47Z</time>
      </trkpt>
      <trkpt lat="43.55717" lon="2.02815">
        <ele>232.4</ele>
        <time>2022-03-08T14:51:48Z</time>
      </trkpt>
      <trkpt lat="43.55718" lon="2.02815">
        <ele>232.4</ele>
        <time>2022-03-08T14:51:49Z</time>
      </trkpt>
      <trkpt lat="43.55721" lon="2.02814">
        <ele>232.3</ele>
        <time>2022-03-08T14:51:51Z</time>
      </trkpt>
      <trkpt lat="43.55722" lon="2.02814">
        <ele>232.3</ele>
        <time>2022-03-08T14:51:52Z</time>
      </trkpt>
      <trkpt lat="43.55724" lon="2.02814">
        <ele>232.3</ele>
        <time>2022-03-08T14:51:53Z</time>
      </trkpt>
      <trkpt lat="43.55725" lon="2.02813">
        <ele>232.3</ele>
        <time>2022-03-08T14:51:54Z</time>
      </trkpt>
      <trkpt lat="43.55726" lon="2.02811">
        <ele>232.3</ele>
        <time>2022-03-08T14:51:55Z</time>
      </trkpt>
      <trkpt lat="43.55727" lon="2.0281">
        <ele>232.3</ele>
        <time>2022-03-08T14:51:56Z</time>
      </trkpt>
      <trkpt lat="43.55729" lon="2.02809">
        <ele>232.3</ele>
        <time>2022-03-08T14:51:57Z</time>
      </trkpt>
      <trkpt lat="43.5573" lon="2.02808">
        <ele>232.2</ele>
        <time>2022-03-08T14:51:58Z</time>
      </trkpt>
      <trkpt lat="43.55731" lon="2.02807">
        <ele>232.2</ele>
        <time>2022-03-08T14:51:59Z</time>
      </trkpt>
      <trkpt lat="43.55731" lon="2.02807">
        <ele>232.2</ele>
        <time>2022-03-08T14:52:00Z</time>
      </trkpt>
      <trkpt lat="43.55732" lon="2.02807">
        <ele>232.2</ele>
        <time>2022-03-08T14:52:01Z</time>
      </trkpt>
      <trkpt lat="43.55732" lon="2.02806">
        <ele>232.2</ele>
        <time>2022-03-08T14:52:02Z</time>
      </trkpt>
      <trkpt lat="43.55733" lon="2.02806">
        <ele>232.2</ele>
        <time>2022-03-08T14:52:03Z</time>
      </trkpt>
      <trkpt lat="43.55734" lon="2.02805">
        <ele>232.2</ele>
        <time>2022-03-08T14:52:04Z</time>
      </trkpt>
      <trkpt lat="43.55735" lon="2.02805">
        <ele>232.2</ele>
        <time>2022-03-08T14:52:05Z</time>
      </trkpt>
      <trkpt lat="43.55736" lon="2.02804">
        <ele>232.2</ele>
        <time>2022-03-08T14:52:06Z</time>
      </trkpt>
      <trkpt lat="43.55738" lon="2.02804">
        <ele>232.2</ele>
        <time>2022-03-08T14:52:07Z</time>
      </trkpt>
      <trkpt lat="43.55739" lon="2.02805">
        <ele>232.2</ele>
        <time>2022-03-08T14:52:09Z</time>
      </trkpt>
      <trkpt lat="43.5574" lon="2.02805">
        <ele>232.2</ele>
        <time>2022-03-08T14:52:10Z</time>
      </trkpt>
      <trkpt lat="43.5574" lon="2.02805">
        <ele>232.2</ele>
        <time>2022-03-08T14:52:11Z</time>
      </trkpt>
      <trkpt lat="43.5574" lon="2.02804">
        <ele>232.2</ele>
        <time>2022-03-08T14:52:12Z</time>
      </trkpt>
      <trkpt lat="43.5574" lon="2.02804">
        <ele>232.2</ele>
        <time>2022-03-08T14:52:13Z</time>
      </trkpt>
      <trkpt lat="43.5574" lon="2.02804">
        <ele>232.2</ele>
        <time>2022-03-08T14:52:14Z</time>
      </trkpt>
      <trkpt lat="43.55741" lon="2.02804">
        <ele>232.2</ele>
        <time>2022-03-08T14:52:15Z</time>
      </trkpt>
      <trkpt lat="43.55742" lon="2.02803">
        <ele>232.2</ele>
        <time>2022-03-08T14:52:17Z</time>
      </trkpt>
      <trkpt lat="43.55743" lon="2.02803">
        <ele>232.2</ele>
        <time>2022-03-08T14:52:18Z</time>
      </trkpt>
      <trkpt lat="43.55745" lon="2.02801">
        <ele>232.2</ele>
        <time>2022-03-08T14:52:19Z</time>
      </trkpt>
      <trkpt lat="43.55746" lon="2.02801">
        <ele>232.2</ele>
        <time>2022-03-08T14:52:20Z</time>
      </trkpt>
      <trkpt lat="43.55747" lon="2.028">
        <ele>232.2</ele>
        <time>2022-03-08T14:52:21Z</time>
      </trkpt>
      <trkpt lat="43.55749" lon="2.028">
        <ele>232.2</ele>
        <time>2022-03-08T14:52:22Z</time>
      </trkpt>
      <trkpt lat="43.55751" lon="2.028">
        <ele>232.3</ele>
        <time>2022-03-08T14:52:23Z</time>
      </trkpt>
      <trkpt lat="43.55753" lon="2.02799">
        <ele>232.3</ele>
        <time>2022-03-08T14:52:24Z</time>
      </trkpt>
      <trkpt lat="43.55754" lon="2.02799">
        <ele>232.3</ele>
        <time>2022-03-08T14:52:25Z</time>
      </trkpt>
      <trkpt lat="43.55755" lon="2.02798">
        <ele>232.3</ele>
        <time>2022-03-08T14:52:27Z</time>
      </trkpt>
      <trkpt lat="43.55757" lon="2.02798">
        <ele>232.3</ele>
        <time>2022-03-08T14:52:28Z</time>
      </trkpt>
      <trkpt lat="43.5576" lon="2.02797">
        <ele>232.3</ele>
        <time>2022-03-08T14:52:29Z</time>
      </trkpt>
      <trkpt lat="43.5576" lon="2.02796">
        <ele>232.3</ele>
        <time>2022-03-08T14:52:30Z</time>
      </trkpt>
      <trkpt lat="43.55761" lon="2.02795">
        <ele>232.3</ele>
        <time>2022-03-08T14:52:31Z</time>
      </trkpt>
      <trkpt lat="43.55762" lon="2.02794">
        <ele>232.3</ele>
        <time>2022-03-08T14:52:32Z</time>
      </trkpt>
      <trkpt lat="43.55764" lon="2.0279">
        <ele>232.3</ele>
        <time>2022-03-08T14:52:34Z</time>
      </trkpt>
      <trkpt lat="43.55765" lon="2.02789">
        <ele>232.3</ele>
        <time>2022-03-08T14:52:35Z</time>
      </trkpt>
      <trkpt lat="43.55765" lon="2.02787">
        <ele>232.4</ele>
        <time>2022-03-08T14:52:36Z</time>
      </trkpt>
      <trkpt lat="43.55765" lon="2.02785">
        <ele>232.4</ele>
        <time>2022-03-08T14:52:37Z</time>
      </trkpt>
      <trkpt lat="43.55765" lon="2.02783">
        <ele>232.4</ele>
        <time>2022-03-08T14:52:38Z</time>
      </trkpt>
      <trkpt lat="43.55765" lon="2.02781">
        <ele>232.4</ele>
        <time>2022-03-08T14:52:39Z</time>
      </trkpt>
      <trkpt lat="43.55765" lon="2.02779">
        <ele>232.4</ele>
        <time>2022-03-08T14:52:40Z</time>
      </trkpt>
      <trkpt lat="43.55765" lon="2.02776">
        <ele>232.4</ele>
        <time>2022-03-08T14:52:41Z</time>
      </trkpt>
      <trkpt lat="43.55766" lon="2.02773">
        <ele>232.4</ele>
        <time>2022-03-08T14:52:42Z</time>
      </trkpt>
      <trkpt lat="43.55767" lon="2.02772">
        <ele>232.4</ele>
        <time>2022-03-08T14:52:43Z</time>
      </trkpt>
      <trkpt lat="43.55768" lon="2.02771">
        <ele>232.5</ele>
        <time>2022-03-08T14:52:44Z</time>
      </trkpt>
      <trkpt lat="43.55769" lon="2.02769">
        <ele>232.5</ele>
        <time>2022-03-08T14:52:45Z</time>
      </trkpt>
      <trkpt lat="43.55771" lon="2.02767">
        <ele>232.5</ele>
        <time>2022-03-08T14:52:47Z</time>
      </trkpt>
      <trkpt lat="43.55773" lon="2.02766">
        <ele>232.5</ele>
        <time>2022-03-08T14:52:48Z</time>
      </trkpt>
      <trkpt lat="43.55775" lon="2.02765">
        <ele>232.5</ele>
        <time>2022-03-08T14:52:50Z</time>
      </trkpt>
      <trkpt lat="43.55776" lon="2.02763">
        <ele>232.5</ele>
        <time>2022-03-08T14:52:51Z</time>
      </trkpt>
      <trkpt lat="43.55777" lon="2.02762">
        <ele>232.5</ele>
        <time>2022-03-08T14:52:52Z</time>
      </trkpt>
      <trkpt lat="43.5578" lon="2.02758">
        <ele>232.5</ele>
        <time>2022-03-08T14:52:54Z</time>
      </trkpt>
      <trkpt lat="43.5578" lon="2.02757">
        <ele>232.5</ele>
        <time>2022-03-08T14:52:56Z</time>
      </trkpt>
      <trkpt lat="43.55781" lon="2.02756">
        <ele>232.5</ele>
        <time>2022-03-08T14:52:57Z</time>
      </trkpt>
      <trkpt lat="43.55781" lon="2.02755">
        <ele>232.5</ele>
        <time>2022-03-08T14:52:58Z</time>
      </trkpt>
      <trkpt lat="43.55783" lon="2.02754">
        <ele>232.5</ele>
        <time>2022-03-08T14:52:59Z</time>
      </trkpt>
      <trkpt lat="43.55783" lon="2.02753">
        <ele>232.5</ele>
        <time>2022-03-08T14:53:00Z</time>
      </trkpt>
      <trkpt lat="43.55784" lon="2.02751">
        <ele>232.5</ele>
        <time>2022-03-08T14:53:01Z</time>
      </trkpt>
      <trkpt lat="43.55786" lon="2.0275">
        <ele>232.5</ele>
        <time>2022-03-08T14:53:02Z</time>
      </trkpt>
      <trkpt lat="43.55787" lon="2.02747">
        <ele>232.4</ele>
        <time>2022-03-08T14:53:04Z</time>
      </trkpt>
      <trkpt lat="43.55788" lon="2.02746">
        <ele>232.4</ele>
        <time>2022-03-08T14:53:05Z</time>
      </trkpt>
      <trkpt lat="43.55787" lon="2.02743">
        <ele>232.4</ele>
        <time>2022-03-08T14:53:06Z</time>
      </trkpt>
      <trkpt lat="43.55788" lon="2.02742">
        <ele>232.4</ele>
        <time>2022-03-08T14:53:08Z</time>
      </trkpt>
      <trkpt lat="43.55788" lon="2.02741">
        <ele>232.4</ele>
        <time>2022-03-08T14:53:09Z</time>
      </trkpt>
      <trkpt lat="43.55788" lon="2.02739">
        <ele>232.4</ele>
        <time>2022-03-08T14:53:10Z</time>
      </trkpt>
      <trkpt lat="43.55789" lon="2.02737">
        <ele>232.4</ele>
        <time>2022-03-08T14:53:11Z</time>
      </trkpt>
      <trkpt lat="43.55789" lon="2.02735">
        <ele>232.4</ele>
        <time>2022-03-08T14:53:12Z</time>
      </trkpt>
      <trkpt lat="43.5579" lon="2.02734">
        <ele>232.4</ele>
        <time>2022-03-08T14:53:13Z</time>
      </trkpt>
      <trkpt lat="43.5579" lon="2.02732">
        <ele>232.4</ele>
        <time>2022-03-08T14:53:14Z</time>
      </trkpt>
      <trkpt lat="43.55791" lon="2.0273">
        <ele>232.4</ele>
        <time>2022-03-08T14:53:15Z</time>
      </trkpt>
      <trkpt lat="43.55792" lon="2.0273">
        <ele>232.4</ele>
        <time>2022-03-08T14:53:16Z</time>
      </trkpt>
      <trkpt lat="43.55793" lon="2.02729">
        <ele>232.3</ele>
        <time>2022-03-08T14:53:17Z</time>
      </trkpt>
      <trkpt lat="43.55794" lon="2.02728">
        <ele>232.3</ele>
        <time>2022-03-08T14:53:18Z</time>
      </trkpt>
      <trkpt lat="43.55795" lon="2.02728">
        <ele>232.3</ele>
        <time>2022-03-08T14:53:19Z</time>
      </trkpt>
      <trkpt lat="43.55796" lon="2.02727">
        <ele>232.3</ele>
        <time>2022-03-08T14:53:21Z</time>
      </trkpt>
      <trkpt lat="43.55797" lon="2.02726">
        <ele>232.3</ele>
        <time>2022-03-08T14:53:23Z</time>
      </trkpt>
      <trkpt lat="43.55798" lon="2.02725">
        <ele>232.3</ele>
        <time>2022-03-08T14:53:24Z</time>
      </trkpt>
      <trkpt lat="43.55799" lon="2.02724">
        <ele>232.3</ele>
        <time>2022-03-08T14:53:25Z</time>
      </trkpt>
      <trkpt lat="43.558" lon="2.02723">
        <ele>232.3</ele>
        <time>2022-03-08T14:53:26Z</time>
      </trkpt>
      <trkpt lat="43.55799" lon="2.02723">
        <ele>232.3</ele>
        <time>2022-03-08T14:53:27Z</time>
      </trkpt>
      <trkpt lat="43.55799" lon="2.02723">
        <ele>232.3</ele>
        <time>2022-03-08T14:53:28Z</time>
      </trkpt>
      <trkpt lat="43.55799" lon="2.02722">
        <ele>232.3</ele>
        <time>2022-03-08T14:53:29Z</time>
      </trkpt>
      <trkpt lat="43.558" lon="2.02721">
        <ele>232.3</ele>
        <time>2022-03-08T14:53:30Z</time>
      </trkpt>
      <trkpt lat="43.558" lon="2.0272">
        <ele>232.3</ele>
        <time>2022-03-08T14:53:31Z</time>
      </trkpt>
      <trkpt lat="43.55801" lon="2.02719">
        <ele>232.3</ele>
        <time>2022-03-08T14:53:32Z</time>
      </trkpt>
      <trkpt lat="43.55802" lon="2.02718">
        <ele>232.3</ele>
        <time>2022-03-08T14:53:33Z</time>
      </trkpt>
      <trkpt lat="43.55803" lon="2.02717">
        <ele>232.3</ele>
        <time>2022-03-08T14:53:34Z</time>
      </trkpt>
      <trkpt lat="43.55805" lon="2.02716">
        <ele>232.3</ele>
        <time>2022-03-08T14:53:36Z</time>
      </trkpt>
      <trkpt lat="43.55805" lon="2.02716">
        <ele>232.3</ele>
        <time>2022-03-08T14:53:37Z</time>
      </trkpt>
      <trkpt lat="43.55806" lon="2.02716">
        <ele>232.3</ele>
        <time>2022-03-08T14:53:38Z</time>
      </trkpt>
      <trkpt lat="43.55806" lon="2.02716">
        <ele>232.3</ele>
        <time>2022-03-08T14:53:39Z</time>
      </trkpt>
      <trkpt lat="43.55807" lon="2.02715">
        <ele>232.3</ele>
        <time>2022-03-08T14:53:40Z</time>
      </trkpt>
      <trkpt lat="43.55809" lon="2.02714">
        <ele>232.3</ele>
        <time>2022-03-08T14:53:41Z</time>
      </trkpt>
      <trkpt lat="43.5581" lon="2.02713">
        <ele>232.3</ele>
        <time>2022-03-08T14:53:42Z</time>
      </trkpt>
      <trkpt lat="43.55811" lon="2.02712">
        <ele>232.3</ele>
        <time>2022-03-08T14:53:43Z</time>
      </trkpt>
      <trkpt lat="43.55812" lon="2.02711">
        <ele>232.3</ele>
        <time>2022-03-08T14:53:45Z</time>
      </trkpt>
      <trkpt lat="43.55812" lon="2.02709">
        <ele>232.3</ele>
        <time>2022-03-08T14:53:46Z</time>
      </trkpt>
      <trkpt lat="43.55813" lon="2.02708">
        <ele>232.3</ele>
        <time>2022-03-08T14:53:47Z</time>
      </trkpt>
      <trkpt lat="43.55814" lon="2.02706">
        <ele>232.3</ele>
        <time>2022-03-08T14:53:49Z</time>
      </trkpt>
      <trkpt lat="43.55815" lon="2.02706">
        <ele>232.3</ele>
        <time>2022-03-08T14:53:50Z</time>
      </trkpt>
      <trkpt lat="43.55816" lon="2.02705">
        <ele>232.3</ele>
        <time>2022-03-08T14:53:51Z</time>
      </trkpt>
      <trkpt lat="43.55818" lon="2.02704">
        <ele>232.3</ele>
        <time>2022-03-08T14:53:52Z</time>
      </trkpt>
      <trkpt lat="43.55821" lon="2.02703">
        <ele>232.3</ele>
        <time>2022-03-08T14:53:53Z</time>
      </trkpt>
      <trkpt lat="43.55822" lon="2.02703">
        <ele>232.3</ele>
        <time>2022-03-08T14:53:54Z</time>
      </trkpt>
      <trkpt lat="43.55823" lon="2.02703">
        <ele>232.3</ele>
        <time>2022-03-08T14:53:55Z</time>
      </trkpt>
      <trkpt lat="43.55825" lon="2.02703">
        <ele>232.3</ele>
        <time>2022-03-08T14:53:57Z</time>
      </trkpt>
      <trkpt lat="43.55826" lon="2.02702">
        <ele>232.3</ele>
        <time>2022-03-08T14:53:58Z</time>
      </trkpt>
      <trkpt lat="43.55828" lon="2.02701">
        <ele>232.3</ele>
        <time>2022-03-08T14:53:59Z</time>
      </trkpt>
      <trkpt lat="43.55831" lon="2.027">
        <ele>232.3</ele>
        <time>2022-03-08T14:54:00Z</time>
      </trkpt>
      <trkpt lat="43.55831" lon="2.02699">
        <ele>232.3</ele>
        <time>2022-03-08T14:54:01Z</time>
      </trkpt>
      <trkpt lat="43.55833" lon="2.02698">
        <ele>232.3</ele>
        <time>2022-03-08T14:54:02Z</time>
      </trkpt>
      <trkpt lat="43.55834" lon="2.02697">
        <ele>232.3</ele>
        <time>2022-03-08T14:54:03Z</time>
      </trkpt>
      <trkpt lat="43.55835" lon="2.02695">
        <ele>232.2</ele>
        <time>2022-03-08T14:54:04Z</time>
      </trkpt>
      <trkpt lat="43.55835" lon="2.02693">
        <ele>232.2</ele>
        <time>2022-03-08T14:54:05Z</time>
      </trkpt>
      <trkpt lat="43.55836" lon="2.02691">
        <ele>232.2</ele>
        <time>2022-03-08T14:54:07Z</time>
      </trkpt>
      <trkpt lat="43.55837" lon="2.02689">
        <ele>232.2</ele>
        <time>2022-03-08T14:54:08Z</time>
      </trkpt>
      <trkpt lat="43.55838" lon="2.02686">
        <ele>232.2</ele>
        <time>2022-03-08T14:54:09Z</time>
      </trkpt>
      <trkpt lat="43.55839" lon="2.02686">
        <ele>232.2</ele>
        <time>2022-03-08T14:54:10Z</time>
      </trkpt>
      <trkpt lat="43.55839" lon="2.02685">
        <ele>232.2</ele>
        <time>2022-03-08T14:54:11Z</time>
      </trkpt>
      <trkpt lat="43.55841" lon="2.02684">
        <ele>232.2</ele>
        <time>2022-03-08T14:54:12Z</time>
      </trkpt>
      <trkpt lat="43.55842" lon="2.02683">
        <ele>232.2</ele>
        <time>2022-03-08T14:54:13Z</time>
      </trkpt>
      <trkpt lat="43.55844" lon="2.02682">
        <ele>232.2</ele>
        <time>2022-03-08T14:54:14Z</time>
      </trkpt>
      <trkpt lat="43.55846" lon="2.02683">
        <ele>232.1</ele>
        <time>2022-03-08T14:54:15Z</time>
      </trkpt>
      <trkpt lat="43.55847" lon="2.02683">
        <ele>232.1</ele>
        <time>2022-03-08T14:54:16Z</time>
      </trkpt>
      <trkpt lat="43.55848" lon="2.02684">
        <ele>232.1</ele>
        <time>2022-03-08T14:54:17Z</time>
      </trkpt>
      <trkpt lat="43.55848" lon="2.02684">
        <ele>232.1</ele>
        <time>2022-03-08T14:54:18Z</time>
      </trkpt>
      <trkpt lat="43.55849" lon="2.02685">
        <ele>232.1</ele>
        <time>2022-03-08T14:54:19Z</time>
      </trkpt>
      <trkpt lat="43.55849" lon="2.02685">
        <ele>232.1</ele>
        <time>2022-03-08T14:54:20Z</time>
      </trkpt>
      <trkpt lat="43.55849" lon="2.02685">
        <ele>232.1</ele>
        <time>2022-03-08T14:54:21Z</time>
      </trkpt>
      <trkpt lat="43.5585" lon="2.02685">
        <ele>232.1</ele>
        <time>2022-03-08T14:54:22Z</time>
      </trkpt>
      <trkpt lat="43.5585" lon="2.02686">
        <ele>232.1</ele>
        <time>2022-03-08T14:54:23Z</time>
      </trkpt>
      <trkpt lat="43.55851" lon="2.02686">
        <ele>232.1</ele>
        <time>2022-03-08T14:54:24Z</time>
      </trkpt>
      <trkpt lat="43.55851" lon="2.02686">
        <ele>232.1</ele>
        <time>2022-03-08T14:54:25Z</time>
      </trkpt>
      <trkpt lat="43.55851" lon="2.02686">
        <ele>232.1</ele>
        <time>2022-03-08T14:54:26Z</time>
      </trkpt>
      <trkpt lat="43.55853" lon="2.02686">
        <ele>232.1</ele>
        <time>2022-03-08T14:54:27Z</time>
      </trkpt>
      <trkpt lat="43.55854" lon="2.02686">
        <ele>232.1</ele>
        <time>2022-03-08T14:54:28Z</time>
      </trkpt>
      <trkpt lat="43.55856" lon="2.02685">
        <ele>232.1</ele>
        <time>2022-03-08T14:54:30Z</time>
      </trkpt>
      <trkpt lat="43.55858" lon="2.02684">
        <ele>232</ele>
        <time>2022-03-08T14:54:32Z</time>
      </trkpt>
      <trkpt lat="43.5586" lon="2.02682">
        <ele>232</ele>
        <time>2022-03-08T14:54:33Z</time>
      </trkpt>
      <trkpt lat="43.5586" lon="2.02681">
        <ele>232</ele>
        <time>2022-03-08T14:54:34Z</time>
      </trkpt>
      <trkpt lat="43.55861" lon="2.0268">
        <ele>232</ele>
        <time>2022-03-08T14:54:35Z</time>
      </trkpt>
      <trkpt lat="43.55862" lon="2.02677">
        <ele>232</ele>
        <time>2022-03-08T14:54:36Z</time>
      </trkpt>
      <trkpt lat="43.55863" lon="2.02675">
        <ele>232</ele>
        <time>2022-03-08T14:54:37Z</time>
      </trkpt>
      <trkpt lat="43.55864" lon="2.02674">
        <ele>232</ele>
        <time>2022-03-08T14:54:38Z</time>
      </trkpt>
      <trkpt lat="43.55865" lon="2.02672">
        <ele>232</ele>
        <time>2022-03-08T14:54:39Z</time>
      </trkpt>
      <trkpt lat="43.55867" lon="2.0267">
        <ele>232</ele>
        <time>2022-03-08T14:54:40Z</time>
      </trkpt>
      <trkpt lat="43.55868" lon="2.02669">
        <ele>232</ele>
        <time>2022-03-08T14:54:41Z</time>
      </trkpt>
      <trkpt lat="43.55869" lon="2.02668">
        <ele>232</ele>
        <time>2022-03-08T14:54:42Z</time>
      </trkpt>
      <trkpt lat="43.5587" lon="2.02667">
        <ele>232</ele>
        <time>2022-03-08T14:54:43Z</time>
      </trkpt>
      <trkpt lat="43.55872" lon="2.02666">
        <ele>232</ele>
        <time>2022-03-08T14:54:45Z</time>
      </trkpt>
      <trkpt lat="43.55873" lon="2.02665">
        <ele>231.9</ele>
        <time>2022-03-08T14:54:46Z</time>
      </trkpt>
      <trkpt lat="43.55874" lon="2.02663">
        <ele>231.9</ele>
        <time>2022-03-08T14:54:47Z</time>
      </trkpt>
      <trkpt lat="43.55875" lon="2.02662">
        <ele>231.9</ele>
        <time>2022-03-08T14:54:48Z</time>
      </trkpt>
      <trkpt lat="43.55877" lon="2.02661">
        <ele>231.9</ele>
        <time>2022-03-08T14:54:50Z</time>
      </trkpt>
      <trkpt lat="43.55878" lon="2.0266">
        <ele>231.9</ele>
        <time>2022-03-08T14:54:51Z</time>
      </trkpt>
      <trkpt lat="43.55879" lon="2.02658">
        <ele>231.9</ele>
        <time>2022-03-08T14:54:52Z</time>
      </trkpt>
      <trkpt lat="43.5588" lon="2.02656">
        <ele>231.9</ele>
        <time>2022-03-08T14:54:54Z</time>
      </trkpt>
      <trkpt lat="43.5588" lon="2.02655">
        <ele>231.9</ele>
        <time>2022-03-08T14:54:55Z</time>
      </trkpt>
      <trkpt lat="43.5588" lon="2.02654">
        <ele>231.9</ele>
        <time>2022-03-08T14:54:56Z</time>
      </trkpt>
      <trkpt lat="43.5588" lon="2.02653">
        <ele>231.9</ele>
        <time>2022-03-08T14:54:57Z</time>
      </trkpt>
      <trkpt lat="43.55881" lon="2.02653">
        <ele>231.9</ele>
        <time>2022-03-08T14:54:58Z</time>
      </trkpt>
      <trkpt lat="43.55881" lon="2.02651">
        <ele>231.9</ele>
        <time>2022-03-08T14:55:00Z</time>
      </trkpt>
      <trkpt lat="43.55882" lon="2.02649">
        <ele>231.9</ele>
        <time>2022-03-08T14:55:01Z</time>
      </trkpt>
      <trkpt lat="43.55883" lon="2.02648">
        <ele>231.9</ele>
        <time>2022-03-08T14:55:02Z</time>
      </trkpt>
      <trkpt lat="43.55883" lon="2.02646">
        <ele>231.9</ele>
        <time>2022-03-08T14:55:04Z</time>
      </trkpt>
      <trkpt lat="43.55884" lon="2.02645">
        <ele>231.9</ele>
        <time>2022-03-08T14:55:05Z</time>
      </trkpt>
      <trkpt lat="43.55884" lon="2.02643">
        <ele>231.9</ele>
        <time>2022-03-08T14:55:06Z</time>
      </trkpt>
      <trkpt lat="43.55885" lon="2.02642">
        <ele>231.9</ele>
        <time>2022-03-08T14:55:07Z</time>
      </trkpt>
      <trkpt lat="43.55886" lon="2.0264">
        <ele>231.9</ele>
        <time>2022-03-08T14:55:08Z</time>
      </trkpt>
      <trkpt lat="43.55887" lon="2.02639">
        <ele>231.8</ele>
        <time>2022-03-08T14:55:09Z</time>
      </trkpt>
      <trkpt lat="43.55889" lon="2.02637">
        <ele>231.8</ele>
        <time>2022-03-08T14:55:10Z</time>
      </trkpt>
      <trkpt lat="43.55891" lon="2.02636">
        <ele>231.8</ele>
        <time>2022-03-08T14:55:11Z</time>
      </trkpt>
      <trkpt lat="43.55893" lon="2.02636">
        <ele>231.8</ele>
        <time>2022-03-08T14:55:13Z</time>
      </trkpt>
      <trkpt lat="43.55893" lon="2.02635">
        <ele>231.8</ele>
        <time>2022-03-08T14:55:14Z</time>
      </trkpt>
      <trkpt lat="43.55894" lon="2.02635">
        <ele>231.8</ele>
        <time>2022-03-08T14:55:15Z</time>
      </trkpt>
      <trkpt lat="43.55895" lon="2.02634">
        <ele>231.8</ele>
        <time>2022-03-08T14:55:16Z</time>
      </trkpt>
      <trkpt lat="43.55897" lon="2.02632">
        <ele>231.8</ele>
        <time>2022-03-08T14:55:17Z</time>
      </trkpt>
      <trkpt lat="43.559" lon="2.0263">
        <ele>231.8</ele>
        <time>2022-03-08T14:55:19Z</time>
      </trkpt>
      <trkpt lat="43.559" lon="2.02629">
        <ele>231.8</ele>
        <time>2022-03-08T14:55:20Z</time>
      </trkpt>
      <trkpt lat="43.55902" lon="2.02627">
        <ele>231.8</ele>
        <time>2022-03-08T14:55:21Z</time>
      </trkpt>
      <trkpt lat="43.55902" lon="2.02625">
        <ele>231.8</ele>
        <time>2022-03-08T14:55:22Z</time>
      </trkpt>
      <trkpt lat="43.55903" lon="2.02624">
        <ele>231.8</ele>
        <time>2022-03-08T14:55:23Z</time>
      </trkpt>
      <trkpt lat="43.55905" lon="2.0262">
        <ele>231.8</ele>
        <time>2022-03-08T14:55:25Z</time>
      </trkpt>
      <trkpt lat="43.55906" lon="2.02618">
        <ele>231.8</ele>
        <time>2022-03-08T14:55:26Z</time>
      </trkpt>
      <trkpt lat="43.55908" lon="2.02616">
        <ele>231.8</ele>
        <time>2022-03-08T14:55:27Z</time>
      </trkpt>
      <trkpt lat="43.5591" lon="2.02612">
        <ele>231.8</ele>
        <time>2022-03-08T14:55:28Z</time>
      </trkpt>
      <trkpt lat="43.55911" lon="2.02611">
        <ele>231.8</ele>
        <time>2022-03-08T14:55:29Z</time>
      </trkpt>
      <trkpt lat="43.55913" lon="2.02608">
        <ele>231.8</ele>
        <time>2022-03-08T14:55:30Z</time>
      </trkpt>
      <trkpt lat="43.55914" lon="2.02606">
        <ele>231.8</ele>
        <time>2022-03-08T14:55:32Z</time>
      </trkpt>
      <trkpt lat="43.55915" lon="2.02605">
        <ele>231.9</ele>
        <time>2022-03-08T14:55:33Z</time>
      </trkpt>
      <trkpt lat="43.55916" lon="2.02604">
        <ele>231.9</ele>
        <time>2022-03-08T14:55:34Z</time>
      </trkpt>
      <trkpt lat="43.55917" lon="2.026">
        <ele>231.9</ele>
        <time>2022-03-08T14:55:35Z</time>
      </trkpt>
      <trkpt lat="43.55918" lon="2.02599">
        <ele>231.9</ele>
        <time>2022-03-08T14:55:36Z</time>
      </trkpt>
      <trkpt lat="43.55918" lon="2.02597">
        <ele>231.9</ele>
        <time>2022-03-08T14:55:37Z</time>
      </trkpt>
      <trkpt lat="43.55919" lon="2.02595">
        <ele>231.9</ele>
        <time>2022-03-08T14:55:38Z</time>
      </trkpt>
      <trkpt lat="43.55919" lon="2.02593">
        <ele>231.9</ele>
        <time>2022-03-08T14:55:39Z</time>
      </trkpt>
      <trkpt lat="43.55919" lon="2.02591">
        <ele>231.9</ele>
        <time>2022-03-08T14:55:40Z</time>
      </trkpt>
      <trkpt lat="43.5592" lon="2.02589">
        <ele>231.9</ele>
        <time>2022-03-08T14:55:42Z</time>
      </trkpt>
      <trkpt lat="43.5592" lon="2.02587">
        <ele>232</ele>
        <time>2022-03-08T14:55:43Z</time>
      </trkpt>
      <trkpt lat="43.5592" lon="2.02585">
        <ele>232</ele>
        <time>2022-03-08T14:55:44Z</time>
      </trkpt>
      <trkpt lat="43.5592" lon="2.02584">
        <ele>232</ele>
        <time>2022-03-08T14:55:45Z</time>
      </trkpt>
      <trkpt lat="43.55919" lon="2.02583">
        <ele>232</ele>
        <time>2022-03-08T14:55:46Z</time>
      </trkpt>
      <trkpt lat="43.55919" lon="2.02581">
        <ele>232</ele>
        <time>2022-03-08T14:55:48Z</time>
      </trkpt>
      <trkpt lat="43.55918" lon="2.0258">
        <ele>232</ele>
        <time>2022-03-08T14:55:49Z</time>
      </trkpt>
      <trkpt lat="43.55918" lon="2.0258">
        <ele>232</ele>
        <time>2022-03-08T14:55:50Z</time>
      </trkpt>
      <trkpt lat="43.55918" lon="2.0258">
        <ele>232</ele>
        <time>2022-03-08T14:55:51Z</time>
      </trkpt>
      <trkpt lat="43.55917" lon="2.0258">
        <ele>232</ele>
        <time>2022-03-08T14:55:52Z</time>
      </trkpt>
      <trkpt lat="43.55916" lon="2.02582">
        <ele>232</ele>
        <time>2022-03-08T14:55:54Z</time>
      </trkpt>
      <trkpt lat="43.55916" lon="2.02582">
        <ele>232</ele>
        <time>2022-03-08T14:55:55Z</time>
      </trkpt>
      <trkpt lat="43.55915" lon="2.02583">
        <ele>232</ele>
        <time>2022-03-08T14:55:56Z</time>
      </trkpt>
      <trkpt lat="43.55915" lon="2.02584">
        <ele>232</ele>
        <time>2022-03-08T14:55:57Z</time>
      </trkpt>
      <trkpt lat="43.55914" lon="2.02585">
        <ele>232</ele>
        <time>2022-03-08T14:55:58Z</time>
      </trkpt>
      <trkpt lat="43.55914" lon="2.02585">
        <ele>232</ele>
        <time>2022-03-08T14:56:00Z</time>
      </trkpt>
      <trkpt lat="43.55913" lon="2.02585">
        <ele>232</ele>
        <time>2022-03-08T14:56:01Z</time>
      </trkpt>
      <trkpt lat="43.55913" lon="2.02585">
        <ele>232</ele>
        <time>2022-03-08T14:56:02Z</time>
      </trkpt>
      <trkpt lat="43.55913" lon="2.02585">
        <ele>232.1</ele>
        <time>2022-03-08T14:56:03Z</time>
      </trkpt>
      <trkpt lat="43.55913" lon="2.02585">
        <ele>232.1</ele>
        <time>2022-03-08T14:56:04Z</time>
      </trkpt>
      <trkpt lat="43.55913" lon="2.02586">
        <ele>232.1</ele>
        <time>2022-03-08T14:56:05Z</time>
      </trkpt>
      <trkpt lat="43.55913" lon="2.02588">
        <ele>232.1</ele>
        <time>2022-03-08T14:56:06Z</time>
      </trkpt>
      <trkpt lat="43.55913" lon="2.02589">
        <ele>232.1</ele>
        <time>2022-03-08T14:56:07Z</time>
      </trkpt>
      <trkpt lat="43.55912" lon="2.0259">
        <ele>232.1</ele>
        <time>2022-03-08T14:56:08Z</time>
      </trkpt>
      <trkpt lat="43.55912" lon="2.02591">
        <ele>232.1</ele>
        <time>2022-03-08T14:56:09Z</time>
      </trkpt>
      <trkpt lat="43.55912" lon="2.02611">
        <ele>232.3</ele>
        <time>2022-03-08T14:56:10Z</time>
      </trkpt>
      <trkpt lat="43.55912" lon="2.02612">
        <ele>232.3</ele>
        <time>2022-03-08T14:56:11Z</time>
      </trkpt>
      <trkpt lat="43.55912" lon="2.02612">
        <ele>232.3</ele>
        <time>2022-03-08T14:56:12Z</time>
      </trkpt>
      <trkpt lat="43.55912" lon="2.02613">
        <ele>232.3</ele>
        <time>2022-03-08T14:56:13Z</time>
      </trkpt>
      <trkpt lat="43.55912" lon="2.02613">
        <ele>232.3</ele>
        <time>2022-03-08T14:56:14Z</time>
      </trkpt>
      <trkpt lat="43.55912" lon="2.02613">
        <ele>232.3</ele>
        <time>2022-03-08T14:56:15Z</time>
      </trkpt>
      <trkpt lat="43.55912" lon="2.02613">
        <ele>232.3</ele>
        <time>2022-03-08T14:56:16Z</time>
      </trkpt>
      <trkpt lat="43.55912" lon="2.02613">
        <ele>232.3</ele>
        <time>2022-03-08T14:56:17Z</time>
      </trkpt>
      <trkpt lat="43.55912" lon="2.02613">
        <ele>232.3</ele>
        <time>2022-03-08T14:56:18Z</time>
      </trkpt>
      <trkpt lat="43.55912" lon="2.02613">
        <ele>232.3</ele>
        <time>2022-03-08T14:56:19Z</time>
      </trkpt>
      <trkpt lat="43.55912" lon="2.02613">
        <ele>232.3</ele>
        <time>2022-03-08T14:56:20Z</time>
      </trkpt>
      <trkpt lat="43.55912" lon="2.02612">
        <ele>232.3</ele>
        <time>2022-03-08T14:56:21Z</time>
      </trkpt>
      <trkpt lat="43.55912" lon="2.02612">
        <ele>232.3</ele>
        <time>2022-03-08T14:56:22Z</time>
      </trkpt>
      <trkpt lat="43.55912" lon="2.02612">
        <ele>232.3</ele>
        <time>2022-03-08T14:56:23Z</time>
      </trkpt>
      <trkpt lat="43.55912" lon="2.02612">
        <ele>232.3</ele>
        <time>2022-03-08T14:56:24Z</time>
      </trkpt>
      <trkpt lat="43.55913" lon="2.02612">
        <ele>232.3</ele>
        <time>2022-03-08T14:56:25Z</time>
      </trkpt>
      <trkpt lat="43.55913" lon="2.02613">
        <ele>232.3</ele>
        <time>2022-03-08T14:56:26Z</time>
      </trkpt>
      <trkpt lat="43.55914" lon="2.02611">
        <ele>232.3</ele>
        <time>2022-03-08T14:56:27Z</time>
      </trkpt>
      <trkpt lat="43.55914" lon="2.02611">
        <ele>232.3</ele>
        <time>2022-03-08T14:56:28Z</time>
      </trkpt>
      <trkpt lat="43.55915" lon="2.0261">
        <ele>232.3</ele>
        <time>2022-03-08T14:56:29Z</time>
      </trkpt>
      <trkpt lat="43.55915" lon="2.0261">
        <ele>232.4</ele>
        <time>2022-03-08T14:56:30Z</time>
      </trkpt>
      <trkpt lat="43.55915" lon="2.02609">
        <ele>232.4</ele>
        <time>2022-03-08T14:56:31Z</time>
      </trkpt>
      <trkpt lat="43.55916" lon="2.02609">
        <ele>232.4</ele>
        <time>2022-03-08T14:56:32Z</time>
      </trkpt>
      <trkpt lat="43.55916" lon="2.02609">
        <ele>232.4</ele>
        <time>2022-03-08T14:56:33Z</time>
      </trkpt>
      <trkpt lat="43.55916" lon="2.02609">
        <ele>232.4</ele>
        <time>2022-03-08T14:56:34Z</time>
      </trkpt>
      <trkpt lat="43.55916" lon="2.02609">
        <ele>232.4</ele>
        <time>2022-03-08T14:56:35Z</time>
      </trkpt>
      <trkpt lat="43.55916" lon="2.02609">
        <ele>232.4</ele>
        <time>2022-03-08T14:56:36Z</time>
      </trkpt>
      <trkpt lat="43.55916" lon="2.02609">
        <ele>232.4</ele>
        <time>2022-03-08T14:56:37Z</time>
      </trkpt>
      <trkpt lat="43.55916" lon="2.02609">
        <ele>232.4</ele>
        <time>2022-03-08T14:56:38Z</time>
      </trkpt>
      <trkpt lat="43.55916" lon="2.02609">
        <ele>232.4</ele>
        <time>2022-03-08T14:56:39Z</time>
      </trkpt>
      <trkpt lat="43.55916" lon="2.02609">
        <ele>232.4</ele>
        <time>2022-03-08T14:56:40Z</time>
      </trkpt>
      <trkpt lat="43.55916" lon="2.02609">
        <ele>232.4</ele>
        <time>2022-03-08T14:56:41Z</time>
      </trkpt>
      <trkpt lat="43.55916" lon="2.02609">
        <ele>232.4</ele>
        <time>2022-03-08T14:56:42Z</time>
      </trkpt>
      <trkpt lat="43.55916" lon="2.02609">
        <ele>232.4</ele>
        <time>2022-03-08T14:56:43Z</time>
      </trkpt>
      <trkpt lat="43.55916" lon="2.02609">
        <ele>232.4</ele>
        <time>2022-03-08T14:56:44Z</time>
      </trkpt>
      <trkpt lat="43.55916" lon="2.02609">
        <ele>232.4</ele>
        <time>2022-03-08T14:56:45Z</time>
      </trkpt>
      <trkpt lat="43.55916" lon="2.02609">
        <ele>232.4</ele>
        <time>2022-03-08T14:56:46Z</time>
      </trkpt>
      <trkpt lat="43.55916" lon="2.02609">
        <ele>232.4</ele>
        <time>2022-03-08T14:56:47Z</time>
      </trkpt>
      <trkpt lat="43.55916" lon="2.02609">
        <ele>232.4</ele>
        <time>2022-03-08T14:56:48Z</time>
      </trkpt>
      <trkpt lat="43.55916" lon="2.02609">
        <ele>232.4</ele>
        <time>2022-03-08T14:56:49Z</time>
      </trkpt>
      <trkpt lat="43.55916" lon="2.02609">
        <ele>232.4</ele>
        <time>2022-03-08T14:56:50Z</time>
      </trkpt>
      <trkpt lat="43.55916" lon="2.02609">
        <ele>232.4</ele>
        <time>2022-03-08T14:56:51Z</time>
      </trkpt>
      <trkpt lat="43.55916" lon="2.02609">
        <ele>232.4</ele>
        <time>2022-03-08T14:56:52Z</time>
      </trkpt>
      <trkpt lat="43.55916" lon="2.02609">
        <ele>232.4</ele>
        <time>2022-03-08T14:56:53Z</time>
      </trkpt>
      <trkpt lat="43.55916" lon="2.02609">
        <ele>232.4</ele>
        <time>2022-03-08T14:56:54Z</time>
      </trkpt>
      <trkpt lat="43.55916" lon="2.02609">
        <ele>232.4</ele>
        <time>2022-03-08T14:56:55Z</time>
      </trkpt>
      <trkpt lat="43.55916" lon="2.02609">
        <ele>232.4</ele>
        <time>2022-03-08T14:56:56Z</time>
      </trkpt>
      <trkpt lat="43.55916" lon="2.02609">
        <ele>232.4</ele>
        <time>2022-03-08T14:56:57Z</time>
      </trkpt>
      <trkpt lat="43.55916" lon="2.02609">
        <ele>232.4</ele>
        <time>2022-03-08T14:56:58Z</time>
      </trkpt>
      <trkpt lat="43.55916" lon="2.02609">
        <ele>232.4</ele>
        <time>2022-03-08T14:56:59Z</time>
      </trkpt>
      <trkpt lat="43.55916" lon="2.02609">
        <ele>232.4</ele>
        <time>2022-03-08T14:57:00Z</time>
      </trkpt>
      <trkpt lat="43.55916" lon="2.02609">
        <ele>232.4</ele>
        <time>2022-03-08T14:57:01Z</time>
      </trkpt>
      <trkpt lat="43.55916" lon="2.02609">
        <ele>232.4</ele>
        <time>2022-03-08T14:57:02Z</time>
      </trkpt>
      <trkpt lat="43.55916" lon="2.02609">
        <ele>232.4</ele>
        <time>2022-03-08T14:57:03Z</time>
      </trkpt>
      <trkpt lat="43.55916" lon="2.02609">
        <ele>232.4</ele>
        <time>2022-03-08T14:57:04Z</time>
      </trkpt>
      <trkpt lat="43.55916" lon="2.02609">
        <ele>232.4</ele>
        <time>2022-03-08T14:57:05Z</time>
      </trkpt>
      <trkpt lat="43.55916" lon="2.02609">
        <ele>232.4</ele>
        <time>2022-03-08T14:57:06Z</time>
      </trkpt>
      <trkpt lat="43.55916" lon="2.02609">
        <ele>232.4</ele>
        <time>2022-03-08T14:57:07Z</time>
      </trkpt>
      <trkpt lat="43.55916" lon="2.02609">
        <ele>232.4</ele>
        <time>2022-03-08T14:57:08Z</time>
      </trkpt>
      <trkpt lat="43.55916" lon="2.02609">
        <ele>232.4</ele>
        <time>2022-03-08T14:57:09Z</time>
      </trkpt>
      <trkpt lat="43.55916" lon="2.02609">
        <ele>232.4</ele>
        <time>2022-03-08T14:57:10Z</time>
      </trkpt>
      <trkpt lat="43.55916" lon="2.02609">
        <ele>232.4</ele>
        <time>2022-03-08T14:57:11Z</time>
      </trkpt>
      <trkpt lat="43.55916" lon="2.02609">
        <ele>232.4</ele>
        <time>2022-03-08T14:57:12Z</time>
      </trkpt>
      <trkpt lat="43.55916" lon="2.02609">
        <ele>232.4</ele>
        <time>2022-03-08T14:57:14Z</time>
      </trkpt>
      <trkpt lat="43.55916" lon="2.02609">
        <ele>232.4</ele>
        <time>2022-03-08T14:57:15Z</time>
      </trkpt>
      <trkpt lat="43.55916" lon="2.02609">
        <ele>232.4</ele>
        <time>2022-03-08T14:57:16Z</time>
      </trkpt>
      <trkpt lat="43.55916" lon="2.02609">
        <ele>232.4</ele>
        <time>2022-03-08T14:57:17Z</time>
      </trkpt>
      <trkpt lat="43.55916" lon="2.02608">
        <ele>232.4</ele>
        <time>2022-03-08T14:57:19Z</time>
      </trkpt>
      <trkpt lat="43.55916" lon="2.02608">
        <ele>232.4</ele>
        <time>2022-03-08T14:57:20Z</time>
      </trkpt>
      <trkpt lat="43.55916" lon="2.02608">
        <ele>232.4</ele>
        <time>2022-03-08T14:57:21Z</time>
      </trkpt>
      <trkpt lat="43.55917" lon="2.02609">
        <ele>232.4</ele>
        <time>2022-03-08T14:57:22Z</time>
      </trkpt>
      <trkpt lat="43.55917" lon="2.02609">
        <ele>232.4</ele>
        <time>2022-03-08T14:57:23Z</time>
      </trkpt>
      <trkpt lat="43.55917" lon="2.02609">
        <ele>232.4</ele>
        <time>2022-03-08T14:57:24Z</time>
      </trkpt>
      <trkpt lat="43.55917" lon="2.02609">
        <ele>232.4</ele>
        <time>2022-03-08T14:57:25Z</time>
      </trkpt>
      <trkpt lat="43.55917" lon="2.02609">
        <ele>232.4</ele>
        <time>2022-03-08T14:57:26Z</time>
      </trkpt>
      <trkpt lat="43.55917" lon="2.02609">
        <ele>232.4</ele>
        <time>2022-03-08T14:57:27Z</time>
      </trkpt>
      <trkpt lat="43.55918" lon="2.02609">
        <ele>232.4</ele>
        <time>2022-03-08T14:57:28Z</time>
      </trkpt>
      <trkpt lat="43.55918" lon="2.02609">
        <ele>232.4</ele>
        <time>2022-03-08T14:57:29Z</time>
      </trkpt>
      <trkpt lat="43.55918" lon="2.02609">
        <ele>232.4</ele>
        <time>2022-03-08T14:57:30Z</time>
      </trkpt>
      <trkpt lat="43.55918" lon="2.02609">
        <ele>232.4</ele>
        <time>2022-03-08T14:57:31Z</time>
      </trkpt>
      <trkpt lat="43.55918" lon="2.02609">
        <ele>232.4</ele>
        <time>2022-03-08T14:57:32Z</time>
      </trkpt>
      <trkpt lat="43.55918" lon="2.02609">
        <ele>232.4</ele>
        <time>2022-03-08T14:57:33Z</time>
      </trkpt>
      <trkpt lat="43.55918" lon="2.02609">
        <ele>232.4</ele>
        <time>2022-03-08T14:57:34Z</time>
      </trkpt>
      <trkpt lat="43.55918" lon="2.02609">
        <ele>232.4</ele>
        <time>2022-03-08T14:57:35Z</time>
      </trkpt>
      <trkpt lat="43.55918" lon="2.02609">
        <ele>232.4</ele>
        <time>2022-03-08T14:57:36Z</time>
      </trkpt>
      <trkpt lat="43.55918" lon="2.02609">
        <ele>232.4</ele>
        <time>2022-03-08T14:57:37Z</time>
      </trkpt>
      <trkpt lat="43.55918" lon="2.02609">
        <ele>232.4</ele>
        <time>2022-03-08T14:57:38Z</time>
      </trkpt>
      <trkpt lat="43.55918" lon="2.02609">
        <ele>232.4</ele>
        <time>2022-03-08T14:57:39Z</time>
      </trkpt>
      <trkpt lat="43.55918" lon="2.02609">
        <ele>232.4</ele>
        <time>2022-03-08T14:57:40Z</time>
      </trkpt>
      <trkpt lat="43.55918" lon="2.02609">
        <ele>232.4</ele>
        <time>2022-03-08T14:57:41Z</time>
      </trkpt>
      <trkpt lat="43.55918" lon="2.02609">
        <ele>232.4</ele>
        <time>2022-03-08T14:57:42Z</time>
      </trkpt>
      <trkpt lat="43.55919" lon="2.02607">
        <ele>232.4</ele>
        <time>2022-03-08T14:57:43Z</time>
      </trkpt>
      <trkpt lat="43.55918" lon="2.02606">
        <ele>232.4</ele>
        <time>2022-03-08T14:57:44Z</time>
      </trkpt>
      <trkpt lat="43.55918" lon="2.02606">
        <ele>232.4</ele>
        <time>2022-03-08T14:57:45Z</time>
      </trkpt>
      <trkpt lat="43.55918" lon="2.02606">
        <ele>232.4</ele>
        <time>2022-03-08T14:57:46Z</time>
      </trkpt>
      <trkpt lat="43.55918" lon="2.02606">
        <ele>232.4</ele>
        <time>2022-03-08T14:57:47Z</time>
      </trkpt>
      <trkpt lat="43.55918" lon="2.02606">
        <ele>232.4</ele>
        <time>2022-03-08T14:57:48Z</time>
      </trkpt>
      <trkpt lat="43.55918" lon="2.02606">
        <ele>232.4</ele>
        <time>2022-03-08T14:57:49Z</time>
      </trkpt>
      <trkpt lat="43.55918" lon="2.02606">
        <ele>232.4</ele>
        <time>2022-03-08T14:57:50Z</time>
      </trkpt>
      <trkpt lat="43.55918" lon="2.02606">
        <ele>232.4</ele>
        <time>2022-03-08T14:57:51Z</time>
      </trkpt>
      <trkpt lat="43.55918" lon="2.02606">
        <ele>232.4</ele>
        <time>2022-03-08T14:57:52Z</time>
      </trkpt>
      <trkpt lat="43.55918" lon="2.02606">
        <ele>232.4</ele>
        <time>2022-03-08T14:57:53Z</time>
      </trkpt>
      <trkpt lat="43.55918" lon="2.02606">
        <ele>232.4</ele>
        <time>2022-03-08T14:57:54Z</time>
      </trkpt>
      <trkpt lat="43.55918" lon="2.02606">
        <ele>232.4</ele>
        <time>2022-03-08T14:57:55Z</time>
      </trkpt>
      <trkpt lat="43.55918" lon="2.02606">
        <ele>232.4</ele>
        <time>2022-03-08T14:57:56Z</time>
      </trkpt>
      <trkpt lat="43.55918" lon="2.02606">
        <ele>232.4</ele>
        <time>2022-03-08T14:57:57Z</time>
      </trkpt>
      <trkpt lat="43.55918" lon="2.02605">
        <ele>232.4</ele>
        <time>2022-03-08T14:57:58Z</time>
      </trkpt>
      <trkpt lat="43.55918" lon="2.02604">
        <ele>232.4</ele>
        <time>2022-03-08T14:57:59Z</time>
      </trkpt>
      <trkpt lat="43.55918" lon="2.02604">
        <ele>232.4</ele>
        <time>2022-03-08T14:58:00Z</time>
      </trkpt>
      <trkpt lat="43.55917" lon="2.02604">
        <ele>232.4</ele>
        <time>2022-03-08T14:58:01Z</time>
      </trkpt>
      <trkpt lat="43.55916" lon="2.02604">
        <ele>232.5</ele>
        <time>2022-03-08T14:58:03Z</time>
      </trkpt>
      <trkpt lat="43.55915" lon="2.02605">
        <ele>232.5</ele>
        <time>2022-03-08T14:58:04Z</time>
      </trkpt>
      <trkpt lat="43.55915" lon="2.02605">
        <ele>232.5</ele>
        <time>2022-03-08T14:58:05Z</time>
      </trkpt>
      <trkpt lat="43.55915" lon="2.02605">
        <ele>232.5</ele>
        <time>2022-03-08T14:58:06Z</time>
      </trkpt>
      <trkpt lat="43.55915" lon="2.02605">
        <ele>232.5</ele>
        <time>2022-03-08T14:58:08Z</time>
      </trkpt>
      <trkpt lat="43.55915" lon="2.02605">
        <ele>232.5</ele>
        <time>2022-03-08T14:58:09Z</time>
      </trkpt>
      <trkpt lat="43.55915" lon="2.02605">
        <ele>232.5</ele>
        <time>2022-03-08T14:58:10Z</time>
      </trkpt>
      <trkpt lat="43.55915" lon="2.02605">
        <ele>232.5</ele>
        <time>2022-03-08T14:58:11Z</time>
      </trkpt>
      <trkpt lat="43.55915" lon="2.02605">
        <ele>232.5</ele>
        <time>2022-03-08T14:58:12Z</time>
      </trkpt>
      <trkpt lat="43.55915" lon="2.02605">
        <ele>232.5</ele>
        <time>2022-03-08T14:58:14Z</time>
      </trkpt>
      <trkpt lat="43.55915" lon="2.02605">
        <ele>232.5</ele>
        <time>2022-03-08T14:58:15Z</time>
      </trkpt>
      <trkpt lat="43.55915" lon="2.02605">
        <ele>232.5</ele>
        <time>2022-03-08T14:58:16Z</time>
      </trkpt>
      <trkpt lat="43.55915" lon="2.02605">
        <ele>232.5</ele>
        <time>2022-03-08T14:58:17Z</time>
      </trkpt>
      <trkpt lat="43.55915" lon="2.02604">
        <ele>232.5</ele>
        <time>2022-03-08T14:58:18Z</time>
      </trkpt>
      <trkpt lat="43.55915" lon="2.02604">
        <ele>232.5</ele>
        <time>2022-03-08T14:58:20Z</time>
      </trkpt>
      <trkpt lat="43.55915" lon="2.02604">
        <ele>232.5</ele>
        <time>2022-03-08T14:58:21Z</time>
      </trkpt>
      <trkpt lat="43.55915" lon="2.02604">
        <ele>232.5</ele>
        <time>2022-03-08T14:58:22Z</time>
      </trkpt>
      <trkpt lat="43.55915" lon="2.02604">
        <ele>232.5</ele>
        <time>2022-03-08T14:58:23Z</time>
      </trkpt>
      <trkpt lat="43.55915" lon="2.02604">
        <ele>232.5</ele>
        <time>2022-03-08T14:58:24Z</time>
      </trkpt>
      <trkpt lat="43.55916" lon="2.02604">
        <ele>232.5</ele>
        <time>2022-03-08T14:58:26Z</time>
      </trkpt>
      <trkpt lat="43.55915" lon="2.02603">
        <ele>232.5</ele>
        <time>2022-03-08T14:58:27Z</time>
      </trkpt>
      <trkpt lat="43.55915" lon="2.02602">
        <ele>232.5</ele>
        <time>2022-03-08T14:58:28Z</time>
      </trkpt>
      <trkpt lat="43.55914" lon="2.02601">
        <ele>232.5</ele>
        <time>2022-03-08T14:58:30Z</time>
      </trkpt>
      <trkpt lat="43.55914" lon="2.026">
        <ele>232.5</ele>
        <time>2022-03-08T14:58:31Z</time>
      </trkpt>
      <trkpt lat="43.55914" lon="2.02598">
        <ele>232.5</ele>
        <time>2022-03-08T14:58:32Z</time>
      </trkpt>
      <trkpt lat="43.55914" lon="2.02598">
        <ele>232.4</ele>
        <time>2022-03-08T14:58:33Z</time>
      </trkpt>
      <trkpt lat="43.55914" lon="2.02597">
        <ele>232.4</ele>
        <time>2022-03-08T14:58:35Z</time>
      </trkpt>
      <trkpt lat="43.55914" lon="2.02597">
        <ele>232.4</ele>
        <time>2022-03-08T14:58:36Z</time>
      </trkpt>
      <trkpt lat="43.55913" lon="2.02596">
        <ele>232.4</ele>
        <time>2022-03-08T14:58:37Z</time>
      </trkpt>
      <trkpt lat="43.55912" lon="2.02594">
        <ele>232.4</ele>
        <time>2022-03-08T14:58:38Z</time>
      </trkpt>
      <trkpt lat="43.55911" lon="2.02593">
        <ele>232.4</ele>
        <time>2022-03-08T14:58:39Z</time>
      </trkpt>
      <trkpt lat="43.55909" lon="2.02591">
        <ele>232.4</ele>
        <time>2022-03-08T14:58:41Z</time>
      </trkpt>
      <trkpt lat="43.55906" lon="2.02587">
        <ele>232.4</ele>
        <time>2022-03-08T14:58:42Z</time>
      </trkpt>
      <trkpt lat="43.55905" lon="2.02586">
        <ele>232.4</ele>
        <time>2022-03-08T14:58:43Z</time>
      </trkpt>
      <trkpt lat="43.55903" lon="2.02583">
        <ele>232.4</ele>
        <time>2022-03-08T14:58:44Z</time>
      </trkpt>
      <trkpt lat="43.55902" lon="2.02582">
        <ele>232.4</ele>
        <time>2022-03-08T14:58:45Z</time>
      </trkpt>
      <trkpt lat="43.55901" lon="2.02581">
        <ele>232.4</ele>
        <time>2022-03-08T14:58:46Z</time>
      </trkpt>
      <trkpt lat="43.559" lon="2.02579">
        <ele>232.4</ele>
        <time>2022-03-08T14:58:47Z</time>
      </trkpt>
      <trkpt lat="43.55899" lon="2.02578">
        <ele>232.4</ele>
        <time>2022-03-08T14:58:48Z</time>
      </trkpt>
      <trkpt lat="43.55899" lon="2.02576">
        <ele>232.4</ele>
        <time>2022-03-08T14:58:49Z</time>
      </trkpt>
      <trkpt lat="43.55898" lon="2.02575">
        <ele>232.4</ele>
        <time>2022-03-08T14:58:50Z</time>
      </trkpt>
      <trkpt lat="43.55897" lon="2.02574">
        <ele>232.4</ele>
        <time>2022-03-08T14:58:51Z</time>
      </trkpt>
      <trkpt lat="43.55897" lon="2.02572">
        <ele>232.4</ele>
        <time>2022-03-08T14:58:52Z</time>
      </trkpt>
      <trkpt lat="43.55896" lon="2.02571">
        <ele>232.4</ele>
        <time>2022-03-08T14:58:53Z</time>
      </trkpt>
      <trkpt lat="43.55895" lon="2.02569">
        <ele>232.5</ele>
        <time>2022-03-08T14:58:54Z</time>
      </trkpt>
      <trkpt lat="43.55894" lon="2.02568">
        <ele>232.5</ele>
        <time>2022-03-08T14:58:55Z</time>
      </trkpt>
      <trkpt lat="43.55891" lon="2.02565">
        <ele>232.5</ele>
        <time>2022-03-08T14:58:56Z</time>
      </trkpt>
      <trkpt lat="43.55891" lon="2.02564">
        <ele>232.5</ele>
        <time>2022-03-08T14:58:57Z</time>
      </trkpt>
      <trkpt lat="43.5589" lon="2.02563">
        <ele>232.5</ele>
        <time>2022-03-08T14:58:58Z</time>
      </trkpt>
      <trkpt lat="43.55888" lon="2.02562">
        <ele>232.5</ele>
        <time>2022-03-08T14:59:00Z</time>
      </trkpt>
      <trkpt lat="43.55887" lon="2.0256">
        <ele>232.5</ele>
        <time>2022-03-08T14:59:01Z</time>
      </trkpt>
      <trkpt lat="43.55887" lon="2.02559">
        <ele>232.5</ele>
        <time>2022-03-08T14:59:02Z</time>
      </trkpt>
      <trkpt lat="43.55887" lon="2.02559">
        <ele>232.5</ele>
        <time>2022-03-08T14:59:03Z</time>
      </trkpt>
      <trkpt lat="43.55887" lon="2.02559">
        <ele>232.5</ele>
        <time>2022-03-08T14:59:04Z</time>
      </trkpt>
      <trkpt lat="43.55887" lon="2.02559">
        <ele>232.5</ele>
        <time>2022-03-08T14:59:05Z</time>
      </trkpt>
      <trkpt lat="43.55887" lon="2.02559">
        <ele>232.5</ele>
        <time>2022-03-08T14:59:06Z</time>
      </trkpt>
      <trkpt lat="43.55887" lon="2.02559">
        <ele>232.5</ele>
        <time>2022-03-08T14:59:07Z</time>
      </trkpt>
      <trkpt lat="43.55887" lon="2.02558">
        <ele>232.5</ele>
        <time>2022-03-08T14:59:08Z</time>
      </trkpt>
      <trkpt lat="43.55887" lon="2.02558">
        <ele>232.5</ele>
        <time>2022-03-08T14:59:09Z</time>
      </trkpt>
      <trkpt lat="43.55887" lon="2.02556">
        <ele>232.5</ele>
        <time>2022-03-08T14:59:10Z</time>
      </trkpt>
      <trkpt lat="43.55886" lon="2.02555">
        <ele>232.5</ele>
        <time>2022-03-08T14:59:12Z</time>
      </trkpt>
      <trkpt lat="43.55886" lon="2.02554">
        <ele>232.5</ele>
        <time>2022-03-08T14:59:13Z</time>
      </trkpt>
      <trkpt lat="43.55885" lon="2.02553">
        <ele>232.5</ele>
        <time>2022-03-08T14:59:14Z</time>
      </trkpt>
      <trkpt lat="43.55885" lon="2.0255">
        <ele>232.5</ele>
        <time>2022-03-08T14:59:15Z</time>
      </trkpt>
      <trkpt lat="43.55885" lon="2.02549">
        <ele>232.5</ele>
        <time>2022-03-08T14:59:16Z</time>
      </trkpt>
      <trkpt lat="43.55884" lon="2.02547">
        <ele>232.6</ele>
        <time>2022-03-08T14:59:17Z</time>
      </trkpt>
      <trkpt lat="43.55884" lon="2.02545">
        <ele>232.6</ele>
        <time>2022-03-08T14:59:18Z</time>
      </trkpt>
      <trkpt lat="43.55885" lon="2.02543">
        <ele>232.7</ele>
        <time>2022-03-08T14:59:19Z</time>
      </trkpt>
      <trkpt lat="43.55886" lon="2.0254">
        <ele>232.8</ele>
        <time>2022-03-08T14:59:20Z</time>
      </trkpt>
      <trkpt lat="43.55888" lon="2.02537">
        <ele>232.9</ele>
        <time>2022-03-08T14:59:22Z</time>
      </trkpt>
      <trkpt lat="43.5589" lon="2.02535">
        <ele>233</ele>
        <time>2022-03-08T14:59:23Z</time>
      </trkpt>
      <trkpt lat="43.55893" lon="2.02532">
        <ele>233.1</ele>
        <time>2022-03-08T14:59:24Z</time>
      </trkpt>
      <trkpt lat="43.55894" lon="2.02531">
        <ele>233.2</ele>
        <time>2022-03-08T14:59:25Z</time>
      </trkpt>
      <trkpt lat="43.55896" lon="2.0253">
        <ele>233.3</ele>
        <time>2022-03-08T14:59:26Z</time>
      </trkpt>
      <trkpt lat="43.55897" lon="2.02529">
        <ele>233.4</ele>
        <time>2022-03-08T14:59:27Z</time>
      </trkpt>
      <trkpt lat="43.55899" lon="2.02528">
        <ele>233.4</ele>
        <time>2022-03-08T14:59:28Z</time>
      </trkpt>
      <trkpt lat="43.559" lon="2.02527">
        <ele>233.5</ele>
        <time>2022-03-08T14:59:30Z</time>
      </trkpt>
      <trkpt lat="43.55902" lon="2.02526">
        <ele>233.6</ele>
        <time>2022-03-08T14:59:31Z</time>
      </trkpt>
      <trkpt lat="43.55904" lon="2.02525">
        <ele>233.7</ele>
        <time>2022-03-08T14:59:32Z</time>
      </trkpt>
      <trkpt lat="43.55905" lon="2.02524">
        <ele>233.8</ele>
        <time>2022-03-08T14:59:33Z</time>
      </trkpt>
      <trkpt lat="43.55906" lon="2.02525">
        <ele>233.9</ele>
        <time>2022-03-08T14:59:34Z</time>
      </trkpt>
      <trkpt lat="43.55908" lon="2.02524">
        <ele>234</ele>
        <time>2022-03-08T14:59:35Z</time>
      </trkpt>
      <trkpt lat="43.5591" lon="2.02524">
        <ele>234.1</ele>
        <time>2022-03-08T14:59:37Z</time>
      </trkpt>
      <trkpt lat="43.55912" lon="2.02523">
        <ele>234.2</ele>
        <time>2022-03-08T14:59:38Z</time>
      </trkpt>
      <trkpt lat="43.55914" lon="2.02523">
        <ele>234.3</ele>
        <time>2022-03-08T14:59:39Z</time>
      </trkpt>
      <trkpt lat="43.55915" lon="2.02523">
        <ele>234.4</ele>
        <time>2022-03-08T14:59:40Z</time>
      </trkpt>
      <trkpt lat="43.55917" lon="2.02523">
        <ele>234.5</ele>
        <time>2022-03-08T14:59:41Z</time>
      </trkpt>
      <trkpt lat="43.55918" lon="2.02522">
        <ele>234.6</ele>
        <time>2022-03-08T14:59:43Z</time>
      </trkpt>
      <trkpt lat="43.55919" lon="2.02521">
        <ele>234.7</ele>
        <time>2022-03-08T14:59:44Z</time>
      </trkpt>
      <trkpt lat="43.5592" lon="2.02521">
        <ele>234.8</ele>
        <time>2022-03-08T14:59:45Z</time>
      </trkpt>
      <trkpt lat="43.55922" lon="2.0252">
        <ele>234.8</ele>
        <time>2022-03-08T14:59:46Z</time>
      </trkpt>
      <trkpt lat="43.55924" lon="2.02519">
        <ele>235</ele>
        <time>2022-03-08T14:59:47Z</time>
      </trkpt>
      <trkpt lat="43.55925" lon="2.02518">
        <ele>235</ele>
        <time>2022-03-08T14:59:49Z</time>
      </trkpt>
      <trkpt lat="43.55925" lon="2.02517">
        <ele>235.1</ele>
        <time>2022-03-08T14:59:50Z</time>
      </trkpt>
      <trkpt lat="43.55927" lon="2.02516">
        <ele>235.2</ele>
        <time>2022-03-08T14:59:51Z</time>
      </trkpt>
      <trkpt lat="43.55928" lon="2.02516">
        <ele>235.2</ele>
        <time>2022-03-08T14:59:52Z</time>
      </trkpt>
      <trkpt lat="43.55928" lon="2.02515">
        <ele>235.3</ele>
        <time>2022-03-08T14:59:53Z</time>
      </trkpt>
      <trkpt lat="43.55929" lon="2.02514">
        <ele>235.3</ele>
        <time>2022-03-08T14:59:54Z</time>
      </trkpt>
      <trkpt lat="43.5593" lon="2.02513">
        <ele>235.4</ele>
        <time>2022-03-08T14:59:55Z</time>
      </trkpt>
      <trkpt lat="43.55931" lon="2.02512">
        <ele>235.5</ele>
        <time>2022-03-08T14:59:56Z</time>
      </trkpt>
      <trkpt lat="43.55932" lon="2.02511">
        <ele>235.6</ele>
        <time>2022-03-08T14:59:57Z</time>
      </trkpt>
      <trkpt lat="43.55933" lon="2.02511">
        <ele>235.6</ele>
        <time>2022-03-08T14:59:58Z</time>
      </trkpt>
      <trkpt lat="43.55934" lon="2.0251">
        <ele>235.7</ele>
        <time>2022-03-08T14:59:59Z</time>
      </trkpt>
      <trkpt lat="43.55935" lon="2.0251">
        <ele>235.8</ele>
        <time>2022-03-08T15:00:01Z</time>
      </trkpt>
      <trkpt lat="43.55937" lon="2.0251">
        <ele>235.9</ele>
        <time>2022-03-08T15:00:02Z</time>
      </trkpt>
      <trkpt lat="43.55938" lon="2.02508">
        <ele>236</ele>
        <time>2022-03-08T15:00:03Z</time>
      </trkpt>
      <trkpt lat="43.5594" lon="2.02507">
        <ele>236.1</ele>
        <time>2022-03-08T15:00:04Z</time>
      </trkpt>
      <trkpt lat="43.55941" lon="2.02505">
        <ele>236.2</ele>
        <time>2022-03-08T15:00:05Z</time>
      </trkpt>
      <trkpt lat="43.55942" lon="2.02503">
        <ele>236.2</ele>
        <time>2022-03-08T15:00:07Z</time>
      </trkpt>
      <trkpt lat="43.55943" lon="2.02501">
        <ele>236.3</ele>
        <time>2022-03-08T15:00:08Z</time>
      </trkpt>
      <trkpt lat="43.55943" lon="2.025">
        <ele>236.4</ele>
        <time>2022-03-08T15:00:09Z</time>
      </trkpt>
      <trkpt lat="43.55944" lon="2.02499">
        <ele>236.5</ele>
        <time>2022-03-08T15:00:10Z</time>
      </trkpt>
      <trkpt lat="43.55944" lon="2.02497">
        <ele>236.5</ele>
        <time>2022-03-08T15:00:11Z</time>
      </trkpt>
      <trkpt lat="43.55945" lon="2.02496">
        <ele>236.6</ele>
        <time>2022-03-08T15:00:12Z</time>
      </trkpt>
      <trkpt lat="43.55946" lon="2.02494">
        <ele>236.7</ele>
        <time>2022-03-08T15:00:13Z</time>
      </trkpt>
      <trkpt lat="43.55947" lon="2.02494">
        <ele>236.7</ele>
        <time>2022-03-08T15:00:14Z</time>
      </trkpt>
      <trkpt lat="43.55947" lon="2.02494">
        <ele>236.7</ele>
        <time>2022-03-08T15:00:16Z</time>
      </trkpt>
      <trkpt lat="43.55948" lon="2.02493">
        <ele>236.8</ele>
        <time>2022-03-08T15:00:17Z</time>
      </trkpt>
      <trkpt lat="43.55949" lon="2.02492">
        <ele>236.9</ele>
        <time>2022-03-08T15:00:18Z</time>
      </trkpt>
      <trkpt lat="43.5595" lon="2.0249">
        <ele>237</ele>
        <time>2022-03-08T15:00:19Z</time>
      </trkpt>
      <trkpt lat="43.55951" lon="2.02489">
        <ele>237</ele>
        <time>2022-03-08T15:00:21Z</time>
      </trkpt>
      <trkpt lat="43.55951" lon="2.02488">
        <ele>237.1</ele>
        <time>2022-03-08T15:00:22Z</time>
      </trkpt>
      <trkpt lat="43.55952" lon="2.02487">
        <ele>237.2</ele>
        <time>2022-03-08T15:00:23Z</time>
      </trkpt>
      <trkpt lat="43.55953" lon="2.02486">
        <ele>237.3</ele>
        <time>2022-03-08T15:00:24Z</time>
      </trkpt>
      <trkpt lat="43.55955" lon="2.02483">
        <ele>237.4</ele>
        <time>2022-03-08T15:00:26Z</time>
      </trkpt>
      <trkpt lat="43.55956" lon="2.02483">
        <ele>237.5</ele>
        <time>2022-03-08T15:00:27Z</time>
      </trkpt>
      <trkpt lat="43.55957" lon="2.02482">
        <ele>237.5</ele>
        <time>2022-03-08T15:00:28Z</time>
      </trkpt>
      <trkpt lat="43.55958" lon="2.02481">
        <ele>237.6</ele>
        <time>2022-03-08T15:00:29Z</time>
      </trkpt>
      <trkpt lat="43.55959" lon="2.02481">
        <ele>237.7</ele>
        <time>2022-03-08T15:00:30Z</time>
      </trkpt>
      <trkpt lat="43.55961" lon="2.02479">
        <ele>237.9</ele>
        <time>2022-03-08T15:00:32Z</time>
      </trkpt>
      <trkpt lat="43.55962" lon="2.02478">
        <ele>237.9</ele>
        <time>2022-03-08T15:00:33Z</time>
      </trkpt>
      <trkpt lat="43.55963" lon="2.02477">
        <ele>238</ele>
        <time>2022-03-08T15:00:34Z</time>
      </trkpt>
      <trkpt lat="43.55964" lon="2.02477">
        <ele>238</ele>
        <time>2022-03-08T15:00:35Z</time>
      </trkpt>
      <trkpt lat="43.55965" lon="2.02476">
        <ele>238.1</ele>
        <time>2022-03-08T15:00:36Z</time>
      </trkpt>
      <trkpt lat="43.55966" lon="2.02474">
        <ele>238.2</ele>
        <time>2022-03-08T15:00:38Z</time>
      </trkpt>
      <trkpt lat="43.55967" lon="2.02473">
        <ele>238.3</ele>
        <time>2022-03-08T15:00:39Z</time>
      </trkpt>
      <trkpt lat="43.55968" lon="2.02472">
        <ele>238.4</ele>
        <time>2022-03-08T15:00:40Z</time>
      </trkpt>
      <trkpt lat="43.55969" lon="2.02471">
        <ele>238.5</ele>
        <time>2022-03-08T15:00:41Z</time>
      </trkpt>
      <trkpt lat="43.5597" lon="2.0247">
        <ele>238.6</ele>
        <time>2022-03-08T15:00:42Z</time>
      </trkpt>
      <trkpt lat="43.55971" lon="2.02469">
        <ele>238.6</ele>
        <time>2022-03-08T15:00:44Z</time>
      </trkpt>
      <trkpt lat="43.55972" lon="2.02468">
        <ele>238.7</ele>
        <time>2022-03-08T15:00:45Z</time>
      </trkpt>
      <trkpt lat="43.55973" lon="2.02467">
        <ele>238.8</ele>
        <time>2022-03-08T15:00:46Z</time>
      </trkpt>
      <trkpt lat="43.55976" lon="2.02465">
        <ele>239</ele>
        <time>2022-03-08T15:00:48Z</time>
      </trkpt>
      <trkpt lat="43.55976" lon="2.02464">
        <ele>239</ele>
        <time>2022-03-08T15:00:49Z</time>
      </trkpt>
      <trkpt lat="43.55977" lon="2.02464">
        <ele>239.1</ele>
        <time>2022-03-08T15:00:50Z</time>
      </trkpt>
      <trkpt lat="43.55979" lon="2.02463">
        <ele>239.2</ele>
        <time>2022-03-08T15:00:51Z</time>
      </trkpt>
      <trkpt lat="43.5598" lon="2.02463">
        <ele>239.3</ele>
        <time>2022-03-08T15:00:53Z</time>
      </trkpt>
      <trkpt lat="43.55982" lon="2.02462">
        <ele>239.4</ele>
        <time>2022-03-08T15:00:54Z</time>
      </trkpt>
      <trkpt lat="43.55983" lon="2.02462">
        <ele>239.4</ele>
        <time>2022-03-08T15:00:55Z</time>
      </trkpt>
      <trkpt lat="43.55983" lon="2.02461">
        <ele>239.5</ele>
        <time>2022-03-08T15:00:56Z</time>
      </trkpt>
      <trkpt lat="43.55984" lon="2.02461">
        <ele>239.5</ele>
        <time>2022-03-08T15:00:58Z</time>
      </trkpt>
      <trkpt lat="43.55985" lon="2.02461">
        <ele>239.6</ele>
        <time>2022-03-08T15:00:59Z</time>
      </trkpt>
      <trkpt lat="43.55985" lon="2.0246">
        <ele>239.6</ele>
        <time>2022-03-08T15:01:00Z</time>
      </trkpt>
      <trkpt lat="43.55986" lon="2.0246">
        <ele>239.7</ele>
        <time>2022-03-08T15:01:02Z</time>
      </trkpt>
      <trkpt lat="43.55987" lon="2.02459">
        <ele>239.7</ele>
        <time>2022-03-08T15:01:03Z</time>
      </trkpt>
      <trkpt lat="43.55989" lon="2.02458">
        <ele>239.9</ele>
        <time>2022-03-08T15:01:04Z</time>
      </trkpt>
      <trkpt lat="43.5599" lon="2.02457">
        <ele>239.9</ele>
        <time>2022-03-08T15:01:05Z</time>
      </trkpt>
      <trkpt lat="43.55991" lon="2.02457">
        <ele>240</ele>
        <time>2022-03-08T15:01:06Z</time>
      </trkpt>
      <trkpt lat="43.55993" lon="2.02455">
        <ele>240.1</ele>
        <time>2022-03-08T15:01:08Z</time>
      </trkpt>
      <trkpt lat="43.55993" lon="2.02455">
        <ele>240.1</ele>
        <time>2022-03-08T15:01:09Z</time>
      </trkpt>
      <trkpt lat="43.55994" lon="2.02454">
        <ele>240.1</ele>
        <time>2022-03-08T15:01:10Z</time>
      </trkpt>
      <trkpt lat="43.55995" lon="2.02453">
        <ele>240.2</ele>
        <time>2022-03-08T15:01:11Z</time>
      </trkpt>
      <trkpt lat="43.55996" lon="2.02453">
        <ele>240.2</ele>
        <time>2022-03-08T15:01:12Z</time>
      </trkpt>
      <trkpt lat="43.55997" lon="2.02451">
        <ele>240.3</ele>
        <time>2022-03-08T15:01:14Z</time>
      </trkpt>
      <trkpt lat="43.55999" lon="2.0245">
        <ele>240.4</ele>
        <time>2022-03-08T15:01:15Z</time>
      </trkpt>
      <trkpt lat="43.56" lon="2.02449">
        <ele>240.4</ele>
        <time>2022-03-08T15:01:16Z</time>
      </trkpt>
      <trkpt lat="43.56001" lon="2.02448">
        <ele>240.4</ele>
        <time>2022-03-08T15:01:17Z</time>
      </trkpt>
      <trkpt lat="43.56002" lon="2.02447">
        <ele>240.4</ele>
        <time>2022-03-08T15:01:19Z</time>
      </trkpt>
      <trkpt lat="43.56003" lon="2.02445">
        <ele>240.4</ele>
        <time>2022-03-08T15:01:20Z</time>
      </trkpt>
      <trkpt lat="43.56004" lon="2.02444">
        <ele>240.4</ele>
        <time>2022-03-08T15:01:21Z</time>
      </trkpt>
      <trkpt lat="43.56004" lon="2.02443">
        <ele>240.4</ele>
        <time>2022-03-08T15:01:23Z</time>
      </trkpt>
      <trkpt lat="43.56005" lon="2.02442">
        <ele>240.4</ele>
        <time>2022-03-08T15:01:24Z</time>
      </trkpt>
      <trkpt lat="43.56006" lon="2.0244">
        <ele>240.4</ele>
        <time>2022-03-08T15:01:25Z</time>
      </trkpt>
      <trkpt lat="43.56007" lon="2.02439">
        <ele>240.3</ele>
        <time>2022-03-08T15:01:26Z</time>
      </trkpt>
      <trkpt lat="43.56007" lon="2.02438">
        <ele>240.3</ele>
        <time>2022-03-08T15:01:27Z</time>
      </trkpt>
      <trkpt lat="43.56008" lon="2.02437">
        <ele>240.3</ele>
        <time>2022-03-08T15:01:29Z</time>
      </trkpt>
      <trkpt lat="43.56008" lon="2.02437">
        <ele>240.2</ele>
        <time>2022-03-08T15:01:30Z</time>
      </trkpt>
      <trkpt lat="43.56009" lon="2.02436">
        <ele>240.2</ele>
        <time>2022-03-08T15:01:31Z</time>
      </trkpt>
      <trkpt lat="43.56009" lon="2.02435">
        <ele>240.2</ele>
        <time>2022-03-08T15:01:32Z</time>
      </trkpt>
      <trkpt lat="43.56009" lon="2.02435">
        <ele>240.1</ele>
        <time>2022-03-08T15:01:33Z</time>
      </trkpt>
      <trkpt lat="43.5601" lon="2.02432">
        <ele>240</ele>
        <time>2022-03-08T15:01:35Z</time>
      </trkpt>
      <trkpt lat="43.56011" lon="2.02431">
        <ele>239.9</ele>
        <time>2022-03-08T15:01:36Z</time>
      </trkpt>
      <trkpt lat="43.56012" lon="2.0243">
        <ele>239.8</ele>
        <time>2022-03-08T15:01:37Z</time>
      </trkpt>
      <trkpt lat="43.56012" lon="2.02428">
        <ele>239.8</ele>
        <time>2022-03-08T15:01:38Z</time>
      </trkpt>
      <trkpt lat="43.56013" lon="2.02427">
        <ele>239.7</ele>
        <time>2022-03-08T15:01:40Z</time>
      </trkpt>
      <trkpt lat="43.56014" lon="2.02426">
        <ele>239.6</ele>
        <time>2022-03-08T15:01:41Z</time>
      </trkpt>
      <trkpt lat="43.56015" lon="2.02424">
        <ele>239.4</ele>
        <time>2022-03-08T15:01:42Z</time>
      </trkpt>
      <trkpt lat="43.56016" lon="2.02423">
        <ele>239.3</ele>
        <time>2022-03-08T15:01:43Z</time>
      </trkpt>
      <trkpt lat="43.56016" lon="2.02422">
        <ele>239.2</ele>
        <time>2022-03-08T15:01:44Z</time>
      </trkpt>
      <trkpt lat="43.56018" lon="2.0242">
        <ele>239.1</ele>
        <time>2022-03-08T15:01:46Z</time>
      </trkpt>
      <trkpt lat="43.56018" lon="2.02419">
        <ele>239</ele>
        <time>2022-03-08T15:01:47Z</time>
      </trkpt>
      <trkpt lat="43.5602" lon="2.02418">
        <ele>238.8</ele>
        <time>2022-03-08T15:01:49Z</time>
      </trkpt>
      <trkpt lat="43.56021" lon="2.02416">
        <ele>238.7</ele>
        <time>2022-03-08T15:01:50Z</time>
      </trkpt>
      <trkpt lat="43.56022" lon="2.02416">
        <ele>238.6</ele>
        <time>2022-03-08T15:01:51Z</time>
      </trkpt>
      <trkpt lat="43.56023" lon="2.02416">
        <ele>238.6</ele>
        <time>2022-03-08T15:01:52Z</time>
      </trkpt>
      <trkpt lat="43.56023" lon="2.02416">
        <ele>238.5</ele>
        <time>2022-03-08T15:01:53Z</time>
      </trkpt>
      <trkpt lat="43.56024" lon="2.02415">
        <ele>238.4</ele>
        <time>2022-03-08T15:01:54Z</time>
      </trkpt>
      <trkpt lat="43.56027" lon="2.02413">
        <ele>238.2</ele>
        <time>2022-03-08T15:01:55Z</time>
      </trkpt>
      <trkpt lat="43.56028" lon="2.02412">
        <ele>238.1</ele>
        <time>2022-03-08T15:01:57Z</time>
      </trkpt>
      <trkpt lat="43.56028" lon="2.02411">
        <ele>238.1</ele>
        <time>2022-03-08T15:01:58Z</time>
      </trkpt>
      <trkpt lat="43.56029" lon="2.02411">
        <ele>238</ele>
        <time>2022-03-08T15:01:59Z</time>
      </trkpt>
      <trkpt lat="43.5603" lon="2.0241">
        <ele>238</ele>
        <time>2022-03-08T15:02:00Z</time>
      </trkpt>
      <trkpt lat="43.56033" lon="2.02411">
        <ele>237.8</ele>
        <time>2022-03-08T15:02:01Z</time>
      </trkpt>
      <trkpt lat="43.56034" lon="2.02411">
        <ele>237.8</ele>
        <time>2022-03-08T15:02:02Z</time>
      </trkpt>
      <trkpt lat="43.56036" lon="2.02411">
        <ele>237.8</ele>
        <time>2022-03-08T15:02:03Z</time>
      </trkpt>
      <trkpt lat="43.56037" lon="2.02412">
        <ele>237.8</ele>
        <time>2022-03-08T15:02:05Z</time>
      </trkpt>
      <trkpt lat="43.56039" lon="2.02412">
        <ele>237.8</ele>
        <time>2022-03-08T15:02:06Z</time>
      </trkpt>
      <trkpt lat="43.5604" lon="2.02412">
        <ele>237.8</ele>
        <time>2022-03-08T15:02:07Z</time>
      </trkpt>
      <trkpt lat="43.56042" lon="2.02412">
        <ele>237.8</ele>
        <time>2022-03-08T15:02:08Z</time>
      </trkpt>
      <trkpt lat="43.56043" lon="2.02414">
        <ele>237.9</ele>
        <time>2022-03-08T15:02:09Z</time>
      </trkpt>
      <trkpt lat="43.56044" lon="2.02415">
        <ele>237.9</ele>
        <time>2022-03-08T15:02:10Z</time>
      </trkpt>
      <trkpt lat="43.56045" lon="2.02416">
        <ele>238</ele>
        <time>2022-03-08T15:02:11Z</time>
      </trkpt>
      <trkpt lat="43.56046" lon="2.02417">
        <ele>238.1</ele>
        <time>2022-03-08T15:02:13Z</time>
      </trkpt>
      <trkpt lat="43.56048" lon="2.02418">
        <ele>238.2</ele>
        <time>2022-03-08T15:02:14Z</time>
      </trkpt>
      <trkpt lat="43.56049" lon="2.02418">
        <ele>238.3</ele>
        <time>2022-03-08T15:02:15Z</time>
      </trkpt>
      <trkpt lat="43.56049" lon="2.02419">
        <ele>238.3</ele>
        <time>2022-03-08T15:02:16Z</time>
      </trkpt>
      <trkpt lat="43.5605" lon="2.02419">
        <ele>238.4</ele>
        <time>2022-03-08T15:02:17Z</time>
      </trkpt>
      <trkpt lat="43.56051" lon="2.0242">
        <ele>238.5</ele>
        <time>2022-03-08T15:02:18Z</time>
      </trkpt>
      <trkpt lat="43.56052" lon="2.0242">
        <ele>238.6</ele>
        <time>2022-03-08T15:02:19Z</time>
      </trkpt>
      <trkpt lat="43.56054" lon="2.02421">
        <ele>238.8</ele>
        <time>2022-03-08T15:02:20Z</time>
      </trkpt>
      <trkpt lat="43.56054" lon="2.02421">
        <ele>238.8</ele>
        <time>2022-03-08T15:02:21Z</time>
      </trkpt>
      <trkpt lat="43.56054" lon="2.02422">
        <ele>238.9</ele>
        <time>2022-03-08T15:02:22Z</time>
      </trkpt>
      <trkpt lat="43.56056" lon="2.02422">
        <ele>239.1</ele>
        <time>2022-03-08T15:02:24Z</time>
      </trkpt>
      <trkpt lat="43.56057" lon="2.02423">
        <ele>239.3</ele>
        <time>2022-03-08T15:02:25Z</time>
      </trkpt>
      <trkpt lat="43.56059" lon="2.02423">
        <ele>239.5</ele>
        <time>2022-03-08T15:02:26Z</time>
      </trkpt>
      <trkpt lat="43.5606" lon="2.02423">
        <ele>239.7</ele>
        <time>2022-03-08T15:02:27Z</time>
      </trkpt>
      <trkpt lat="43.56061" lon="2.02423">
        <ele>239.9</ele>
        <time>2022-03-08T15:02:28Z</time>
      </trkpt>
      <trkpt lat="43.56062" lon="2.02423">
        <ele>240</ele>
        <time>2022-03-08T15:02:29Z</time>
      </trkpt>
      <trkpt lat="43.56062" lon="2.02423">
        <ele>240.1</ele>
        <time>2022-03-08T15:02:31Z</time>
      </trkpt>
      <trkpt lat="43.56064" lon="2.02423">
        <ele>240.3</ele>
        <time>2022-03-08T15:02:32Z</time>
      </trkpt>
      <trkpt lat="43.56065" lon="2.02424">
        <ele>240.5</ele>
        <time>2022-03-08T15:02:33Z</time>
      </trkpt>
      <trkpt lat="43.56066" lon="2.02423">
        <ele>240.7</ele>
        <time>2022-03-08T15:02:34Z</time>
      </trkpt>
      <trkpt lat="43.56067" lon="2.02423">
        <ele>240.8</ele>
        <time>2022-03-08T15:02:35Z</time>
      </trkpt>
      <trkpt lat="43.56067" lon="2.02423">
        <ele>241</ele>
        <time>2022-03-08T15:02:36Z</time>
      </trkpt>
      <trkpt lat="43.56068" lon="2.02423">
        <ele>241.1</ele>
        <time>2022-03-08T15:02:38Z</time>
      </trkpt>
      <trkpt lat="43.56069" lon="2.02423">
        <ele>241.2</ele>
        <time>2022-03-08T15:02:39Z</time>
      </trkpt>
      <trkpt lat="43.56069" lon="2.02423">
        <ele>241.3</ele>
        <time>2022-03-08T15:02:40Z</time>
      </trkpt>
      <trkpt lat="43.5607" lon="2.02423">
        <ele>241.4</ele>
        <time>2022-03-08T15:02:41Z</time>
      </trkpt>
      <trkpt lat="43.5607" lon="2.02423">
        <ele>241.5</ele>
        <time>2022-03-08T15:02:42Z</time>
      </trkpt>
      <trkpt lat="43.56071" lon="2.02423">
        <ele>241.6</ele>
        <time>2022-03-08T15:02:43Z</time>
      </trkpt>
      <trkpt lat="43.56072" lon="2.02423">
        <ele>241.8</ele>
        <time>2022-03-08T15:02:44Z</time>
      </trkpt>
      <trkpt lat="43.56073" lon="2.02423">
        <ele>242</ele>
        <time>2022-03-08T15:02:45Z</time>
      </trkpt>
      <trkpt lat="43.56074" lon="2.02423">
        <ele>242.1</ele>
        <time>2022-03-08T15:02:47Z</time>
      </trkpt>
      <trkpt lat="43.56075" lon="2.02423">
        <ele>242.3</ele>
        <time>2022-03-08T15:02:48Z</time>
      </trkpt>
      <trkpt lat="43.56076" lon="2.02423">
        <ele>242.5</ele>
        <time>2022-03-08T15:02:49Z</time>
      </trkpt>
      <trkpt lat="43.56077" lon="2.02423">
        <ele>242.8</ele>
        <time>2022-03-08T15:02:50Z</time>
      </trkpt>
      <trkpt lat="43.56078" lon="2.02423">
        <ele>242.9</ele>
        <time>2022-03-08T15:02:51Z</time>
      </trkpt>
      <trkpt lat="43.56078" lon="2.02423">
        <ele>243.1</ele>
        <time>2022-03-08T15:02:52Z</time>
      </trkpt>
      <trkpt lat="43.5608" lon="2.02423">
        <ele>243.3</ele>
        <time>2022-03-08T15:02:54Z</time>
      </trkpt>
      <trkpt lat="43.5608" lon="2.02423">
        <ele>243.4</ele>
        <time>2022-03-08T15:02:55Z</time>
      </trkpt>
      <trkpt lat="43.56081" lon="2.02424">
        <ele>243.5</ele>
        <time>2022-03-08T15:02:56Z</time>
      </trkpt>
      <trkpt lat="43.56081" lon="2.02425">
        <ele>243.6</ele>
        <time>2022-03-08T15:02:57Z</time>
      </trkpt>
      <trkpt lat="43.56081" lon="2.02425">
        <ele>243.7</ele>
        <time>2022-03-08T15:02:58Z</time>
      </trkpt>
      <trkpt lat="43.56081" lon="2.02425">
        <ele>243.7</ele>
        <time>2022-03-08T15:03:00Z</time>
      </trkpt>
      <trkpt lat="43.56082" lon="2.02425">
        <ele>243.8</ele>
        <time>2022-03-08T15:03:01Z</time>
      </trkpt>
      <trkpt lat="43.56083" lon="2.02425">
        <ele>244.1</ele>
        <time>2022-03-08T15:03:02Z</time>
      </trkpt>
      <trkpt lat="43.56084" lon="2.02425">
        <ele>244.2</ele>
        <time>2022-03-08T15:03:03Z</time>
      </trkpt>
      <trkpt lat="43.56085" lon="2.02425">
        <ele>244.4</ele>
        <time>2022-03-08T15:03:04Z</time>
      </trkpt>
      <trkpt lat="43.56086" lon="2.02425">
        <ele>244.5</ele>
        <time>2022-03-08T15:03:06Z</time>
      </trkpt>
      <trkpt lat="43.56087" lon="2.02426">
        <ele>244.7</ele>
        <time>2022-03-08T15:03:07Z</time>
      </trkpt>
      <trkpt lat="43.56088" lon="2.02426">
        <ele>245</ele>
        <time>2022-03-08T15:03:08Z</time>
      </trkpt>
      <trkpt lat="43.56089" lon="2.02426">
        <ele>245</ele>
        <time>2022-03-08T15:03:09Z</time>
      </trkpt>
      <trkpt lat="43.56089" lon="2.02427">
        <ele>245.2</ele>
        <time>2022-03-08T15:03:10Z</time>
      </trkpt>
      <trkpt lat="43.5609" lon="2.02427">
        <ele>245.2</ele>
        <time>2022-03-08T15:03:12Z</time>
      </trkpt>
      <trkpt lat="43.5609" lon="2.02427">
        <ele>245.3</ele>
        <time>2022-03-08T15:03:13Z</time>
      </trkpt>
      <trkpt lat="43.56091" lon="2.02427">
        <ele>245.4</ele>
        <time>2022-03-08T15:03:14Z</time>
      </trkpt>
      <trkpt lat="43.56092" lon="2.02428">
        <ele>245.5</ele>
        <time>2022-03-08T15:03:16Z</time>
      </trkpt>
      <trkpt lat="43.56093" lon="2.02428">
        <ele>245.7</ele>
        <time>2022-03-08T15:03:18Z</time>
      </trkpt>
      <trkpt lat="43.56094" lon="2.02428">
        <ele>245.8</ele>
        <time>2022-03-08T15:03:19Z</time>
      </trkpt>
      <trkpt lat="43.56095" lon="2.02429">
        <ele>246</ele>
        <time>2022-03-08T15:03:21Z</time>
      </trkpt>
      <trkpt lat="43.56095" lon="2.02429">
        <ele>246.1</ele>
        <time>2022-03-08T15:03:22Z</time>
      </trkpt>
      <trkpt lat="43.56096" lon="2.02429">
        <ele>246.2</ele>
        <time>2022-03-08T15:03:24Z</time>
      </trkpt>
      <trkpt lat="43.56097" lon="2.0243">
        <ele>246.3</ele>
        <time>2022-03-08T15:03:25Z</time>
      </trkpt>
      <trkpt lat="43.56097" lon="2.0243">
        <ele>246.4</ele>
        <time>2022-03-08T15:03:26Z</time>
      </trkpt>
      <trkpt lat="43.56098" lon="2.0243">
        <ele>246.5</ele>
        <time>2022-03-08T15:03:27Z</time>
      </trkpt>
      <trkpt lat="43.56099" lon="2.0243">
        <ele>246.6</ele>
        <time>2022-03-08T15:03:29Z</time>
      </trkpt>
      <trkpt lat="43.561" lon="2.0243">
        <ele>246.7</ele>
        <time>2022-03-08T15:03:30Z</time>
      </trkpt>
      <trkpt lat="43.561" lon="2.02431">
        <ele>246.8</ele>
        <time>2022-03-08T15:03:32Z</time>
      </trkpt>
      <trkpt lat="43.56101" lon="2.02431">
        <ele>246.9</ele>
        <time>2022-03-08T15:03:33Z</time>
      </trkpt>
      <trkpt lat="43.56102" lon="2.02432">
        <ele>247.1</ele>
        <time>2022-03-08T15:03:34Z</time>
      </trkpt>
      <trkpt lat="43.56103" lon="2.02432">
        <ele>247.2</ele>
        <time>2022-03-08T15:03:35Z</time>
      </trkpt>
      <trkpt lat="43.56103" lon="2.02432">
        <ele>247.2</ele>
        <time>2022-03-08T15:03:37Z</time>
      </trkpt>
      <trkpt lat="43.56104" lon="2.02432">
        <ele>247.3</ele>
        <time>2022-03-08T15:03:38Z</time>
      </trkpt>
      <trkpt lat="43.56105" lon="2.02432">
        <ele>247.5</ele>
        <time>2022-03-08T15:03:39Z</time>
      </trkpt>
      <trkpt lat="43.56106" lon="2.02432">
        <ele>247.6</ele>
        <time>2022-03-08T15:03:40Z</time>
      </trkpt>
      <trkpt lat="43.56106" lon="2.02432">
        <ele>247.7</ele>
        <time>2022-03-08T15:03:41Z</time>
      </trkpt>
      <trkpt lat="43.56107" lon="2.02432">
        <ele>247.8</ele>
        <time>2022-03-08T15:03:42Z</time>
      </trkpt>
      <trkpt lat="43.56109" lon="2.02432">
        <ele>248.1</ele>
        <time>2022-03-08T15:03:44Z</time>
      </trkpt>
      <trkpt lat="43.56109" lon="2.02432">
        <ele>248.1</ele>
        <time>2022-03-08T15:03:45Z</time>
      </trkpt>
      <trkpt lat="43.56111" lon="2.02433">
        <ele>248.4</ele>
        <time>2022-03-08T15:03:47Z</time>
      </trkpt>
      <trkpt lat="43.56112" lon="2.02433">
        <ele>248.6</ele>
        <time>2022-03-08T15:03:48Z</time>
      </trkpt>
      <trkpt lat="43.56113" lon="2.02433">
        <ele>248.9</ele>
        <time>2022-03-08T15:03:49Z</time>
      </trkpt>
      <trkpt lat="43.56114" lon="2.02433">
        <ele>249</ele>
        <time>2022-03-08T15:03:51Z</time>
      </trkpt>
      <trkpt lat="43.56115" lon="2.02433">
        <ele>249.2</ele>
        <time>2022-03-08T15:03:52Z</time>
      </trkpt>
      <trkpt lat="43.56116" lon="2.02433">
        <ele>249.4</ele>
        <time>2022-03-08T15:03:53Z</time>
      </trkpt>
      <trkpt lat="43.56117" lon="2.02433">
        <ele>249.6</ele>
        <time>2022-03-08T15:03:54Z</time>
      </trkpt>
      <trkpt lat="43.56118" lon="2.02434">
        <ele>249.7</ele>
        <time>2022-03-08T15:03:56Z</time>
      </trkpt>
      <trkpt lat="43.56119" lon="2.02434">
        <ele>249.8</ele>
        <time>2022-03-08T15:03:57Z</time>
      </trkpt>
      <trkpt lat="43.56119" lon="2.02434">
        <ele>249.9</ele>
        <time>2022-03-08T15:03:58Z</time>
      </trkpt>
      <trkpt lat="43.5612" lon="2.02434">
        <ele>250</ele>
        <time>2022-03-08T15:03:59Z</time>
      </trkpt>
      <trkpt lat="43.56121" lon="2.02434">
        <ele>250.1</ele>
        <time>2022-03-08T15:04:00Z</time>
      </trkpt>
      <trkpt lat="43.56122" lon="2.02433">
        <ele>250.3</ele>
        <time>2022-03-08T15:04:02Z</time>
      </trkpt>
      <trkpt lat="43.56123" lon="2.02433">
        <ele>250.4</ele>
        <time>2022-03-08T15:04:03Z</time>
      </trkpt>
      <trkpt lat="43.56124" lon="2.02433">
        <ele>250.5</ele>
        <time>2022-03-08T15:04:04Z</time>
      </trkpt>
      <trkpt lat="43.56125" lon="2.02433">
        <ele>250.7</ele>
        <time>2022-03-08T15:04:06Z</time>
      </trkpt>
      <trkpt lat="43.56126" lon="2.02433">
        <ele>250.9</ele>
        <time>2022-03-08T15:04:07Z</time>
      </trkpt>
      <trkpt lat="43.56128" lon="2.02433">
        <ele>251.1</ele>
        <time>2022-03-08T15:04:09Z</time>
      </trkpt>
      <trkpt lat="43.56129" lon="2.02434">
        <ele>251.3</ele>
        <time>2022-03-08T15:04:10Z</time>
      </trkpt>
      <trkpt lat="43.56131" lon="2.02435">
        <ele>251.6</ele>
        <time>2022-03-08T15:04:11Z</time>
      </trkpt>
      <trkpt lat="43.56132" lon="2.02436">
        <ele>251.7</ele>
        <time>2022-03-08T15:04:13Z</time>
      </trkpt>
      <trkpt lat="43.56133" lon="2.02436">
        <ele>251.8</ele>
        <time>2022-03-08T15:04:14Z</time>
      </trkpt>
      <trkpt lat="43.56134" lon="2.02436">
        <ele>251.9</ele>
        <time>2022-03-08T15:04:15Z</time>
      </trkpt>
      <trkpt lat="43.56135" lon="2.02436">
        <ele>252</ele>
        <time>2022-03-08T15:04:16Z</time>
      </trkpt>
      <trkpt lat="43.56136" lon="2.02436">
        <ele>252.1</ele>
        <time>2022-03-08T15:04:17Z</time>
      </trkpt>
      <trkpt lat="43.56137" lon="2.02437">
        <ele>252.3</ele>
        <time>2022-03-08T15:04:19Z</time>
      </trkpt>
      <trkpt lat="43.56138" lon="2.02438">
        <ele>252.4</ele>
        <time>2022-03-08T15:04:20Z</time>
      </trkpt>
      <trkpt lat="43.56139" lon="2.02438">
        <ele>252.6</ele>
        <time>2022-03-08T15:04:21Z</time>
      </trkpt>
      <trkpt lat="43.5614" lon="2.02438">
        <ele>252.7</ele>
        <time>2022-03-08T15:04:23Z</time>
      </trkpt>
      <trkpt lat="43.56141" lon="2.02438">
        <ele>252.8</ele>
        <time>2022-03-08T15:04:24Z</time>
      </trkpt>
      <trkpt lat="43.56142" lon="2.02438">
        <ele>252.9</ele>
        <time>2022-03-08T15:04:25Z</time>
      </trkpt>
      <trkpt lat="43.56144" lon="2.02438">
        <ele>253.2</ele>
        <time>2022-03-08T15:04:27Z</time>
      </trkpt>
      <trkpt lat="43.56146" lon="2.02438">
        <ele>253.4</ele>
        <time>2022-03-08T15:04:28Z</time>
      </trkpt>
      <trkpt lat="43.56147" lon="2.02438">
        <ele>253.5</ele>
        <time>2022-03-08T15:04:29Z</time>
      </trkpt>
      <trkpt lat="43.56147" lon="2.02438">
        <ele>253.5</ele>
        <time>2022-03-08T15:04:30Z</time>
      </trkpt>
      <trkpt lat="43.56148" lon="2.02438">
        <ele>253.7</ele>
        <time>2022-03-08T15:04:31Z</time>
      </trkpt>
      <trkpt lat="43.5615" lon="2.02438">
        <ele>253.9</ele>
        <time>2022-03-08T15:04:33Z</time>
      </trkpt>
      <trkpt lat="43.56151" lon="2.02437">
        <ele>254.1</ele>
        <time>2022-03-08T15:04:34Z</time>
      </trkpt>
      <trkpt lat="43.56152" lon="2.02437">
        <ele>254.2</ele>
        <time>2022-03-08T15:04:35Z</time>
      </trkpt>
      <trkpt lat="43.56153" lon="2.02437">
        <ele>254.3</ele>
        <time>2022-03-08T15:04:36Z</time>
      </trkpt>
      <trkpt lat="43.56155" lon="2.02437">
        <ele>254.6</ele>
        <time>2022-03-08T15:04:38Z</time>
      </trkpt>
      <trkpt lat="43.56156" lon="2.02436">
        <ele>254.7</ele>
        <time>2022-03-08T15:04:39Z</time>
      </trkpt>
      <trkpt lat="43.56156" lon="2.02436">
        <ele>254.8</ele>
        <time>2022-03-08T15:04:40Z</time>
      </trkpt>
      <trkpt lat="43.56157" lon="2.02437">
        <ele>254.9</ele>
        <time>2022-03-08T15:04:41Z</time>
      </trkpt>
      <trkpt lat="43.56158" lon="2.02437">
        <ele>255</ele>
        <time>2022-03-08T15:04:43Z</time>
      </trkpt>
      <trkpt lat="43.56159" lon="2.02438">
        <ele>255.1</ele>
        <time>2022-03-08T15:04:44Z</time>
      </trkpt>
      <trkpt lat="43.5616" lon="2.02438">
        <ele>255.3</ele>
        <time>2022-03-08T15:04:45Z</time>
      </trkpt>
      <trkpt lat="43.56161" lon="2.02438">
        <ele>255.5</ele>
        <time>2022-03-08T15:04:47Z</time>
      </trkpt>
      <trkpt lat="43.56162" lon="2.02438">
        <ele>255.6</ele>
        <time>2022-03-08T15:04:48Z</time>
      </trkpt>
      <trkpt lat="43.56163" lon="2.02438">
        <ele>255.7</ele>
        <time>2022-03-08T15:04:49Z</time>
      </trkpt>
      <trkpt lat="43.56164" lon="2.02438">
        <ele>255.8</ele>
        <time>2022-03-08T15:04:50Z</time>
      </trkpt>
      <trkpt lat="43.56164" lon="2.02438">
        <ele>255.9</ele>
        <time>2022-03-08T15:04:51Z</time>
      </trkpt>
      <trkpt lat="43.56165" lon="2.02438">
        <ele>256</ele>
        <time>2022-03-08T15:04:52Z</time>
      </trkpt>
      <trkpt lat="43.56166" lon="2.02438">
        <ele>256.2</ele>
        <time>2022-03-08T15:04:54Z</time>
      </trkpt>
      <trkpt lat="43.56168" lon="2.02438">
        <ele>256.3</ele>
        <time>2022-03-08T15:04:55Z</time>
      </trkpt>
      <trkpt lat="43.56169" lon="2.02438">
        <ele>256.5</ele>
        <time>2022-03-08T15:04:56Z</time>
      </trkpt>
      <trkpt lat="43.56169" lon="2.02438">
        <ele>256.6</ele>
        <time>2022-03-08T15:04:58Z</time>
      </trkpt>
      <trkpt lat="43.5617" lon="2.02438">
        <ele>256.7</ele>
        <time>2022-03-08T15:04:59Z</time>
      </trkpt>
      <trkpt lat="43.56171" lon="2.02438">
        <ele>256.8</ele>
        <time>2022-03-08T15:05:00Z</time>
      </trkpt>
      <trkpt lat="43.56172" lon="2.02438">
        <ele>256.9</ele>
        <time>2022-03-08T15:05:02Z</time>
      </trkpt>
      <trkpt lat="43.56172" lon="2.02438">
        <ele>257</ele>
        <time>2022-03-08T15:05:03Z</time>
      </trkpt>
      <trkpt lat="43.56173" lon="2.02438">
        <ele>257</ele>
        <time>2022-03-08T15:05:04Z</time>
      </trkpt>
      <trkpt lat="43.56173" lon="2.02438">
        <ele>257.1</ele>
        <time>2022-03-08T15:05:05Z</time>
      </trkpt>
      <trkpt lat="43.56174" lon="2.02438">
        <ele>257.2</ele>
        <time>2022-03-08T15:05:06Z</time>
      </trkpt>
      <trkpt lat="43.56175" lon="2.02438">
        <ele>257.4</ele>
        <time>2022-03-08T15:05:08Z</time>
      </trkpt>
      <trkpt lat="43.56176" lon="2.02438">
        <ele>257.5</ele>
        <time>2022-03-08T15:05:09Z</time>
      </trkpt>
      <trkpt lat="43.56176" lon="2.02438">
        <ele>257.6</ele>
        <time>2022-03-08T15:05:10Z</time>
      </trkpt>
      <trkpt lat="43.56178" lon="2.02438">
        <ele>257.7</ele>
        <time>2022-03-08T15:05:12Z</time>
      </trkpt>
      <trkpt lat="43.56178" lon="2.02438">
        <ele>257.8</ele>
        <time>2022-03-08T15:05:13Z</time>
      </trkpt>
      <trkpt lat="43.56179" lon="2.02438">
        <ele>258</ele>
        <time>2022-03-08T15:05:14Z</time>
      </trkpt>
      <trkpt lat="43.5618" lon="2.02438">
        <ele>258.1</ele>
        <time>2022-03-08T15:05:15Z</time>
      </trkpt>
      <trkpt lat="43.56181" lon="2.02438">
        <ele>258.2</ele>
        <time>2022-03-08T15:05:17Z</time>
      </trkpt>
      <trkpt lat="43.56182" lon="2.02438">
        <ele>258.3</ele>
        <time>2022-03-08T15:05:18Z</time>
      </trkpt>
      <trkpt lat="43.56183" lon="2.02438">
        <ele>258.5</ele>
        <time>2022-03-08T15:05:19Z</time>
      </trkpt>
      <trkpt lat="43.56184" lon="2.02438">
        <ele>258.6</ele>
        <time>2022-03-08T15:05:20Z</time>
      </trkpt>
      <trkpt lat="43.56185" lon="2.02438">
        <ele>258.8</ele>
        <time>2022-03-08T15:05:21Z</time>
      </trkpt>
      <trkpt lat="43.56186" lon="2.02438">
        <ele>258.9</ele>
        <time>2022-03-08T15:05:23Z</time>
      </trkpt>
      <trkpt lat="43.56187" lon="2.02438">
        <ele>259</ele>
        <time>2022-03-08T15:05:24Z</time>
      </trkpt>
      <trkpt lat="43.56188" lon="2.02437">
        <ele>259.2</ele>
        <time>2022-03-08T15:05:25Z</time>
      </trkpt>
      <trkpt lat="43.56189" lon="2.02436">
        <ele>259.4</ele>
        <time>2022-03-08T15:05:26Z</time>
      </trkpt>
      <trkpt lat="43.56189" lon="2.02436">
        <ele>259.5</ele>
        <time>2022-03-08T15:05:27Z</time>
      </trkpt>
      <trkpt lat="43.5619" lon="2.02436">
        <ele>259.5</ele>
        <time>2022-03-08T15:05:28Z</time>
      </trkpt>
      <trkpt lat="43.56191" lon="2.02436">
        <ele>259.6</ele>
        <time>2022-03-08T15:05:30Z</time>
      </trkpt>
      <trkpt lat="43.56192" lon="2.02436">
        <ele>259.8</ele>
        <time>2022-03-08T15:05:31Z</time>
      </trkpt>
      <trkpt lat="43.56193" lon="2.02436">
        <ele>260</ele>
        <time>2022-03-08T15:05:32Z</time>
      </trkpt>
      <trkpt lat="43.56194" lon="2.02436">
        <ele>260.1</ele>
        <time>2022-03-08T15:05:34Z</time>
      </trkpt>
      <trkpt lat="43.56195" lon="2.02435">
        <ele>260.3</ele>
        <time>2022-03-08T15:05:35Z</time>
      </trkpt>
      <trkpt lat="43.56196" lon="2.02435">
        <ele>260.4</ele>
        <time>2022-03-08T15:05:36Z</time>
      </trkpt>
      <trkpt lat="43.56197" lon="2.02435">
        <ele>260.5</ele>
        <time>2022-03-08T15:05:37Z</time>
      </trkpt>
      <trkpt lat="43.56198" lon="2.02435">
        <ele>260.8</ele>
        <time>2022-03-08T15:05:38Z</time>
      </trkpt>
      <trkpt lat="43.56199" lon="2.02435">
        <ele>261</ele>
        <time>2022-03-08T15:05:40Z</time>
      </trkpt>
      <trkpt lat="43.562" lon="2.02435">
        <ele>261.1</ele>
        <time>2022-03-08T15:05:41Z</time>
      </trkpt>
      <trkpt lat="43.56201" lon="2.02435">
        <ele>261.3</ele>
        <time>2022-03-08T15:05:42Z</time>
      </trkpt>
      <trkpt lat="43.56202" lon="2.02434">
        <ele>261.5</ele>
        <time>2022-03-08T15:05:43Z</time>
      </trkpt>
      <trkpt lat="43.56205" lon="2.02432">
        <ele>262</ele>
        <time>2022-03-08T15:05:45Z</time>
      </trkpt>
      <trkpt lat="43.56206" lon="2.02432">
        <ele>262.1</ele>
        <time>2022-03-08T15:05:46Z</time>
      </trkpt>
      <trkpt lat="43.56207" lon="2.02432">
        <ele>262.2</ele>
        <time>2022-03-08T15:05:47Z</time>
      </trkpt>
      <trkpt lat="43.56209" lon="2.02431">
        <ele>262.5</ele>
        <time>2022-03-08T15:05:48Z</time>
      </trkpt>
      <trkpt lat="43.5621" lon="2.0243">
        <ele>262.7</ele>
        <time>2022-03-08T15:05:50Z</time>
      </trkpt>
      <trkpt lat="43.56211" lon="2.0243">
        <ele>263</ele>
        <time>2022-03-08T15:05:51Z</time>
      </trkpt>
      <trkpt lat="43.56213" lon="2.02429">
        <ele>263.2</ele>
        <time>2022-03-08T15:05:53Z</time>
      </trkpt>
      <trkpt lat="43.56214" lon="2.02428">
        <ele>263.4</ele>
        <time>2022-03-08T15:05:54Z</time>
      </trkpt>
      <trkpt lat="43.56215" lon="2.02428">
        <ele>263.6</ele>
        <time>2022-03-08T15:05:55Z</time>
      </trkpt>
      <trkpt lat="43.56215" lon="2.02427">
        <ele>263.7</ele>
        <time>2022-03-08T15:05:56Z</time>
      </trkpt>
      <trkpt lat="43.56216" lon="2.02427">
        <ele>263.9</ele>
        <time>2022-03-08T15:05:58Z</time>
      </trkpt>
      <trkpt lat="43.56217" lon="2.02426">
        <ele>264</ele>
        <time>2022-03-08T15:05:59Z</time>
      </trkpt>
      <trkpt lat="43.56217" lon="2.02426">
        <ele>264.1</ele>
        <time>2022-03-08T15:06:00Z</time>
      </trkpt>
      <trkpt lat="43.56218" lon="2.02426">
        <ele>264.2</ele>
        <time>2022-03-08T15:06:01Z</time>
      </trkpt>
      <trkpt lat="43.56219" lon="2.02426">
        <ele>264.3</ele>
        <time>2022-03-08T15:06:02Z</time>
      </trkpt>
      <trkpt lat="43.56219" lon="2.02425">
        <ele>264.4</ele>
        <time>2022-03-08T15:06:03Z</time>
      </trkpt>
      <trkpt lat="43.5622" lon="2.02425">
        <ele>264.6</ele>
        <time>2022-03-08T15:06:04Z</time>
      </trkpt>
      <trkpt lat="43.56221" lon="2.02425">
        <ele>264.7</ele>
        <time>2022-03-08T15:06:06Z</time>
      </trkpt>
      <trkpt lat="43.56221" lon="2.02424">
        <ele>264.8</ele>
        <time>2022-03-08T15:06:07Z</time>
      </trkpt>
      <trkpt lat="43.56222" lon="2.02424">
        <ele>264.9</ele>
        <time>2022-03-08T15:06:09Z</time>
      </trkpt>
      <trkpt lat="43.56222" lon="2.02424">
        <ele>265</ele>
        <time>2022-03-08T15:06:10Z</time>
      </trkpt>
      <trkpt lat="43.56222" lon="2.02424">
        <ele>265</ele>
        <time>2022-03-08T15:06:11Z</time>
      </trkpt>
      <trkpt lat="43.56223" lon="2.02424">
        <ele>265.1</ele>
        <time>2022-03-08T15:06:12Z</time>
      </trkpt>
      <trkpt lat="43.56223" lon="2.02424">
        <ele>265.1</ele>
        <time>2022-03-08T15:06:14Z</time>
      </trkpt>
      <trkpt lat="43.56224" lon="2.02424">
        <ele>265.3</ele>
        <time>2022-03-08T15:06:15Z</time>
      </trkpt>
      <trkpt lat="43.56224" lon="2.02423">
        <ele>265.4</ele>
        <time>2022-03-08T15:06:16Z</time>
      </trkpt>
      <trkpt lat="43.56224" lon="2.02423">
        <ele>265.5</ele>
        <time>2022-03-08T15:06:17Z</time>
      </trkpt>
      <trkpt lat="43.56225" lon="2.02422">
        <ele>265.6</ele>
        <time>2022-03-08T15:06:18Z</time>
      </trkpt>
      <trkpt lat="43.56226" lon="2.02422">
        <ele>265.8</ele>
        <time>2022-03-08T15:06:20Z</time>
      </trkpt>
      <trkpt lat="43.56226" lon="2.02421">
        <ele>265.9</ele>
        <time>2022-03-08T15:06:21Z</time>
      </trkpt>
      <trkpt lat="43.56227" lon="2.0242">
        <ele>266</ele>
        <time>2022-03-08T15:06:22Z</time>
      </trkpt>
      <trkpt lat="43.56228" lon="2.02419">
        <ele>266.2</ele>
        <time>2022-03-08T15:06:23Z</time>
      </trkpt>
      <trkpt lat="43.56229" lon="2.02418">
        <ele>266.4</ele>
        <time>2022-03-08T15:06:25Z</time>
      </trkpt>
      <trkpt lat="43.56229" lon="2.02418">
        <ele>266.6</ele>
        <time>2022-03-08T15:06:26Z</time>
      </trkpt>
      <trkpt lat="43.5623" lon="2.02417">
        <ele>266.8</ele>
        <time>2022-03-08T15:06:27Z</time>
      </trkpt>
      <trkpt lat="43.56231" lon="2.02416">
        <ele>267</ele>
        <time>2022-03-08T15:06:29Z</time>
      </trkpt>
      <trkpt lat="43.56232" lon="2.02415">
        <ele>267.3</ele>
        <time>2022-03-08T15:06:30Z</time>
      </trkpt>
      <trkpt lat="43.56233" lon="2.02414">
        <ele>267.4</ele>
        <time>2022-03-08T15:06:31Z</time>
      </trkpt>
      <trkpt lat="43.56234" lon="2.02414">
        <ele>267.6</ele>
        <time>2022-03-08T15:06:32Z</time>
      </trkpt>
      <trkpt lat="43.56235" lon="2.02413">
        <ele>267.8</ele>
        <time>2022-03-08T15:06:33Z</time>
      </trkpt>
      <trkpt lat="43.56235" lon="2.02412">
        <ele>268</ele>
        <time>2022-03-08T15:06:35Z</time>
      </trkpt>
      <trkpt lat="43.56236" lon="2.02411">
        <ele>268.1</ele>
        <time>2022-03-08T15:06:36Z</time>
      </trkpt>
      <trkpt lat="43.56236" lon="2.02411">
        <ele>268.2</ele>
        <time>2022-03-08T15:06:37Z</time>
      </trkpt>
      <trkpt lat="43.56236" lon="2.02411">
        <ele>268.2</ele>
        <time>2022-03-08T15:06:38Z</time>
      </trkpt>
      <trkpt lat="43.56236" lon="2.02411">
        <ele>268.2</ele>
        <time>2022-03-08T15:06:39Z</time>
      </trkpt>
      <trkpt lat="43.56237" lon="2.0241">
        <ele>268.3</ele>
        <time>2022-03-08T15:06:40Z</time>
      </trkpt>
      <trkpt lat="43.56237" lon="2.0241">
        <ele>268.4</ele>
        <time>2022-03-08T15:06:41Z</time>
      </trkpt>
      <trkpt lat="43.56238" lon="2.02409">
        <ele>268.6</ele>
        <time>2022-03-08T15:06:42Z</time>
      </trkpt>
      <trkpt lat="43.56238" lon="2.02408">
        <ele>268.7</ele>
        <time>2022-03-08T15:06:43Z</time>
      </trkpt>
      <trkpt lat="43.56239" lon="2.02407">
        <ele>269</ele>
        <time>2022-03-08T15:06:45Z</time>
      </trkpt>
      <trkpt lat="43.5624" lon="2.02406">
        <ele>269.1</ele>
        <time>2022-03-08T15:06:46Z</time>
      </trkpt>
      <trkpt lat="43.5624" lon="2.02405">
        <ele>269.2</ele>
        <time>2022-03-08T15:06:47Z</time>
      </trkpt>
      <trkpt lat="43.56241" lon="2.02405">
        <ele>269.4</ele>
        <time>2022-03-08T15:06:48Z</time>
      </trkpt>
      <trkpt lat="43.56242" lon="2.02404">
        <ele>269.5</ele>
        <time>2022-03-08T15:06:49Z</time>
      </trkpt>
      <trkpt lat="43.56242" lon="2.02403">
        <ele>269.7</ele>
        <time>2022-03-08T15:06:50Z</time>
      </trkpt>
      <trkpt lat="43.56243" lon="2.02402">
        <ele>269.8</ele>
        <time>2022-03-08T15:06:51Z</time>
      </trkpt>
      <trkpt lat="43.56244" lon="2.02401">
        <ele>270</ele>
        <time>2022-03-08T15:06:52Z</time>
      </trkpt>
      <trkpt lat="43.56244" lon="2.02399">
        <ele>270.2</ele>
        <time>2022-03-08T15:06:54Z</time>
      </trkpt>
      <trkpt lat="43.56245" lon="2.02398">
        <ele>270.5</ele>
        <time>2022-03-08T15:06:56Z</time>
      </trkpt>
      <trkpt lat="43.56247" lon="2.02395">
        <ele>270.9</ele>
        <time>2022-03-08T15:06:57Z</time>
      </trkpt>
      <trkpt lat="43.56247" lon="2.02394">
        <ele>271</ele>
        <time>2022-03-08T15:06:58Z</time>
      </trkpt>
      <trkpt lat="43.56247" lon="2.02393">
        <ele>271</ele>
        <time>2022-03-08T15:06:59Z</time>
      </trkpt>
      <trkpt lat="43.56248" lon="2.02392">
        <ele>271.2</ele>
        <time>2022-03-08T15:07:01Z</time>
      </trkpt>
      <trkpt lat="43.56248" lon="2.02392">
        <ele>271.3</ele>
        <time>2022-03-08T15:07:02Z</time>
      </trkpt>
      <trkpt lat="43.56248" lon="2.02391">
        <ele>271.3</ele>
        <time>2022-03-08T15:07:03Z</time>
      </trkpt>
      <trkpt lat="43.56249" lon="2.02391">
        <ele>271.4</ele>
        <time>2022-03-08T15:07:04Z</time>
      </trkpt>
      <trkpt lat="43.56249" lon="2.02389">
        <ele>271.6</ele>
        <time>2022-03-08T15:07:06Z</time>
      </trkpt>
      <trkpt lat="43.5625" lon="2.02388">
        <ele>271.7</ele>
        <time>2022-03-08T15:07:07Z</time>
      </trkpt>
      <trkpt lat="43.5625" lon="2.02388">
        <ele>271.9</ele>
        <time>2022-03-08T15:07:08Z</time>
      </trkpt>
      <trkpt lat="43.56251" lon="2.02387">
        <ele>272</ele>
        <time>2022-03-08T15:07:09Z</time>
      </trkpt>
      <trkpt lat="43.56252" lon="2.02386">
        <ele>272.2</ele>
        <time>2022-03-08T15:07:10Z</time>
      </trkpt>
      <trkpt lat="43.56253" lon="2.02385">
        <ele>272.4</ele>
        <time>2022-03-08T15:07:12Z</time>
      </trkpt>
      <trkpt lat="43.56254" lon="2.02385">
        <ele>272.6</ele>
        <time>2022-03-08T15:07:13Z</time>
      </trkpt>
      <trkpt lat="43.56256" lon="2.02384">
        <ele>273</ele>
        <time>2022-03-08T15:07:15Z</time>
      </trkpt>
      <trkpt lat="43.56257" lon="2.02383">
        <ele>273.1</ele>
        <time>2022-03-08T15:07:16Z</time>
      </trkpt>
      <trkpt lat="43.56258" lon="2.02383">
        <ele>273.2</ele>
        <time>2022-03-08T15:07:17Z</time>
      </trkpt>
      <trkpt lat="43.56259" lon="2.02382">
        <ele>273.4</ele>
        <time>2022-03-08T15:07:18Z</time>
      </trkpt>
      <trkpt lat="43.56261" lon="2.02381">
        <ele>273.6</ele>
        <time>2022-03-08T15:07:20Z</time>
      </trkpt>
      <trkpt lat="43.56263" lon="2.0238">
        <ele>273.9</ele>
        <time>2022-03-08T15:07:21Z</time>
      </trkpt>
      <trkpt lat="43.56263" lon="2.0238">
        <ele>274.1</ele>
        <time>2022-03-08T15:07:22Z</time>
      </trkpt>
      <trkpt lat="43.56264" lon="2.02379">
        <ele>274.2</ele>
        <time>2022-03-08T15:07:23Z</time>
      </trkpt>
      <trkpt lat="43.56265" lon="2.02379">
        <ele>274.3</ele>
        <time>2022-03-08T15:07:24Z</time>
      </trkpt>
      <trkpt lat="43.56266" lon="2.02378">
        <ele>274.5</ele>
        <time>2022-03-08T15:07:25Z</time>
      </trkpt>
      <trkpt lat="43.56267" lon="2.02378">
        <ele>274.6</ele>
        <time>2022-03-08T15:07:26Z</time>
      </trkpt>
      <trkpt lat="43.56268" lon="2.02377">
        <ele>274.7</ele>
        <time>2022-03-08T15:07:27Z</time>
      </trkpt>
      <trkpt lat="43.56268" lon="2.02376">
        <ele>274.8</ele>
        <time>2022-03-08T15:07:28Z</time>
      </trkpt>
      <trkpt lat="43.56269" lon="2.02376">
        <ele>274.8</ele>
        <time>2022-03-08T15:07:29Z</time>
      </trkpt>
      <trkpt lat="43.56269" lon="2.02376">
        <ele>274.9</ele>
        <time>2022-03-08T15:07:30Z</time>
      </trkpt>
      <trkpt lat="43.5627" lon="2.02376">
        <ele>275</ele>
        <time>2022-03-08T15:07:31Z</time>
      </trkpt>
      <trkpt lat="43.56272" lon="2.02375">
        <ele>275.2</ele>
        <time>2022-03-08T15:07:33Z</time>
      </trkpt>
      <trkpt lat="43.56273" lon="2.02374">
        <ele>275.3</ele>
        <time>2022-03-08T15:07:34Z</time>
      </trkpt>
      <trkpt lat="43.56274" lon="2.02374">
        <ele>275.4</ele>
        <time>2022-03-08T15:07:35Z</time>
      </trkpt>
      <trkpt lat="43.56274" lon="2.02374">
        <ele>275.5</ele>
        <time>2022-03-08T15:07:37Z</time>
      </trkpt>
      <trkpt lat="43.56275" lon="2.02374">
        <ele>275.6</ele>
        <time>2022-03-08T15:07:38Z</time>
      </trkpt>
      <trkpt lat="43.56276" lon="2.02373">
        <ele>275.7</ele>
        <time>2022-03-08T15:07:39Z</time>
      </trkpt>
      <trkpt lat="43.56277" lon="2.02372">
        <ele>275.8</ele>
        <time>2022-03-08T15:07:40Z</time>
      </trkpt>
      <trkpt lat="43.56278" lon="2.02372">
        <ele>275.9</ele>
        <time>2022-03-08T15:07:41Z</time>
      </trkpt>
      <trkpt lat="43.56278" lon="2.02371">
        <ele>275.9</ele>
        <time>2022-03-08T15:07:42Z</time>
      </trkpt>
      <trkpt lat="43.5628" lon="2.0237">
        <ele>276.1</ele>
        <time>2022-03-08T15:07:43Z</time>
      </trkpt>
      <trkpt lat="43.56281" lon="2.02368">
        <ele>276.2</ele>
        <time>2022-03-08T15:07:45Z</time>
      </trkpt>
      <trkpt lat="43.56282" lon="2.02367">
        <ele>276.3</ele>
        <time>2022-03-08T15:07:46Z</time>
      </trkpt>
      <trkpt lat="43.56283" lon="2.02367">
        <ele>276.3</ele>
        <time>2022-03-08T15:07:47Z</time>
      </trkpt>
      <trkpt lat="43.56284" lon="2.02366">
        <ele>276.4</ele>
        <time>2022-03-08T15:07:49Z</time>
      </trkpt>
      <trkpt lat="43.56285" lon="2.02365">
        <ele>276.5</ele>
        <time>2022-03-08T15:07:50Z</time>
      </trkpt>
      <trkpt lat="43.56286" lon="2.02364">
        <ele>276.6</ele>
        <time>2022-03-08T15:07:51Z</time>
      </trkpt>
      <trkpt lat="43.56287" lon="2.02363">
        <ele>276.7</ele>
        <time>2022-03-08T15:07:52Z</time>
      </trkpt>
      <trkpt lat="43.56288" lon="2.02363">
        <ele>276.7</ele>
        <time>2022-03-08T15:07:53Z</time>
      </trkpt>
      <trkpt lat="43.56288" lon="2.02363">
        <ele>276.7</ele>
        <time>2022-03-08T15:07:54Z</time>
      </trkpt>
      <trkpt lat="43.56288" lon="2.02363">
        <ele>276.7</ele>
        <time>2022-03-08T15:07:55Z</time>
      </trkpt>
      <trkpt lat="43.56288" lon="2.02362">
        <ele>276.7</ele>
        <time>2022-03-08T15:07:57Z</time>
      </trkpt>
      <trkpt lat="43.56291" lon="2.0236">
        <ele>276.9</ele>
        <time>2022-03-08T15:07:59Z</time>
      </trkpt>
      <trkpt lat="43.56291" lon="2.02361">
        <ele>276.9</ele>
        <time>2022-03-08T15:08:00Z</time>
      </trkpt>
      <trkpt lat="43.56291" lon="2.02361">
        <ele>276.9</ele>
        <time>2022-03-08T15:08:01Z</time>
      </trkpt>
      <trkpt lat="43.56291" lon="2.02362">
        <ele>276.9</ele>
        <time>2022-03-08T15:08:02Z</time>
      </trkpt>
      <trkpt lat="43.56292" lon="2.02362">
        <ele>277</ele>
        <time>2022-03-08T15:08:03Z</time>
      </trkpt>
      <trkpt lat="43.56292" lon="2.02361">
        <ele>277</ele>
        <time>2022-03-08T15:08:04Z</time>
      </trkpt>
      <trkpt lat="43.56294" lon="2.0236">
        <ele>277</ele>
        <time>2022-03-08T15:08:06Z</time>
      </trkpt>
      <trkpt lat="43.56295" lon="2.0236">
        <ele>277.1</ele>
        <time>2022-03-08T15:08:07Z</time>
      </trkpt>
      <trkpt lat="43.56295" lon="2.02359">
        <ele>277.1</ele>
        <time>2022-03-08T15:08:08Z</time>
      </trkpt>
      <trkpt lat="43.56297" lon="2.0236">
        <ele>277.1</ele>
        <time>2022-03-08T15:08:09Z</time>
      </trkpt>
      <trkpt lat="43.56298" lon="2.0236">
        <ele>277.2</ele>
        <time>2022-03-08T15:08:11Z</time>
      </trkpt>
      <trkpt lat="43.56299" lon="2.0236">
        <ele>277.2</ele>
        <time>2022-03-08T15:08:12Z</time>
      </trkpt>
      <trkpt lat="43.563" lon="2.02359">
        <ele>277.2</ele>
        <time>2022-03-08T15:08:13Z</time>
      </trkpt>
      <trkpt lat="43.56301" lon="2.02359">
        <ele>277.2</ele>
        <time>2022-03-08T15:08:15Z</time>
      </trkpt>
      <trkpt lat="43.56302" lon="2.02359">
        <ele>277.2</ele>
        <time>2022-03-08T15:08:16Z</time>
      </trkpt>
      <trkpt lat="43.56303" lon="2.02358">
        <ele>277.2</ele>
        <time>2022-03-08T15:08:17Z</time>
      </trkpt>
      <trkpt lat="43.56304" lon="2.02358">
        <ele>277.2</ele>
        <time>2022-03-08T15:08:18Z</time>
      </trkpt>
      <trkpt lat="43.56304" lon="2.02358">
        <ele>277.2</ele>
        <time>2022-03-08T15:08:19Z</time>
      </trkpt>
      <trkpt lat="43.56306" lon="2.02358">
        <ele>277.2</ele>
        <time>2022-03-08T15:08:20Z</time>
      </trkpt>
      <trkpt lat="43.56308" lon="2.02357">
        <ele>277.2</ele>
        <time>2022-03-08T15:08:22Z</time>
      </trkpt>
      <trkpt lat="43.5631" lon="2.02357">
        <ele>277.2</ele>
        <time>2022-03-08T15:08:23Z</time>
      </trkpt>
      <trkpt lat="43.56311" lon="2.02357">
        <ele>277.2</ele>
        <time>2022-03-08T15:08:24Z</time>
      </trkpt>
      <trkpt lat="43.56312" lon="2.02357">
        <ele>277.2</ele>
        <time>2022-03-08T15:08:25Z</time>
      </trkpt>
      <trkpt lat="43.56313" lon="2.02356">
        <ele>277.2</ele>
        <time>2022-03-08T15:08:27Z</time>
      </trkpt>
      <trkpt lat="43.56314" lon="2.02356">
        <ele>277.2</ele>
        <time>2022-03-08T15:08:28Z</time>
      </trkpt>
      <trkpt lat="43.56316" lon="2.02355">
        <ele>277.2</ele>
        <time>2022-03-08T15:08:29Z</time>
      </trkpt>
      <trkpt lat="43.56317" lon="2.02354">
        <ele>277.2</ele>
        <time>2022-03-08T15:08:30Z</time>
      </trkpt>
      <trkpt lat="43.56318" lon="2.02354">
        <ele>277.1</ele>
        <time>2022-03-08T15:08:32Z</time>
      </trkpt>
      <trkpt lat="43.56319" lon="2.02353">
        <ele>277.1</ele>
        <time>2022-03-08T15:08:33Z</time>
      </trkpt>
      <trkpt lat="43.56319" lon="2.02352">
        <ele>277.1</ele>
        <time>2022-03-08T15:08:34Z</time>
      </trkpt>
      <trkpt lat="43.5632" lon="2.02352">
        <ele>277.1</ele>
        <time>2022-03-08T15:08:35Z</time>
      </trkpt>
      <trkpt lat="43.5632" lon="2.02351">
        <ele>277.1</ele>
        <time>2022-03-08T15:08:36Z</time>
      </trkpt>
      <trkpt lat="43.56321" lon="2.0235">
        <ele>277.1</ele>
        <time>2022-03-08T15:08:38Z</time>
      </trkpt>
      <trkpt lat="43.56321" lon="2.0235">
        <ele>277.1</ele>
        <time>2022-03-08T15:08:39Z</time>
      </trkpt>
      <trkpt lat="43.56321" lon="2.02349">
        <ele>277.1</ele>
        <time>2022-03-08T15:08:40Z</time>
      </trkpt>
      <trkpt lat="43.56322" lon="2.02348">
        <ele>277</ele>
        <time>2022-03-08T15:08:41Z</time>
      </trkpt>
      <trkpt lat="43.56323" lon="2.02347">
        <ele>277</ele>
        <time>2022-03-08T15:08:43Z</time>
      </trkpt>
      <trkpt lat="43.56324" lon="2.02346">
        <ele>277</ele>
        <time>2022-03-08T15:08:44Z</time>
      </trkpt>
      <trkpt lat="43.56325" lon="2.02346">
        <ele>277</ele>
        <time>2022-03-08T15:08:45Z</time>
      </trkpt>
      <trkpt lat="43.56326" lon="2.02346">
        <ele>276.9</ele>
        <time>2022-03-08T15:08:46Z</time>
      </trkpt>
      <trkpt lat="43.56327" lon="2.02346">
        <ele>276.9</ele>
        <time>2022-03-08T15:08:47Z</time>
      </trkpt>
      <trkpt lat="43.56328" lon="2.02346">
        <ele>276.9</ele>
        <time>2022-03-08T15:08:48Z</time>
      </trkpt>
      <trkpt lat="43.56328" lon="2.02346">
        <ele>276.9</ele>
        <time>2022-03-08T15:08:50Z</time>
      </trkpt>
      <trkpt lat="43.56329" lon="2.02345">
        <ele>276.8</ele>
        <time>2022-03-08T15:08:51Z</time>
      </trkpt>
      <trkpt lat="43.56331" lon="2.02345">
        <ele>276.8</ele>
        <time>2022-03-08T15:08:52Z</time>
      </trkpt>
      <trkpt lat="43.56332" lon="2.02344">
        <ele>276.8</ele>
        <time>2022-03-08T15:08:53Z</time>
      </trkpt>
      <trkpt lat="43.56333" lon="2.02344">
        <ele>276.7</ele>
        <time>2022-03-08T15:08:55Z</time>
      </trkpt>
      <trkpt lat="43.56334" lon="2.02344">
        <ele>276.7</ele>
        <time>2022-03-08T15:08:56Z</time>
      </trkpt>
      <trkpt lat="43.56335" lon="2.02344">
        <ele>276.6</ele>
        <time>2022-03-08T15:08:57Z</time>
      </trkpt>
      <trkpt lat="43.56336" lon="2.02344">
        <ele>276.6</ele>
        <time>2022-03-08T15:08:58Z</time>
      </trkpt>
      <trkpt lat="43.56337" lon="2.02344">
        <ele>276.5</ele>
        <time>2022-03-08T15:08:59Z</time>
      </trkpt>
      <trkpt lat="43.56338" lon="2.02344">
        <ele>276.5</ele>
        <time>2022-03-08T15:09:01Z</time>
      </trkpt>
      <trkpt lat="43.56338" lon="2.02344">
        <ele>276.5</ele>
        <time>2022-03-08T15:09:02Z</time>
      </trkpt>
      <trkpt lat="43.56339" lon="2.02344">
        <ele>276.5</ele>
        <time>2022-03-08T15:09:03Z</time>
      </trkpt>
      <trkpt lat="43.56339" lon="2.02345">
        <ele>276.5</ele>
        <time>2022-03-08T15:09:04Z</time>
      </trkpt>
      <trkpt lat="43.56339" lon="2.02344">
        <ele>276.4</ele>
        <time>2022-03-08T15:09:05Z</time>
      </trkpt>
      <trkpt lat="43.5634" lon="2.02344">
        <ele>276.4</ele>
        <time>2022-03-08T15:09:06Z</time>
      </trkpt>
      <trkpt lat="43.56341" lon="2.02345">
        <ele>276.4</ele>
        <time>2022-03-08T15:09:07Z</time>
      </trkpt>
      <trkpt lat="43.56342" lon="2.02345">
        <ele>276.3</ele>
        <time>2022-03-08T15:09:09Z</time>
      </trkpt>
      <trkpt lat="43.56342" lon="2.02345">
        <ele>276.3</ele>
        <time>2022-03-08T15:09:10Z</time>
      </trkpt>
      <trkpt lat="43.56343" lon="2.02345">
        <ele>276.3</ele>
        <time>2022-03-08T15:09:11Z</time>
      </trkpt>
      <trkpt lat="43.56344" lon="2.02345">
        <ele>276.3</ele>
        <time>2022-03-08T15:09:12Z</time>
      </trkpt>
      <trkpt lat="43.56345" lon="2.02345">
        <ele>276.2</ele>
        <time>2022-03-08T15:09:13Z</time>
      </trkpt>
      <trkpt lat="43.56346" lon="2.02346">
        <ele>276.2</ele>
        <time>2022-03-08T15:09:14Z</time>
      </trkpt>
      <trkpt lat="43.56347" lon="2.02346">
        <ele>276.1</ele>
        <time>2022-03-08T15:09:15Z</time>
      </trkpt>
      <trkpt lat="43.5635" lon="2.02348">
        <ele>276.1</ele>
        <time>2022-03-08T15:09:16Z</time>
      </trkpt>
      <trkpt lat="43.56351" lon="2.02348">
        <ele>276.1</ele>
        <time>2022-03-08T15:09:17Z</time>
      </trkpt>
      <trkpt lat="43.56352" lon="2.02349">
        <ele>276.1</ele>
        <time>2022-03-08T15:09:18Z</time>
      </trkpt>
      <trkpt lat="43.56353" lon="2.02349">
        <ele>276.1</ele>
        <time>2022-03-08T15:09:19Z</time>
      </trkpt>
      <trkpt lat="43.56354" lon="2.0235">
        <ele>276.1</ele>
        <time>2022-03-08T15:09:20Z</time>
      </trkpt>
      <trkpt lat="43.56355" lon="2.0235">
        <ele>276.1</ele>
        <time>2022-03-08T15:09:21Z</time>
      </trkpt>
      <trkpt lat="43.56357" lon="2.02351">
        <ele>276.2</ele>
        <time>2022-03-08T15:09:22Z</time>
      </trkpt>
      <trkpt lat="43.56358" lon="2.02351">
        <ele>276.2</ele>
        <time>2022-03-08T15:09:23Z</time>
      </trkpt>
      <trkpt lat="43.5636" lon="2.02351">
        <ele>276.3</ele>
        <time>2022-03-08T15:09:24Z</time>
      </trkpt>
      <trkpt lat="43.56362" lon="2.02351">
        <ele>276.4</ele>
        <time>2022-03-08T15:09:26Z</time>
      </trkpt>
      <trkpt lat="43.56363" lon="2.02351">
        <ele>276.5</ele>
        <time>2022-03-08T15:09:27Z</time>
      </trkpt>
      <trkpt lat="43.56364" lon="2.02351">
        <ele>276.6</ele>
        <time>2022-03-08T15:09:28Z</time>
      </trkpt>
      <trkpt lat="43.56364" lon="2.02351">
        <ele>276.6</ele>
        <time>2022-03-08T15:09:29Z</time>
      </trkpt>
      <trkpt lat="43.56364" lon="2.02351">
        <ele>276.6</ele>
        <time>2022-03-08T15:09:31Z</time>
      </trkpt>
      <trkpt lat="43.56365" lon="2.02351">
        <ele>276.6</ele>
        <time>2022-03-08T15:09:32Z</time>
      </trkpt>
      <trkpt lat="43.56365" lon="2.02351">
        <ele>276.7</ele>
        <time>2022-03-08T15:09:33Z</time>
      </trkpt>
      <trkpt lat="43.56366" lon="2.0235">
        <ele>276.8</ele>
        <time>2022-03-08T15:09:34Z</time>
      </trkpt>
      <trkpt lat="43.56366" lon="2.0235">
        <ele>276.8</ele>
        <time>2022-03-08T15:09:35Z</time>
      </trkpt>
      <trkpt lat="43.56367" lon="2.0235">
        <ele>276.9</ele>
        <time>2022-03-08T15:09:36Z</time>
      </trkpt>
      <trkpt lat="43.56368" lon="2.02349">
        <ele>277</ele>
        <time>2022-03-08T15:09:37Z</time>
      </trkpt>
      <trkpt lat="43.5637" lon="2.02349">
        <ele>277.1</ele>
        <time>2022-03-08T15:09:39Z</time>
      </trkpt>
      <trkpt lat="43.5637" lon="2.02348">
        <ele>277.2</ele>
        <time>2022-03-08T15:09:40Z</time>
      </trkpt>
      <trkpt lat="43.56371" lon="2.02348">
        <ele>277.3</ele>
        <time>2022-03-08T15:09:41Z</time>
      </trkpt>
      <trkpt lat="43.56372" lon="2.02348">
        <ele>277.4</ele>
        <time>2022-03-08T15:09:42Z</time>
      </trkpt>
      <trkpt lat="43.56372" lon="2.02348">
        <ele>277.4</ele>
        <time>2022-03-08T15:09:44Z</time>
      </trkpt>
      <trkpt lat="43.56372" lon="2.02348">
        <ele>277.4</ele>
        <time>2022-03-08T15:09:45Z</time>
      </trkpt>
      <trkpt lat="43.56373" lon="2.02347">
        <ele>277.5</ele>
        <time>2022-03-08T15:09:46Z</time>
      </trkpt>
      <trkpt lat="43.56373" lon="2.02347">
        <ele>277.5</ele>
        <time>2022-03-08T15:09:47Z</time>
      </trkpt>
      <trkpt lat="43.56373" lon="2.02347">
        <ele>277.5</ele>
        <time>2022-03-08T15:09:49Z</time>
      </trkpt>
      <trkpt lat="43.56373" lon="2.02347">
        <ele>277.5</ele>
        <time>2022-03-08T15:09:50Z</time>
      </trkpt>
      <trkpt lat="43.56373" lon="2.02347">
        <ele>277.5</ele>
        <time>2022-03-08T15:09:51Z</time>
      </trkpt>
      <trkpt lat="43.56374" lon="2.02347">
        <ele>277.6</ele>
        <time>2022-03-08T15:09:53Z</time>
      </trkpt>
      <trkpt lat="43.56375" lon="2.02347">
        <ele>277.7</ele>
        <time>2022-03-08T15:09:54Z</time>
      </trkpt>
      <trkpt lat="43.56375" lon="2.02347">
        <ele>277.8</ele>
        <time>2022-03-08T15:09:55Z</time>
      </trkpt>
      <trkpt lat="43.56376" lon="2.02346">
        <ele>277.9</ele>
        <time>2022-03-08T15:09:56Z</time>
      </trkpt>
      <trkpt lat="43.56377" lon="2.02346">
        <ele>278.1</ele>
        <time>2022-03-08T15:09:57Z</time>
      </trkpt>
      <trkpt lat="43.56379" lon="2.02346">
        <ele>278.2</ele>
        <time>2022-03-08T15:09:59Z</time>
      </trkpt>
      <trkpt lat="43.5638" lon="2.02345">
        <ele>278.4</ele>
        <time>2022-03-08T15:10:00Z</time>
      </trkpt>
      <trkpt lat="43.56381" lon="2.02345">
        <ele>278.6</ele>
        <time>2022-03-08T15:10:01Z</time>
      </trkpt>
      <trkpt lat="43.56385" lon="2.02343">
        <ele>279.1</ele>
        <time>2022-03-08T15:10:03Z</time>
      </trkpt>
      <trkpt lat="43.56386" lon="2.02343">
        <ele>279.2</ele>
        <time>2022-03-08T15:10:04Z</time>
      </trkpt>
      <trkpt lat="43.56388" lon="2.02341">
        <ele>279.6</ele>
        <time>2022-03-08T15:10:05Z</time>
      </trkpt>
      <trkpt lat="43.5639" lon="2.0234">
        <ele>279.8</ele>
        <time>2022-03-08T15:10:06Z</time>
      </trkpt>
      <trkpt lat="43.56391" lon="2.02339">
        <ele>280</ele>
        <time>2022-03-08T15:10:08Z</time>
      </trkpt>
      <trkpt lat="43.56393" lon="2.02339">
        <ele>280.1</ele>
        <time>2022-03-08T15:10:09Z</time>
      </trkpt>
      <trkpt lat="43.56395" lon="2.02338">
        <ele>280.4</ele>
        <time>2022-03-08T15:10:10Z</time>
      </trkpt>
      <trkpt lat="43.56397" lon="2.02338">
        <ele>280.6</ele>
        <time>2022-03-08T15:10:11Z</time>
      </trkpt>
      <trkpt lat="43.56399" lon="2.02338">
        <ele>280.7</ele>
        <time>2022-03-08T15:10:13Z</time>
      </trkpt>
      <trkpt lat="43.56401" lon="2.02337">
        <ele>280.9</ele>
        <time>2022-03-08T15:10:14Z</time>
      </trkpt>
      <trkpt lat="43.56402" lon="2.02337">
        <ele>281.1</ele>
        <time>2022-03-08T15:10:15Z</time>
      </trkpt>
      <trkpt lat="43.56405" lon="2.02337">
        <ele>281.3</ele>
        <time>2022-03-08T15:10:16Z</time>
      </trkpt>
      <trkpt lat="43.56407" lon="2.02337">
        <ele>281.5</ele>
        <time>2022-03-08T15:10:17Z</time>
      </trkpt>
      <trkpt lat="43.56409" lon="2.02337">
        <ele>281.6</ele>
        <time>2022-03-08T15:10:19Z</time>
      </trkpt>
      <trkpt lat="43.5641" lon="2.02337">
        <ele>281.8</ele>
        <time>2022-03-08T15:10:20Z</time>
      </trkpt>
      <trkpt lat="43.56412" lon="2.02337">
        <ele>281.9</ele>
        <time>2022-03-08T15:10:21Z</time>
      </trkpt>
      <trkpt lat="43.56416" lon="2.02338">
        <ele>282.2</ele>
        <time>2022-03-08T15:10:23Z</time>
      </trkpt>
      <trkpt lat="43.56417" lon="2.02338">
        <ele>282.2</ele>
        <time>2022-03-08T15:10:24Z</time>
      </trkpt>
      <trkpt lat="43.56418" lon="2.02338">
        <ele>282.3</ele>
        <time>2022-03-08T15:10:25Z</time>
      </trkpt>
      <trkpt lat="43.5642" lon="2.02339">
        <ele>282.4</ele>
        <time>2022-03-08T15:10:27Z</time>
      </trkpt>
      <trkpt lat="43.56421" lon="2.02339">
        <ele>282.5</ele>
        <time>2022-03-08T15:10:28Z</time>
      </trkpt>
      <trkpt lat="43.56423" lon="2.02339">
        <ele>282.6</ele>
        <time>2022-03-08T15:10:29Z</time>
      </trkpt>
      <trkpt lat="43.56424" lon="2.0234">
        <ele>282.7</ele>
        <time>2022-03-08T15:10:30Z</time>
      </trkpt>
      <trkpt lat="43.56425" lon="2.0234">
        <ele>282.7</ele>
        <time>2022-03-08T15:10:31Z</time>
      </trkpt>
      <trkpt lat="43.56427" lon="2.02341">
        <ele>282.8</ele>
        <time>2022-03-08T15:10:33Z</time>
      </trkpt>
      <trkpt lat="43.56428" lon="2.02341">
        <ele>282.9</ele>
        <time>2022-03-08T15:10:34Z</time>
      </trkpt>
      <trkpt lat="43.5643" lon="2.02342">
        <ele>283</ele>
        <time>2022-03-08T15:10:35Z</time>
      </trkpt>
      <trkpt lat="43.56431" lon="2.02342">
        <ele>283</ele>
        <time>2022-03-08T15:10:37Z</time>
      </trkpt>
      <trkpt lat="43.56431" lon="2.02342">
        <ele>283.1</ele>
        <time>2022-03-08T15:10:38Z</time>
      </trkpt>
      <trkpt lat="43.56432" lon="2.02342">
        <ele>283.1</ele>
        <time>2022-03-08T15:10:39Z</time>
      </trkpt>
      <trkpt lat="43.56433" lon="2.02342">
        <ele>283.1</ele>
        <time>2022-03-08T15:10:40Z</time>
      </trkpt>
      <trkpt lat="43.56434" lon="2.02342">
        <ele>283.2</ele>
        <time>2022-03-08T15:10:41Z</time>
      </trkpt>
      <trkpt lat="43.56435" lon="2.02342">
        <ele>283.2</ele>
        <time>2022-03-08T15:10:42Z</time>
      </trkpt>
      <trkpt lat="43.56436" lon="2.02342">
        <ele>283.3</ele>
        <time>2022-03-08T15:10:43Z</time>
      </trkpt>
      <trkpt lat="43.56437" lon="2.02342">
        <ele>283.3</ele>
        <time>2022-03-08T15:10:44Z</time>
      </trkpt>
      <trkpt lat="43.56437" lon="2.02342">
        <ele>283.3</ele>
        <time>2022-03-08T15:10:46Z</time>
      </trkpt>
      <trkpt lat="43.56437" lon="2.02342">
        <ele>283.3</ele>
        <time>2022-03-08T15:10:47Z</time>
      </trkpt>
      <trkpt lat="43.56438" lon="2.02342">
        <ele>283.3</ele>
        <time>2022-03-08T15:10:48Z</time>
      </trkpt>
      <trkpt lat="43.56438" lon="2.02342">
        <ele>283.3</ele>
        <time>2022-03-08T15:10:49Z</time>
      </trkpt>
      <trkpt lat="43.56438" lon="2.02342">
        <ele>283.4</ele>
        <time>2022-03-08T15:10:50Z</time>
      </trkpt>
      <trkpt lat="43.56438" lon="2.02342">
        <ele>283.4</ele>
        <time>2022-03-08T15:10:51Z</time>
      </trkpt>
      <trkpt lat="43.56438" lon="2.02342">
        <ele>283.4</ele>
        <time>2022-03-08T15:10:52Z</time>
      </trkpt>
      <trkpt lat="43.56438" lon="2.02342">
        <ele>283.4</ele>
        <time>2022-03-08T15:10:54Z</time>
      </trkpt>
      <trkpt lat="43.56438" lon="2.02342">
        <ele>283.4</ele>
        <time>2022-03-08T15:10:55Z</time>
      </trkpt>
      <trkpt lat="43.56438" lon="2.02342">
        <ele>283.4</ele>
        <time>2022-03-08T15:10:57Z</time>
      </trkpt>
      <trkpt lat="43.56439" lon="2.02342">
        <ele>283.4</ele>
        <time>2022-03-08T15:10:58Z</time>
      </trkpt>
      <trkpt lat="43.56439" lon="2.02342">
        <ele>283.4</ele>
        <time>2022-03-08T15:10:59Z</time>
      </trkpt>
      <trkpt lat="43.56439" lon="2.02342">
        <ele>283.4</ele>
        <time>2022-03-08T15:11:00Z</time>
      </trkpt>
      <trkpt lat="43.56439" lon="2.02342">
        <ele>283.4</ele>
        <time>2022-03-08T15:11:01Z</time>
      </trkpt>
      <trkpt lat="43.56439" lon="2.02342">
        <ele>283.4</ele>
        <time>2022-03-08T15:11:02Z</time>
      </trkpt>
      <trkpt lat="43.56439" lon="2.02342">
        <ele>283.4</ele>
        <time>2022-03-08T15:11:03Z</time>
      </trkpt>
      <trkpt lat="43.5644" lon="2.02342">
        <ele>283.4</ele>
        <time>2022-03-08T15:11:04Z</time>
      </trkpt>
      <trkpt lat="43.5644" lon="2.02342">
        <ele>283.5</ele>
        <time>2022-03-08T15:11:05Z</time>
      </trkpt>
      <trkpt lat="43.56441" lon="2.02342">
        <ele>283.5</ele>
        <time>2022-03-08T15:11:06Z</time>
      </trkpt>
      <trkpt lat="43.56443" lon="2.02343">
        <ele>283.5</ele>
        <time>2022-03-08T15:11:07Z</time>
      </trkpt>
      <trkpt lat="43.56444" lon="2.02343">
        <ele>283.6</ele>
        <time>2022-03-08T15:11:08Z</time>
      </trkpt>
      <trkpt lat="43.56445" lon="2.02343">
        <ele>283.6</ele>
        <time>2022-03-08T15:11:09Z</time>
      </trkpt>
      <trkpt lat="43.56446" lon="2.02344">
        <ele>283.6</ele>
        <time>2022-03-08T15:11:10Z</time>
      </trkpt>
      <trkpt lat="43.56446" lon="2.02344">
        <ele>283.7</ele>
        <time>2022-03-08T15:11:11Z</time>
      </trkpt>
      <trkpt lat="43.56447" lon="2.02344">
        <ele>283.7</ele>
        <time>2022-03-08T15:11:13Z</time>
      </trkpt>
      <trkpt lat="43.56447" lon="2.02344">
        <ele>283.7</ele>
        <time>2022-03-08T15:11:14Z</time>
      </trkpt>
      <trkpt lat="43.56448" lon="2.02344">
        <ele>283.7</ele>
        <time>2022-03-08T15:11:15Z</time>
      </trkpt>
      <trkpt lat="43.56448" lon="2.02344">
        <ele>283.7</ele>
        <time>2022-03-08T15:11:16Z</time>
      </trkpt>
      <trkpt lat="43.56448" lon="2.02344">
        <ele>283.7</ele>
        <time>2022-03-08T15:11:17Z</time>
      </trkpt>
      <trkpt lat="43.56448" lon="2.02344">
        <ele>283.7</ele>
        <time>2022-03-08T15:11:18Z</time>
      </trkpt>
      <trkpt lat="43.56448" lon="2.02344">
        <ele>283.7</ele>
        <time>2022-03-08T15:11:19Z</time>
      </trkpt>
      <trkpt lat="43.56448" lon="2.02344">
        <ele>283.7</ele>
        <time>2022-03-08T15:11:21Z</time>
      </trkpt>
      <trkpt lat="43.56449" lon="2.02344">
        <ele>283.7</ele>
        <time>2022-03-08T15:11:22Z</time>
      </trkpt>
      <trkpt lat="43.5645" lon="2.02343">
        <ele>283.8</ele>
        <time>2022-03-08T15:11:24Z</time>
      </trkpt>
      <trkpt lat="43.5645" lon="2.02343">
        <ele>283.8</ele>
        <time>2022-03-08T15:11:25Z</time>
      </trkpt>
      <trkpt lat="43.56451" lon="2.02342">
        <ele>283.8</ele>
        <time>2022-03-08T15:11:26Z</time>
      </trkpt>
      <trkpt lat="43.56452" lon="2.02341">
        <ele>283.8</ele>
        <time>2022-03-08T15:11:27Z</time>
      </trkpt>
      <trkpt lat="43.56453" lon="2.0234">
        <ele>283.9</ele>
        <time>2022-03-08T15:11:28Z</time>
      </trkpt>
      <trkpt lat="43.56454" lon="2.02339">
        <ele>283.9</ele>
        <time>2022-03-08T15:11:29Z</time>
      </trkpt>
      <trkpt lat="43.56455" lon="2.02338">
        <ele>283.9</ele>
        <time>2022-03-08T15:11:30Z</time>
      </trkpt>
      <trkpt lat="43.56456" lon="2.02337">
        <ele>284</ele>
        <time>2022-03-08T15:11:31Z</time>
      </trkpt>
      <trkpt lat="43.56459" lon="2.02335">
        <ele>283.9</ele>
        <time>2022-03-08T15:11:32Z</time>
      </trkpt>
      <trkpt lat="43.5646" lon="2.02335">
        <ele>283.9</ele>
        <time>2022-03-08T15:11:33Z</time>
      </trkpt>
      <trkpt lat="43.56462" lon="2.02334">
        <ele>283.9</ele>
        <time>2022-03-08T15:11:35Z</time>
      </trkpt>
      <trkpt lat="43.56462" lon="2.02334">
        <ele>283.8</ele>
        <time>2022-03-08T15:11:36Z</time>
      </trkpt>
      <trkpt lat="43.56462" lon="2.02333">
        <ele>283.8</ele>
        <time>2022-03-08T15:11:37Z</time>
      </trkpt>
      <trkpt lat="43.56462" lon="2.02333">
        <ele>283.8</ele>
        <time>2022-03-08T15:11:38Z</time>
      </trkpt>
      <trkpt lat="43.56464" lon="2.02332">
        <ele>283.8</ele>
        <time>2022-03-08T15:11:39Z</time>
      </trkpt>
      <trkpt lat="43.56464" lon="2.02331">
        <ele>283.8</ele>
        <time>2022-03-08T15:11:41Z</time>
      </trkpt>
      <trkpt lat="43.56465" lon="2.02331">
        <ele>283.7</ele>
        <time>2022-03-08T15:11:42Z</time>
      </trkpt>
      <trkpt lat="43.56466" lon="2.0233">
        <ele>283.7</ele>
        <time>2022-03-08T15:11:43Z</time>
      </trkpt>
      <trkpt lat="43.56466" lon="2.0233">
        <ele>283.7</ele>
        <time>2022-03-08T15:11:45Z</time>
      </trkpt>
      <trkpt lat="43.56466" lon="2.0233">
        <ele>283.7</ele>
        <time>2022-03-08T15:11:46Z</time>
      </trkpt>
      <trkpt lat="43.56467" lon="2.0233">
        <ele>283.7</ele>
        <time>2022-03-08T15:11:47Z</time>
      </trkpt>
      <trkpt lat="43.56467" lon="2.02329">
        <ele>283.7</ele>
        <time>2022-03-08T15:11:48Z</time>
      </trkpt>
      <trkpt lat="43.56467" lon="2.02328">
        <ele>283.6</ele>
        <time>2022-03-08T15:11:49Z</time>
      </trkpt>
      <trkpt lat="43.56468" lon="2.02328">
        <ele>283.6</ele>
        <time>2022-03-08T15:11:50Z</time>
      </trkpt>
      <trkpt lat="43.56469" lon="2.02327">
        <ele>283.6</ele>
        <time>2022-03-08T15:11:51Z</time>
      </trkpt>
      <trkpt lat="43.56469" lon="2.02326">
        <ele>283.6</ele>
        <time>2022-03-08T15:11:52Z</time>
      </trkpt>
      <trkpt lat="43.56469" lon="2.02326">
        <ele>283.5</ele>
        <time>2022-03-08T15:11:53Z</time>
      </trkpt>
      <trkpt lat="43.5647" lon="2.02324">
        <ele>283.5</ele>
        <time>2022-03-08T15:11:54Z</time>
      </trkpt>
      <trkpt lat="43.56472" lon="2.02322">
        <ele>283.4</ele>
        <time>2022-03-08T15:11:56Z</time>
      </trkpt>
      <trkpt lat="43.56472" lon="2.02321">
        <ele>283.4</ele>
        <time>2022-03-08T15:11:57Z</time>
      </trkpt>
      <trkpt lat="43.56473" lon="2.0232">
        <ele>283.4</ele>
        <time>2022-03-08T15:11:58Z</time>
      </trkpt>
      <trkpt lat="43.56475" lon="2.02317">
        <ele>283.3</ele>
        <time>2022-03-08T15:11:59Z</time>
      </trkpt>
      <trkpt lat="43.56476" lon="2.02316">
        <ele>283.3</ele>
        <time>2022-03-08T15:12:00Z</time>
      </trkpt>
      <trkpt lat="43.56478" lon="2.02312">
        <ele>283.2</ele>
        <time>2022-03-08T15:12:01Z</time>
      </trkpt>
      <trkpt lat="43.56479" lon="2.02311">
        <ele>283.2</ele>
        <time>2022-03-08T15:12:02Z</time>
      </trkpt>
      <trkpt lat="43.5648" lon="2.02309">
        <ele>283.2</ele>
        <time>2022-03-08T15:12:03Z</time>
      </trkpt>
      <trkpt lat="43.56481" lon="2.02307">
        <ele>283.2</ele>
        <time>2022-03-08T15:12:05Z</time>
      </trkpt>
      <trkpt lat="43.56482" lon="2.02306">
        <ele>283.2</ele>
        <time>2022-03-08T15:12:06Z</time>
      </trkpt>
      <trkpt lat="43.56484" lon="2.02304">
        <ele>283.2</ele>
        <time>2022-03-08T15:12:07Z</time>
      </trkpt>
      <trkpt lat="43.56485" lon="2.02303">
        <ele>283.2</ele>
        <time>2022-03-08T15:12:08Z</time>
      </trkpt>
      <trkpt lat="43.56486" lon="2.02301">
        <ele>283.2</ele>
        <time>2022-03-08T15:12:09Z</time>
      </trkpt>
      <trkpt lat="43.56488" lon="2.023">
        <ele>283.2</ele>
        <time>2022-03-08T15:12:10Z</time>
      </trkpt>
      <trkpt lat="43.56489" lon="2.02299">
        <ele>283.2</ele>
        <time>2022-03-08T15:12:11Z</time>
      </trkpt>
      <trkpt lat="43.5649" lon="2.02299">
        <ele>283.2</ele>
        <time>2022-03-08T15:12:12Z</time>
      </trkpt>
      <trkpt lat="43.56491" lon="2.02297">
        <ele>283.2</ele>
        <time>2022-03-08T15:12:13Z</time>
      </trkpt>
      <trkpt lat="43.56492" lon="2.02296">
        <ele>283.2</ele>
        <time>2022-03-08T15:12:14Z</time>
      </trkpt>
      <trkpt lat="43.56494" lon="2.02295">
        <ele>283.2</ele>
        <time>2022-03-08T15:12:15Z</time>
      </trkpt>
      <trkpt lat="43.56495" lon="2.02295">
        <ele>283.2</ele>
        <time>2022-03-08T15:12:16Z</time>
      </trkpt>
      <trkpt lat="43.56496" lon="2.02294">
        <ele>283.2</ele>
        <time>2022-03-08T15:12:17Z</time>
      </trkpt>
      <trkpt lat="43.56497" lon="2.02293">
        <ele>283.3</ele>
        <time>2022-03-08T15:12:18Z</time>
      </trkpt>
      <trkpt lat="43.56499" lon="2.02292">
        <ele>283.3</ele>
        <time>2022-03-08T15:12:19Z</time>
      </trkpt>
      <trkpt lat="43.565" lon="2.02291">
        <ele>283.3</ele>
        <time>2022-03-08T15:12:20Z</time>
      </trkpt>
      <trkpt lat="43.56501" lon="2.0229">
        <ele>283.3</ele>
        <time>2022-03-08T15:12:21Z</time>
      </trkpt>
      <trkpt lat="43.56502" lon="2.02289">
        <ele>283.4</ele>
        <time>2022-03-08T15:12:22Z</time>
      </trkpt>
      <trkpt lat="43.56504" lon="2.02289">
        <ele>283.4</ele>
        <time>2022-03-08T15:12:23Z</time>
      </trkpt>
      <trkpt lat="43.56505" lon="2.02288">
        <ele>283.4</ele>
        <time>2022-03-08T15:12:24Z</time>
      </trkpt>
      <trkpt lat="43.56508" lon="2.02287">
        <ele>283.5</ele>
        <time>2022-03-08T15:12:25Z</time>
      </trkpt>
      <trkpt lat="43.56509" lon="2.02287">
        <ele>283.5</ele>
        <time>2022-03-08T15:12:26Z</time>
      </trkpt>
      <trkpt lat="43.56511" lon="2.02287">
        <ele>283.6</ele>
        <time>2022-03-08T15:12:27Z</time>
      </trkpt>
      <trkpt lat="43.56512" lon="2.02287">
        <ele>283.6</ele>
        <time>2022-03-08T15:12:28Z</time>
      </trkpt>
      <trkpt lat="43.56513" lon="2.02288">
        <ele>283.6</ele>
        <time>2022-03-08T15:12:29Z</time>
      </trkpt>
      <trkpt lat="43.56515" lon="2.02288">
        <ele>283.7</ele>
        <time>2022-03-08T15:12:30Z</time>
      </trkpt>
      <trkpt lat="43.56516" lon="2.02288">
        <ele>283.7</ele>
        <time>2022-03-08T15:12:31Z</time>
      </trkpt>
      <trkpt lat="43.56517" lon="2.02287">
        <ele>283.8</ele>
        <time>2022-03-08T15:12:32Z</time>
      </trkpt>
      <trkpt lat="43.56519" lon="2.02287">
        <ele>283.9</ele>
        <time>2022-03-08T15:12:33Z</time>
      </trkpt>
      <trkpt lat="43.5652" lon="2.02286">
        <ele>283.9</ele>
        <time>2022-03-08T15:12:34Z</time>
      </trkpt>
      <trkpt lat="43.56521" lon="2.02286">
        <ele>283.9</ele>
        <time>2022-03-08T15:12:35Z</time>
      </trkpt>
      <trkpt lat="43.56523" lon="2.02285">
        <ele>284</ele>
        <time>2022-03-08T15:12:37Z</time>
      </trkpt>
      <trkpt lat="43.56524" lon="2.02285">
        <ele>284.1</ele>
        <time>2022-03-08T15:12:38Z</time>
      </trkpt>
      <trkpt lat="43.56526" lon="2.02285">
        <ele>284.1</ele>
        <time>2022-03-08T15:12:39Z</time>
      </trkpt>
      <trkpt lat="43.56528" lon="2.02286">
        <ele>284.3</ele>
        <time>2022-03-08T15:12:40Z</time>
      </trkpt>
      <trkpt lat="43.56529" lon="2.02286">
        <ele>284.3</ele>
        <time>2022-03-08T15:12:41Z</time>
      </trkpt>
      <trkpt lat="43.56529" lon="2.02286">
        <ele>284.3</ele>
        <time>2022-03-08T15:12:42Z</time>
      </trkpt>
      <trkpt lat="43.5653" lon="2.02286">
        <ele>284.4</ele>
        <time>2022-03-08T15:12:43Z</time>
      </trkpt>
      <trkpt lat="43.56531" lon="2.02286">
        <ele>284.4</ele>
        <time>2022-03-08T15:12:44Z</time>
      </trkpt>
      <trkpt lat="43.56532" lon="2.02285">
        <ele>284.5</ele>
        <time>2022-03-08T15:12:45Z</time>
      </trkpt>
      <trkpt lat="43.56533" lon="2.02285">
        <ele>284.5</ele>
        <time>2022-03-08T15:12:46Z</time>
      </trkpt>
      <trkpt lat="43.56535" lon="2.02285">
        <ele>284.6</ele>
        <time>2022-03-08T15:12:47Z</time>
      </trkpt>
      <trkpt lat="43.56535" lon="2.02286">
        <ele>284.6</ele>
        <time>2022-03-08T15:12:49Z</time>
      </trkpt>
      <trkpt lat="43.56537" lon="2.02287">
        <ele>284.7</ele>
        <time>2022-03-08T15:12:50Z</time>
      </trkpt>
      <trkpt lat="43.56538" lon="2.02286">
        <ele>284.8</ele>
        <time>2022-03-08T15:12:51Z</time>
      </trkpt>
      <trkpt lat="43.56538" lon="2.02287">
        <ele>284.9</ele>
        <time>2022-03-08T15:12:52Z</time>
      </trkpt>
      <trkpt lat="43.56539" lon="2.02287">
        <ele>284.9</ele>
        <time>2022-03-08T15:12:53Z</time>
      </trkpt>
      <trkpt lat="43.5654" lon="2.02287">
        <ele>285.1</ele>
        <time>2022-03-08T15:12:54Z</time>
      </trkpt>
      <trkpt lat="43.56541" lon="2.02287">
        <ele>285.1</ele>
        <time>2022-03-08T15:12:56Z</time>
      </trkpt>
      <trkpt lat="43.56542" lon="2.02288">
        <ele>285.2</ele>
        <time>2022-03-08T15:12:57Z</time>
      </trkpt>
      <trkpt lat="43.56543" lon="2.02288">
        <ele>285.3</ele>
        <time>2022-03-08T15:12:58Z</time>
      </trkpt>
      <trkpt lat="43.56544" lon="2.02288">
        <ele>285.4</ele>
        <time>2022-03-08T15:12:59Z</time>
      </trkpt>
      <trkpt lat="43.56544" lon="2.02289">
        <ele>285.4</ele>
        <time>2022-03-08T15:13:00Z</time>
      </trkpt>
      <trkpt lat="43.56545" lon="2.02289">
        <ele>285.5</ele>
        <time>2022-03-08T15:13:01Z</time>
      </trkpt>
      <trkpt lat="43.56545" lon="2.02289">
        <ele>285.5</ele>
        <time>2022-03-08T15:13:02Z</time>
      </trkpt>
      <trkpt lat="43.56545" lon="2.0229">
        <ele>285.5</ele>
        <time>2022-03-08T15:13:04Z</time>
      </trkpt>
      <trkpt lat="43.56545" lon="2.0229">
        <ele>285.5</ele>
        <time>2022-03-08T15:13:05Z</time>
      </trkpt>
      <trkpt lat="43.56545" lon="2.0229">
        <ele>285.5</ele>
        <time>2022-03-08T15:13:06Z</time>
      </trkpt>
      <trkpt lat="43.56546" lon="2.0229">
        <ele>285.6</ele>
        <time>2022-03-08T15:13:07Z</time>
      </trkpt>
      <trkpt lat="43.56547" lon="2.02291">
        <ele>285.6</ele>
        <time>2022-03-08T15:13:08Z</time>
      </trkpt>
      <trkpt lat="43.56548" lon="2.02291">
        <ele>285.7</ele>
        <time>2022-03-08T15:13:09Z</time>
      </trkpt>
      <trkpt lat="43.5655" lon="2.02291">
        <ele>285.8</ele>
        <time>2022-03-08T15:13:11Z</time>
      </trkpt>
      <trkpt lat="43.56551" lon="2.02292">
        <ele>285.9</ele>
        <time>2022-03-08T15:13:12Z</time>
      </trkpt>
      <trkpt lat="43.56552" lon="2.02292">
        <ele>286</ele>
        <time>2022-03-08T15:13:13Z</time>
      </trkpt>
      <trkpt lat="43.56554" lon="2.02293">
        <ele>286.1</ele>
        <time>2022-03-08T15:13:14Z</time>
      </trkpt>
      <trkpt lat="43.56555" lon="2.02294">
        <ele>286.1</ele>
        <time>2022-03-08T15:13:15Z</time>
      </trkpt>
      <trkpt lat="43.56556" lon="2.02294">
        <ele>286.2</ele>
        <time>2022-03-08T15:13:16Z</time>
      </trkpt>
      <trkpt lat="43.56557" lon="2.02295">
        <ele>286.2</ele>
        <time>2022-03-08T15:13:17Z</time>
      </trkpt>
      <trkpt lat="43.56558" lon="2.02296">
        <ele>286.3</ele>
        <time>2022-03-08T15:13:19Z</time>
      </trkpt>
      <trkpt lat="43.56558" lon="2.02297">
        <ele>286.3</ele>
        <time>2022-03-08T15:13:20Z</time>
      </trkpt>
      <trkpt lat="43.56559" lon="2.02297">
        <ele>286.3</ele>
        <time>2022-03-08T15:13:21Z</time>
      </trkpt>
      <trkpt lat="43.56559" lon="2.02297">
        <ele>286.3</ele>
        <time>2022-03-08T15:13:22Z</time>
      </trkpt>
      <trkpt lat="43.56559" lon="2.02297">
        <ele>286.3</ele>
        <time>2022-03-08T15:13:23Z</time>
      </trkpt>
      <trkpt lat="43.56559" lon="2.02297">
        <ele>286.3</ele>
        <time>2022-03-08T15:13:24Z</time>
      </trkpt>
      <trkpt lat="43.56559" lon="2.02297">
        <ele>286.3</ele>
        <time>2022-03-08T15:13:25Z</time>
      </trkpt>
      <trkpt lat="43.5656" lon="2.02297">
        <ele>286.4</ele>
        <time>2022-03-08T15:13:27Z</time>
      </trkpt>
      <trkpt lat="43.56561" lon="2.02297">
        <ele>286.4</ele>
        <time>2022-03-08T15:13:28Z</time>
      </trkpt>
      <trkpt lat="43.56563" lon="2.02297">
        <ele>286.5</ele>
        <time>2022-03-08T15:13:29Z</time>
      </trkpt>
      <trkpt lat="43.56564" lon="2.02297">
        <ele>286.5</ele>
        <time>2022-03-08T15:13:30Z</time>
      </trkpt>
      <trkpt lat="43.56565" lon="2.02297">
        <ele>286.5</ele>
        <time>2022-03-08T15:13:31Z</time>
      </trkpt>
      <trkpt lat="43.56566" lon="2.02297">
        <ele>286.5</ele>
        <time>2022-03-08T15:13:32Z</time>
      </trkpt>
      <trkpt lat="43.56568" lon="2.02297">
        <ele>286.5</ele>
        <time>2022-03-08T15:13:33Z</time>
      </trkpt>
      <trkpt lat="43.56572" lon="2.02298">
        <ele>286.5</ele>
        <time>2022-03-08T15:13:34Z</time>
      </trkpt>
      <trkpt lat="43.56574" lon="2.02299">
        <ele>286.5</ele>
        <time>2022-03-08T15:13:36Z</time>
      </trkpt>
      <trkpt lat="43.56575" lon="2.023">
        <ele>286.5</ele>
        <time>2022-03-08T15:13:37Z</time>
      </trkpt>
      <trkpt lat="43.56576" lon="2.023">
        <ele>286.5</ele>
        <time>2022-03-08T15:13:38Z</time>
      </trkpt>
      <trkpt lat="43.56576" lon="2.023">
        <ele>286.5</ele>
        <time>2022-03-08T15:13:39Z</time>
      </trkpt>
      <trkpt lat="43.56577" lon="2.023">
        <ele>286.5</ele>
        <time>2022-03-08T15:13:40Z</time>
      </trkpt>
      <trkpt lat="43.56578" lon="2.023">
        <ele>286.4</ele>
        <time>2022-03-08T15:13:42Z</time>
      </trkpt>
      <trkpt lat="43.5658" lon="2.023">
        <ele>286.4</ele>
        <time>2022-03-08T15:13:43Z</time>
      </trkpt>
      <trkpt lat="43.56581" lon="2.02301">
        <ele>286.4</ele>
        <time>2022-03-08T15:13:44Z</time>
      </trkpt>
      <trkpt lat="43.56581" lon="2.02301">
        <ele>286.3</ele>
        <time>2022-03-08T15:13:45Z</time>
      </trkpt>
      <trkpt lat="43.56582" lon="2.02301">
        <ele>286.3</ele>
        <time>2022-03-08T15:13:46Z</time>
      </trkpt>
      <trkpt lat="43.56583" lon="2.02302">
        <ele>286.3</ele>
        <time>2022-03-08T15:13:47Z</time>
      </trkpt>
      <trkpt lat="43.56584" lon="2.02302">
        <ele>286.3</ele>
        <time>2022-03-08T15:13:48Z</time>
      </trkpt>
      <trkpt lat="43.56584" lon="2.02302">
        <ele>286.2</ele>
        <time>2022-03-08T15:13:49Z</time>
      </trkpt>
      <trkpt lat="43.56585" lon="2.02302">
        <ele>286.2</ele>
        <time>2022-03-08T15:13:50Z</time>
      </trkpt>
      <trkpt lat="43.56585" lon="2.02302">
        <ele>286.2</ele>
        <time>2022-03-08T15:13:51Z</time>
      </trkpt>
      <trkpt lat="43.56586" lon="2.02302">
        <ele>286.2</ele>
        <time>2022-03-08T15:13:52Z</time>
      </trkpt>
      <trkpt lat="43.56586" lon="2.02302">
        <ele>286.2</ele>
        <time>2022-03-08T15:13:53Z</time>
      </trkpt>
      <trkpt lat="43.56587" lon="2.02302">
        <ele>286.2</ele>
        <time>2022-03-08T15:13:55Z</time>
      </trkpt>
      <trkpt lat="43.56587" lon="2.02302">
        <ele>286.1</ele>
        <time>2022-03-08T15:13:56Z</time>
      </trkpt>
      <trkpt lat="43.56588" lon="2.02302">
        <ele>286.1</ele>
        <time>2022-03-08T15:13:57Z</time>
      </trkpt>
      <trkpt lat="43.56592" lon="2.02302">
        <ele>286</ele>
        <time>2022-03-08T15:13:58Z</time>
      </trkpt>
      <trkpt lat="43.56594" lon="2.02302">
        <ele>285.9</ele>
        <time>2022-03-08T15:13:59Z</time>
      </trkpt>
      <trkpt lat="43.56597" lon="2.02301">
        <ele>285.9</ele>
        <time>2022-03-08T15:14:00Z</time>
      </trkpt>
      <trkpt lat="43.56598" lon="2.02301">
        <ele>285.8</ele>
        <time>2022-03-08T15:14:01Z</time>
      </trkpt>
      <trkpt lat="43.566" lon="2.02301">
        <ele>285.8</ele>
        <time>2022-03-08T15:14:02Z</time>
      </trkpt>
      <trkpt lat="43.56603" lon="2.02301">
        <ele>285.8</ele>
        <time>2022-03-08T15:14:04Z</time>
      </trkpt>
      <trkpt lat="43.56606" lon="2.02301">
        <ele>285.8</ele>
        <time>2022-03-08T15:14:05Z</time>
      </trkpt>
      <trkpt lat="43.56611" lon="2.02301">
        <ele>285.8</ele>
        <time>2022-03-08T15:14:06Z</time>
      </trkpt>
      <trkpt lat="43.56614" lon="2.02301">
        <ele>285.9</ele>
        <time>2022-03-08T15:14:07Z</time>
      </trkpt>
      <trkpt lat="43.56616" lon="2.02301">
        <ele>285.9</ele>
        <time>2022-03-08T15:14:08Z</time>
      </trkpt>
      <trkpt lat="43.5662" lon="2.02302">
        <ele>286.1</ele>
        <time>2022-03-08T15:14:09Z</time>
      </trkpt>
      <trkpt lat="43.56626" lon="2.02303">
        <ele>286.4</ele>
        <time>2022-03-08T15:14:10Z</time>
      </trkpt>
      <trkpt lat="43.5663" lon="2.02304">
        <ele>286.6</ele>
        <time>2022-03-08T15:14:11Z</time>
      </trkpt>
      <trkpt lat="43.56633" lon="2.02304">
        <ele>286.9</ele>
        <time>2022-03-08T15:14:13Z</time>
      </trkpt>
      <trkpt lat="43.56634" lon="2.02304">
        <ele>286.9</ele>
        <time>2022-03-08T15:14:14Z</time>
      </trkpt>
      <trkpt lat="43.56637" lon="2.02304">
        <ele>287.2</ele>
        <time>2022-03-08T15:14:15Z</time>
      </trkpt>
      <trkpt lat="43.56638" lon="2.02304">
        <ele>287.3</ele>
        <time>2022-03-08T15:14:16Z</time>
      </trkpt>
      <trkpt lat="43.5664" lon="2.02305">
        <ele>287.5</ele>
        <time>2022-03-08T15:14:17Z</time>
      </trkpt>
      <trkpt lat="43.56641" lon="2.02305">
        <ele>287.6</ele>
        <time>2022-03-08T15:14:18Z</time>
      </trkpt>
      <trkpt lat="43.56643" lon="2.02306">
        <ele>287.8</ele>
        <time>2022-03-08T15:14:19Z</time>
      </trkpt>
      <trkpt lat="43.56644" lon="2.02306">
        <ele>287.9</ele>
        <time>2022-03-08T15:14:20Z</time>
      </trkpt>
      <trkpt lat="43.56645" lon="2.02306">
        <ele>287.9</ele>
        <time>2022-03-08T15:14:21Z</time>
      </trkpt>
      <trkpt lat="43.56646" lon="2.02306">
        <ele>288.1</ele>
        <time>2022-03-08T15:14:22Z</time>
      </trkpt>
      <trkpt lat="43.56647" lon="2.02306">
        <ele>288.1</ele>
        <time>2022-03-08T15:14:24Z</time>
      </trkpt>
      <trkpt lat="43.56647" lon="2.02306">
        <ele>288.2</ele>
        <time>2022-03-08T15:14:25Z</time>
      </trkpt>
      <trkpt lat="43.56648" lon="2.02306">
        <ele>288.2</ele>
        <time>2022-03-08T15:14:26Z</time>
      </trkpt>
      <trkpt lat="43.56648" lon="2.02306">
        <ele>288.2</ele>
        <time>2022-03-08T15:14:27Z</time>
      </trkpt>
      <trkpt lat="43.56648" lon="2.02306">
        <ele>288.3</ele>
        <time>2022-03-08T15:14:28Z</time>
      </trkpt>
      <trkpt lat="43.56649" lon="2.02306">
        <ele>288.3</ele>
        <time>2022-03-08T15:14:29Z</time>
      </trkpt>
      <trkpt lat="43.5665" lon="2.02306">
        <ele>288.4</ele>
        <time>2022-03-08T15:14:30Z</time>
      </trkpt>
      <trkpt lat="43.56651" lon="2.02306">
        <ele>288.5</ele>
        <time>2022-03-08T15:14:31Z</time>
      </trkpt>
      <trkpt lat="43.56652" lon="2.02306">
        <ele>288.6</ele>
        <time>2022-03-08T15:14:32Z</time>
      </trkpt>
      <trkpt lat="43.56654" lon="2.02306">
        <ele>288.9</ele>
        <time>2022-03-08T15:14:34Z</time>
      </trkpt>
      <trkpt lat="43.56655" lon="2.02306">
        <ele>289</ele>
        <time>2022-03-08T15:14:36Z</time>
      </trkpt>
      <trkpt lat="43.56656" lon="2.02306">
        <ele>289.1</ele>
        <time>2022-03-08T15:14:37Z</time>
      </trkpt>
      <trkpt lat="43.56657" lon="2.02306">
        <ele>289.2</ele>
        <time>2022-03-08T15:14:38Z</time>
      </trkpt>
      <trkpt lat="43.56658" lon="2.02306">
        <ele>289.3</ele>
        <time>2022-03-08T15:14:39Z</time>
      </trkpt>
      <trkpt lat="43.56659" lon="2.02306">
        <ele>289.4</ele>
        <time>2022-03-08T15:14:40Z</time>
      </trkpt>
      <trkpt lat="43.56659" lon="2.02306">
        <ele>289.5</ele>
        <time>2022-03-08T15:14:42Z</time>
      </trkpt>
      <trkpt lat="43.5666" lon="2.02306">
        <ele>289.6</ele>
        <time>2022-03-08T15:14:43Z</time>
      </trkpt>
      <trkpt lat="43.56661" lon="2.02306">
        <ele>289.7</ele>
        <time>2022-03-08T15:14:44Z</time>
      </trkpt>
      <trkpt lat="43.56662" lon="2.02306">
        <ele>289.9</ele>
        <time>2022-03-08T15:14:45Z</time>
      </trkpt>
      <trkpt lat="43.56664" lon="2.02306">
        <ele>290</ele>
        <time>2022-03-08T15:14:46Z</time>
      </trkpt>
      <trkpt lat="43.56665" lon="2.02305">
        <ele>290.2</ele>
        <time>2022-03-08T15:14:47Z</time>
      </trkpt>
      <trkpt lat="43.56666" lon="2.02305">
        <ele>290.3</ele>
        <time>2022-03-08T15:14:48Z</time>
      </trkpt>
      <trkpt lat="43.56667" lon="2.02305">
        <ele>290.4</ele>
        <time>2022-03-08T15:14:50Z</time>
      </trkpt>
      <trkpt lat="43.56668" lon="2.02305">
        <ele>290.6</ele>
        <time>2022-03-08T15:14:51Z</time>
      </trkpt>
      <trkpt lat="43.56669" lon="2.02305">
        <ele>290.7</ele>
        <time>2022-03-08T15:14:52Z</time>
      </trkpt>
      <trkpt lat="43.56671" lon="2.02304">
        <ele>291</ele>
        <time>2022-03-08T15:14:53Z</time>
      </trkpt>
      <trkpt lat="43.56672" lon="2.02304">
        <ele>291.1</ele>
        <time>2022-03-08T15:14:55Z</time>
      </trkpt>
      <trkpt lat="43.56673" lon="2.02304">
        <ele>291.3</ele>
        <time>2022-03-08T15:14:56Z</time>
      </trkpt>
      <trkpt lat="43.56674" lon="2.02304">
        <ele>291.4</ele>
        <time>2022-03-08T15:14:57Z</time>
      </trkpt>
      <trkpt lat="43.56675" lon="2.02304">
        <ele>291.5</ele>
        <time>2022-03-08T15:14:58Z</time>
      </trkpt>
      <trkpt lat="43.56676" lon="2.02304">
        <ele>291.6</ele>
        <time>2022-03-08T15:14:59Z</time>
      </trkpt>
      <trkpt lat="43.56676" lon="2.02304">
        <ele>291.7</ele>
        <time>2022-03-08T15:15:00Z</time>
      </trkpt>
      <trkpt lat="43.56679" lon="2.02305">
        <ele>291.9</ele>
        <time>2022-03-08T15:15:02Z</time>
      </trkpt>
      <trkpt lat="43.56679" lon="2.02305">
        <ele>292</ele>
        <time>2022-03-08T15:15:03Z</time>
      </trkpt>
      <trkpt lat="43.5668" lon="2.02306">
        <ele>292.1</ele>
        <time>2022-03-08T15:15:04Z</time>
      </trkpt>
      <trkpt lat="43.5668" lon="2.02306">
        <ele>292.2</ele>
        <time>2022-03-08T15:15:06Z</time>
      </trkpt>
      <trkpt lat="43.5668" lon="2.02307">
        <ele>292.2</ele>
        <time>2022-03-08T15:15:07Z</time>
      </trkpt>
      <trkpt lat="43.5668" lon="2.02307">
        <ele>292.3</ele>
        <time>2022-03-08T15:15:08Z</time>
      </trkpt>
      <trkpt lat="43.56681" lon="2.02307">
        <ele>292.3</ele>
        <time>2022-03-08T15:15:09Z</time>
      </trkpt>
      <trkpt lat="43.56682" lon="2.02307">
        <ele>292.5</ele>
        <time>2022-03-08T15:15:10Z</time>
      </trkpt>
      <trkpt lat="43.56682" lon="2.02307">
        <ele>292.6</ele>
        <time>2022-03-08T15:15:11Z</time>
      </trkpt>
      <trkpt lat="43.56683" lon="2.02307">
        <ele>292.7</ele>
        <time>2022-03-08T15:15:13Z</time>
      </trkpt>
      <trkpt lat="43.56685" lon="2.02307">
        <ele>292.9</ele>
        <time>2022-03-08T15:15:14Z</time>
      </trkpt>
      <trkpt lat="43.56685" lon="2.02307">
        <ele>293</ele>
        <time>2022-03-08T15:15:15Z</time>
      </trkpt>
      <trkpt lat="43.56686" lon="2.02307">
        <ele>293</ele>
        <time>2022-03-08T15:15:16Z</time>
      </trkpt>
      <trkpt lat="43.56687" lon="2.02307">
        <ele>293.2</ele>
        <time>2022-03-08T15:15:18Z</time>
      </trkpt>
      <trkpt lat="43.56688" lon="2.02307">
        <ele>293.3</ele>
        <time>2022-03-08T15:15:19Z</time>
      </trkpt>
      <trkpt lat="43.56689" lon="2.02306">
        <ele>293.5</ele>
        <time>2022-03-08T15:15:20Z</time>
      </trkpt>
      <trkpt lat="43.5669" lon="2.02306">
        <ele>293.6</ele>
        <time>2022-03-08T15:15:21Z</time>
      </trkpt>
      <trkpt lat="43.56691" lon="2.02306">
        <ele>293.7</ele>
        <time>2022-03-08T15:15:22Z</time>
      </trkpt>
      <trkpt lat="43.56692" lon="2.02306">
        <ele>293.9</ele>
        <time>2022-03-08T15:15:23Z</time>
      </trkpt>
      <trkpt lat="43.56693" lon="2.02306">
        <ele>294</ele>
        <time>2022-03-08T15:15:24Z</time>
      </trkpt>
      <trkpt lat="43.56694" lon="2.02306">
        <ele>294.2</ele>
        <time>2022-03-08T15:15:25Z</time>
      </trkpt>
      <trkpt lat="43.56695" lon="2.02306">
        <ele>294.3</ele>
        <time>2022-03-08T15:15:26Z</time>
      </trkpt>
      <trkpt lat="43.56697" lon="2.02307">
        <ele>294.6</ele>
        <time>2022-03-08T15:15:27Z</time>
      </trkpt>
      <trkpt lat="43.56698" lon="2.02307">
        <ele>294.7</ele>
        <time>2022-03-08T15:15:28Z</time>
      </trkpt>
      <trkpt lat="43.56699" lon="2.02307">
        <ele>294.9</ele>
        <time>2022-03-08T15:15:29Z</time>
      </trkpt>
      <trkpt lat="43.567" lon="2.02308">
        <ele>295</ele>
        <time>2022-03-08T15:15:30Z</time>
      </trkpt>
      <trkpt lat="43.56701" lon="2.02309">
        <ele>295.2</ele>
        <time>2022-03-08T15:15:32Z</time>
      </trkpt>
      <trkpt lat="43.56702" lon="2.02309">
        <ele>295.3</ele>
        <time>2022-03-08T15:15:33Z</time>
      </trkpt>
      <trkpt lat="43.56703" lon="2.02311">
        <ele>295.6</ele>
        <time>2022-03-08T15:15:34Z</time>
      </trkpt>
      <trkpt lat="43.56704" lon="2.02312">
        <ele>295.8</ele>
        <time>2022-03-08T15:15:35Z</time>
      </trkpt>
      <trkpt lat="43.56705" lon="2.02313">
        <ele>295.9</ele>
        <time>2022-03-08T15:15:36Z</time>
      </trkpt>
      <trkpt lat="43.56706" lon="2.02314">
        <ele>296.1</ele>
        <time>2022-03-08T15:15:38Z</time>
      </trkpt>
      <trkpt lat="43.56706" lon="2.02319">
        <ele>296.7</ele>
        <time>2022-03-08T15:15:40Z</time>
      </trkpt>
      <trkpt lat="43.56707" lon="2.02322">
        <ele>297</ele>
        <time>2022-03-08T15:15:41Z</time>
      </trkpt>
      <trkpt lat="43.56708" lon="2.02323">
        <ele>297.1</ele>
        <time>2022-03-08T15:15:42Z</time>
      </trkpt>
      <trkpt lat="43.56708" lon="2.02324">
        <ele>297.3</ele>
        <time>2022-03-08T15:15:43Z</time>
      </trkpt>
      <trkpt lat="43.56708" lon="2.02328">
        <ele>297.7</ele>
        <time>2022-03-08T15:15:44Z</time>
      </trkpt>
      <trkpt lat="43.56708" lon="2.02329">
        <ele>297.8</ele>
        <time>2022-03-08T15:15:46Z</time>
      </trkpt>
      <trkpt lat="43.56707" lon="2.02331">
        <ele>298</ele>
        <time>2022-03-08T15:15:47Z</time>
      </trkpt>
      <trkpt lat="43.56707" lon="2.02332">
        <ele>298.2</ele>
        <time>2022-03-08T15:15:48Z</time>
      </trkpt>
      <trkpt lat="43.56705" lon="2.02335">
        <ele>298.6</ele>
        <time>2022-03-08T15:15:50Z</time>
      </trkpt>
      <trkpt lat="43.56704" lon="2.02336">
        <ele>298.7</ele>
        <time>2022-03-08T15:15:51Z</time>
      </trkpt>
      <trkpt lat="43.56704" lon="2.02337">
        <ele>298.8</ele>
        <time>2022-03-08T15:15:53Z</time>
      </trkpt>
      <trkpt lat="43.56704" lon="2.02337">
        <ele>298.9</ele>
        <time>2022-03-08T15:15:54Z</time>
      </trkpt>
      <trkpt lat="43.56704" lon="2.02338">
        <ele>298.9</ele>
        <time>2022-03-08T15:15:55Z</time>
      </trkpt>
      <trkpt lat="43.56704" lon="2.02339">
        <ele>299</ele>
        <time>2022-03-08T15:15:56Z</time>
      </trkpt>
      <trkpt lat="43.56704" lon="2.0234">
        <ele>299.2</ele>
        <time>2022-03-08T15:15:58Z</time>
      </trkpt>
      <trkpt lat="43.56704" lon="2.02342">
        <ele>299.4</ele>
        <time>2022-03-08T15:15:59Z</time>
      </trkpt>
      <trkpt lat="43.56704" lon="2.02343">
        <ele>299.5</ele>
        <time>2022-03-08T15:16:01Z</time>
      </trkpt>
      <trkpt lat="43.56705" lon="2.02344">
        <ele>299.6</ele>
        <time>2022-03-08T15:16:02Z</time>
      </trkpt>
      <trkpt lat="43.56705" lon="2.02346">
        <ele>299.9</ele>
        <time>2022-03-08T15:16:03Z</time>
      </trkpt>
      <trkpt lat="43.56705" lon="2.02349">
        <ele>300.2</ele>
        <time>2022-03-08T15:16:05Z</time>
      </trkpt>
      <trkpt lat="43.56706" lon="2.02351">
        <ele>300.4</ele>
        <time>2022-03-08T15:16:06Z</time>
      </trkpt>
      <trkpt lat="43.56706" lon="2.02352">
        <ele>300.6</ele>
        <time>2022-03-08T15:16:07Z</time>
      </trkpt>
      <trkpt lat="43.56706" lon="2.02353">
        <ele>300.7</ele>
        <time>2022-03-08T15:16:08Z</time>
      </trkpt>
      <trkpt lat="43.56706" lon="2.02355">
        <ele>300.8</ele>
        <time>2022-03-08T15:16:09Z</time>
      </trkpt>
      <trkpt lat="43.56706" lon="2.02356">
        <ele>301</ele>
        <time>2022-03-08T15:16:10Z</time>
      </trkpt>
      <trkpt lat="43.56706" lon="2.02357">
        <ele>301.2</ele>
        <time>2022-03-08T15:16:11Z</time>
      </trkpt>
      <trkpt lat="43.56706" lon="2.02358">
        <ele>301.2</ele>
        <time>2022-03-08T15:16:12Z</time>
      </trkpt>
      <trkpt lat="43.56706" lon="2.02359">
        <ele>301.4</ele>
        <time>2022-03-08T15:16:13Z</time>
      </trkpt>
      <trkpt lat="43.56706" lon="2.0236">
        <ele>301.5</ele>
        <time>2022-03-08T15:16:14Z</time>
      </trkpt>
      <trkpt lat="43.56705" lon="2.02361">
        <ele>301.6</ele>
        <time>2022-03-08T15:16:15Z</time>
      </trkpt>
      <trkpt lat="43.56705" lon="2.02362">
        <ele>301.7</ele>
        <time>2022-03-08T15:16:16Z</time>
      </trkpt>
      <trkpt lat="43.56705" lon="2.02363">
        <ele>301.9</ele>
        <time>2022-03-08T15:16:17Z</time>
      </trkpt>
      <trkpt lat="43.56705" lon="2.02365">
        <ele>302</ele>
        <time>2022-03-08T15:16:19Z</time>
      </trkpt>
      <trkpt lat="43.56705" lon="2.02366">
        <ele>302.2</ele>
        <time>2022-03-08T15:16:20Z</time>
      </trkpt>
      <trkpt lat="43.56706" lon="2.02367">
        <ele>302.3</ele>
        <time>2022-03-08T15:16:21Z</time>
      </trkpt>
      <trkpt lat="43.56705" lon="2.02369">
        <ele>302.6</ele>
        <time>2022-03-08T15:16:22Z</time>
      </trkpt>
      <trkpt lat="43.56705" lon="2.0237">
        <ele>302.7</ele>
        <time>2022-03-08T15:16:24Z</time>
      </trkpt>
      <trkpt lat="43.56705" lon="2.02371">
        <ele>302.8</ele>
        <time>2022-03-08T15:16:25Z</time>
      </trkpt>
      <trkpt lat="43.56705" lon="2.02372">
        <ele>302.8</ele>
        <time>2022-03-08T15:16:26Z</time>
      </trkpt>
      <trkpt lat="43.56705" lon="2.02373">
        <ele>302.9</ele>
        <time>2022-03-08T15:16:27Z</time>
      </trkpt>
      <trkpt lat="43.56706" lon="2.02375">
        <ele>303.2</ele>
        <time>2022-03-08T15:16:29Z</time>
      </trkpt>
      <trkpt lat="43.56706" lon="2.02376">
        <ele>303.4</ele>
        <time>2022-03-08T15:16:30Z</time>
      </trkpt>
      <trkpt lat="43.56707" lon="2.02377">
        <ele>303.5</ele>
        <time>2022-03-08T15:16:31Z</time>
      </trkpt>
      <trkpt lat="43.56707" lon="2.02379">
        <ele>303.6</ele>
        <time>2022-03-08T15:16:32Z</time>
      </trkpt>
      <trkpt lat="43.56708" lon="2.0238">
        <ele>303.8</ele>
        <time>2022-03-08T15:16:33Z</time>
      </trkpt>
      <trkpt lat="43.56709" lon="2.02382">
        <ele>304</ele>
        <time>2022-03-08T15:16:35Z</time>
      </trkpt>
      <trkpt lat="43.5671" lon="2.02383">
        <ele>304.2</ele>
        <time>2022-03-08T15:16:36Z</time>
      </trkpt>
      <trkpt lat="43.56711" lon="2.02384">
        <ele>304.3</ele>
        <time>2022-03-08T15:16:37Z</time>
      </trkpt>
      <trkpt lat="43.56712" lon="2.02384">
        <ele>304.4</ele>
        <time>2022-03-08T15:16:38Z</time>
      </trkpt>
      <trkpt lat="43.56713" lon="2.02385">
        <ele>304.6</ele>
        <time>2022-03-08T15:16:39Z</time>
      </trkpt>
      <trkpt lat="43.56715" lon="2.02385">
        <ele>304.8</ele>
        <time>2022-03-08T15:16:40Z</time>
      </trkpt>
      <trkpt lat="43.56718" lon="2.02386">
        <ele>305.2</ele>
        <time>2022-03-08T15:16:42Z</time>
      </trkpt>
      <trkpt lat="43.56719" lon="2.02386">
        <ele>305.3</ele>
        <time>2022-03-08T15:16:43Z</time>
      </trkpt>
      <trkpt lat="43.56721" lon="2.02386">
        <ele>305.5</ele>
        <time>2022-03-08T15:16:44Z</time>
      </trkpt>
      <trkpt lat="43.56722" lon="2.02386">
        <ele>305.7</ele>
        <time>2022-03-08T15:16:45Z</time>
      </trkpt>
      <trkpt lat="43.56724" lon="2.02386">
        <ele>305.9</ele>
        <time>2022-03-08T15:16:46Z</time>
      </trkpt>
      <trkpt lat="43.56726" lon="2.02386">
        <ele>306</ele>
        <time>2022-03-08T15:16:47Z</time>
      </trkpt>
      <trkpt lat="43.56727" lon="2.02386">
        <ele>306.1</ele>
        <time>2022-03-08T15:16:49Z</time>
      </trkpt>
      <trkpt lat="43.56728" lon="2.02387">
        <ele>306.2</ele>
        <time>2022-03-08T15:16:50Z</time>
      </trkpt>
      <trkpt lat="43.56728" lon="2.02387">
        <ele>306.3</ele>
        <time>2022-03-08T15:16:51Z</time>
      </trkpt>
      <trkpt lat="43.56729" lon="2.02387">
        <ele>306.4</ele>
        <time>2022-03-08T15:16:52Z</time>
      </trkpt>
      <trkpt lat="43.5673" lon="2.02387">
        <ele>306.5</ele>
        <time>2022-03-08T15:16:53Z</time>
      </trkpt>
      <trkpt lat="43.56731" lon="2.02387">
        <ele>306.6</ele>
        <time>2022-03-08T15:16:55Z</time>
      </trkpt>
      <trkpt lat="43.56731" lon="2.02388">
        <ele>306.7</ele>
        <time>2022-03-08T15:16:56Z</time>
      </trkpt>
      <trkpt lat="43.56734" lon="2.02388">
        <ele>307</ele>
        <time>2022-03-08T15:16:57Z</time>
      </trkpt>
      <trkpt lat="43.56735" lon="2.02388">
        <ele>307.1</ele>
        <time>2022-03-08T15:16:58Z</time>
      </trkpt>
      <trkpt lat="43.56736" lon="2.02389">
        <ele>307.2</ele>
        <time>2022-03-08T15:16:59Z</time>
      </trkpt>
      <trkpt lat="43.56737" lon="2.02389">
        <ele>307.4</ele>
        <time>2022-03-08T15:17:01Z</time>
      </trkpt>
      <trkpt lat="43.56739" lon="2.02389">
        <ele>307.5</ele>
        <time>2022-03-08T15:17:02Z</time>
      </trkpt>
      <trkpt lat="43.5674" lon="2.02388">
        <ele>307.7</ele>
        <time>2022-03-08T15:17:03Z</time>
      </trkpt>
      <trkpt lat="43.56741" lon="2.02388">
        <ele>307.8</ele>
        <time>2022-03-08T15:17:04Z</time>
      </trkpt>
      <trkpt lat="43.56743" lon="2.02388">
        <ele>308.1</ele>
        <time>2022-03-08T15:17:06Z</time>
      </trkpt>
      <trkpt lat="43.56744" lon="2.02388">
        <ele>308.2</ele>
        <time>2022-03-08T15:17:07Z</time>
      </trkpt>
      <trkpt lat="43.56745" lon="2.02388">
        <ele>308.4</ele>
        <time>2022-03-08T15:17:08Z</time>
      </trkpt>
      <trkpt lat="43.56746" lon="2.02388">
        <ele>308.5</ele>
        <time>2022-03-08T15:17:09Z</time>
      </trkpt>
      <trkpt lat="43.56746" lon="2.02388">
        <ele>308.6</ele>
        <time>2022-03-08T15:17:10Z</time>
      </trkpt>
      <trkpt lat="43.56747" lon="2.02388">
        <ele>308.7</ele>
        <time>2022-03-08T15:17:11Z</time>
      </trkpt>
      <trkpt lat="43.56748" lon="2.02388">
        <ele>308.9</ele>
        <time>2022-03-08T15:17:12Z</time>
      </trkpt>
      <trkpt lat="43.56749" lon="2.02388">
        <ele>309</ele>
        <time>2022-03-08T15:17:14Z</time>
      </trkpt>
      <trkpt lat="43.5675" lon="2.02388">
        <ele>309.1</ele>
        <time>2022-03-08T15:17:15Z</time>
      </trkpt>
      <trkpt lat="43.56751" lon="2.02388">
        <ele>309.2</ele>
        <time>2022-03-08T15:17:16Z</time>
      </trkpt>
      <trkpt lat="43.56751" lon="2.02388">
        <ele>309.3</ele>
        <time>2022-03-08T15:17:18Z</time>
      </trkpt>
      <trkpt lat="43.56752" lon="2.02388">
        <ele>309.4</ele>
        <time>2022-03-08T15:17:19Z</time>
      </trkpt>
      <trkpt lat="43.56753" lon="2.02388">
        <ele>309.5</ele>
        <time>2022-03-08T15:17:20Z</time>
      </trkpt>
      <trkpt lat="43.56754" lon="2.02388">
        <ele>309.7</ele>
        <time>2022-03-08T15:17:21Z</time>
      </trkpt>
      <trkpt lat="43.56756" lon="2.02388">
        <ele>310</ele>
        <time>2022-03-08T15:17:23Z</time>
      </trkpt>
      <trkpt lat="43.56757" lon="2.02388">
        <ele>310.2</ele>
        <time>2022-03-08T15:17:24Z</time>
      </trkpt>
      <trkpt lat="43.56758" lon="2.02388">
        <ele>310.3</ele>
        <time>2022-03-08T15:17:25Z</time>
      </trkpt>
      <trkpt lat="43.56759" lon="2.02388">
        <ele>310.5</ele>
        <time>2022-03-08T15:17:26Z</time>
      </trkpt>
      <trkpt lat="43.56759" lon="2.02388">
        <ele>310.6</ele>
        <time>2022-03-08T15:17:27Z</time>
      </trkpt>
      <trkpt lat="43.56761" lon="2.02388">
        <ele>310.8</ele>
        <time>2022-03-08T15:17:29Z</time>
      </trkpt>
      <trkpt lat="43.56762" lon="2.02388">
        <ele>310.9</ele>
        <time>2022-03-08T15:17:30Z</time>
      </trkpt>
      <trkpt lat="43.56762" lon="2.02388">
        <ele>311</ele>
        <time>2022-03-08T15:17:32Z</time>
      </trkpt>
      <trkpt lat="43.56763" lon="2.02388">
        <ele>311.2</ele>
        <time>2022-03-08T15:17:33Z</time>
      </trkpt>
      <trkpt lat="43.56764" lon="2.02389">
        <ele>311.3</ele>
        <time>2022-03-08T15:17:34Z</time>
      </trkpt>
      <trkpt lat="43.56765" lon="2.02389">
        <ele>311.4</ele>
        <time>2022-03-08T15:17:35Z</time>
      </trkpt>
      <trkpt lat="43.56766" lon="2.02389">
        <ele>311.5</ele>
        <time>2022-03-08T15:17:36Z</time>
      </trkpt>
      <trkpt lat="43.56766" lon="2.02389">
        <ele>311.6</ele>
        <time>2022-03-08T15:17:37Z</time>
      </trkpt>
      <trkpt lat="43.56767" lon="2.0239">
        <ele>311.7</ele>
        <time>2022-03-08T15:17:38Z</time>
      </trkpt>
      <trkpt lat="43.56768" lon="2.0239">
        <ele>311.9</ele>
        <time>2022-03-08T15:17:40Z</time>
      </trkpt>
      <trkpt lat="43.56769" lon="2.02391">
        <ele>312.1</ele>
        <time>2022-03-08T15:17:41Z</time>
      </trkpt>
      <trkpt lat="43.5677" lon="2.02391">
        <ele>312.2</ele>
        <time>2022-03-08T15:17:42Z</time>
      </trkpt>
      <trkpt lat="43.5677" lon="2.02392">
        <ele>312.3</ele>
        <time>2022-03-08T15:17:44Z</time>
      </trkpt>
      <trkpt lat="43.56771" lon="2.02392">
        <ele>312.4</ele>
        <time>2022-03-08T15:17:45Z</time>
      </trkpt>
      <trkpt lat="43.56771" lon="2.02392">
        <ele>312.4</ele>
        <time>2022-03-08T15:17:46Z</time>
      </trkpt>
      <trkpt lat="43.56772" lon="2.02393">
        <ele>312.5</ele>
        <time>2022-03-08T15:17:47Z</time>
      </trkpt>
      <trkpt lat="43.56772" lon="2.02394">
        <ele>312.6</ele>
        <time>2022-03-08T15:17:49Z</time>
      </trkpt>
      <trkpt lat="43.56773" lon="2.02394">
        <ele>312.7</ele>
        <time>2022-03-08T15:17:50Z</time>
      </trkpt>
      <trkpt lat="43.56773" lon="2.02395">
        <ele>312.9</ele>
        <time>2022-03-08T15:17:51Z</time>
      </trkpt>
      <trkpt lat="43.56774" lon="2.02396">
        <ele>312.9</ele>
        <time>2022-03-08T15:17:52Z</time>
      </trkpt>
      <trkpt lat="43.56774" lon="2.02397">
        <ele>313.1</ele>
        <time>2022-03-08T15:17:53Z</time>
      </trkpt>
      <trkpt lat="43.56775" lon="2.02398">
        <ele>313.2</ele>
        <time>2022-03-08T15:17:54Z</time>
      </trkpt>
      <trkpt lat="43.56775" lon="2.02399">
        <ele>313.3</ele>
        <time>2022-03-08T15:17:55Z</time>
      </trkpt>
      <trkpt lat="43.56776" lon="2.02401">
        <ele>313.4</ele>
        <time>2022-03-08T15:17:56Z</time>
      </trkpt>
      <trkpt lat="43.56776" lon="2.02402">
        <ele>313.5</ele>
        <time>2022-03-08T15:17:57Z</time>
      </trkpt>
      <trkpt lat="43.56777" lon="2.02403">
        <ele>313.6</ele>
        <time>2022-03-08T15:17:58Z</time>
      </trkpt>
      <trkpt lat="43.56777" lon="2.02405">
        <ele>313.8</ele>
        <time>2022-03-08T15:17:59Z</time>
      </trkpt>
      <trkpt lat="43.56778" lon="2.02406">
        <ele>313.9</ele>
        <time>2022-03-08T15:18:00Z</time>
      </trkpt>
      <trkpt lat="43.56778" lon="2.02407">
        <ele>314</ele>
        <time>2022-03-08T15:18:01Z</time>
      </trkpt>
      <trkpt lat="43.56779" lon="2.02409">
        <ele>314.2</ele>
        <time>2022-03-08T15:18:02Z</time>
      </trkpt>
      <trkpt lat="43.56779" lon="2.02411">
        <ele>314.3</ele>
        <time>2022-03-08T15:18:04Z</time>
      </trkpt>
      <trkpt lat="43.5678" lon="2.02413">
        <ele>314.4</ele>
        <time>2022-03-08T15:18:05Z</time>
      </trkpt>
      <trkpt lat="43.5678" lon="2.02415">
        <ele>314.5</ele>
        <time>2022-03-08T15:18:06Z</time>
      </trkpt>
      <trkpt lat="43.56781" lon="2.02418">
        <ele>314.6</ele>
        <time>2022-03-08T15:18:07Z</time>
      </trkpt>
      <trkpt lat="43.56781" lon="2.02419">
        <ele>314.7</ele>
        <time>2022-03-08T15:18:08Z</time>
      </trkpt>
      <trkpt lat="43.56782" lon="2.02422">
        <ele>314.9</ele>
        <time>2022-03-08T15:18:09Z</time>
      </trkpt>
      <trkpt lat="43.56782" lon="2.02423">
        <ele>314.9</ele>
        <time>2022-03-08T15:18:10Z</time>
      </trkpt>
      <trkpt lat="43.56783" lon="2.02424">
        <ele>315</ele>
        <time>2022-03-08T15:18:11Z</time>
      </trkpt>
      <trkpt lat="43.56783" lon="2.02427">
        <ele>315.1</ele>
        <time>2022-03-08T15:18:12Z</time>
      </trkpt>
      <trkpt lat="43.56783" lon="2.02429">
        <ele>315.2</ele>
        <time>2022-03-08T15:18:14Z</time>
      </trkpt>
      <trkpt lat="43.56784" lon="2.02431">
        <ele>315.2</ele>
        <time>2022-03-08T15:18:15Z</time>
      </trkpt>
      <trkpt lat="43.56784" lon="2.02433">
        <ele>315.3</ele>
        <time>2022-03-08T15:18:16Z</time>
      </trkpt>
      <trkpt lat="43.56784" lon="2.02435">
        <ele>315.3</ele>
        <time>2022-03-08T15:18:17Z</time>
      </trkpt>
      <trkpt lat="43.56784" lon="2.02436">
        <ele>315.4</ele>
        <time>2022-03-08T15:18:18Z</time>
      </trkpt>
      <trkpt lat="43.56784" lon="2.02438">
        <ele>315.4</ele>
        <time>2022-03-08T15:18:19Z</time>
      </trkpt>
      <trkpt lat="43.56784" lon="2.02439">
        <ele>315.4</ele>
        <time>2022-03-08T15:18:20Z</time>
      </trkpt>
      <trkpt lat="43.56784" lon="2.02439">
        <ele>315.5</ele>
        <time>2022-03-08T15:18:21Z</time>
      </trkpt>
      <trkpt lat="43.56784" lon="2.02439">
        <ele>315.5</ele>
        <time>2022-03-08T15:18:23Z</time>
      </trkpt>
      <trkpt lat="43.56784" lon="2.02439">
        <ele>315.5</ele>
        <time>2022-03-08T15:18:24Z</time>
      </trkpt>
      <trkpt lat="43.56784" lon="2.02439">
        <ele>315.5</ele>
        <time>2022-03-08T15:18:25Z</time>
      </trkpt>
      <trkpt lat="43.56784" lon="2.02439">
        <ele>315.5</ele>
        <time>2022-03-08T15:18:26Z</time>
      </trkpt>
      <trkpt lat="43.56784" lon="2.02438">
        <ele>315.5</ele>
        <time>2022-03-08T15:18:27Z</time>
      </trkpt>
      <trkpt lat="43.56784" lon="2.02438">
        <ele>315.5</ele>
        <time>2022-03-08T15:18:28Z</time>
      </trkpt>
      <trkpt lat="43.56784" lon="2.02438">
        <ele>315.5</ele>
        <time>2022-03-08T15:18:29Z</time>
      </trkpt>
      <trkpt lat="43.56784" lon="2.02438">
        <ele>315.5</ele>
        <time>2022-03-08T15:18:30Z</time>
      </trkpt>
      <trkpt lat="43.56784" lon="2.02438">
        <ele>315.5</ele>
        <time>2022-03-08T15:18:31Z</time>
      </trkpt>
      <trkpt lat="43.56784" lon="2.02438">
        <ele>315.5</ele>
        <time>2022-03-08T15:18:32Z</time>
      </trkpt>
      <trkpt lat="43.56784" lon="2.02438">
        <ele>315.5</ele>
        <time>2022-03-08T15:18:33Z</time>
      </trkpt>
      <trkpt lat="43.56784" lon="2.02438">
        <ele>315.5</ele>
        <time>2022-03-08T15:18:34Z</time>
      </trkpt>
      <trkpt lat="43.56784" lon="2.02438">
        <ele>315.5</ele>
        <time>2022-03-08T15:18:36Z</time>
      </trkpt>
      <trkpt lat="43.56784" lon="2.02438">
        <ele>315.5</ele>
        <time>2022-03-08T15:18:37Z</time>
      </trkpt>
      <trkpt lat="43.56784" lon="2.02438">
        <ele>315.5</ele>
        <time>2022-03-08T15:18:38Z</time>
      </trkpt>
      <trkpt lat="43.56784" lon="2.02438">
        <ele>315.5</ele>
        <time>2022-03-08T15:18:39Z</time>
      </trkpt>
      <trkpt lat="43.56784" lon="2.02438">
        <ele>315.5</ele>
        <time>2022-03-08T15:18:40Z</time>
      </trkpt>
      <trkpt lat="43.56784" lon="2.02438">
        <ele>315.5</ele>
        <time>2022-03-08T15:18:41Z</time>
      </trkpt>
      <trkpt lat="43.56784" lon="2.02438">
        <ele>315.5</ele>
        <time>2022-03-08T15:18:42Z</time>
      </trkpt>
      <trkpt lat="43.56784" lon="2.02438">
        <ele>315.5</ele>
        <time>2022-03-08T15:18:43Z</time>
      </trkpt>
      <trkpt lat="43.56784" lon="2.02437">
        <ele>315.5</ele>
        <time>2022-03-08T15:18:44Z</time>
      </trkpt>
      <trkpt lat="43.56784" lon="2.02437">
        <ele>315.5</ele>
        <time>2022-03-08T15:18:45Z</time>
      </trkpt>
      <trkpt lat="43.56784" lon="2.02437">
        <ele>315.5</ele>
        <time>2022-03-08T15:18:46Z</time>
      </trkpt>
      <trkpt lat="43.56784" lon="2.02437">
        <ele>315.5</ele>
        <time>2022-03-08T15:18:47Z</time>
      </trkpt>
      <trkpt lat="43.56784" lon="2.02437">
        <ele>315.5</ele>
        <time>2022-03-08T15:18:48Z</time>
      </trkpt>
      <trkpt lat="43.56784" lon="2.02437">
        <ele>315.5</ele>
        <time>2022-03-08T15:18:49Z</time>
      </trkpt>
      <trkpt lat="43.56784" lon="2.02437">
        <ele>315.5</ele>
        <time>2022-03-08T15:18:50Z</time>
      </trkpt>
      <trkpt lat="43.56784" lon="2.02437">
        <ele>315.5</ele>
        <time>2022-03-08T15:18:51Z</time>
      </trkpt>
      <trkpt lat="43.56784" lon="2.02437">
        <ele>315.5</ele>
        <time>2022-03-08T15:18:52Z</time>
      </trkpt>
      <trkpt lat="43.56784" lon="2.02436">
        <ele>315.6</ele>
        <time>2022-03-08T15:18:53Z</time>
      </trkpt>
      <trkpt lat="43.56784" lon="2.02436">
        <ele>315.6</ele>
        <time>2022-03-08T15:18:54Z</time>
      </trkpt>
      <trkpt lat="43.56784" lon="2.02436">
        <ele>315.6</ele>
        <time>2022-03-08T15:18:55Z</time>
      </trkpt>
      <trkpt lat="43.56784" lon="2.02436">
        <ele>315.6</ele>
        <time>2022-03-08T15:18:56Z</time>
      </trkpt>
      <trkpt lat="43.56783" lon="2.02436">
        <ele>315.6</ele>
        <time>2022-03-08T15:18:57Z</time>
      </trkpt>
      <trkpt lat="43.56783" lon="2.02436">
        <ele>315.6</ele>
        <time>2022-03-08T15:18:58Z</time>
      </trkpt>
      <trkpt lat="43.56783" lon="2.02436">
        <ele>315.6</ele>
        <time>2022-03-08T15:18:59Z</time>
      </trkpt>
      <trkpt lat="43.56783" lon="2.02436">
        <ele>315.6</ele>
        <time>2022-03-08T15:19:00Z</time>
      </trkpt>
      <trkpt lat="43.56783" lon="2.02436">
        <ele>315.6</ele>
        <time>2022-03-08T15:19:01Z</time>
      </trkpt>
      <trkpt lat="43.56783" lon="2.02436">
        <ele>315.6</ele>
        <time>2022-03-08T15:19:02Z</time>
      </trkpt>
      <trkpt lat="43.56783" lon="2.02436">
        <ele>315.6</ele>
        <time>2022-03-08T15:19:03Z</time>
      </trkpt>
      <trkpt lat="43.56783" lon="2.02436">
        <ele>315.6</ele>
        <time>2022-03-08T15:19:04Z</time>
      </trkpt>
      <trkpt lat="43.56783" lon="2.02436">
        <ele>315.6</ele>
        <time>2022-03-08T15:19:05Z</time>
      </trkpt>
      <trkpt lat="43.56783" lon="2.02436">
        <ele>315.6</ele>
        <time>2022-03-08T15:19:06Z</time>
      </trkpt>
      <trkpt lat="43.56783" lon="2.02436">
        <ele>315.6</ele>
        <time>2022-03-08T15:19:07Z</time>
      </trkpt>
      <trkpt lat="43.56783" lon="2.02436">
        <ele>315.6</ele>
        <time>2022-03-08T15:19:08Z</time>
      </trkpt>
      <trkpt lat="43.56783" lon="2.02436">
        <ele>315.6</ele>
        <time>2022-03-08T15:19:09Z</time>
      </trkpt>
      <trkpt lat="43.56783" lon="2.02436">
        <ele>315.6</ele>
        <time>2022-03-08T15:19:10Z</time>
      </trkpt>
      <trkpt lat="43.56783" lon="2.02436">
        <ele>315.6</ele>
        <time>2022-03-08T15:19:11Z</time>
      </trkpt>
      <trkpt lat="43.56783" lon="2.02436">
        <ele>315.6</ele>
        <time>2022-03-08T15:19:12Z</time>
      </trkpt>
      <trkpt lat="43.56783" lon="2.02436">
        <ele>315.6</ele>
        <time>2022-03-08T15:19:13Z</time>
      </trkpt>
      <trkpt lat="43.56783" lon="2.02436">
        <ele>315.6</ele>
        <time>2022-03-08T15:19:14Z</time>
      </trkpt>
      <trkpt lat="43.56783" lon="2.02436">
        <ele>315.6</ele>
        <time>2022-03-08T15:19:15Z</time>
      </trkpt>
      <trkpt lat="43.56783" lon="2.02436">
        <ele>315.6</ele>
        <time>2022-03-08T15:19:16Z</time>
      </trkpt>
      <trkpt lat="43.56783" lon="2.02436">
        <ele>315.6</ele>
        <time>2022-03-08T15:19:17Z</time>
      </trkpt>
      <trkpt lat="43.56783" lon="2.02436">
        <ele>315.6</ele>
        <time>2022-03-08T15:19:18Z</time>
      </trkpt>
      <trkpt lat="43.56783" lon="2.02436">
        <ele>315.6</ele>
        <time>2022-03-08T15:19:19Z</time>
      </trkpt>
      <trkpt lat="43.56783" lon="2.02436">
        <ele>315.6</ele>
        <time>2022-03-08T15:19:20Z</time>
      </trkpt>
      <trkpt lat="43.56783" lon="2.02436">
        <ele>315.6</ele>
        <time>2022-03-08T15:19:21Z</time>
      </trkpt>
      <trkpt lat="43.56783" lon="2.02436">
        <ele>315.6</ele>
        <time>2022-03-08T15:19:22Z</time>
      </trkpt>
      <trkpt lat="43.56783" lon="2.02436">
        <ele>315.6</ele>
        <time>2022-03-08T15:19:23Z</time>
      </trkpt>
      <trkpt lat="43.56783" lon="2.02436">
        <ele>315.6</ele>
        <time>2022-03-08T15:19:24Z</time>
      </trkpt>
      <trkpt lat="43.56783" lon="2.02436">
        <ele>315.6</ele>
        <time>2022-03-08T15:19:25Z</time>
      </trkpt>
      <trkpt lat="43.56783" lon="2.02436">
        <ele>315.6</ele>
        <time>2022-03-08T15:19:26Z</time>
      </trkpt>
      <trkpt lat="43.56783" lon="2.02436">
        <ele>315.6</ele>
        <time>2022-03-08T15:19:27Z</time>
      </trkpt>
      <trkpt lat="43.56783" lon="2.02436">
        <ele>315.6</ele>
        <time>2022-03-08T15:19:28Z</time>
      </trkpt>
      <trkpt lat="43.56783" lon="2.02436">
        <ele>315.6</ele>
        <time>2022-03-08T15:19:29Z</time>
      </trkpt>
      <trkpt lat="43.56783" lon="2.02436">
        <ele>315.6</ele>
        <time>2022-03-08T15:19:30Z</time>
      </trkpt>
      <trkpt lat="43.56783" lon="2.02436">
        <ele>315.6</ele>
        <time>2022-03-08T15:19:31Z</time>
      </trkpt>
      <trkpt lat="43.56783" lon="2.02436">
        <ele>315.6</ele>
        <time>2022-03-08T15:19:32Z</time>
      </trkpt>
      <trkpt lat="43.56783" lon="2.02436">
        <ele>315.6</ele>
        <time>2022-03-08T15:19:33Z</time>
      </trkpt>
      <trkpt lat="43.56783" lon="2.02436">
        <ele>315.6</ele>
        <time>2022-03-08T15:19:34Z</time>
      </trkpt>
      <trkpt lat="43.56783" lon="2.02436">
        <ele>315.6</ele>
        <time>2022-03-08T15:19:35Z</time>
      </trkpt>
      <trkpt lat="43.56783" lon="2.02436">
        <ele>315.6</ele>
        <time>2022-03-08T15:19:36Z</time>
      </trkpt>
      <trkpt lat="43.56783" lon="2.02436">
        <ele>315.6</ele>
        <time>2022-03-08T15:19:37Z</time>
      </trkpt>
      <trkpt lat="43.56783" lon="2.02436">
        <ele>315.6</ele>
        <time>2022-03-08T15:19:38Z</time>
      </trkpt>
      <trkpt lat="43.56783" lon="2.02436">
        <ele>315.6</ele>
        <time>2022-03-08T15:19:39Z</time>
      </trkpt>
      <trkpt lat="43.56783" lon="2.02436">
        <ele>315.6</ele>
        <time>2022-03-08T15:19:40Z</time>
      </trkpt>
      <trkpt lat="43.56783" lon="2.02436">
        <ele>315.6</ele>
        <time>2022-03-08T15:19:41Z</time>
      </trkpt>
      <trkpt lat="43.56784" lon="2.02436">
        <ele>315.6</ele>
        <time>2022-03-08T15:19:43Z</time>
      </trkpt>
      <trkpt lat="43.56784" lon="2.02436">
        <ele>315.6</ele>
        <time>2022-03-08T15:19:44Z</time>
      </trkpt>
      <trkpt lat="43.56784" lon="2.02436">
        <ele>315.6</ele>
        <time>2022-03-08T15:19:45Z</time>
      </trkpt>
      <trkpt lat="43.56784" lon="2.02436">
        <ele>315.6</ele>
        <time>2022-03-08T15:19:46Z</time>
      </trkpt>
      <trkpt lat="43.56784" lon="2.02437">
        <ele>315.6</ele>
        <time>2022-03-08T15:19:48Z</time>
      </trkpt>
      <trkpt lat="43.56784" lon="2.02437">
        <ele>315.6</ele>
        <time>2022-03-08T15:19:49Z</time>
      </trkpt>
      <trkpt lat="43.56785" lon="2.02437">
        <ele>315.6</ele>
        <time>2022-03-08T15:19:50Z</time>
      </trkpt>
      <trkpt lat="43.56786" lon="2.02438">
        <ele>315.7</ele>
        <time>2022-03-08T15:19:51Z</time>
      </trkpt>
      <trkpt lat="43.56786" lon="2.02438">
        <ele>315.7</ele>
        <time>2022-03-08T15:19:52Z</time>
      </trkpt>
      <trkpt lat="43.56786" lon="2.02438">
        <ele>315.7</ele>
        <time>2022-03-08T15:19:54Z</time>
      </trkpt>
      <trkpt lat="43.56786" lon="2.02439">
        <ele>315.7</ele>
        <time>2022-03-08T15:19:55Z</time>
      </trkpt>
      <trkpt lat="43.56787" lon="2.02439">
        <ele>315.7</ele>
        <time>2022-03-08T15:19:56Z</time>
      </trkpt>
      <trkpt lat="43.56787" lon="2.02439">
        <ele>315.7</ele>
        <time>2022-03-08T15:19:57Z</time>
      </trkpt>
      <trkpt lat="43.56787" lon="2.02439">
        <ele>315.7</ele>
        <time>2022-03-08T15:19:58Z</time>
      </trkpt>
      <trkpt lat="43.56788" lon="2.0244">
        <ele>315.7</ele>
        <time>2022-03-08T15:20:00Z</time>
      </trkpt>
      <trkpt lat="43.56788" lon="2.0244">
        <ele>315.7</ele>
        <time>2022-03-08T15:20:01Z</time>
      </trkpt>
      <trkpt lat="43.56788" lon="2.02441">
        <ele>315.7</ele>
        <time>2022-03-08T15:20:03Z</time>
      </trkpt>
      <trkpt lat="43.56788" lon="2.02441">
        <ele>315.7</ele>
        <time>2022-03-08T15:20:04Z</time>
      </trkpt>
      <trkpt lat="43.56789" lon="2.02442">
        <ele>315.7</ele>
        <time>2022-03-08T15:20:05Z</time>
      </trkpt>
      <trkpt lat="43.5679" lon="2.02442">
        <ele>315.7</ele>
        <time>2022-03-08T15:20:06Z</time>
      </trkpt>
      <trkpt lat="43.56791" lon="2.02443">
        <ele>315.8</ele>
        <time>2022-03-08T15:20:07Z</time>
      </trkpt>
      <trkpt lat="43.56793" lon="2.02444">
        <ele>315.8</ele>
        <time>2022-03-08T15:20:09Z</time>
      </trkpt>
      <trkpt lat="43.56794" lon="2.02444">
        <ele>315.8</ele>
        <time>2022-03-08T15:20:10Z</time>
      </trkpt>
      <trkpt lat="43.56796" lon="2.02444">
        <ele>315.8</ele>
        <time>2022-03-08T15:20:11Z</time>
      </trkpt>
      <trkpt lat="43.56798" lon="2.02445">
        <ele>315.8</ele>
        <time>2022-03-08T15:20:12Z</time>
      </trkpt>
      <trkpt lat="43.568" lon="2.02445">
        <ele>315.4</ele>
        <time>2022-03-08T15:20:14Z</time>
      </trkpt>
      <trkpt lat="43.56802" lon="2.02445">
        <ele>315</ele>
        <time>2022-03-08T15:20:15Z</time>
      </trkpt>
      <trkpt lat="43.56803" lon="2.02445">
        <ele>314.9</ele>
        <time>2022-03-08T15:20:16Z</time>
      </trkpt>
      <trkpt lat="43.56804" lon="2.02445">
        <ele>314.7</ele>
        <time>2022-03-08T15:20:17Z</time>
      </trkpt>
      <trkpt lat="43.56805" lon="2.02445">
        <ele>314.6</ele>
        <time>2022-03-08T15:20:19Z</time>
      </trkpt>
      <trkpt lat="43.56805" lon="2.02445">
        <ele>314.6</ele>
        <time>2022-03-08T15:20:20Z</time>
      </trkpt>
      <trkpt lat="43.56805" lon="2.02445">
        <ele>314.6</ele>
        <time>2022-03-08T15:20:21Z</time>
      </trkpt>
      <trkpt lat="43.56805" lon="2.02445">
        <ele>314.6</ele>
        <time>2022-03-08T15:20:22Z</time>
      </trkpt>
      <trkpt lat="43.56805" lon="2.02445">
        <ele>314.6</ele>
        <time>2022-03-08T15:20:24Z</time>
      </trkpt>
      <trkpt lat="43.56805" lon="2.02445">
        <ele>314.5</ele>
        <time>2022-03-08T15:20:25Z</time>
      </trkpt>
      <trkpt lat="43.56805" lon="2.02445">
        <ele>314.5</ele>
        <time>2022-03-08T15:20:26Z</time>
      </trkpt>
      <trkpt lat="43.56805" lon="2.02445">
        <ele>314.5</ele>
        <time>2022-03-08T15:20:27Z</time>
      </trkpt>
      <trkpt lat="43.56805" lon="2.02445">
        <ele>314.5</ele>
        <time>2022-03-08T15:20:28Z</time>
      </trkpt>
      <trkpt lat="43.56805" lon="2.02445">
        <ele>314.5</ele>
        <time>2022-03-08T15:20:29Z</time>
      </trkpt>
      <trkpt lat="43.56805" lon="2.02445">
        <ele>314.5</ele>
        <time>2022-03-08T15:20:30Z</time>
      </trkpt>
      <trkpt lat="43.56805" lon="2.02445">
        <ele>314.5</ele>
        <time>2022-03-08T15:20:31Z</time>
      </trkpt>
      <trkpt lat="43.56805" lon="2.02445">
        <ele>314.5</ele>
        <time>2022-03-08T15:20:32Z</time>
      </trkpt>
      <trkpt lat="43.56805" lon="2.02445">
        <ele>314.5</ele>
        <time>2022-03-08T15:20:33Z</time>
      </trkpt>
      <trkpt lat="43.56806" lon="2.02444">
        <ele>314.4</ele>
        <time>2022-03-08T15:20:34Z</time>
      </trkpt>
      <trkpt lat="43.56806" lon="2.02444">
        <ele>314.4</ele>
        <time>2022-03-08T15:20:35Z</time>
      </trkpt>
      <trkpt lat="43.56807" lon="2.02442">
        <ele>314.2</ele>
        <time>2022-03-08T15:20:36Z</time>
      </trkpt>
      <trkpt lat="43.56807" lon="2.02441">
        <ele>314.1</ele>
        <time>2022-03-08T15:20:37Z</time>
      </trkpt>
      <trkpt lat="43.56808" lon="2.0244">
        <ele>314</ele>
        <time>2022-03-08T15:20:39Z</time>
      </trkpt>
      <trkpt lat="43.56808" lon="2.02439">
        <ele>313.9</ele>
        <time>2022-03-08T15:20:40Z</time>
      </trkpt>
      <trkpt lat="43.56809" lon="2.02438">
        <ele>313.8</ele>
        <time>2022-03-08T15:20:41Z</time>
      </trkpt>
      <trkpt lat="43.5681" lon="2.02436">
        <ele>313.7</ele>
        <time>2022-03-08T15:20:42Z</time>
      </trkpt>
      <trkpt lat="43.56811" lon="2.02434">
        <ele>313.5</ele>
        <time>2022-03-08T15:20:43Z</time>
      </trkpt>
      <trkpt lat="43.56812" lon="2.02433">
        <ele>313.4</ele>
        <time>2022-03-08T15:20:44Z</time>
      </trkpt>
      <trkpt lat="43.56812" lon="2.02432">
        <ele>313.3</ele>
        <time>2022-03-08T15:20:45Z</time>
      </trkpt>
      <trkpt lat="43.56812" lon="2.02428">
        <ele>313.1</ele>
        <time>2022-03-08T15:20:46Z</time>
      </trkpt>
      <trkpt lat="43.56812" lon="2.02426">
        <ele>313</ele>
        <time>2022-03-08T15:20:47Z</time>
      </trkpt>
      <trkpt lat="43.56813" lon="2.02422">
        <ele>312.8</ele>
        <time>2022-03-08T15:20:48Z</time>
      </trkpt>
      <trkpt lat="43.56813" lon="2.02421">
        <ele>312.7</ele>
        <time>2022-03-08T15:20:49Z</time>
      </trkpt>
      <trkpt lat="43.56813" lon="2.02419">
        <ele>312.6</ele>
        <time>2022-03-08T15:20:50Z</time>
      </trkpt>
      <trkpt lat="43.56813" lon="2.02418">
        <ele>312.6</ele>
        <time>2022-03-08T15:20:51Z</time>
      </trkpt>
      <trkpt lat="43.56813" lon="2.02416">
        <ele>312.5</ele>
        <time>2022-03-08T15:20:52Z</time>
      </trkpt>
      <trkpt lat="43.56813" lon="2.02414">
        <ele>312.4</ele>
        <time>2022-03-08T15:20:54Z</time>
      </trkpt>
      <trkpt lat="43.56813" lon="2.02412">
        <ele>312.3</ele>
        <time>2022-03-08T15:20:55Z</time>
      </trkpt>
      <trkpt lat="43.56813" lon="2.02411">
        <ele>312.2</ele>
        <time>2022-03-08T15:20:56Z</time>
      </trkpt>
      <trkpt lat="43.56813" lon="2.0241">
        <ele>312.2</ele>
        <time>2022-03-08T15:20:57Z</time>
      </trkpt>
      <trkpt lat="43.56813" lon="2.02409">
        <ele>312.1</ele>
        <time>2022-03-08T15:20:58Z</time>
      </trkpt>
      <trkpt lat="43.56813" lon="2.02409">
        <ele>312.1</ele>
        <time>2022-03-08T15:20:59Z</time>
      </trkpt>
      <trkpt lat="43.56813" lon="2.02409">
        <ele>312.1</ele>
        <time>2022-03-08T15:21:00Z</time>
      </trkpt>
      <trkpt lat="43.56813" lon="2.02409">
        <ele>312.1</ele>
        <time>2022-03-08T15:21:01Z</time>
      </trkpt>
      <trkpt lat="43.56813" lon="2.02409">
        <ele>312</ele>
        <time>2022-03-08T15:21:02Z</time>
      </trkpt>
      <trkpt lat="43.56813" lon="2.02408">
        <ele>312</ele>
        <time>2022-03-08T15:21:03Z</time>
      </trkpt>
      <trkpt lat="43.56813" lon="2.02407">
        <ele>311.9</ele>
        <time>2022-03-08T15:21:04Z</time>
      </trkpt>
      <trkpt lat="43.56813" lon="2.02406">
        <ele>311.9</ele>
        <time>2022-03-08T15:21:05Z</time>
      </trkpt>
      <trkpt lat="43.56813" lon="2.02404">
        <ele>311.8</ele>
        <time>2022-03-08T15:21:06Z</time>
      </trkpt>
      <trkpt lat="43.56814" lon="2.02404">
        <ele>311.8</ele>
        <time>2022-03-08T15:21:08Z</time>
      </trkpt>
      <trkpt lat="43.56814" lon="2.02403">
        <ele>311.7</ele>
        <time>2022-03-08T15:21:09Z</time>
      </trkpt>
      <trkpt lat="43.56814" lon="2.02401">
        <ele>311.6</ele>
        <time>2022-03-08T15:21:10Z</time>
      </trkpt>
      <trkpt lat="43.56814" lon="2.024">
        <ele>311.6</ele>
        <time>2022-03-08T15:21:11Z</time>
      </trkpt>
      <trkpt lat="43.56814" lon="2.02398">
        <ele>311.5</ele>
        <time>2022-03-08T15:21:12Z</time>
      </trkpt>
      <trkpt lat="43.56814" lon="2.02396">
        <ele>311.3</ele>
        <time>2022-03-08T15:21:13Z</time>
      </trkpt>
      <trkpt lat="43.56814" lon="2.02394">
        <ele>311.3</ele>
        <time>2022-03-08T15:21:14Z</time>
      </trkpt>
      <trkpt lat="43.56814" lon="2.02393">
        <ele>311.3</ele>
        <time>2022-03-08T15:21:15Z</time>
      </trkpt>
      <trkpt lat="43.56814" lon="2.0239">
        <ele>311.4</ele>
        <time>2022-03-08T15:21:16Z</time>
      </trkpt>
      <trkpt lat="43.56814" lon="2.02389">
        <ele>311.4</ele>
        <time>2022-03-08T15:21:17Z</time>
      </trkpt>
      <trkpt lat="43.56814" lon="2.02387">
        <ele>311.4</ele>
        <time>2022-03-08T15:21:18Z</time>
      </trkpt>
      <trkpt lat="43.56814" lon="2.02385">
        <ele>311.4</ele>
        <time>2022-03-08T15:21:20Z</time>
      </trkpt>
      <trkpt lat="43.56814" lon="2.02384">
        <ele>311.5</ele>
        <time>2022-03-08T15:21:21Z</time>
      </trkpt>
      <trkpt lat="43.56814" lon="2.02382">
        <ele>311.5</ele>
        <time>2022-03-08T15:21:22Z</time>
      </trkpt>
      <trkpt lat="43.56814" lon="2.02381">
        <ele>311.5</ele>
        <time>2022-03-08T15:21:23Z</time>
      </trkpt>
      <trkpt lat="43.56814" lon="2.02379">
        <ele>311.7</ele>
        <time>2022-03-08T15:21:25Z</time>
      </trkpt>
      <trkpt lat="43.56814" lon="2.02378">
        <ele>311.7</ele>
        <time>2022-03-08T15:21:26Z</time>
      </trkpt>
      <trkpt lat="43.56814" lon="2.02377">
        <ele>311.7</ele>
        <time>2022-03-08T15:21:27Z</time>
      </trkpt>
      <trkpt lat="43.56814" lon="2.02375">
        <ele>311.9</ele>
        <time>2022-03-08T15:21:28Z</time>
      </trkpt>
      <trkpt lat="43.56814" lon="2.02373">
        <ele>311.8</ele>
        <time>2022-03-08T15:21:29Z</time>
      </trkpt>
      <trkpt lat="43.56814" lon="2.02371">
        <ele>312</ele>
        <time>2022-03-08T15:21:30Z</time>
      </trkpt>
      <trkpt lat="43.56814" lon="2.02369">
        <ele>312</ele>
        <time>2022-03-08T15:21:31Z</time>
      </trkpt>
      <trkpt lat="43.56814" lon="2.02367">
        <ele>312.1</ele>
        <time>2022-03-08T15:21:33Z</time>
      </trkpt>
      <trkpt lat="43.56813" lon="2.02365">
        <ele>312.1</ele>
        <time>2022-03-08T15:21:34Z</time>
      </trkpt>
      <trkpt lat="43.56813" lon="2.02363">
        <ele>312.3</ele>
        <time>2022-03-08T15:21:35Z</time>
      </trkpt>
      <trkpt lat="43.56813" lon="2.02361">
        <ele>312.3</ele>
        <time>2022-03-08T15:21:36Z</time>
      </trkpt>
      <trkpt lat="43.56813" lon="2.0236">
        <ele>312.3</ele>
        <time>2022-03-08T15:21:37Z</time>
      </trkpt>
      <trkpt lat="43.56814" lon="2.02358">
        <ele>312.5</ele>
        <time>2022-03-08T15:21:38Z</time>
      </trkpt>
      <trkpt lat="43.56814" lon="2.02355">
        <ele>312.5</ele>
        <time>2022-03-08T15:21:39Z</time>
      </trkpt>
      <trkpt lat="43.56814" lon="2.02354">
        <ele>312.7</ele>
        <time>2022-03-08T15:21:40Z</time>
      </trkpt>
      <trkpt lat="43.56814" lon="2.02353">
        <ele>312.7</ele>
        <time>2022-03-08T15:21:41Z</time>
      </trkpt>
      <trkpt lat="43.56814" lon="2.0235">
        <ele>312.9</ele>
        <time>2022-03-08T15:21:43Z</time>
      </trkpt>
      <trkpt lat="43.56814" lon="2.02349">
        <ele>312.9</ele>
        <time>2022-03-08T15:21:44Z</time>
      </trkpt>
      <trkpt lat="43.56814" lon="2.02348">
        <ele>312.9</ele>
        <time>2022-03-08T15:21:45Z</time>
      </trkpt>
      <trkpt lat="43.56814" lon="2.02346">
        <ele>312.7</ele>
        <time>2022-03-08T15:21:46Z</time>
      </trkpt>
      <trkpt lat="43.56814" lon="2.02344">
        <ele>312.9</ele>
        <time>2022-03-08T15:21:48Z</time>
      </trkpt>
      <trkpt lat="43.56814" lon="2.02343">
        <ele>312.9</ele>
        <time>2022-03-08T15:21:49Z</time>
      </trkpt>
      <trkpt lat="43.56815" lon="2.02342">
        <ele>313.2</ele>
        <time>2022-03-08T15:21:50Z</time>
      </trkpt>
      <trkpt lat="43.56815" lon="2.0234">
        <ele>313.2</ele>
        <time>2022-03-08T15:21:51Z</time>
      </trkpt>
      <trkpt lat="43.56815" lon="2.02339">
        <ele>313.1</ele>
        <time>2022-03-08T15:21:52Z</time>
      </trkpt>
      <trkpt lat="43.56815" lon="2.02338">
        <ele>313.1</ele>
        <time>2022-03-08T15:21:53Z</time>
      </trkpt>
      <trkpt lat="43.56815" lon="2.02336">
        <ele>313.4</ele>
        <time>2022-03-08T15:21:54Z</time>
      </trkpt>
      <trkpt lat="43.56815" lon="2.02334">
        <ele>313.4</ele>
        <time>2022-03-08T15:21:56Z</time>
      </trkpt>
      <trkpt lat="43.56815" lon="2.02334">
        <ele>313.4</ele>
        <time>2022-03-08T15:21:57Z</time>
      </trkpt>
      <trkpt lat="43.56815" lon="2.02333">
        <ele>313.6</ele>
        <time>2022-03-08T15:21:58Z</time>
      </trkpt>
      <trkpt lat="43.56815" lon="2.02332">
        <ele>313.6</ele>
        <time>2022-03-08T15:21:59Z</time>
      </trkpt>
      <trkpt lat="43.56815" lon="2.02331">
        <ele>313.6</ele>
        <time>2022-03-08T15:22:01Z</time>
      </trkpt>
      <trkpt lat="43.56815" lon="2.0233">
        <ele>313.6</ele>
        <time>2022-03-08T15:22:02Z</time>
      </trkpt>
      <trkpt lat="43.56815" lon="2.02329">
        <ele>313.6</ele>
        <time>2022-03-08T15:22:03Z</time>
      </trkpt>
      <trkpt lat="43.56815" lon="2.02328">
        <ele>313.8</ele>
        <time>2022-03-08T15:22:04Z</time>
      </trkpt>
      <trkpt lat="43.56815" lon="2.02327">
        <ele>313.8</ele>
        <time>2022-03-08T15:22:05Z</time>
      </trkpt>
      <trkpt lat="43.56815" lon="2.02326">
        <ele>313.8</ele>
        <time>2022-03-08T15:22:06Z</time>
      </trkpt>
      <trkpt lat="43.56815" lon="2.02325">
        <ele>313.8</ele>
        <time>2022-03-08T15:22:08Z</time>
      </trkpt>
      <trkpt lat="43.56816" lon="2.02324">
        <ele>314</ele>
        <time>2022-03-08T15:22:09Z</time>
      </trkpt>
      <trkpt lat="43.56816" lon="2.02322">
        <ele>314</ele>
        <time>2022-03-08T15:22:10Z</time>
      </trkpt>
      <trkpt lat="43.56816" lon="2.0232">
        <ele>314</ele>
        <time>2022-03-08T15:22:12Z</time>
      </trkpt>
      <trkpt lat="43.56816" lon="2.0232">
        <ele>314.2</ele>
        <time>2022-03-08T15:22:13Z</time>
      </trkpt>
      <trkpt lat="43.56815" lon="2.02319">
        <ele>314.2</ele>
        <time>2022-03-08T15:22:14Z</time>
      </trkpt>
      <trkpt lat="43.56816" lon="2.02317">
        <ele>314.2</ele>
        <time>2022-03-08T15:22:15Z</time>
      </trkpt>
      <trkpt lat="43.56816" lon="2.02316">
        <ele>314.2</ele>
        <time>2022-03-08T15:22:16Z</time>
      </trkpt>
      <trkpt lat="43.56816" lon="2.02315">
        <ele>314.4</ele>
        <time>2022-03-08T15:22:17Z</time>
      </trkpt>
      <trkpt lat="43.56816" lon="2.02312">
        <ele>314.6</ele>
        <time>2022-03-08T15:22:18Z</time>
      </trkpt>
      <trkpt lat="43.56816" lon="2.02311">
        <ele>314.6</ele>
        <time>2022-03-08T15:22:20Z</time>
      </trkpt>
      <trkpt lat="43.56817" lon="2.02309">
        <ele>314.6</ele>
        <time>2022-03-08T15:22:21Z</time>
      </trkpt>
      <trkpt lat="43.56817" lon="2.02308">
        <ele>314.6</ele>
        <time>2022-03-08T15:22:22Z</time>
      </trkpt>
      <trkpt lat="43.56817" lon="2.02307">
        <ele>314.8</ele>
        <time>2022-03-08T15:22:23Z</time>
      </trkpt>
      <trkpt lat="43.56817" lon="2.02306">
        <ele>314.5</ele>
        <time>2022-03-08T15:22:24Z</time>
      </trkpt>
      <trkpt lat="43.56818" lon="2.02303">
        <ele>314.7</ele>
        <time>2022-03-08T15:22:26Z</time>
      </trkpt>
      <trkpt lat="43.56818" lon="2.02302">
        <ele>314.7</ele>
        <time>2022-03-08T15:22:27Z</time>
      </trkpt>
      <trkpt lat="43.56819" lon="2.02301">
        <ele>314.7</ele>
        <time>2022-03-08T15:22:28Z</time>
      </trkpt>
      <trkpt lat="43.56819" lon="2.02299">
        <ele>314.7</ele>
        <time>2022-03-08T15:22:30Z</time>
      </trkpt>
      <trkpt lat="43.56819" lon="2.02298">
        <ele>314.9</ele>
        <time>2022-03-08T15:22:31Z</time>
      </trkpt>
      <trkpt lat="43.56819" lon="2.02297">
        <ele>314.8</ele>
        <time>2022-03-08T15:22:32Z</time>
      </trkpt>
      <trkpt lat="43.56819" lon="2.02296">
        <ele>314.8</ele>
        <time>2022-03-08T15:22:33Z</time>
      </trkpt>
      <trkpt lat="43.56819" lon="2.02295">
        <ele>314.8</ele>
        <time>2022-03-08T15:22:35Z</time>
      </trkpt>
      <trkpt lat="43.5682" lon="2.02293">
        <ele>315</ele>
        <time>2022-03-08T15:22:36Z</time>
      </trkpt>
      <trkpt lat="43.5682" lon="2.02291">
        <ele>315</ele>
        <time>2022-03-08T15:22:37Z</time>
      </trkpt>
      <trkpt lat="43.56821" lon="2.02289">
        <ele>314.9</ele>
        <time>2022-03-08T15:22:39Z</time>
      </trkpt>
      <trkpt lat="43.56821" lon="2.02288">
        <ele>314.9</ele>
        <time>2022-03-08T15:22:40Z</time>
      </trkpt>
      <trkpt lat="43.56822" lon="2.02286">
        <ele>314.9</ele>
        <time>2022-03-08T15:22:41Z</time>
      </trkpt>
      <trkpt lat="43.56822" lon="2.02285">
        <ele>315</ele>
        <time>2022-03-08T15:22:42Z</time>
      </trkpt>
      <trkpt lat="43.56823" lon="2.02283">
        <ele>315</ele>
        <time>2022-03-08T15:22:43Z</time>
      </trkpt>
      <trkpt lat="43.56823" lon="2.02281">
        <ele>315.2</ele>
        <time>2022-03-08T15:22:45Z</time>
      </trkpt>
      <trkpt lat="43.56823" lon="2.0228">
        <ele>315.2</ele>
        <time>2022-03-08T15:22:46Z</time>
      </trkpt>
      <trkpt lat="43.56823" lon="2.02278">
        <ele>315.2</ele>
        <time>2022-03-08T15:22:47Z</time>
      </trkpt>
      <trkpt lat="43.56824" lon="2.02274">
        <ele>315</ele>
        <time>2022-03-08T15:22:49Z</time>
      </trkpt>
      <trkpt lat="43.56824" lon="2.02272">
        <ele>315.2</ele>
        <time>2022-03-08T15:22:50Z</time>
      </trkpt>
      <trkpt lat="43.56824" lon="2.02271">
        <ele>315.2</ele>
        <time>2022-03-08T15:22:51Z</time>
      </trkpt>
      <trkpt lat="43.56824" lon="2.0227">
        <ele>315.2</ele>
        <time>2022-03-08T15:22:52Z</time>
      </trkpt>
      <trkpt lat="43.56824" lon="2.02268">
        <ele>315.3</ele>
        <time>2022-03-08T15:22:54Z</time>
      </trkpt>
      <trkpt lat="43.56824" lon="2.02266">
        <ele>315.3</ele>
        <time>2022-03-08T15:22:55Z</time>
      </trkpt>
      <trkpt lat="43.56824" lon="2.02264">
        <ele>315.5</ele>
        <time>2022-03-08T15:22:56Z</time>
      </trkpt>
      <trkpt lat="43.56824" lon="2.02262">
        <ele>315.4</ele>
        <time>2022-03-08T15:22:58Z</time>
      </trkpt>
      <trkpt lat="43.56823" lon="2.02261">
        <ele>315.7</ele>
        <time>2022-03-08T15:22:59Z</time>
      </trkpt>
      <trkpt lat="43.56823" lon="2.02259">
        <ele>315.9</ele>
        <time>2022-03-08T15:23:00Z</time>
      </trkpt>
      <trkpt lat="43.56823" lon="2.02259">
        <ele>315.9</ele>
        <time>2022-03-08T15:23:01Z</time>
      </trkpt>
      <trkpt lat="43.56823" lon="2.02258">
        <ele>315.9</ele>
        <time>2022-03-08T15:23:02Z</time>
      </trkpt>
      <trkpt lat="43.56822" lon="2.02258">
        <ele>315.8</ele>
        <time>2022-03-08T15:23:03Z</time>
      </trkpt>
      <trkpt lat="43.56822" lon="2.02257">
        <ele>315.8</ele>
        <time>2022-03-08T15:23:04Z</time>
      </trkpt>
      <trkpt lat="43.56822" lon="2.02256">
        <ele>315.8</ele>
        <time>2022-03-08T15:23:05Z</time>
      </trkpt>
      <trkpt lat="43.56823" lon="2.02255">
        <ele>316</ele>
        <time>2022-03-08T15:23:06Z</time>
      </trkpt>
      <trkpt lat="43.56823" lon="2.02253">
        <ele>316</ele>
        <time>2022-03-08T15:23:07Z</time>
      </trkpt>
      <trkpt lat="43.56823" lon="2.02252">
        <ele>315.9</ele>
        <time>2022-03-08T15:23:09Z</time>
      </trkpt>
      <trkpt lat="43.56823" lon="2.02251">
        <ele>316.1</ele>
        <time>2022-03-08T15:23:10Z</time>
      </trkpt>
      <trkpt lat="43.56823" lon="2.0225">
        <ele>316.1</ele>
        <time>2022-03-08T15:23:11Z</time>
      </trkpt>
      <trkpt lat="43.56823" lon="2.02248">
        <ele>316.1</ele>
        <time>2022-03-08T15:23:13Z</time>
      </trkpt>
      <trkpt lat="43.56824" lon="2.02247">
        <ele>316</ele>
        <time>2022-03-08T15:23:14Z</time>
      </trkpt>
      <trkpt lat="43.56824" lon="2.02246">
        <ele>315.9</ele>
        <time>2022-03-08T15:23:15Z</time>
      </trkpt>
      <trkpt lat="43.56824" lon="2.02245">
        <ele>315.9</ele>
        <time>2022-03-08T15:23:16Z</time>
      </trkpt>
      <trkpt lat="43.56824" lon="2.02244">
        <ele>315.9</ele>
        <time>2022-03-08T15:23:17Z</time>
      </trkpt>
      <trkpt lat="43.56824" lon="2.02242">
        <ele>316.1</ele>
        <time>2022-03-08T15:23:19Z</time>
      </trkpt>
      <trkpt lat="43.56825" lon="2.02241">
        <ele>316</ele>
        <time>2022-03-08T15:23:20Z</time>
      </trkpt>
      <trkpt lat="43.56824" lon="2.0224">
        <ele>316</ele>
        <time>2022-03-08T15:23:21Z</time>
      </trkpt>
      <trkpt lat="43.56824" lon="2.02239">
        <ele>316</ele>
        <time>2022-03-08T15:23:23Z</time>
      </trkpt>
      <trkpt lat="43.56824" lon="2.02237">
        <ele>316.1</ele>
        <time>2022-03-08T15:23:25Z</time>
      </trkpt>
      <trkpt lat="43.56824" lon="2.02236">
        <ele>316.1</ele>
        <time>2022-03-08T15:23:26Z</time>
      </trkpt>
      <trkpt lat="43.56824" lon="2.02234">
        <ele>316.2</ele>
        <time>2022-03-08T15:23:27Z</time>
      </trkpt>
      <trkpt lat="43.56824" lon="2.02232">
        <ele>316.3</ele>
        <time>2022-03-08T15:23:29Z</time>
      </trkpt>
      <trkpt lat="43.56824" lon="2.02231">
        <ele>316.4</ele>
        <time>2022-03-08T15:23:30Z</time>
      </trkpt>
      <trkpt lat="43.56823" lon="2.02228">
        <ele>316.6</ele>
        <time>2022-03-08T15:23:31Z</time>
      </trkpt>
      <trkpt lat="43.56823" lon="2.02227">
        <ele>316.7</ele>
        <time>2022-03-08T15:23:33Z</time>
      </trkpt>
      <trkpt lat="43.56823" lon="2.02225">
        <ele>316.8</ele>
        <time>2022-03-08T15:23:34Z</time>
      </trkpt>
      <trkpt lat="43.56822" lon="2.02223">
        <ele>316.9</ele>
        <time>2022-03-08T15:23:35Z</time>
      </trkpt>
      <trkpt lat="43.56822" lon="2.02221">
        <ele>317.1</ele>
        <time>2022-03-08T15:23:36Z</time>
      </trkpt>
      <trkpt lat="43.56821" lon="2.02219">
        <ele>317.2</ele>
        <time>2022-03-08T15:23:38Z</time>
      </trkpt>
      <trkpt lat="43.56821" lon="2.02217">
        <ele>317.3</ele>
        <time>2022-03-08T15:23:39Z</time>
      </trkpt>
      <trkpt lat="43.56821" lon="2.02216">
        <ele>317.4</ele>
        <time>2022-03-08T15:23:40Z</time>
      </trkpt>
      <trkpt lat="43.56821" lon="2.02215">
        <ele>317.5</ele>
        <time>2022-03-08T15:23:41Z</time>
      </trkpt>
      <trkpt lat="43.56821" lon="2.02213">
        <ele>317.6</ele>
        <time>2022-03-08T15:23:43Z</time>
      </trkpt>
      <trkpt lat="43.56821" lon="2.02211">
        <ele>317.7</ele>
        <time>2022-03-08T15:23:44Z</time>
      </trkpt>
      <trkpt lat="43.56821" lon="2.02209">
        <ele>317.8</ele>
        <time>2022-03-08T15:23:45Z</time>
      </trkpt>
      <trkpt lat="43.56821" lon="2.02208">
        <ele>317.9</ele>
        <time>2022-03-08T15:23:46Z</time>
      </trkpt>
      <trkpt lat="43.56821" lon="2.02207">
        <ele>317.9</ele>
        <time>2022-03-08T15:23:47Z</time>
      </trkpt>
      <trkpt lat="43.56821" lon="2.02206">
        <ele>318</ele>
        <time>2022-03-08T15:23:48Z</time>
      </trkpt>
      <trkpt lat="43.56821" lon="2.02205">
        <ele>318.1</ele>
        <time>2022-03-08T15:23:49Z</time>
      </trkpt>
      <trkpt lat="43.56821" lon="2.02203">
        <ele>318.2</ele>
        <time>2022-03-08T15:23:51Z</time>
      </trkpt>
      <trkpt lat="43.56821" lon="2.02202">
        <ele>318.3</ele>
        <time>2022-03-08T15:23:52Z</time>
      </trkpt>
      <trkpt lat="43.56821" lon="2.022">
        <ele>318.4</ele>
        <time>2022-03-08T15:23:53Z</time>
      </trkpt>
      <trkpt lat="43.56821" lon="2.02198">
        <ele>318.5</ele>
        <time>2022-03-08T15:23:55Z</time>
      </trkpt>
      <trkpt lat="43.56821" lon="2.02196">
        <ele>318.6</ele>
        <time>2022-03-08T15:23:56Z</time>
      </trkpt>
      <trkpt lat="43.56821" lon="2.02195">
        <ele>318.7</ele>
        <time>2022-03-08T15:23:57Z</time>
      </trkpt>
      <trkpt lat="43.56821" lon="2.02193">
        <ele>318.8</ele>
        <time>2022-03-08T15:23:58Z</time>
      </trkpt>
      <trkpt lat="43.56821" lon="2.02192">
        <ele>318.9</ele>
        <time>2022-03-08T15:24:00Z</time>
      </trkpt>
      <trkpt lat="43.56821" lon="2.0219">
        <ele>319</ele>
        <time>2022-03-08T15:24:01Z</time>
      </trkpt>
      <trkpt lat="43.56821" lon="2.02188">
        <ele>319.1</ele>
        <time>2022-03-08T15:24:02Z</time>
      </trkpt>
      <trkpt lat="43.56821" lon="2.02186">
        <ele>319.2</ele>
        <time>2022-03-08T15:24:03Z</time>
      </trkpt>
      <trkpt lat="43.56822" lon="2.02185">
        <ele>319.4</ele>
        <time>2022-03-08T15:24:04Z</time>
      </trkpt>
      <trkpt lat="43.56822" lon="2.02183">
        <ele>319.5</ele>
        <time>2022-03-08T15:24:06Z</time>
      </trkpt>
      <trkpt lat="43.56822" lon="2.0218">
        <ele>319.5</ele>
        <time>2022-03-08T15:24:07Z</time>
      </trkpt>
      <trkpt lat="43.56823" lon="2.02178">
        <ele>319.6</ele>
        <time>2022-03-08T15:24:08Z</time>
      </trkpt>
      <trkpt lat="43.56822" lon="2.02176">
        <ele>319.6</ele>
        <time>2022-03-08T15:24:09Z</time>
      </trkpt>
      <trkpt lat="43.56822" lon="2.02174">
        <ele>319.6</ele>
        <time>2022-03-08T15:24:11Z</time>
      </trkpt>
      <trkpt lat="43.56822" lon="2.02172">
        <ele>319.7</ele>
        <time>2022-03-08T15:24:12Z</time>
      </trkpt>
      <trkpt lat="43.56822" lon="2.02168">
        <ele>319.7</ele>
        <time>2022-03-08T15:24:13Z</time>
      </trkpt>
      <trkpt lat="43.56821" lon="2.02167">
        <ele>319.7</ele>
        <time>2022-03-08T15:24:14Z</time>
      </trkpt>
      <trkpt lat="43.56821" lon="2.02166">
        <ele>319.8</ele>
        <time>2022-03-08T15:24:15Z</time>
      </trkpt>
      <trkpt lat="43.56821" lon="2.02163">
        <ele>319.8</ele>
        <time>2022-03-08T15:24:17Z</time>
      </trkpt>
      <trkpt lat="43.56821" lon="2.02162">
        <ele>319.8</ele>
        <time>2022-03-08T15:24:18Z</time>
      </trkpt>
      <trkpt lat="43.56821" lon="2.02161">
        <ele>319.8</ele>
        <time>2022-03-08T15:24:19Z</time>
      </trkpt>
      <trkpt lat="43.56822" lon="2.0216">
        <ele>319.9</ele>
        <time>2022-03-08T15:24:20Z</time>
      </trkpt>
      <trkpt lat="43.56822" lon="2.02158">
        <ele>319.9</ele>
        <time>2022-03-08T15:24:22Z</time>
      </trkpt>
      <trkpt lat="43.56822" lon="2.02157">
        <ele>319.9</ele>
        <time>2022-03-08T15:24:23Z</time>
      </trkpt>
      <trkpt lat="43.56822" lon="2.02156">
        <ele>319.9</ele>
        <time>2022-03-08T15:24:24Z</time>
      </trkpt>
      <trkpt lat="43.56822" lon="2.02155">
        <ele>319.9</ele>
        <time>2022-03-08T15:24:25Z</time>
      </trkpt>
      <trkpt lat="43.56823" lon="2.02153">
        <ele>319.9</ele>
        <time>2022-03-08T15:24:26Z</time>
      </trkpt>
      <trkpt lat="43.56823" lon="2.02152">
        <ele>320</ele>
        <time>2022-03-08T15:24:27Z</time>
      </trkpt>
      <trkpt lat="43.56823" lon="2.02151">
        <ele>320</ele>
        <time>2022-03-08T15:24:28Z</time>
      </trkpt>
      <trkpt lat="43.56823" lon="2.02149">
        <ele>320</ele>
        <time>2022-03-08T15:24:29Z</time>
      </trkpt>
      <trkpt lat="43.56822" lon="2.02146">
        <ele>320</ele>
        <time>2022-03-08T15:24:31Z</time>
      </trkpt>
      <trkpt lat="43.56822" lon="2.02143">
        <ele>320.1</ele>
        <time>2022-03-08T15:24:32Z</time>
      </trkpt>
      <trkpt lat="43.56822" lon="2.02142">
        <ele>320.1</ele>
        <time>2022-03-08T15:24:33Z</time>
      </trkpt>
      <trkpt lat="43.56821" lon="2.02141">
        <ele>320.1</ele>
        <time>2022-03-08T15:24:34Z</time>
      </trkpt>
      <trkpt lat="43.56821" lon="2.02138">
        <ele>320.1</ele>
        <time>2022-03-08T15:24:35Z</time>
      </trkpt>
      <trkpt lat="43.56821" lon="2.02137">
        <ele>320.1</ele>
        <time>2022-03-08T15:24:37Z</time>
      </trkpt>
      <trkpt lat="43.56821" lon="2.02136">
        <ele>320.1</ele>
        <time>2022-03-08T15:24:38Z</time>
      </trkpt>
      <trkpt lat="43.56821" lon="2.02134">
        <ele>320.1</ele>
        <time>2022-03-08T15:24:39Z</time>
      </trkpt>
      <trkpt lat="43.5682" lon="2.02133">
        <ele>320.1</ele>
        <time>2022-03-08T15:24:40Z</time>
      </trkpt>
      <trkpt lat="43.5682" lon="2.02132">
        <ele>320.1</ele>
        <time>2022-03-08T15:24:41Z</time>
      </trkpt>
      <trkpt lat="43.5682" lon="2.0213">
        <ele>320.1</ele>
        <time>2022-03-08T15:24:42Z</time>
      </trkpt>
      <trkpt lat="43.5682" lon="2.02128">
        <ele>320.1</ele>
        <time>2022-03-08T15:24:43Z</time>
      </trkpt>
      <trkpt lat="43.5682" lon="2.02127">
        <ele>320.1</ele>
        <time>2022-03-08T15:24:44Z</time>
      </trkpt>
      <trkpt lat="43.5682" lon="2.02126">
        <ele>320.1</ele>
        <time>2022-03-08T15:24:45Z</time>
      </trkpt>
      <trkpt lat="43.5682" lon="2.02125">
        <ele>320.1</ele>
        <time>2022-03-08T15:24:47Z</time>
      </trkpt>
      <trkpt lat="43.5682" lon="2.02123">
        <ele>320.1</ele>
        <time>2022-03-08T15:24:48Z</time>
      </trkpt>
      <trkpt lat="43.56819" lon="2.02122">
        <ele>320.1</ele>
        <time>2022-03-08T15:24:49Z</time>
      </trkpt>
      <trkpt lat="43.5682" lon="2.0212">
        <ele>320.1</ele>
        <time>2022-03-08T15:24:50Z</time>
      </trkpt>
      <trkpt lat="43.5682" lon="2.02116">
        <ele>320.2</ele>
        <time>2022-03-08T15:24:52Z</time>
      </trkpt>
      <trkpt lat="43.5682" lon="2.02113">
        <ele>320.2</ele>
        <time>2022-03-08T15:24:53Z</time>
      </trkpt>
      <trkpt lat="43.56821" lon="2.02112">
        <ele>320.2</ele>
        <time>2022-03-08T15:24:54Z</time>
      </trkpt>
      <trkpt lat="43.56821" lon="2.02111">
        <ele>320.2</ele>
        <time>2022-03-08T15:24:55Z</time>
      </trkpt>
      <trkpt lat="43.56821" lon="2.02109">
        <ele>320.2</ele>
        <time>2022-03-08T15:24:56Z</time>
      </trkpt>
      <trkpt lat="43.56822" lon="2.02107">
        <ele>320.2</ele>
        <time>2022-03-08T15:24:57Z</time>
      </trkpt>
      <trkpt lat="43.56822" lon="2.02106">
        <ele>320.3</ele>
        <time>2022-03-08T15:24:58Z</time>
      </trkpt>
      <trkpt lat="43.56822" lon="2.02104">
        <ele>320.3</ele>
        <time>2022-03-08T15:24:59Z</time>
      </trkpt>
      <trkpt lat="43.56822" lon="2.02103">
        <ele>320.3</ele>
        <time>2022-03-08T15:25:00Z</time>
      </trkpt>
      <trkpt lat="43.56822" lon="2.02101">
        <ele>320.3</ele>
        <time>2022-03-08T15:25:01Z</time>
      </trkpt>
      <trkpt lat="43.56822" lon="2.021">
        <ele>320.3</ele>
        <time>2022-03-08T15:25:02Z</time>
      </trkpt>
      <trkpt lat="43.56822" lon="2.02098">
        <ele>320.3</ele>
        <time>2022-03-08T15:25:03Z</time>
      </trkpt>
      <trkpt lat="43.56822" lon="2.02097">
        <ele>320.4</ele>
        <time>2022-03-08T15:25:04Z</time>
      </trkpt>
      <trkpt lat="43.56823" lon="2.02095">
        <ele>320.4</ele>
        <time>2022-03-08T15:25:05Z</time>
      </trkpt>
      <trkpt lat="43.56823" lon="2.02092">
        <ele>320.4</ele>
        <time>2022-03-08T15:25:07Z</time>
      </trkpt>
      <trkpt lat="43.56823" lon="2.02091">
        <ele>320.4</ele>
        <time>2022-03-08T15:25:08Z</time>
      </trkpt>
      <trkpt lat="43.56823" lon="2.02089">
        <ele>320.4</ele>
        <time>2022-03-08T15:25:09Z</time>
      </trkpt>
      <trkpt lat="43.56823" lon="2.02088">
        <ele>320.5</ele>
        <time>2022-03-08T15:25:10Z</time>
      </trkpt>
      <trkpt lat="43.56824" lon="2.02086">
        <ele>320.5</ele>
        <time>2022-03-08T15:25:12Z</time>
      </trkpt>
      <trkpt lat="43.56824" lon="2.02084">
        <ele>320.5</ele>
        <time>2022-03-08T15:25:13Z</time>
      </trkpt>
      <trkpt lat="43.56825" lon="2.02082">
        <ele>320.5</ele>
        <time>2022-03-08T15:25:14Z</time>
      </trkpt>
      <trkpt lat="43.56825" lon="2.02081">
        <ele>320.6</ele>
        <time>2022-03-08T15:25:15Z</time>
      </trkpt>
      <trkpt lat="43.56825" lon="2.02079">
        <ele>320.6</ele>
        <time>2022-03-08T15:25:16Z</time>
      </trkpt>
      <trkpt lat="43.56826" lon="2.02077">
        <ele>320.6</ele>
        <time>2022-03-08T15:25:17Z</time>
      </trkpt>
      <trkpt lat="43.56826" lon="2.02075">
        <ele>320.6</ele>
        <time>2022-03-08T15:25:18Z</time>
      </trkpt>
      <trkpt lat="43.56827" lon="2.02074">
        <ele>320.7</ele>
        <time>2022-03-08T15:25:19Z</time>
      </trkpt>
      <trkpt lat="43.56827" lon="2.02073">
        <ele>320.7</ele>
        <time>2022-03-08T15:25:20Z</time>
      </trkpt>
      <trkpt lat="43.56828" lon="2.02071">
        <ele>320.7</ele>
        <time>2022-03-08T15:25:22Z</time>
      </trkpt>
      <trkpt lat="43.56828" lon="2.02069">
        <ele>320.8</ele>
        <time>2022-03-08T15:25:23Z</time>
      </trkpt>
      <trkpt lat="43.56828" lon="2.02067">
        <ele>320.8</ele>
        <time>2022-03-08T15:25:24Z</time>
      </trkpt>
      <trkpt lat="43.56828" lon="2.02066">
        <ele>320.8</ele>
        <time>2022-03-08T15:25:25Z</time>
      </trkpt>
      <trkpt lat="43.56828" lon="2.02064">
        <ele>320.9</ele>
        <time>2022-03-08T15:25:26Z</time>
      </trkpt>
      <trkpt lat="43.56828" lon="2.02063">
        <ele>320.9</ele>
        <time>2022-03-08T15:25:28Z</time>
      </trkpt>
      <trkpt lat="43.56828" lon="2.02062">
        <ele>320.9</ele>
        <time>2022-03-08T15:25:29Z</time>
      </trkpt>
      <trkpt lat="43.56828" lon="2.0206">
        <ele>321</ele>
        <time>2022-03-08T15:25:30Z</time>
      </trkpt>
      <trkpt lat="43.56828" lon="2.02059">
        <ele>321</ele>
        <time>2022-03-08T15:25:31Z</time>
      </trkpt>
      <trkpt lat="43.56828" lon="2.02058">
        <ele>321</ele>
        <time>2022-03-08T15:25:32Z</time>
      </trkpt>
      <trkpt lat="43.56829" lon="2.02058">
        <ele>321</ele>
        <time>2022-03-08T15:25:33Z</time>
      </trkpt>
      <trkpt lat="43.56829" lon="2.02056">
        <ele>321.1</ele>
        <time>2022-03-08T15:25:34Z</time>
      </trkpt>
      <trkpt lat="43.56829" lon="2.02055">
        <ele>321.1</ele>
        <time>2022-03-08T15:25:36Z</time>
      </trkpt>
      <trkpt lat="43.56829" lon="2.02054">
        <ele>321.2</ele>
        <time>2022-03-08T15:25:37Z</time>
      </trkpt>
      <trkpt lat="43.5683" lon="2.02053">
        <ele>321.2</ele>
        <time>2022-03-08T15:25:38Z</time>
      </trkpt>
      <trkpt lat="43.5683" lon="2.02051">
        <ele>321.2</ele>
        <time>2022-03-08T15:25:39Z</time>
      </trkpt>
      <trkpt lat="43.5683" lon="2.02049">
        <ele>321.3</ele>
        <time>2022-03-08T15:25:40Z</time>
      </trkpt>
      <trkpt lat="43.5683" lon="2.02048">
        <ele>321.3</ele>
        <time>2022-03-08T15:25:41Z</time>
      </trkpt>
      <trkpt lat="43.56831" lon="2.02045">
        <ele>321.5</ele>
        <time>2022-03-08T15:25:43Z</time>
      </trkpt>
      <trkpt lat="43.56831" lon="2.02044">
        <ele>321.6</ele>
        <time>2022-03-08T15:25:44Z</time>
      </trkpt>
      <trkpt lat="43.56831" lon="2.02043">
        <ele>321.6</ele>
        <time>2022-03-08T15:25:45Z</time>
      </trkpt>
      <trkpt lat="43.56831" lon="2.02041">
        <ele>321.7</ele>
        <time>2022-03-08T15:25:46Z</time>
      </trkpt>
      <trkpt lat="43.56832" lon="2.0204">
        <ele>321.9</ele>
        <time>2022-03-08T15:25:47Z</time>
      </trkpt>
      <trkpt lat="43.56832" lon="2.02039">
        <ele>322</ele>
        <time>2022-03-08T15:25:48Z</time>
      </trkpt>
      <trkpt lat="43.56833" lon="2.02037">
        <ele>322</ele>
        <time>2022-03-08T15:25:49Z</time>
      </trkpt>
      <trkpt lat="43.56833" lon="2.02036">
        <ele>322.3</ele>
        <time>2022-03-08T15:25:50Z</time>
      </trkpt>
      <trkpt lat="43.56833" lon="2.02035">
        <ele>322.4</ele>
        <time>2022-03-08T15:25:51Z</time>
      </trkpt>
      <trkpt lat="43.56834" lon="2.02034">
        <ele>322.4</ele>
        <time>2022-03-08T15:25:52Z</time>
      </trkpt>
      <trkpt lat="43.56834" lon="2.02032">
        <ele>322.8</ele>
        <time>2022-03-08T15:25:54Z</time>
      </trkpt>
      <trkpt lat="43.56835" lon="2.02031">
        <ele>322.8</ele>
        <time>2022-03-08T15:25:55Z</time>
      </trkpt>
      <trkpt lat="43.56835" lon="2.02029">
        <ele>322.9</ele>
        <time>2022-03-08T15:25:56Z</time>
      </trkpt>
      <trkpt lat="43.56835" lon="2.02028">
        <ele>323.2</ele>
        <time>2022-03-08T15:25:57Z</time>
      </trkpt>
      <trkpt lat="43.56835" lon="2.02027">
        <ele>323.3</ele>
        <time>2022-03-08T15:25:59Z</time>
      </trkpt>
      <trkpt lat="43.56835" lon="2.02026">
        <ele>323.4</ele>
        <time>2022-03-08T15:26:00Z</time>
      </trkpt>
      <trkpt lat="43.56835" lon="2.02025">
        <ele>323.4</ele>
        <time>2022-03-08T15:26:01Z</time>
      </trkpt>
      <trkpt lat="43.56835" lon="2.02024">
        <ele>323.5</ele>
        <time>2022-03-08T15:26:02Z</time>
      </trkpt>
      <trkpt lat="43.56836" lon="2.02022">
        <ele>323.6</ele>
        <time>2022-03-08T15:26:03Z</time>
      </trkpt>
      <trkpt lat="43.56836" lon="2.02021">
        <ele>323.7</ele>
        <time>2022-03-08T15:26:05Z</time>
      </trkpt>
      <trkpt lat="43.56836" lon="2.0202">
        <ele>323.8</ele>
        <time>2022-03-08T15:26:06Z</time>
      </trkpt>
      <trkpt lat="43.56836" lon="2.02019">
        <ele>323.9</ele>
        <time>2022-03-08T15:26:07Z</time>
      </trkpt>
      <trkpt lat="43.56836" lon="2.02017">
        <ele>324</ele>
        <time>2022-03-08T15:26:08Z</time>
      </trkpt>
      <trkpt lat="43.56835" lon="2.02017">
        <ele>324.1</ele>
        <time>2022-03-08T15:26:09Z</time>
      </trkpt>
      <trkpt lat="43.56835" lon="2.02016">
        <ele>324.2</ele>
        <time>2022-03-08T15:26:10Z</time>
      </trkpt>
      <trkpt lat="43.56835" lon="2.02015">
        <ele>324.2</ele>
        <time>2022-03-08T15:26:11Z</time>
      </trkpt>
      <trkpt lat="43.56835" lon="2.02014">
        <ele>324.3</ele>
        <time>2022-03-08T15:26:12Z</time>
      </trkpt>
      <trkpt lat="43.56836" lon="2.02013">
        <ele>324.4</ele>
        <time>2022-03-08T15:26:14Z</time>
      </trkpt>
      <trkpt lat="43.56836" lon="2.02012">
        <ele>324.5</ele>
        <time>2022-03-08T15:26:15Z</time>
      </trkpt>
      <trkpt lat="43.56836" lon="2.0201">
        <ele>324.6</ele>
        <time>2022-03-08T15:26:16Z</time>
      </trkpt>
      <trkpt lat="43.56836" lon="2.02009">
        <ele>324.7</ele>
        <time>2022-03-08T15:26:17Z</time>
      </trkpt>
      <trkpt lat="43.56837" lon="2.02006">
        <ele>324.9</ele>
        <time>2022-03-08T15:26:19Z</time>
      </trkpt>
      <trkpt lat="43.56837" lon="2.02005">
        <ele>325</ele>
        <time>2022-03-08T15:26:20Z</time>
      </trkpt>
      <trkpt lat="43.56837" lon="2.02004">
        <ele>325.1</ele>
        <time>2022-03-08T15:26:21Z</time>
      </trkpt>
      <trkpt lat="43.56836" lon="2.02002">
        <ele>325.2</ele>
        <time>2022-03-08T15:26:22Z</time>
      </trkpt>
      <trkpt lat="43.56836" lon="2.02002">
        <ele>325.3</ele>
        <time>2022-03-08T15:26:23Z</time>
      </trkpt>
      <trkpt lat="43.56836" lon="2.02">
        <ele>325.4</ele>
        <time>2022-03-08T15:26:24Z</time>
      </trkpt>
      <trkpt lat="43.56836" lon="2.01999">
        <ele>325.5</ele>
        <time>2022-03-08T15:26:26Z</time>
      </trkpt>
      <trkpt lat="43.56836" lon="2.01998">
        <ele>325.6</ele>
        <time>2022-03-08T15:26:27Z</time>
      </trkpt>
      <trkpt lat="43.56836" lon="2.01997">
        <ele>325.7</ele>
        <time>2022-03-08T15:26:28Z</time>
      </trkpt>
      <trkpt lat="43.56837" lon="2.01996">
        <ele>325.8</ele>
        <time>2022-03-08T15:26:30Z</time>
      </trkpt>
      <trkpt lat="43.56837" lon="2.01995">
        <ele>325.8</ele>
        <time>2022-03-08T15:26:31Z</time>
      </trkpt>
      <trkpt lat="43.56837" lon="2.01995">
        <ele>325.9</ele>
        <time>2022-03-08T15:26:32Z</time>
      </trkpt>
      <trkpt lat="43.56837" lon="2.01994">
        <ele>325.9</ele>
        <time>2022-03-08T15:26:34Z</time>
      </trkpt>
      <trkpt lat="43.56838" lon="2.01993">
        <ele>326</ele>
        <time>2022-03-08T15:26:35Z</time>
      </trkpt>
      <trkpt lat="43.56838" lon="2.01992">
        <ele>326.1</ele>
        <time>2022-03-08T15:26:36Z</time>
      </trkpt>
      <trkpt lat="43.56839" lon="2.0199">
        <ele>326.3</ele>
        <time>2022-03-08T15:26:37Z</time>
      </trkpt>
      <trkpt lat="43.56839" lon="2.01989">
        <ele>326.4</ele>
        <time>2022-03-08T15:26:38Z</time>
      </trkpt>
      <trkpt lat="43.56839" lon="2.01987">
        <ele>326.5</ele>
        <time>2022-03-08T15:26:40Z</time>
      </trkpt>
      <trkpt lat="43.5684" lon="2.01986">
        <ele>326.6</ele>
        <time>2022-03-08T15:26:41Z</time>
      </trkpt>
      <trkpt lat="43.5684" lon="2.01984">
        <ele>326.7</ele>
        <time>2022-03-08T15:26:42Z</time>
      </trkpt>
      <trkpt lat="43.5684" lon="2.01982">
        <ele>326.9</ele>
        <time>2022-03-08T15:26:44Z</time>
      </trkpt>
      <trkpt lat="43.56841" lon="2.01981">
        <ele>327</ele>
        <time>2022-03-08T15:26:45Z</time>
      </trkpt>
      <trkpt lat="43.56841" lon="2.0198">
        <ele>327.1</ele>
        <time>2022-03-08T15:26:46Z</time>
      </trkpt>
      <trkpt lat="43.56842" lon="2.01979">
        <ele>327.1</ele>
        <time>2022-03-08T15:26:47Z</time>
      </trkpt>
      <trkpt lat="43.56842" lon="2.01978">
        <ele>327.2</ele>
        <time>2022-03-08T15:26:48Z</time>
      </trkpt>
      <trkpt lat="43.56842" lon="2.01976">
        <ele>327.3</ele>
        <time>2022-03-08T15:26:49Z</time>
      </trkpt>
      <trkpt lat="43.56843" lon="2.01975">
        <ele>327.4</ele>
        <time>2022-03-08T15:26:51Z</time>
      </trkpt>
      <trkpt lat="43.56843" lon="2.01974">
        <ele>327.5</ele>
        <time>2022-03-08T15:26:52Z</time>
      </trkpt>
      <trkpt lat="43.56844" lon="2.01972">
        <ele>327.6</ele>
        <time>2022-03-08T15:26:53Z</time>
      </trkpt>
      <trkpt lat="43.56844" lon="2.01971">
        <ele>327.7</ele>
        <time>2022-03-08T15:26:55Z</time>
      </trkpt>
      <trkpt lat="43.56845" lon="2.0197">
        <ele>327.9</ele>
        <time>2022-03-08T15:26:56Z</time>
      </trkpt>
      <trkpt lat="43.56845" lon="2.01968">
        <ele>328</ele>
        <time>2022-03-08T15:26:57Z</time>
      </trkpt>
      <trkpt lat="43.56845" lon="2.01966">
        <ele>328.1</ele>
        <time>2022-03-08T15:26:58Z</time>
      </trkpt>
      <trkpt lat="43.56844" lon="2.01962">
        <ele>328.5</ele>
        <time>2022-03-08T15:26:59Z</time>
      </trkpt>
      <trkpt lat="43.56844" lon="2.01961">
        <ele>328.6</ele>
        <time>2022-03-08T15:27:00Z</time>
      </trkpt>
      <trkpt lat="43.56844" lon="2.01958">
        <ele>328.8</ele>
        <time>2022-03-08T15:27:02Z</time>
      </trkpt>
      <trkpt lat="43.56843" lon="2.01956">
        <ele>328.9</ele>
        <time>2022-03-08T15:27:03Z</time>
      </trkpt>
      <trkpt lat="43.56843" lon="2.01953">
        <ele>329.1</ele>
        <time>2022-03-08T15:27:04Z</time>
      </trkpt>
      <trkpt lat="43.56843" lon="2.01951">
        <ele>329.3</ele>
        <time>2022-03-08T15:27:06Z</time>
      </trkpt>
      <trkpt lat="43.56843" lon="2.01949">
        <ele>329.5</ele>
        <time>2022-03-08T15:27:07Z</time>
      </trkpt>
      <trkpt lat="43.56843" lon="2.01947">
        <ele>329.6</ele>
        <time>2022-03-08T15:27:08Z</time>
      </trkpt>
      <trkpt lat="43.56843" lon="2.01946">
        <ele>329.7</ele>
        <time>2022-03-08T15:27:09Z</time>
      </trkpt>
      <trkpt lat="43.56843" lon="2.01944">
        <ele>329.9</ele>
        <time>2022-03-08T15:27:10Z</time>
      </trkpt>
      <trkpt lat="43.56844" lon="2.01942">
        <ele>330</ele>
        <time>2022-03-08T15:27:11Z</time>
      </trkpt>
      <trkpt lat="43.56844" lon="2.01941">
        <ele>330.1</ele>
        <time>2022-03-08T15:27:13Z</time>
      </trkpt>
      <trkpt lat="43.56844" lon="2.0194">
        <ele>330.2</ele>
        <time>2022-03-08T15:27:14Z</time>
      </trkpt>
      <trkpt lat="43.56844" lon="2.01938">
        <ele>330.4</ele>
        <time>2022-03-08T15:27:15Z</time>
      </trkpt>
      <trkpt lat="43.56844" lon="2.01937">
        <ele>330.4</ele>
        <time>2022-03-08T15:27:16Z</time>
      </trkpt>
      <trkpt lat="43.56844" lon="2.01936">
        <ele>330.5</ele>
        <time>2022-03-08T15:27:17Z</time>
      </trkpt>
      <trkpt lat="43.56845" lon="2.01935">
        <ele>330.6</ele>
        <time>2022-03-08T15:27:19Z</time>
      </trkpt>
      <trkpt lat="43.56845" lon="2.01934">
        <ele>330.7</ele>
        <time>2022-03-08T15:27:20Z</time>
      </trkpt>
      <trkpt lat="43.56846" lon="2.01932">
        <ele>330.8</ele>
        <time>2022-03-08T15:27:22Z</time>
      </trkpt>
      <trkpt lat="43.56846" lon="2.01931">
        <ele>330.9</ele>
        <time>2022-03-08T15:27:23Z</time>
      </trkpt>
      <trkpt lat="43.56847" lon="2.0193">
        <ele>331</ele>
        <time>2022-03-08T15:27:24Z</time>
      </trkpt>
      <trkpt lat="43.56848" lon="2.01929">
        <ele>331.2</ele>
        <time>2022-03-08T15:27:25Z</time>
      </trkpt>
      <trkpt lat="43.5685" lon="2.01928">
        <ele>331.3</ele>
        <time>2022-03-08T15:27:26Z</time>
      </trkpt>
      <trkpt lat="43.56851" lon="2.01927">
        <ele>331.5</ele>
        <time>2022-03-08T15:27:28Z</time>
      </trkpt>
      <trkpt lat="43.56852" lon="2.01925">
        <ele>331.6</ele>
        <time>2022-03-08T15:27:29Z</time>
      </trkpt>
      <trkpt lat="43.56853" lon="2.01924">
        <ele>331.8</ele>
        <time>2022-03-08T15:27:30Z</time>
      </trkpt>
      <trkpt lat="43.56854" lon="2.01924">
        <ele>331.8</ele>
        <time>2022-03-08T15:27:31Z</time>
      </trkpt>
      <trkpt lat="43.56855" lon="2.01923">
        <ele>331.9</ele>
        <time>2022-03-08T15:27:32Z</time>
      </trkpt>
      <trkpt lat="43.56856" lon="2.01922">
        <ele>332</ele>
        <time>2022-03-08T15:27:34Z</time>
      </trkpt>
      <trkpt lat="43.56857" lon="2.01921">
        <ele>332.1</ele>
        <time>2022-03-08T15:27:35Z</time>
      </trkpt>
      <trkpt lat="43.56857" lon="2.01921">
        <ele>332.1</ele>
        <time>2022-03-08T15:27:36Z</time>
      </trkpt>
      <trkpt lat="43.56858" lon="2.0192">
        <ele>332.2</ele>
        <time>2022-03-08T15:27:37Z</time>
      </trkpt>
      <trkpt lat="43.5686" lon="2.01919">
        <ele>332.4</ele>
        <time>2022-03-08T15:27:38Z</time>
      </trkpt>
      <trkpt lat="43.56861" lon="2.01918">
        <ele>332.5</ele>
        <time>2022-03-08T15:27:40Z</time>
      </trkpt>
      <trkpt lat="43.56862" lon="2.01917">
        <ele>332.6</ele>
        <time>2022-03-08T15:27:41Z</time>
      </trkpt>
      <trkpt lat="43.56863" lon="2.01916">
        <ele>332.6</ele>
        <time>2022-03-08T15:27:42Z</time>
      </trkpt>
      <trkpt lat="43.56863" lon="2.01916">
        <ele>332.6</ele>
        <time>2022-03-08T15:27:43Z</time>
      </trkpt>
      <trkpt lat="43.56864" lon="2.01915">
        <ele>332.6</ele>
        <time>2022-03-08T15:27:44Z</time>
      </trkpt>
      <trkpt lat="43.56864" lon="2.01915">
        <ele>332.7</ele>
        <time>2022-03-08T15:27:45Z</time>
      </trkpt>
      <trkpt lat="43.56865" lon="2.01915">
        <ele>332.7</ele>
        <time>2022-03-08T15:27:46Z</time>
      </trkpt>
      <trkpt lat="43.56865" lon="2.01914">
        <ele>332.8</ele>
        <time>2022-03-08T15:27:48Z</time>
      </trkpt>
      <trkpt lat="43.56867" lon="2.01913">
        <ele>332.9</ele>
        <time>2022-03-08T15:27:49Z</time>
      </trkpt>
      <trkpt lat="43.56867" lon="2.01912">
        <ele>332.9</ele>
        <time>2022-03-08T15:27:50Z</time>
      </trkpt>
      <trkpt lat="43.56868" lon="2.01911">
        <ele>333</ele>
        <time>2022-03-08T15:27:51Z</time>
      </trkpt>
      <trkpt lat="43.56869" lon="2.0191">
        <ele>333.1</ele>
        <time>2022-03-08T15:27:52Z</time>
      </trkpt>
      <trkpt lat="43.5687" lon="2.0191">
        <ele>333.1</ele>
        <time>2022-03-08T15:27:54Z</time>
      </trkpt>
      <trkpt lat="43.56871" lon="2.0191">
        <ele>333.2</ele>
        <time>2022-03-08T15:27:55Z</time>
      </trkpt>
      <trkpt lat="43.56873" lon="2.01908">
        <ele>333.5</ele>
        <time>2022-03-08T15:27:56Z</time>
      </trkpt>
      <trkpt lat="43.56873" lon="2.01908">
        <ele>333.6</ele>
        <time>2022-03-08T15:27:57Z</time>
      </trkpt>
      <trkpt lat="43.56874" lon="2.01907">
        <ele>333.7</ele>
        <time>2022-03-08T15:27:58Z</time>
      </trkpt>
      <trkpt lat="43.56875" lon="2.01907">
        <ele>333.8</ele>
        <time>2022-03-08T15:27:59Z</time>
      </trkpt>
      <trkpt lat="43.56876" lon="2.01906">
        <ele>334</ele>
        <time>2022-03-08T15:28:00Z</time>
      </trkpt>
      <trkpt lat="43.56877" lon="2.01905">
        <ele>334.1</ele>
        <time>2022-03-08T15:28:01Z</time>
      </trkpt>
      <trkpt lat="43.56878" lon="2.01903">
        <ele>334.3</ele>
        <time>2022-03-08T15:28:02Z</time>
      </trkpt>
      <trkpt lat="43.5688" lon="2.01902">
        <ele>334.4</ele>
        <time>2022-03-08T15:28:03Z</time>
      </trkpt>
      <trkpt lat="43.56881" lon="2.01901">
        <ele>334.6</ele>
        <time>2022-03-08T15:28:05Z</time>
      </trkpt>
      <trkpt lat="43.56882" lon="2.01901">
        <ele>334.7</ele>
        <time>2022-03-08T15:28:06Z</time>
      </trkpt>
      <trkpt lat="43.56882" lon="2.01901">
        <ele>334.7</ele>
        <time>2022-03-08T15:28:07Z</time>
      </trkpt>
      <trkpt lat="43.56882" lon="2.01901">
        <ele>334.7</ele>
        <time>2022-03-08T15:28:08Z</time>
      </trkpt>
      <trkpt lat="43.56883" lon="2.019">
        <ele>334.8</ele>
        <time>2022-03-08T15:28:10Z</time>
      </trkpt>
      <trkpt lat="43.56883" lon="2.019">
        <ele>334.9</ele>
        <time>2022-03-08T15:28:11Z</time>
      </trkpt>
      <trkpt lat="43.56884" lon="2.01899">
        <ele>335</ele>
        <time>2022-03-08T15:28:12Z</time>
      </trkpt>
      <trkpt lat="43.56885" lon="2.01898">
        <ele>335.1</ele>
        <time>2022-03-08T15:28:14Z</time>
      </trkpt>
      <trkpt lat="43.56888" lon="2.01897">
        <ele>335.3</ele>
        <time>2022-03-08T15:28:15Z</time>
      </trkpt>
      <trkpt lat="43.56889" lon="2.01896">
        <ele>335.4</ele>
        <time>2022-03-08T15:28:16Z</time>
      </trkpt>
      <trkpt lat="43.56889" lon="2.01895">
        <ele>335.4</ele>
        <time>2022-03-08T15:28:17Z</time>
      </trkpt>
      <trkpt lat="43.56891" lon="2.01894">
        <ele>335.6</ele>
        <time>2022-03-08T15:28:18Z</time>
      </trkpt>
      <trkpt lat="43.56892" lon="2.01893">
        <ele>335.7</ele>
        <time>2022-03-08T15:28:20Z</time>
      </trkpt>
      <trkpt lat="43.56893" lon="2.01893">
        <ele>335.7</ele>
        <time>2022-03-08T15:28:21Z</time>
      </trkpt>
      <trkpt lat="43.56894" lon="2.01892">
        <ele>335.8</ele>
        <time>2022-03-08T15:28:22Z</time>
      </trkpt>
      <trkpt lat="43.56895" lon="2.01892">
        <ele>335.9</ele>
        <time>2022-03-08T15:28:23Z</time>
      </trkpt>
      <trkpt lat="43.56895" lon="2.01891">
        <ele>335.9</ele>
        <time>2022-03-08T15:28:24Z</time>
      </trkpt>
      <trkpt lat="43.56896" lon="2.01891">
        <ele>336</ele>
        <time>2022-03-08T15:28:25Z</time>
      </trkpt>
      <trkpt lat="43.56897" lon="2.0189">
        <ele>336</ele>
        <time>2022-03-08T15:28:26Z</time>
      </trkpt>
      <trkpt lat="43.56898" lon="2.0189">
        <ele>336.1</ele>
        <time>2022-03-08T15:28:27Z</time>
      </trkpt>
      <trkpt lat="43.56899" lon="2.01889">
        <ele>336.2</ele>
        <time>2022-03-08T15:28:28Z</time>
      </trkpt>
      <trkpt lat="43.569" lon="2.01889">
        <ele>336.3</ele>
        <time>2022-03-08T15:28:30Z</time>
      </trkpt>
      <trkpt lat="43.56901" lon="2.01887">
        <ele>336.4</ele>
        <time>2022-03-08T15:28:31Z</time>
      </trkpt>
      <trkpt lat="43.56902" lon="2.01884">
        <ele>336.5</ele>
        <time>2022-03-08T15:28:32Z</time>
      </trkpt>
      <trkpt lat="43.56903" lon="2.01882">
        <ele>336.7</ele>
        <time>2022-03-08T15:28:34Z</time>
      </trkpt>
      <trkpt lat="43.56905" lon="2.01879">
        <ele>336.9</ele>
        <time>2022-03-08T15:28:35Z</time>
      </trkpt>
      <trkpt lat="43.56905" lon="2.01878">
        <ele>337</ele>
        <time>2022-03-08T15:28:36Z</time>
      </trkpt>
      <trkpt lat="43.56906" lon="2.01876">
        <ele>337.1</ele>
        <time>2022-03-08T15:28:37Z</time>
      </trkpt>
      <trkpt lat="43.56907" lon="2.01875">
        <ele>337.2</ele>
        <time>2022-03-08T15:28:39Z</time>
      </trkpt>
      <trkpt lat="43.56908" lon="2.01874">
        <ele>337.3</ele>
        <time>2022-03-08T15:28:40Z</time>
      </trkpt>
      <trkpt lat="43.56909" lon="2.01872">
        <ele>337.4</ele>
        <time>2022-03-08T15:28:41Z</time>
      </trkpt>
      <trkpt lat="43.5691" lon="2.01869">
        <ele>337.5</ele>
        <time>2022-03-08T15:28:42Z</time>
      </trkpt>
      <trkpt lat="43.56911" lon="2.01868">
        <ele>337.6</ele>
        <time>2022-03-08T15:28:44Z</time>
      </trkpt>
      <trkpt lat="43.56911" lon="2.01867">
        <ele>337.7</ele>
        <time>2022-03-08T15:28:45Z</time>
      </trkpt>
      <trkpt lat="43.56911" lon="2.01865">
        <ele>337.8</ele>
        <time>2022-03-08T15:28:46Z</time>
      </trkpt>
      <trkpt lat="43.56912" lon="2.01863">
        <ele>337.9</ele>
        <time>2022-03-08T15:28:48Z</time>
      </trkpt>
      <trkpt lat="43.56912" lon="2.01862">
        <ele>338</ele>
        <time>2022-03-08T15:28:49Z</time>
      </trkpt>
      <trkpt lat="43.56913" lon="2.01859">
        <ele>338.1</ele>
        <time>2022-03-08T15:28:50Z</time>
      </trkpt>
      <trkpt lat="43.56914" lon="2.01857">
        <ele>338.2</ele>
        <time>2022-03-08T15:28:51Z</time>
      </trkpt>
      <trkpt lat="43.56914" lon="2.01856">
        <ele>338.3</ele>
        <time>2022-03-08T15:28:52Z</time>
      </trkpt>
      <trkpt lat="43.56915" lon="2.01855">
        <ele>338.3</ele>
        <time>2022-03-08T15:28:53Z</time>
      </trkpt>
      <trkpt lat="43.56916" lon="2.01853">
        <ele>338.4</ele>
        <time>2022-03-08T15:28:55Z</time>
      </trkpt>
      <trkpt lat="43.56917" lon="2.01851">
        <ele>338.5</ele>
        <time>2022-03-08T15:28:56Z</time>
      </trkpt>
      <trkpt lat="43.56918" lon="2.01849">
        <ele>338.6</ele>
        <time>2022-03-08T15:28:58Z</time>
      </trkpt>
      <trkpt lat="43.56919" lon="2.01848">
        <ele>338.7</ele>
        <time>2022-03-08T15:28:59Z</time>
      </trkpt>
      <trkpt lat="43.5692" lon="2.01847">
        <ele>338.7</ele>
        <time>2022-03-08T15:29:01Z</time>
      </trkpt>
      <trkpt lat="43.56921" lon="2.01845">
        <ele>338.8</ele>
        <time>2022-03-08T15:29:02Z</time>
      </trkpt>
      <trkpt lat="43.56921" lon="2.01844">
        <ele>338.8</ele>
        <time>2022-03-08T15:29:03Z</time>
      </trkpt>
      <trkpt lat="43.56922" lon="2.01843">
        <ele>338.8</ele>
        <time>2022-03-08T15:29:04Z</time>
      </trkpt>
      <trkpt lat="43.56923" lon="2.01842">
        <ele>338.9</ele>
        <time>2022-03-08T15:29:05Z</time>
      </trkpt>
      <trkpt lat="43.56924" lon="2.01841">
        <ele>338.9</ele>
        <time>2022-03-08T15:29:06Z</time>
      </trkpt>
      <trkpt lat="43.56924" lon="2.0184">
        <ele>338.9</ele>
        <time>2022-03-08T15:29:07Z</time>
      </trkpt>
      <trkpt lat="43.56925" lon="2.01839">
        <ele>339</ele>
        <time>2022-03-08T15:29:08Z</time>
      </trkpt>
      <trkpt lat="43.56926" lon="2.01838">
        <ele>339</ele>
        <time>2022-03-08T15:29:09Z</time>
      </trkpt>
      <trkpt lat="43.56927" lon="2.01837">
        <ele>339</ele>
        <time>2022-03-08T15:29:11Z</time>
      </trkpt>
      <trkpt lat="43.56928" lon="2.01835">
        <ele>339.1</ele>
        <time>2022-03-08T15:29:12Z</time>
      </trkpt>
      <trkpt lat="43.56928" lon="2.01834">
        <ele>339.1</ele>
        <time>2022-03-08T15:29:13Z</time>
      </trkpt>
      <trkpt lat="43.56929" lon="2.01833">
        <ele>339.1</ele>
        <time>2022-03-08T15:29:14Z</time>
      </trkpt>
      <trkpt lat="43.5693" lon="2.01831">
        <ele>339.1</ele>
        <time>2022-03-08T15:29:15Z</time>
      </trkpt>
      <trkpt lat="43.5693" lon="2.0183">
        <ele>339.2</ele>
        <time>2022-03-08T15:29:16Z</time>
      </trkpt>
      <trkpt lat="43.56931" lon="2.01829">
        <ele>339.2</ele>
        <time>2022-03-08T15:29:17Z</time>
      </trkpt>
      <trkpt lat="43.56931" lon="2.01828">
        <ele>339.2</ele>
        <time>2022-03-08T15:29:18Z</time>
      </trkpt>
      <trkpt lat="43.56931" lon="2.01827">
        <ele>339.2</ele>
        <time>2022-03-08T15:29:19Z</time>
      </trkpt>
      <trkpt lat="43.56932" lon="2.01825">
        <ele>339.2</ele>
        <time>2022-03-08T15:29:20Z</time>
      </trkpt>
      <trkpt lat="43.56932" lon="2.01824">
        <ele>339.2</ele>
        <time>2022-03-08T15:29:21Z</time>
      </trkpt>
      <trkpt lat="43.56932" lon="2.01822">
        <ele>339.3</ele>
        <time>2022-03-08T15:29:22Z</time>
      </trkpt>
      <trkpt lat="43.56932" lon="2.01821">
        <ele>339.3</ele>
        <time>2022-03-08T15:29:23Z</time>
      </trkpt>
      <trkpt lat="43.56932" lon="2.0182">
        <ele>339.3</ele>
        <time>2022-03-08T15:29:24Z</time>
      </trkpt>
      <trkpt lat="43.56933" lon="2.01819">
        <ele>339.3</ele>
        <time>2022-03-08T15:29:26Z</time>
      </trkpt>
      <trkpt lat="43.56933" lon="2.01816">
        <ele>339.3</ele>
        <time>2022-03-08T15:29:27Z</time>
      </trkpt>
      <trkpt lat="43.56934" lon="2.01815">
        <ele>339.3</ele>
        <time>2022-03-08T15:29:28Z</time>
      </trkpt>
      <trkpt lat="43.56934" lon="2.01814">
        <ele>339.3</ele>
        <time>2022-03-08T15:29:29Z</time>
      </trkpt>
      <trkpt lat="43.56934" lon="2.01812">
        <ele>339.3</ele>
        <time>2022-03-08T15:29:31Z</time>
      </trkpt>
      <trkpt lat="43.56935" lon="2.01811">
        <ele>339.4</ele>
        <time>2022-03-08T15:29:32Z</time>
      </trkpt>
      <trkpt lat="43.56936" lon="2.01809">
        <ele>339.4</ele>
        <time>2022-03-08T15:29:33Z</time>
      </trkpt>
      <trkpt lat="43.56937" lon="2.01808">
        <ele>339.4</ele>
        <time>2022-03-08T15:29:34Z</time>
      </trkpt>
      <trkpt lat="43.56937" lon="2.01807">
        <ele>339.4</ele>
        <time>2022-03-08T15:29:35Z</time>
      </trkpt>
      <trkpt lat="43.56938" lon="2.01805">
        <ele>339.4</ele>
        <time>2022-03-08T15:29:37Z</time>
      </trkpt>
      <trkpt lat="43.56939" lon="2.01804">
        <ele>339.4</ele>
        <time>2022-03-08T15:29:38Z</time>
      </trkpt>
      <trkpt lat="43.56939" lon="2.01804">
        <ele>339.4</ele>
        <time>2022-03-08T15:29:39Z</time>
      </trkpt>
      <trkpt lat="43.56939" lon="2.01802">
        <ele>339.4</ele>
        <time>2022-03-08T15:29:40Z</time>
      </trkpt>
      <trkpt lat="43.5694" lon="2.01801">
        <ele>339.4</ele>
        <time>2022-03-08T15:29:41Z</time>
      </trkpt>
      <trkpt lat="43.56941" lon="2.018">
        <ele>339.4</ele>
        <time>2022-03-08T15:29:42Z</time>
      </trkpt>
      <trkpt lat="43.56942" lon="2.01799">
        <ele>339.4</ele>
        <time>2022-03-08T15:29:43Z</time>
      </trkpt>
      <trkpt lat="43.56943" lon="2.01797">
        <ele>339.4</ele>
        <time>2022-03-08T15:29:44Z</time>
      </trkpt>
      <trkpt lat="43.56945" lon="2.01795">
        <ele>339.4</ele>
        <time>2022-03-08T15:29:45Z</time>
      </trkpt>
      <trkpt lat="43.56945" lon="2.01794">
        <ele>339.4</ele>
        <time>2022-03-08T15:29:46Z</time>
      </trkpt>
      <trkpt lat="43.56946" lon="2.01793">
        <ele>339.4</ele>
        <time>2022-03-08T15:29:47Z</time>
      </trkpt>
      <trkpt lat="43.56946" lon="2.01792">
        <ele>339.5</ele>
        <time>2022-03-08T15:29:48Z</time>
      </trkpt>
      <trkpt lat="43.56947" lon="2.01791">
        <ele>339.5</ele>
        <time>2022-03-08T15:29:49Z</time>
      </trkpt>
      <trkpt lat="43.56949" lon="2.01788">
        <ele>339.5</ele>
        <time>2022-03-08T15:29:51Z</time>
      </trkpt>
      <trkpt lat="43.5695" lon="2.01787">
        <ele>339.5</ele>
        <time>2022-03-08T15:29:52Z</time>
      </trkpt>
      <trkpt lat="43.5695" lon="2.01786">
        <ele>339.5</ele>
        <time>2022-03-08T15:29:53Z</time>
      </trkpt>
      <trkpt lat="43.5695" lon="2.01785">
        <ele>339.5</ele>
        <time>2022-03-08T15:29:54Z</time>
      </trkpt>
      <trkpt lat="43.56951" lon="2.01783">
        <ele>339.6</ele>
        <time>2022-03-08T15:29:55Z</time>
      </trkpt>
      <trkpt lat="43.56952" lon="2.01781">
        <ele>339.6</ele>
        <time>2022-03-08T15:29:56Z</time>
      </trkpt>
      <trkpt lat="43.56952" lon="2.0178">
        <ele>339.6</ele>
        <time>2022-03-08T15:29:58Z</time>
      </trkpt>
      <trkpt lat="43.56954" lon="2.01777">
        <ele>339.7</ele>
        <time>2022-03-08T15:30:00Z</time>
      </trkpt>
      <trkpt lat="43.56954" lon="2.01776">
        <ele>339.7</ele>
        <time>2022-03-08T15:30:01Z</time>
      </trkpt>
      <trkpt lat="43.56955" lon="2.01774">
        <ele>339.8</ele>
        <time>2022-03-08T15:30:02Z</time>
      </trkpt>
      <trkpt lat="43.56956" lon="2.01772">
        <ele>339.8</ele>
        <time>2022-03-08T15:30:03Z</time>
      </trkpt>
      <trkpt lat="43.56957" lon="2.01771">
        <ele>339.8</ele>
        <time>2022-03-08T15:30:05Z</time>
      </trkpt>
      <trkpt lat="43.56957" lon="2.0177">
        <ele>339.8</ele>
        <time>2022-03-08T15:30:06Z</time>
      </trkpt>
      <trkpt lat="43.56958" lon="2.01768">
        <ele>339.9</ele>
        <time>2022-03-08T15:30:07Z</time>
      </trkpt>
      <trkpt lat="43.56959" lon="2.01767">
        <ele>339.9</ele>
        <time>2022-03-08T15:30:08Z</time>
      </trkpt>
      <trkpt lat="43.5696" lon="2.01766">
        <ele>339.9</ele>
        <time>2022-03-08T15:30:09Z</time>
      </trkpt>
      <trkpt lat="43.5696" lon="2.01765">
        <ele>339.9</ele>
        <time>2022-03-08T15:30:10Z</time>
      </trkpt>
      <trkpt lat="43.5696" lon="2.01765">
        <ele>339.9</ele>
        <time>2022-03-08T15:30:11Z</time>
      </trkpt>
      <trkpt lat="43.5696" lon="2.01764">
        <ele>339.9</ele>
        <time>2022-03-08T15:30:12Z</time>
      </trkpt>
      <trkpt lat="43.56961" lon="2.01764">
        <ele>339.9</ele>
        <time>2022-03-08T15:30:13Z</time>
      </trkpt>
      <trkpt lat="43.56962" lon="2.01762">
        <ele>340</ele>
        <time>2022-03-08T15:30:15Z</time>
      </trkpt>
      <trkpt lat="43.56964" lon="2.0176">
        <ele>340</ele>
        <time>2022-03-08T15:30:16Z</time>
      </trkpt>
      <trkpt lat="43.56964" lon="2.01759">
        <ele>340</ele>
        <time>2022-03-08T15:30:17Z</time>
      </trkpt>
      <trkpt lat="43.56965" lon="2.01758">
        <ele>340</ele>
        <time>2022-03-08T15:30:18Z</time>
      </trkpt>
      <trkpt lat="43.56966" lon="2.01758">
        <ele>340.1</ele>
        <time>2022-03-08T15:30:19Z</time>
      </trkpt>
      <trkpt lat="43.56967" lon="2.01757">
        <ele>340.1</ele>
        <time>2022-03-08T15:30:20Z</time>
      </trkpt>
      <trkpt lat="43.56968" lon="2.01756">
        <ele>340.1</ele>
        <time>2022-03-08T15:30:21Z</time>
      </trkpt>
      <trkpt lat="43.56969" lon="2.01754">
        <ele>340.1</ele>
        <time>2022-03-08T15:30:22Z</time>
      </trkpt>
      <trkpt lat="43.5697" lon="2.01753">
        <ele>340.1</ele>
        <time>2022-03-08T15:30:23Z</time>
      </trkpt>
      <trkpt lat="43.56971" lon="2.01752">
        <ele>340.2</ele>
        <time>2022-03-08T15:30:24Z</time>
      </trkpt>
      <trkpt lat="43.56972" lon="2.01751">
        <ele>340.2</ele>
        <time>2022-03-08T15:30:26Z</time>
      </trkpt>
      <trkpt lat="43.56973" lon="2.01749">
        <ele>340.2</ele>
        <time>2022-03-08T15:30:27Z</time>
      </trkpt>
      <trkpt lat="43.56975" lon="2.01748">
        <ele>340.2</ele>
        <time>2022-03-08T15:30:28Z</time>
      </trkpt>
      <trkpt lat="43.56975" lon="2.01748">
        <ele>340.3</ele>
        <time>2022-03-08T15:30:29Z</time>
      </trkpt>
      <trkpt lat="43.56976" lon="2.01747">
        <ele>340.3</ele>
        <time>2022-03-08T15:30:30Z</time>
      </trkpt>
      <trkpt lat="43.56977" lon="2.01747">
        <ele>340.3</ele>
        <time>2022-03-08T15:30:31Z</time>
      </trkpt>
      <trkpt lat="43.56979" lon="2.01746">
        <ele>340.3</ele>
        <time>2022-03-08T15:30:33Z</time>
      </trkpt>
      <trkpt lat="43.56979" lon="2.01745">
        <ele>340.3</ele>
        <time>2022-03-08T15:30:34Z</time>
      </trkpt>
      <trkpt lat="43.56979" lon="2.01744">
        <ele>340.3</ele>
        <time>2022-03-08T15:30:36Z</time>
      </trkpt>
      <trkpt lat="43.5698" lon="2.01744">
        <ele>340.3</ele>
        <time>2022-03-08T15:30:37Z</time>
      </trkpt>
      <trkpt lat="43.5698" lon="2.01744">
        <ele>340.3</ele>
        <time>2022-03-08T15:30:38Z</time>
      </trkpt>
      <trkpt lat="43.5698" lon="2.01743">
        <ele>340.3</ele>
        <time>2022-03-08T15:30:39Z</time>
      </trkpt>
      <trkpt lat="43.56981" lon="2.01743">
        <ele>340.3</ele>
        <time>2022-03-08T15:30:40Z</time>
      </trkpt>
      <trkpt lat="43.56981" lon="2.01743">
        <ele>340.4</ele>
        <time>2022-03-08T15:30:41Z</time>
      </trkpt>
      <trkpt lat="43.56981" lon="2.01742">
        <ele>340.4</ele>
        <time>2022-03-08T15:30:43Z</time>
      </trkpt>
      <trkpt lat="43.56982" lon="2.01742">
        <ele>340.4</ele>
        <time>2022-03-08T15:30:44Z</time>
      </trkpt>
      <trkpt lat="43.56983" lon="2.0174">
        <ele>340.4</ele>
        <time>2022-03-08T15:30:45Z</time>
      </trkpt>
      <trkpt lat="43.56985" lon="2.01738">
        <ele>340.4</ele>
        <time>2022-03-08T15:30:46Z</time>
      </trkpt>
      <trkpt lat="43.56986" lon="2.01736">
        <ele>340.5</ele>
        <time>2022-03-08T15:30:47Z</time>
      </trkpt>
      <trkpt lat="43.56988" lon="2.01735">
        <ele>340.5</ele>
        <time>2022-03-08T15:30:48Z</time>
      </trkpt>
      <trkpt lat="43.56989" lon="2.01734">
        <ele>340.5</ele>
        <time>2022-03-08T15:30:49Z</time>
      </trkpt>
      <trkpt lat="43.56991" lon="2.01733">
        <ele>340.5</ele>
        <time>2022-03-08T15:30:51Z</time>
      </trkpt>
      <trkpt lat="43.56992" lon="2.01731">
        <ele>340.6</ele>
        <time>2022-03-08T15:30:52Z</time>
      </trkpt>
      <trkpt lat="43.56993" lon="2.0173">
        <ele>340.6</ele>
        <time>2022-03-08T15:30:53Z</time>
      </trkpt>
      <trkpt lat="43.56994" lon="2.01729">
        <ele>340.6</ele>
        <time>2022-03-08T15:30:54Z</time>
      </trkpt>
      <trkpt lat="43.56994" lon="2.01728">
        <ele>340.6</ele>
        <time>2022-03-08T15:30:55Z</time>
      </trkpt>
      <trkpt lat="43.56995" lon="2.01726">
        <ele>340.6</ele>
        <time>2022-03-08T15:30:56Z</time>
      </trkpt>
      <trkpt lat="43.56996" lon="2.01725">
        <ele>340.6</ele>
        <time>2022-03-08T15:30:57Z</time>
      </trkpt>
      <trkpt lat="43.56996" lon="2.01724">
        <ele>340.7</ele>
        <time>2022-03-08T15:30:58Z</time>
      </trkpt>
      <trkpt lat="43.56997" lon="2.01722">
        <ele>340.7</ele>
        <time>2022-03-08T15:30:59Z</time>
      </trkpt>
      <trkpt lat="43.56998" lon="2.01721">
        <ele>340.7</ele>
        <time>2022-03-08T15:31:00Z</time>
      </trkpt>
      <trkpt lat="43.56999" lon="2.0172">
        <ele>340.7</ele>
        <time>2022-03-08T15:31:01Z</time>
      </trkpt>
      <trkpt lat="43.56999" lon="2.01719">
        <ele>340.7</ele>
        <time>2022-03-08T15:31:02Z</time>
      </trkpt>
      <trkpt lat="43.57" lon="2.01717">
        <ele>340.7</ele>
        <time>2022-03-08T15:31:03Z</time>
      </trkpt>
      <trkpt lat="43.57001" lon="2.01716">
        <ele>340.7</ele>
        <time>2022-03-08T15:31:04Z</time>
      </trkpt>
      <trkpt lat="43.57002" lon="2.01715">
        <ele>340.7</ele>
        <time>2022-03-08T15:31:05Z</time>
      </trkpt>
      <trkpt lat="43.57002" lon="2.01715">
        <ele>340.7</ele>
        <time>2022-03-08T15:31:06Z</time>
      </trkpt>
      <trkpt lat="43.57002" lon="2.01715">
        <ele>340.7</ele>
        <time>2022-03-08T15:31:07Z</time>
      </trkpt>
      <trkpt lat="43.57004" lon="2.01712">
        <ele>340.7</ele>
        <time>2022-03-08T15:31:08Z</time>
      </trkpt>
      <trkpt lat="43.57004" lon="2.01711">
        <ele>340.7</ele>
        <time>2022-03-08T15:31:09Z</time>
      </trkpt>
      <trkpt lat="43.57005" lon="2.0171">
        <ele>340.7</ele>
        <time>2022-03-08T15:31:11Z</time>
      </trkpt>
      <trkpt lat="43.57006" lon="2.01709">
        <ele>340.7</ele>
        <time>2022-03-08T15:31:12Z</time>
      </trkpt>
      <trkpt lat="43.57006" lon="2.01708">
        <ele>340.8</ele>
        <time>2022-03-08T15:31:13Z</time>
      </trkpt>
      <trkpt lat="43.57007" lon="2.01707">
        <ele>340.8</ele>
        <time>2022-03-08T15:31:14Z</time>
      </trkpt>
      <trkpt lat="43.57009" lon="2.01705">
        <ele>340.8</ele>
        <time>2022-03-08T15:31:15Z</time>
      </trkpt>
      <trkpt lat="43.57009" lon="2.01704">
        <ele>340.8</ele>
        <time>2022-03-08T15:31:16Z</time>
      </trkpt>
      <trkpt lat="43.5701" lon="2.01703">
        <ele>340.9</ele>
        <time>2022-03-08T15:31:17Z</time>
      </trkpt>
      <trkpt lat="43.57011" lon="2.01702">
        <ele>340.9</ele>
        <time>2022-03-08T15:31:18Z</time>
      </trkpt>
      <trkpt lat="43.57012" lon="2.01701">
        <ele>340.9</ele>
        <time>2022-03-08T15:31:19Z</time>
      </trkpt>
      <trkpt lat="43.57013" lon="2.017">
        <ele>340.9</ele>
        <time>2022-03-08T15:31:20Z</time>
      </trkpt>
      <trkpt lat="43.57013" lon="2.01699">
        <ele>340.9</ele>
        <time>2022-03-08T15:31:21Z</time>
      </trkpt>
      <trkpt lat="43.57014" lon="2.01698">
        <ele>341</ele>
        <time>2022-03-08T15:31:22Z</time>
      </trkpt>
      <trkpt lat="43.57015" lon="2.01696">
        <ele>341</ele>
        <time>2022-03-08T15:31:23Z</time>
      </trkpt>
      <trkpt lat="43.57016" lon="2.01694">
        <ele>341.1</ele>
        <time>2022-03-08T15:31:24Z</time>
      </trkpt>
      <trkpt lat="43.57016" lon="2.01693">
        <ele>341.1</ele>
        <time>2022-03-08T15:31:26Z</time>
      </trkpt>
      <trkpt lat="43.57017" lon="2.01692">
        <ele>341.1</ele>
        <time>2022-03-08T15:31:27Z</time>
      </trkpt>
      <trkpt lat="43.57018" lon="2.0169">
        <ele>341.1</ele>
        <time>2022-03-08T15:31:28Z</time>
      </trkpt>
      <trkpt lat="43.57019" lon="2.01688">
        <ele>341.2</ele>
        <time>2022-03-08T15:31:29Z</time>
      </trkpt>
      <trkpt lat="43.5702" lon="2.01686">
        <ele>341.2</ele>
        <time>2022-03-08T15:31:30Z</time>
      </trkpt>
      <trkpt lat="43.5702" lon="2.01685">
        <ele>341.2</ele>
        <time>2022-03-08T15:31:31Z</time>
      </trkpt>
      <trkpt lat="43.57021" lon="2.01685">
        <ele>341.3</ele>
        <time>2022-03-08T15:31:32Z</time>
      </trkpt>
      <trkpt lat="43.57024" lon="2.01683">
        <ele>341.3</ele>
        <time>2022-03-08T15:31:33Z</time>
      </trkpt>
      <trkpt lat="43.57025" lon="2.01683">
        <ele>341.4</ele>
        <time>2022-03-08T15:31:34Z</time>
      </trkpt>
      <trkpt lat="43.57026" lon="2.01682">
        <ele>341.4</ele>
        <time>2022-03-08T15:31:35Z</time>
      </trkpt>
      <trkpt lat="43.57027" lon="2.01681">
        <ele>341.4</ele>
        <time>2022-03-08T15:31:36Z</time>
      </trkpt>
      <trkpt lat="43.57028" lon="2.0168">
        <ele>341.4</ele>
        <time>2022-03-08T15:31:38Z</time>
      </trkpt>
      <trkpt lat="43.57029" lon="2.01679">
        <ele>341.5</ele>
        <time>2022-03-08T15:31:39Z</time>
      </trkpt>
      <trkpt lat="43.57029" lon="2.01678">
        <ele>341.5</ele>
        <time>2022-03-08T15:31:40Z</time>
      </trkpt>
      <trkpt lat="43.5703" lon="2.01677">
        <ele>341.5</ele>
        <time>2022-03-08T15:31:41Z</time>
      </trkpt>
      <trkpt lat="43.57031" lon="2.01676">
        <ele>341.5</ele>
        <time>2022-03-08T15:31:42Z</time>
      </trkpt>
      <trkpt lat="43.57031" lon="2.01675">
        <ele>341.5</ele>
        <time>2022-03-08T15:31:43Z</time>
      </trkpt>
      <trkpt lat="43.57032" lon="2.01674">
        <ele>341.6</ele>
        <time>2022-03-08T15:31:44Z</time>
      </trkpt>
      <trkpt lat="43.57033" lon="2.01673">
        <ele>341.6</ele>
        <time>2022-03-08T15:31:46Z</time>
      </trkpt>
      <trkpt lat="43.57034" lon="2.01672">
        <ele>341.6</ele>
        <time>2022-03-08T15:31:47Z</time>
      </trkpt>
      <trkpt lat="43.57035" lon="2.01671">
        <ele>341.6</ele>
        <time>2022-03-08T15:31:48Z</time>
      </trkpt>
      <trkpt lat="43.57036" lon="2.01669">
        <ele>341.7</ele>
        <time>2022-03-08T15:31:49Z</time>
      </trkpt>
      <trkpt lat="43.57037" lon="2.01667">
        <ele>341.7</ele>
        <time>2022-03-08T15:31:50Z</time>
      </trkpt>
      <trkpt lat="43.57037" lon="2.01664">
        <ele>341.7</ele>
        <time>2022-03-08T15:31:52Z</time>
      </trkpt>
      <trkpt lat="43.57038" lon="2.01663">
        <ele>341.7</ele>
        <time>2022-03-08T15:31:53Z</time>
      </trkpt>
      <trkpt lat="43.57039" lon="2.01661">
        <ele>341.7</ele>
        <time>2022-03-08T15:31:54Z</time>
      </trkpt>
      <trkpt lat="43.5704" lon="2.0166">
        <ele>341.7</ele>
        <time>2022-03-08T15:31:56Z</time>
      </trkpt>
      <trkpt lat="43.57042" lon="2.01658">
        <ele>341.8</ele>
        <time>2022-03-08T15:31:57Z</time>
      </trkpt>
      <trkpt lat="43.57042" lon="2.01657">
        <ele>341.8</ele>
        <time>2022-03-08T15:31:58Z</time>
      </trkpt>
      <trkpt lat="43.57043" lon="2.01657">
        <ele>341.8</ele>
        <time>2022-03-08T15:31:59Z</time>
      </trkpt>
      <trkpt lat="43.57044" lon="2.01656">
        <ele>341.8</ele>
        <time>2022-03-08T15:32:00Z</time>
      </trkpt>
      <trkpt lat="43.57045" lon="2.01655">
        <ele>341.7</ele>
        <time>2022-03-08T15:32:01Z</time>
      </trkpt>
      <trkpt lat="43.57046" lon="2.01654">
        <ele>341.7</ele>
        <time>2022-03-08T15:32:02Z</time>
      </trkpt>
      <trkpt lat="43.57047" lon="2.01653">
        <ele>341.7</ele>
        <time>2022-03-08T15:32:04Z</time>
      </trkpt>
      <trkpt lat="43.57048" lon="2.01653">
        <ele>342</ele>
        <time>2022-03-08T15:32:05Z</time>
      </trkpt>
      <trkpt lat="43.57049" lon="2.01653">
        <ele>342</ele>
        <time>2022-03-08T15:32:06Z</time>
      </trkpt>
      <trkpt lat="43.5705" lon="2.01652">
        <ele>342.1</ele>
        <time>2022-03-08T15:32:07Z</time>
      </trkpt>
      <trkpt lat="43.57051" lon="2.01652">
        <ele>342.1</ele>
        <time>2022-03-08T15:32:08Z</time>
      </trkpt>
      <trkpt lat="43.57051" lon="2.01651">
        <ele>342.1</ele>
        <time>2022-03-08T15:32:09Z</time>
      </trkpt>
      <trkpt lat="43.57052" lon="2.01651">
        <ele>342.1</ele>
        <time>2022-03-08T15:32:10Z</time>
      </trkpt>
      <trkpt lat="43.57053" lon="2.0165">
        <ele>342.2</ele>
        <time>2022-03-08T15:32:11Z</time>
      </trkpt>
      <trkpt lat="43.57053" lon="2.0165">
        <ele>342.2</ele>
        <time>2022-03-08T15:32:12Z</time>
      </trkpt>
      <trkpt lat="43.57054" lon="2.01649">
        <ele>342.2</ele>
        <time>2022-03-08T15:32:14Z</time>
      </trkpt>
      <trkpt lat="43.57055" lon="2.01649">
        <ele>342.3</ele>
        <time>2022-03-08T15:32:15Z</time>
      </trkpt>
      <trkpt lat="43.57056" lon="2.01649">
        <ele>342.3</ele>
        <time>2022-03-08T15:32:16Z</time>
      </trkpt>
      <trkpt lat="43.57056" lon="2.01649">
        <ele>342.3</ele>
        <time>2022-03-08T15:32:17Z</time>
      </trkpt>
      <trkpt lat="43.57057" lon="2.01649">
        <ele>342.3</ele>
        <time>2022-03-08T15:32:18Z</time>
      </trkpt>
      <trkpt lat="43.57058" lon="2.01648">
        <ele>342.4</ele>
        <time>2022-03-08T15:32:19Z</time>
      </trkpt>
      <trkpt lat="43.57059" lon="2.01648">
        <ele>342.4</ele>
        <time>2022-03-08T15:32:20Z</time>
      </trkpt>
      <trkpt lat="43.5706" lon="2.01647">
        <ele>342.4</ele>
        <time>2022-03-08T15:32:21Z</time>
      </trkpt>
      <trkpt lat="43.57061" lon="2.01647">
        <ele>342.5</ele>
        <time>2022-03-08T15:32:23Z</time>
      </trkpt>
      <trkpt lat="43.57062" lon="2.01646">
        <ele>342.5</ele>
        <time>2022-03-08T15:32:24Z</time>
      </trkpt>
      <trkpt lat="43.57063" lon="2.01646">
        <ele>342.5</ele>
        <time>2022-03-08T15:32:25Z</time>
      </trkpt>
      <trkpt lat="43.57064" lon="2.01645">
        <ele>342.5</ele>
        <time>2022-03-08T15:32:26Z</time>
      </trkpt>
      <trkpt lat="43.57065" lon="2.01645">
        <ele>342.6</ele>
        <time>2022-03-08T15:32:27Z</time>
      </trkpt>
      <trkpt lat="43.57066" lon="2.01644">
        <ele>342.6</ele>
        <time>2022-03-08T15:32:28Z</time>
      </trkpt>
      <trkpt lat="43.57067" lon="2.01644">
        <ele>342.6</ele>
        <time>2022-03-08T15:32:29Z</time>
      </trkpt>
      <trkpt lat="43.57067" lon="2.01643">
        <ele>342.6</ele>
        <time>2022-03-08T15:32:30Z</time>
      </trkpt>
      <trkpt lat="43.57068" lon="2.01643">
        <ele>342.5</ele>
        <time>2022-03-08T15:32:31Z</time>
      </trkpt>
      <trkpt lat="43.57069" lon="2.01642">
        <ele>342.5</ele>
        <time>2022-03-08T15:32:32Z</time>
      </trkpt>
      <trkpt lat="43.5707" lon="2.01642">
        <ele>342.5</ele>
        <time>2022-03-08T15:32:33Z</time>
      </trkpt>
      <trkpt lat="43.5707" lon="2.01641">
        <ele>342.5</ele>
        <time>2022-03-08T15:32:34Z</time>
      </trkpt>
      <trkpt lat="43.57071" lon="2.01641">
        <ele>342.5</ele>
        <time>2022-03-08T15:32:35Z</time>
      </trkpt>
      <trkpt lat="43.57072" lon="2.0164">
        <ele>342.4</ele>
        <time>2022-03-08T15:32:36Z</time>
      </trkpt>
      <trkpt lat="43.57073" lon="2.01638">
        <ele>342.4</ele>
        <time>2022-03-08T15:32:38Z</time>
      </trkpt>
      <trkpt lat="43.57074" lon="2.01637">
        <ele>342.4</ele>
        <time>2022-03-08T15:32:39Z</time>
      </trkpt>
      <trkpt lat="43.57075" lon="2.01635">
        <ele>342.3</ele>
        <time>2022-03-08T15:32:40Z</time>
      </trkpt>
      <trkpt lat="43.57076" lon="2.01635">
        <ele>342.3</ele>
        <time>2022-03-08T15:32:41Z</time>
      </trkpt>
      <trkpt lat="43.57077" lon="2.01634">
        <ele>342.3</ele>
        <time>2022-03-08T15:32:42Z</time>
      </trkpt>
      <trkpt lat="43.57078" lon="2.01634">
        <ele>342.3</ele>
        <time>2022-03-08T15:32:43Z</time>
      </trkpt>
      <trkpt lat="43.57079" lon="2.01634">
        <ele>342.3</ele>
        <time>2022-03-08T15:32:44Z</time>
      </trkpt>
      <trkpt lat="43.57079" lon="2.01634">
        <ele>342.3</ele>
        <time>2022-03-08T15:32:45Z</time>
      </trkpt>
      <trkpt lat="43.5708" lon="2.01634">
        <ele>342.3</ele>
        <time>2022-03-08T15:32:46Z</time>
      </trkpt>
      <trkpt lat="43.5708" lon="2.01634">
        <ele>342.3</ele>
        <time>2022-03-08T15:32:48Z</time>
      </trkpt>
      <trkpt lat="43.5708" lon="2.01633">
        <ele>342.2</ele>
        <time>2022-03-08T15:32:49Z</time>
      </trkpt>
      <trkpt lat="43.57081" lon="2.01632">
        <ele>342.2</ele>
        <time>2022-03-08T15:32:50Z</time>
      </trkpt>
      <trkpt lat="43.57082" lon="2.01631">
        <ele>342.2</ele>
        <time>2022-03-08T15:32:51Z</time>
      </trkpt>
      <trkpt lat="43.57083" lon="2.01629">
        <ele>342.2</ele>
        <time>2022-03-08T15:32:53Z</time>
      </trkpt>
      <trkpt lat="43.57084" lon="2.01628">
        <ele>342.2</ele>
        <time>2022-03-08T15:32:54Z</time>
      </trkpt>
      <trkpt lat="43.57084" lon="2.01627">
        <ele>342.2</ele>
        <time>2022-03-08T15:32:55Z</time>
      </trkpt>
      <trkpt lat="43.57085" lon="2.01626">
        <ele>342.2</ele>
        <time>2022-03-08T15:32:56Z</time>
      </trkpt>
      <trkpt lat="43.57086" lon="2.01624">
        <ele>342.2</ele>
        <time>2022-03-08T15:32:57Z</time>
      </trkpt>
      <trkpt lat="43.57086" lon="2.01623">
        <ele>342.2</ele>
        <time>2022-03-08T15:32:58Z</time>
      </trkpt>
      <trkpt lat="43.57087" lon="2.01622">
        <ele>342.1</ele>
        <time>2022-03-08T15:33:00Z</time>
      </trkpt>
      <trkpt lat="43.57088" lon="2.01621">
        <ele>342.1</ele>
        <time>2022-03-08T15:33:01Z</time>
      </trkpt>
      <trkpt lat="43.57088" lon="2.01619">
        <ele>342.1</ele>
        <time>2022-03-08T15:33:02Z</time>
      </trkpt>
      <trkpt lat="43.57088" lon="2.01618">
        <ele>342.1</ele>
        <time>2022-03-08T15:33:03Z</time>
      </trkpt>
      <trkpt lat="43.57089" lon="2.01617">
        <ele>342.1</ele>
        <time>2022-03-08T15:33:04Z</time>
      </trkpt>
      <trkpt lat="43.57089" lon="2.01616">
        <ele>342.1</ele>
        <time>2022-03-08T15:33:05Z</time>
      </trkpt>
      <trkpt lat="43.57089" lon="2.01614">
        <ele>342.1</ele>
        <time>2022-03-08T15:33:06Z</time>
      </trkpt>
      <trkpt lat="43.57089" lon="2.01611">
        <ele>342</ele>
        <time>2022-03-08T15:33:08Z</time>
      </trkpt>
      <trkpt lat="43.57091" lon="2.01608">
        <ele>342</ele>
        <time>2022-03-08T15:33:09Z</time>
      </trkpt>
      <trkpt lat="43.57092" lon="2.01604">
        <ele>342.3</ele>
        <time>2022-03-08T15:33:10Z</time>
      </trkpt>
      <trkpt lat="43.57092" lon="2.01603">
        <ele>342.7</ele>
        <time>2022-03-08T15:33:11Z</time>
      </trkpt>
      <trkpt lat="43.57093" lon="2.016">
        <ele>343.5</ele>
        <time>2022-03-08T15:33:12Z</time>
      </trkpt>
      <trkpt lat="43.57094" lon="2.01598">
        <ele>343.5</ele>
        <time>2022-03-08T15:33:13Z</time>
      </trkpt>
      <trkpt lat="43.57094" lon="2.01597">
        <ele>343.5</ele>
        <time>2022-03-08T15:33:14Z</time>
      </trkpt>
      <trkpt lat="43.57095" lon="2.01595">
        <ele>343.5</ele>
        <time>2022-03-08T15:33:15Z</time>
      </trkpt>
      <trkpt lat="43.57096" lon="2.01593">
        <ele>343.5</ele>
        <time>2022-03-08T15:33:17Z</time>
      </trkpt>
      <trkpt lat="43.57096" lon="2.01591">
        <ele>343.5</ele>
        <time>2022-03-08T15:33:18Z</time>
      </trkpt>
      <trkpt lat="43.57096" lon="2.01588">
        <ele>343.5</ele>
        <time>2022-03-08T15:33:20Z</time>
      </trkpt>
      <trkpt lat="43.57096" lon="2.01586">
        <ele>343.5</ele>
        <time>2022-03-08T15:33:21Z</time>
      </trkpt>
      <trkpt lat="43.57096" lon="2.01585">
        <ele>343.5</ele>
        <time>2022-03-08T15:33:22Z</time>
      </trkpt>
      <trkpt lat="43.57097" lon="2.01583">
        <ele>343.5</ele>
        <time>2022-03-08T15:33:23Z</time>
      </trkpt>
      <trkpt lat="43.57097" lon="2.01581">
        <ele>343.5</ele>
        <time>2022-03-08T15:33:24Z</time>
      </trkpt>
      <trkpt lat="43.57097" lon="2.01581">
        <ele>343.5</ele>
        <time>2022-03-08T15:33:25Z</time>
      </trkpt>
      <trkpt lat="43.57097" lon="2.0158">
        <ele>343.5</ele>
        <time>2022-03-08T15:33:27Z</time>
      </trkpt>
      <trkpt lat="43.57096" lon="2.0158">
        <ele>343.5</ele>
        <time>2022-03-08T15:33:28Z</time>
      </trkpt>
      <trkpt lat="43.57096" lon="2.01579">
        <ele>343.5</ele>
        <time>2022-03-08T15:33:29Z</time>
      </trkpt>
      <trkpt lat="43.57096" lon="2.01579">
        <ele>343.4</ele>
        <time>2022-03-08T15:33:30Z</time>
      </trkpt>
      <trkpt lat="43.57096" lon="2.01578">
        <ele>343.4</ele>
        <time>2022-03-08T15:33:31Z</time>
      </trkpt>
      <trkpt lat="43.57096" lon="2.01578">
        <ele>343.4</ele>
        <time>2022-03-08T15:33:33Z</time>
      </trkpt>
      <trkpt lat="43.57096" lon="2.01577">
        <ele>343.4</ele>
        <time>2022-03-08T15:33:34Z</time>
      </trkpt>
      <trkpt lat="43.57096" lon="2.01577">
        <ele>343.4</ele>
        <time>2022-03-08T15:33:35Z</time>
      </trkpt>
      <trkpt lat="43.57096" lon="2.01576">
        <ele>343.4</ele>
        <time>2022-03-08T15:33:36Z</time>
      </trkpt>
      <trkpt lat="43.57096" lon="2.01576">
        <ele>343.4</ele>
        <time>2022-03-08T15:33:37Z</time>
      </trkpt>
      <trkpt lat="43.57096" lon="2.01575">
        <ele>343.4</ele>
        <time>2022-03-08T15:33:38Z</time>
      </trkpt>
      <trkpt lat="43.57096" lon="2.01575">
        <ele>343.4</ele>
        <time>2022-03-08T15:33:39Z</time>
      </trkpt>
      <trkpt lat="43.57096" lon="2.01574">
        <ele>343.4</ele>
        <time>2022-03-08T15:33:40Z</time>
      </trkpt>
      <trkpt lat="43.57096" lon="2.01574">
        <ele>343.4</ele>
        <time>2022-03-08T15:33:42Z</time>
      </trkpt>
      <trkpt lat="43.57096" lon="2.01573">
        <ele>343.4</ele>
        <time>2022-03-08T15:33:44Z</time>
      </trkpt>
      <trkpt lat="43.57096" lon="2.01573">
        <ele>343.4</ele>
        <time>2022-03-08T15:33:45Z</time>
      </trkpt>
      <trkpt lat="43.57096" lon="2.01572">
        <ele>343.4</ele>
        <time>2022-03-08T15:33:46Z</time>
      </trkpt>
      <trkpt lat="43.57096" lon="2.01572">
        <ele>343.4</ele>
        <time>2022-03-08T15:33:47Z</time>
      </trkpt>
      <trkpt lat="43.57095" lon="2.01571">
        <ele>343.4</ele>
        <time>2022-03-08T15:33:48Z</time>
      </trkpt>
      <trkpt lat="43.57095" lon="2.01571">
        <ele>343.4</ele>
        <time>2022-03-08T15:33:49Z</time>
      </trkpt>
      <trkpt lat="43.57095" lon="2.0157">
        <ele>343.4</ele>
        <time>2022-03-08T15:33:50Z</time>
      </trkpt>
      <trkpt lat="43.57095" lon="2.0157">
        <ele>343.4</ele>
        <time>2022-03-08T15:33:51Z</time>
      </trkpt>
      <trkpt lat="43.57095" lon="2.01566">
        <ele>343.4</ele>
        <time>2022-03-08T15:33:52Z</time>
      </trkpt>
      <trkpt lat="43.57095" lon="2.01564">
        <ele>343.7</ele>
        <time>2022-03-08T15:33:54Z</time>
      </trkpt>
      <trkpt lat="43.57095" lon="2.01562">
        <ele>344.2</ele>
        <time>2022-03-08T15:33:55Z</time>
      </trkpt>
      <trkpt lat="43.57096" lon="2.0156">
        <ele>344.7</ele>
        <time>2022-03-08T15:33:56Z</time>
      </trkpt>
      <trkpt lat="43.57096" lon="2.01559">
        <ele>345.2</ele>
        <time>2022-03-08T15:33:57Z</time>
      </trkpt>
      <trkpt lat="43.57096" lon="2.01557">
        <ele>345.7</ele>
        <time>2022-03-08T15:33:58Z</time>
      </trkpt>
      <trkpt lat="43.57096" lon="2.01556">
        <ele>346</ele>
        <time>2022-03-08T15:33:59Z</time>
      </trkpt>
      <trkpt lat="43.57097" lon="2.01553">
        <ele>346</ele>
        <time>2022-03-08T15:34:00Z</time>
      </trkpt>
      <trkpt lat="43.57097" lon="2.01552">
        <ele>346.1</ele>
        <time>2022-03-08T15:34:01Z</time>
      </trkpt>
      <trkpt lat="43.57098" lon="2.01551">
        <ele>346.1</ele>
        <time>2022-03-08T15:34:02Z</time>
      </trkpt>
      <trkpt lat="43.57099" lon="2.01549">
        <ele>346.1</ele>
        <time>2022-03-08T15:34:04Z</time>
      </trkpt>
      <trkpt lat="43.57099" lon="2.01548">
        <ele>346.2</ele>
        <time>2022-03-08T15:34:05Z</time>
      </trkpt>
      <trkpt lat="43.571" lon="2.01547">
        <ele>346.2</ele>
        <time>2022-03-08T15:34:06Z</time>
      </trkpt>
      <trkpt lat="43.57101" lon="2.01547">
        <ele>346.2</ele>
        <time>2022-03-08T15:34:07Z</time>
      </trkpt>
      <trkpt lat="43.57102" lon="2.01546">
        <ele>346.2</ele>
        <time>2022-03-08T15:34:09Z</time>
      </trkpt>
      <trkpt lat="43.57102" lon="2.01545">
        <ele>346.2</ele>
        <time>2022-03-08T15:34:10Z</time>
      </trkpt>
      <trkpt lat="43.57103" lon="2.01544">
        <ele>346.2</ele>
        <time>2022-03-08T15:34:11Z</time>
      </trkpt>
      <trkpt lat="43.57104" lon="2.01542">
        <ele>346.4</ele>
        <time>2022-03-08T15:34:13Z</time>
      </trkpt>
      <trkpt lat="43.57105" lon="2.0154">
        <ele>346.6</ele>
        <time>2022-03-08T15:34:14Z</time>
      </trkpt>
      <trkpt lat="43.57106" lon="2.01539">
        <ele>346.7</ele>
        <time>2022-03-08T15:34:15Z</time>
      </trkpt>
      <trkpt lat="43.57106" lon="2.01538">
        <ele>346.7</ele>
        <time>2022-03-08T15:34:16Z</time>
      </trkpt>
      <trkpt lat="43.57107" lon="2.01535">
        <ele>346.9</ele>
        <time>2022-03-08T15:34:17Z</time>
      </trkpt>
      <trkpt lat="43.57107" lon="2.01534">
        <ele>347</ele>
        <time>2022-03-08T15:34:18Z</time>
      </trkpt>
      <trkpt lat="43.57107" lon="2.01533">
        <ele>347.1</ele>
        <time>2022-03-08T15:34:19Z</time>
      </trkpt>
      <trkpt lat="43.57108" lon="2.01529">
        <ele>347.3</ele>
        <time>2022-03-08T15:34:20Z</time>
      </trkpt>
      <trkpt lat="43.57108" lon="2.01527">
        <ele>347.4</ele>
        <time>2022-03-08T15:34:21Z</time>
      </trkpt>
      <trkpt lat="43.57108" lon="2.01525">
        <ele>347.5</ele>
        <time>2022-03-08T15:34:22Z</time>
      </trkpt>
      <trkpt lat="43.57109" lon="2.01523">
        <ele>347.6</ele>
        <time>2022-03-08T15:34:23Z</time>
      </trkpt>
      <trkpt lat="43.57109" lon="2.01521">
        <ele>347.7</ele>
        <time>2022-03-08T15:34:24Z</time>
      </trkpt>
      <trkpt lat="43.57111" lon="2.0152">
        <ele>347.8</ele>
        <time>2022-03-08T15:34:25Z</time>
      </trkpt>
      <trkpt lat="43.57114" lon="2.0152">
        <ele>348</ele>
        <time>2022-03-08T15:34:26Z</time>
      </trkpt>
      <trkpt lat="43.57116" lon="2.0152">
        <ele>348.2</ele>
        <time>2022-03-08T15:34:28Z</time>
      </trkpt>
      <trkpt lat="43.57117" lon="2.0152">
        <ele>348.2</ele>
        <time>2022-03-08T15:34:29Z</time>
      </trkpt>
      <trkpt lat="43.57118" lon="2.0152">
        <ele>348.2</ele>
        <time>2022-03-08T15:34:30Z</time>
      </trkpt>
      <trkpt lat="43.57119" lon="2.01519">
        <ele>348.2</ele>
        <time>2022-03-08T15:34:31Z</time>
      </trkpt>
      <trkpt lat="43.5712" lon="2.01517">
        <ele>348.3</ele>
        <time>2022-03-08T15:34:32Z</time>
      </trkpt>
      <trkpt lat="43.5712" lon="2.01515">
        <ele>348.3</ele>
        <time>2022-03-08T15:34:34Z</time>
      </trkpt>
      <trkpt lat="43.57121" lon="2.01513">
        <ele>348.3</ele>
        <time>2022-03-08T15:34:35Z</time>
      </trkpt>
      <trkpt lat="43.57121" lon="2.0151">
        <ele>348.3</ele>
        <time>2022-03-08T15:34:36Z</time>
      </trkpt>
      <trkpt lat="43.57121" lon="2.01508">
        <ele>348.4</ele>
        <time>2022-03-08T15:34:37Z</time>
      </trkpt>
      <trkpt lat="43.57121" lon="2.01506">
        <ele>348.4</ele>
        <time>2022-03-08T15:34:38Z</time>
      </trkpt>
      <trkpt lat="43.57121" lon="2.01503">
        <ele>348.4</ele>
        <time>2022-03-08T15:34:40Z</time>
      </trkpt>
      <trkpt lat="43.5712" lon="2.01502">
        <ele>348.4</ele>
        <time>2022-03-08T15:34:41Z</time>
      </trkpt>
      <trkpt lat="43.5712" lon="2.015">
        <ele>348.4</ele>
        <time>2022-03-08T15:34:42Z</time>
      </trkpt>
      <trkpt lat="43.57121" lon="2.01497">
        <ele>348.6</ele>
        <time>2022-03-08T15:34:43Z</time>
      </trkpt>
      <trkpt lat="43.57122" lon="2.01493">
        <ele>349</ele>
        <time>2022-03-08T15:34:44Z</time>
      </trkpt>
      <trkpt lat="43.57123" lon="2.01492">
        <ele>349.1</ele>
        <time>2022-03-08T15:34:45Z</time>
      </trkpt>
      <trkpt lat="43.57124" lon="2.01489">
        <ele>349.4</ele>
        <time>2022-03-08T15:34:46Z</time>
      </trkpt>
      <trkpt lat="43.57125" lon="2.01488">
        <ele>349.5</ele>
        <time>2022-03-08T15:34:47Z</time>
      </trkpt>
      <trkpt lat="43.57127" lon="2.01484">
        <ele>349.8</ele>
        <time>2022-03-08T15:34:48Z</time>
      </trkpt>
      <trkpt lat="43.57128" lon="2.01483">
        <ele>350</ele>
        <time>2022-03-08T15:34:49Z</time>
      </trkpt>
      <trkpt lat="43.57131" lon="2.0148">
        <ele>350.3</ele>
        <time>2022-03-08T15:34:50Z</time>
      </trkpt>
      <trkpt lat="43.57132" lon="2.0148">
        <ele>350.4</ele>
        <time>2022-03-08T15:34:51Z</time>
      </trkpt>
      <trkpt lat="43.57133" lon="2.01479">
        <ele>350.6</ele>
        <time>2022-03-08T15:34:53Z</time>
      </trkpt>
      <trkpt lat="43.57133" lon="2.0148">
        <ele>350.6</ele>
        <time>2022-03-08T15:34:54Z</time>
      </trkpt>
      <trkpt lat="43.57133" lon="2.0148">
        <ele>350.7</ele>
        <time>2022-03-08T15:34:55Z</time>
      </trkpt>
      <trkpt lat="43.57134" lon="2.01478">
        <ele>350.8</ele>
        <time>2022-03-08T15:34:56Z</time>
      </trkpt>
      <trkpt lat="43.57134" lon="2.01477">
        <ele>350.9</ele>
        <time>2022-03-08T15:34:57Z</time>
      </trkpt>
      <trkpt lat="43.57135" lon="2.01475">
        <ele>351</ele>
        <time>2022-03-08T15:34:58Z</time>
      </trkpt>
      <trkpt lat="43.57135" lon="2.01474">
        <ele>351.1</ele>
        <time>2022-03-08T15:34:59Z</time>
      </trkpt>
      <trkpt lat="43.57136" lon="2.01472">
        <ele>351.2</ele>
        <time>2022-03-08T15:35:00Z</time>
      </trkpt>
      <trkpt lat="43.57136" lon="2.0147">
        <ele>351.3</ele>
        <time>2022-03-08T15:35:01Z</time>
      </trkpt>
      <trkpt lat="43.57137" lon="2.01469">
        <ele>351.4</ele>
        <time>2022-03-08T15:35:02Z</time>
      </trkpt>
      <trkpt lat="43.57138" lon="2.01468">
        <ele>351.5</ele>
        <time>2022-03-08T15:35:03Z</time>
      </trkpt>
      <trkpt lat="43.5714" lon="2.01465">
        <ele>351.7</ele>
        <time>2022-03-08T15:35:05Z</time>
      </trkpt>
      <trkpt lat="43.57141" lon="2.01464">
        <ele>351.7</ele>
        <time>2022-03-08T15:35:06Z</time>
      </trkpt>
      <trkpt lat="43.57142" lon="2.01462">
        <ele>351.9</ele>
        <time>2022-03-08T15:35:07Z</time>
      </trkpt>
      <trkpt lat="43.57142" lon="2.01459">
        <ele>352</ele>
        <time>2022-03-08T15:35:08Z</time>
      </trkpt>
      <trkpt lat="43.57143" lon="2.01458">
        <ele>352</ele>
        <time>2022-03-08T15:35:09Z</time>
      </trkpt>
      <trkpt lat="43.57143" lon="2.01457">
        <ele>352.1</ele>
        <time>2022-03-08T15:35:10Z</time>
      </trkpt>
      <trkpt lat="43.57144" lon="2.01454">
        <ele>352.2</ele>
        <time>2022-03-08T15:35:11Z</time>
      </trkpt>
      <trkpt lat="43.57145" lon="2.01453">
        <ele>352.3</ele>
        <time>2022-03-08T15:35:12Z</time>
      </trkpt>
      <trkpt lat="43.57147" lon="2.01452">
        <ele>352.5</ele>
        <time>2022-03-08T15:35:14Z</time>
      </trkpt>
      <trkpt lat="43.57148" lon="2.01452">
        <ele>352.5</ele>
        <time>2022-03-08T15:35:15Z</time>
      </trkpt>
      <trkpt lat="43.57148" lon="2.01452">
        <ele>352.5</ele>
        <time>2022-03-08T15:35:16Z</time>
      </trkpt>
      <trkpt lat="43.57149" lon="2.01454">
        <ele>352.6</ele>
        <time>2022-03-08T15:35:17Z</time>
      </trkpt>
      <trkpt lat="43.5715" lon="2.01455">
        <ele>352.7</ele>
        <time>2022-03-08T15:35:18Z</time>
      </trkpt>
      <trkpt lat="43.57154" lon="2.01454">
        <ele>352.9</ele>
        <time>2022-03-08T15:35:20Z</time>
      </trkpt>
      <trkpt lat="43.57155" lon="2.01453">
        <ele>353.1</ele>
        <time>2022-03-08T15:35:21Z</time>
      </trkpt>
      <trkpt lat="43.57156" lon="2.01451">
        <ele>353.1</ele>
        <time>2022-03-08T15:35:22Z</time>
      </trkpt>
      <trkpt lat="43.57157" lon="2.01448">
        <ele>353.1</ele>
        <time>2022-03-08T15:35:23Z</time>
      </trkpt>
      <trkpt lat="43.57157" lon="2.01446">
        <ele>353.1</ele>
        <time>2022-03-08T15:35:24Z</time>
      </trkpt>
      <trkpt lat="43.57157" lon="2.01444">
        <ele>353.1</ele>
        <time>2022-03-08T15:35:25Z</time>
      </trkpt>
      <trkpt lat="43.57157" lon="2.01442">
        <ele>353.2</ele>
        <time>2022-03-08T15:35:26Z</time>
      </trkpt>
      <trkpt lat="43.57157" lon="2.0144">
        <ele>353.2</ele>
        <time>2022-03-08T15:35:27Z</time>
      </trkpt>
      <trkpt lat="43.57157" lon="2.01438">
        <ele>353.2</ele>
        <time>2022-03-08T15:35:29Z</time>
      </trkpt>
      <trkpt lat="43.57157" lon="2.01436">
        <ele>353.2</ele>
        <time>2022-03-08T15:35:30Z</time>
      </trkpt>
      <trkpt lat="43.57157" lon="2.01433">
        <ele>353.2</ele>
        <time>2022-03-08T15:35:31Z</time>
      </trkpt>
      <trkpt lat="43.57158" lon="2.01431">
        <ele>353.2</ele>
        <time>2022-03-08T15:35:33Z</time>
      </trkpt>
      <trkpt lat="43.57158" lon="2.01429">
        <ele>353.2</ele>
        <time>2022-03-08T15:35:34Z</time>
      </trkpt>
      <trkpt lat="43.57159" lon="2.01428">
        <ele>353.2</ele>
        <time>2022-03-08T15:35:35Z</time>
      </trkpt>
      <trkpt lat="43.5716" lon="2.01426">
        <ele>353.3</ele>
        <time>2022-03-08T15:35:36Z</time>
      </trkpt>
      <trkpt lat="43.57161" lon="2.01424">
        <ele>353.3</ele>
        <time>2022-03-08T15:35:37Z</time>
      </trkpt>
      <trkpt lat="43.57162" lon="2.01423">
        <ele>353.3</ele>
        <time>2022-03-08T15:35:38Z</time>
      </trkpt>
      <trkpt lat="43.57163" lon="2.01421">
        <ele>353.3</ele>
        <time>2022-03-08T15:35:39Z</time>
      </trkpt>
      <trkpt lat="43.57164" lon="2.01419">
        <ele>353.3</ele>
        <time>2022-03-08T15:35:40Z</time>
      </trkpt>
      <trkpt lat="43.57165" lon="2.01418">
        <ele>353.3</ele>
        <time>2022-03-08T15:35:41Z</time>
      </trkpt>
      <trkpt lat="43.57165" lon="2.01416">
        <ele>353.3</ele>
        <time>2022-03-08T15:35:42Z</time>
      </trkpt>
      <trkpt lat="43.57166" lon="2.01414">
        <ele>353.3</ele>
        <time>2022-03-08T15:35:43Z</time>
      </trkpt>
      <trkpt lat="43.57167" lon="2.01411">
        <ele>353.3</ele>
        <time>2022-03-08T15:35:44Z</time>
      </trkpt>
      <trkpt lat="43.57167" lon="2.01409">
        <ele>353.3</ele>
        <time>2022-03-08T15:35:46Z</time>
      </trkpt>
      <trkpt lat="43.57167" lon="2.01408">
        <ele>353.3</ele>
        <time>2022-03-08T15:35:47Z</time>
      </trkpt>
      <trkpt lat="43.57169" lon="2.01405">
        <ele>353.3</ele>
        <time>2022-03-08T15:35:48Z</time>
      </trkpt>
      <trkpt lat="43.57169" lon="2.01403">
        <ele>353.2</ele>
        <time>2022-03-08T15:35:49Z</time>
      </trkpt>
      <trkpt lat="43.5717" lon="2.014">
        <ele>353.2</ele>
        <time>2022-03-08T15:35:50Z</time>
      </trkpt>
      <trkpt lat="43.5717" lon="2.01399">
        <ele>353.2</ele>
        <time>2022-03-08T15:35:51Z</time>
      </trkpt>
      <trkpt lat="43.5717" lon="2.01396">
        <ele>353.2</ele>
        <time>2022-03-08T15:35:52Z</time>
      </trkpt>
      <trkpt lat="43.5717" lon="2.01395">
        <ele>353.2</ele>
        <time>2022-03-08T15:35:53Z</time>
      </trkpt>
      <trkpt lat="43.5717" lon="2.01393">
        <ele>353.1</ele>
        <time>2022-03-08T15:35:54Z</time>
      </trkpt>
      <trkpt lat="43.5717" lon="2.01392">
        <ele>353.1</ele>
        <time>2022-03-08T15:35:55Z</time>
      </trkpt>
      <trkpt lat="43.5717" lon="2.0139">
        <ele>353.1</ele>
        <time>2022-03-08T15:35:56Z</time>
      </trkpt>
      <trkpt lat="43.5717" lon="2.01389">
        <ele>353.1</ele>
        <time>2022-03-08T15:35:57Z</time>
      </trkpt>
      <trkpt lat="43.5717" lon="2.01387">
        <ele>353</ele>
        <time>2022-03-08T15:35:58Z</time>
      </trkpt>
      <trkpt lat="43.57171" lon="2.01388">
        <ele>353</ele>
        <time>2022-03-08T15:36:00Z</time>
      </trkpt>
      <trkpt lat="43.57172" lon="2.01388">
        <ele>353</ele>
        <time>2022-03-08T15:36:01Z</time>
      </trkpt>
      <trkpt lat="43.57173" lon="2.01388">
        <ele>352.9</ele>
        <time>2022-03-08T15:36:02Z</time>
      </trkpt>
      <trkpt lat="43.57174" lon="2.01387">
        <ele>352.9</ele>
        <time>2022-03-08T15:36:03Z</time>
      </trkpt>
      <trkpt lat="43.57175" lon="2.01387">
        <ele>352.9</ele>
        <time>2022-03-08T15:36:04Z</time>
      </trkpt>
      <trkpt lat="43.57177" lon="2.01385">
        <ele>352.8</ele>
        <time>2022-03-08T15:36:06Z</time>
      </trkpt>
      <trkpt lat="43.57178" lon="2.01384">
        <ele>352.8</ele>
        <time>2022-03-08T15:36:07Z</time>
      </trkpt>
      <trkpt lat="43.57179" lon="2.01382">
        <ele>352.7</ele>
        <time>2022-03-08T15:36:08Z</time>
      </trkpt>
      <trkpt lat="43.5718" lon="2.0138">
        <ele>352.7</ele>
        <time>2022-03-08T15:36:09Z</time>
      </trkpt>
      <trkpt lat="43.5718" lon="2.01379">
        <ele>352.7</ele>
        <time>2022-03-08T15:36:10Z</time>
      </trkpt>
      <trkpt lat="43.57181" lon="2.01376">
        <ele>352.7</ele>
        <time>2022-03-08T15:36:11Z</time>
      </trkpt>
      <trkpt lat="43.57181" lon="2.01375">
        <ele>352.6</ele>
        <time>2022-03-08T15:36:12Z</time>
      </trkpt>
      <trkpt lat="43.57181" lon="2.01373">
        <ele>352.6</ele>
        <time>2022-03-08T15:36:14Z</time>
      </trkpt>
      <trkpt lat="43.57181" lon="2.01371">
        <ele>352.6</ele>
        <time>2022-03-08T15:36:15Z</time>
      </trkpt>
      <trkpt lat="43.57181" lon="2.0137">
        <ele>353.2</ele>
        <time>2022-03-08T15:36:16Z</time>
      </trkpt>
      <trkpt lat="43.57182" lon="2.01368">
        <ele>353.3</ele>
        <time>2022-03-08T15:36:17Z</time>
      </trkpt>
      <trkpt lat="43.57183" lon="2.01367">
        <ele>353.4</ele>
        <time>2022-03-08T15:36:18Z</time>
      </trkpt>
      <trkpt lat="43.57184" lon="2.01364">
        <ele>353.6</ele>
        <time>2022-03-08T15:36:19Z</time>
      </trkpt>
      <trkpt lat="43.57184" lon="2.01363">
        <ele>353.6</ele>
        <time>2022-03-08T15:36:20Z</time>
      </trkpt>
      <trkpt lat="43.57185" lon="2.01362">
        <ele>353.7</ele>
        <time>2022-03-08T15:36:21Z</time>
      </trkpt>
      <trkpt lat="43.57185" lon="2.01361">
        <ele>353.8</ele>
        <time>2022-03-08T15:36:22Z</time>
      </trkpt>
      <trkpt lat="43.57183" lon="2.01358">
        <ele>354</ele>
        <time>2022-03-08T15:36:24Z</time>
      </trkpt>
      <trkpt lat="43.57183" lon="2.01356">
        <ele>354.1</ele>
        <time>2022-03-08T15:36:25Z</time>
      </trkpt>
      <trkpt lat="43.57182" lon="2.01354">
        <ele>354.3</ele>
        <time>2022-03-08T15:36:26Z</time>
      </trkpt>
      <trkpt lat="43.57182" lon="2.01351">
        <ele>354.5</ele>
        <time>2022-03-08T15:36:27Z</time>
      </trkpt>
      <trkpt lat="43.57181" lon="2.0135">
        <ele>354.5</ele>
        <time>2022-03-08T15:36:28Z</time>
      </trkpt>
      <trkpt lat="43.57181" lon="2.01348">
        <ele>354.5</ele>
        <time>2022-03-08T15:36:29Z</time>
      </trkpt>
      <trkpt lat="43.57179" lon="2.01347">
        <ele>353.5</ele>
        <time>2022-03-08T15:36:30Z</time>
      </trkpt>
      <trkpt lat="43.57178" lon="2.01347">
        <ele>352.8</ele>
        <time>2022-03-08T15:36:31Z</time>
      </trkpt>
      <trkpt lat="43.57177" lon="2.01347">
        <ele>352.5</ele>
        <time>2022-03-08T15:36:33Z</time>
      </trkpt>
      <trkpt lat="43.57177" lon="2.01346">
        <ele>352.2</ele>
        <time>2022-03-08T15:36:34Z</time>
      </trkpt>
      <trkpt lat="43.57177" lon="2.01346">
        <ele>352</ele>
        <time>2022-03-08T15:36:35Z</time>
      </trkpt>
      <trkpt lat="43.57176" lon="2.01346">
        <ele>351.7</ele>
        <time>2022-03-08T15:36:37Z</time>
      </trkpt>
      <trkpt lat="43.57176" lon="2.01346">
        <ele>351.5</ele>
        <time>2022-03-08T15:36:38Z</time>
      </trkpt>
      <trkpt lat="43.57175" lon="2.01345">
        <ele>351.1</ele>
        <time>2022-03-08T15:36:39Z</time>
      </trkpt>
      <trkpt lat="43.57174" lon="2.01344">
        <ele>350.6</ele>
        <time>2022-03-08T15:36:40Z</time>
      </trkpt>
      <trkpt lat="43.57172" lon="2.01344">
        <ele>350.3</ele>
        <time>2022-03-08T15:36:41Z</time>
      </trkpt>
      <trkpt lat="43.5717" lon="2.01342">
        <ele>349.9</ele>
        <time>2022-03-08T15:36:43Z</time>
      </trkpt>
      <trkpt lat="43.57169" lon="2.01341">
        <ele>349.7</ele>
        <time>2022-03-08T15:36:44Z</time>
      </trkpt>
      <trkpt lat="43.57167" lon="2.01339">
        <ele>349.3</ele>
        <time>2022-03-08T15:36:45Z</time>
      </trkpt>
      <trkpt lat="43.57167" lon="2.01338">
        <ele>349.2</ele>
        <time>2022-03-08T15:36:46Z</time>
      </trkpt>
      <trkpt lat="43.57166" lon="2.01337">
        <ele>349</ele>
        <time>2022-03-08T15:36:47Z</time>
      </trkpt>
      <trkpt lat="43.57166" lon="2.01337">
        <ele>348.9</ele>
        <time>2022-03-08T15:36:49Z</time>
      </trkpt>
      <trkpt lat="43.57165" lon="2.01336">
        <ele>348.8</ele>
        <time>2022-03-08T15:36:50Z</time>
      </trkpt>
      <trkpt lat="43.57165" lon="2.01334">
        <ele>348.6</ele>
        <time>2022-03-08T15:36:51Z</time>
      </trkpt>
      <trkpt lat="43.57165" lon="2.01333">
        <ele>348.5</ele>
        <time>2022-03-08T15:36:52Z</time>
      </trkpt>
      <trkpt lat="43.57164" lon="2.01331">
        <ele>348.2</ele>
        <time>2022-03-08T15:36:53Z</time>
      </trkpt>
      <trkpt lat="43.57162" lon="2.01329">
        <ele>347.8</ele>
        <time>2022-03-08T15:36:55Z</time>
      </trkpt>
      <trkpt lat="43.57161" lon="2.01328">
        <ele>347.6</ele>
        <time>2022-03-08T15:36:56Z</time>
      </trkpt>
      <trkpt lat="43.5716" lon="2.01327">
        <ele>347.4</ele>
        <time>2022-03-08T15:36:57Z</time>
      </trkpt>
      <trkpt lat="43.57159" lon="2.01326">
        <ele>347.2</ele>
        <time>2022-03-08T15:36:58Z</time>
      </trkpt>
      <trkpt lat="43.57158" lon="2.01326">
        <ele>347</ele>
        <time>2022-03-08T15:36:59Z</time>
      </trkpt>
      <trkpt lat="43.57157" lon="2.01325">
        <ele>346.8</ele>
        <time>2022-03-08T15:37:00Z</time>
      </trkpt>
      <trkpt lat="43.57156" lon="2.01324">
        <ele>346.6</ele>
        <time>2022-03-08T15:37:01Z</time>
      </trkpt>
      <trkpt lat="43.57155" lon="2.01323">
        <ele>346.4</ele>
        <time>2022-03-08T15:37:03Z</time>
      </trkpt>
      <trkpt lat="43.57154" lon="2.01323">
        <ele>346.2</ele>
        <time>2022-03-08T15:37:04Z</time>
      </trkpt>
      <trkpt lat="43.57153" lon="2.01322">
        <ele>346</ele>
        <time>2022-03-08T15:37:05Z</time>
      </trkpt>
      <trkpt lat="43.57153" lon="2.01321">
        <ele>345.8</ele>
        <time>2022-03-08T15:37:06Z</time>
      </trkpt>
      <trkpt lat="43.57152" lon="2.0132">
        <ele>345.7</ele>
        <time>2022-03-08T15:37:07Z</time>
      </trkpt>
      <trkpt lat="43.5715" lon="2.0132">
        <ele>345.3</ele>
        <time>2022-03-08T15:37:08Z</time>
      </trkpt>
      <trkpt lat="43.57149" lon="2.0132">
        <ele>345.1</ele>
        <time>2022-03-08T15:37:09Z</time>
      </trkpt>
      <trkpt lat="43.57147" lon="2.01321">
        <ele>344.8</ele>
        <time>2022-03-08T15:37:11Z</time>
      </trkpt>
      <trkpt lat="43.57146" lon="2.01321">
        <ele>344.6</ele>
        <time>2022-03-08T15:37:12Z</time>
      </trkpt>
      <trkpt lat="43.57145" lon="2.01322">
        <ele>344.5</ele>
        <time>2022-03-08T15:37:13Z</time>
      </trkpt>
      <trkpt lat="43.57142" lon="2.01324">
        <ele>344.6</ele>
        <time>2022-03-08T15:37:14Z</time>
      </trkpt>
      <trkpt lat="43.57141" lon="2.01325">
        <ele>344.6</ele>
        <time>2022-03-08T15:37:15Z</time>
      </trkpt>
      <trkpt lat="43.5714" lon="2.01327">
        <ele>344.6</ele>
        <time>2022-03-08T15:37:16Z</time>
      </trkpt>
      <trkpt lat="43.57138" lon="2.01332">
        <ele>344.6</ele>
        <time>2022-03-08T15:37:18Z</time>
      </trkpt>
      <trkpt lat="43.57138" lon="2.01336">
        <ele>344.6</ele>
        <time>2022-03-08T15:37:19Z</time>
      </trkpt>
      <trkpt lat="43.57137" lon="2.01338">
        <ele>344.6</ele>
        <time>2022-03-08T15:37:20Z</time>
      </trkpt>
      <trkpt lat="43.57136" lon="2.0134">
        <ele>344.6</ele>
        <time>2022-03-08T15:37:21Z</time>
      </trkpt>
      <trkpt lat="43.57135" lon="2.01343">
        <ele>344.7</ele>
        <time>2022-03-08T15:37:22Z</time>
      </trkpt>
      <trkpt lat="43.57135" lon="2.01346">
        <ele>344.7</ele>
        <time>2022-03-08T15:37:24Z</time>
      </trkpt>
      <trkpt lat="43.57134" lon="2.01348">
        <ele>344.7</ele>
        <time>2022-03-08T15:37:25Z</time>
      </trkpt>
      <trkpt lat="43.57133" lon="2.01349">
        <ele>344.7</ele>
        <time>2022-03-08T15:37:26Z</time>
      </trkpt>
      <trkpt lat="43.57133" lon="2.0135">
        <ele>344.7</ele>
        <time>2022-03-08T15:37:27Z</time>
      </trkpt>
      <trkpt lat="43.57132" lon="2.01352">
        <ele>344.7</ele>
        <time>2022-03-08T15:37:28Z</time>
      </trkpt>
      <trkpt lat="43.57131" lon="2.01353">
        <ele>344.7</ele>
        <time>2022-03-08T15:37:29Z</time>
      </trkpt>
      <trkpt lat="43.57131" lon="2.01354">
        <ele>344.7</ele>
        <time>2022-03-08T15:37:30Z</time>
      </trkpt>
      <trkpt lat="43.57129" lon="2.01356">
        <ele>344.7</ele>
        <time>2022-03-08T15:37:31Z</time>
      </trkpt>
      <trkpt lat="43.57128" lon="2.01356">
        <ele>344.8</ele>
        <time>2022-03-08T15:37:32Z</time>
      </trkpt>
      <trkpt lat="43.57127" lon="2.01357">
        <ele>344.8</ele>
        <time>2022-03-08T15:37:33Z</time>
      </trkpt>
      <trkpt lat="43.57126" lon="2.01357">
        <ele>344.8</ele>
        <time>2022-03-08T15:37:34Z</time>
      </trkpt>
      <trkpt lat="43.57125" lon="2.01359">
        <ele>344.8</ele>
        <time>2022-03-08T15:37:35Z</time>
      </trkpt>
      <trkpt lat="43.57125" lon="2.01361">
        <ele>344.9</ele>
        <time>2022-03-08T15:37:37Z</time>
      </trkpt>
      <trkpt lat="43.57125" lon="2.01362">
        <ele>344.9</ele>
        <time>2022-03-08T15:37:38Z</time>
      </trkpt>
      <trkpt lat="43.57123" lon="2.01361">
        <ele>344.9</ele>
        <time>2022-03-08T15:37:39Z</time>
      </trkpt>
      <trkpt lat="43.57122" lon="2.01359">
        <ele>345</ele>
        <time>2022-03-08T15:37:40Z</time>
      </trkpt>
      <trkpt lat="43.57121" lon="2.01358">
        <ele>345</ele>
        <time>2022-03-08T15:37:41Z</time>
      </trkpt>
      <trkpt lat="43.5712" lon="2.01358">
        <ele>345</ele>
        <time>2022-03-08T15:37:42Z</time>
      </trkpt>
      <trkpt lat="43.57119" lon="2.01358">
        <ele>345.1</ele>
        <time>2022-03-08T15:37:43Z</time>
      </trkpt>
      <trkpt lat="43.57117" lon="2.01359">
        <ele>345.1</ele>
        <time>2022-03-08T15:37:44Z</time>
      </trkpt>
      <trkpt lat="43.57116" lon="2.0136">
        <ele>345.1</ele>
        <time>2022-03-08T15:37:45Z</time>
      </trkpt>
      <trkpt lat="43.57115" lon="2.0136">
        <ele>345.2</ele>
        <time>2022-03-08T15:37:46Z</time>
      </trkpt>
      <trkpt lat="43.57117" lon="2.01358">
        <ele>345.2</ele>
        <time>2022-03-08T15:37:47Z</time>
      </trkpt>
      <trkpt lat="43.57117" lon="2.01356">
        <ele>345.3</ele>
        <time>2022-03-08T15:37:48Z</time>
      </trkpt>
      <trkpt lat="43.57118" lon="2.01354">
        <ele>345.3</ele>
        <time>2022-03-08T15:37:49Z</time>
      </trkpt>
      <trkpt lat="43.57118" lon="2.01353">
        <ele>345.3</ele>
        <time>2022-03-08T15:37:51Z</time>
      </trkpt>
      <trkpt lat="43.57117" lon="2.01352">
        <ele>345.3</ele>
        <time>2022-03-08T15:37:52Z</time>
      </trkpt>
    </trkseg>
  </trk>
</gpx>